<?xml version='1.0' encoding='UTF-8'?><gpx version="1.1" creator="JPX - https://github.com/jenetics/jpx" xmlns="http://www.topografix.com/GPX/1/1"><trk><trkseg><trkpt lat="44.3746235" lon="8.1399949"><ele>733.0</ele><time>2026-05-03T09:22:05.438Z</time></trkpt><trkpt lat="44.3746781" lon="8.1399407"><ele>733.0</ele><time>2026-05-03T09:37:48.41Z</time></trkpt><trkpt lat="44.3747431" lon="8.1399292"><ele>733.0</ele><time>2026-05-03T09:37:50.41Z</time></trkpt><trkpt lat="44.3748063" lon="8.1399331"><ele>733.0</ele><time>2026-05-03T09:37:52.41Z</time></trkpt><trkpt lat="44.3748502" lon="8.1400801"><ele>733.0</ele><time>2026-05-03T09:37:54.41Z</time></trkpt><trkpt lat="44.3748666" lon="8.1401669"><ele>733.0</ele><time>2026-05-03T09:37:55.41Z</time></trkpt><trkpt lat="44.3748877" lon="8.140273"><ele>732.5999999999999</ele><time>2026-05-03T09:37:56.41Z</time></trkpt><trkpt lat="44.3749148" lon="8.1404005"><ele>732.1999999999999</ele><time>2026-05-03T09:37:57.41Z</time></trkpt><trkpt lat="44.3749499" lon="8.1405447"><ele>731.8</ele><time>2026-05-03T09:37:58.41Z</time></trkpt><trkpt lat="44.3749915" lon="8.1406966"><ele>731.4</ele><time>2026-05-03T09:37:59.41Z</time></trkpt><trkpt lat="44.375042" lon="8.1408536"><ele>731.0</ele><time>2026-05-03T09:38:00.41Z</time></trkpt><trkpt lat="44.3750932" lon="8.1410106"><ele>729.5</ele><time>2026-05-03T09:38:01.41Z</time></trkpt><trkpt lat="44.3751488" lon="8.1411699"><ele>728.0</ele><time>2026-05-03T09:38:02.41Z</time></trkpt><trkpt lat="44.3752076" lon="8.1413337"><ele>726.5</ele><time>2026-05-03T09:38:03.41Z</time></trkpt><trkpt lat="44.3752702" lon="8.1414986"><ele>725.0</ele><time>2026-05-03T09:38:04.41Z</time></trkpt><trkpt lat="44.375337" lon="8.1416703"><ele>725.5</ele><time>2026-05-03T09:38:05.41Z</time></trkpt><trkpt lat="44.3754009" lon="8.1418457"><ele>726.0</ele><time>2026-05-03T09:38:06.41Z</time></trkpt><trkpt lat="44.3754642" lon="8.1420253"><ele>726.5</ele><time>2026-05-03T09:38:07.41Z</time></trkpt><trkpt lat="44.3755207" lon="8.1422116"><ele>727.0</ele><time>2026-05-03T09:38:08.41Z</time></trkpt><trkpt lat="44.3755778" lon="8.1424049"><ele>722.3333333333334</ele><time>2026-05-03T09:38:09.411Z</time></trkpt><trkpt lat="44.3756344" lon="8.1426031"><ele>717.6666666666666</ele><time>2026-05-03T09:38:10.41Z</time></trkpt><trkpt lat="44.3756844" lon="8.1428054"><ele>713.0</ele><time>2026-05-03T09:38:11.411Z</time></trkpt><trkpt lat="44.3757302" lon="8.143007"><ele>709.3333333333333</ele><time>2026-05-03T09:38:12.411Z</time></trkpt><trkpt lat="44.3757644" lon="8.1432152"><ele>705.6666666666666</ele><time>2026-05-03T09:38:13.41Z</time></trkpt><trkpt lat="44.3757929" lon="8.1434256"><ele>702.0</ele><time>2026-05-03T09:38:14.41Z</time></trkpt><trkpt lat="44.3758171" lon="8.1436429"><ele>702.0</ele><time>2026-05-03T09:38:15.41Z</time></trkpt><trkpt lat="44.3758359" lon="8.1438657"><ele>702.0</ele><time>2026-05-03T09:38:16.411Z</time></trkpt><trkpt lat="44.3758463" lon="8.1440935"><ele>702.0</ele><time>2026-05-03T09:38:17.411Z</time></trkpt><trkpt lat="44.37585" lon="8.1443284"><ele>702.3333333333334</ele><time>2026-05-03T09:38:18.41Z</time></trkpt><trkpt lat="44.3758459" lon="8.1445701"><ele>702.6666666666667</ele><time>2026-05-03T09:38:19.411Z</time></trkpt><trkpt lat="44.3758344" lon="8.1448168"><ele>703.0</ele><time>2026-05-03T09:38:20.41Z</time></trkpt><trkpt lat="44.3758116" lon="8.1450623"><ele>700.5</ele><time>2026-05-03T09:38:21.41Z</time></trkpt><trkpt lat="44.3757791" lon="8.1453113"><ele>698.0</ele><time>2026-05-03T09:38:22.41Z</time></trkpt><trkpt lat="44.3756867" lon="8.1458171"><ele>697.6666666666666</ele><time>2026-05-03T09:38:24.41Z</time></trkpt><trkpt lat="44.375621" lon="8.1460713"><ele>697.3333333333334</ele><time>2026-05-03T09:38:25.41Z</time></trkpt><trkpt lat="44.3755422" lon="8.1463217"><ele>697.0</ele><time>2026-05-03T09:38:26.411Z</time></trkpt><trkpt lat="44.3754522" lon="8.1465672"><ele>690.3333333333334</ele><time>2026-05-03T09:38:27.41Z</time></trkpt><trkpt lat="44.3753583" lon="8.1468104"><ele>683.6666666666666</ele><time>2026-05-03T09:38:28.411Z</time></trkpt><trkpt lat="44.3752542" lon="8.1470508"><ele>677.0</ele><time>2026-05-03T09:38:29.41Z</time></trkpt><trkpt lat="44.3751381" lon="8.1472785"><ele>677.0</ele><time>2026-05-03T09:38:30.41Z</time></trkpt><trkpt lat="44.3750105" lon="8.1474981"><ele>677.0</ele><time>2026-05-03T09:38:31.41Z</time></trkpt><trkpt lat="44.3748738" lon="8.1477062"><ele>677.0</ele><time>2026-05-03T09:38:32.41Z</time></trkpt><trkpt lat="44.3747285" lon="8.1479069"><ele>676.3333333333333</ele><time>2026-05-03T09:38:33.41Z</time></trkpt><trkpt lat="44.3745774" lon="8.1480999"><ele>675.6666666666666</ele><time>2026-05-03T09:38:34.41Z</time></trkpt><trkpt lat="44.3744171" lon="8.1482827"><ele>675.0</ele><time>2026-05-03T09:38:35.411Z</time></trkpt><trkpt lat="44.3742475" lon="8.148448"><ele>675.0</ele><time>2026-05-03T09:38:36.41Z</time></trkpt><trkpt lat="44.3740712" lon="8.1485943"><ele>675.0</ele><time>2026-05-03T09:38:37.41Z</time></trkpt><trkpt lat="44.3738921" lon="8.1487283"><ele>675.0</ele><time>2026-05-03T09:38:38.41Z</time></trkpt><trkpt lat="44.3737099" lon="8.1488473"><ele>676.6666666666666</ele><time>2026-05-03T09:38:39.41Z</time></trkpt><trkpt lat="44.3735288" lon="8.1489609"><ele>678.3333333333333</ele><time>2026-05-03T09:38:40.41Z</time></trkpt><trkpt lat="44.3733464" lon="8.149072"><ele>680.0</ele><time>2026-05-03T09:38:41.41Z</time></trkpt><trkpt lat="44.3731645" lon="8.1491858"><ele>677.0</ele><time>2026-05-03T09:38:42.41Z</time></trkpt><trkpt lat="44.3729845" lon="8.1493048"><ele>674.0</ele><time>2026-05-03T09:38:43.41Z</time></trkpt><trkpt lat="44.3728057" lon="8.1494295"><ele>671.0</ele><time>2026-05-03T09:38:44.41Z</time></trkpt><trkpt lat="44.3726258" lon="8.1495537"><ele>671.0</ele><time>2026-05-03T09:38:45.41Z</time></trkpt><trkpt lat="44.3724453" lon="8.1496771"><ele>671.0</ele><time>2026-05-03T09:38:46.41Z</time></trkpt><trkpt lat="44.3722651" lon="8.1498007"><ele>671.0</ele><time>2026-05-03T09:38:47.41Z</time></trkpt><trkpt lat="44.3720849" lon="8.1499245"><ele>670.0</ele><time>2026-05-03T09:38:48.41Z</time></trkpt><trkpt lat="44.3719041" lon="8.1500475"><ele>669.0</ele><time>2026-05-03T09:38:49.41Z</time></trkpt><trkpt lat="44.3717259" lon="8.1501688"><ele>668.0</ele><time>2026-05-03T09:38:50.41Z</time></trkpt><trkpt lat="44.3715452" lon="8.1502956"><ele>668.0</ele><time>2026-05-03T09:38:51.41Z</time></trkpt><trkpt lat="44.371363" lon="8.150418"><ele>668.0</ele><time>2026-05-03T09:38:52.41Z</time></trkpt><trkpt lat="44.3711784" lon="8.1505416"><ele>668.0</ele><time>2026-05-03T09:38:53.41Z</time></trkpt><trkpt lat="44.370989" lon="8.1506672"><ele>662.5</ele><time>2026-05-03T09:38:54.41Z</time></trkpt><trkpt lat="44.3707925" lon="8.1507949"><ele>657.0</ele><time>2026-05-03T09:38:55.41Z</time></trkpt><trkpt lat="44.3705114" lon="8.1509808"><ele>649.5</ele><time>2026-05-03T09:38:57.327Z</time></trkpt><trkpt lat="44.3701955" lon="8.1511937"><ele>642.0</ele><time>2026-05-03T09:38:58.41Z</time></trkpt><trkpt lat="44.3699991" lon="8.1513288"><ele>642.0</ele><time>2026-05-03T09:38:59.393Z</time></trkpt><trkpt lat="44.3698083" lon="8.1514549"><ele>642.0</ele><time>2026-05-03T09:39:00.394Z</time></trkpt><trkpt lat="44.3696021" lon="8.1516008"><ele>642.0</ele><time>2026-05-03T09:39:01.402Z</time></trkpt><trkpt lat="44.3693963" lon="8.1517369"><ele>637.0</ele><time>2026-05-03T09:39:02.408Z</time></trkpt><trkpt lat="44.3691854" lon="8.1518734"><ele>632.0</ele><time>2026-05-03T09:39:03.408Z</time></trkpt><trkpt lat="44.3689749" lon="8.1519971"><ele>628.0</ele><time>2026-05-03T09:39:04.408Z</time></trkpt><trkpt lat="44.3687678" lon="8.1521267"><ele>624.0</ele><time>2026-05-03T09:39:05.408Z</time></trkpt><trkpt lat="44.3685657" lon="8.1522583"><ele>628.3333333333334</ele><time>2026-05-03T09:39:06.408Z</time></trkpt><trkpt lat="44.3683734" lon="8.1523907"><ele>632.6666666666667</ele><time>2026-05-03T09:39:07.408Z</time></trkpt><trkpt lat="44.3681882" lon="8.1525202"><ele>637.0</ele><time>2026-05-03T09:39:08.408Z</time></trkpt><trkpt lat="44.3680032" lon="8.1526499"><ele>634.6666666666667</ele><time>2026-05-03T09:39:09.409Z</time></trkpt><trkpt lat="44.3678215" lon="8.1527734"><ele>632.3333333333334</ele><time>2026-05-03T09:39:10.409Z</time></trkpt><trkpt lat="44.3676391" lon="8.1528979"><ele>630.0</ele><time>2026-05-03T09:39:11.408Z</time></trkpt><trkpt lat="44.3639719" lon="8.1637446"><ele>630.0</ele><time>2026-05-03T09:39:54.388Z</time></trkpt><trkpt lat="44.363962" lon="8.1639824"><ele>630.0</ele><time>2026-05-03T09:39:55.4Z</time></trkpt><trkpt lat="44.3639784" lon="8.1642283"><ele>630.0</ele><time>2026-05-03T09:39:56.399Z</time></trkpt><trkpt lat="44.363994" lon="8.1644607"><ele>627.3333333333334</ele><time>2026-05-03T09:39:57.407Z</time></trkpt><trkpt lat="44.3640213" lon="8.1646971"><ele>624.6666666666667</ele><time>2026-05-03T09:39:58.404Z</time></trkpt><trkpt lat="44.3640426" lon="8.1649297"><ele>622.0</ele><time>2026-05-03T09:39:59.407Z</time></trkpt><trkpt lat="44.3640608" lon="8.1651686"><ele>621.3333333333334</ele><time>2026-05-03T09:40:00.406Z</time></trkpt><trkpt lat="44.3640806" lon="8.1654038"><ele>620.6666666666666</ele><time>2026-05-03T09:40:01.407Z</time></trkpt><trkpt lat="44.3640972" lon="8.1656368"><ele>620.0</ele><time>2026-05-03T09:40:02.406Z</time></trkpt><trkpt lat="44.3641199" lon="8.1658589"><ele>617.6666666666666</ele><time>2026-05-03T09:40:03.406Z</time></trkpt><trkpt lat="44.3641343" lon="8.1660791"><ele>615.3333333333334</ele><time>2026-05-03T09:40:04.406Z</time></trkpt><trkpt lat="44.3641463" lon="8.1662962"><ele>613.0</ele><time>2026-05-03T09:40:05.407Z</time></trkpt><trkpt lat="44.3641632" lon="8.1665088"><ele>611.6666666666667</ele><time>2026-05-03T09:40:06.406Z</time></trkpt><trkpt lat="44.364182" lon="8.166721"><ele>610.3333333333334</ele><time>2026-05-03T09:40:07.406Z</time></trkpt><trkpt lat="44.3642055" lon="8.1669471"><ele>609.0</ele><time>2026-05-03T09:40:08.406Z</time></trkpt><trkpt lat="44.3642292" lon="8.167176"><ele>606.6666666666666</ele><time>2026-05-03T09:40:09.407Z</time></trkpt><trkpt lat="44.3642417" lon="8.1674246"><ele>604.3333333333333</ele><time>2026-05-03T09:40:10.407Z</time></trkpt><trkpt lat="44.3642588" lon="8.1676829"><ele>602.0</ele><time>2026-05-03T09:40:11.406Z</time></trkpt><trkpt lat="44.3642694" lon="8.1679416"><ele>599.6666666666666</ele><time>2026-05-03T09:40:12.406Z</time></trkpt><trkpt lat="44.3642816" lon="8.168207"><ele>597.3333333333334</ele><time>2026-05-03T09:40:13.406Z</time></trkpt><trkpt lat="44.3642975" lon="8.1684793"><ele>595.0</ele><time>2026-05-03T09:40:14.406Z</time></trkpt><trkpt lat="44.3643065" lon="8.1687495"><ele>595.0</ele><time>2026-05-03T09:40:15.406Z</time></trkpt><trkpt lat="44.3643116" lon="8.1690095"><ele>595.0</ele><time>2026-05-03T09:40:16.406Z</time></trkpt><trkpt lat="44.3643062" lon="8.1692671"><ele>595.0</ele><time>2026-05-03T09:40:17.406Z</time></trkpt><trkpt lat="44.3642927" lon="8.1695259"><ele>595.0</ele><time>2026-05-03T09:40:18.407Z</time></trkpt><trkpt lat="44.3642676" lon="8.1697768"><ele>595.0</ele><time>2026-05-03T09:40:19.406Z</time></trkpt><trkpt lat="44.364236" lon="8.1700208"><ele>595.0</ele><time>2026-05-03T09:40:20.407Z</time></trkpt><trkpt lat="44.3641935" lon="8.1702665"><ele>593.0</ele><time>2026-05-03T09:40:21.406Z</time></trkpt><trkpt lat="44.3641405" lon="8.1705077"><ele>591.0</ele><time>2026-05-03T09:40:22.406Z</time></trkpt><trkpt lat="44.3640732" lon="8.1707464"><ele>589.0</ele><time>2026-05-03T09:40:23.407Z</time></trkpt><trkpt lat="44.3639224" lon="8.1712127"><ele>583.3333333333334</ele><time>2026-05-03T09:40:25.406Z</time></trkpt><trkpt lat="44.3638364" lon="8.1714315"><ele>577.6666666666666</ele><time>2026-05-03T09:40:26.406Z</time></trkpt><trkpt lat="44.3637401" lon="8.1716419"><ele>572.0</ele><time>2026-05-03T09:40:27.406Z</time></trkpt><trkpt lat="44.3636309" lon="8.171844"><ele>571.0</ele><time>2026-05-03T09:40:28.406Z</time></trkpt><trkpt lat="44.3635144" lon="8.1720354"><ele>570.0</ele><time>2026-05-03T09:40:29.406Z</time></trkpt><trkpt lat="44.363387" lon="8.1722193"><ele>569.0</ele><time>2026-05-03T09:40:30.406Z</time></trkpt><trkpt lat="44.363257" lon="8.1723939"><ele>567.6666666666666</ele><time>2026-05-03T09:40:31.406Z</time></trkpt><trkpt lat="44.3631245" lon="8.1725597"><ele>566.3333333333334</ele><time>2026-05-03T09:40:32.406Z</time></trkpt><trkpt lat="44.3629858" lon="8.1727116"><ele>565.0</ele><time>2026-05-03T09:40:33.406Z</time></trkpt><trkpt lat="44.3628462" lon="8.1728492"><ele>561.0</ele><time>2026-05-03T09:40:34.406Z</time></trkpt><trkpt lat="44.3627051" lon="8.1729706"><ele>557.0</ele><time>2026-05-03T09:40:35.407Z</time></trkpt><trkpt lat="44.3625625" lon="8.1730787"><ele>553.0</ele><time>2026-05-03T09:40:36.406Z</time></trkpt><trkpt lat="44.3624209" lon="8.1731808"><ele>549.6666666666667</ele><time>2026-05-03T09:40:37.406Z</time></trkpt><trkpt lat="44.3622793" lon="8.1732831"><ele>546.3333333333334</ele><time>2026-05-03T09:40:38.406Z</time></trkpt><trkpt lat="44.3621396" lon="8.1733826"><ele>543.0</ele><time>2026-05-03T09:40:39.406Z</time></trkpt><trkpt lat="44.3620067" lon="8.1734778"><ele>541.75</ele><time>2026-05-03T09:40:40.407Z</time></trkpt><trkpt lat="44.3618785" lon="8.1735747"><ele>540.5</ele><time>2026-05-03T09:40:41.407Z</time></trkpt><trkpt lat="44.3617559" lon="8.1736818"><ele>539.25</ele><time>2026-05-03T09:40:42.406Z</time></trkpt><trkpt lat="44.3616435" lon="8.1737928"><ele>538.0</ele><time>2026-05-03T09:40:43.407Z</time></trkpt><trkpt lat="44.3615321" lon="8.173906"><ele>534.75</ele><time>2026-05-03T09:40:44.406Z</time></trkpt><trkpt lat="44.3614294" lon="8.1740283"><ele>531.5</ele><time>2026-05-03T09:40:45.407Z</time></trkpt><trkpt lat="44.3613337" lon="8.1741643"><ele>528.25</ele><time>2026-05-03T09:40:46.407Z</time></trkpt><trkpt lat="44.36125" lon="8.1743097"><ele>525.0</ele><time>2026-05-03T09:40:47.407Z</time></trkpt><trkpt lat="44.3611708" lon="8.1744669"><ele>525.0</ele><time>2026-05-03T09:40:48.407Z</time></trkpt><trkpt lat="44.3610955" lon="8.1746275"><ele>525.0</ele><time>2026-05-03T09:40:49.406Z</time></trkpt><trkpt lat="44.3610188" lon="8.1747866"><ele>525.0</ele><time>2026-05-03T09:40:50.406Z</time></trkpt><trkpt lat="44.3609399" lon="8.1749552"><ele>525.0</ele><time>2026-05-03T09:40:51.406Z</time></trkpt><trkpt lat="44.360865" lon="8.1751264"><ele>527.75</ele><time>2026-05-03T09:40:52.406Z</time></trkpt><trkpt lat="44.3607887" lon="8.1753002"><ele>530.5</ele><time>2026-05-03T09:40:53.406Z</time></trkpt><trkpt lat="44.360724" lon="8.1754773"><ele>533.25</ele><time>2026-05-03T09:40:54.406Z</time></trkpt><trkpt lat="44.3606731" lon="8.17566"><ele>536.0</ele><time>2026-05-03T09:40:55.407Z</time></trkpt><trkpt lat="44.3606516" lon="8.1758525"><ele>537.25</ele><time>2026-05-03T09:40:56.406Z</time></trkpt><trkpt lat="44.3606342" lon="8.1760479"><ele>538.5</ele><time>2026-05-03T09:40:57.406Z</time></trkpt><trkpt lat="44.3606035" lon="8.1762427"><ele>539.75</ele><time>2026-05-03T09:40:58.406Z</time></trkpt><trkpt lat="44.3605615" lon="8.1764314"><ele>541.0</ele><time>2026-05-03T09:40:59.406Z</time></trkpt><trkpt lat="44.3605111" lon="8.1766168"><ele>532.5</ele><time>2026-05-03T09:41:00.406Z</time></trkpt><trkpt lat="44.3604628" lon="8.1768032"><ele>524.0</ele><time>2026-05-03T09:41:01.406Z</time></trkpt><trkpt lat="44.3604262" lon="8.1769871"><ele>515.5</ele><time>2026-05-03T09:41:02.406Z</time></trkpt><trkpt lat="44.3603976" lon="8.1771699"><ele>507.0</ele><time>2026-05-03T09:41:03.406Z</time></trkpt><trkpt lat="44.360376" lon="8.1773504"><ele>506.25</ele><time>2026-05-03T09:41:04.406Z</time></trkpt><trkpt lat="44.3603687" lon="8.1775302"><ele>505.5</ele><time>2026-05-03T09:41:05.406Z</time></trkpt><trkpt lat="44.3604027" lon="8.1776982"><ele>504.75</ele><time>2026-05-03T09:41:06.407Z</time></trkpt><trkpt lat="44.3604532" lon="8.1778587"><ele>504.0</ele><time>2026-05-03T09:41:07.406Z</time></trkpt><trkpt lat="44.360493" lon="8.1780295"><ele>503.5</ele><time>2026-05-03T09:41:08.407Z</time></trkpt><trkpt lat="44.3605047" lon="8.1782153"><ele>503.0</ele><time>2026-05-03T09:41:09.406Z</time></trkpt><trkpt lat="44.360502" lon="8.1784119"><ele>502.5</ele><time>2026-05-03T09:41:10.407Z</time></trkpt><trkpt lat="44.3605052" lon="8.1786162"><ele>502.0</ele><time>2026-05-03T09:41:11.406Z</time></trkpt><trkpt lat="44.3605116" lon="8.1788166"><ele>500.33333333333337</ele><time>2026-05-03T09:41:12.406Z</time></trkpt><trkpt lat="44.3605173" lon="8.179025"><ele>498.66666666666663</ele><time>2026-05-03T09:41:13.406Z</time></trkpt><trkpt lat="44.3605152" lon="8.1792373"><ele>497.0</ele><time>2026-05-03T09:41:14.407Z</time></trkpt><trkpt lat="44.3605041" lon="8.1794471"><ele>497.0</ele><time>2026-05-03T09:41:15.406Z</time></trkpt><trkpt lat="44.3604973" lon="8.1796562"><ele>497.0</ele><time>2026-05-03T09:41:16.406Z</time></trkpt><trkpt lat="44.3604975" lon="8.1798607"><ele>497.0</ele><time>2026-05-03T09:41:17.406Z</time></trkpt><trkpt lat="44.3605064" lon="8.1800644"><ele>497.0</ele><time>2026-05-03T09:41:18.406Z</time></trkpt><trkpt lat="44.3605272" lon="8.1802655"><ele>503.75</ele><time>2026-05-03T09:41:19.407Z</time></trkpt><trkpt lat="44.3605661" lon="8.1804559"><ele>510.5</ele><time>2026-05-03T09:41:20.406Z</time></trkpt><trkpt lat="44.3606151" lon="8.1806328"><ele>517.25</ele><time>2026-05-03T09:41:21.407Z</time></trkpt><trkpt lat="44.3606651" lon="8.1808035"><ele>524.0</ele><time>2026-05-03T09:41:22.406Z</time></trkpt><trkpt lat="44.3607068" lon="8.1809703"><ele>524.0</ele><time>2026-05-03T09:41:23.406Z</time></trkpt><trkpt lat="44.3607396" lon="8.1811442"><ele>524.0</ele><time>2026-05-03T09:41:24.406Z</time></trkpt><trkpt lat="44.3607514" lon="8.1813223"><ele>524.0</ele><time>2026-05-03T09:41:25.406Z</time></trkpt><trkpt lat="44.3607521" lon="8.1815053"><ele>524.0</ele><time>2026-05-03T09:41:26.407Z</time></trkpt><trkpt lat="44.360745" lon="8.1816887"><ele>521.5</ele><time>2026-05-03T09:41:27.406Z</time></trkpt><trkpt lat="44.3607395" lon="8.181878"><ele>519.0</ele><time>2026-05-03T09:41:28.406Z</time></trkpt><trkpt lat="44.3607354" lon="8.1820587"><ele>516.5</ele><time>2026-05-03T09:41:29.406Z</time></trkpt><trkpt lat="44.3607264" lon="8.1822391"><ele>514.0</ele><time>2026-05-03T09:41:30.406Z</time></trkpt><trkpt lat="44.3607163" lon="8.1824196"><ele>513.25</ele><time>2026-05-03T09:41:31.407Z</time></trkpt><trkpt lat="44.3607025" lon="8.1825986"><ele>512.5</ele><time>2026-05-03T09:41:32.406Z</time></trkpt><trkpt lat="44.3606827" lon="8.1827787"><ele>511.75</ele><time>2026-05-03T09:41:33.407Z</time></trkpt><trkpt lat="44.360658" lon="8.1829545"><ele>511.0</ele><time>2026-05-03T09:41:34.406Z</time></trkpt><trkpt lat="44.3606301" lon="8.1831303"><ele>510.25</ele><time>2026-05-03T09:41:35.407Z</time></trkpt><trkpt lat="44.3605938" lon="8.1833047"><ele>509.5</ele><time>2026-05-03T09:41:36.407Z</time></trkpt><trkpt lat="44.3605489" lon="8.1834738"><ele>508.75</ele><time>2026-05-03T09:41:37.407Z</time></trkpt><trkpt lat="44.3604991" lon="8.183641"><ele>508.0</ele><time>2026-05-03T09:41:38.407Z</time></trkpt><trkpt lat="44.3604489" lon="8.183806"><ele>501.5</ele><time>2026-05-03T09:41:39.406Z</time></trkpt><trkpt lat="44.3603984" lon="8.1839671"><ele>495.0</ele><time>2026-05-03T09:41:40.406Z</time></trkpt><trkpt lat="44.3603529" lon="8.18412"><ele>488.5</ele><time>2026-05-03T09:41:41.406Z</time></trkpt><trkpt lat="44.3603102" lon="8.1842739"><ele>482.0</ele><time>2026-05-03T09:41:42.406Z</time></trkpt><trkpt lat="44.3602847" lon="8.1844236"><ele>482.0</ele><time>2026-05-03T09:41:43.406Z</time></trkpt><trkpt lat="44.3602818" lon="8.1845727"><ele>482.00000000000006</ele><time>2026-05-03T09:41:44.406Z</time></trkpt><trkpt lat="44.3603049" lon="8.1847186"><ele>482.00000000000006</ele><time>2026-05-03T09:41:45.407Z</time></trkpt><trkpt lat="44.3603379" lon="8.1848592"><ele>482.0</ele><time>2026-05-03T09:41:46.406Z</time></trkpt><trkpt lat="44.3603743" lon="8.1849983"><ele>482.0</ele><time>2026-05-03T09:41:47.406Z</time></trkpt><trkpt lat="44.3604136" lon="8.1851394"><ele>482.0</ele><time>2026-05-03T09:41:48.406Z</time></trkpt><trkpt lat="44.3604524" lon="8.185278"><ele>482.00000000000006</ele><time>2026-05-03T09:41:49.407Z</time></trkpt><trkpt lat="44.3604967" lon="8.185414"><ele>482.00000000000006</ele><time>2026-05-03T09:41:50.407Z</time></trkpt><trkpt lat="44.360546" lon="8.1855434"><ele>482.0</ele><time>2026-05-03T09:41:51.406Z</time></trkpt><trkpt lat="44.3606027" lon="8.1856583"><ele>482.0</ele><time>2026-05-03T09:41:52.406Z</time></trkpt><trkpt lat="44.3606715" lon="8.1857651"><ele>482.8</ele><time>2026-05-03T09:41:53.406Z</time></trkpt><trkpt lat="44.3607462" lon="8.185867"><ele>483.6</ele><time>2026-05-03T09:41:54.406Z</time></trkpt><trkpt lat="44.3608146" lon="8.1859751"><ele>484.40000000000003</ele><time>2026-05-03T09:41:55.406Z</time></trkpt><trkpt lat="44.3608772" lon="8.1860924"><ele>485.20000000000005</ele><time>2026-05-03T09:41:56.406Z</time></trkpt><trkpt lat="44.3609291" lon="8.1862182"><ele>486.0</ele><time>2026-05-03T09:41:57.407Z</time></trkpt><trkpt lat="44.3609669" lon="8.1863473"><ele>486.0</ele><time>2026-05-03T09:41:58.406Z</time></trkpt><trkpt lat="44.3609952" lon="8.1864787"><ele>486.0</ele><time>2026-05-03T09:41:59.406Z</time></trkpt><trkpt lat="44.3610095" lon="8.1866088"><ele>486.0</ele><time>2026-05-03T09:42:00.406Z</time></trkpt><trkpt lat="44.3610117" lon="8.1867383"><ele>486.0</ele><time>2026-05-03T09:42:01.406Z</time></trkpt><trkpt lat="44.361003" lon="8.1868617"><ele>486.0</ele><time>2026-05-03T09:42:02.406Z</time></trkpt><trkpt lat="44.3609899" lon="8.1869784"><ele>484.1666666666667</ele><time>2026-05-03T09:42:03.406Z</time></trkpt><trkpt lat="44.3609787" lon="8.1870962"><ele>482.33333333333337</ele><time>2026-05-03T09:42:04.406Z</time></trkpt><trkpt lat="44.3609668" lon="8.1872104"><ele>480.5</ele><time>2026-05-03T09:42:05.407Z</time></trkpt><trkpt lat="44.3609547" lon="8.1873203"><ele>478.6666666666667</ele><time>2026-05-03T09:42:06.406Z</time></trkpt><trkpt lat="44.3609391" lon="8.1874245"><ele>476.83333333333337</ele><time>2026-05-03T09:42:07.406Z</time></trkpt><trkpt lat="44.3609091" lon="8.1875252"><ele>475.0</ele><time>2026-05-03T09:42:08.406Z</time></trkpt><trkpt lat="44.3608725" lon="8.1876205"><ele>474.50000000000006</ele><time>2026-05-03T09:42:09.406Z</time></trkpt><trkpt lat="44.3608309" lon="8.1877107"><ele>474.0</ele><time>2026-05-03T09:42:10.406Z</time></trkpt><trkpt lat="44.3607786" lon="8.1877945"><ele>473.5</ele><time>2026-05-03T09:42:11.407Z</time></trkpt><trkpt lat="44.3607227" lon="8.1878728"><ele>473.0</ele><time>2026-05-03T09:42:12.406Z</time></trkpt><trkpt lat="44.3606665" lon="8.1879561"><ele>472.50000000000006</ele><time>2026-05-03T09:42:13.407Z</time></trkpt><trkpt lat="44.3606214" lon="8.1880512"><ele>472.0</ele><time>2026-05-03T09:42:14.406Z</time></trkpt><trkpt lat="44.3605866" lon="8.1881591"><ele>472.33333333333337</ele><time>2026-05-03T09:42:15.407Z</time></trkpt><trkpt lat="44.3605628" lon="8.1882758"><ele>472.6666666666667</ele><time>2026-05-03T09:42:16.406Z</time></trkpt><trkpt lat="44.3605531" lon="8.1883974"><ele>473.0</ele><time>2026-05-03T09:42:17.406Z</time></trkpt><trkpt lat="44.3605598" lon="8.188523"><ele>473.33333333333337</ele><time>2026-05-03T09:42:18.407Z</time></trkpt><trkpt lat="44.3605704" lon="8.1886478"><ele>473.6666666666667</ele><time>2026-05-03T09:42:19.407Z</time></trkpt><trkpt lat="44.3605753" lon="8.1887742"><ele>474.0</ele><time>2026-05-03T09:42:20.406Z</time></trkpt><trkpt lat="44.3605749" lon="8.1888982"><ele>473.0</ele><time>2026-05-03T09:42:21.406Z</time></trkpt><trkpt lat="44.3605767" lon="8.1890227"><ele>472.0</ele><time>2026-05-03T09:42:22.406Z</time></trkpt><trkpt lat="44.3605855" lon="8.1891453"><ele>471.0</ele><time>2026-05-03T09:42:23.406Z</time></trkpt><trkpt lat="44.3606017" lon="8.1892672"><ele>470.0</ele><time>2026-05-03T09:42:24.406Z</time></trkpt><trkpt lat="44.3606201" lon="8.1893863"><ele>469.0</ele><time>2026-05-03T09:42:25.406Z</time></trkpt><trkpt lat="44.3606456" lon="8.1895048"><ele>468.0</ele><time>2026-05-03T09:42:26.406Z</time></trkpt><trkpt lat="44.3606732" lon="8.1896245"><ele>468.0</ele><time>2026-05-03T09:42:27.406Z</time></trkpt><trkpt lat="44.3607025" lon="8.1897495"><ele>467.99999999999994</ele><time>2026-05-03T09:42:28.406Z</time></trkpt><trkpt lat="44.3607207" lon="8.1898766"><ele>467.99999999999994</ele><time>2026-05-03T09:42:29.406Z</time></trkpt><trkpt lat="44.360721" lon="8.1900094"><ele>468.0</ele><time>2026-05-03T09:42:30.406Z</time></trkpt><trkpt lat="44.3607117" lon="8.1901422"><ele>468.0</ele><time>2026-05-03T09:42:31.406Z</time></trkpt><trkpt lat="44.3607057" lon="8.1902781"><ele>466.4</ele><time>2026-05-03T09:42:32.407Z</time></trkpt><trkpt lat="44.3607098" lon="8.1904125"><ele>464.79999999999995</ele><time>2026-05-03T09:42:33.406Z</time></trkpt><trkpt lat="44.360741" lon="8.1905365"><ele>463.2</ele><time>2026-05-03T09:42:34.407Z</time></trkpt><trkpt lat="44.3607983" lon="8.1906422"><ele>461.6</ele><time>2026-05-03T09:42:35.407Z</time></trkpt><trkpt lat="44.3608724" lon="8.1907326"><ele>460.0</ele><time>2026-05-03T09:42:36.406Z</time></trkpt><trkpt lat="44.3609563" lon="8.1907888"><ele>460.00000000000006</ele><time>2026-05-03T09:42:37.407Z</time></trkpt><trkpt lat="44.361048" lon="8.1907861"><ele>460.0</ele><time>2026-05-03T09:42:38.406Z</time></trkpt><trkpt lat="44.3611285" lon="8.1907432"><ele>460.0</ele><time>2026-05-03T09:42:39.407Z</time></trkpt><trkpt lat="44.3612094" lon="8.1906935"><ele>460.0</ele><time>2026-05-03T09:42:40.406Z</time></trkpt><trkpt lat="44.3612907" lon="8.1906537"><ele>460.00000000000006</ele><time>2026-05-03T09:42:41.406Z</time></trkpt><trkpt lat="44.3613754" lon="8.1906549"><ele>460.0</ele><time>2026-05-03T09:42:42.406Z</time></trkpt><trkpt lat="44.3614461" lon="8.1906996"><ele>458.8</ele><time>2026-05-03T09:42:43.407Z</time></trkpt><trkpt lat="44.3615176" lon="8.1907819"><ele>457.6</ele><time>2026-05-03T09:42:44.407Z</time></trkpt><trkpt lat="44.3615912" lon="8.1908647"><ele>456.4</ele><time>2026-05-03T09:42:45.406Z</time></trkpt><trkpt lat="44.3616664" lon="8.1909518"><ele>455.2</ele><time>2026-05-03T09:42:46.406Z</time></trkpt><trkpt lat="44.3617296" lon="8.1910502"><ele>454.0</ele><time>2026-05-03T09:42:47.406Z</time></trkpt><trkpt lat="44.361766" lon="8.1911714"><ele>454.00000000000006</ele><time>2026-05-03T09:42:48.406Z</time></trkpt><trkpt lat="44.3617797" lon="8.1912982"><ele>454.0</ele><time>2026-05-03T09:42:49.406Z</time></trkpt><trkpt lat="44.3617673" lon="8.1914204"><ele>454.0</ele><time>2026-05-03T09:42:50.406Z</time></trkpt><trkpt lat="44.3617413" lon="8.1915355"><ele>454.0</ele><time>2026-05-03T09:42:51.407Z</time></trkpt><trkpt lat="44.3617123" lon="8.191649"><ele>454.00000000000006</ele><time>2026-05-03T09:42:52.406Z</time></trkpt><trkpt lat="44.3616874" lon="8.1917651"><ele>454.0</ele><time>2026-05-03T09:42:53.406Z</time></trkpt><trkpt lat="44.3616617" lon="8.1918869"><ele>452.2</ele><time>2026-05-03T09:42:54.406Z</time></trkpt><trkpt lat="44.3616396" lon="8.19201"><ele>450.4</ele><time>2026-05-03T09:42:55.406Z</time></trkpt><trkpt lat="44.3616163" lon="8.1921341"><ele>448.6</ele><time>2026-05-03T09:42:56.406Z</time></trkpt><trkpt lat="44.3615962" lon="8.1922647"><ele>446.8</ele><time>2026-05-03T09:42:57.406Z</time></trkpt><trkpt lat="44.3615812" lon="8.1923976"><ele>445.0</ele><time>2026-05-03T09:42:58.407Z</time></trkpt><trkpt lat="44.3615783" lon="8.1925374"><ele>444.0</ele><time>2026-05-03T09:42:59.407Z</time></trkpt><trkpt lat="44.3615969" lon="8.1926706"><ele>443.0</ele><time>2026-05-03T09:43:00.406Z</time></trkpt><trkpt lat="44.3616343" lon="8.1927928"><ele>442.0</ele><time>2026-05-03T09:43:01.407Z</time></trkpt><trkpt lat="44.3616899" lon="8.1928988"><ele>441.0</ele><time>2026-05-03T09:43:02.406Z</time></trkpt><trkpt lat="44.3617545" lon="8.1930001"><ele>440.0</ele><time>2026-05-03T09:43:03.406Z</time></trkpt><trkpt lat="44.3618353" lon="8.1930792"><ele>440.0</ele><time>2026-05-03T09:43:04.406Z</time></trkpt><trkpt lat="44.3619272" lon="8.1931328"><ele>440.0</ele><time>2026-05-03T09:43:05.407Z</time></trkpt><trkpt lat="44.3620269" lon="8.1931668"><ele>440.0</ele><time>2026-05-03T09:43:06.406Z</time></trkpt><trkpt lat="44.3621311" lon="8.1931738"><ele>440.0</ele><time>2026-05-03T09:43:07.406Z</time></trkpt><trkpt lat="44.3622347" lon="8.1931672"><ele>440.0</ele><time>2026-05-03T09:43:08.406Z</time></trkpt><trkpt lat="44.362335" lon="8.1931596"><ele>439.2</ele><time>2026-05-03T09:43:09.406Z</time></trkpt><trkpt lat="44.3624378" lon="8.1931489"><ele>438.4</ele><time>2026-05-03T09:43:10.406Z</time></trkpt><trkpt lat="44.3625385" lon="8.1931396"><ele>437.6</ele><time>2026-05-03T09:43:11.407Z</time></trkpt><trkpt lat="44.3626351" lon="8.1931322"><ele>436.8</ele><time>2026-05-03T09:43:12.406Z</time></trkpt><trkpt lat="44.3627336" lon="8.193127"><ele>436.0</ele><time>2026-05-03T09:43:13.406Z</time></trkpt><trkpt lat="44.3628239" lon="8.1931162"><ele>436.0</ele><time>2026-05-03T09:43:14.407Z</time></trkpt><trkpt lat="44.3629178" lon="8.1931038"><ele>436.0</ele><time>2026-05-03T09:43:15.407Z</time></trkpt><trkpt lat="44.3630164" lon="8.1930938"><ele>436.0</ele><time>2026-05-03T09:43:16.407Z</time></trkpt><trkpt lat="44.3631123" lon="8.193094"><ele>436.0</ele><time>2026-05-03T09:43:17.407Z</time></trkpt><trkpt lat="44.3632139" lon="8.1931087"><ele>436.0</ele><time>2026-05-03T09:43:18.406Z</time></trkpt><trkpt lat="44.3633169" lon="8.1931303"><ele>436.6</ele><time>2026-05-03T09:43:19.407Z</time></trkpt><trkpt lat="44.3634228" lon="8.1931548"><ele>437.20000000000005</ele><time>2026-05-03T09:43:20.406Z</time></trkpt><trkpt lat="44.3635311" lon="8.1931837"><ele>437.79999999999995</ele><time>2026-05-03T09:43:21.407Z</time></trkpt><trkpt lat="44.3636439" lon="8.1932155"><ele>438.4</ele><time>2026-05-03T09:43:22.406Z</time></trkpt><trkpt lat="44.3637563" lon="8.1932466"><ele>439.0</ele><time>2026-05-03T09:43:23.406Z</time></trkpt><trkpt lat="44.3638675" lon="8.1932791"><ele>439.0</ele><time>2026-05-03T09:43:24.407Z</time></trkpt><trkpt lat="44.3639747" lon="8.1933152"><ele>439.0</ele><time>2026-05-03T09:43:25.406Z</time></trkpt><trkpt lat="44.3640735" lon="8.1933757"><ele>439.0</ele><time>2026-05-03T09:43:26.407Z</time></trkpt><trkpt lat="44.3641644" lon="8.1934567"><ele>439.0</ele><time>2026-05-03T09:43:27.406Z</time></trkpt><trkpt lat="44.3642511" lon="8.1935469"><ele>439.0</ele><time>2026-05-03T09:43:28.406Z</time></trkpt><trkpt lat="44.3643308" lon="8.1936483"><ele>439.0</ele><time>2026-05-03T09:43:29.406Z</time></trkpt><trkpt lat="44.3644" lon="8.1937617"><ele>439.0</ele><time>2026-05-03T09:43:30.407Z</time></trkpt><trkpt lat="44.3644684" lon="8.1938802"><ele>439.0</ele><time>2026-05-03T09:43:31.407Z</time></trkpt><trkpt lat="44.3645394" lon="8.1939915"><ele>439.0</ele><time>2026-05-03T09:43:32.407Z</time></trkpt><trkpt lat="44.3646172" lon="8.1941002"><ele>439.0</ele><time>2026-05-03T09:43:33.406Z</time></trkpt><trkpt lat="44.3646966" lon="8.1942214"><ele>438.75</ele><time>2026-05-03T09:43:34.406Z</time></trkpt><trkpt lat="44.3647769" lon="8.1943507"><ele>438.5</ele><time>2026-05-03T09:43:35.406Z</time></trkpt><trkpt lat="44.3648574" lon="8.1944898"><ele>438.25</ele><time>2026-05-03T09:43:36.407Z</time></trkpt><trkpt lat="44.3649414" lon="8.1946391"><ele>438.0</ele><time>2026-05-03T09:43:37.407Z</time></trkpt><trkpt lat="44.365029" lon="8.1947905"><ele>439.25</ele><time>2026-05-03T09:43:38.406Z</time></trkpt><trkpt lat="44.3651119" lon="8.1949451"><ele>440.5</ele><time>2026-05-03T09:43:39.406Z</time></trkpt><trkpt lat="44.365199" lon="8.1951046"><ele>441.75</ele><time>2026-05-03T09:43:40.406Z</time></trkpt><trkpt lat="44.365286" lon="8.1952645"><ele>443.0</ele><time>2026-05-03T09:43:41.406Z</time></trkpt><trkpt lat="44.3653691" lon="8.1954252"><ele>443.0</ele><time>2026-05-03T09:43:42.406Z</time></trkpt><trkpt lat="44.3654457" lon="8.195596"><ele>443.0</ele><time>2026-05-03T09:43:43.407Z</time></trkpt><trkpt lat="44.3655123" lon="8.1957727"><ele>443.0</ele><time>2026-05-03T09:43:44.407Z</time></trkpt><trkpt lat="44.3655719" lon="8.1959529"><ele>443.0</ele><time>2026-05-03T09:43:45.407Z</time></trkpt><trkpt lat="44.3656248" lon="8.1961289"><ele>441.25</ele><time>2026-05-03T09:43:46.406Z</time></trkpt><trkpt lat="44.3656725" lon="8.1963065"><ele>439.5</ele><time>2026-05-03T09:43:47.407Z</time></trkpt><trkpt lat="44.3657124" lon="8.1964893"><ele>437.75</ele><time>2026-05-03T09:43:48.406Z</time></trkpt><trkpt lat="44.3657387" lon="8.1966714"><ele>436.0</ele><time>2026-05-03T09:43:49.406Z</time></trkpt><trkpt lat="44.3657496" lon="8.1968637"><ele>436.0</ele><time>2026-05-03T09:43:50.406Z</time></trkpt><trkpt lat="44.3657407" lon="8.1970572"><ele>436.0</ele><time>2026-05-03T09:43:51.406Z</time></trkpt><trkpt lat="44.3657236" lon="8.1972483"><ele>436.0</ele><time>2026-05-03T09:43:52.407Z</time></trkpt><trkpt lat="44.3657047" lon="8.1974374"><ele>436.0</ele><time>2026-05-03T09:43:53.406Z</time></trkpt><trkpt lat="44.3656844" lon="8.1976181"><ele>436.25</ele><time>2026-05-03T09:43:54.406Z</time></trkpt><trkpt lat="44.365663" lon="8.1977942"><ele>436.5</ele><time>2026-05-03T09:43:55.406Z</time></trkpt><trkpt lat="44.3656379" lon="8.1979708"><ele>436.75</ele><time>2026-05-03T09:43:56.406Z</time></trkpt><trkpt lat="44.3655966" lon="8.1981412"><ele>437.0</ele><time>2026-05-03T09:43:57.406Z</time></trkpt><trkpt lat="44.3655337" lon="8.1983"><ele>438.25</ele><time>2026-05-03T09:43:58.406Z</time></trkpt><trkpt lat="44.3654549" lon="8.1984456"><ele>439.5</ele><time>2026-05-03T09:43:59.406Z</time></trkpt><trkpt lat="44.3653699" lon="8.1985798"><ele>440.75</ele><time>2026-05-03T09:44:00.406Z</time></trkpt><trkpt lat="44.3652786" lon="8.1987098"><ele>442.0</ele><time>2026-05-03T09:44:01.406Z</time></trkpt><trkpt lat="44.3651849" lon="8.1988365"><ele>442.0</ele><time>2026-05-03T09:44:02.406Z</time></trkpt><trkpt lat="44.3650983" lon="8.1989681"><ele>442.0</ele><time>2026-05-03T09:44:03.406Z</time></trkpt><trkpt lat="44.3650217" lon="8.1991007"><ele>442.0</ele><time>2026-05-03T09:44:04.406Z</time></trkpt><trkpt lat="44.3649514" lon="8.1992468"><ele>442.0</ele><time>2026-05-03T09:44:05.406Z</time></trkpt><trkpt lat="44.3648865" lon="8.1993974"><ele>441.5</ele><time>2026-05-03T09:44:06.406Z</time></trkpt><trkpt lat="44.3648228" lon="8.1995598"><ele>441.0</ele><time>2026-05-03T09:44:07.406Z</time></trkpt><trkpt lat="44.3647559" lon="8.1997165"><ele>440.5</ele><time>2026-05-03T09:44:08.406Z</time></trkpt><trkpt lat="44.3646971" lon="8.1999126"><ele>440.0</ele><time>2026-05-03T09:44:09.406Z</time></trkpt><trkpt lat="44.3646345" lon="8.2001016"><ele>440.0</ele><time>2026-05-03T09:44:10.406Z</time></trkpt><trkpt lat="44.3645684" lon="8.2002948"><ele>440.0</ele><time>2026-05-03T09:44:11.406Z</time></trkpt><trkpt lat="44.3645054" lon="8.2004922"><ele>440.0</ele><time>2026-05-03T09:44:12.406Z</time></trkpt><trkpt lat="44.3644421" lon="8.20069"><ele>438.3333333333333</ele><time>2026-05-03T09:44:13.406Z</time></trkpt><trkpt lat="44.3643751" lon="8.2008873"><ele>436.66666666666663</ele><time>2026-05-03T09:44:14.406Z</time></trkpt><trkpt lat="44.364313" lon="8.2010813"><ele>435.0</ele><time>2026-05-03T09:44:15.407Z</time></trkpt><trkpt lat="44.3642457" lon="8.2012752"><ele>435.0</ele><time>2026-05-03T09:44:16.406Z</time></trkpt><trkpt lat="44.3641818" lon="8.2014615"><ele>435.0</ele><time>2026-05-03T09:44:17.407Z</time></trkpt><trkpt lat="44.3641112" lon="8.2016435"><ele>435.0</ele><time>2026-05-03T09:44:18.406Z</time></trkpt><trkpt lat="44.3640341" lon="8.2018176"><ele>435.0</ele><time>2026-05-03T09:44:19.406Z</time></trkpt><trkpt lat="44.3639559" lon="8.2019939"><ele>433.66666666666663</ele><time>2026-05-03T09:44:20.406Z</time></trkpt><trkpt lat="44.3638713" lon="8.2021746"><ele>432.3333333333333</ele><time>2026-05-03T09:44:21.406Z</time></trkpt><trkpt lat="44.3637914" lon="8.2023495"><ele>431.0</ele><time>2026-05-03T09:44:22.407Z</time></trkpt><trkpt lat="44.3632435" lon="8.2031438"><ele>432.0</ele><time>2026-05-03T09:44:27.418Z</time></trkpt><trkpt lat="44.3631085" lon="8.2033046"><ele>433.0</ele><time>2026-05-03T09:44:28.389Z</time></trkpt><trkpt lat="44.3629717" lon="8.2034677"><ele>434.0</ele><time>2026-05-03T09:44:29.397Z</time></trkpt><trkpt lat="44.3628388" lon="8.2036181"><ele>440.66666666666663</ele><time>2026-05-03T09:44:30.393Z</time></trkpt><trkpt lat="44.3627021" lon="8.2037667"><ele>447.33333333333337</ele><time>2026-05-03T09:44:31.395Z</time></trkpt><trkpt lat="44.3625629" lon="8.2039176"><ele>454.0</ele><time>2026-05-03T09:44:32.401Z</time></trkpt><trkpt lat="44.3599921" lon="8.2068297"><ele>454.0</ele><time>2026-05-03T09:44:50.399Z</time></trkpt><trkpt lat="44.3598696" lon="8.2069974"><ele>454.0</ele><time>2026-05-03T09:44:51.396Z</time></trkpt><trkpt lat="44.3597821" lon="8.2072256"><ele>454.0</ele><time>2026-05-03T09:44:52.404Z</time></trkpt><trkpt lat="44.3597055" lon="8.2074425"><ele>448.6666666666667</ele><time>2026-05-03T09:44:53.395Z</time></trkpt><trkpt lat="44.3596331" lon="8.2076559"><ele>443.33333333333337</ele><time>2026-05-03T09:44:54.407Z</time></trkpt><trkpt lat="44.3595712" lon="8.2078777"><ele>438.0</ele><time>2026-05-03T09:44:55.4Z</time></trkpt><trkpt lat="44.3595155" lon="8.2081028"><ele>440.0</ele><time>2026-05-03T09:44:56.4Z</time></trkpt><trkpt lat="44.3594697" lon="8.208339"><ele>442.0</ele><time>2026-05-03T09:44:57.401Z</time></trkpt><trkpt lat="44.3594449" lon="8.2085813"><ele>444.0</ele><time>2026-05-03T09:44:58.4Z</time></trkpt><trkpt lat="44.3594437" lon="8.2088244"><ele>448.33333333333337</ele><time>2026-05-03T09:44:59.4Z</time></trkpt><trkpt lat="44.3594715" lon="8.2090579"><ele>452.6666666666667</ele><time>2026-05-03T09:45:00.4Z</time></trkpt><trkpt lat="44.3595241" lon="8.2092829"><ele>457.0</ele><time>2026-05-03T09:45:01.4Z</time></trkpt><trkpt lat="44.3595934" lon="8.2094817"><ele>457.0</ele><time>2026-05-03T09:45:02.4Z</time></trkpt><trkpt lat="44.3596837" lon="8.2096557"><ele>457.0</ele><time>2026-05-03T09:45:03.4Z</time></trkpt><trkpt lat="44.3597923" lon="8.2097981"><ele>457.0</ele><time>2026-05-03T09:45:04.4Z</time></trkpt><trkpt lat="44.359883" lon="8.2099378"><ele>457.0</ele><time>2026-05-03T09:45:05.401Z</time></trkpt><trkpt lat="44.3599617" lon="8.2100896"><ele>453.33333333333337</ele><time>2026-05-03T09:45:06.401Z</time></trkpt><trkpt lat="44.3600489" lon="8.2102401"><ele>449.66666666666663</ele><time>2026-05-03T09:45:07.401Z</time></trkpt><trkpt lat="44.3601341" lon="8.2103917"><ele>446.0</ele><time>2026-05-03T09:45:08.4Z</time></trkpt><trkpt lat="44.3606678" lon="8.2112676"><ele>446.0</ele><time>2026-05-03T09:45:14.396Z</time></trkpt><trkpt lat="44.3606172" lon="8.2114244"><ele>446.0</ele><time>2026-05-03T09:45:15.398Z</time></trkpt><trkpt lat="44.3606625" lon="8.2115668"><ele>446.0</ele><time>2026-05-03T09:45:16.405Z</time></trkpt><trkpt lat="44.3607143" lon="8.2117189"><ele>446.0</ele><time>2026-05-03T09:45:17.386Z</time></trkpt><trkpt lat="44.3607305" lon="8.2118816"><ele>446.0</ele><time>2026-05-03T09:45:18.402Z</time></trkpt><trkpt lat="44.3607152" lon="8.2120429"><ele>446.0</ele><time>2026-05-03T09:45:19.388Z</time></trkpt><trkpt lat="44.3607" lon="8.21222"><ele>446.0</ele><time>2026-05-03T09:45:20.387Z</time></trkpt><trkpt lat="44.3606903" lon="8.2123969"><ele>446.0</ele><time>2026-05-03T09:45:21.387Z</time></trkpt><trkpt lat="44.3606766" lon="8.2125741"><ele>446.0</ele><time>2026-05-03T09:45:22.387Z</time></trkpt><trkpt lat="44.3606569" lon="8.2127512"><ele>446.0</ele><time>2026-05-03T09:45:23.388Z</time></trkpt><trkpt lat="44.360633" lon="8.2129285"><ele>446.0</ele><time>2026-05-03T09:45:24.387Z</time></trkpt><trkpt lat="44.3605993" lon="8.213103"><ele>446.0</ele><time>2026-05-03T09:45:25.387Z</time></trkpt><trkpt lat="44.360548" lon="8.2132731"><ele>448.5</ele><time>2026-05-03T09:45:26.387Z</time></trkpt><trkpt lat="44.3604921" lon="8.2134463"><ele>451.0</ele><time>2026-05-03T09:45:27.387Z</time></trkpt><trkpt lat="44.3604273" lon="8.2136171"><ele>453.5</ele><time>2026-05-03T09:45:28.387Z</time></trkpt><trkpt lat="44.3603456" lon="8.2137797"><ele>456.0</ele><time>2026-05-03T09:45:29.388Z</time></trkpt><trkpt lat="44.3602471" lon="8.2139315"><ele>454.33333333333337</ele><time>2026-05-03T09:45:30.388Z</time></trkpt><trkpt lat="44.3601409" lon="8.2140733"><ele>452.6666666666667</ele><time>2026-05-03T09:45:31.387Z</time></trkpt><trkpt lat="44.3600214" lon="8.2142033"><ele>451.0</ele><time>2026-05-03T09:45:32.387Z</time></trkpt><trkpt lat="44.3598894" lon="8.2143187"><ele>451.0</ele><time>2026-05-03T09:45:33.387Z</time></trkpt><trkpt lat="44.3597607" lon="8.2144308"><ele>451.0</ele><time>2026-05-03T09:45:34.387Z</time></trkpt><trkpt lat="44.3596325" lon="8.2145417"><ele>451.0</ele><time>2026-05-03T09:45:35.388Z</time></trkpt><trkpt lat="44.3595054" lon="8.2146506"><ele>453.0</ele><time>2026-05-03T09:45:36.388Z</time></trkpt><trkpt lat="44.3593844" lon="8.2147606"><ele>455.0</ele><time>2026-05-03T09:45:37.387Z</time></trkpt><trkpt lat="44.3592636" lon="8.2148693"><ele>457.0</ele><time>2026-05-03T09:45:38.388Z</time></trkpt><trkpt lat="44.3591534" lon="8.2149827"><ele>459.0</ele><time>2026-05-03T09:45:39.387Z</time></trkpt><trkpt lat="44.359052" lon="8.2151052"><ele>459.0</ele><time>2026-05-03T09:45:40.387Z</time></trkpt><trkpt lat="44.3589802" lon="8.2152479"><ele>459.0</ele><time>2026-05-03T09:45:41.387Z</time></trkpt><trkpt lat="44.3589359" lon="8.2153808"><ele>459.0</ele><time>2026-05-03T09:45:42.388Z</time></trkpt><trkpt lat="44.3589183" lon="8.2155167"><ele>459.0</ele><time>2026-05-03T09:45:43.388Z</time></trkpt><trkpt lat="44.3589316" lon="8.2156626"><ele>459.0</ele><time>2026-05-03T09:45:44.387Z</time></trkpt><trkpt lat="44.3589566" lon="8.2157965"><ele>460.4</ele><time>2026-05-03T09:45:45.387Z</time></trkpt><trkpt lat="44.3589936" lon="8.2159279"><ele>461.79999999999995</ele><time>2026-05-03T09:45:46.387Z</time></trkpt><trkpt lat="44.3590275" lon="8.2160525"><ele>463.20000000000005</ele><time>2026-05-03T09:45:47.387Z</time></trkpt><trkpt lat="44.35906" lon="8.2161813"><ele>464.6</ele><time>2026-05-03T09:45:48.388Z</time></trkpt><trkpt lat="44.3591033" lon="8.2163099"><ele>466.0</ele><time>2026-05-03T09:45:49.387Z</time></trkpt><trkpt lat="44.3591464" lon="8.2164473"><ele>466.25</ele><time>2026-05-03T09:45:50.388Z</time></trkpt><trkpt lat="44.35919" lon="8.2165854"><ele>466.5</ele><time>2026-05-03T09:45:51.388Z</time></trkpt><trkpt lat="44.3592245" lon="8.216741"><ele>466.75</ele><time>2026-05-03T09:45:52.387Z</time></trkpt><trkpt lat="44.3592392" lon="8.2169272"><ele>467.0</ele><time>2026-05-03T09:45:53.387Z</time></trkpt><trkpt lat="44.3592294" lon="8.2171186"><ele>467.0</ele><time>2026-05-03T09:45:54.387Z</time></trkpt><trkpt lat="44.3591918" lon="8.2173041"><ele>467.0</ele><time>2026-05-03T09:45:55.387Z</time></trkpt><trkpt lat="44.3591304" lon="8.2174809"><ele>467.0</ele><time>2026-05-03T09:45:56.387Z</time></trkpt><trkpt lat="44.3590625" lon="8.2176448"><ele>467.0</ele><time>2026-05-03T09:45:57.387Z</time></trkpt><trkpt lat="44.3589998" lon="8.217808"><ele>466.75</ele><time>2026-05-03T09:45:58.387Z</time></trkpt><trkpt lat="44.3589429" lon="8.2179796"><ele>466.5</ele><time>2026-05-03T09:45:59.387Z</time></trkpt><trkpt lat="44.3588999" lon="8.2181593"><ele>466.25</ele><time>2026-05-03T09:46:00.387Z</time></trkpt><trkpt lat="44.3588697" lon="8.2183411"><ele>466.0</ele><time>2026-05-03T09:46:01.387Z</time></trkpt><trkpt lat="44.358843" lon="8.2185236"><ele>467.0</ele><time>2026-05-03T09:46:02.387Z</time></trkpt><trkpt lat="44.3588228" lon="8.2187042"><ele>468.0</ele><time>2026-05-03T09:46:03.387Z</time></trkpt><trkpt lat="44.3588049" lon="8.2188853"><ele>469.0</ele><time>2026-05-03T09:46:04.387Z</time></trkpt><trkpt lat="44.3587903" lon="8.2190675"><ele>470.0</ele><time>2026-05-03T09:46:05.387Z</time></trkpt><trkpt lat="44.3587818" lon="8.2192518"><ele>471.5</ele><time>2026-05-03T09:46:06.388Z</time></trkpt><trkpt lat="44.3587812" lon="8.2194366"><ele>473.0</ele><time>2026-05-03T09:46:07.387Z</time></trkpt><trkpt lat="44.358779" lon="8.2196213"><ele>474.5</ele><time>2026-05-03T09:46:08.388Z</time></trkpt><trkpt lat="44.3587771" lon="8.2198"><ele>476.0</ele><time>2026-05-03T09:46:09.387Z</time></trkpt><trkpt lat="44.3587692" lon="8.2199849"><ele>477.0</ele><time>2026-05-03T09:46:10.387Z</time></trkpt><trkpt lat="44.3587342" lon="8.2201584"><ele>478.0</ele><time>2026-05-03T09:46:11.387Z</time></trkpt><trkpt lat="44.3586722" lon="8.2203047"><ele>479.0</ele><time>2026-05-03T09:46:12.387Z</time></trkpt><trkpt lat="44.3585884" lon="8.2204168"><ele>480.0</ele><time>2026-05-03T09:46:13.387Z</time></trkpt><trkpt lat="44.3584847" lon="8.2204871"><ele>480.0</ele><time>2026-05-03T09:46:14.387Z</time></trkpt><trkpt lat="44.3583672" lon="8.2205211"><ele>480.0</ele><time>2026-05-03T09:46:15.387Z</time></trkpt><trkpt lat="44.358237" lon="8.2205443"><ele>480.0</ele><time>2026-05-03T09:46:16.387Z</time></trkpt><trkpt lat="44.3581077" lon="8.2205623"><ele>480.0</ele><time>2026-05-03T09:46:17.388Z</time></trkpt><trkpt lat="44.3579772" lon="8.2205863"><ele>480.75</ele><time>2026-05-03T09:46:18.387Z</time></trkpt><trkpt lat="44.3578461" lon="8.2206095"><ele>481.5</ele><time>2026-05-03T09:46:19.388Z</time></trkpt><trkpt lat="44.3577228" lon="8.2206257"><ele>482.25</ele><time>2026-05-03T09:46:20.387Z</time></trkpt><trkpt lat="44.3576186" lon="8.220655"><ele>483.0</ele><time>2026-05-03T09:46:21.388Z</time></trkpt><trkpt lat="44.3575283" lon="8.2207162"><ele>484.2</ele><time>2026-05-03T09:46:22.387Z</time></trkpt><trkpt lat="44.3574529" lon="8.2208067"><ele>485.4</ele><time>2026-05-03T09:46:23.388Z</time></trkpt><trkpt lat="44.3573949" lon="8.2209272"><ele>486.59999999999997</ele><time>2026-05-03T09:46:24.388Z</time></trkpt><trkpt lat="44.3573543" lon="8.2210664"><ele>487.79999999999995</ele><time>2026-05-03T09:46:25.387Z</time></trkpt><trkpt lat="44.3573204" lon="8.2212097"><ele>489.0</ele><time>2026-05-03T09:46:26.387Z</time></trkpt><trkpt lat="44.3572815" lon="8.221367"><ele>491.75</ele><time>2026-05-03T09:46:27.388Z</time></trkpt><trkpt lat="44.3572515" lon="8.2215284"><ele>494.5</ele><time>2026-05-03T09:46:28.388Z</time></trkpt><trkpt lat="44.3572488" lon="8.2216946"><ele>497.25</ele><time>2026-05-03T09:46:29.387Z</time></trkpt><trkpt lat="44.3572497" lon="8.2218756"><ele>500.0</ele><time>2026-05-03T09:46:30.387Z</time></trkpt><trkpt lat="44.3572499" lon="8.2220626"><ele>500.0</ele><time>2026-05-03T09:46:31.387Z</time></trkpt><trkpt lat="44.3572555" lon="8.2222556"><ele>500.0</ele><time>2026-05-03T09:46:32.387Z</time></trkpt><trkpt lat="44.3572688" lon="8.2224596"><ele>500.0</ele><time>2026-05-03T09:46:33.387Z</time></trkpt><trkpt lat="44.3573086" lon="8.2226763"><ele>500.0</ele><time>2026-05-03T09:46:34.387Z</time></trkpt><trkpt lat="44.3573639" lon="8.2229148"><ele>504.3333333333333</ele><time>2026-05-03T09:46:35.388Z</time></trkpt><trkpt lat="44.3574246" lon="8.2231747"><ele>508.66666666666663</ele><time>2026-05-03T09:46:36.387Z</time></trkpt><trkpt lat="44.3574846" lon="8.2234565"><ele>513.0</ele><time>2026-05-03T09:46:37.387Z</time></trkpt><trkpt lat="44.3575488" lon="8.223756"><ele>514.5</ele><time>2026-05-03T09:46:38.387Z</time></trkpt><trkpt lat="44.3576199" lon="8.2240636"><ele>516.0</ele><time>2026-05-03T09:46:39.387Z</time></trkpt><trkpt lat="44.3576831" lon="8.2243616"><ele>516.0</ele><time>2026-05-03T09:46:40.387Z</time></trkpt><trkpt lat="44.3577448" lon="8.2246621"><ele>516.0</ele><time>2026-05-03T09:46:41.387Z</time></trkpt><trkpt lat="44.3577974" lon="8.2249601"><ele>516.0</ele><time>2026-05-03T09:46:42.387Z</time></trkpt><trkpt lat="44.3578361" lon="8.2252596"><ele>518.0</ele><time>2026-05-03T09:46:43.387Z</time></trkpt><trkpt lat="44.357869" lon="8.2255608"><ele>520.0</ele><time>2026-05-03T09:46:44.387Z</time></trkpt><trkpt lat="44.3579025" lon="8.225849"><ele>522.0</ele><time>2026-05-03T09:46:45.387Z</time></trkpt><trkpt lat="44.3579368" lon="8.2261241"><ele>523.3333333333334</ele><time>2026-05-03T09:46:46.387Z</time></trkpt><trkpt lat="44.3579672" lon="8.2263772"><ele>524.6666666666667</ele><time>2026-05-03T09:46:47.387Z</time></trkpt><trkpt lat="44.3580096" lon="8.2266166"><ele>526.0</ele><time>2026-05-03T09:46:48.388Z</time></trkpt><trkpt lat="44.3580758" lon="8.2268438"><ele>526.6666666666667</ele><time>2026-05-03T09:46:49.388Z</time></trkpt><trkpt lat="44.3581668" lon="8.2270556"><ele>527.3333333333334</ele><time>2026-05-03T09:46:50.387Z</time></trkpt><trkpt lat="44.3582783" lon="8.2272549"><ele>528.0</ele><time>2026-05-03T09:46:51.388Z</time></trkpt><trkpt lat="44.3584037" lon="8.2274509"><ele>528.0</ele><time>2026-05-03T09:46:52.387Z</time></trkpt><trkpt lat="44.3585308" lon="8.2276608"><ele>528.0</ele><time>2026-05-03T09:46:53.387Z</time></trkpt><trkpt lat="44.3586575" lon="8.2278777"><ele>528.0</ele><time>2026-05-03T09:46:54.388Z</time></trkpt><trkpt lat="44.3587895" lon="8.2280939"><ele>526.0</ele><time>2026-05-03T09:46:55.387Z</time></trkpt><trkpt lat="44.3589177" lon="8.228318"><ele>524.0</ele><time>2026-05-03T09:46:56.387Z</time></trkpt><trkpt lat="44.359045" lon="8.2285446"><ele>522.0</ele><time>2026-05-03T09:46:57.387Z</time></trkpt><trkpt lat="44.3591736" lon="8.2287769"><ele>519.3333333333334</ele><time>2026-05-03T09:46:58.387Z</time></trkpt><trkpt lat="44.3592969" lon="8.2290187"><ele>516.6666666666667</ele><time>2026-05-03T09:46:59.387Z</time></trkpt><trkpt lat="44.3594174" lon="8.2292628"><ele>514.0</ele><time>2026-05-03T09:47:00.387Z</time></trkpt><trkpt lat="44.3595334" lon="8.229517"><ele>514.0</ele><time>2026-05-03T09:47:01.387Z</time></trkpt><trkpt lat="44.3596486" lon="8.2297697"><ele>514.0</ele><time>2026-05-03T09:47:02.387Z</time></trkpt><trkpt lat="44.3597593" lon="8.230022"><ele>514.0</ele><time>2026-05-03T09:47:03.388Z</time></trkpt><trkpt lat="44.359873" lon="8.2302815"><ele>513.6666666666667</ele><time>2026-05-03T09:47:04.387Z</time></trkpt><trkpt lat="44.3599856" lon="8.2305425"><ele>513.3333333333334</ele><time>2026-05-03T09:47:05.387Z</time></trkpt><trkpt lat="44.3600957" lon="8.2307991"><ele>513.0</ele><time>2026-05-03T09:47:06.387Z</time></trkpt><trkpt lat="44.3602" lon="8.2310528"><ele>510.66666666666663</ele><time>2026-05-03T09:47:07.388Z</time></trkpt><trkpt lat="44.3603043" lon="8.2313011"><ele>508.3333333333333</ele><time>2026-05-03T09:47:08.387Z</time></trkpt><trkpt lat="44.3604098" lon="8.2315464"><ele>506.0</ele><time>2026-05-03T09:47:09.387Z</time></trkpt><trkpt lat="44.3605146" lon="8.2317888"><ele>508.66666666666663</ele><time>2026-05-03T09:47:10.387Z</time></trkpt><trkpt lat="44.3606195" lon="8.2320345"><ele>511.33333333333337</ele><time>2026-05-03T09:47:11.387Z</time></trkpt><trkpt lat="44.3607369" lon="8.2322689"><ele>514.0</ele><time>2026-05-03T09:47:12.387Z</time></trkpt><trkpt lat="44.3608665" lon="8.232493"><ele>508.0</ele><time>2026-05-03T09:47:13.387Z</time></trkpt><trkpt lat="44.3610028" lon="8.2327136"><ele>502.0</ele><time>2026-05-03T09:47:14.387Z</time></trkpt><trkpt lat="44.3611412" lon="8.2329273"><ele>496.0</ele><time>2026-05-03T09:47:15.388Z</time></trkpt><trkpt lat="44.361279" lon="8.2331382"><ele>492.33333333333337</ele><time>2026-05-03T09:47:16.387Z</time></trkpt><trkpt lat="44.3614149" lon="8.2333501"><ele>488.66666666666663</ele><time>2026-05-03T09:47:17.387Z</time></trkpt><trkpt lat="44.3615494" lon="8.2335554"><ele>485.0</ele><time>2026-05-03T09:47:18.387Z</time></trkpt><trkpt lat="44.3616711" lon="8.2337665"><ele>483.0</ele><time>2026-05-03T09:47:19.388Z</time></trkpt><trkpt lat="44.3617744" lon="8.2339939"><ele>481.0</ele><time>2026-05-03T09:47:20.387Z</time></trkpt><trkpt lat="44.3618592" lon="8.2342457"><ele>479.0</ele><time>2026-05-03T09:47:21.387Z</time></trkpt><trkpt lat="44.3619314" lon="8.2345139"><ele>479.0</ele><time>2026-05-03T09:47:22.388Z</time></trkpt><trkpt lat="44.3620012" lon="8.2348002"><ele>479.0</ele><time>2026-05-03T09:47:23.388Z</time></trkpt><trkpt lat="44.3620681" lon="8.2350919"><ele>479.0</ele><time>2026-05-03T09:47:24.387Z</time></trkpt><trkpt lat="44.362138" lon="8.2353903"><ele>478.3333333333333</ele><time>2026-05-03T09:47:25.388Z</time></trkpt><trkpt lat="44.3622025" lon="8.2356872"><ele>477.66666666666663</ele><time>2026-05-03T09:47:26.387Z</time></trkpt><trkpt lat="44.3622649" lon="8.235984"><ele>477.0</ele><time>2026-05-03T09:47:27.387Z</time></trkpt><trkpt lat="44.362326" lon="8.236269"><ele>474.66666666666663</ele><time>2026-05-03T09:47:28.388Z</time></trkpt><trkpt lat="44.3623853" lon="8.236543"><ele>472.3333333333333</ele><time>2026-05-03T09:47:29.387Z</time></trkpt><trkpt lat="44.3624452" lon="8.2368078"><ele>470.0</ele><time>2026-05-03T09:47:30.387Z</time></trkpt><trkpt lat="44.3624964" lon="8.2370609"><ele>468.3333333333333</ele><time>2026-05-03T09:47:31.387Z</time></trkpt><trkpt lat="44.3625483" lon="8.2373028"><ele>466.66666666666663</ele><time>2026-05-03T09:47:32.387Z</time></trkpt><trkpt lat="44.3625974" lon="8.2375409"><ele>465.0</ele><time>2026-05-03T09:47:33.387Z</time></trkpt><trkpt lat="44.3626432" lon="8.2377765"><ele>465.0</ele><time>2026-05-03T09:47:34.387Z</time></trkpt><trkpt lat="44.3626604" lon="8.2380099"><ele>465.0</ele><time>2026-05-03T09:47:35.387Z</time></trkpt><trkpt lat="44.3626486" lon="8.2382341"><ele>465.0</ele><time>2026-05-03T09:47:36.387Z</time></trkpt><trkpt lat="44.3626257" lon="8.2384474"><ele>464.75</ele><time>2026-05-03T09:47:37.387Z</time></trkpt><trkpt lat="44.3625939" lon="8.2386578"><ele>464.5</ele><time>2026-05-03T09:47:38.388Z</time></trkpt><trkpt lat="44.3625628" lon="8.2388516"><ele>464.25</ele><time>2026-05-03T09:47:39.387Z</time></trkpt><trkpt lat="44.3625338" lon="8.2390368"><ele>464.0</ele><time>2026-05-03T09:47:40.387Z</time></trkpt><trkpt lat="44.3625057" lon="8.2392064"><ele>463.75</ele><time>2026-05-03T09:47:41.387Z</time></trkpt><trkpt lat="44.3624781" lon="8.2393565"><ele>463.5</ele><time>2026-05-03T09:47:42.387Z</time></trkpt><trkpt lat="44.3624304" lon="8.2395009"><ele>463.25</ele><time>2026-05-03T09:47:43.387Z</time></trkpt><trkpt lat="44.3623969" lon="8.2396539"><ele>463.0</ele><time>2026-05-03T09:47:44.388Z</time></trkpt><trkpt lat="44.3623836" lon="8.2398356"><ele>463.5</ele><time>2026-05-03T09:47:45.387Z</time></trkpt><trkpt lat="44.3623672" lon="8.2400307"><ele>464.0</ele><time>2026-05-03T09:47:46.387Z</time></trkpt><trkpt lat="44.3623517" lon="8.2402262"><ele>464.5</ele><time>2026-05-03T09:47:47.387Z</time></trkpt><trkpt lat="44.3623097" lon="8.2404056"><ele>465.0</ele><time>2026-05-03T09:47:48.387Z</time></trkpt><trkpt lat="44.3622829" lon="8.2405854"><ele>465.5</ele><time>2026-05-03T09:47:49.387Z</time></trkpt><trkpt lat="44.3622578" lon="8.2407524"><ele>466.0</ele><time>2026-05-03T09:47:50.388Z</time></trkpt><trkpt lat="44.3622593" lon="8.240915"><ele>466.5</ele><time>2026-05-03T09:47:51.387Z</time></trkpt><trkpt lat="44.3622992" lon="8.2410777"><ele>467.0</ele><time>2026-05-03T09:47:52.387Z</time></trkpt><trkpt lat="44.3623816" lon="8.2412328"><ele>467.0</ele><time>2026-05-03T09:47:53.387Z</time></trkpt><trkpt lat="44.3624957" lon="8.2414038"><ele>467.0</ele><time>2026-05-03T09:47:54.387Z</time></trkpt><trkpt lat="44.3626114" lon="8.241588"><ele>467.0</ele><time>2026-05-03T09:47:55.388Z</time></trkpt><trkpt lat="44.3627248" lon="8.2417632"><ele>468.3333333333333</ele><time>2026-05-03T09:47:56.387Z</time></trkpt><trkpt lat="44.3628344" lon="8.241928"><ele>469.66666666666663</ele><time>2026-05-03T09:47:57.387Z</time></trkpt><trkpt lat="44.362951" lon="8.2420928"><ele>471.0</ele><time>2026-05-03T09:47:58.387Z</time></trkpt><trkpt lat="44.3630601" lon="8.2422556"><ele>465.5</ele><time>2026-05-03T09:47:59.387Z</time></trkpt><trkpt lat="44.3632834" lon="8.2425696"><ele>460.0</ele><time>2026-05-03T09:48:01.387Z</time></trkpt><trkpt lat="44.3633843" lon="8.2427369"><ele>460.0</ele><time>2026-05-03T09:48:02.387Z</time></trkpt><trkpt lat="44.3634804" lon="8.2429149"><ele>460.0</ele><time>2026-05-03T09:48:03.387Z</time></trkpt><trkpt lat="44.3635673" lon="8.2430964"><ele>460.0</ele><time>2026-05-03T09:48:04.388Z</time></trkpt><trkpt lat="44.3636484" lon="8.2432896"><ele>457.33333333333337</ele><time>2026-05-03T09:48:05.388Z</time></trkpt><trkpt lat="44.3637285" lon="8.2434913"><ele>454.66666666666663</ele><time>2026-05-03T09:48:06.387Z</time></trkpt><trkpt lat="44.3638002" lon="8.243691"><ele>452.0</ele><time>2026-05-03T09:48:07.387Z</time></trkpt><trkpt lat="44.363862" lon="8.243902"><ele>453.0</ele><time>2026-05-03T09:48:08.387Z</time></trkpt><trkpt lat="44.3639105" lon="8.2441218"><ele>454.0</ele><time>2026-05-03T09:48:09.387Z</time></trkpt><trkpt lat="44.3639528" lon="8.2443532"><ele>455.0</ele><time>2026-05-03T09:48:10.387Z</time></trkpt><trkpt lat="44.3639917" lon="8.2445917"><ele>453.66666666666663</ele><time>2026-05-03T09:48:11.388Z</time></trkpt><trkpt lat="44.3640253" lon="8.2448333"><ele>452.33333333333337</ele><time>2026-05-03T09:48:12.387Z</time></trkpt><trkpt lat="44.3640543" lon="8.2450827"><ele>451.0</ele><time>2026-05-03T09:48:13.387Z</time></trkpt><trkpt lat="44.3640897" lon="8.2453405"><ele>451.0</ele><time>2026-05-03T09:48:14.387Z</time></trkpt><trkpt lat="44.3641326" lon="8.2455952"><ele>451.0</ele><time>2026-05-03T09:48:15.387Z</time></trkpt><trkpt lat="44.3641715" lon="8.2458523"><ele>451.0</ele><time>2026-05-03T09:48:16.387Z</time></trkpt><trkpt lat="44.364211" lon="8.246108"><ele>449.33333333333337</ele><time>2026-05-03T09:48:17.387Z</time></trkpt><trkpt lat="44.3642477" lon="8.2463657"><ele>447.66666666666663</ele><time>2026-05-03T09:48:18.388Z</time></trkpt><trkpt lat="44.3642875" lon="8.2466218"><ele>446.0</ele><time>2026-05-03T09:48:19.387Z</time></trkpt><trkpt lat="44.3643271" lon="8.2468762"><ele>445.0</ele><time>2026-05-03T09:48:20.387Z</time></trkpt><trkpt lat="44.3643624" lon="8.247129"><ele>444.0</ele><time>2026-05-03T09:48:21.388Z</time></trkpt><trkpt lat="44.3643956" lon="8.2473858"><ele>443.0</ele><time>2026-05-03T09:48:22.387Z</time></trkpt><trkpt lat="44.3644301" lon="8.2476461"><ele>442.3333333333333</ele><time>2026-05-03T09:48:23.388Z</time></trkpt><trkpt lat="44.3644661" lon="8.247907"><ele>441.66666666666663</ele><time>2026-05-03T09:48:24.387Z</time></trkpt><trkpt lat="44.3645024" lon="8.2481707"><ele>441.0</ele><time>2026-05-03T09:48:25.388Z</time></trkpt><trkpt lat="44.3645408" lon="8.2484385"><ele>440.0</ele><time>2026-05-03T09:48:26.388Z</time></trkpt><trkpt lat="44.3645787" lon="8.2487123"><ele>439.0</ele><time>2026-05-03T09:48:27.387Z</time></trkpt><trkpt lat="44.3646166" lon="8.2489877"><ele>438.0</ele><time>2026-05-03T09:48:28.388Z</time></trkpt><trkpt lat="44.3646595" lon="8.2492699"><ele>439.0</ele><time>2026-05-03T09:48:29.387Z</time></trkpt><trkpt lat="44.364697" lon="8.2495556"><ele>440.0</ele><time>2026-05-03T09:48:30.387Z</time></trkpt><trkpt lat="44.3647371" lon="8.2498399"><ele>441.0</ele><time>2026-05-03T09:48:31.387Z</time></trkpt><trkpt lat="44.3647769" lon="8.2501227"><ele>441.0</ele><time>2026-05-03T09:48:32.387Z</time></trkpt><trkpt lat="44.3648193" lon="8.250406"><ele>441.0</ele><time>2026-05-03T09:48:33.387Z</time></trkpt><trkpt lat="44.3648632" lon="8.250687"><ele>441.0</ele><time>2026-05-03T09:48:34.387Z</time></trkpt><trkpt lat="44.3649007" lon="8.2509685"><ele>439.66666666666663</ele><time>2026-05-03T09:48:35.387Z</time></trkpt><trkpt lat="44.3649389" lon="8.2512443"><ele>438.3333333333333</ele><time>2026-05-03T09:48:36.387Z</time></trkpt><trkpt lat="44.3649753" lon="8.2515203"><ele>437.0</ele><time>2026-05-03T09:48:37.387Z</time></trkpt><trkpt lat="44.3650131" lon="8.2517925"><ele>435.66666666666663</ele><time>2026-05-03T09:48:38.388Z</time></trkpt><trkpt lat="44.3650503" lon="8.252063"><ele>434.33333333333337</ele><time>2026-05-03T09:48:39.387Z</time></trkpt><trkpt lat="44.3650932" lon="8.2523295"><ele>433.0</ele><time>2026-05-03T09:48:40.388Z</time></trkpt><trkpt lat="44.3651416" lon="8.2525937"><ele>431.6666666666667</ele><time>2026-05-03T09:48:41.388Z</time></trkpt><trkpt lat="44.3651967" lon="8.2528551"><ele>430.33333333333337</ele><time>2026-05-03T09:48:42.387Z</time></trkpt><trkpt lat="44.3652615" lon="8.2531114"><ele>429.0</ele><time>2026-05-03T09:48:43.387Z</time></trkpt><trkpt lat="44.3653376" lon="8.2533575"><ele>428.33333333333337</ele><time>2026-05-03T09:48:44.387Z</time></trkpt><trkpt lat="44.3654251" lon="8.2535971"><ele>427.6666666666667</ele><time>2026-05-03T09:48:45.388Z</time></trkpt><trkpt lat="44.3655313" lon="8.2538256"><ele>427.0</ele><time>2026-05-03T09:48:46.387Z</time></trkpt><trkpt lat="44.3656363" lon="8.2540433"><ele>429.33333333333337</ele><time>2026-05-03T09:48:47.387Z</time></trkpt><trkpt lat="44.3657391" lon="8.25425"><ele>431.66666666666663</ele><time>2026-05-03T09:48:48.387Z</time></trkpt><trkpt lat="44.3658411" lon="8.2544496"><ele>434.0</ele><time>2026-05-03T09:48:49.387Z</time></trkpt><trkpt lat="44.3659412" lon="8.2546515"><ele>431.3333333333333</ele><time>2026-05-03T09:48:50.388Z</time></trkpt><trkpt lat="44.3660404" lon="8.2548458"><ele>428.66666666666663</ele><time>2026-05-03T09:48:51.387Z</time></trkpt><trkpt lat="44.3661269" lon="8.2550514"><ele>426.0</ele><time>2026-05-03T09:48:52.387Z</time></trkpt><trkpt lat="44.3661913" lon="8.2552684"><ele>426.0</ele><time>2026-05-03T09:48:53.387Z</time></trkpt><trkpt lat="44.3662334" lon="8.2554989"><ele>426.0</ele><time>2026-05-03T09:48:54.387Z</time></trkpt><trkpt lat="44.3662715" lon="8.2557367"><ele>426.0</ele><time>2026-05-03T09:48:55.387Z</time></trkpt><trkpt lat="44.3663063" lon="8.2559769"><ele>426.66666666666663</ele><time>2026-05-03T09:48:56.388Z</time></trkpt><trkpt lat="44.3663358" lon="8.2562159"><ele>427.3333333333333</ele><time>2026-05-03T09:48:57.387Z</time></trkpt><trkpt lat="44.3663605" lon="8.2564434"><ele>428.0</ele><time>2026-05-03T09:48:58.387Z</time></trkpt><trkpt lat="44.3663791" lon="8.2566525"><ele>428.0</ele><time>2026-05-03T09:48:59.388Z</time></trkpt><trkpt lat="44.3664069" lon="8.2568433"><ele>428.0</ele><time>2026-05-03T09:49:00.388Z</time></trkpt><trkpt lat="44.3664636" lon="8.2570158"><ele>428.0</ele><time>2026-05-03T09:49:01.387Z</time></trkpt><trkpt lat="44.3665578" lon="8.2571659"><ele>428.0</ele><time>2026-05-03T09:49:02.387Z</time></trkpt><trkpt lat="44.3666751" lon="8.2572868"><ele>425.0</ele><time>2026-05-03T09:49:03.387Z</time></trkpt><trkpt lat="44.3667945" lon="8.2574123"><ele>422.0</ele><time>2026-05-03T09:49:04.387Z</time></trkpt><trkpt lat="44.3668965" lon="8.2575765"><ele>419.0</ele><time>2026-05-03T09:49:05.387Z</time></trkpt><trkpt lat="44.366982" lon="8.2577726"><ele>419.0</ele><time>2026-05-03T09:49:06.388Z</time></trkpt><trkpt lat="44.3670569" lon="8.2579624"><ele>419.0</ele><time>2026-05-03T09:49:07.388Z</time></trkpt><trkpt lat="44.3671208" lon="8.2581483"><ele>419.0</ele><time>2026-05-03T09:49:08.387Z</time></trkpt><trkpt lat="44.367163" lon="8.2583409"><ele>419.0</ele><time>2026-05-03T09:49:09.387Z</time></trkpt><trkpt lat="44.3671721" lon="8.2585492"><ele>417.3333333333333</ele><time>2026-05-03T09:49:10.387Z</time></trkpt><trkpt lat="44.3671521" lon="8.2587649"><ele>415.66666666666663</ele><time>2026-05-03T09:49:11.387Z</time></trkpt><trkpt lat="44.3671251" lon="8.2589855"><ele>414.0</ele><time>2026-05-03T09:49:12.388Z</time></trkpt><trkpt lat="44.3670963" lon="8.2592136"><ele>412.33333333333337</ele><time>2026-05-03T09:49:13.387Z</time></trkpt><trkpt lat="44.3670612" lon="8.2594381"><ele>410.6666666666667</ele><time>2026-05-03T09:49:14.387Z</time></trkpt><trkpt lat="44.3670265" lon="8.2596643"><ele>409.0</ele><time>2026-05-03T09:49:15.387Z</time></trkpt><trkpt lat="44.3669933" lon="8.2598929"><ele>408.33333333333337</ele><time>2026-05-03T09:49:16.387Z</time></trkpt><trkpt lat="44.3669562" lon="8.2601258"><ele>407.66666666666663</ele><time>2026-05-03T09:49:17.387Z</time></trkpt><trkpt lat="44.36692" lon="8.260359"><ele>407.0</ele><time>2026-05-03T09:49:18.388Z</time></trkpt><trkpt lat="44.3668846" lon="8.2605922"><ele>406.3333333333333</ele><time>2026-05-03T09:49:19.387Z</time></trkpt><trkpt lat="44.366852" lon="8.2608226"><ele>405.66666666666663</ele><time>2026-05-03T09:49:20.387Z</time></trkpt><trkpt lat="44.3668154" lon="8.2610473"><ele>405.0</ele><time>2026-05-03T09:49:21.388Z</time></trkpt><trkpt lat="44.3667799" lon="8.2612707"><ele>406.0</ele><time>2026-05-03T09:49:22.387Z</time></trkpt><trkpt lat="44.3667529" lon="8.2614835"><ele>407.0</ele><time>2026-05-03T09:49:23.387Z</time></trkpt><trkpt lat="44.36672" lon="8.2616907"><ele>408.0</ele><time>2026-05-03T09:49:24.387Z</time></trkpt><trkpt lat="44.3666871" lon="8.2618896"><ele>408.0</ele><time>2026-05-03T09:49:25.388Z</time></trkpt><trkpt lat="44.3666566" lon="8.2620863"><ele>408.0</ele><time>2026-05-03T09:49:26.387Z</time></trkpt><trkpt lat="44.366623" lon="8.2622823"><ele>408.0</ele><time>2026-05-03T09:49:27.387Z</time></trkpt><trkpt lat="44.3665961" lon="8.2624741"><ele>408.0</ele><time>2026-05-03T09:49:28.387Z</time></trkpt><trkpt lat="44.3665638" lon="8.2626544"><ele>406.25</ele><time>2026-05-03T09:49:29.387Z</time></trkpt><trkpt lat="44.3665326" lon="8.2628253"><ele>404.5</ele><time>2026-05-03T09:49:30.387Z</time></trkpt><trkpt lat="44.3664979" lon="8.2629913"><ele>402.75</ele><time>2026-05-03T09:49:31.387Z</time></trkpt><trkpt lat="44.3664638" lon="8.2631446"><ele>401.0</ele><time>2026-05-03T09:49:32.387Z</time></trkpt><trkpt lat="44.3664323" lon="8.2632892"><ele>401.0</ele><time>2026-05-03T09:49:33.387Z</time></trkpt><trkpt lat="44.3664042" lon="8.2634214"><ele>401.0</ele><time>2026-05-03T09:49:34.388Z</time></trkpt><trkpt lat="44.3663804" lon="8.2635459"><ele>401.0</ele><time>2026-05-03T09:49:35.387Z</time></trkpt><trkpt lat="44.3663605" lon="8.2636639"><ele>401.0</ele><time>2026-05-03T09:49:36.387Z</time></trkpt><trkpt lat="44.3663293" lon="8.2637958"><ele>401.0</ele><time>2026-05-03T09:49:37.387Z</time></trkpt><trkpt lat="44.3662988" lon="8.2639348"><ele>400.4</ele><time>2026-05-03T09:49:38.387Z</time></trkpt><trkpt lat="44.366268" lon="8.2640772"><ele>399.8</ele><time>2026-05-03T09:49:39.387Z</time></trkpt><trkpt lat="44.3662352" lon="8.2642196"><ele>399.2</ele><time>2026-05-03T09:49:40.387Z</time></trkpt><trkpt lat="44.366203" lon="8.2643704"><ele>398.59999999999997</ele><time>2026-05-03T09:49:41.388Z</time></trkpt><trkpt lat="44.3661705" lon="8.2645229"><ele>398.0</ele><time>2026-05-03T09:49:42.387Z</time></trkpt><trkpt lat="44.366132" lon="8.2646799"><ele>397.0</ele><time>2026-05-03T09:49:43.387Z</time></trkpt><trkpt lat="44.3660952" lon="8.2648406"><ele>396.0</ele><time>2026-05-03T09:49:44.387Z</time></trkpt><trkpt lat="44.3660596" lon="8.2650036"><ele>395.0</ele><time>2026-05-03T09:49:45.387Z</time></trkpt><trkpt lat="44.3660252" lon="8.2651596"><ele>394.0</ele><time>2026-05-03T09:49:46.387Z</time></trkpt><trkpt lat="44.3659929" lon="8.2653105"><ele>394.0</ele><time>2026-05-03T09:49:47.388Z</time></trkpt><trkpt lat="44.3659595" lon="8.2654555"><ele>394.0</ele><time>2026-05-03T09:49:48.387Z</time></trkpt><trkpt lat="44.3659277" lon="8.2655958"><ele>394.0</ele><time>2026-05-03T09:49:49.387Z</time></trkpt><trkpt lat="44.3658957" lon="8.2657369"><ele>394.0</ele><time>2026-05-03T09:49:50.387Z</time></trkpt><trkpt lat="44.3658616" lon="8.2658793"><ele>394.0</ele><time>2026-05-03T09:49:51.387Z</time></trkpt><trkpt lat="44.3658275" lon="8.2660291"><ele>394.0</ele><time>2026-05-03T09:49:52.387Z</time></trkpt><trkpt lat="44.3657953" lon="8.2661756"><ele>394.0</ele><time>2026-05-03T09:49:53.387Z</time></trkpt><trkpt lat="44.365761" lon="8.2663265"><ele>394.0</ele><time>2026-05-03T09:49:54.387Z</time></trkpt><trkpt lat="44.3657304" lon="8.2664727"><ele>394.0</ele><time>2026-05-03T09:49:55.387Z</time></trkpt><trkpt lat="44.3656974" lon="8.2666155"><ele>394.0</ele><time>2026-05-03T09:49:56.387Z</time></trkpt><trkpt lat="44.3656724" lon="8.2667501"><ele>394.2</ele><time>2026-05-03T09:49:57.387Z</time></trkpt><trkpt lat="44.3656459" lon="8.2668764"><ele>394.4</ele><time>2026-05-03T09:49:58.387Z</time></trkpt><trkpt lat="44.3656191" lon="8.266993"><ele>394.6</ele><time>2026-05-03T09:49:59.388Z</time></trkpt><trkpt lat="44.3655955" lon="8.2671154"><ele>394.8</ele><time>2026-05-03T09:50:00.387Z</time></trkpt><trkpt lat="44.3655669" lon="8.2672337"><ele>395.0</ele><time>2026-05-03T09:50:01.387Z</time></trkpt><trkpt lat="44.3655423" lon="8.2673526"><ele>393.6</ele><time>2026-05-03T09:50:02.388Z</time></trkpt><trkpt lat="44.3655189" lon="8.2674704"><ele>392.2</ele><time>2026-05-03T09:50:03.387Z</time></trkpt><trkpt lat="44.3654899" lon="8.2675972"><ele>390.79999999999995</ele><time>2026-05-03T09:50:04.387Z</time></trkpt><trkpt lat="44.3654617" lon="8.2677311"><ele>389.4</ele><time>2026-05-03T09:50:05.387Z</time></trkpt><trkpt lat="44.3654319" lon="8.2678616"><ele>388.0</ele><time>2026-05-03T09:50:06.387Z</time></trkpt><trkpt lat="44.3654048" lon="8.2679865"><ele>387.4</ele><time>2026-05-03T09:50:07.388Z</time></trkpt><trkpt lat="44.3653806" lon="8.2681104"><ele>386.79999999999995</ele><time>2026-05-03T09:50:08.387Z</time></trkpt><trkpt lat="44.3653501" lon="8.2682399"><ele>386.2</ele><time>2026-05-03T09:50:09.388Z</time></trkpt><trkpt lat="44.3653185" lon="8.2683753"><ele>385.6</ele><time>2026-05-03T09:50:10.388Z</time></trkpt><trkpt lat="44.3652855" lon="8.2685252"><ele>385.0</ele><time>2026-05-03T09:50:11.387Z</time></trkpt><trkpt lat="44.3652521" lon="8.2686803"><ele>385.0</ele><time>2026-05-03T09:50:12.387Z</time></trkpt><trkpt lat="44.3652187" lon="8.2688411"><ele>385.0</ele><time>2026-05-03T09:50:13.387Z</time></trkpt><trkpt lat="44.3651821" lon="8.2690068"><ele>385.0</ele><time>2026-05-03T09:50:14.387Z</time></trkpt><trkpt lat="44.3651454" lon="8.2691723"><ele>385.0</ele><time>2026-05-03T09:50:15.387Z</time></trkpt><trkpt lat="44.3651068" lon="8.269333"><ele>385.25</ele><time>2026-05-03T09:50:16.387Z</time></trkpt><trkpt lat="44.3650713" lon="8.2694964"><ele>385.5</ele><time>2026-05-03T09:50:17.387Z</time></trkpt><trkpt lat="44.3650344" lon="8.2696627"><ele>385.75</ele><time>2026-05-03T09:50:18.387Z</time></trkpt><trkpt lat="44.3650005" lon="8.2698321"><ele>386.0</ele><time>2026-05-03T09:50:19.387Z</time></trkpt><trkpt lat="44.3649637" lon="8.2699988"><ele>386.0</ele><time>2026-05-03T09:50:20.388Z</time></trkpt><trkpt lat="44.3649228" lon="8.2701671"><ele>386.0</ele><time>2026-05-03T09:50:21.388Z</time></trkpt><trkpt lat="44.3648844" lon="8.2703387"><ele>386.0</ele><time>2026-05-03T09:50:22.387Z</time></trkpt><trkpt lat="44.364849" lon="8.270511"><ele>386.0</ele><time>2026-05-03T09:50:23.387Z</time></trkpt><trkpt lat="44.3648078" lon="8.2706829"><ele>386.0</ele><time>2026-05-03T09:50:24.387Z</time></trkpt><trkpt lat="44.3647685" lon="8.2708528"><ele>386.0</ele><time>2026-05-03T09:50:25.387Z</time></trkpt><trkpt lat="44.3647274" lon="8.2710238"><ele>386.0</ele><time>2026-05-03T09:50:26.387Z</time></trkpt><trkpt lat="44.3646912" lon="8.2711974"><ele>386.0</ele><time>2026-05-03T09:50:27.387Z</time></trkpt><trkpt lat="44.3646508" lon="8.2713671"><ele>385.0</ele><time>2026-05-03T09:50:28.387Z</time></trkpt><trkpt lat="44.3646096" lon="8.2715398"><ele>384.0</ele><time>2026-05-03T09:50:29.387Z</time></trkpt><trkpt lat="44.3645687" lon="8.2717174"><ele>383.0</ele><time>2026-05-03T09:50:30.388Z</time></trkpt><trkpt lat="44.3645321" lon="8.2718966"><ele>382.0</ele><time>2026-05-03T09:50:31.387Z</time></trkpt><trkpt lat="44.3644899" lon="8.2720794"><ele>382.0</ele><time>2026-05-03T09:50:32.388Z</time></trkpt><trkpt lat="44.3644492" lon="8.2722617"><ele>382.0</ele><time>2026-05-03T09:50:33.387Z</time></trkpt><trkpt lat="44.3644065" lon="8.272449"><ele>382.0</ele><time>2026-05-03T09:50:34.387Z</time></trkpt><trkpt lat="44.3643645" lon="8.2726357"><ele>382.0</ele><time>2026-05-03T09:50:35.387Z</time></trkpt><trkpt lat="44.3643264" lon="8.2728225"><ele>382.25</ele><time>2026-05-03T09:50:36.387Z</time></trkpt><trkpt lat="44.3642858" lon="8.2730082"><ele>382.5</ele><time>2026-05-03T09:50:37.388Z</time></trkpt><trkpt lat="44.3642519" lon="8.2731824"><ele>382.75</ele><time>2026-05-03T09:50:38.387Z</time></trkpt><trkpt lat="44.3642151" lon="8.2733513"><ele>383.0</ele><time>2026-05-03T09:50:39.387Z</time></trkpt><trkpt lat="44.3641804" lon="8.2735227"><ele>382.75</ele><time>2026-05-03T09:50:40.387Z</time></trkpt><trkpt lat="44.3641459" lon="8.2736963"><ele>382.5</ele><time>2026-05-03T09:50:41.387Z</time></trkpt><trkpt lat="44.364107" lon="8.2738727"><ele>382.25</ele><time>2026-05-03T09:50:42.387Z</time></trkpt><trkpt lat="44.3640664" lon="8.2740503"><ele>382.0</ele><time>2026-05-03T09:50:43.387Z</time></trkpt><trkpt lat="44.3640266" lon="8.2742373"><ele>382.0</ele><time>2026-05-03T09:50:44.388Z</time></trkpt><trkpt lat="44.3639839" lon="8.2744269"><ele>382.0</ele><time>2026-05-03T09:50:45.388Z</time></trkpt><trkpt lat="44.3639371" lon="8.2746224"><ele>382.0</ele><time>2026-05-03T09:50:46.387Z</time></trkpt><trkpt lat="44.3638938" lon="8.2748184"><ele>382.0</ele><time>2026-05-03T09:50:47.387Z</time></trkpt><trkpt lat="44.3638522" lon="8.2750143"><ele>380.5</ele><time>2026-05-03T09:50:48.388Z</time></trkpt><trkpt lat="44.3638124" lon="8.2752116"><ele>379.0</ele><time>2026-05-03T09:50:49.387Z</time></trkpt><trkpt lat="44.3637745" lon="8.2754051"><ele>377.5</ele><time>2026-05-03T09:50:50.387Z</time></trkpt><trkpt lat="44.3637469" lon="8.2756066"><ele>376.0</ele><time>2026-05-03T09:50:51.387Z</time></trkpt><trkpt lat="44.3637371" lon="8.2758164"><ele>374.3333333333333</ele><time>2026-05-03T09:50:52.388Z</time></trkpt><trkpt lat="44.36374" lon="8.2760307"><ele>372.6666666666667</ele><time>2026-05-03T09:50:53.387Z</time></trkpt><trkpt lat="44.3637522" lon="8.276242"><ele>371.0</ele><time>2026-05-03T09:50:54.388Z</time></trkpt><trkpt lat="44.3637637" lon="8.2764619"><ele>370.0</ele><time>2026-05-03T09:50:55.387Z</time></trkpt><trkpt lat="44.3637751" lon="8.2766819"><ele>369.0</ele><time>2026-05-03T09:50:56.388Z</time></trkpt><trkpt lat="44.3637849" lon="8.2768975"><ele>368.0</ele><time>2026-05-03T09:50:57.387Z</time></trkpt><trkpt lat="44.3637914" lon="8.2771057"><ele>368.25</ele><time>2026-05-03T09:50:58.387Z</time></trkpt><trkpt lat="44.3638026" lon="8.2773004"><ele>368.5</ele><time>2026-05-03T09:50:59.388Z</time></trkpt><trkpt lat="44.3638154" lon="8.2774872"><ele>368.75</ele><time>2026-05-03T09:51:00.387Z</time></trkpt><trkpt lat="44.3638231" lon="8.2776713"><ele>369.0</ele><time>2026-05-03T09:51:01.387Z</time></trkpt><trkpt lat="44.3638322" lon="8.2778579"><ele>369.0</ele><time>2026-05-03T09:51:02.387Z</time></trkpt><trkpt lat="44.3638433" lon="8.2780551"><ele>369.0</ele><time>2026-05-03T09:51:03.387Z</time></trkpt><trkpt lat="44.3638536" lon="8.2782632"><ele>369.0</ele><time>2026-05-03T09:51:04.387Z</time></trkpt><trkpt lat="44.363865" lon="8.2784819"><ele>369.0</ele><time>2026-05-03T09:51:05.387Z</time></trkpt><trkpt lat="44.3638734" lon="8.2787027"><ele>369.3333333333333</ele><time>2026-05-03T09:51:06.387Z</time></trkpt><trkpt lat="44.3638722" lon="8.2789366"><ele>369.66666666666663</ele><time>2026-05-03T09:51:07.388Z</time></trkpt><trkpt lat="44.3638621" lon="8.279175"><ele>370.0</ele><time>2026-05-03T09:51:08.387Z</time></trkpt><trkpt lat="44.363846" lon="8.2794207"><ele>369.0</ele><time>2026-05-03T09:51:09.387Z</time></trkpt><trkpt lat="44.3638236" lon="8.2796768"><ele>368.0</ele><time>2026-05-03T09:51:10.387Z</time></trkpt><trkpt lat="44.3638023" lon="8.27994"><ele>367.0</ele><time>2026-05-03T09:51:11.387Z</time></trkpt><trkpt lat="44.3637682" lon="8.2802072"><ele>366.3333333333333</ele><time>2026-05-03T09:51:12.387Z</time></trkpt><trkpt lat="44.3637296" lon="8.2804803"><ele>365.6666666666667</ele><time>2026-05-03T09:51:13.387Z</time></trkpt><trkpt lat="44.3636907" lon="8.2807507"><ele>365.0</ele><time>2026-05-03T09:51:14.387Z</time></trkpt><trkpt lat="44.3636521" lon="8.281026"><ele>364.33333333333337</ele><time>2026-05-03T09:51:15.388Z</time></trkpt><trkpt lat="44.3636161" lon="8.2812975"><ele>363.6666666666667</ele><time>2026-05-03T09:51:16.388Z</time></trkpt><trkpt lat="44.363577" lon="8.2815608"><ele>363.0</ele><time>2026-05-03T09:51:17.387Z</time></trkpt><trkpt lat="44.3635391" lon="8.2818189"><ele>362.3333333333333</ele><time>2026-05-03T09:51:18.387Z</time></trkpt><trkpt lat="44.3635016" lon="8.2820719"><ele>361.66666666666663</ele><time>2026-05-03T09:51:19.387Z</time></trkpt><trkpt lat="44.3634684" lon="8.282322"><ele>361.0</ele><time>2026-05-03T09:51:20.387Z</time></trkpt><trkpt lat="44.3634371" lon="8.2825729"><ele>361.0</ele><time>2026-05-03T09:51:21.387Z</time></trkpt><trkpt lat="44.3634072" lon="8.2828194"><ele>361.0</ele><time>2026-05-03T09:51:22.387Z</time></trkpt><trkpt lat="44.3633757" lon="8.2830615"><ele>361.0</ele><time>2026-05-03T09:51:23.388Z</time></trkpt><trkpt lat="44.363343" lon="8.2833013"><ele>360.0</ele><time>2026-05-03T09:51:24.387Z</time></trkpt><trkpt lat="44.3633125" lon="8.2835375"><ele>359.0</ele><time>2026-05-03T09:51:25.388Z</time></trkpt><trkpt lat="44.363282" lon="8.2837765"><ele>358.0</ele><time>2026-05-03T09:51:26.388Z</time></trkpt><trkpt lat="44.3632524" lon="8.2840148"><ele>358.0</ele><time>2026-05-03T09:51:27.387Z</time></trkpt><trkpt lat="44.3632211" lon="8.2842412"><ele>358.0</ele><time>2026-05-03T09:51:28.387Z</time></trkpt><trkpt lat="44.3631953" lon="8.2844592"><ele>358.0</ele><time>2026-05-03T09:51:29.387Z</time></trkpt><trkpt lat="44.3631691" lon="8.2846574"><ele>358.75</ele><time>2026-05-03T09:51:30.387Z</time></trkpt><trkpt lat="44.363146" lon="8.284836"><ele>359.5</ele><time>2026-05-03T09:51:31.387Z</time></trkpt><trkpt lat="44.3631249" lon="8.2850006"><ele>360.25</ele><time>2026-05-03T09:51:32.387Z</time></trkpt><trkpt lat="44.3631005" lon="8.2851523"><ele>361.0</ele><time>2026-05-03T09:51:33.387Z</time></trkpt><trkpt lat="44.3630644" lon="8.2852797"><ele>360.3333333333333</ele><time>2026-05-03T09:51:34.388Z</time></trkpt><trkpt lat="44.363023" lon="8.2853885"><ele>359.66666666666663</ele><time>2026-05-03T09:51:35.387Z</time></trkpt><trkpt lat="44.3629709" lon="8.2854763"><ele>359.0</ele><time>2026-05-03T09:51:36.387Z</time></trkpt><trkpt lat="44.3629111" lon="8.285536"><ele>358.3333333333333</ele><time>2026-05-03T09:51:37.387Z</time></trkpt><trkpt lat="44.3628588" lon="8.2856043"><ele>357.6666666666667</ele><time>2026-05-03T09:51:38.387Z</time></trkpt><trkpt lat="44.3628312" lon="8.2856931"><ele>357.0</ele><time>2026-05-03T09:51:39.387Z</time></trkpt><trkpt lat="44.3628659" lon="8.2858592"><ele>357.0</ele><time>2026-05-03T09:51:41.387Z</time></trkpt><trkpt lat="44.3628953" lon="8.2859392"><ele>357.0</ele><time>2026-05-03T09:51:42.388Z</time></trkpt><trkpt lat="44.362916" lon="8.2860261"><ele>357.0</ele><time>2026-05-03T09:51:43.387Z</time></trkpt><trkpt lat="44.3629244" lon="8.2861321"><ele>357.0</ele><time>2026-05-03T09:51:44.387Z</time></trkpt><trkpt lat="44.3629224" lon="8.2862544"><ele>357.0</ele><time>2026-05-03T09:51:45.387Z</time></trkpt><trkpt lat="44.362919" lon="8.2863916"><ele>357.0</ele><time>2026-05-03T09:51:46.387Z</time></trkpt><trkpt lat="44.362906" lon="8.2865381"><ele>356.8</ele><time>2026-05-03T09:51:47.387Z</time></trkpt><trkpt lat="44.3628869" lon="8.2866817"><ele>356.6</ele><time>2026-05-03T09:51:48.387Z</time></trkpt><trkpt lat="44.3628702" lon="8.2868285"><ele>356.40000000000003</ele><time>2026-05-03T09:51:49.387Z</time></trkpt><trkpt lat="44.3628502" lon="8.2869707"><ele>356.20000000000005</ele><time>2026-05-03T09:51:50.387Z</time></trkpt><trkpt lat="44.36283" lon="8.2871089"><ele>356.0</ele><time>2026-05-03T09:51:51.387Z</time></trkpt><trkpt lat="44.3628088" lon="8.2872504"><ele>355.4</ele><time>2026-05-03T09:51:52.388Z</time></trkpt><trkpt lat="44.3627877" lon="8.2873924"><ele>354.8</ele><time>2026-05-03T09:51:53.388Z</time></trkpt><trkpt lat="44.3627644" lon="8.2875347"><ele>354.2</ele><time>2026-05-03T09:51:54.387Z</time></trkpt><trkpt lat="44.3627475" lon="8.2876792"><ele>353.59999999999997</ele><time>2026-05-03T09:51:55.387Z</time></trkpt><trkpt lat="44.3627288" lon="8.287822"><ele>353.0</ele><time>2026-05-03T09:51:56.387Z</time></trkpt><trkpt lat="44.3627106" lon="8.2879596"><ele>353.0</ele><time>2026-05-03T09:51:57.387Z</time></trkpt><trkpt lat="44.3626918" lon="8.2880922"><ele>353.0</ele><time>2026-05-03T09:51:58.388Z</time></trkpt><trkpt lat="44.3626721" lon="8.2882247"><ele>353.0</ele><time>2026-05-03T09:51:59.387Z</time></trkpt><trkpt lat="44.3626525" lon="8.2883553"><ele>353.0</ele><time>2026-05-03T09:52:00.387Z</time></trkpt><trkpt lat="44.3626376" lon="8.2884853"><ele>353.0</ele><time>2026-05-03T09:52:01.387Z</time></trkpt><trkpt lat="44.3626168" lon="8.2886161"><ele>352.59999999999997</ele><time>2026-05-03T09:52:02.387Z</time></trkpt><trkpt lat="44.3626082" lon="8.2887464"><ele>352.2</ele><time>2026-05-03T09:52:03.387Z</time></trkpt><trkpt lat="44.3626039" lon="8.2888774"><ele>351.8</ele><time>2026-05-03T09:52:04.388Z</time></trkpt><trkpt lat="44.3626038" lon="8.2890067"><ele>351.4</ele><time>2026-05-03T09:52:05.388Z</time></trkpt><trkpt lat="44.3626196" lon="8.2891332"><ele>351.0</ele><time>2026-05-03T09:52:06.387Z</time></trkpt><trkpt lat="44.3626376" lon="8.2892574"><ele>351.00000000000006</ele><time>2026-05-03T09:52:07.388Z</time></trkpt><trkpt lat="44.3626816" lon="8.2893602"><ele>351.0</ele><time>2026-05-03T09:52:08.387Z</time></trkpt><trkpt lat="44.3627172" lon="8.2894522"><ele>351.0</ele><time>2026-05-03T09:52:09.388Z</time></trkpt><trkpt lat="44.3627623" lon="8.2895387"><ele>351.0</ele><time>2026-05-03T09:52:10.388Z</time></trkpt><trkpt lat="44.3628065" lon="8.2896186"><ele>351.0</ele><time>2026-05-03T09:52:11.387Z</time></trkpt><trkpt lat="44.3628438" lon="8.2896953"><ele>351.00000000000006</ele><time>2026-05-03T09:52:12.387Z</time></trkpt><trkpt lat="44.3628813" lon="8.2897665"><ele>351.0</ele><time>2026-05-03T09:52:13.387Z</time></trkpt><trkpt lat="44.3629468" lon="8.2898873"><ele>350.6</ele><time>2026-05-03T09:52:15.387Z</time></trkpt><trkpt lat="44.3630078" lon="8.2899969"><ele>350.20000000000005</ele><time>2026-05-03T09:52:17.388Z</time></trkpt><trkpt lat="44.3630507" lon="8.2900954"><ele>349.79999999999995</ele><time>2026-05-03T09:52:19.387Z</time></trkpt><trkpt lat="44.3630924" lon="8.2902029"><ele>349.4</ele><time>2026-05-03T09:52:23.387Z</time></trkpt><trkpt lat="44.3631026" lon="8.2903171"><ele>349.0</ele><time>2026-05-03T09:52:25.387Z</time></trkpt><trkpt lat="44.3631457" lon="8.2904467"><ele>349.0</ele><time>2026-05-03T09:52:27.387Z</time></trkpt><trkpt lat="44.363266" lon="8.2904775"><ele>349.0</ele><time>2026-05-03T09:52:29.387Z</time></trkpt><trkpt lat="44.3633375" lon="8.2904782"><ele>349.0</ele><time>2026-05-03T09:52:30.387Z</time></trkpt><trkpt lat="44.3634197" lon="8.2904801"><ele>349.0</ele><time>2026-05-03T09:52:31.387Z</time></trkpt><trkpt lat="44.3635059" lon="8.2904774"><ele>349.0</ele><time>2026-05-03T09:52:32.388Z</time></trkpt><trkpt lat="44.3635988" lon="8.2904698"><ele>349.0</ele><time>2026-05-03T09:52:33.387Z</time></trkpt><trkpt lat="44.3636978" lon="8.2904576"><ele>349.0</ele><time>2026-05-03T09:52:34.387Z</time></trkpt><trkpt lat="44.3637974" lon="8.2904463"><ele>349.0</ele><time>2026-05-03T09:52:35.387Z</time></trkpt><trkpt lat="44.3639005" lon="8.2904326"><ele>349.0</ele><time>2026-05-03T09:52:36.388Z</time></trkpt><trkpt lat="44.3639996" lon="8.2904193"><ele>349.0</ele><time>2026-05-03T09:52:37.387Z</time></trkpt><trkpt lat="44.3640908" lon="8.2904061"><ele>348.5</ele><time>2026-05-03T09:52:38.387Z</time></trkpt><trkpt lat="44.3641776" lon="8.2903901"><ele>348.0</ele><time>2026-05-03T09:52:39.388Z</time></trkpt><trkpt lat="44.3642568" lon="8.2903779"><ele>347.5</ele><time>2026-05-03T09:52:40.387Z</time></trkpt><trkpt lat="44.3643363" lon="8.2903618"><ele>347.0</ele><time>2026-05-03T09:52:41.387Z</time></trkpt><trkpt lat="44.3644182" lon="8.2903462"><ele>346.5</ele><time>2026-05-03T09:52:42.387Z</time></trkpt><trkpt lat="44.3645026" lon="8.2903326"><ele>346.0</ele><time>2026-05-03T09:52:43.387Z</time></trkpt><trkpt lat="44.3645916" lon="8.2903136"><ele>346.0</ele><time>2026-05-03T09:52:44.387Z</time></trkpt><trkpt lat="44.3646822" lon="8.2903022"><ele>346.0</ele><time>2026-05-03T09:52:45.387Z</time></trkpt><trkpt lat="44.3647735" lon="8.2902814"><ele>346.0</ele><time>2026-05-03T09:52:46.387Z</time></trkpt><trkpt lat="44.3648687" lon="8.2902685"><ele>346.0</ele><time>2026-05-03T09:52:47.388Z</time></trkpt><trkpt lat="44.3649636" lon="8.2902517"><ele>346.0</ele><time>2026-05-03T09:52:48.387Z</time></trkpt><trkpt lat="44.3650604" lon="8.2902385"><ele>346.0</ele><time>2026-05-03T09:52:49.387Z</time></trkpt><trkpt lat="44.3651543" lon="8.2902214"><ele>346.0</ele><time>2026-05-03T09:52:50.388Z</time></trkpt><trkpt lat="44.3652495" lon="8.290205"><ele>346.0</ele><time>2026-05-03T09:52:51.388Z</time></trkpt><trkpt lat="44.3653421" lon="8.2901991"><ele>346.0</ele><time>2026-05-03T09:52:52.387Z</time></trkpt><trkpt lat="44.3654348" lon="8.2901816"><ele>346.0</ele><time>2026-05-03T09:52:53.388Z</time></trkpt><trkpt lat="44.3655366" lon="8.2901614"><ele>346.0</ele><time>2026-05-03T09:52:54.387Z</time></trkpt><trkpt lat="44.3656473" lon="8.2901324"><ele>346.0</ele><time>2026-05-03T09:52:55.387Z</time></trkpt><trkpt lat="44.3657578" lon="8.2901132"><ele>346.0</ele><time>2026-05-03T09:52:56.387Z</time></trkpt><trkpt lat="44.3658753" lon="8.2901018"><ele>346.0</ele><time>2026-05-03T09:52:57.388Z</time></trkpt><trkpt lat="44.365993" lon="8.2900872"><ele>346.0</ele><time>2026-05-03T09:52:58.387Z</time></trkpt><trkpt lat="44.366106" lon="8.2900692"><ele>346.0</ele><time>2026-05-03T09:52:59.387Z</time></trkpt><trkpt lat="44.3662194" lon="8.2900486"><ele>346.0</ele><time>2026-05-03T09:53:00.387Z</time></trkpt><trkpt lat="44.366329" lon="8.2900343"><ele>346.0</ele><time>2026-05-03T09:53:01.387Z</time></trkpt><trkpt lat="44.3664394" lon="8.2900165"><ele>346.0</ele><time>2026-05-03T09:53:02.387Z</time></trkpt><trkpt lat="44.3665471" lon="8.29"><ele>345.6</ele><time>2026-05-03T09:53:03.388Z</time></trkpt><trkpt lat="44.3666552" lon="8.2899831"><ele>345.20000000000005</ele><time>2026-05-03T09:53:04.387Z</time></trkpt><trkpt lat="44.366758" lon="8.289965"><ele>344.79999999999995</ele><time>2026-05-03T09:53:05.387Z</time></trkpt><trkpt lat="44.3668652" lon="8.2899478"><ele>344.4</ele><time>2026-05-03T09:53:06.387Z</time></trkpt><trkpt lat="44.3669708" lon="8.2899302"><ele>344.0</ele><time>2026-05-03T09:53:07.387Z</time></trkpt><trkpt lat="44.3670769" lon="8.2899168"><ele>344.0</ele><time>2026-05-03T09:53:08.387Z</time></trkpt><trkpt lat="44.3671855" lon="8.289905"><ele>344.0</ele><time>2026-05-03T09:53:09.387Z</time></trkpt><trkpt lat="44.3672916" lon="8.2898927"><ele>344.0</ele><time>2026-05-03T09:53:10.387Z</time></trkpt><trkpt lat="44.3673817" lon="8.2898739"><ele>344.0</ele><time>2026-05-03T09:53:11.387Z</time></trkpt><trkpt lat="44.3674792" lon="8.2898593"><ele>344.0</ele><time>2026-05-03T09:53:12.387Z</time></trkpt><trkpt lat="44.3675706" lon="8.2898508"><ele>343.6666666666667</ele><time>2026-05-03T09:53:13.388Z</time></trkpt><trkpt lat="44.3676625" lon="8.2898363"><ele>343.33333333333337</ele><time>2026-05-03T09:53:14.388Z</time></trkpt><trkpt lat="44.3677508" lon="8.2898202"><ele>343.0</ele><time>2026-05-03T09:53:15.387Z</time></trkpt><trkpt lat="44.3678323" lon="8.2898007"><ele>342.6666666666667</ele><time>2026-05-03T09:53:16.387Z</time></trkpt><trkpt lat="44.3679123" lon="8.2897839"><ele>342.3333333333333</ele><time>2026-05-03T09:53:17.387Z</time></trkpt><trkpt lat="44.3679888" lon="8.2897668"><ele>342.0</ele><time>2026-05-03T09:53:18.387Z</time></trkpt><trkpt lat="44.3680635" lon="8.2897464"><ele>342.0</ele><time>2026-05-03T09:53:19.387Z</time></trkpt><trkpt lat="44.368142" lon="8.2897471"><ele>342.0</ele><time>2026-05-03T09:53:20.387Z</time></trkpt><trkpt lat="44.3682151" lon="8.2897314"><ele>342.0</ele><time>2026-05-03T09:53:21.387Z</time></trkpt><trkpt lat="44.3682899" lon="8.2897317"><ele>342.0</ele><time>2026-05-03T09:53:22.388Z</time></trkpt><trkpt lat="44.3683713" lon="8.2897523"><ele>342.0</ele><time>2026-05-03T09:53:23.387Z</time></trkpt><trkpt lat="44.3684562" lon="8.289796"><ele>342.0</ele><time>2026-05-03T09:53:24.387Z</time></trkpt><trkpt lat="44.3685364" lon="8.289862"><ele>342.0</ele><time>2026-05-03T09:53:25.387Z</time></trkpt><trkpt lat="44.3686121" lon="8.2899463"><ele>342.0</ele><time>2026-05-03T09:53:26.387Z</time></trkpt><trkpt lat="44.3686719" lon="8.2900466"><ele>342.0</ele><time>2026-05-03T09:53:27.387Z</time></trkpt><trkpt lat="44.3687218" lon="8.2901465"><ele>342.0</ele><time>2026-05-03T09:53:28.387Z</time></trkpt><trkpt lat="44.3687668" lon="8.2902466"><ele>342.0</ele><time>2026-05-03T09:53:29.387Z</time></trkpt><trkpt lat="44.3688093" lon="8.290348"><ele>342.0</ele><time>2026-05-03T09:53:30.387Z</time></trkpt><trkpt lat="44.3688503" lon="8.2904519"><ele>342.20000000000005</ele><time>2026-05-03T09:53:31.387Z</time></trkpt><trkpt lat="44.3689017" lon="8.2905467"><ele>342.4</ele><time>2026-05-03T09:53:32.388Z</time></trkpt><trkpt lat="44.3689626" lon="8.2906375"><ele>342.6</ele><time>2026-05-03T09:53:33.387Z</time></trkpt><trkpt lat="44.369022" lon="8.2907303"><ele>342.79999999999995</ele><time>2026-05-03T09:53:34.387Z</time></trkpt><trkpt lat="44.3690891" lon="8.2908254"><ele>343.0</ele><time>2026-05-03T09:53:35.388Z</time></trkpt><trkpt lat="44.3691686" lon="8.2909171"><ele>343.0</ele><time>2026-05-03T09:53:36.388Z</time></trkpt><trkpt lat="44.3692526" lon="8.2909557"><ele>343.0</ele><time>2026-05-03T09:53:37.387Z</time></trkpt><trkpt lat="44.3693302" lon="8.2910032"><ele>343.0</ele><time>2026-05-03T09:53:38.387Z</time></trkpt><trkpt lat="44.3694107" lon="8.2910313"><ele>343.0</ele><time>2026-05-03T09:53:39.387Z</time></trkpt><trkpt lat="44.3694817" lon="8.2910609"><ele>343.0</ele><time>2026-05-03T09:53:40.388Z</time></trkpt><trkpt lat="44.3695576" lon="8.2910694"><ele>343.0</ele><time>2026-05-03T09:53:41.387Z</time></trkpt><trkpt lat="44.369639" lon="8.2910594"><ele>342.0</ele><time>2026-05-03T09:53:42.387Z</time></trkpt><trkpt lat="44.3697278" lon="8.2910346"><ele>341.0</ele><time>2026-05-03T09:53:43.387Z</time></trkpt><trkpt lat="44.3698193" lon="8.2909971"><ele>340.0</ele><time>2026-05-03T09:53:44.387Z</time></trkpt><trkpt lat="44.3699111" lon="8.2909277"><ele>339.0</ele><time>2026-05-03T09:53:45.388Z</time></trkpt><trkpt lat="44.3699901" lon="8.2908267"><ele>338.0</ele><time>2026-05-03T09:53:46.387Z</time></trkpt><trkpt lat="44.3700589" lon="8.290708"><ele>338.79999999999995</ele><time>2026-05-03T09:53:47.387Z</time></trkpt><trkpt lat="44.370122" lon="8.2905813"><ele>339.6</ele><time>2026-05-03T09:53:48.387Z</time></trkpt><trkpt lat="44.3701857" lon="8.290464"><ele>340.4</ele><time>2026-05-03T09:53:49.387Z</time></trkpt><trkpt lat="44.3702458" lon="8.2903421"><ele>341.20000000000005</ele><time>2026-05-03T09:53:50.387Z</time></trkpt><trkpt lat="44.3703041" lon="8.2902176"><ele>342.0</ele><time>2026-05-03T09:53:51.387Z</time></trkpt><trkpt lat="44.3703665" lon="8.2900886"><ele>342.0</ele><time>2026-05-03T09:53:52.387Z</time></trkpt><trkpt lat="44.3704381" lon="8.2899509"><ele>342.0</ele><time>2026-05-03T09:53:53.387Z</time></trkpt><trkpt lat="44.3705054" lon="8.2898084"><ele>342.0</ele><time>2026-05-03T09:53:54.387Z</time></trkpt><trkpt lat="44.3705706" lon="8.2896597"><ele>342.0</ele><time>2026-05-03T09:53:55.387Z</time></trkpt><trkpt lat="44.3706367" lon="8.2895128"><ele>342.25</ele><time>2026-05-03T09:53:56.387Z</time></trkpt><trkpt lat="44.3707067" lon="8.2893655"><ele>342.5</ele><time>2026-05-03T09:53:57.387Z</time></trkpt><trkpt lat="44.3707753" lon="8.2892075"><ele>342.75</ele><time>2026-05-03T09:53:58.388Z</time></trkpt><trkpt lat="44.3708494" lon="8.2890483"><ele>343.0</ele><time>2026-05-03T09:53:59.387Z</time></trkpt><trkpt lat="44.3709232" lon="8.2888889"><ele>343.0</ele><time>2026-05-03T09:54:00.387Z</time></trkpt><trkpt lat="44.3709948" lon="8.2887283"><ele>343.0</ele><time>2026-05-03T09:54:01.387Z</time></trkpt><trkpt lat="44.3710605" lon="8.2885747"><ele>343.0</ele><time>2026-05-03T09:54:02.387Z</time></trkpt><trkpt lat="44.3711287" lon="8.2884321"><ele>343.0</ele><time>2026-05-03T09:54:03.387Z</time></trkpt><trkpt lat="44.3711979" lon="8.2882866"><ele>343.0</ele><time>2026-05-03T09:54:04.388Z</time></trkpt><trkpt lat="44.3712651" lon="8.2881395"><ele>343.0</ele><time>2026-05-03T09:54:05.388Z</time></trkpt><trkpt lat="44.3713406" lon="8.2879731"><ele>343.0</ele><time>2026-05-03T09:54:06.388Z</time></trkpt><trkpt lat="44.3714259" lon="8.2877762"><ele>343.0</ele><time>2026-05-03T09:54:07.387Z</time></trkpt><trkpt lat="44.3715258" lon="8.287566"><ele>342.66666666666663</ele><time>2026-05-03T09:54:08.387Z</time></trkpt><trkpt lat="44.3716315" lon="8.2873583"><ele>342.3333333333333</ele><time>2026-05-03T09:54:09.387Z</time></trkpt><trkpt lat="44.3717345" lon="8.2871544"><ele>342.0</ele><time>2026-05-03T09:54:10.387Z</time></trkpt><trkpt lat="44.3718306" lon="8.2869509"><ele>342.0</ele><time>2026-05-03T09:54:11.387Z</time></trkpt><trkpt lat="44.3719201" lon="8.286763"><ele>342.0</ele><time>2026-05-03T09:54:12.388Z</time></trkpt><trkpt lat="44.3720026" lon="8.2865827"><ele>342.0</ele><time>2026-05-03T09:54:13.387Z</time></trkpt><trkpt lat="44.3720823" lon="8.2864086"><ele>342.75</ele><time>2026-05-03T09:54:14.387Z</time></trkpt><trkpt lat="44.3721516" lon="8.2862499"><ele>343.5</ele><time>2026-05-03T09:54:15.387Z</time></trkpt><trkpt lat="44.3722235" lon="8.2860984"><ele>344.25</ele><time>2026-05-03T09:54:16.387Z</time></trkpt><trkpt lat="44.3722931" lon="8.2859575"><ele>345.0</ele><time>2026-05-03T09:54:17.387Z</time></trkpt><trkpt lat="44.3723654" lon="8.2858075"><ele>343.5</ele><time>2026-05-03T09:54:18.387Z</time></trkpt><trkpt lat="44.3724423" lon="8.2856495"><ele>342.0</ele><time>2026-05-03T09:54:19.388Z</time></trkpt><trkpt lat="44.3725148" lon="8.2854988"><ele>340.5</ele><time>2026-05-03T09:54:20.387Z</time></trkpt><trkpt lat="44.3725826" lon="8.2853688"><ele>339.0</ele><time>2026-05-03T09:54:21.387Z</time></trkpt><trkpt lat="44.3726501" lon="8.2852722"><ele>339.0</ele><time>2026-05-03T09:54:22.388Z</time></trkpt><trkpt lat="44.3727141" lon="8.2852133"><ele>339.0</ele><time>2026-05-03T09:54:23.388Z</time></trkpt><trkpt lat="44.3727811" lon="8.2851959"><ele>339.0</ele><time>2026-05-03T09:54:24.387Z</time></trkpt><trkpt lat="44.3728474" lon="8.2852284"><ele>339.0</ele><time>2026-05-03T09:54:25.387Z</time></trkpt><trkpt lat="44.3729148" lon="8.2852763"><ele>339.0</ele><time>2026-05-03T09:54:26.388Z</time></trkpt><trkpt lat="44.372995" lon="8.2852782"><ele>339.0</ele><time>2026-05-03T09:54:27.387Z</time></trkpt><trkpt lat="44.3730677" lon="8.2852315"><ele>339.0</ele><time>2026-05-03T09:54:28.387Z</time></trkpt><trkpt lat="44.3731285" lon="8.2851399"><ele>339.0</ele><time>2026-05-03T09:54:29.387Z</time></trkpt><trkpt lat="44.3731536" lon="8.2850146"><ele>339.0</ele><time>2026-05-03T09:54:30.387Z</time></trkpt><trkpt lat="44.3731544" lon="8.2848831"><ele>339.0</ele><time>2026-05-03T09:54:31.387Z</time></trkpt><trkpt lat="44.3731772" lon="8.2847572"><ele>339.0</ele><time>2026-05-03T09:54:32.387Z</time></trkpt><trkpt lat="44.373239" lon="8.2846439"><ele>339.25</ele><time>2026-05-03T09:54:33.387Z</time></trkpt><trkpt lat="44.3733298" lon="8.2845397"><ele>339.5</ele><time>2026-05-03T09:54:34.388Z</time></trkpt><trkpt lat="44.3734381" lon="8.2844412"><ele>339.75</ele><time>2026-05-03T09:54:35.387Z</time></trkpt><trkpt lat="44.3735557" lon="8.2843392"><ele>340.0</ele><time>2026-05-03T09:54:36.387Z</time></trkpt><trkpt lat="44.3736821" lon="8.2842406"><ele>340.0</ele><time>2026-05-03T09:54:37.387Z</time></trkpt><trkpt lat="44.3738124" lon="8.2841329"><ele>340.0</ele><time>2026-05-03T09:54:38.388Z</time></trkpt><trkpt lat="44.3739445" lon="8.284032"><ele>340.0</ele><time>2026-05-03T09:54:39.387Z</time></trkpt><trkpt lat="44.3740803" lon="8.2839285"><ele>339.3333333333333</ele><time>2026-05-03T09:54:40.387Z</time></trkpt><trkpt lat="44.3742151" lon="8.2838292"><ele>338.6666666666667</ele><time>2026-05-03T09:54:41.387Z</time></trkpt><trkpt lat="44.3743506" lon="8.2837229"><ele>338.0</ele><time>2026-05-03T09:54:42.387Z</time></trkpt><trkpt lat="44.3744851" lon="8.2836231"><ele>338.0</ele><time>2026-05-03T09:54:43.387Z</time></trkpt><trkpt lat="44.3746168" lon="8.2835231"><ele>338.0</ele><time>2026-05-03T09:54:44.388Z</time></trkpt><trkpt lat="44.3747478" lon="8.2834196"><ele>338.0</ele><time>2026-05-03T09:54:45.387Z</time></trkpt><trkpt lat="44.3748808" lon="8.2833212"><ele>337.75</ele><time>2026-05-03T09:54:46.387Z</time></trkpt><trkpt lat="44.375014" lon="8.2832226"><ele>337.5</ele><time>2026-05-03T09:54:47.387Z</time></trkpt><trkpt lat="44.3751458" lon="8.2831192"><ele>337.25</ele><time>2026-05-03T09:54:48.387Z</time></trkpt><trkpt lat="44.3752751" lon="8.2830222"><ele>337.0</ele><time>2026-05-03T09:54:49.387Z</time></trkpt><trkpt lat="44.3754078" lon="8.2829211"><ele>336.75</ele><time>2026-05-03T09:54:50.387Z</time></trkpt><trkpt lat="44.3755357" lon="8.2828185"><ele>336.5</ele><time>2026-05-03T09:54:51.387Z</time></trkpt><trkpt lat="44.3756655" lon="8.2827138"><ele>336.25</ele><time>2026-05-03T09:54:52.387Z</time></trkpt><trkpt lat="44.3757979" lon="8.2826102"><ele>336.0</ele><time>2026-05-03T09:54:53.387Z</time></trkpt><trkpt lat="44.3759292" lon="8.2825123"><ele>336.0</ele><time>2026-05-03T09:54:54.387Z</time></trkpt><trkpt lat="44.3760701" lon="8.2824327"><ele>336.0</ele><time>2026-05-03T09:54:55.387Z</time></trkpt><trkpt lat="44.3762128" lon="8.2823773"><ele>336.0</ele><time>2026-05-03T09:54:56.387Z</time></trkpt><trkpt lat="44.3763597" lon="8.2823482"><ele>336.0</ele><time>2026-05-03T09:54:57.388Z</time></trkpt><trkpt lat="44.3765096" lon="8.2823464"><ele>336.0</ele><time>2026-05-03T09:54:58.387Z</time></trkpt><trkpt lat="44.3766567" lon="8.2823512"><ele>336.0</ele><time>2026-05-03T09:54:59.387Z</time></trkpt><trkpt lat="44.3768004" lon="8.2823595"><ele>336.0</ele><time>2026-05-03T09:55:00.387Z</time></trkpt><trkpt lat="44.376946" lon="8.2823688"><ele>336.0</ele><time>2026-05-03T09:55:01.387Z</time></trkpt><trkpt lat="44.3770842" lon="8.2823793"><ele>336.0</ele><time>2026-05-03T09:55:02.388Z</time></trkpt><trkpt lat="44.3772262" lon="8.2823932"><ele>336.0</ele><time>2026-05-03T09:55:03.387Z</time></trkpt><trkpt lat="44.3773673" lon="8.2824073"><ele>336.0</ele><time>2026-05-03T09:55:04.387Z</time></trkpt><trkpt lat="44.3775133" lon="8.2824219"><ele>336.0</ele><time>2026-05-03T09:55:05.387Z</time></trkpt><trkpt lat="44.3776595" lon="8.282434"><ele>336.0</ele><time>2026-05-03T09:55:06.387Z</time></trkpt><trkpt lat="44.3777996" lon="8.2824519"><ele>336.0</ele><time>2026-05-03T09:55:07.388Z</time></trkpt><trkpt lat="44.3779404" lon="8.2824655"><ele>336.0</ele><time>2026-05-03T09:55:08.387Z</time></trkpt><trkpt lat="44.3780801" lon="8.2824798"><ele>336.0</ele><time>2026-05-03T09:55:09.387Z</time></trkpt><trkpt lat="44.3782242" lon="8.2824996"><ele>336.25</ele><time>2026-05-03T09:55:10.388Z</time></trkpt><trkpt lat="44.3783669" lon="8.2825134"><ele>336.5</ele><time>2026-05-03T09:55:11.387Z</time></trkpt><trkpt lat="44.3785117" lon="8.2825344"><ele>336.75</ele><time>2026-05-03T09:55:12.387Z</time></trkpt><trkpt lat="44.3786604" lon="8.2825534"><ele>337.0</ele><time>2026-05-03T09:55:13.387Z</time></trkpt><trkpt lat="44.3788104" lon="8.2825721"><ele>336.5</ele><time>2026-05-03T09:55:14.387Z</time></trkpt><trkpt lat="44.3789574" lon="8.2825903"><ele>336.0</ele><time>2026-05-03T09:55:15.387Z</time></trkpt><trkpt lat="44.3791026" lon="8.2826085"><ele>335.5</ele><time>2026-05-03T09:55:16.387Z</time></trkpt><trkpt lat="44.3792491" lon="8.2826255"><ele>335.0</ele><time>2026-05-03T09:55:17.387Z</time></trkpt><trkpt lat="44.3793931" lon="8.282638"><ele>335.0</ele><time>2026-05-03T09:55:18.387Z</time></trkpt><trkpt lat="44.3795372" lon="8.2826519"><ele>335.0</ele><time>2026-05-03T09:55:19.387Z</time></trkpt><trkpt lat="44.3796754" lon="8.2826607"><ele>335.0</ele><time>2026-05-03T09:55:20.387Z</time></trkpt><trkpt lat="44.3798181" lon="8.2826639"><ele>335.0</ele><time>2026-05-03T09:55:21.387Z</time></trkpt><trkpt lat="44.3799584" lon="8.2826589"><ele>334.75</ele><time>2026-05-03T09:55:22.387Z</time></trkpt><trkpt lat="44.380098" lon="8.2826399"><ele>334.5</ele><time>2026-05-03T09:55:23.387Z</time></trkpt><trkpt lat="44.3802391" lon="8.2826121"><ele>334.25</ele><time>2026-05-03T09:55:24.387Z</time></trkpt><trkpt lat="44.3803825" lon="8.2825905"><ele>334.0</ele><time>2026-05-03T09:55:25.388Z</time></trkpt><trkpt lat="44.3805297" lon="8.2825689"><ele>335.0</ele><time>2026-05-03T09:55:26.387Z</time></trkpt><trkpt lat="44.3806806" lon="8.2825481"><ele>336.0</ele><time>2026-05-03T09:55:27.388Z</time></trkpt><trkpt lat="44.3808315" lon="8.2825288"><ele>337.0</ele><time>2026-05-03T09:55:28.387Z</time></trkpt><trkpt lat="44.3809854" lon="8.2825127"><ele>337.0</ele><time>2026-05-03T09:55:29.388Z</time></trkpt><trkpt lat="44.3811378" lon="8.2824977"><ele>337.0</ele><time>2026-05-03T09:55:30.388Z</time></trkpt><trkpt lat="44.3812887" lon="8.2824906"><ele>337.0</ele><time>2026-05-03T09:55:31.387Z</time></trkpt><trkpt lat="44.3814351" lon="8.2824945"><ele>337.5</ele><time>2026-05-03T09:55:32.387Z</time></trkpt><trkpt lat="44.3815833" lon="8.2825065"><ele>338.0</ele><time>2026-05-03T09:55:33.387Z</time></trkpt><trkpt lat="44.3817281" lon="8.282522"><ele>338.5</ele><time>2026-05-03T09:55:34.388Z</time></trkpt><trkpt lat="44.3818727" lon="8.2825343"><ele>339.0</ele><time>2026-05-03T09:55:35.388Z</time></trkpt><trkpt lat="44.3820213" lon="8.2825498"><ele>339.0</ele><time>2026-05-03T09:55:36.387Z</time></trkpt><trkpt lat="44.3821693" lon="8.2825702"><ele>339.0</ele><time>2026-05-03T09:55:37.387Z</time></trkpt><trkpt lat="44.3823158" lon="8.2825824"><ele>339.0</ele><time>2026-05-03T09:55:38.387Z</time></trkpt><trkpt lat="44.3824672" lon="8.2825987"><ele>339.0</ele><time>2026-05-03T09:55:39.388Z</time></trkpt><trkpt lat="44.3826131" lon="8.2826123"><ele>338.0</ele><time>2026-05-03T09:55:40.387Z</time></trkpt><trkpt lat="44.3827616" lon="8.2826286"><ele>337.0</ele><time>2026-05-03T09:55:41.388Z</time></trkpt><trkpt lat="44.3829184" lon="8.28265"><ele>336.0</ele><time>2026-05-03T09:55:42.387Z</time></trkpt><trkpt lat="44.3830701" lon="8.282668"><ele>334.6666666666667</ele><time>2026-05-03T09:55:43.387Z</time></trkpt><trkpt lat="44.3832249" lon="8.2826898"><ele>333.33333333333337</ele><time>2026-05-03T09:55:44.387Z</time></trkpt><trkpt lat="44.3833828" lon="8.282706"><ele>332.0</ele><time>2026-05-03T09:55:45.387Z</time></trkpt><trkpt lat="44.3835435" lon="8.2827241"><ele>332.0</ele><time>2026-05-03T09:55:46.387Z</time></trkpt><trkpt lat="44.3837027" lon="8.2827371"><ele>332.0</ele><time>2026-05-03T09:55:47.387Z</time></trkpt><trkpt lat="44.3838659" lon="8.2827523"><ele>332.0</ele><time>2026-05-03T09:55:48.387Z</time></trkpt><trkpt lat="44.384024" lon="8.2827644"><ele>331.6666666666667</ele><time>2026-05-03T09:55:49.387Z</time></trkpt><trkpt lat="44.3841865" lon="8.2827813"><ele>331.3333333333333</ele><time>2026-05-03T09:55:50.387Z</time></trkpt><trkpt lat="44.3843518" lon="8.2827989"><ele>331.0</ele><time>2026-05-03T09:55:51.387Z</time></trkpt><trkpt lat="44.3845205" lon="8.2828147"><ele>330.3333333333333</ele><time>2026-05-03T09:55:52.387Z</time></trkpt><trkpt lat="44.3846803" lon="8.2828282"><ele>329.6666666666667</ele><time>2026-05-03T09:55:53.387Z</time></trkpt><trkpt lat="44.3848426" lon="8.2828425"><ele>329.0</ele><time>2026-05-03T09:55:54.387Z</time></trkpt><trkpt lat="44.3850054" lon="8.2828561"><ele>329.0</ele><time>2026-05-03T09:55:55.388Z</time></trkpt><trkpt lat="44.3851667" lon="8.2828716"><ele>329.0</ele><time>2026-05-03T09:55:56.387Z</time></trkpt><trkpt lat="44.3853276" lon="8.282885"><ele>329.0</ele><time>2026-05-03T09:55:57.387Z</time></trkpt><trkpt lat="44.3854887" lon="8.2828999"><ele>330.33333333333337</ele><time>2026-05-03T09:55:58.387Z</time></trkpt><trkpt lat="44.3856505" lon="8.2829091"><ele>331.6666666666667</ele><time>2026-05-03T09:55:59.387Z</time></trkpt><trkpt lat="44.3858137" lon="8.2829002"><ele>333.0</ele><time>2026-05-03T09:56:00.387Z</time></trkpt><trkpt lat="44.3859746" lon="8.2828651"><ele>333.0</ele><time>2026-05-03T09:56:01.388Z</time></trkpt><trkpt lat="44.3861343" lon="8.2828085"><ele>333.0</ele><time>2026-05-03T09:56:02.387Z</time></trkpt><trkpt lat="44.3862931" lon="8.2827407"><ele>333.0</ele><time>2026-05-03T09:56:03.387Z</time></trkpt><trkpt lat="44.3864513" lon="8.2826632"><ele>334.3333333333333</ele><time>2026-05-03T09:56:04.387Z</time></trkpt><trkpt lat="44.3866069" lon="8.2825821"><ele>335.66666666666663</ele><time>2026-05-03T09:56:05.387Z</time></trkpt><trkpt lat="44.386753" lon="8.2824991"><ele>337.0</ele><time>2026-05-03T09:56:06.387Z</time></trkpt><trkpt lat="44.386897" lon="8.2824183"><ele>337.0</ele><time>2026-05-03T09:56:07.387Z</time></trkpt><trkpt lat="44.3870382" lon="8.2823366"><ele>337.0</ele><time>2026-05-03T09:56:08.387Z</time></trkpt><trkpt lat="44.3871804" lon="8.2822595"><ele>337.0</ele><time>2026-05-03T09:56:09.387Z</time></trkpt><trkpt lat="44.3873255" lon="8.2821795"><ele>335.66666666666663</ele><time>2026-05-03T09:56:10.387Z</time></trkpt><trkpt lat="44.3874643" lon="8.2820977"><ele>334.3333333333333</ele><time>2026-05-03T09:56:11.388Z</time></trkpt><trkpt lat="44.3876048" lon="8.28202"><ele>333.0</ele><time>2026-05-03T09:56:12.387Z</time></trkpt><trkpt lat="44.3877472" lon="8.2819428"><ele>333.0</ele><time>2026-05-03T09:56:13.387Z</time></trkpt><trkpt lat="44.3878918" lon="8.2818656"><ele>333.0</ele><time>2026-05-03T09:56:14.387Z</time></trkpt><trkpt lat="44.3880305" lon="8.2817882"><ele>333.0</ele><time>2026-05-03T09:56:15.388Z</time></trkpt><trkpt lat="44.3881703" lon="8.281709"><ele>332.6666666666667</ele><time>2026-05-03T09:56:16.387Z</time></trkpt><trkpt lat="44.3883113" lon="8.2816325"><ele>332.33333333333337</ele><time>2026-05-03T09:56:17.387Z</time></trkpt><trkpt lat="44.3884512" lon="8.2815523"><ele>332.0</ele><time>2026-05-03T09:56:18.388Z</time></trkpt><trkpt lat="44.3885866" lon="8.2814708"><ele>331.5</ele><time>2026-05-03T09:56:19.387Z</time></trkpt><trkpt lat="44.3887202" lon="8.2813999"><ele>331.0</ele><time>2026-05-03T09:56:20.387Z</time></trkpt><trkpt lat="44.3888584" lon="8.2813301"><ele>330.5</ele><time>2026-05-03T09:56:21.387Z</time></trkpt><trkpt lat="44.3889915" lon="8.2812613"><ele>330.0</ele><time>2026-05-03T09:56:22.387Z</time></trkpt><trkpt lat="44.389127" lon="8.2812001"><ele>330.0</ele><time>2026-05-03T09:56:23.387Z</time></trkpt><trkpt lat="44.3892647" lon="8.2811559"><ele>330.0</ele><time>2026-05-03T09:56:24.387Z</time></trkpt><trkpt lat="44.3893968" lon="8.281121"><ele>330.0</ele><time>2026-05-03T09:56:25.388Z</time></trkpt><trkpt lat="44.3895291" lon="8.2810969"><ele>330.0</ele><time>2026-05-03T09:56:26.387Z</time></trkpt><trkpt lat="44.3896634" lon="8.2810797"><ele>330.75</ele><time>2026-05-03T09:56:27.388Z</time></trkpt><trkpt lat="44.3898031" lon="8.2810724"><ele>331.5</ele><time>2026-05-03T09:56:28.388Z</time></trkpt><trkpt lat="44.3899421" lon="8.281074"><ele>332.25</ele><time>2026-05-03T09:56:29.387Z</time></trkpt><trkpt lat="44.3900811" lon="8.2810842"><ele>333.0</ele><time>2026-05-03T09:56:30.387Z</time></trkpt><trkpt lat="44.3902258" lon="8.2811069"><ele>333.0</ele><time>2026-05-03T09:56:31.387Z</time></trkpt><trkpt lat="44.3903696" lon="8.2811355"><ele>333.0</ele><time>2026-05-03T09:56:32.387Z</time></trkpt><trkpt lat="44.390515" lon="8.281173"><ele>333.0</ele><time>2026-05-03T09:56:33.388Z</time></trkpt><trkpt lat="44.3906649" lon="8.2812144"><ele>333.0</ele><time>2026-05-03T09:56:34.387Z</time></trkpt><trkpt lat="44.3908157" lon="8.2812603"><ele>332.5</ele><time>2026-05-03T09:56:35.388Z</time></trkpt><trkpt lat="44.3909655" lon="8.2813065"><ele>332.0</ele><time>2026-05-03T09:56:36.388Z</time></trkpt><trkpt lat="44.3911064" lon="8.2813464"><ele>331.5</ele><time>2026-05-03T09:56:37.387Z</time></trkpt><trkpt lat="44.3912481" lon="8.2813904"><ele>331.0</ele><time>2026-05-03T09:56:38.387Z</time></trkpt><trkpt lat="44.3913936" lon="8.2814403"><ele>331.0</ele><time>2026-05-03T09:56:39.387Z</time></trkpt><trkpt lat="44.3915366" lon="8.2814833"><ele>331.0</ele><time>2026-05-03T09:56:40.387Z</time></trkpt><trkpt lat="44.3916809" lon="8.2815275"><ele>331.0</ele><time>2026-05-03T09:56:41.388Z</time></trkpt><trkpt lat="44.3918251" lon="8.2815702"><ele>331.0</ele><time>2026-05-03T09:56:42.387Z</time></trkpt><trkpt lat="44.391968" lon="8.2816124"><ele>331.0</ele><time>2026-05-03T09:56:43.387Z</time></trkpt><trkpt lat="44.3921099" lon="8.2816529"><ele>331.0</ele><time>2026-05-03T09:56:44.387Z</time></trkpt><trkpt lat="44.392252" lon="8.2816913"><ele>331.0</ele><time>2026-05-03T09:56:45.387Z</time></trkpt><trkpt lat="44.3923967" lon="8.2817327"><ele>331.0</ele><time>2026-05-03T09:56:46.387Z</time></trkpt><trkpt lat="44.3925403" lon="8.281774"><ele>329.66666666666663</ele><time>2026-05-03T09:56:47.388Z</time></trkpt><trkpt lat="44.3926851" lon="8.2818133"><ele>328.3333333333333</ele><time>2026-05-03T09:56:48.387Z</time></trkpt><trkpt lat="44.3928357" lon="8.2818531"><ele>327.0</ele><time>2026-05-03T09:56:49.387Z</time></trkpt><trkpt lat="44.3929887" lon="8.2818984"><ele>328.6666666666667</ele><time>2026-05-03T09:56:50.388Z</time></trkpt><trkpt lat="44.3931502" lon="8.2819449"><ele>330.33333333333337</ele><time>2026-05-03T09:56:51.387Z</time></trkpt><trkpt lat="44.393318" lon="8.2819945"><ele>332.0</ele><time>2026-05-03T09:56:52.388Z</time></trkpt><trkpt lat="44.393489" lon="8.2820488"><ele>332.0</ele><time>2026-05-03T09:56:53.387Z</time></trkpt><trkpt lat="44.3936551" lon="8.2820977"><ele>332.0</ele><time>2026-05-03T09:56:54.388Z</time></trkpt><trkpt lat="44.3938244" lon="8.282145"><ele>332.0</ele><time>2026-05-03T09:56:55.387Z</time></trkpt><trkpt lat="44.3939909" lon="8.2821862"><ele>332.6666666666667</ele><time>2026-05-03T09:56:56.387Z</time></trkpt><trkpt lat="44.394154" lon="8.2822308"><ele>333.3333333333333</ele><time>2026-05-03T09:56:57.387Z</time></trkpt><trkpt lat="44.3943169" lon="8.2822747"><ele>334.0</ele><time>2026-05-03T09:56:58.387Z</time></trkpt><trkpt lat="44.3944808" lon="8.2823203"><ele>334.3333333333333</ele><time>2026-05-03T09:56:59.387Z</time></trkpt><trkpt lat="44.3946383" lon="8.2823659"><ele>334.6666666666667</ele><time>2026-05-03T09:57:00.388Z</time></trkpt><trkpt lat="44.3947925" lon="8.2824066"><ele>335.0</ele><time>2026-05-03T09:57:01.387Z</time></trkpt><trkpt lat="44.3949477" lon="8.282455"><ele>335.0</ele><time>2026-05-03T09:57:02.387Z</time></trkpt><trkpt lat="44.395102" lon="8.2824991"><ele>335.0</ele><time>2026-05-03T09:57:03.387Z</time></trkpt><trkpt lat="44.3952543" lon="8.2825404"><ele>335.0</ele><time>2026-05-03T09:57:04.387Z</time></trkpt><trkpt lat="44.395409" lon="8.2825865"><ele>335.33333333333337</ele><time>2026-05-03T09:57:05.387Z</time></trkpt><trkpt lat="44.3955645" lon="8.2826328"><ele>335.6666666666667</ele><time>2026-05-03T09:57:06.387Z</time></trkpt><trkpt lat="44.395716" lon="8.2826804"><ele>336.0</ele><time>2026-05-03T09:57:07.387Z</time></trkpt><trkpt lat="44.3958708" lon="8.2827249"><ele>336.0</ele><time>2026-05-03T09:57:08.387Z</time></trkpt><trkpt lat="44.3960253" lon="8.282774"><ele>336.0</ele><time>2026-05-03T09:57:09.387Z</time></trkpt><trkpt lat="44.3961752" lon="8.2828195"><ele>336.0</ele><time>2026-05-03T09:57:10.387Z</time></trkpt><trkpt lat="44.3963254" lon="8.2828641"><ele>335.6666666666667</ele><time>2026-05-03T09:57:11.387Z</time></trkpt><trkpt lat="44.3964787" lon="8.2829097"><ele>335.33333333333337</ele><time>2026-05-03T09:57:12.388Z</time></trkpt><trkpt lat="44.3966304" lon="8.2829474"><ele>335.0</ele><time>2026-05-03T09:57:13.387Z</time></trkpt><trkpt lat="44.3967809" lon="8.2829905"><ele>335.0</ele><time>2026-05-03T09:57:14.387Z</time></trkpt><trkpt lat="44.3969352" lon="8.2830366"><ele>335.0</ele><time>2026-05-03T09:57:15.387Z</time></trkpt><trkpt lat="44.3970867" lon="8.2830814"><ele>335.0</ele><time>2026-05-03T09:57:16.387Z</time></trkpt><trkpt lat="44.3972395" lon="8.2831271"><ele>335.6666666666667</ele><time>2026-05-03T09:57:17.387Z</time></trkpt><trkpt lat="44.397397" lon="8.2831758"><ele>336.3333333333333</ele><time>2026-05-03T09:57:18.387Z</time></trkpt><trkpt lat="44.3975519" lon="8.2832263"><ele>337.0</ele><time>2026-05-03T09:57:19.387Z</time></trkpt><trkpt lat="44.3977048" lon="8.2832713"><ele>337.0</ele><time>2026-05-03T09:57:20.388Z</time></trkpt><trkpt lat="44.3978524" lon="8.2833148"><ele>337.0</ele><time>2026-05-03T09:57:21.387Z</time></trkpt><trkpt lat="44.3980017" lon="8.2833529"><ele>337.0</ele><time>2026-05-03T09:57:22.387Z</time></trkpt><trkpt lat="44.3981552" lon="8.2833943"><ele>337.3333333333333</ele><time>2026-05-03T09:57:23.388Z</time></trkpt><trkpt lat="44.3983043" lon="8.2834379"><ele>337.6666666666667</ele><time>2026-05-03T09:57:24.387Z</time></trkpt><trkpt lat="44.3984541" lon="8.2834814"><ele>338.0</ele><time>2026-05-03T09:57:25.388Z</time></trkpt><trkpt lat="44.3986039" lon="8.2835257"><ele>338.0</ele><time>2026-05-03T09:57:26.387Z</time></trkpt><trkpt lat="44.3987575" lon="8.2835681"><ele>338.0</ele><time>2026-05-03T09:57:27.388Z</time></trkpt><trkpt lat="44.398914" lon="8.2836157"><ele>338.0</ele><time>2026-05-03T09:57:28.387Z</time></trkpt><trkpt lat="44.3990685" lon="8.2836615"><ele>338.6666666666667</ele><time>2026-05-03T09:57:29.388Z</time></trkpt><trkpt lat="44.399232" lon="8.2837112"><ele>339.3333333333333</ele><time>2026-05-03T09:57:30.387Z</time></trkpt><trkpt lat="44.3993963" lon="8.2837605"><ele>340.0</ele><time>2026-05-03T09:57:31.388Z</time></trkpt><trkpt lat="44.3995633" lon="8.283807"><ele>341.0</ele><time>2026-05-03T09:57:32.387Z</time></trkpt><trkpt lat="44.3997333" lon="8.2838545"><ele>342.0</ele><time>2026-05-03T09:57:33.387Z</time></trkpt><trkpt lat="44.3999107" lon="8.2839054"><ele>343.0</ele><time>2026-05-03T09:57:34.388Z</time></trkpt><trkpt lat="44.4000936" lon="8.2839496"><ele>344.3333333333333</ele><time>2026-05-03T09:57:35.387Z</time></trkpt><trkpt lat="44.4002794" lon="8.2839898"><ele>345.6666666666667</ele><time>2026-05-03T09:57:36.387Z</time></trkpt><trkpt lat="44.4004616" lon="8.2840187"><ele>347.0</ele><time>2026-05-03T09:57:37.388Z</time></trkpt><trkpt lat="44.4006449" lon="8.2840474"><ele>347.0</ele><time>2026-05-03T09:57:38.387Z</time></trkpt><trkpt lat="44.4008283" lon="8.2840574"><ele>347.0</ele><time>2026-05-03T09:57:39.387Z</time></trkpt><trkpt lat="44.4010117" lon="8.2840734"><ele>347.0</ele><time>2026-05-03T09:57:40.387Z</time></trkpt><trkpt lat="44.4011988" lon="8.2840752"><ele>345.0</ele><time>2026-05-03T09:57:41.387Z</time></trkpt><trkpt lat="44.401387" lon="8.2840802"><ele>343.0</ele><time>2026-05-03T09:57:42.387Z</time></trkpt><trkpt lat="44.4015719" lon="8.2840785"><ele>341.0</ele><time>2026-05-03T09:57:43.387Z</time></trkpt><trkpt lat="44.4017596" lon="8.2840785"><ele>341.0</ele><time>2026-05-03T09:57:44.387Z</time></trkpt><trkpt lat="44.4019444" lon="8.2840833"><ele>341.0</ele><time>2026-05-03T09:57:45.388Z</time></trkpt><trkpt lat="44.4021266" lon="8.28408"><ele>341.0</ele><time>2026-05-03T09:57:46.387Z</time></trkpt><trkpt lat="44.4023058" lon="8.2840809"><ele>339.33333333333337</ele><time>2026-05-03T09:57:47.387Z</time></trkpt><trkpt lat="44.402486" lon="8.2840892"><ele>337.6666666666667</ele><time>2026-05-03T09:57:48.387Z</time></trkpt><trkpt lat="44.4026575" lon="8.2840854"><ele>336.0</ele><time>2026-05-03T09:57:49.387Z</time></trkpt><trkpt lat="44.402823" lon="8.2840879"><ele>336.0</ele><time>2026-05-03T09:57:50.387Z</time></trkpt><trkpt lat="44.4029868" lon="8.2840909"><ele>336.0</ele><time>2026-05-03T09:57:51.388Z</time></trkpt><trkpt lat="44.4031509" lon="8.2840965"><ele>336.0</ele><time>2026-05-03T09:57:52.387Z</time></trkpt><trkpt lat="44.4033093" lon="8.2840954"><ele>335.3333333333333</ele><time>2026-05-03T09:57:53.387Z</time></trkpt><trkpt lat="44.4034699" lon="8.2841024"><ele>334.66666666666663</ele><time>2026-05-03T09:57:54.387Z</time></trkpt><trkpt lat="44.4036312" lon="8.2841043"><ele>334.0</ele><time>2026-05-03T09:57:55.387Z</time></trkpt><trkpt lat="44.4037958" lon="8.2841099"><ele>334.3333333333333</ele><time>2026-05-03T09:57:56.387Z</time></trkpt><trkpt lat="44.4039613" lon="8.2841129"><ele>334.6666666666667</ele><time>2026-05-03T09:57:57.387Z</time></trkpt><trkpt lat="44.4041281" lon="8.2841178"><ele>335.0</ele><time>2026-05-03T09:57:58.387Z</time></trkpt><trkpt lat="44.4042979" lon="8.2841141"><ele>335.0</ele><time>2026-05-03T09:57:59.388Z</time></trkpt><trkpt lat="44.4044665" lon="8.2841147"><ele>335.0</ele><time>2026-05-03T09:58:00.387Z</time></trkpt><trkpt lat="44.4046349" lon="8.2841146"><ele>335.0</ele><time>2026-05-03T09:58:01.388Z</time></trkpt><trkpt lat="44.4047932" lon="8.2841144"><ele>334.6</ele><time>2026-05-03T09:58:02.387Z</time></trkpt><trkpt lat="44.4049319" lon="8.2841199"><ele>334.2</ele><time>2026-05-03T09:58:03.388Z</time></trkpt><trkpt lat="44.4050344" lon="8.2841209"><ele>333.79999999999995</ele><time>2026-05-03T09:58:04.388Z</time></trkpt><trkpt lat="44.4051172" lon="8.2841244"><ele>333.4</ele><time>2026-05-03T09:58:05.388Z</time></trkpt><trkpt lat="44.405197" lon="8.2841231"><ele>333.0</ele><time>2026-05-03T09:58:06.387Z</time></trkpt><trkpt lat="44.4052833" lon="8.2841284"><ele>333.0</ele><time>2026-05-03T09:58:07.388Z</time></trkpt><trkpt lat="44.4053645" lon="8.2841259"><ele>333.0</ele><time>2026-05-03T09:58:08.387Z</time></trkpt><trkpt lat="44.40545" lon="8.2841256"><ele>333.0</ele><time>2026-05-03T09:58:09.387Z</time></trkpt><trkpt lat="44.4055487" lon="8.284126"><ele>333.0</ele><time>2026-05-03T09:58:10.387Z</time></trkpt><trkpt lat="44.4056548" lon="8.2841263"><ele>333.0</ele><time>2026-05-03T09:58:11.388Z</time></trkpt><trkpt lat="44.4057687" lon="8.2841282"><ele>332.75</ele><time>2026-05-03T09:58:12.387Z</time></trkpt><trkpt lat="44.4058919" lon="8.284131"><ele>332.5</ele><time>2026-05-03T09:58:13.387Z</time></trkpt><trkpt lat="44.4060232" lon="8.2841331"><ele>332.25</ele><time>2026-05-03T09:58:14.388Z</time></trkpt><trkpt lat="44.4061622" lon="8.2841343"><ele>332.0</ele><time>2026-05-03T09:58:15.388Z</time></trkpt><trkpt lat="44.4063118" lon="8.2841346"><ele>333.0</ele><time>2026-05-03T09:58:16.387Z</time></trkpt><trkpt lat="44.4064711" lon="8.2841401"><ele>334.0</ele><time>2026-05-03T09:58:17.388Z</time></trkpt><trkpt lat="44.4066378" lon="8.2841393"><ele>335.0</ele><time>2026-05-03T09:58:18.387Z</time></trkpt><trkpt lat="44.4068077" lon="8.2841317"><ele>335.0</ele><time>2026-05-03T09:58:19.387Z</time></trkpt><trkpt lat="44.4069842" lon="8.2841167"><ele>335.0</ele><time>2026-05-03T09:58:20.387Z</time></trkpt><trkpt lat="44.407164" lon="8.2840868"><ele>335.0</ele><time>2026-05-03T09:58:21.387Z</time></trkpt><trkpt lat="44.4073504" lon="8.2840431"><ele>333.33333333333337</ele><time>2026-05-03T09:58:22.387Z</time></trkpt><trkpt lat="44.4075405" lon="8.2839884"><ele>331.6666666666667</ele><time>2026-05-03T09:58:23.387Z</time></trkpt><trkpt lat="44.4077351" lon="8.2839251"><ele>330.0</ele><time>2026-05-03T09:58:24.387Z</time></trkpt><trkpt lat="44.407928" lon="8.2838525"><ele>331.6666666666667</ele><time>2026-05-03T09:58:25.387Z</time></trkpt><trkpt lat="44.408122" lon="8.2837644"><ele>333.33333333333337</ele><time>2026-05-03T09:58:26.387Z</time></trkpt><trkpt lat="44.4083141" lon="8.283663"><ele>335.0</ele><time>2026-05-03T09:58:27.387Z</time></trkpt><trkpt lat="44.4085047" lon="8.2835475"><ele>335.0</ele><time>2026-05-03T09:58:28.387Z</time></trkpt><trkpt lat="44.4086886" lon="8.2834178"><ele>335.0</ele><time>2026-05-03T09:58:29.388Z</time></trkpt><trkpt lat="44.4088716" lon="8.2832783"><ele>335.0</ele><time>2026-05-03T09:58:30.387Z</time></trkpt><trkpt lat="44.4090476" lon="8.2831315"><ele>333.6666666666667</ele><time>2026-05-03T09:58:31.387Z</time></trkpt><trkpt lat="44.4092146" lon="8.2829822"><ele>332.3333333333333</ele><time>2026-05-03T09:58:32.387Z</time></trkpt><trkpt lat="44.4093724" lon="8.2828261"><ele>331.0</ele><time>2026-05-03T09:58:33.388Z</time></trkpt><trkpt lat="44.4095313" lon="8.2826751"><ele>331.66666666666663</ele><time>2026-05-03T09:58:34.387Z</time></trkpt><trkpt lat="44.4096831" lon="8.2825175"><ele>332.3333333333333</ele><time>2026-05-03T09:58:35.387Z</time></trkpt><trkpt lat="44.4098314" lon="8.2823616"><ele>333.0</ele><time>2026-05-03T09:58:36.388Z</time></trkpt><trkpt lat="44.4099806" lon="8.2822072"><ele>333.0</ele><time>2026-05-03T09:58:37.387Z</time></trkpt><trkpt lat="44.4101338" lon="8.2820512"><ele>333.0</ele><time>2026-05-03T09:58:38.387Z</time></trkpt><trkpt lat="44.4102923" lon="8.2818937"><ele>333.0</ele><time>2026-05-03T09:58:39.388Z</time></trkpt><trkpt lat="44.4104508" lon="8.2817342"><ele>334.0</ele><time>2026-05-03T09:58:40.387Z</time></trkpt><trkpt lat="44.4106082" lon="8.281574"><ele>335.0</ele><time>2026-05-03T09:58:41.387Z</time></trkpt><trkpt lat="44.4107605" lon="8.2814107"><ele>336.0</ele><time>2026-05-03T09:58:42.387Z</time></trkpt><trkpt lat="44.4109212" lon="8.2812572"><ele>335.3333333333333</ele><time>2026-05-03T09:58:43.387Z</time></trkpt><trkpt lat="44.4110902" lon="8.2811173"><ele>334.66666666666663</ele><time>2026-05-03T09:58:44.387Z</time></trkpt><trkpt lat="44.4112654" lon="8.2809938"><ele>334.0</ele><time>2026-05-03T09:58:45.387Z</time></trkpt><trkpt lat="44.4114475" lon="8.2808905"><ele>334.0</ele><time>2026-05-03T09:58:46.387Z</time></trkpt><trkpt lat="44.4116382" lon="8.2808092"><ele>334.0</ele><time>2026-05-03T09:58:47.387Z</time></trkpt><trkpt lat="44.4118369" lon="8.280751"><ele>334.0</ele><time>2026-05-03T09:58:48.387Z</time></trkpt><trkpt lat="44.4120354" lon="8.2807183"><ele>337.3333333333333</ele><time>2026-05-03T09:58:49.388Z</time></trkpt><trkpt lat="44.4122404" lon="8.2807133"><ele>340.6666666666667</ele><time>2026-05-03T09:58:50.387Z</time></trkpt><trkpt lat="44.4124498" lon="8.2807302"><ele>344.0</ele><time>2026-05-03T09:58:51.387Z</time></trkpt><trkpt lat="44.4126642" lon="8.28077"><ele>344.0</ele><time>2026-05-03T09:58:52.387Z</time></trkpt><trkpt lat="44.4128792" lon="8.2808359"><ele>344.0</ele><time>2026-05-03T09:58:53.387Z</time></trkpt><trkpt lat="44.4130921" lon="8.2809174"><ele>344.0</ele><time>2026-05-03T09:58:54.388Z</time></trkpt><trkpt lat="44.4133062" lon="8.2810158"><ele>341.0</ele><time>2026-05-03T09:58:55.387Z</time></trkpt><trkpt lat="44.4135226" lon="8.2811203"><ele>338.0</ele><time>2026-05-03T09:58:56.388Z</time></trkpt><trkpt lat="44.4137349" lon="8.2812302"><ele>342.5</ele><time>2026-05-03T09:58:57.387Z</time></trkpt><trkpt lat="44.413947" lon="8.2813357"><ele>347.0</ele><time>2026-05-03T09:58:58.387Z</time></trkpt><trkpt lat="44.4141585" lon="8.2814415"><ele>347.0</ele><time>2026-05-03T09:58:59.388Z</time></trkpt><trkpt lat="44.4143644" lon="8.2815428"><ele>347.0</ele><time>2026-05-03T09:59:00.387Z</time></trkpt><trkpt lat="44.4145669" lon="8.2816501"><ele>347.0</ele><time>2026-05-03T09:59:01.387Z</time></trkpt><trkpt lat="44.4147661" lon="8.2817619"><ele>343.33333333333337</ele><time>2026-05-03T09:59:02.387Z</time></trkpt><trkpt lat="44.4149587" lon="8.2818835"><ele>339.6666666666667</ele><time>2026-05-03T09:59:03.388Z</time></trkpt><trkpt lat="44.4151466" lon="8.2820152"><ele>336.0</ele><time>2026-05-03T09:59:04.387Z</time></trkpt><trkpt lat="44.4153322" lon="8.2821543"><ele>335.6666666666667</ele><time>2026-05-03T09:59:05.387Z</time></trkpt><trkpt lat="44.4155097" lon="8.2823094"><ele>335.33333333333337</ele><time>2026-05-03T09:59:06.387Z</time></trkpt><trkpt lat="44.4156865" lon="8.2824787"><ele>335.0</ele><time>2026-05-03T09:59:07.387Z</time></trkpt><trkpt lat="44.4158548" lon="8.2826518"><ele>335.0</ele><time>2026-05-03T09:59:08.387Z</time></trkpt><trkpt lat="44.4160237" lon="8.2828305"><ele>335.0</ele><time>2026-05-03T09:59:09.387Z</time></trkpt><trkpt lat="44.4161827" lon="8.2830183"><ele>335.0</ele><time>2026-05-03T09:59:10.387Z</time></trkpt><trkpt lat="44.4163428" lon="8.2832085"><ele>333.6666666666667</ele><time>2026-05-03T09:59:11.387Z</time></trkpt><trkpt lat="44.4165021" lon="8.2833994"><ele>332.3333333333333</ele><time>2026-05-03T09:59:12.387Z</time></trkpt><trkpt lat="44.4166555" lon="8.2835802"><ele>331.0</ele><time>2026-05-03T09:59:13.387Z</time></trkpt><trkpt lat="44.4168045" lon="8.2837576"><ele>331.0</ele><time>2026-05-03T09:59:14.388Z</time></trkpt><trkpt lat="44.4169484" lon="8.2839258"><ele>331.0</ele><time>2026-05-03T09:59:15.387Z</time></trkpt><trkpt lat="44.4170977" lon="8.2840885"><ele>331.0</ele><time>2026-05-03T09:59:16.387Z</time></trkpt><trkpt lat="44.4172526" lon="8.2842394"><ele>329.0</ele><time>2026-05-03T09:59:17.387Z</time></trkpt><trkpt lat="44.4174158" lon="8.2843741"><ele>327.0</ele><time>2026-05-03T09:59:18.388Z</time></trkpt><trkpt lat="44.4175806" lon="8.2844999"><ele>325.0</ele><time>2026-05-03T09:59:19.388Z</time></trkpt><trkpt lat="44.4177482" lon="8.2846208"><ele>325.0</ele><time>2026-05-03T09:59:20.388Z</time></trkpt><trkpt lat="44.4179247" lon="8.2847455"><ele>325.0</ele><time>2026-05-03T09:59:21.387Z</time></trkpt><trkpt lat="44.4181104" lon="8.2848706"><ele>325.0</ele><time>2026-05-03T09:59:22.388Z</time></trkpt><trkpt lat="44.4182985" lon="8.2850038"><ele>325.66666666666663</ele><time>2026-05-03T09:59:23.387Z</time></trkpt><trkpt lat="44.4184936" lon="8.285141"><ele>326.3333333333333</ele><time>2026-05-03T09:59:24.387Z</time></trkpt><trkpt lat="44.4186889" lon="8.2852895"><ele>327.0</ele><time>2026-05-03T09:59:25.387Z</time></trkpt><trkpt lat="44.4188716" lon="8.2854535"><ele>327.6666666666667</ele><time>2026-05-03T09:59:26.388Z</time></trkpt><trkpt lat="44.4190468" lon="8.28563"><ele>328.33333333333337</ele><time>2026-05-03T09:59:27.387Z</time></trkpt><trkpt lat="44.4192144" lon="8.2858169"><ele>329.0</ele><time>2026-05-03T09:59:28.387Z</time></trkpt><trkpt lat="44.4193696" lon="8.2860179"><ele>329.0</ele><time>2026-05-03T09:59:29.387Z</time></trkpt><trkpt lat="44.4195159" lon="8.2862337"><ele>329.0</ele><time>2026-05-03T09:59:30.387Z</time></trkpt><trkpt lat="44.4196495" lon="8.286467"><ele>329.0</ele><time>2026-05-03T09:59:31.387Z</time></trkpt><trkpt lat="44.4197832" lon="8.2867003"><ele>327.6666666666667</ele><time>2026-05-03T09:59:32.388Z</time></trkpt><trkpt lat="44.4199111" lon="8.2869291"><ele>326.3333333333333</ele><time>2026-05-03T09:59:33.388Z</time></trkpt><trkpt lat="44.4200322" lon="8.2871494"><ele>325.0</ele><time>2026-05-03T09:59:34.387Z</time></trkpt><trkpt lat="44.4201484" lon="8.2873613"><ele>328.3333333333333</ele><time>2026-05-03T09:59:35.388Z</time></trkpt><trkpt lat="44.4202556" lon="8.2875681"><ele>331.6666666666667</ele><time>2026-05-03T09:59:36.388Z</time></trkpt><trkpt lat="44.4203613" lon="8.2877685"><ele>335.0</ele><time>2026-05-03T09:59:37.388Z</time></trkpt><trkpt lat="44.4204669" lon="8.2879667"><ele>331.33333333333337</ele><time>2026-05-03T09:59:38.387Z</time></trkpt><trkpt lat="44.4205698" lon="8.2881617"><ele>327.6666666666667</ele><time>2026-05-03T09:59:39.387Z</time></trkpt><trkpt lat="44.42067" lon="8.2883489"><ele>324.0</ele><time>2026-05-03T09:59:40.387Z</time></trkpt><trkpt lat="44.4207705" lon="8.2885354"><ele>324.0</ele><time>2026-05-03T09:59:41.387Z</time></trkpt><trkpt lat="44.420869" lon="8.2887212"><ele>324.0</ele><time>2026-05-03T09:59:42.387Z</time></trkpt><trkpt lat="44.4209551" lon="8.2889174"><ele>324.0</ele><time>2026-05-03T09:59:43.387Z</time></trkpt><trkpt lat="44.4210274" lon="8.2891266"><ele>326.3333333333333</ele><time>2026-05-03T09:59:44.387Z</time></trkpt><trkpt lat="44.4210855" lon="8.2893504"><ele>328.66666666666663</ele><time>2026-05-03T09:59:45.388Z</time></trkpt><trkpt lat="44.4211278" lon="8.2895751"><ele>331.0</ele><time>2026-05-03T09:59:46.387Z</time></trkpt><trkpt lat="44.4211578" lon="8.2898024"><ele>333.3333333333333</ele><time>2026-05-03T09:59:47.387Z</time></trkpt><trkpt lat="44.4211894" lon="8.2900276"><ele>335.6666666666667</ele><time>2026-05-03T09:59:48.387Z</time></trkpt><trkpt lat="44.4212223" lon="8.2902475"><ele>338.0</ele><time>2026-05-03T09:59:49.387Z</time></trkpt><trkpt lat="44.4212601" lon="8.290464"><ele>339.0</ele><time>2026-05-03T09:59:50.387Z</time></trkpt><trkpt lat="44.4213076" lon="8.2906753"><ele>340.0</ele><time>2026-05-03T09:59:51.387Z</time></trkpt><trkpt lat="44.4213657" lon="8.2908811"><ele>341.0</ele><time>2026-05-03T09:59:52.388Z</time></trkpt><trkpt lat="44.4214254" lon="8.2910857"><ele>337.6666666666667</ele><time>2026-05-03T09:59:53.387Z</time></trkpt><trkpt lat="44.4214926" lon="8.2912865"><ele>334.3333333333333</ele><time>2026-05-03T09:59:54.387Z</time></trkpt><trkpt lat="44.4215643" lon="8.2914882"><ele>331.0</ele><time>2026-05-03T09:59:55.388Z</time></trkpt><trkpt lat="44.4216313" lon="8.2916932"><ele>331.0</ele><time>2026-05-03T09:59:56.387Z</time></trkpt><trkpt lat="44.4217028" lon="8.2918999"><ele>331.0</ele><time>2026-05-03T09:59:57.388Z</time></trkpt><trkpt lat="44.4217734" lon="8.2921128"><ele>331.0</ele><time>2026-05-03T09:59:58.387Z</time></trkpt><trkpt lat="44.4218438" lon="8.2923252"><ele>332.66666666666663</ele><time>2026-05-03T09:59:59.387Z</time></trkpt><trkpt lat="44.4219173" lon="8.2925434"><ele>334.3333333333333</ele><time>2026-05-03T10:00:00.388Z</time></trkpt><trkpt lat="44.4219884" lon="8.2927609"><ele>336.0</ele><time>2026-05-03T10:00:01.387Z</time></trkpt><trkpt lat="44.4220616" lon="8.292973"><ele>337.6666666666667</ele><time>2026-05-03T10:00:02.388Z</time></trkpt><trkpt lat="44.4221375" lon="8.2931811"><ele>339.33333333333337</ele><time>2026-05-03T10:00:03.387Z</time></trkpt><trkpt lat="44.4222036" lon="8.2933919"><ele>341.0</ele><time>2026-05-03T10:00:04.388Z</time></trkpt><trkpt lat="44.42225" lon="8.293604"><ele>336.33333333333337</ele><time>2026-05-03T10:00:05.387Z</time></trkpt><trkpt lat="44.4222784" lon="8.2938137"><ele>331.6666666666667</ele><time>2026-05-03T10:00:06.387Z</time></trkpt><trkpt lat="44.4222935" lon="8.2940288"><ele>327.0</ele><time>2026-05-03T10:00:07.387Z</time></trkpt><trkpt lat="44.4223005" lon="8.294246"><ele>327.0</ele><time>2026-05-03T10:00:08.387Z</time></trkpt><trkpt lat="44.4222965" lon="8.2944648"><ele>327.0</ele><time>2026-05-03T10:00:09.387Z</time></trkpt><trkpt lat="44.4222787" lon="8.2946827"><ele>327.0</ele><time>2026-05-03T10:00:10.388Z</time></trkpt><trkpt lat="44.4222462" lon="8.2948962"><ele>327.0</ele><time>2026-05-03T10:00:11.387Z</time></trkpt><trkpt lat="44.4222101" lon="8.295107"><ele>327.0</ele><time>2026-05-03T10:00:12.388Z</time></trkpt><trkpt lat="44.4221726" lon="8.295316"><ele>327.0</ele><time>2026-05-03T10:00:13.387Z</time></trkpt><trkpt lat="44.4221393" lon="8.2955336"><ele>333.0</ele><time>2026-05-03T10:00:14.387Z</time></trkpt><trkpt lat="44.4221148" lon="8.2957481"><ele>339.0</ele><time>2026-05-03T10:00:15.387Z</time></trkpt><trkpt lat="44.4221062" lon="8.2959635"><ele>345.0</ele><time>2026-05-03T10:00:16.387Z</time></trkpt><trkpt lat="44.4221072" lon="8.2961817"><ele>345.0</ele><time>2026-05-03T10:00:17.387Z</time></trkpt><trkpt lat="44.4221281" lon="8.2964011"><ele>345.0</ele><time>2026-05-03T10:00:18.387Z</time></trkpt><trkpt lat="44.4221546" lon="8.2966171"><ele>345.0</ele><time>2026-05-03T10:00:19.386Z</time></trkpt><trkpt lat="44.4221896" lon="8.2968188"><ele>341.5</ele><time>2026-05-03T10:00:20.387Z</time></trkpt><trkpt lat="44.4222286" lon="8.2970109"><ele>338.0</ele><time>2026-05-03T10:00:21.387Z</time></trkpt><trkpt lat="44.4222734" lon="8.2971973"><ele>334.5</ele><time>2026-05-03T10:00:22.388Z</time></trkpt><trkpt lat="44.4223217" lon="8.2973897"><ele>331.0</ele><time>2026-05-03T10:00:23.387Z</time></trkpt><trkpt lat="44.4223663" lon="8.2975833"><ele>331.0</ele><time>2026-05-03T10:00:24.387Z</time></trkpt><trkpt lat="44.4224113" lon="8.2977796"><ele>331.0</ele><time>2026-05-03T10:00:25.387Z</time></trkpt><trkpt lat="44.4224607" lon="8.2979743"><ele>331.0</ele><time>2026-05-03T10:00:26.387Z</time></trkpt><trkpt lat="44.4225222" lon="8.2981652"><ele>331.0</ele><time>2026-05-03T10:00:27.387Z</time></trkpt><trkpt lat="44.4225984" lon="8.2983458"><ele>335.3333333333333</ele><time>2026-05-03T10:00:28.387Z</time></trkpt><trkpt lat="44.4226813" lon="8.2985189"><ele>339.6666666666667</ele><time>2026-05-03T10:00:29.387Z</time></trkpt><trkpt lat="44.4227735" lon="8.2986877"><ele>344.0</ele><time>2026-05-03T10:00:30.387Z</time></trkpt><trkpt lat="44.4228662" lon="8.2988558"><ele>339.33333333333337</ele><time>2026-05-03T10:00:31.387Z</time></trkpt><trkpt lat="44.4229602" lon="8.2990177"><ele>334.6666666666667</ele><time>2026-05-03T10:00:32.387Z</time></trkpt><trkpt lat="44.4230573" lon="8.2991873"><ele>330.0</ele><time>2026-05-03T10:00:33.387Z</time></trkpt><trkpt lat="44.4231502" lon="8.2993593"><ele>330.0</ele><time>2026-05-03T10:00:34.388Z</time></trkpt><trkpt lat="44.423245" lon="8.2995316"><ele>330.0</ele><time>2026-05-03T10:00:35.387Z</time></trkpt><trkpt lat="44.4233397" lon="8.2996966"><ele>330.0</ele><time>2026-05-03T10:00:36.388Z</time></trkpt><trkpt lat="44.4234441" lon="8.2998566"><ele>335.6666666666667</ele><time>2026-05-03T10:00:37.388Z</time></trkpt><trkpt lat="44.4235584" lon="8.3000047"><ele>341.33333333333337</ele><time>2026-05-03T10:00:38.387Z</time></trkpt><trkpt lat="44.4236759" lon="8.3001471"><ele>347.0</ele><time>2026-05-03T10:00:39.387Z</time></trkpt><trkpt lat="44.4238045" lon="8.3002784"><ele>343.0</ele><time>2026-05-03T10:00:40.387Z</time></trkpt><trkpt lat="44.423941" lon="8.300395"><ele>339.0</ele><time>2026-05-03T10:00:41.387Z</time></trkpt><trkpt lat="44.4240948" lon="8.3004974"><ele>335.0</ele><time>2026-05-03T10:00:42.388Z</time></trkpt><trkpt lat="44.4242496" lon="8.3005817"><ele>342.0</ele><time>2026-05-03T10:00:43.387Z</time></trkpt><trkpt lat="44.4244023" lon="8.3006798"><ele>349.0</ele><time>2026-05-03T10:00:44.387Z</time></trkpt><trkpt lat="44.4245591" lon="8.3007698"><ele>356.0</ele><time>2026-05-03T10:00:45.387Z</time></trkpt><trkpt lat="44.424716" lon="8.3008592"><ele>341.0</ele><time>2026-05-03T10:00:46.387Z</time></trkpt><trkpt lat="44.4267971" lon="8.3019685"><ele>341.0</ele><time>2026-05-03T10:01:00.401Z</time></trkpt><trkpt lat="44.4269219" lon="8.3020563"><ele>341.0</ele><time>2026-05-03T10:01:01.378Z</time></trkpt><trkpt lat="44.427057" lon="8.3021308"><ele>341.0</ele><time>2026-05-03T10:01:02.388Z</time></trkpt><trkpt lat="44.4271903" lon="8.3021964"><ele>341.0</ele><time>2026-05-03T10:01:03.399Z</time></trkpt><trkpt lat="44.4273276" lon="8.302272"><ele>339.0</ele><time>2026-05-03T10:01:04.395Z</time></trkpt><trkpt lat="44.4274678" lon="8.3023456"><ele>337.0</ele><time>2026-05-03T10:01:05.396Z</time></trkpt><trkpt lat="44.4276092" lon="8.3024122"><ele>335.0</ele><time>2026-05-03T10:01:06.395Z</time></trkpt><trkpt lat="44.4277496" lon="8.3024678"><ele>333.0</ele><time>2026-05-03T10:01:07.395Z</time></trkpt><trkpt lat="44.4278922" lon="8.3025099"><ele>332.6666666666667</ele><time>2026-05-03T10:01:08.395Z</time></trkpt><trkpt lat="44.4280432" lon="8.3025334"><ele>332.33333333333337</ele><time>2026-05-03T10:01:09.395Z</time></trkpt><trkpt lat="44.4281958" lon="8.3025364"><ele>332.0</ele><time>2026-05-03T10:01:10.395Z</time></trkpt><trkpt lat="44.4283453" lon="8.3025227"><ele>332.0</ele><time>2026-05-03T10:01:11.395Z</time></trkpt><trkpt lat="44.4284987" lon="8.3025019"><ele>332.0</ele><time>2026-05-03T10:01:12.396Z</time></trkpt><trkpt lat="44.4286573" lon="8.3024798"><ele>332.0</ele><time>2026-05-03T10:01:13.395Z</time></trkpt><trkpt lat="44.4288178" lon="8.3024606"><ele>332.6666666666667</ele><time>2026-05-03T10:01:14.396Z</time></trkpt><trkpt lat="44.4289768" lon="8.3024368"><ele>333.3333333333333</ele><time>2026-05-03T10:01:15.395Z</time></trkpt><trkpt lat="44.4291326" lon="8.3024153"><ele>334.0</ele><time>2026-05-03T10:01:16.396Z</time></trkpt><trkpt lat="44.4292852" lon="8.3023911"><ele>334.0</ele><time>2026-05-03T10:01:17.395Z</time></trkpt><trkpt lat="44.4294328" lon="8.3023717"><ele>334.0</ele><time>2026-05-03T10:01:18.395Z</time></trkpt><trkpt lat="44.4295756" lon="8.3023557"><ele>334.0</ele><time>2026-05-03T10:01:19.395Z</time></trkpt><trkpt lat="44.4297103" lon="8.3023346"><ele>334.0</ele><time>2026-05-03T10:01:20.395Z</time></trkpt><trkpt lat="44.4298432" lon="8.3023166"><ele>333.75</ele><time>2026-05-03T10:01:21.395Z</time></trkpt><trkpt lat="44.4299804" lon="8.3022966"><ele>333.5</ele><time>2026-05-03T10:01:22.396Z</time></trkpt><trkpt lat="44.430122" lon="8.30227"><ele>333.25</ele><time>2026-05-03T10:01:23.395Z</time></trkpt><trkpt lat="44.4302641" lon="8.3022412"><ele>333.0</ele><time>2026-05-03T10:01:24.396Z</time></trkpt><trkpt lat="44.4304096" lon="8.3022147"><ele>332.25</ele><time>2026-05-03T10:01:25.395Z</time></trkpt><trkpt lat="44.4305554" lon="8.3021785"><ele>331.5</ele><time>2026-05-03T10:01:26.395Z</time></trkpt><trkpt lat="44.4307014" lon="8.3021403"><ele>330.75</ele><time>2026-05-03T10:01:27.395Z</time></trkpt><trkpt lat="44.4308467" lon="8.3020992"><ele>330.0</ele><time>2026-05-03T10:01:28.395Z</time></trkpt><trkpt lat="44.4309912" lon="8.3020553"><ele>330.0</ele><time>2026-05-03T10:01:29.395Z</time></trkpt><trkpt lat="44.4311387" lon="8.3020026"><ele>330.0</ele><time>2026-05-03T10:01:30.395Z</time></trkpt><trkpt lat="44.4312874" lon="8.3019485"><ele>330.0</ele><time>2026-05-03T10:01:31.395Z</time></trkpt><trkpt lat="44.4314373" lon="8.3018912"><ele>329.6666666666667</ele><time>2026-05-03T10:01:32.396Z</time></trkpt><trkpt lat="44.4315888" lon="8.3018289"><ele>329.33333333333337</ele><time>2026-05-03T10:01:33.395Z</time></trkpt><trkpt lat="44.4317431" lon="8.3017659"><ele>329.0</ele><time>2026-05-03T10:01:34.395Z</time></trkpt><trkpt lat="44.4318966" lon="8.3017053"><ele>329.0</ele><time>2026-05-03T10:01:35.395Z</time></trkpt><trkpt lat="44.4320502" lon="8.3016418"><ele>329.0</ele><time>2026-05-03T10:01:36.395Z</time></trkpt><trkpt lat="44.4322058" lon="8.3015768"><ele>329.0</ele><time>2026-05-03T10:01:37.396Z</time></trkpt><trkpt lat="44.4323602" lon="8.3015107"><ele>328.33333333333337</ele><time>2026-05-03T10:01:38.395Z</time></trkpt><trkpt lat="44.4325169" lon="8.3014427"><ele>327.6666666666667</ele><time>2026-05-03T10:01:39.395Z</time></trkpt><trkpt lat="44.4326714" lon="8.3013727"><ele>327.0</ele><time>2026-05-03T10:01:40.395Z</time></trkpt><trkpt lat="44.4328215" lon="8.3013021"><ele>326.6666666666667</ele><time>2026-05-03T10:01:41.396Z</time></trkpt><trkpt lat="44.4329747" lon="8.3012301"><ele>326.33333333333337</ele><time>2026-05-03T10:01:42.395Z</time></trkpt><trkpt lat="44.433127" lon="8.301163"><ele>326.0</ele><time>2026-05-03T10:01:43.395Z</time></trkpt><trkpt lat="44.4332818" lon="8.3011002"><ele>326.0</ele><time>2026-05-03T10:01:44.396Z</time></trkpt><trkpt lat="44.4334425" lon="8.3010342"><ele>326.0</ele><time>2026-05-03T10:01:45.396Z</time></trkpt><trkpt lat="44.4336083" lon="8.3009767"><ele>326.0</ele><time>2026-05-03T10:01:46.395Z</time></trkpt><trkpt lat="44.4337725" lon="8.3009256"><ele>324.6666666666667</ele><time>2026-05-03T10:01:47.396Z</time></trkpt><trkpt lat="44.4339393" lon="8.3008751"><ele>323.3333333333333</ele><time>2026-05-03T10:01:48.395Z</time></trkpt><trkpt lat="44.4341072" lon="8.3008233"><ele>322.0</ele><time>2026-05-03T10:01:49.395Z</time></trkpt><trkpt lat="44.4342757" lon="8.3007671"><ele>322.0</ele><time>2026-05-03T10:01:50.395Z</time></trkpt><trkpt lat="44.4344446" lon="8.3007202"><ele>322.0</ele><time>2026-05-03T10:01:51.396Z</time></trkpt><trkpt lat="44.4346135" lon="8.3006681"><ele>322.0</ele><time>2026-05-03T10:01:52.396Z</time></trkpt><trkpt lat="44.4347824" lon="8.3006187"><ele>320.3333333333333</ele><time>2026-05-03T10:01:53.395Z</time></trkpt><trkpt lat="44.4349501" lon="8.3005644"><ele>318.6666666666667</ele><time>2026-05-03T10:01:54.395Z</time></trkpt><trkpt lat="44.4351122" lon="8.3005112"><ele>317.0</ele><time>2026-05-03T10:01:55.395Z</time></trkpt><trkpt lat="44.4352758" lon="8.3004624"><ele>317.0</ele><time>2026-05-03T10:01:56.395Z</time></trkpt><trkpt lat="44.4354303" lon="8.3004193"><ele>317.0</ele><time>2026-05-03T10:01:57.395Z</time></trkpt><trkpt lat="44.4355807" lon="8.3003799"><ele>317.0</ele><time>2026-05-03T10:01:58.395Z</time></trkpt><trkpt lat="44.4357275" lon="8.3003448"><ele>317.0</ele><time>2026-05-03T10:01:59.395Z</time></trkpt><trkpt lat="44.4358619" lon="8.3003097"><ele>317.0</ele><time>2026-05-03T10:02:00.395Z</time></trkpt><trkpt lat="44.4359955" lon="8.3002723"><ele>317.0</ele><time>2026-05-03T10:02:01.396Z</time></trkpt><trkpt lat="44.4361139" lon="8.3002336"><ele>317.0</ele><time>2026-05-03T10:02:02.395Z</time></trkpt><trkpt lat="44.4362236" lon="8.3002151"><ele>317.2</ele><time>2026-05-03T10:02:03.395Z</time></trkpt><trkpt lat="44.4363295" lon="8.300251"><ele>317.4</ele><time>2026-05-03T10:02:04.395Z</time></trkpt><trkpt lat="44.4364232" lon="8.3003323"><ele>317.6</ele><time>2026-05-03T10:02:05.395Z</time></trkpt><trkpt lat="44.436492" lon="8.3004427"><ele>317.8</ele><time>2026-05-03T10:02:06.396Z</time></trkpt><trkpt lat="44.4365325" lon="8.3005733"><ele>318.0</ele><time>2026-05-03T10:02:07.396Z</time></trkpt><trkpt lat="44.4365447" lon="8.3006915"><ele>318.5</ele><time>2026-05-03T10:02:08.396Z</time></trkpt><trkpt lat="44.436544" lon="8.3007941"><ele>319.0</ele><time>2026-05-03T10:02:09.396Z</time></trkpt><trkpt lat="44.436554" lon="8.3009182"><ele>319.5</ele><time>2026-05-03T10:02:11.395Z</time></trkpt><trkpt lat="44.4365826" lon="8.300998"><ele>320.0</ele><time>2026-05-03T10:02:16.395Z</time></trkpt><trkpt lat="44.4366244" lon="8.3010803"><ele>320.5</ele><time>2026-05-03T10:02:18.395Z</time></trkpt><trkpt lat="44.4367376" lon="8.3010847"><ele>321.0</ele><time>2026-05-03T10:02:20.395Z</time></trkpt><trkpt lat="44.4368721" lon="8.3010591"><ele>321.0</ele><time>2026-05-03T10:02:22.395Z</time></trkpt><trkpt lat="44.4369567" lon="8.3010424"><ele>321.0</ele><time>2026-05-03T10:02:23.395Z</time></trkpt><trkpt lat="44.4370513" lon="8.3010313"><ele>321.0</ele><time>2026-05-03T10:02:24.395Z</time></trkpt><trkpt lat="44.4371661" lon="8.3010137"><ele>321.0</ele><time>2026-05-03T10:02:25.395Z</time></trkpt><trkpt lat="44.4372986" lon="8.3010013"><ele>321.0</ele><time>2026-05-03T10:02:26.396Z</time></trkpt><trkpt lat="44.4374338" lon="8.3010016"><ele>321.25</ele><time>2026-05-03T10:02:27.395Z</time></trkpt><trkpt lat="44.4375735" lon="8.3010135"><ele>321.5</ele><time>2026-05-03T10:02:28.395Z</time></trkpt><trkpt lat="44.4377192" lon="8.3010322"><ele>321.75</ele><time>2026-05-03T10:02:29.395Z</time></trkpt><trkpt lat="44.4378651" lon="8.3010523"><ele>322.0</ele><time>2026-05-03T10:02:30.395Z</time></trkpt><trkpt lat="44.4380169" lon="8.3010726"><ele>322.5</ele><time>2026-05-03T10:02:31.395Z</time></trkpt><trkpt lat="44.4381651" lon="8.3010974"><ele>323.0</ele><time>2026-05-03T10:02:32.396Z</time></trkpt><trkpt lat="44.4383127" lon="8.3011349"><ele>323.5</ele><time>2026-05-03T10:02:33.396Z</time></trkpt><trkpt lat="44.4384575" lon="8.3011704"><ele>324.0</ele><time>2026-05-03T10:02:34.395Z</time></trkpt><trkpt lat="44.4385997" lon="8.3012027"><ele>324.0</ele><time>2026-05-03T10:02:35.395Z</time></trkpt><trkpt lat="44.4387432" lon="8.3012396"><ele>324.0</ele><time>2026-05-03T10:02:36.395Z</time></trkpt><trkpt lat="44.4388895" lon="8.3012797"><ele>324.0</ele><time>2026-05-03T10:02:37.395Z</time></trkpt><trkpt lat="44.4390386" lon="8.3013218"><ele>324.0</ele><time>2026-05-03T10:02:38.395Z</time></trkpt><trkpt lat="44.4391976" lon="8.3013715"><ele>326.3333333333333</ele><time>2026-05-03T10:02:39.395Z</time></trkpt><trkpt lat="44.4393567" lon="8.3014185"><ele>328.66666666666663</ele><time>2026-05-03T10:02:40.396Z</time></trkpt><trkpt lat="44.4395158" lon="8.3014671"><ele>331.0</ele><time>2026-05-03T10:02:41.395Z</time></trkpt><trkpt lat="44.4396786" lon="8.3015169"><ele>331.0</ele><time>2026-05-03T10:02:42.396Z</time></trkpt><trkpt lat="44.439833" lon="8.3015736"><ele>331.0</ele><time>2026-05-03T10:02:43.395Z</time></trkpt><trkpt lat="44.439978" lon="8.3016319"><ele>331.0</ele><time>2026-05-03T10:02:44.396Z</time></trkpt><trkpt lat="44.4401092" lon="8.3016934"><ele>331.0</ele><time>2026-05-03T10:02:45.396Z</time></trkpt><trkpt lat="44.4402286" lon="8.3017831"><ele>331.0</ele><time>2026-05-03T10:02:46.395Z</time></trkpt><trkpt lat="44.4403347" lon="8.3019156"><ele>331.0</ele><time>2026-05-03T10:02:47.395Z</time></trkpt><trkpt lat="44.440433" lon="8.3020788"><ele>331.0</ele><time>2026-05-03T10:02:48.395Z</time></trkpt><trkpt lat="44.4405382" lon="8.3022517"><ele>327.0</ele><time>2026-05-03T10:02:49.395Z</time></trkpt><trkpt lat="44.4406538" lon="8.3024153"><ele>323.0</ele><time>2026-05-03T10:02:50.396Z</time></trkpt><trkpt lat="44.4407717" lon="8.3025756"><ele>319.0</ele><time>2026-05-03T10:02:51.395Z</time></trkpt><trkpt lat="44.4408906" lon="8.3027307"><ele>319.0</ele><time>2026-05-03T10:02:52.395Z</time></trkpt><trkpt lat="44.4410082" lon="8.3028915"><ele>319.0</ele><time>2026-05-03T10:02:53.395Z</time></trkpt><trkpt lat="44.4411277" lon="8.3030534"><ele>319.0</ele><time>2026-05-03T10:02:54.395Z</time></trkpt><trkpt lat="44.4412461" lon="8.3032136"><ele>318.0</ele><time>2026-05-03T10:02:55.395Z</time></trkpt><trkpt lat="44.441365" lon="8.3033708"><ele>317.0</ele><time>2026-05-03T10:02:56.395Z</time></trkpt><trkpt lat="44.441481" lon="8.3035218"><ele>316.0</ele><time>2026-05-03T10:02:57.395Z</time></trkpt><trkpt lat="44.4415943" lon="8.3036735"><ele>316.0</ele><time>2026-05-03T10:02:58.395Z</time></trkpt><trkpt lat="44.4417092" lon="8.303822"><ele>316.0</ele><time>2026-05-03T10:02:59.396Z</time></trkpt><trkpt lat="44.4418257" lon="8.3039631"><ele>316.0</ele><time>2026-05-03T10:03:00.395Z</time></trkpt><trkpt lat="44.4419511" lon="8.3040867"><ele>316.3333333333333</ele><time>2026-05-03T10:03:01.395Z</time></trkpt><trkpt lat="44.442089" lon="8.3041842"><ele>316.6666666666667</ele><time>2026-05-03T10:03:02.395Z</time></trkpt><trkpt lat="44.4422345" lon="8.3042595"><ele>317.0</ele><time>2026-05-03T10:03:03.395Z</time></trkpt><trkpt lat="44.4423867" lon="8.3043209"><ele>315.0</ele><time>2026-05-03T10:03:04.395Z</time></trkpt><trkpt lat="44.4425296" lon="8.3043964"><ele>313.0</ele><time>2026-05-03T10:03:05.395Z</time></trkpt><trkpt lat="44.4426594" lon="8.3045083"><ele>311.0</ele><time>2026-05-03T10:03:06.396Z</time></trkpt><trkpt lat="44.4427774" lon="8.304649"><ele>311.6666666666667</ele><time>2026-05-03T10:03:07.396Z</time></trkpt><trkpt lat="44.4428919" lon="8.3048"><ele>312.3333333333333</ele><time>2026-05-03T10:03:08.395Z</time></trkpt><trkpt lat="44.443004" lon="8.3049655"><ele>313.0</ele><time>2026-05-03T10:03:09.395Z</time></trkpt><trkpt lat="44.4431053" lon="8.3051511"><ele>311.3333333333333</ele><time>2026-05-03T10:03:10.395Z</time></trkpt><trkpt lat="44.443187" lon="8.3053595"><ele>309.6666666666667</ele><time>2026-05-03T10:03:11.395Z</time></trkpt><trkpt lat="44.4432647" lon="8.3055773"><ele>308.0</ele><time>2026-05-03T10:03:12.395Z</time></trkpt><trkpt lat="44.4433404" lon="8.305798"><ele>307.33333333333337</ele><time>2026-05-03T10:03:13.396Z</time></trkpt><trkpt lat="44.4434173" lon="8.3060244"><ele>306.6666666666667</ele><time>2026-05-03T10:03:14.395Z</time></trkpt><trkpt lat="44.4434927" lon="8.3062541"><ele>306.0</ele><time>2026-05-03T10:03:15.395Z</time></trkpt><trkpt lat="44.4435703" lon="8.3064883"><ele>305.3333333333333</ele><time>2026-05-03T10:03:16.395Z</time></trkpt><trkpt lat="44.4436469" lon="8.3067209"><ele>304.66666666666663</ele><time>2026-05-03T10:03:17.395Z</time></trkpt><trkpt lat="44.4437237" lon="8.3069528"><ele>304.0</ele><time>2026-05-03T10:03:18.395Z</time></trkpt><trkpt lat="44.4438018" lon="8.3071831"><ele>303.66666666666663</ele><time>2026-05-03T10:03:19.395Z</time></trkpt><trkpt lat="44.4438807" lon="8.3074182"><ele>303.3333333333333</ele><time>2026-05-03T10:03:20.395Z</time></trkpt><trkpt lat="44.4439548" lon="8.3076506"><ele>303.0</ele><time>2026-05-03T10:03:21.395Z</time></trkpt><trkpt lat="44.4440296" lon="8.3078778"><ele>303.6666666666667</ele><time>2026-05-03T10:03:22.396Z</time></trkpt><trkpt lat="44.4441089" lon="8.3080963"><ele>304.33333333333337</ele><time>2026-05-03T10:03:23.395Z</time></trkpt><trkpt lat="44.4441957" lon="8.3082996"><ele>305.0</ele><time>2026-05-03T10:03:24.396Z</time></trkpt><trkpt lat="44.4442906" lon="8.30848"><ele>305.0</ele><time>2026-05-03T10:03:25.395Z</time></trkpt><trkpt lat="44.4443945" lon="8.3086447"><ele>305.0</ele><time>2026-05-03T10:03:26.395Z</time></trkpt><trkpt lat="44.4445037" lon="8.3088079"><ele>305.0</ele><time>2026-05-03T10:03:27.395Z</time></trkpt><trkpt lat="44.4446065" lon="8.308963"><ele>304.25</ele><time>2026-05-03T10:03:28.395Z</time></trkpt><trkpt lat="44.4447048" lon="8.3091109"><ele>303.5</ele><time>2026-05-03T10:03:29.395Z</time></trkpt><trkpt lat="44.4447986" lon="8.3092553"><ele>302.75</ele><time>2026-05-03T10:03:30.395Z</time></trkpt><trkpt lat="44.4448953" lon="8.309397"><ele>302.0</ele><time>2026-05-03T10:03:31.396Z</time></trkpt><trkpt lat="44.4449928" lon="8.3095441"><ele>302.0</ele><time>2026-05-03T10:03:32.395Z</time></trkpt><trkpt lat="44.4450909" lon="8.3096994"><ele>302.0</ele><time>2026-05-03T10:03:33.395Z</time></trkpt><trkpt lat="44.4451965" lon="8.3098674"><ele>302.0</ele><time>2026-05-03T10:03:34.395Z</time></trkpt><trkpt lat="44.445308" lon="8.3100374"><ele>302.33333333333337</ele><time>2026-05-03T10:03:35.395Z</time></trkpt><trkpt lat="44.4454222" lon="8.3102128"><ele>302.6666666666667</ele><time>2026-05-03T10:03:36.395Z</time></trkpt><trkpt lat="44.4455361" lon="8.3103854"><ele>303.0</ele><time>2026-05-03T10:03:37.395Z</time></trkpt><trkpt lat="44.4456505" lon="8.3105587"><ele>302.6666666666667</ele><time>2026-05-03T10:03:38.396Z</time></trkpt><trkpt lat="44.4457602" lon="8.3107299"><ele>302.33333333333337</ele><time>2026-05-03T10:03:39.395Z</time></trkpt><trkpt lat="44.4458717" lon="8.3109012"><ele>302.0</ele><time>2026-05-03T10:03:40.395Z</time></trkpt><trkpt lat="44.4459758" lon="8.3110642"><ele>302.0</ele><time>2026-05-03T10:03:41.395Z</time></trkpt><trkpt lat="44.4460841" lon="8.3112244"><ele>302.0</ele><time>2026-05-03T10:03:42.396Z</time></trkpt><trkpt lat="44.4461899" lon="8.3113622"><ele>302.0</ele><time>2026-05-03T10:03:43.396Z</time></trkpt><trkpt lat="44.4463109" lon="8.3114612"><ele>302.0</ele><time>2026-05-03T10:03:44.395Z</time></trkpt><trkpt lat="44.4464329" lon="8.3115281"><ele>304.75</ele><time>2026-05-03T10:03:45.395Z</time></trkpt><trkpt lat="44.4465514" lon="8.3115685"><ele>307.5</ele><time>2026-05-03T10:03:46.395Z</time></trkpt><trkpt lat="44.4466652" lon="8.3116147"><ele>310.25</ele><time>2026-05-03T10:03:47.395Z</time></trkpt><trkpt lat="44.4467688" lon="8.3116814"><ele>313.0</ele><time>2026-05-03T10:03:48.395Z</time></trkpt><trkpt lat="44.4468486" lon="8.3117695"><ele>313.0</ele><time>2026-05-03T10:03:49.396Z</time></trkpt><trkpt lat="44.4469198" lon="8.3118783"><ele>313.0</ele><time>2026-05-03T10:03:50.396Z</time></trkpt><trkpt lat="44.4469813" lon="8.3120052"><ele>313.0</ele><time>2026-05-03T10:03:51.396Z</time></trkpt><trkpt lat="44.4470399" lon="8.3121524"><ele>313.0</ele><time>2026-05-03T10:03:52.396Z</time></trkpt><trkpt lat="44.4470947" lon="8.3123034"><ele>311.75</ele><time>2026-05-03T10:03:53.396Z</time></trkpt><trkpt lat="44.4471579" lon="8.3124526"><ele>310.5</ele><time>2026-05-03T10:03:54.395Z</time></trkpt><trkpt lat="44.4472253" lon="8.3125939"><ele>309.25</ele><time>2026-05-03T10:03:55.395Z</time></trkpt><trkpt lat="44.4473068" lon="8.3127273"><ele>308.0</ele><time>2026-05-03T10:03:56.395Z</time></trkpt><trkpt lat="44.4473905" lon="8.3128488"><ele>308.0</ele><time>2026-05-03T10:03:57.395Z</time></trkpt><trkpt lat="44.4474664" lon="8.3129874"><ele>308.0</ele><time>2026-05-03T10:03:58.396Z</time></trkpt><trkpt lat="44.447515" lon="8.3131395"><ele>308.0</ele><time>2026-05-03T10:03:59.395Z</time></trkpt><trkpt lat="44.4475459" lon="8.3132914"><ele>308.0</ele><time>2026-05-03T10:04:00.396Z</time></trkpt><trkpt lat="44.4475595" lon="8.3134537"><ele>309.25</ele><time>2026-05-03T10:04:01.395Z</time></trkpt><trkpt lat="44.4475684" lon="8.3136308"><ele>310.5</ele><time>2026-05-03T10:04:02.396Z</time></trkpt><trkpt lat="44.4475792" lon="8.3138195"><ele>311.75</ele><time>2026-05-03T10:04:03.395Z</time></trkpt><trkpt lat="44.4475812" lon="8.3140159"><ele>313.0</ele><time>2026-05-03T10:04:04.395Z</time></trkpt><trkpt lat="44.4475854" lon="8.3142164"><ele>313.75</ele><time>2026-05-03T10:04:05.395Z</time></trkpt><trkpt lat="44.4475815" lon="8.3144158"><ele>314.5</ele><time>2026-05-03T10:04:06.395Z</time></trkpt><trkpt lat="44.4475555" lon="8.3146174"><ele>315.25</ele><time>2026-05-03T10:04:07.396Z</time></trkpt><trkpt lat="44.4475024" lon="8.3148195"><ele>316.0</ele><time>2026-05-03T10:04:08.396Z</time></trkpt><trkpt lat="44.4474261" lon="8.3150071"><ele>316.0</ele><time>2026-05-03T10:04:09.395Z</time></trkpt><trkpt lat="44.4473312" lon="8.3151848"><ele>316.0</ele><time>2026-05-03T10:04:10.396Z</time></trkpt><trkpt lat="44.4472185" lon="8.3153487"><ele>316.0</ele><time>2026-05-03T10:04:11.395Z</time></trkpt><trkpt lat="44.4471016" lon="8.3155088"><ele>328.0</ele><time>2026-05-03T10:04:12.395Z</time></trkpt><trkpt lat="44.4469958" lon="8.3156807"><ele>340.0</ele><time>2026-05-03T10:04:13.395Z</time></trkpt><trkpt lat="44.4469229" lon="8.3158856"><ele>352.0</ele><time>2026-05-03T10:04:14.395Z</time></trkpt><trkpt lat="44.446872" lon="8.3161167"><ele>352.0</ele><time>2026-05-03T10:04:15.395Z</time></trkpt><trkpt lat="44.446857" lon="8.3163501"><ele>352.0</ele><time>2026-05-03T10:04:16.396Z</time></trkpt><trkpt lat="44.4468684" lon="8.3165827"><ele>352.0</ele><time>2026-05-03T10:04:17.395Z</time></trkpt><trkpt lat="44.4469327" lon="8.3167837"><ele>352.0</ele><time>2026-05-03T10:04:18.396Z</time></trkpt><trkpt lat="44.4470071" lon="8.3169705"><ele>352.0</ele><time>2026-05-03T10:04:19.395Z</time></trkpt><trkpt lat="44.4470748" lon="8.3171448"><ele>352.0</ele><time>2026-05-03T10:04:20.395Z</time></trkpt><trkpt lat="44.447112" lon="8.3173338"><ele>352.0</ele><time>2026-05-03T10:04:21.395Z</time></trkpt><trkpt lat="44.4471188" lon="8.3175144"><ele>352.0</ele><time>2026-05-03T10:04:22.395Z</time></trkpt><trkpt lat="44.4471012" lon="8.3176999"><ele>352.0</ele><time>2026-05-03T10:04:23.395Z</time></trkpt><trkpt lat="44.4470727" lon="8.3178992"><ele>352.0</ele><time>2026-05-03T10:04:24.396Z</time></trkpt><trkpt lat="44.4470417" lon="8.3181074"><ele>352.0</ele><time>2026-05-03T10:04:25.395Z</time></trkpt><trkpt lat="44.4470088" lon="8.318305"><ele>350.0</ele><time>2026-05-03T10:04:26.395Z</time></trkpt><trkpt lat="44.4469777" lon="8.3184974"><ele>348.0</ele><time>2026-05-03T10:04:27.395Z</time></trkpt><trkpt lat="44.4469211" lon="8.3186716"><ele>346.0</ele><time>2026-05-03T10:04:28.395Z</time></trkpt><trkpt lat="44.446829" lon="8.3188197"><ele>344.0</ele><time>2026-05-03T10:04:29.395Z</time></trkpt><trkpt lat="44.4467178" lon="8.3189269"><ele>344.33333333333337</ele><time>2026-05-03T10:04:30.395Z</time></trkpt><trkpt lat="44.446586" lon="8.3189998"><ele>344.6666666666667</ele><time>2026-05-03T10:04:31.395Z</time></trkpt><trkpt lat="44.446441" lon="8.3190617"><ele>345.0</ele><time>2026-05-03T10:04:32.395Z</time></trkpt><trkpt lat="44.4462922" lon="8.3191288"><ele>345.0</ele><time>2026-05-03T10:04:33.396Z</time></trkpt><trkpt lat="44.4461426" lon="8.3191901"><ele>345.0</ele><time>2026-05-03T10:04:34.395Z</time></trkpt><trkpt lat="44.4460044" lon="8.3192545"><ele>345.0</ele><time>2026-05-03T10:04:35.395Z</time></trkpt><trkpt lat="44.4458822" lon="8.3193539"><ele>345.0</ele><time>2026-05-03T10:04:36.395Z</time></trkpt><trkpt lat="44.4457868" lon="8.3195009"><ele>345.0</ele><time>2026-05-03T10:04:37.395Z</time></trkpt><trkpt lat="44.4457244" lon="8.319692"><ele>345.0</ele><time>2026-05-03T10:04:38.395Z</time></trkpt><trkpt lat="44.4457116" lon="8.3199016"><ele>345.0</ele><time>2026-05-03T10:04:39.395Z</time></trkpt><trkpt lat="44.4457515" lon="8.3201066"><ele>343.3333333333333</ele><time>2026-05-03T10:04:40.395Z</time></trkpt><trkpt lat="44.4458375" lon="8.3203108"><ele>341.66666666666663</ele><time>2026-05-03T10:04:41.395Z</time></trkpt><trkpt lat="44.4459494" lon="8.320513"><ele>340.0</ele><time>2026-05-03T10:04:42.396Z</time></trkpt><trkpt lat="44.4460679" lon="8.3207146"><ele>338.0</ele><time>2026-05-03T10:04:43.395Z</time></trkpt><trkpt lat="44.4461871" lon="8.3209127"><ele>336.0</ele><time>2026-05-03T10:04:44.395Z</time></trkpt><trkpt lat="44.4462928" lon="8.3211056"><ele>334.0</ele><time>2026-05-03T10:04:45.395Z</time></trkpt><trkpt lat="44.4463863" lon="8.3213089"><ele>335.3333333333333</ele><time>2026-05-03T10:04:46.396Z</time></trkpt><trkpt lat="44.4464687" lon="8.3215281"><ele>336.6666666666667</ele><time>2026-05-03T10:04:47.395Z</time></trkpt><trkpt lat="44.4465357" lon="8.3217643"><ele>338.0</ele><time>2026-05-03T10:04:48.395Z</time></trkpt><trkpt lat="44.4465936" lon="8.3220157"><ele>338.6666666666667</ele><time>2026-05-03T10:04:49.395Z</time></trkpt><trkpt lat="44.4466452" lon="8.3222759"><ele>339.3333333333333</ele><time>2026-05-03T10:04:50.396Z</time></trkpt><trkpt lat="44.4466963" lon="8.3225354"><ele>340.0</ele><time>2026-05-03T10:04:51.395Z</time></trkpt><trkpt lat="44.4467425" lon="8.3227951"><ele>340.0</ele><time>2026-05-03T10:04:52.395Z</time></trkpt><trkpt lat="44.4467857" lon="8.3230563"><ele>340.0</ele><time>2026-05-03T10:04:53.395Z</time></trkpt><trkpt lat="44.4468256" lon="8.3233187"><ele>340.0</ele><time>2026-05-03T10:04:54.395Z</time></trkpt><trkpt lat="44.446864" lon="8.3235778"><ele>341.0</ele><time>2026-05-03T10:04:55.395Z</time></trkpt><trkpt lat="44.446903" lon="8.323838"><ele>342.0</ele><time>2026-05-03T10:04:56.396Z</time></trkpt><trkpt lat="44.4469374" lon="8.3240923"><ele>343.0</ele><time>2026-05-03T10:04:57.395Z</time></trkpt><trkpt lat="44.4469763" lon="8.3243449"><ele>343.0</ele><time>2026-05-03T10:04:58.395Z</time></trkpt><trkpt lat="44.4470172" lon="8.3245974"><ele>343.0</ele><time>2026-05-03T10:04:59.396Z</time></trkpt><trkpt lat="44.4470486" lon="8.3248498"><ele>343.0</ele><time>2026-05-03T10:05:00.396Z</time></trkpt><trkpt lat="44.4470723" lon="8.3251087"><ele>345.3333333333333</ele><time>2026-05-03T10:05:01.395Z</time></trkpt><trkpt lat="44.4470828" lon="8.3253735"><ele>347.6666666666667</ele><time>2026-05-03T10:05:02.396Z</time></trkpt><trkpt lat="44.4470752" lon="8.3256356"><ele>350.0</ele><time>2026-05-03T10:05:03.395Z</time></trkpt><trkpt lat="44.4470609" lon="8.3259024"><ele>351.0</ele><time>2026-05-03T10:05:04.395Z</time></trkpt><trkpt lat="44.4470571" lon="8.3261708"><ele>352.0</ele><time>2026-05-03T10:05:05.395Z</time></trkpt><trkpt lat="44.4470663" lon="8.3264386"><ele>353.0</ele><time>2026-05-03T10:05:06.396Z</time></trkpt><trkpt lat="44.447091" lon="8.3267044"><ele>353.6666666666667</ele><time>2026-05-03T10:05:07.396Z</time></trkpt><trkpt lat="44.4471241" lon="8.3269675"><ele>354.3333333333333</ele><time>2026-05-03T10:05:08.396Z</time></trkpt><trkpt lat="44.4471753" lon="8.327231"><ele>355.0</ele><time>2026-05-03T10:05:09.395Z</time></trkpt><trkpt lat="44.447232" lon="8.327499"><ele>352.66666666666663</ele><time>2026-05-03T10:05:10.396Z</time></trkpt><trkpt lat="44.4472929" lon="8.3277645"><ele>350.3333333333333</ele><time>2026-05-03T10:05:11.395Z</time></trkpt><trkpt lat="44.4473547" lon="8.3280312"><ele>348.0</ele><time>2026-05-03T10:05:12.395Z</time></trkpt><trkpt lat="44.4474188" lon="8.3282947"><ele>347.3333333333333</ele><time>2026-05-03T10:05:13.396Z</time></trkpt><trkpt lat="44.4474818" lon="8.3285576"><ele>346.66666666666663</ele><time>2026-05-03T10:05:14.395Z</time></trkpt><trkpt lat="44.447544" lon="8.3288026"><ele>346.0</ele><time>2026-05-03T10:05:15.395Z</time></trkpt><trkpt lat="44.4475999" lon="8.3290237"><ele>347.75</ele><time>2026-05-03T10:05:16.396Z</time></trkpt><trkpt lat="44.447646" lon="8.3292176"><ele>349.5</ele><time>2026-05-03T10:05:17.395Z</time></trkpt><trkpt lat="44.447688" lon="8.3293819"><ele>351.25</ele><time>2026-05-03T10:05:18.395Z</time></trkpt><trkpt lat="44.4477392" lon="8.3295052"><ele>353.0</ele><time>2026-05-03T10:05:19.395Z</time></trkpt><trkpt lat="44.4478093" lon="8.3295676"><ele>353.0</ele><time>2026-05-03T10:05:20.395Z</time></trkpt><trkpt lat="44.4478875" lon="8.3295629"><ele>353.0</ele><time>2026-05-03T10:05:21.396Z</time></trkpt><trkpt lat="44.4479442" lon="8.3294892"><ele>353.0</ele><time>2026-05-03T10:05:22.395Z</time></trkpt><trkpt lat="44.4479692" lon="8.3293705"><ele>353.0</ele><time>2026-05-03T10:05:23.395Z</time></trkpt><trkpt lat="44.4479588" lon="8.3292205"><ele>353.0</ele><time>2026-05-03T10:05:24.395Z</time></trkpt><trkpt lat="44.4479457" lon="8.3290638"><ele>353.0</ele><time>2026-05-03T10:05:25.395Z</time></trkpt><trkpt lat="44.447949" lon="8.3289018"><ele>353.0</ele><time>2026-05-03T10:05:26.395Z</time></trkpt><trkpt lat="44.4479742" lon="8.3287498"><ele>353.0</ele><time>2026-05-03T10:05:27.395Z</time></trkpt><trkpt lat="44.4480423" lon="8.3286258"><ele>353.0</ele><time>2026-05-03T10:05:28.395Z</time></trkpt><trkpt lat="44.4481347" lon="8.3285453"><ele>353.0</ele><time>2026-05-03T10:05:29.395Z</time></trkpt><trkpt lat="44.4482556" lon="8.3285007"><ele>355.33333333333337</ele><time>2026-05-03T10:05:30.395Z</time></trkpt><trkpt lat="44.4484011" lon="8.3284732"><ele>357.6666666666667</ele><time>2026-05-03T10:05:31.395Z</time></trkpt><trkpt lat="44.4485573" lon="8.3284366"><ele>360.0</ele><time>2026-05-03T10:05:32.396Z</time></trkpt><trkpt lat="44.4487229" lon="8.3283917"><ele>364.3333333333333</ele><time>2026-05-03T10:05:33.395Z</time></trkpt><trkpt lat="44.4488834" lon="8.3283367"><ele>368.66666666666663</ele><time>2026-05-03T10:05:34.395Z</time></trkpt><trkpt lat="44.4490245" lon="8.3282764"><ele>373.0</ele><time>2026-05-03T10:05:35.396Z</time></trkpt><trkpt lat="44.44916" lon="8.3282402"><ele>373.0</ele><time>2026-05-03T10:05:36.395Z</time></trkpt><trkpt lat="44.4493017" lon="8.3282347"><ele>373.0</ele><time>2026-05-03T10:05:37.395Z</time></trkpt><trkpt lat="44.449456" lon="8.3282747"><ele>373.0</ele><time>2026-05-03T10:05:38.395Z</time></trkpt><trkpt lat="44.4496135" lon="8.3283368"><ele>374.3333333333333</ele><time>2026-05-03T10:05:39.395Z</time></trkpt><trkpt lat="44.4497812" lon="8.3283996"><ele>375.6666666666667</ele><time>2026-05-03T10:05:40.395Z</time></trkpt><trkpt lat="44.4499473" lon="8.3284443"><ele>377.0</ele><time>2026-05-03T10:05:41.396Z</time></trkpt><trkpt lat="44.4501158" lon="8.3284695"><ele>377.0</ele><time>2026-05-03T10:05:42.395Z</time></trkpt><trkpt lat="44.4502816" lon="8.3284907"><ele>377.0</ele><time>2026-05-03T10:05:43.396Z</time></trkpt><trkpt lat="44.450445" lon="8.3285045"><ele>377.0</ele><time>2026-05-03T10:05:44.395Z</time></trkpt><trkpt lat="44.4506068" lon="8.3285347"><ele>376.6666666666667</ele><time>2026-05-03T10:05:45.395Z</time></trkpt><trkpt lat="44.450755" lon="8.3286027"><ele>376.3333333333333</ele><time>2026-05-03T10:05:46.395Z</time></trkpt><trkpt lat="44.4508862" lon="8.3287007"><ele>376.0</ele><time>2026-05-03T10:05:47.395Z</time></trkpt><trkpt lat="44.4510064" lon="8.3288466"><ele>385.3333333333333</ele><time>2026-05-03T10:05:48.396Z</time></trkpt><trkpt lat="44.4511077" lon="8.3290204"><ele>394.66666666666663</ele><time>2026-05-03T10:05:49.395Z</time></trkpt><trkpt lat="44.4511995" lon="8.3292193"><ele>404.0</ele><time>2026-05-03T10:05:50.395Z</time></trkpt><trkpt lat="44.4512761" lon="8.3294517"><ele>400.66666666666663</ele><time>2026-05-03T10:05:51.396Z</time></trkpt><trkpt lat="44.4513513" lon="8.3296877"><ele>397.33333333333337</ele><time>2026-05-03T10:05:52.395Z</time></trkpt><trkpt lat="44.451433" lon="8.3299063"><ele>394.0</ele><time>2026-05-03T10:05:53.395Z</time></trkpt><trkpt lat="44.4515203" lon="8.3301151"><ele>394.0</ele><time>2026-05-03T10:05:54.396Z</time></trkpt><trkpt lat="44.4516192" lon="8.330304"><ele>394.0</ele><time>2026-05-03T10:05:55.395Z</time></trkpt><trkpt lat="44.4517091" lon="8.3304827"><ele>394.0</ele><time>2026-05-03T10:05:56.395Z</time></trkpt><trkpt lat="44.4517807" lon="8.3306734"><ele>400.33333333333337</ele><time>2026-05-03T10:05:57.395Z</time></trkpt><trkpt lat="44.451829" lon="8.3308802"><ele>406.66666666666663</ele><time>2026-05-03T10:05:58.395Z</time></trkpt><trkpt lat="44.4518637" lon="8.3311029"><ele>413.0</ele><time>2026-05-03T10:05:59.395Z</time></trkpt><trkpt lat="44.4518754" lon="8.3313431"><ele>417.3333333333333</ele><time>2026-05-03T10:06:00.396Z</time></trkpt><trkpt lat="44.4518888" lon="8.3315977"><ele>421.66666666666663</ele><time>2026-05-03T10:06:01.395Z</time></trkpt><trkpt lat="44.4519073" lon="8.3318556"><ele>426.0</ele><time>2026-05-03T10:06:02.396Z</time></trkpt><trkpt lat="44.4519258" lon="8.33211"><ele>426.33333333333337</ele><time>2026-05-03T10:06:03.395Z</time></trkpt><trkpt lat="44.4519417" lon="8.3323583"><ele>426.6666666666667</ele><time>2026-05-03T10:06:04.396Z</time></trkpt><trkpt lat="44.4519564" lon="8.3326075"><ele>427.0</ele><time>2026-05-03T10:06:05.395Z</time></trkpt><trkpt lat="44.4519633" lon="8.3328622"><ele>427.6666666666667</ele><time>2026-05-03T10:06:06.395Z</time></trkpt><trkpt lat="44.451961" lon="8.3331198"><ele>428.33333333333337</ele><time>2026-05-03T10:06:07.396Z</time></trkpt><trkpt lat="44.4519419" lon="8.3333738"><ele>429.0</ele><time>2026-05-03T10:06:08.396Z</time></trkpt><trkpt lat="44.4519115" lon="8.3336338"><ele>429.33333333333337</ele><time>2026-05-03T10:06:09.395Z</time></trkpt><trkpt lat="44.4518714" lon="8.3338946"><ele>429.6666666666667</ele><time>2026-05-03T10:06:10.396Z</time></trkpt><trkpt lat="44.4518353" lon="8.3341583"><ele>430.0</ele><time>2026-05-03T10:06:11.395Z</time></trkpt><trkpt lat="44.4517984" lon="8.3344237"><ele>430.0</ele><time>2026-05-03T10:06:12.395Z</time></trkpt><trkpt lat="44.4517539" lon="8.3346844"><ele>430.0</ele><time>2026-05-03T10:06:13.395Z</time></trkpt><trkpt lat="44.4517155" lon="8.3349313"><ele>430.0</ele><time>2026-05-03T10:06:14.396Z</time></trkpt><trkpt lat="44.4516743" lon="8.3351705"><ele>430.6666666666667</ele><time>2026-05-03T10:06:15.395Z</time></trkpt><trkpt lat="44.4516397" lon="8.3353885"><ele>431.33333333333337</ele><time>2026-05-03T10:06:16.395Z</time></trkpt><trkpt lat="44.4515929" lon="8.3355841"><ele>432.0</ele><time>2026-05-03T10:06:17.396Z</time></trkpt><trkpt lat="44.4515133" lon="8.3357607"><ele>430.66666666666663</ele><time>2026-05-03T10:06:18.395Z</time></trkpt><trkpt lat="44.4513982" lon="8.3359005"><ele>429.3333333333333</ele><time>2026-05-03T10:06:19.396Z</time></trkpt><trkpt lat="44.4512551" lon="8.3360011"><ele>428.0</ele><time>2026-05-03T10:06:20.395Z</time></trkpt><trkpt lat="44.4510998" lon="8.3360823"><ele>431.5</ele><time>2026-05-03T10:06:21.396Z</time></trkpt><trkpt lat="44.4509645" lon="8.3361837"><ele>435.0</ele><time>2026-05-03T10:06:22.396Z</time></trkpt><trkpt lat="44.4508559" lon="8.336319"><ele>438.5</ele><time>2026-05-03T10:06:23.395Z</time></trkpt><trkpt lat="44.4507907" lon="8.3364892"><ele>442.0</ele><time>2026-05-03T10:06:24.395Z</time></trkpt><trkpt lat="44.4507573" lon="8.3366986"><ele>442.0</ele><time>2026-05-03T10:06:25.395Z</time></trkpt><trkpt lat="44.4507559" lon="8.3369212"><ele>442.0</ele><time>2026-05-03T10:06:26.395Z</time></trkpt><trkpt lat="44.4507595" lon="8.337146"><ele>442.0</ele><time>2026-05-03T10:06:27.395Z</time></trkpt><trkpt lat="44.4507642" lon="8.3373684"><ele>442.0</ele><time>2026-05-03T10:06:28.395Z</time></trkpt><trkpt lat="44.4507663" lon="8.3375899"><ele>442.0</ele><time>2026-05-03T10:06:29.395Z</time></trkpt><trkpt lat="44.4507779" lon="8.3378061"><ele>442.0</ele><time>2026-05-03T10:06:30.396Z</time></trkpt><trkpt lat="44.4508082" lon="8.3380178"><ele>442.6666666666667</ele><time>2026-05-03T10:06:31.396Z</time></trkpt><trkpt lat="44.4508712" lon="8.3382201"><ele>443.33333333333337</ele><time>2026-05-03T10:06:32.395Z</time></trkpt><trkpt lat="44.4509663" lon="8.3384015"><ele>444.0</ele><time>2026-05-03T10:06:33.395Z</time></trkpt><trkpt lat="44.4510809" lon="8.3385812"><ele>444.0</ele><time>2026-05-03T10:06:34.396Z</time></trkpt><trkpt lat="44.4512055" lon="8.3387636"><ele>444.0</ele><time>2026-05-03T10:06:35.395Z</time></trkpt><trkpt lat="44.4513288" lon="8.33894"><ele>444.0</ele><time>2026-05-03T10:06:36.395Z</time></trkpt><trkpt lat="44.4514555" lon="8.3391223"><ele>443.33333333333337</ele><time>2026-05-03T10:06:37.396Z</time></trkpt><trkpt lat="44.4515876" lon="8.3392972"><ele>442.6666666666667</ele><time>2026-05-03T10:06:38.395Z</time></trkpt><trkpt lat="44.4517155" lon="8.3394769"><ele>442.0</ele><time>2026-05-03T10:06:39.395Z</time></trkpt><trkpt lat="44.4518317" lon="8.3396701"><ele>442.33333333333337</ele><time>2026-05-03T10:06:40.395Z</time></trkpt><trkpt lat="44.45193" lon="8.3398827"><ele>442.66666666666663</ele><time>2026-05-03T10:06:41.396Z</time></trkpt><trkpt lat="44.4520024" lon="8.3401193"><ele>443.0</ele><time>2026-05-03T10:06:42.396Z</time></trkpt><trkpt lat="44.4520446" lon="8.3403723"><ele>443.66666666666663</ele><time>2026-05-03T10:06:43.395Z</time></trkpt><trkpt lat="44.4520604" lon="8.3406348"><ele>444.33333333333337</ele><time>2026-05-03T10:06:44.395Z</time></trkpt><trkpt lat="44.4520479" lon="8.3408966"><ele>445.0</ele><time>2026-05-03T10:06:45.396Z</time></trkpt><trkpt lat="44.4520215" lon="8.3411478"><ele>445.33333333333337</ele><time>2026-05-03T10:06:46.395Z</time></trkpt><trkpt lat="44.4519881" lon="8.3413844"><ele>445.66666666666663</ele><time>2026-05-03T10:06:47.395Z</time></trkpt><trkpt lat="44.4519638" lon="8.3416069"><ele>446.0</ele><time>2026-05-03T10:06:48.395Z</time></trkpt><trkpt lat="44.4519611" lon="8.3418138"><ele>446.0</ele><time>2026-05-03T10:06:49.395Z</time></trkpt><trkpt lat="44.4519971" lon="8.3420102"><ele>446.0</ele><time>2026-05-03T10:06:50.395Z</time></trkpt><trkpt lat="44.4520648" lon="8.3421643"><ele>446.0</ele><time>2026-05-03T10:06:51.395Z</time></trkpt><trkpt lat="44.452162" lon="8.3422919"><ele>446.0</ele><time>2026-05-03T10:06:52.396Z</time></trkpt><trkpt lat="44.4522875" lon="8.342394"><ele>447.66666666666663</ele><time>2026-05-03T10:06:53.395Z</time></trkpt><trkpt lat="44.4524332" lon="8.3424711"><ele>449.33333333333337</ele><time>2026-05-03T10:06:54.396Z</time></trkpt><trkpt lat="44.4525893" lon="8.3425302"><ele>451.0</ele><time>2026-05-03T10:06:55.395Z</time></trkpt><trkpt lat="44.452749" lon="8.3425972"><ele>451.0</ele><time>2026-05-03T10:06:56.395Z</time></trkpt><trkpt lat="44.4529062" lon="8.3426636"><ele>451.0</ele><time>2026-05-03T10:06:57.396Z</time></trkpt><trkpt lat="44.4530572" lon="8.3427317"><ele>451.0</ele><time>2026-05-03T10:06:58.395Z</time></trkpt><trkpt lat="44.4532021" lon="8.3428071"><ele>451.0</ele><time>2026-05-03T10:06:59.395Z</time></trkpt><trkpt lat="44.4533162" lon="8.3429166"><ele>451.0</ele><time>2026-05-03T10:07:00.395Z</time></trkpt><trkpt lat="44.4534423" lon="8.3429981"><ele>451.0</ele><time>2026-05-03T10:07:01.395Z</time></trkpt><trkpt lat="44.4535736" lon="8.3430633"><ele>451.0</ele><time>2026-05-03T10:07:02.396Z</time></trkpt><trkpt lat="44.4537165" lon="8.3430998"><ele>451.25</ele><time>2026-05-03T10:07:03.395Z</time></trkpt><trkpt lat="44.4538586" lon="8.3431434"><ele>451.5</ele><time>2026-05-03T10:07:04.395Z</time></trkpt><trkpt lat="44.4539981" lon="8.3431833"><ele>451.75</ele><time>2026-05-03T10:07:05.396Z</time></trkpt><trkpt lat="44.4541407" lon="8.3432206"><ele>452.0</ele><time>2026-05-03T10:07:06.396Z</time></trkpt><trkpt lat="44.454282" lon="8.3432501"><ele>452.0</ele><time>2026-05-03T10:07:07.395Z</time></trkpt><trkpt lat="44.45443" lon="8.3432787"><ele>452.0</ele><time>2026-05-03T10:07:08.395Z</time></trkpt><trkpt lat="44.4545697" lon="8.3432992"><ele>452.0</ele><time>2026-05-03T10:07:09.395Z</time></trkpt><trkpt lat="44.4547023" lon="8.3433321"><ele>452.0</ele><time>2026-05-03T10:07:10.395Z</time></trkpt><trkpt lat="44.4548281" lon="8.343359"><ele>450.5</ele><time>2026-05-03T10:07:11.395Z</time></trkpt><trkpt lat="44.4549553" lon="8.3433974"><ele>449.0</ele><time>2026-05-03T10:07:12.396Z</time></trkpt><trkpt lat="44.455084" lon="8.3434702"><ele>447.5</ele><time>2026-05-03T10:07:13.396Z</time></trkpt><trkpt lat="44.4552063" lon="8.3435424"><ele>446.0</ele><time>2026-05-03T10:07:14.396Z</time></trkpt><trkpt lat="44.4553387" lon="8.3435839"><ele>445.5</ele><time>2026-05-03T10:07:15.395Z</time></trkpt><trkpt lat="44.4554779" lon="8.3436091"><ele>445.0</ele><time>2026-05-03T10:07:16.395Z</time></trkpt><trkpt lat="44.4556104" lon="8.3436464"><ele>444.5</ele><time>2026-05-03T10:07:17.396Z</time></trkpt><trkpt lat="44.4557293" lon="8.343715"><ele>444.0</ele><time>2026-05-03T10:07:18.395Z</time></trkpt><trkpt lat="44.4558378" lon="8.3438276"><ele>443.5</ele><time>2026-05-03T10:07:19.395Z</time></trkpt><trkpt lat="44.4559374" lon="8.3439689"><ele>443.0</ele><time>2026-05-03T10:07:20.395Z</time></trkpt><trkpt lat="44.4560101" lon="8.3441193"><ele>442.5</ele><time>2026-05-03T10:07:21.395Z</time></trkpt><trkpt lat="44.4560759" lon="8.3442562"><ele>442.0</ele><time>2026-05-03T10:07:22.396Z</time></trkpt><trkpt lat="44.4561568" lon="8.3443644"><ele>442.00000000000006</ele><time>2026-05-03T10:07:23.395Z</time></trkpt><trkpt lat="44.4562536" lon="8.344425"><ele>442.0</ele><time>2026-05-03T10:07:24.395Z</time></trkpt><trkpt lat="44.4563331" lon="8.3444673"><ele>442.0</ele><time>2026-05-03T10:07:25.396Z</time></trkpt><trkpt lat="44.4563919" lon="8.3445211"><ele>442.0</ele><time>2026-05-03T10:07:26.395Z</time></trkpt><trkpt lat="44.4564215" lon="8.3446138"><ele>442.00000000000006</ele><time>2026-05-03T10:07:27.395Z</time></trkpt><trkpt lat="44.4564055" lon="8.3447111"><ele>442.0</ele><time>2026-05-03T10:07:28.395Z</time></trkpt><trkpt lat="44.4563402" lon="8.3448063"><ele>439.5</ele><time>2026-05-03T10:07:29.395Z</time></trkpt><trkpt lat="44.4562405" lon="8.3449087"><ele>437.0</ele><time>2026-05-03T10:07:30.395Z</time></trkpt><trkpt lat="44.4561517" lon="8.3450263"><ele>434.5</ele><time>2026-05-03T10:07:31.395Z</time></trkpt><trkpt lat="44.4560638" lon="8.3451443"><ele>432.0</ele><time>2026-05-03T10:07:32.396Z</time></trkpt><trkpt lat="44.455997" lon="8.3452873"><ele>432.0</ele><time>2026-05-03T10:07:33.396Z</time></trkpt><trkpt lat="44.4559594" lon="8.3454624"><ele>432.0</ele><time>2026-05-03T10:07:34.395Z</time></trkpt><trkpt lat="44.4559609" lon="8.3456657"><ele>432.0</ele><time>2026-05-03T10:07:35.395Z</time></trkpt><trkpt lat="44.4559665" lon="8.345874"><ele>432.0</ele><time>2026-05-03T10:07:36.396Z</time></trkpt><trkpt lat="44.4559662" lon="8.3460755"><ele>430.25</ele><time>2026-05-03T10:07:37.396Z</time></trkpt><trkpt lat="44.4559684" lon="8.3462633"><ele>428.5</ele><time>2026-05-03T10:07:38.395Z</time></trkpt><trkpt lat="44.4559728" lon="8.3464341"><ele>426.75</ele><time>2026-05-03T10:07:39.395Z</time></trkpt><trkpt lat="44.4559783" lon="8.3465863"><ele>425.0</ele><time>2026-05-03T10:07:40.395Z</time></trkpt><trkpt lat="44.455999" lon="8.3467204"><ele>425.4</ele><time>2026-05-03T10:07:41.395Z</time></trkpt><trkpt lat="44.456059" lon="8.3468275"><ele>425.8</ele><time>2026-05-03T10:07:42.395Z</time></trkpt><trkpt lat="44.4561469" lon="8.3468864"><ele>426.20000000000005</ele><time>2026-05-03T10:07:43.395Z</time></trkpt><trkpt lat="44.4562659" lon="8.3469014"><ele>426.6</ele><time>2026-05-03T10:07:44.395Z</time></trkpt><trkpt lat="44.4563998" lon="8.346901"><ele>427.0</ele><time>2026-05-03T10:07:45.395Z</time></trkpt><trkpt lat="44.4565306" lon="8.3468985"><ele>427.0</ele><time>2026-05-03T10:07:46.395Z</time></trkpt><trkpt lat="44.4566437" lon="8.3468884"><ele>427.00000000000006</ele><time>2026-05-03T10:07:47.395Z</time></trkpt><trkpt lat="44.456738" lon="8.3468874"><ele>427.00000000000006</ele><time>2026-05-03T10:07:48.395Z</time></trkpt><trkpt lat="44.4567991" lon="8.346922"><ele>427.0</ele><time>2026-05-03T10:07:49.395Z</time></trkpt><trkpt lat="44.4568174" lon="8.3470872"><ele>427.0</ele><time>2026-05-03T10:07:51.395Z</time></trkpt><trkpt lat="44.4567555" lon="8.3471663"><ele>426.0</ele><time>2026-05-03T10:07:52.395Z</time></trkpt><trkpt lat="44.4566586" lon="8.3472463"><ele>425.0</ele><time>2026-05-03T10:07:53.395Z</time></trkpt><trkpt lat="44.4565464" lon="8.3473482"><ele>424.0</ele><time>2026-05-03T10:07:54.395Z</time></trkpt><trkpt lat="44.4564282" lon="8.3474517"><ele>423.0</ele><time>2026-05-03T10:07:55.395Z</time></trkpt><trkpt lat="44.4563085" lon="8.3475594"><ele>421.25</ele><time>2026-05-03T10:07:56.395Z</time></trkpt><trkpt lat="44.4561929" lon="8.3476572"><ele>419.5</ele><time>2026-05-03T10:07:57.395Z</time></trkpt><trkpt lat="44.4560873" lon="8.3477563"><ele>417.75</ele><time>2026-05-03T10:07:58.396Z</time></trkpt><trkpt lat="44.4559785" lon="8.3478565"><ele>416.0</ele><time>2026-05-03T10:07:59.396Z</time></trkpt><trkpt lat="44.4558853" lon="8.3479925"><ele>415.3333333333333</ele><time>2026-05-03T10:08:00.395Z</time></trkpt><trkpt lat="44.4558156" lon="8.3481625"><ele>414.66666666666663</ele><time>2026-05-03T10:08:01.396Z</time></trkpt><trkpt lat="44.4557684" lon="8.3483657"><ele>414.0</ele><time>2026-05-03T10:08:02.395Z</time></trkpt><trkpt lat="44.455747" lon="8.3485872"><ele>414.0</ele><time>2026-05-03T10:08:03.395Z</time></trkpt><trkpt lat="44.4557523" lon="8.3488211"><ele>414.0</ele><time>2026-05-03T10:08:04.395Z</time></trkpt><trkpt lat="44.455777" lon="8.3490587"><ele>414.0</ele><time>2026-05-03T10:08:05.395Z</time></trkpt><trkpt lat="44.4558314" lon="8.3492867"><ele>413.33333333333337</ele><time>2026-05-03T10:08:06.395Z</time></trkpt><trkpt lat="44.4558937" lon="8.3495122"><ele>412.6666666666667</ele><time>2026-05-03T10:08:07.396Z</time></trkpt><trkpt lat="44.4559548" lon="8.3497393"><ele>412.0</ele><time>2026-05-03T10:08:08.395Z</time></trkpt><trkpt lat="44.4560105" lon="8.3499659"><ele>411.33333333333337</ele><time>2026-05-03T10:08:09.395Z</time></trkpt><trkpt lat="44.4560745" lon="8.35019"><ele>410.66666666666663</ele><time>2026-05-03T10:08:10.395Z</time></trkpt><trkpt lat="44.4561523" lon="8.3504086"><ele>410.0</ele><time>2026-05-03T10:08:11.396Z</time></trkpt><trkpt lat="44.4562515" lon="8.3506163"><ele>410.3333333333333</ele><time>2026-05-03T10:08:12.395Z</time></trkpt><trkpt lat="44.4563611" lon="8.3508182"><ele>410.66666666666663</ele><time>2026-05-03T10:08:13.395Z</time></trkpt><trkpt lat="44.4564727" lon="8.3510236"><ele>411.0</ele><time>2026-05-03T10:08:14.395Z</time></trkpt><trkpt lat="44.4565825" lon="8.35124"><ele>407.5</ele><time>2026-05-03T10:08:15.395Z</time></trkpt><trkpt lat="44.4568063" lon="8.3516589"><ele>404.0</ele><time>2026-05-03T10:08:17.395Z</time></trkpt><trkpt lat="44.4569153" lon="8.3518586"><ele>404.0</ele><time>2026-05-03T10:08:18.395Z</time></trkpt><trkpt lat="44.4570255" lon="8.3520531"><ele>404.0</ele><time>2026-05-03T10:08:19.395Z</time></trkpt><trkpt lat="44.4571339" lon="8.3522564"><ele>404.0</ele><time>2026-05-03T10:08:20.396Z</time></trkpt><trkpt lat="44.457242" lon="8.3524564"><ele>405.0</ele><time>2026-05-03T10:08:21.395Z</time></trkpt><trkpt lat="44.4573453" lon="8.3526579"><ele>406.0</ele><time>2026-05-03T10:08:22.395Z</time></trkpt><trkpt lat="44.4574489" lon="8.3528637"><ele>407.0</ele><time>2026-05-03T10:08:23.395Z</time></trkpt><trkpt lat="44.457552" lon="8.3530725"><ele>405.0</ele><time>2026-05-03T10:08:24.395Z</time></trkpt><trkpt lat="44.4576452" lon="8.353287"><ele>403.0</ele><time>2026-05-03T10:08:25.395Z</time></trkpt><trkpt lat="44.4577182" lon="8.3535183"><ele>401.0</ele><time>2026-05-03T10:08:26.395Z</time></trkpt><trkpt lat="44.4577729" lon="8.3537531"><ele>401.66666666666663</ele><time>2026-05-03T10:08:27.395Z</time></trkpt><trkpt lat="44.4578184" lon="8.3539828"><ele>402.33333333333337</ele><time>2026-05-03T10:08:28.395Z</time></trkpt><trkpt lat="44.4578524" lon="8.3542021"><ele>403.0</ele><time>2026-05-03T10:08:29.395Z</time></trkpt><trkpt lat="44.457853" lon="8.3544187"><ele>403.0</ele><time>2026-05-03T10:08:30.396Z</time></trkpt><trkpt lat="44.457823" lon="8.3546285"><ele>403.0</ele><time>2026-05-03T10:08:31.395Z</time></trkpt><trkpt lat="44.4577529" lon="8.3548255"><ele>403.0</ele><time>2026-05-03T10:08:32.395Z</time></trkpt><trkpt lat="44.457642" lon="8.3550016"><ele>402.6666666666667</ele><time>2026-05-03T10:08:33.396Z</time></trkpt><trkpt lat="44.4575079" lon="8.3551718"><ele>402.33333333333337</ele><time>2026-05-03T10:08:34.395Z</time></trkpt><trkpt lat="44.4573649" lon="8.3553586"><ele>402.0</ele><time>2026-05-03T10:08:35.395Z</time></trkpt><trkpt lat="44.4572178" lon="8.3555531"><ele>406.0</ele><time>2026-05-03T10:08:36.395Z</time></trkpt><trkpt lat="44.4570708" lon="8.3557439"><ele>410.0</ele><time>2026-05-03T10:08:37.396Z</time></trkpt><trkpt lat="44.4569256" lon="8.3559318"><ele>414.0</ele><time>2026-05-03T10:08:38.395Z</time></trkpt><trkpt lat="44.4567816" lon="8.3561129"><ele>414.0</ele><time>2026-05-03T10:08:39.395Z</time></trkpt><trkpt lat="44.4566437" lon="8.3562961"><ele>414.0</ele><time>2026-05-03T10:08:40.395Z</time></trkpt><trkpt lat="44.4565191" lon="8.3564942"><ele>414.0</ele><time>2026-05-03T10:08:41.395Z</time></trkpt><trkpt lat="44.4564083" lon="8.3567121"><ele>415.33333333333337</ele><time>2026-05-03T10:08:42.395Z</time></trkpt><trkpt lat="44.4563123" lon="8.3569457"><ele>416.6666666666667</ele><time>2026-05-03T10:08:43.395Z</time></trkpt><trkpt lat="44.45623" lon="8.3571951"><ele>418.0</ele><time>2026-05-03T10:08:44.396Z</time></trkpt><trkpt lat="44.4561709" lon="8.3574796"><ele>414.6666666666667</ele><time>2026-05-03T10:08:45.396Z</time></trkpt><trkpt lat="44.456102" lon="8.3577593"><ele>411.33333333333337</ele><time>2026-05-03T10:08:46.396Z</time></trkpt><trkpt lat="44.456031" lon="8.3580474"><ele>408.0</ele><time>2026-05-03T10:08:47.395Z</time></trkpt><trkpt lat="44.4559669" lon="8.3583428"><ele>406.0</ele><time>2026-05-03T10:08:48.395Z</time></trkpt><trkpt lat="44.4559075" lon="8.3586337"><ele>404.0</ele><time>2026-05-03T10:08:49.395Z</time></trkpt><trkpt lat="44.4558439" lon="8.3589241"><ele>402.0</ele><time>2026-05-03T10:08:50.395Z</time></trkpt><trkpt lat="44.4557825" lon="8.3592171"><ele>401.33333333333337</ele><time>2026-05-03T10:08:51.395Z</time></trkpt><trkpt lat="44.4557163" lon="8.3595042"><ele>400.6666666666667</ele><time>2026-05-03T10:08:52.395Z</time></trkpt><trkpt lat="44.4556515" lon="8.3597871"><ele>400.0</ele><time>2026-05-03T10:08:53.395Z</time></trkpt><trkpt lat="44.4555863" lon="8.3600666"><ele>400.0</ele><time>2026-05-03T10:08:54.396Z</time></trkpt><trkpt lat="44.4555192" lon="8.3603441"><ele>400.0</ele><time>2026-05-03T10:08:55.395Z</time></trkpt><trkpt lat="44.4554545" lon="8.3606213"><ele>400.0</ele><time>2026-05-03T10:08:56.395Z</time></trkpt><trkpt lat="44.4553974" lon="8.3608919"><ele>400.33333333333337</ele><time>2026-05-03T10:08:57.395Z</time></trkpt><trkpt lat="44.4553349" lon="8.3611519"><ele>400.66666666666663</ele><time>2026-05-03T10:08:58.395Z</time></trkpt><trkpt lat="44.4552814" lon="8.3614093"><ele>401.0</ele><time>2026-05-03T10:08:59.395Z</time></trkpt><trkpt lat="44.4552255" lon="8.3616539"><ele>401.0</ele><time>2026-05-03T10:09:00.395Z</time></trkpt><trkpt lat="44.4551886" lon="8.3619064"><ele>401.0</ele><time>2026-05-03T10:09:01.396Z</time></trkpt><trkpt lat="44.4551871" lon="8.362175"><ele>401.0</ele><time>2026-05-03T10:09:02.395Z</time></trkpt><trkpt lat="44.4552188" lon="8.3624529"><ele>401.3333333333333</ele><time>2026-05-03T10:09:03.396Z</time></trkpt><trkpt lat="44.4552712" lon="8.3627347"><ele>401.66666666666663</ele><time>2026-05-03T10:09:04.395Z</time></trkpt><trkpt lat="44.4553241" lon="8.3630235"><ele>402.0</ele><time>2026-05-03T10:09:05.396Z</time></trkpt><trkpt lat="44.4553798" lon="8.3633196"><ele>402.0</ele><time>2026-05-03T10:09:06.395Z</time></trkpt><trkpt lat="44.4554296" lon="8.3636203"><ele>402.0</ele><time>2026-05-03T10:09:07.395Z</time></trkpt><trkpt lat="44.455479" lon="8.3639207"><ele>402.0</ele><time>2026-05-03T10:09:08.395Z</time></trkpt><trkpt lat="44.4555359" lon="8.364215"><ele>402.33333333333337</ele><time>2026-05-03T10:09:09.395Z</time></trkpt><trkpt lat="44.4555954" lon="8.3645068"><ele>402.6666666666667</ele><time>2026-05-03T10:09:10.395Z</time></trkpt><trkpt lat="44.4556488" lon="8.364796"><ele>403.0</ele><time>2026-05-03T10:09:11.396Z</time></trkpt><trkpt lat="44.4557012" lon="8.3650793"><ele>403.0</ele><time>2026-05-03T10:09:12.395Z</time></trkpt><trkpt lat="44.4557518" lon="8.3653623"><ele>403.0</ele><time>2026-05-03T10:09:13.395Z</time></trkpt><trkpt lat="44.455794" lon="8.3656416"><ele>403.0</ele><time>2026-05-03T10:09:14.395Z</time></trkpt><trkpt lat="44.4558286" lon="8.3659166"><ele>403.6666666666667</ele><time>2026-05-03T10:09:15.396Z</time></trkpt><trkpt lat="44.4558594" lon="8.3661887"><ele>404.33333333333337</ele><time>2026-05-03T10:09:16.395Z</time></trkpt><trkpt lat="44.4558844" lon="8.3664596"><ele>405.0</ele><time>2026-05-03T10:09:17.395Z</time></trkpt><trkpt lat="44.4559103" lon="8.3667289"><ele>405.33333333333337</ele><time>2026-05-03T10:09:18.395Z</time></trkpt><trkpt lat="44.4559365" lon="8.3669989"><ele>405.6666666666667</ele><time>2026-05-03T10:09:19.395Z</time></trkpt><trkpt lat="44.4559642" lon="8.3672695"><ele>406.0</ele><time>2026-05-03T10:09:20.395Z</time></trkpt><trkpt lat="44.4559879" lon="8.3675369"><ele>406.0</ele><time>2026-05-03T10:09:21.396Z</time></trkpt><trkpt lat="44.4560154" lon="8.3678033"><ele>406.0</ele><time>2026-05-03T10:09:22.396Z</time></trkpt><trkpt lat="44.4560384" lon="8.3680647"><ele>406.0</ele><time>2026-05-03T10:09:23.395Z</time></trkpt><trkpt lat="44.4560588" lon="8.3683252"><ele>405.6666666666667</ele><time>2026-05-03T10:09:24.395Z</time></trkpt><trkpt lat="44.456072" lon="8.3685873"><ele>405.33333333333337</ele><time>2026-05-03T10:09:25.395Z</time></trkpt><trkpt lat="44.4560786" lon="8.3688531"><ele>405.0</ele><time>2026-05-03T10:09:26.396Z</time></trkpt><trkpt lat="44.4560842" lon="8.3691224"><ele>405.0</ele><time>2026-05-03T10:09:27.395Z</time></trkpt><trkpt lat="44.4560841" lon="8.3694034"><ele>405.0</ele><time>2026-05-03T10:09:28.395Z</time></trkpt><trkpt lat="44.4560819" lon="8.3696956"><ele>405.0</ele><time>2026-05-03T10:09:29.395Z</time></trkpt><trkpt lat="44.4560792" lon="8.3699907"><ele>405.66666666666663</ele><time>2026-05-03T10:09:30.395Z</time></trkpt><trkpt lat="44.4560816" lon="8.3702875"><ele>406.3333333333333</ele><time>2026-05-03T10:09:31.395Z</time></trkpt><trkpt lat="44.4560808" lon="8.3705875"><ele>407.0</ele><time>2026-05-03T10:09:32.395Z</time></trkpt><trkpt lat="44.4560775" lon="8.3708797"><ele>407.66666666666663</ele><time>2026-05-03T10:09:33.396Z</time></trkpt><trkpt lat="44.456076" lon="8.371161"><ele>408.33333333333337</ele><time>2026-05-03T10:09:34.395Z</time></trkpt><trkpt lat="44.4560762" lon="8.3714346"><ele>409.0</ele><time>2026-05-03T10:09:35.395Z</time></trkpt><trkpt lat="44.4560799" lon="8.3717"><ele>409.0</ele><time>2026-05-03T10:09:36.396Z</time></trkpt><trkpt lat="44.4560979" lon="8.3719613"><ele>409.0</ele><time>2026-05-03T10:09:37.396Z</time></trkpt><trkpt lat="44.4561388" lon="8.3722171"><ele>409.0</ele><time>2026-05-03T10:09:38.395Z</time></trkpt><trkpt lat="44.4561979" lon="8.3724628"><ele>409.0</ele><time>2026-05-03T10:09:39.395Z</time></trkpt><trkpt lat="44.4562687" lon="8.3727053"><ele>409.0</ele><time>2026-05-03T10:09:40.395Z</time></trkpt><trkpt lat="44.4563591" lon="8.3729379"><ele>409.0</ele><time>2026-05-03T10:09:41.395Z</time></trkpt><trkpt lat="44.4564488" lon="8.3731756"><ele>410.6666666666667</ele><time>2026-05-03T10:09:42.395Z</time></trkpt><trkpt lat="44.4565395" lon="8.3734068"><ele>412.33333333333337</ele><time>2026-05-03T10:09:43.396Z</time></trkpt><trkpt lat="44.456626" lon="8.3736335"><ele>414.0</ele><time>2026-05-03T10:09:44.395Z</time></trkpt><trkpt lat="44.456709" lon="8.3738652"><ele>414.0</ele><time>2026-05-03T10:09:45.395Z</time></trkpt><trkpt lat="44.4567757" lon="8.3741065"><ele>414.0</ele><time>2026-05-03T10:09:46.395Z</time></trkpt><trkpt lat="44.4568301" lon="8.3743628"><ele>414.0</ele><time>2026-05-03T10:09:47.395Z</time></trkpt><trkpt lat="44.4568875" lon="8.3746158"><ele>413.33333333333337</ele><time>2026-05-03T10:09:48.396Z</time></trkpt><trkpt lat="44.4569521" lon="8.3748657"><ele>412.6666666666667</ele><time>2026-05-03T10:09:49.395Z</time></trkpt><trkpt lat="44.4570434" lon="8.3751007"><ele>412.0</ele><time>2026-05-03T10:09:50.396Z</time></trkpt><trkpt lat="44.4571506" lon="8.3753205"><ele>413.0</ele><time>2026-05-03T10:09:51.395Z</time></trkpt><trkpt lat="44.4572736" lon="8.375535"><ele>414.0</ele><time>2026-05-03T10:09:52.396Z</time></trkpt><trkpt lat="44.4574006" lon="8.3757399"><ele>415.0</ele><time>2026-05-03T10:09:53.395Z</time></trkpt><trkpt lat="44.4575363" lon="8.3759405"><ele>415.0</ele><time>2026-05-03T10:09:54.395Z</time></trkpt><trkpt lat="44.4576876" lon="8.3761332"><ele>415.0</ele><time>2026-05-03T10:09:55.396Z</time></trkpt><trkpt lat="44.4578437" lon="8.3763235"><ele>415.0</ele><time>2026-05-03T10:09:56.395Z</time></trkpt><trkpt lat="44.4580085" lon="8.3765204"><ele>418.5</ele><time>2026-05-03T10:09:57.395Z</time></trkpt><trkpt lat="44.4581778" lon="8.3767215"><ele>422.0</ele><time>2026-05-03T10:09:58.395Z</time></trkpt><trkpt lat="44.4583542" lon="8.3769287"><ele>422.0</ele><time>2026-05-03T10:09:59.396Z</time></trkpt><trkpt lat="44.4585278" lon="8.3771266"><ele>422.0</ele><time>2026-05-03T10:10:00.395Z</time></trkpt><trkpt lat="44.458703" lon="8.3773206"><ele>422.0</ele><time>2026-05-03T10:10:01.395Z</time></trkpt><trkpt lat="44.4588756" lon="8.3775135"><ele>421.66666666666663</ele><time>2026-05-03T10:10:02.395Z</time></trkpt><trkpt lat="44.4590435" lon="8.377707"><ele>421.33333333333337</ele><time>2026-05-03T10:10:03.396Z</time></trkpt><trkpt lat="44.4592086" lon="8.3779016"><ele>421.0</ele><time>2026-05-03T10:10:04.396Z</time></trkpt><trkpt lat="44.4593802" lon="8.3780946"><ele>421.0</ele><time>2026-05-03T10:10:05.396Z</time></trkpt><trkpt lat="44.4595546" lon="8.3782912"><ele>421.0</ele><time>2026-05-03T10:10:06.396Z</time></trkpt><trkpt lat="44.4597232" lon="8.3784852"><ele>421.0</ele><time>2026-05-03T10:10:07.395Z</time></trkpt><trkpt lat="44.4598846" lon="8.3786875"><ele>422.33333333333337</ele><time>2026-05-03T10:10:08.395Z</time></trkpt><trkpt lat="44.4600374" lon="8.3789064"><ele>423.66666666666663</ele><time>2026-05-03T10:10:09.396Z</time></trkpt><trkpt lat="44.4601794" lon="8.3791381"><ele>425.0</ele><time>2026-05-03T10:10:10.395Z</time></trkpt><trkpt lat="44.4603161" lon="8.3793686"><ele>425.0</ele><time>2026-05-03T10:10:11.396Z</time></trkpt><trkpt lat="44.4604427" lon="8.3795949"><ele>425.0</ele><time>2026-05-03T10:10:12.395Z</time></trkpt><trkpt lat="44.4605568" lon="8.3798163"><ele>425.0</ele><time>2026-05-03T10:10:13.395Z</time></trkpt><trkpt lat="44.4606506" lon="8.3800405"><ele>426.0</ele><time>2026-05-03T10:10:14.395Z</time></trkpt><trkpt lat="44.460721" lon="8.3802746"><ele>427.0</ele><time>2026-05-03T10:10:15.395Z</time></trkpt><trkpt lat="44.4607805" lon="8.3805199"><ele>428.0</ele><time>2026-05-03T10:10:16.396Z</time></trkpt><trkpt lat="44.4608289" lon="8.3807693"><ele>428.0</ele><time>2026-05-03T10:10:17.395Z</time></trkpt><trkpt lat="44.4608736" lon="8.3810196"><ele>428.0</ele><time>2026-05-03T10:10:18.396Z</time></trkpt><trkpt lat="44.4609146" lon="8.3812708"><ele>428.0</ele><time>2026-05-03T10:10:19.395Z</time></trkpt><trkpt lat="44.4609457" lon="8.3815155"><ele>427.66666666666663</ele><time>2026-05-03T10:10:20.396Z</time></trkpt><trkpt lat="44.4609635" lon="8.3817652"><ele>427.33333333333337</ele><time>2026-05-03T10:10:21.395Z</time></trkpt><trkpt lat="44.4609628" lon="8.3820124"><ele>427.0</ele><time>2026-05-03T10:10:22.395Z</time></trkpt><trkpt lat="44.4609499" lon="8.3822612"><ele>427.0</ele><time>2026-05-03T10:10:23.395Z</time></trkpt><trkpt lat="44.4609162" lon="8.3825115"><ele>427.0</ele><time>2026-05-03T10:10:24.395Z</time></trkpt><trkpt lat="44.4608632" lon="8.3827622"><ele>427.0</ele><time>2026-05-03T10:10:25.396Z</time></trkpt><trkpt lat="44.46079" lon="8.3830103"><ele>429.0</ele><time>2026-05-03T10:10:26.395Z</time></trkpt><trkpt lat="44.4607073" lon="8.3832555"><ele>431.0</ele><time>2026-05-03T10:10:27.395Z</time></trkpt><trkpt lat="44.4606135" lon="8.3834997"><ele>433.0</ele><time>2026-05-03T10:10:28.395Z</time></trkpt><trkpt lat="44.4605107" lon="8.3837451"><ele>432.0</ele><time>2026-05-03T10:10:29.395Z</time></trkpt><trkpt lat="44.4604066" lon="8.3839971"><ele>431.0</ele><time>2026-05-03T10:10:30.395Z</time></trkpt><trkpt lat="44.4603035" lon="8.3842504"><ele>430.0</ele><time>2026-05-03T10:10:31.395Z</time></trkpt><trkpt lat="44.4601985" lon="8.3845062"><ele>432.0</ele><time>2026-05-03T10:10:32.396Z</time></trkpt><trkpt lat="44.4600954" lon="8.3847615"><ele>434.0</ele><time>2026-05-03T10:10:33.395Z</time></trkpt><trkpt lat="44.4599911" lon="8.3850168"><ele>436.0</ele><time>2026-05-03T10:10:34.396Z</time></trkpt><trkpt lat="44.4598963" lon="8.3852736"><ele>439.33333333333337</ele><time>2026-05-03T10:10:35.396Z</time></trkpt><trkpt lat="44.4598194" lon="8.3855315"><ele>442.66666666666663</ele><time>2026-05-03T10:10:36.395Z</time></trkpt><trkpt lat="44.459766" lon="8.3858007"><ele>446.0</ele><time>2026-05-03T10:10:37.395Z</time></trkpt><trkpt lat="44.4597193" lon="8.3860756"><ele>446.0</ele><time>2026-05-03T10:10:38.395Z</time></trkpt><trkpt lat="44.4596798" lon="8.3863388"><ele>446.0</ele><time>2026-05-03T10:10:39.395Z</time></trkpt><trkpt lat="44.4596442" lon="8.3865972"><ele>446.0</ele><time>2026-05-03T10:10:40.395Z</time></trkpt><trkpt lat="44.4596057" lon="8.3868409"><ele>443.3333333333333</ele><time>2026-05-03T10:10:41.395Z</time></trkpt><trkpt lat="44.4595511" lon="8.3870679"><ele>440.66666666666663</ele><time>2026-05-03T10:10:42.396Z</time></trkpt><trkpt lat="44.4594684" lon="8.3872806"><ele>438.0</ele><time>2026-05-03T10:10:43.395Z</time></trkpt><trkpt lat="44.4593549" lon="8.3874744"><ele>438.0</ele><time>2026-05-03T10:10:44.396Z</time></trkpt><trkpt lat="44.4592086" lon="8.3876363"><ele>438.0</ele><time>2026-05-03T10:10:45.396Z</time></trkpt><trkpt lat="44.4590382" lon="8.3877688"><ele>438.0</ele><time>2026-05-03T10:10:46.395Z</time></trkpt><trkpt lat="44.4588562" lon="8.3878648"><ele>439.0</ele><time>2026-05-03T10:10:47.395Z</time></trkpt><trkpt lat="44.4586669" lon="8.3879263"><ele>440.0</ele><time>2026-05-03T10:10:48.395Z</time></trkpt><trkpt lat="44.4584744" lon="8.38795"><ele>441.0</ele><time>2026-05-03T10:10:49.395Z</time></trkpt><trkpt lat="44.4582803" lon="8.3879667"><ele>441.33333333333337</ele><time>2026-05-03T10:10:50.395Z</time></trkpt><trkpt lat="44.4580951" lon="8.3880151"><ele>441.6666666666667</ele><time>2026-05-03T10:10:51.395Z</time></trkpt><trkpt lat="44.4579184" lon="8.3881034"><ele>442.0</ele><time>2026-05-03T10:10:52.395Z</time></trkpt><trkpt lat="44.4577544" lon="8.3882352"><ele>442.0</ele><time>2026-05-03T10:10:53.396Z</time></trkpt><trkpt lat="44.4576067" lon="8.3884095"><ele>442.0</ele><time>2026-05-03T10:10:54.395Z</time></trkpt><trkpt lat="44.4574626" lon="8.3885867"><ele>442.0</ele><time>2026-05-03T10:10:55.395Z</time></trkpt><trkpt lat="44.4573768" lon="8.3888511"><ele>444.33333333333337</ele><time>2026-05-03T10:10:56.395Z</time></trkpt><trkpt lat="44.4573001" lon="8.3891298"><ele>446.66666666666663</ele><time>2026-05-03T10:10:57.395Z</time></trkpt><trkpt lat="44.4572157" lon="8.3893956"><ele>449.0</ele><time>2026-05-03T10:10:58.396Z</time></trkpt><trkpt lat="44.4571204" lon="8.3896576"><ele>448.3333333333333</ele><time>2026-05-03T10:10:59.395Z</time></trkpt><trkpt lat="44.4570009" lon="8.3898908"><ele>447.66666666666663</ele><time>2026-05-03T10:11:00.395Z</time></trkpt><trkpt lat="44.4568546" lon="8.390092"><ele>447.0</ele><time>2026-05-03T10:11:01.395Z</time></trkpt><trkpt lat="44.4566725" lon="8.390262"><ele>447.0</ele><time>2026-05-03T10:11:02.395Z</time></trkpt><trkpt lat="44.4564741" lon="8.3904136"><ele>447.0</ele><time>2026-05-03T10:11:03.395Z</time></trkpt><trkpt lat="44.4562814" lon="8.3905634"><ele>447.0</ele><time>2026-05-03T10:11:04.395Z</time></trkpt><trkpt lat="44.4560937" lon="8.3907055"><ele>447.33333333333337</ele><time>2026-05-03T10:11:05.395Z</time></trkpt><trkpt lat="44.4559106" lon="8.3908308"><ele>447.6666666666667</ele><time>2026-05-03T10:11:06.395Z</time></trkpt><trkpt lat="44.4557186" lon="8.3909242"><ele>448.0</ele><time>2026-05-03T10:11:07.395Z</time></trkpt><trkpt lat="44.455516" lon="8.3909914"><ele>448.33333333333337</ele><time>2026-05-03T10:11:08.395Z</time></trkpt><trkpt lat="44.4553089" lon="8.3910574"><ele>448.66666666666663</ele><time>2026-05-03T10:11:09.395Z</time></trkpt><trkpt lat="44.4551038" lon="8.3911208"><ele>449.0</ele><time>2026-05-03T10:11:10.395Z</time></trkpt><trkpt lat="44.4549" lon="8.3911842"><ele>449.0</ele><time>2026-05-03T10:11:11.395Z</time></trkpt><trkpt lat="44.4547013" lon="8.3912429"><ele>449.0</ele><time>2026-05-03T10:11:12.395Z</time></trkpt><trkpt lat="44.4545065" lon="8.391297"><ele>449.0</ele><time>2026-05-03T10:11:13.395Z</time></trkpt><trkpt lat="44.4543159" lon="8.3913568"><ele>448.3333333333333</ele><time>2026-05-03T10:11:14.395Z</time></trkpt><trkpt lat="44.4541267" lon="8.3914409"><ele>447.66666666666663</ele><time>2026-05-03T10:11:15.396Z</time></trkpt><trkpt lat="44.4539445" lon="8.3915581"><ele>447.0</ele><time>2026-05-03T10:11:16.395Z</time></trkpt><trkpt lat="44.4537723" lon="8.3917191"><ele>448.33333333333337</ele><time>2026-05-03T10:11:17.395Z</time></trkpt><trkpt lat="44.4536052" lon="8.3919079"><ele>449.6666666666667</ele><time>2026-05-03T10:11:18.395Z</time></trkpt><trkpt lat="44.4534385" lon="8.3921085"><ele>451.0</ele><time>2026-05-03T10:11:19.395Z</time></trkpt><trkpt lat="44.453271" lon="8.3922963"><ele>451.0</ele><time>2026-05-03T10:11:20.396Z</time></trkpt><trkpt lat="44.4531029" lon="8.3924599"><ele>451.0</ele><time>2026-05-03T10:11:21.395Z</time></trkpt><trkpt lat="44.4529326" lon="8.3925823"><ele>451.0</ele><time>2026-05-03T10:11:22.395Z</time></trkpt><trkpt lat="44.4527621" lon="8.3926674"><ele>450.6666666666667</ele><time>2026-05-03T10:11:23.395Z</time></trkpt><trkpt lat="44.4525995" lon="8.3927338"><ele>450.33333333333337</ele><time>2026-05-03T10:11:24.395Z</time></trkpt><trkpt lat="44.4524492" lon="8.3927948"><ele>450.0</ele><time>2026-05-03T10:11:25.395Z</time></trkpt><trkpt lat="44.4523144" lon="8.392852"><ele>450.0</ele><time>2026-05-03T10:11:26.395Z</time></trkpt><trkpt lat="44.452193" lon="8.3929167"><ele>450.0</ele><time>2026-05-03T10:11:27.396Z</time></trkpt><trkpt lat="44.4520767" lon="8.392989"><ele>450.0</ele><time>2026-05-03T10:11:28.395Z</time></trkpt><trkpt lat="44.4519715" lon="8.3930759"><ele>450.0</ele><time>2026-05-03T10:11:29.395Z</time></trkpt><trkpt lat="44.4518643" lon="8.3931784"><ele>450.0</ele><time>2026-05-03T10:11:30.396Z</time></trkpt><trkpt lat="44.4517591" lon="8.3932797"><ele>450.0</ele><time>2026-05-03T10:11:31.395Z</time></trkpt><trkpt lat="44.4516612" lon="8.393378"><ele>450.0</ele><time>2026-05-03T10:11:32.396Z</time></trkpt><trkpt lat="44.451579" lon="8.3934626"><ele>450.0</ele><time>2026-05-03T10:11:33.396Z</time></trkpt><trkpt lat="44.45149" lon="8.3935101"><ele>450.0</ele><time>2026-05-03T10:11:34.396Z</time></trkpt><trkpt lat="44.4513859" lon="8.3935108"><ele>450.25</ele><time>2026-05-03T10:11:35.396Z</time></trkpt><trkpt lat="44.4512792" lon="8.3934818"><ele>450.5</ele><time>2026-05-03T10:11:36.396Z</time></trkpt><trkpt lat="44.4511745" lon="8.3934225"><ele>450.75</ele><time>2026-05-03T10:11:37.395Z</time></trkpt><trkpt lat="44.4510611" lon="8.3933713"><ele>451.0</ele><time>2026-05-03T10:11:38.396Z</time></trkpt><trkpt lat="44.4509393" lon="8.3933519"><ele>451.0</ele><time>2026-05-03T10:11:39.395Z</time></trkpt><trkpt lat="44.4508105" lon="8.3933556"><ele>451.0</ele><time>2026-05-03T10:11:40.395Z</time></trkpt><trkpt lat="44.4506766" lon="8.3933681"><ele>451.0</ele><time>2026-05-03T10:11:41.395Z</time></trkpt><trkpt lat="44.4505426" lon="8.39338"><ele>451.0</ele><time>2026-05-03T10:11:42.395Z</time></trkpt><trkpt lat="44.4504056" lon="8.3933958"><ele>451.25</ele><time>2026-05-03T10:11:43.395Z</time></trkpt><trkpt lat="44.4502724" lon="8.3934064"><ele>451.5</ele><time>2026-05-03T10:11:44.395Z</time></trkpt><trkpt lat="44.4501388" lon="8.3934207"><ele>451.75</ele><time>2026-05-03T10:11:45.395Z</time></trkpt><trkpt lat="44.450011" lon="8.3934306"><ele>452.0</ele><time>2026-05-03T10:11:46.395Z</time></trkpt><trkpt lat="44.449889" lon="8.3934387"><ele>452.0</ele><time>2026-05-03T10:11:47.395Z</time></trkpt><trkpt lat="44.449766" lon="8.3934514"><ele>452.0</ele><time>2026-05-03T10:11:48.395Z</time></trkpt><trkpt lat="44.4496438" lon="8.3934718"><ele>452.0</ele><time>2026-05-03T10:11:49.395Z</time></trkpt><trkpt lat="44.4495438" lon="8.3935604"><ele>452.0</ele><time>2026-05-03T10:11:50.396Z</time></trkpt><trkpt lat="44.4494409" lon="8.3936137"><ele>452.40000000000003</ele><time>2026-05-03T10:11:51.395Z</time></trkpt><trkpt lat="44.4493389" lon="8.3936834"><ele>452.80000000000007</ele><time>2026-05-03T10:11:52.395Z</time></trkpt><trkpt lat="44.4492443" lon="8.3937464"><ele>453.2</ele><time>2026-05-03T10:11:53.395Z</time></trkpt><trkpt lat="44.4491506" lon="8.3938168"><ele>453.6</ele><time>2026-05-03T10:11:54.395Z</time></trkpt><trkpt lat="44.4490584" lon="8.3938858"><ele>454.0</ele><time>2026-05-03T10:11:55.395Z</time></trkpt><trkpt lat="44.4489583" lon="8.3939412"><ele>454.0</ele><time>2026-05-03T10:11:56.396Z</time></trkpt><trkpt lat="44.4488635" lon="8.3940025"><ele>454.0</ele><time>2026-05-03T10:11:57.395Z</time></trkpt><trkpt lat="44.4487713" lon="8.3940689"><ele>454.0</ele><time>2026-05-03T10:11:58.395Z</time></trkpt><trkpt lat="44.4486806" lon="8.3941329"><ele>454.0</ele><time>2026-05-03T10:11:59.395Z</time></trkpt><trkpt lat="44.4485861" lon="8.3941944"><ele>454.0</ele><time>2026-05-03T10:12:00.395Z</time></trkpt><trkpt lat="44.4484887" lon="8.3942508"><ele>454.0</ele><time>2026-05-03T10:12:01.395Z</time></trkpt><trkpt lat="44.4483869" lon="8.3942946"><ele>454.0</ele><time>2026-05-03T10:12:02.396Z</time></trkpt><trkpt lat="44.4482836" lon="8.3943247"><ele>454.0</ele><time>2026-05-03T10:12:03.395Z</time></trkpt><trkpt lat="44.4481876" lon="8.3943478"><ele>454.0</ele><time>2026-05-03T10:12:04.396Z</time></trkpt><trkpt lat="44.4480929" lon="8.3943726"><ele>454.0</ele><time>2026-05-03T10:12:05.395Z</time></trkpt><trkpt lat="44.4479977" lon="8.3943945"><ele>454.6</ele><time>2026-05-03T10:12:06.395Z</time></trkpt><trkpt lat="44.4478994" lon="8.394416"><ele>455.2</ele><time>2026-05-03T10:12:07.395Z</time></trkpt><trkpt lat="44.447805" lon="8.3944416"><ele>455.80000000000007</ele><time>2026-05-03T10:12:08.395Z</time></trkpt><trkpt lat="44.4477086" lon="8.3944697"><ele>456.40000000000003</ele><time>2026-05-03T10:12:09.395Z</time></trkpt><trkpt lat="44.4476168" lon="8.3945151"><ele>457.0</ele><time>2026-05-03T10:12:10.396Z</time></trkpt><trkpt lat="44.4475359" lon="8.3945848"><ele>457.00000000000006</ele><time>2026-05-03T10:12:11.395Z</time></trkpt><trkpt lat="44.4474628" lon="8.394656"><ele>457.0</ele><time>2026-05-03T10:12:12.395Z</time></trkpt><trkpt lat="44.4474303" lon="8.394758"><ele>457.0</ele><time>2026-05-03T10:12:13.395Z</time></trkpt><trkpt lat="44.4474303" lon="8.3948689"><ele>457.0</ele><time>2026-05-03T10:12:14.395Z</time></trkpt><trkpt lat="44.4474565" lon="8.3949853"><ele>457.00000000000006</ele><time>2026-05-03T10:12:15.395Z</time></trkpt><trkpt lat="44.4474835" lon="8.395112"><ele>457.0</ele><time>2026-05-03T10:12:16.395Z</time></trkpt><trkpt lat="44.4475139" lon="8.3952566"><ele>457.20000000000005</ele><time>2026-05-03T10:12:17.396Z</time></trkpt><trkpt lat="44.4475427" lon="8.3954086"><ele>457.40000000000003</ele><time>2026-05-03T10:12:18.396Z</time></trkpt><trkpt lat="44.4475713" lon="8.3955585"><ele>457.59999999999997</ele><time>2026-05-03T10:12:19.395Z</time></trkpt><trkpt lat="44.4475985" lon="8.3957101"><ele>457.79999999999995</ele><time>2026-05-03T10:12:20.396Z</time></trkpt><trkpt lat="44.4476155" lon="8.3958582"><ele>458.0</ele><time>2026-05-03T10:12:21.395Z</time></trkpt><trkpt lat="44.4476275" lon="8.3960126"><ele>458.75</ele><time>2026-05-03T10:12:22.395Z</time></trkpt><trkpt lat="44.4476342" lon="8.3961656"><ele>459.5</ele><time>2026-05-03T10:12:23.395Z</time></trkpt><trkpt lat="44.4476333" lon="8.3963207"><ele>460.25</ele><time>2026-05-03T10:12:24.395Z</time></trkpt><trkpt lat="44.44763" lon="8.396488"><ele>461.0</ele><time>2026-05-03T10:12:25.395Z</time></trkpt><trkpt lat="44.4476081" lon="8.3966604"><ele>461.75</ele><time>2026-05-03T10:12:26.395Z</time></trkpt><trkpt lat="44.4475623" lon="8.3968335"><ele>462.5</ele><time>2026-05-03T10:12:27.396Z</time></trkpt><trkpt lat="44.4475108" lon="8.397004"><ele>463.25</ele><time>2026-05-03T10:12:28.396Z</time></trkpt><trkpt lat="44.4474728" lon="8.3971738"><ele>464.0</ele><time>2026-05-03T10:12:29.396Z</time></trkpt><trkpt lat="44.447467" lon="8.3973547"><ele>464.0</ele><time>2026-05-03T10:12:30.396Z</time></trkpt><trkpt lat="44.4474893" lon="8.3975332"><ele>464.0</ele><time>2026-05-03T10:12:31.395Z</time></trkpt><trkpt lat="44.447515" lon="8.3977094"><ele>464.0</ele><time>2026-05-03T10:12:32.395Z</time></trkpt><trkpt lat="44.4475147" lon="8.3978902"><ele>464.0</ele><time>2026-05-03T10:12:33.395Z</time></trkpt><trkpt lat="44.4474897" lon="8.3980765"><ele>464.75</ele><time>2026-05-03T10:12:34.395Z</time></trkpt><trkpt lat="44.4474527" lon="8.3982676"><ele>465.5</ele><time>2026-05-03T10:12:35.395Z</time></trkpt><trkpt lat="44.4474116" lon="8.3984537"><ele>466.25</ele><time>2026-05-03T10:12:36.395Z</time></trkpt><trkpt lat="44.4473721" lon="8.3986306"><ele>467.0</ele><time>2026-05-03T10:12:37.395Z</time></trkpt><trkpt lat="44.4473356" lon="8.3988035"><ele>467.5</ele><time>2026-05-03T10:12:38.396Z</time></trkpt><trkpt lat="44.4473023" lon="8.3989726"><ele>468.0</ele><time>2026-05-03T10:12:39.395Z</time></trkpt><trkpt lat="44.447271" lon="8.399141"><ele>468.5</ele><time>2026-05-03T10:12:40.396Z</time></trkpt><trkpt lat="44.4472491" lon="8.3993072"><ele>469.0</ele><time>2026-05-03T10:12:41.395Z</time></trkpt><trkpt lat="44.4472235" lon="8.3994695"><ele>469.0</ele><time>2026-05-03T10:12:42.395Z</time></trkpt><trkpt lat="44.4471923" lon="8.3996217"><ele>469.0</ele><time>2026-05-03T10:12:43.395Z</time></trkpt><trkpt lat="44.4471506" lon="8.3997585"><ele>469.0</ele><time>2026-05-03T10:12:44.395Z</time></trkpt><trkpt lat="44.447098" lon="8.3998748"><ele>469.0</ele><time>2026-05-03T10:12:45.395Z</time></trkpt><trkpt lat="44.4470391" lon="8.3999863"><ele>469.0</ele><time>2026-05-03T10:12:46.396Z</time></trkpt><trkpt lat="44.4470003" lon="8.400109"><ele>470.25</ele><time>2026-05-03T10:12:47.395Z</time></trkpt><trkpt lat="44.4469746" lon="8.4002451"><ele>471.5</ele><time>2026-05-03T10:12:48.396Z</time></trkpt><trkpt lat="44.4469686" lon="8.4003975"><ele>472.75</ele><time>2026-05-03T10:12:49.395Z</time></trkpt><trkpt lat="44.4469541" lon="8.4007216"><ele>474.0</ele><time>2026-05-03T10:12:51.396Z</time></trkpt><trkpt lat="44.4469505" lon="8.4008864"><ele>474.0</ele><time>2026-05-03T10:12:52.395Z</time></trkpt><trkpt lat="44.446946" lon="8.4010498"><ele>474.0</ele><time>2026-05-03T10:12:53.395Z</time></trkpt><trkpt lat="44.4469458" lon="8.401209"><ele>474.0</ele><time>2026-05-03T10:12:54.395Z</time></trkpt><trkpt lat="44.4469434" lon="8.4013649"><ele>474.0</ele><time>2026-05-03T10:12:55.395Z</time></trkpt><trkpt lat="44.4469595" lon="8.4015257"><ele>474.5</ele><time>2026-05-03T10:12:56.395Z</time></trkpt><trkpt lat="44.4470019" lon="8.4016822"><ele>475.0</ele><time>2026-05-03T10:12:57.395Z</time></trkpt><trkpt lat="44.4470557" lon="8.4018461"><ele>475.5</ele><time>2026-05-03T10:12:58.395Z</time></trkpt><trkpt lat="44.4471093" lon="8.4020202"><ele>476.0</ele><time>2026-05-03T10:12:59.396Z</time></trkpt><trkpt lat="44.4471624" lon="8.4021997"><ele>478.25</ele><time>2026-05-03T10:13:00.395Z</time></trkpt><trkpt lat="44.4472126" lon="8.4023769"><ele>480.5</ele><time>2026-05-03T10:13:01.395Z</time></trkpt><trkpt lat="44.4472568" lon="8.4025624"><ele>482.75</ele><time>2026-05-03T10:13:02.395Z</time></trkpt><trkpt lat="44.4472857" lon="8.4027536"><ele>485.0</ele><time>2026-05-03T10:13:03.395Z</time></trkpt><trkpt lat="44.4473151" lon="8.4029398"><ele>484.25</ele><time>2026-05-03T10:13:04.395Z</time></trkpt><trkpt lat="44.4473334" lon="8.4031298"><ele>483.5</ele><time>2026-05-03T10:13:05.395Z</time></trkpt><trkpt lat="44.4473505" lon="8.4033324"><ele>482.75</ele><time>2026-05-03T10:13:06.396Z</time></trkpt><trkpt lat="44.4473631" lon="8.4035383"><ele>482.0</ele><time>2026-05-03T10:13:07.395Z</time></trkpt><trkpt lat="44.4473664" lon="8.4037455"><ele>483.66666666666663</ele><time>2026-05-03T10:13:08.395Z</time></trkpt><trkpt lat="44.4473648" lon="8.4039558"><ele>485.33333333333337</ele><time>2026-05-03T10:13:09.396Z</time></trkpt><trkpt lat="44.4473605" lon="8.4041598"><ele>487.0</ele><time>2026-05-03T10:13:10.395Z</time></trkpt><trkpt lat="44.4473561" lon="8.4043752"><ele>487.0</ele><time>2026-05-03T10:13:11.395Z</time></trkpt><trkpt lat="44.4473669" lon="8.4045918"><ele>487.0</ele><time>2026-05-03T10:13:12.395Z</time></trkpt><trkpt lat="44.4473852" lon="8.4048049"><ele>487.0</ele><time>2026-05-03T10:13:13.395Z</time></trkpt><trkpt lat="44.4474072" lon="8.4050185"><ele>489.0</ele><time>2026-05-03T10:13:14.395Z</time></trkpt><trkpt lat="44.4474236" lon="8.4052311"><ele>491.0</ele><time>2026-05-03T10:13:15.395Z</time></trkpt><trkpt lat="44.4474378" lon="8.405444"><ele>493.0</ele><time>2026-05-03T10:13:16.395Z</time></trkpt><trkpt lat="44.4474581" lon="8.405647"><ele>495.0</ele><time>2026-05-03T10:13:17.395Z</time></trkpt><trkpt lat="44.4474741" lon="8.4058486"><ele>497.0</ele><time>2026-05-03T10:13:18.396Z</time></trkpt><trkpt lat="44.447488" lon="8.4060436"><ele>499.0</ele><time>2026-05-03T10:13:19.396Z</time></trkpt><trkpt lat="44.4474997" lon="8.4062433"><ele>501.0</ele><time>2026-05-03T10:13:20.395Z</time></trkpt><trkpt lat="44.4475183" lon="8.4064466"><ele>503.0</ele><time>2026-05-03T10:13:21.395Z</time></trkpt><trkpt lat="44.4475337" lon="8.4066574"><ele>505.0</ele><time>2026-05-03T10:13:22.395Z</time></trkpt><trkpt lat="44.447545" lon="8.4068689"><ele>507.0</ele><time>2026-05-03T10:13:23.395Z</time></trkpt><trkpt lat="44.4475561" lon="8.4070808"><ele>508.5</ele><time>2026-05-03T10:13:24.396Z</time></trkpt><trkpt lat="44.4475627" lon="8.4072838"><ele>510.0</ele><time>2026-05-03T10:13:25.396Z</time></trkpt><trkpt lat="44.4475701" lon="8.4074805"><ele>511.5</ele><time>2026-05-03T10:13:26.395Z</time></trkpt><trkpt lat="44.4475767" lon="8.407675"><ele>513.0</ele><time>2026-05-03T10:13:27.395Z</time></trkpt><trkpt lat="44.4475805" lon="8.4078683"><ele>514.25</ele><time>2026-05-03T10:13:28.395Z</time></trkpt><trkpt lat="44.4475765" lon="8.4080564"><ele>515.5</ele><time>2026-05-03T10:13:29.395Z</time></trkpt><trkpt lat="44.4475635" lon="8.4082262"><ele>516.75</ele><time>2026-05-03T10:13:30.395Z</time></trkpt><trkpt lat="44.4475455" lon="8.4083779"><ele>518.0</ele><time>2026-05-03T10:13:31.396Z</time></trkpt><trkpt lat="44.4475213" lon="8.4085184"><ele>518.0</ele><time>2026-05-03T10:13:32.395Z</time></trkpt><trkpt lat="44.4475138" lon="8.408654"><ele>518.0</ele><time>2026-05-03T10:13:33.395Z</time></trkpt><trkpt lat="44.4475272" lon="8.408781"><ele>518.0</ele><time>2026-05-03T10:13:34.395Z</time></trkpt><trkpt lat="44.4475656" lon="8.4088845"><ele>518.0</ele><time>2026-05-03T10:13:35.395Z</time></trkpt><trkpt lat="44.4476192" lon="8.408977"><ele>518.0</ele><time>2026-05-03T10:13:36.396Z</time></trkpt><trkpt lat="44.4476701" lon="8.4090807"><ele>518.0</ele><time>2026-05-03T10:13:37.395Z</time></trkpt><trkpt lat="44.4477072" lon="8.4091895"><ele>518.8</ele><time>2026-05-03T10:13:38.395Z</time></trkpt><trkpt lat="44.447715" lon="8.4093109"><ele>519.5999999999999</ele><time>2026-05-03T10:13:39.394Z</time></trkpt><trkpt lat="44.4477108" lon="8.4094162"><ele>520.4000000000001</ele><time>2026-05-03T10:13:40.396Z</time></trkpt><trkpt lat="44.447682" lon="8.4095072"><ele>521.2</ele><time>2026-05-03T10:13:41.396Z</time></trkpt><trkpt lat="44.4475677" lon="8.4095466"><ele>522.0</ele><time>2026-05-03T10:13:43.396Z</time></trkpt><trkpt lat="44.447482" lon="8.4094082"><ele>522.0</ele><time>2026-05-03T10:13:45.395Z</time></trkpt><trkpt lat="44.4474576" lon="8.4093088"><ele>522.0</ele><time>2026-05-03T10:13:46.395Z</time></trkpt><trkpt lat="44.4474371" lon="8.409211"><ele>522.0</ele><time>2026-05-03T10:13:47.396Z</time></trkpt><trkpt lat="44.4474171" lon="8.4091141"><ele>522.0</ele><time>2026-05-03T10:13:48.395Z</time></trkpt><trkpt lat="44.4473876" lon="8.4090265"><ele>522.0</ele><time>2026-05-03T10:13:49.395Z</time></trkpt><trkpt lat="44.4472501" lon="8.4089903"><ele>522.0</ele><time>2026-05-03T10:13:52.395Z</time></trkpt><trkpt lat="44.447228" lon="8.4090812"><ele>522.0</ele><time>2026-05-03T10:13:53.395Z</time></trkpt><trkpt lat="44.4472338" lon="8.4091866"><ele>522.0</ele><time>2026-05-03T10:13:54.395Z</time></trkpt><trkpt lat="44.4472573" lon="8.409304"><ele>522.0</ele><time>2026-05-03T10:13:55.395Z</time></trkpt><trkpt lat="44.4472829" lon="8.4094288"><ele>522.0</ele><time>2026-05-03T10:13:56.396Z</time></trkpt><trkpt lat="44.4473023" lon="8.4095611"><ele>522.0</ele><time>2026-05-03T10:13:57.395Z</time></trkpt><trkpt lat="44.4473112" lon="8.4096958"><ele>522.0</ele><time>2026-05-03T10:13:58.396Z</time></trkpt><trkpt lat="44.4473032" lon="8.4098469"><ele>523.5</ele><time>2026-05-03T10:13:59.395Z</time></trkpt><trkpt lat="44.447286" lon="8.410002"><ele>525.0</ele><time>2026-05-03T10:14:00.395Z</time></trkpt><trkpt lat="44.4472784" lon="8.4101631"><ele>526.5</ele><time>2026-05-03T10:14:01.395Z</time></trkpt><trkpt lat="44.4472776" lon="8.4103198"><ele>528.0</ele><time>2026-05-03T10:14:02.395Z</time></trkpt><trkpt lat="44.4472826" lon="8.4104756"><ele>529.4</ele><time>2026-05-03T10:14:03.395Z</time></trkpt><trkpt lat="44.4472938" lon="8.4106287"><ele>530.8</ele><time>2026-05-03T10:14:04.396Z</time></trkpt><trkpt lat="44.4473173" lon="8.4107819"><ele>532.2</ele><time>2026-05-03T10:14:05.395Z</time></trkpt><trkpt lat="44.4473449" lon="8.4109283"><ele>533.6</ele><time>2026-05-03T10:14:06.395Z</time></trkpt><trkpt lat="44.447374" lon="8.4110712"><ele>535.0</ele><time>2026-05-03T10:14:07.395Z</time></trkpt><trkpt lat="44.4473957" lon="8.4112127"><ele>536.2</ele><time>2026-05-03T10:14:08.395Z</time></trkpt><trkpt lat="44.4474155" lon="8.4113571"><ele>537.4</ele><time>2026-05-03T10:14:09.395Z</time></trkpt><trkpt lat="44.4474264" lon="8.4114999"><ele>538.6</ele><time>2026-05-03T10:14:10.396Z</time></trkpt><trkpt lat="44.4474461" lon="8.4116361"><ele>539.8</ele><time>2026-05-03T10:14:11.395Z</time></trkpt><trkpt lat="44.4474902" lon="8.4117536"><ele>541.0</ele><time>2026-05-03T10:14:12.396Z</time></trkpt><trkpt lat="44.4475574" lon="8.4118347"><ele>541.0</ele><time>2026-05-03T10:14:13.395Z</time></trkpt><trkpt lat="44.4476288" lon="8.4118835"><ele>541.0</ele><time>2026-05-03T10:14:14.395Z</time></trkpt><trkpt lat="44.4477154" lon="8.411941"><ele>541.0</ele><time>2026-05-03T10:14:15.395Z</time></trkpt><trkpt lat="44.4477958" lon="8.4120313"><ele>541.0</ele><time>2026-05-03T10:14:16.396Z</time></trkpt><trkpt lat="44.4478644" lon="8.4121451"><ele>541.0</ele><time>2026-05-03T10:14:17.395Z</time></trkpt><trkpt lat="44.4479341" lon="8.4122842"><ele>542.25</ele><time>2026-05-03T10:14:18.396Z</time></trkpt><trkpt lat="44.4480115" lon="8.4124192"><ele>543.5</ele><time>2026-05-03T10:14:19.395Z</time></trkpt><trkpt lat="44.4480891" lon="8.412555"><ele>544.75</ele><time>2026-05-03T10:14:20.395Z</time></trkpt><trkpt lat="44.4481563" lon="8.4126752"><ele>546.0</ele><time>2026-05-03T10:14:21.396Z</time></trkpt><trkpt lat="44.4482218" lon="8.412785"><ele>546.0</ele><time>2026-05-03T10:14:22.395Z</time></trkpt><trkpt lat="44.4482797" lon="8.412893"><ele>546.0</ele><time>2026-05-03T10:14:23.395Z</time></trkpt><trkpt lat="44.4483416" lon="8.4130026"><ele>546.0</ele><time>2026-05-03T10:14:24.396Z</time></trkpt><trkpt lat="44.4484056" lon="8.4131154"><ele>546.0</ele><time>2026-05-03T10:14:25.395Z</time></trkpt><trkpt lat="44.4484673" lon="8.4132262"><ele>546.0</ele><time>2026-05-03T10:14:26.395Z</time></trkpt><trkpt lat="44.4485333" lon="8.4133374"><ele>546.6</ele><time>2026-05-03T10:14:27.395Z</time></trkpt><trkpt lat="44.4485992" lon="8.4134387"><ele>547.2</ele><time>2026-05-03T10:14:28.396Z</time></trkpt><trkpt lat="44.4486739" lon="8.4135241"><ele>547.8</ele><time>2026-05-03T10:14:29.395Z</time></trkpt><trkpt lat="44.4487508" lon="8.4135925"><ele>548.4</ele><time>2026-05-03T10:14:30.395Z</time></trkpt><trkpt lat="44.4488224" lon="8.4136743"><ele>549.0</ele><time>2026-05-03T10:14:31.395Z</time></trkpt><trkpt lat="44.4488738" lon="8.4137795"><ele>551.3333333333334</ele><time>2026-05-03T10:14:32.395Z</time></trkpt><trkpt lat="44.4489194" lon="8.4138956"><ele>553.6666666666666</ele><time>2026-05-03T10:14:33.395Z</time></trkpt><trkpt lat="44.4489638" lon="8.414013"><ele>556.0</ele><time>2026-05-03T10:14:34.396Z</time></trkpt><trkpt lat="44.4489978" lon="8.4141183"><ele>558.3333333333333</ele><time>2026-05-03T10:14:35.395Z</time></trkpt><trkpt lat="44.4490237" lon="8.4142139"><ele>560.6666666666666</ele><time>2026-05-03T10:14:36.396Z</time></trkpt><trkpt lat="44.4490247" lon="8.4143255"><ele>563.0</ele><time>2026-05-03T10:14:37.395Z</time></trkpt><trkpt lat="44.4489913" lon="8.4144379"><ele>563.0</ele><time>2026-05-03T10:14:38.396Z</time></trkpt><trkpt lat="44.4489485" lon="8.4145357"><ele>563.0</ele><time>2026-05-03T10:14:39.395Z</time></trkpt><trkpt lat="44.4489141" lon="8.4146358"><ele>563.0</ele><time>2026-05-03T10:14:40.395Z</time></trkpt><trkpt lat="44.4489" lon="8.4147459"><ele>563.0</ele><time>2026-05-03T10:14:41.395Z</time></trkpt><trkpt lat="44.4488784" lon="8.4148685"><ele>563.0</ele><time>2026-05-03T10:14:42.395Z</time></trkpt><trkpt lat="44.4488867" lon="8.4149796"><ele>563.0</ele><time>2026-05-03T10:14:43.395Z</time></trkpt><trkpt lat="44.448848" lon="8.4150982"><ele>563.0</ele><time>2026-05-03T10:14:44.395Z</time></trkpt><trkpt lat="44.4487978" lon="8.4151992"><ele>563.0</ele><time>2026-05-03T10:14:45.395Z</time></trkpt><trkpt lat="44.4487298" lon="8.4152832"><ele>563.0</ele><time>2026-05-03T10:14:46.396Z</time></trkpt><trkpt lat="44.4486581" lon="8.4153658"><ele>563.0</ele><time>2026-05-03T10:14:47.395Z</time></trkpt><trkpt lat="44.4485895" lon="8.4154522"><ele>563.0</ele><time>2026-05-03T10:14:48.395Z</time></trkpt><trkpt lat="44.4485218" lon="8.4155559"><ele>559.1999999999999</ele><time>2026-05-03T10:14:49.395Z</time></trkpt><trkpt lat="44.4484492" lon="8.4156693"><ele>555.4</ele><time>2026-05-03T10:14:50.395Z</time></trkpt><trkpt lat="44.4483793" lon="8.4157941"><ele>551.5999999999999</ele><time>2026-05-03T10:14:51.395Z</time></trkpt><trkpt lat="44.4483097" lon="8.4159156"><ele>547.8</ele><time>2026-05-03T10:14:52.395Z</time></trkpt><trkpt lat="44.4482455" lon="8.4160374"><ele>544.0</ele><time>2026-05-03T10:14:53.395Z</time></trkpt><trkpt lat="44.4481862" lon="8.4161645"><ele>544.0</ele><time>2026-05-03T10:14:54.395Z</time></trkpt><trkpt lat="44.4481379" lon="8.4162982"><ele>544.0</ele><time>2026-05-03T10:14:55.395Z</time></trkpt><trkpt lat="44.4481188" lon="8.4164422"><ele>544.0</ele><time>2026-05-03T10:14:56.395Z</time></trkpt><trkpt lat="44.4481242" lon="8.416593"><ele>544.0</ele><time>2026-05-03T10:14:57.395Z</time></trkpt><trkpt lat="44.4481524" lon="8.4167365"><ele>544.0</ele><time>2026-05-03T10:14:58.396Z</time></trkpt><trkpt lat="44.4482003" lon="8.4168674"><ele>544.4</ele><time>2026-05-03T10:14:59.395Z</time></trkpt><trkpt lat="44.4482538" lon="8.4169846"><ele>544.8</ele><time>2026-05-03T10:15:00.395Z</time></trkpt><trkpt lat="44.4483081" lon="8.4170946"><ele>545.2</ele><time>2026-05-03T10:15:01.396Z</time></trkpt><trkpt lat="44.4483603" lon="8.4172022"><ele>545.6</ele><time>2026-05-03T10:15:02.395Z</time></trkpt><trkpt lat="44.4483947" lon="8.4173208"><ele>546.0</ele><time>2026-05-03T10:15:03.395Z</time></trkpt><trkpt lat="44.4484012" lon="8.4174493"><ele>544.6</ele><time>2026-05-03T10:15:04.396Z</time></trkpt><trkpt lat="44.4483755" lon="8.4175712"><ele>543.2</ele><time>2026-05-03T10:15:05.396Z</time></trkpt><trkpt lat="44.4483237" lon="8.4176814"><ele>541.8</ele><time>2026-05-03T10:15:06.395Z</time></trkpt><trkpt lat="44.4482555" lon="8.4177804"><ele>540.4</ele><time>2026-05-03T10:15:07.395Z</time></trkpt><trkpt lat="44.4481729" lon="8.4178651"><ele>539.0</ele><time>2026-05-03T10:15:08.396Z</time></trkpt><trkpt lat="44.4480899" lon="8.4179443"><ele>540.2</ele><time>2026-05-03T10:15:09.395Z</time></trkpt><trkpt lat="44.4480068" lon="8.4180051"><ele>541.4</ele><time>2026-05-03T10:15:10.395Z</time></trkpt><trkpt lat="44.4479277" lon="8.418057"><ele>542.6</ele><time>2026-05-03T10:15:11.396Z</time></trkpt><trkpt lat="44.4478557" lon="8.418136"><ele>543.8</ele><time>2026-05-03T10:15:12.396Z</time></trkpt><trkpt lat="44.4477936" lon="8.4182378"><ele>545.0</ele><time>2026-05-03T10:15:13.395Z</time></trkpt><trkpt lat="44.4477466" lon="8.4183552"><ele>542.2</ele><time>2026-05-03T10:15:14.395Z</time></trkpt><trkpt lat="44.4477216" lon="8.4184881"><ele>539.4</ele><time>2026-05-03T10:15:15.395Z</time></trkpt><trkpt lat="44.4477161" lon="8.4186267"><ele>536.6</ele><time>2026-05-03T10:15:16.395Z</time></trkpt><trkpt lat="44.4476919" lon="8.4187656"><ele>533.8</ele><time>2026-05-03T10:15:17.396Z</time></trkpt><trkpt lat="44.4476403" lon="8.4188885"><ele>531.0</ele><time>2026-05-03T10:15:18.395Z</time></trkpt><trkpt lat="44.4475588" lon="8.4189821"><ele>531.0</ele><time>2026-05-03T10:15:19.395Z</time></trkpt><trkpt lat="44.4474617" lon="8.4190337"><ele>531.0</ele><time>2026-05-03T10:15:20.396Z</time></trkpt><trkpt lat="44.4473634" lon="8.4190617"><ele>531.0</ele><time>2026-05-03T10:15:21.395Z</time></trkpt><trkpt lat="44.4472635" lon="8.4190861"><ele>531.0</ele><time>2026-05-03T10:15:22.395Z</time></trkpt><trkpt lat="44.4471644" lon="8.4191226"><ele>531.0</ele><time>2026-05-03T10:15:23.395Z</time></trkpt><trkpt lat="44.4470733" lon="8.4191819"><ele>528.2</ele><time>2026-05-03T10:15:24.395Z</time></trkpt><trkpt lat="44.4469867" lon="8.4192559"><ele>525.4000000000001</ele><time>2026-05-03T10:15:25.396Z</time></trkpt><trkpt lat="44.4468922" lon="8.4193345"><ele>522.6</ele><time>2026-05-03T10:15:26.395Z</time></trkpt><trkpt lat="44.4467953" lon="8.4194119"><ele>519.8000000000001</ele><time>2026-05-03T10:15:27.395Z</time></trkpt><trkpt lat="44.4466991" lon="8.4194895"><ele>517.0</ele><time>2026-05-03T10:15:28.395Z</time></trkpt><trkpt lat="44.4465995" lon="8.4195556"><ele>517.0</ele><time>2026-05-03T10:15:29.395Z</time></trkpt><trkpt lat="44.446495" lon="8.4196191"><ele>517.0</ele><time>2026-05-03T10:15:30.395Z</time></trkpt><trkpt lat="44.4463889" lon="8.4196819"><ele>517.0</ele><time>2026-05-03T10:15:31.396Z</time></trkpt><trkpt lat="44.4462797" lon="8.419748"><ele>517.0</ele><time>2026-05-03T10:15:32.395Z</time></trkpt><trkpt lat="44.446175" lon="8.4198185"><ele>518.75</ele><time>2026-05-03T10:15:33.396Z</time></trkpt><trkpt lat="44.4460741" lon="8.4198872"><ele>520.5</ele><time>2026-05-03T10:15:34.396Z</time></trkpt><trkpt lat="44.4459739" lon="8.4199642"><ele>522.25</ele><time>2026-05-03T10:15:35.395Z</time></trkpt><trkpt lat="44.4458676" lon="8.4200237"><ele>524.0</ele><time>2026-05-03T10:15:36.395Z</time></trkpt><trkpt lat="44.4457508" lon="8.4200529"><ele>524.0</ele><time>2026-05-03T10:15:37.396Z</time></trkpt><trkpt lat="44.4456367" lon="8.4200604"><ele>524.0</ele><time>2026-05-03T10:15:38.396Z</time></trkpt><trkpt lat="44.4455144" lon="8.4200565"><ele>524.0</ele><time>2026-05-03T10:15:39.395Z</time></trkpt><trkpt lat="44.445403" lon="8.4200868"><ele>524.0</ele><time>2026-05-03T10:15:40.395Z</time></trkpt><trkpt lat="44.4452985" lon="8.4201385"><ele>521.6</ele><time>2026-05-03T10:15:41.395Z</time></trkpt><trkpt lat="44.4452072" lon="8.4202067"><ele>519.2</ele><time>2026-05-03T10:15:42.395Z</time></trkpt><trkpt lat="44.4451235" lon="8.4202855"><ele>516.8000000000001</ele><time>2026-05-03T10:15:43.396Z</time></trkpt><trkpt lat="44.4450448" lon="8.4203494"><ele>514.4</ele><time>2026-05-03T10:15:44.395Z</time></trkpt><trkpt lat="44.444956" lon="8.4203709"><ele>512.0</ele><time>2026-05-03T10:15:45.396Z</time></trkpt><trkpt lat="44.4448648" lon="8.4203428"><ele>512.0</ele><time>2026-05-03T10:15:46.396Z</time></trkpt><trkpt lat="44.4447761" lon="8.4202868"><ele>512.0</ele><time>2026-05-03T10:15:47.395Z</time></trkpt><trkpt lat="44.4446824" lon="8.4202262"><ele>512.0</ele><time>2026-05-03T10:15:48.395Z</time></trkpt><trkpt lat="44.4445836" lon="8.4201865"><ele>512.0</ele><time>2026-05-03T10:15:49.395Z</time></trkpt><trkpt lat="44.4444778" lon="8.4201632"><ele>512.0</ele><time>2026-05-03T10:15:50.395Z</time></trkpt><trkpt lat="44.4443801" lon="8.4201426"><ele>510.8</ele><time>2026-05-03T10:15:51.396Z</time></trkpt><trkpt lat="44.4442819" lon="8.4201222"><ele>509.6</ele><time>2026-05-03T10:15:52.395Z</time></trkpt><trkpt lat="44.4441817" lon="8.420113"><ele>508.40000000000003</ele><time>2026-05-03T10:15:53.395Z</time></trkpt><trkpt lat="44.4440838" lon="8.420121"><ele>507.20000000000005</ele><time>2026-05-03T10:15:54.395Z</time></trkpt><trkpt lat="44.4439896" lon="8.4201642"><ele>506.0</ele><time>2026-05-03T10:15:55.395Z</time></trkpt><trkpt lat="44.4439016" lon="8.4202473"><ele>506.0</ele><time>2026-05-03T10:15:56.395Z</time></trkpt><trkpt lat="44.4438175" lon="8.420354"><ele>506.0</ele><time>2026-05-03T10:15:57.395Z</time></trkpt><trkpt lat="44.4437412" lon="8.4204814"><ele>506.0</ele><time>2026-05-03T10:15:58.395Z</time></trkpt><trkpt lat="44.4436696" lon="8.4206231"><ele>506.0</ele><time>2026-05-03T10:15:59.396Z</time></trkpt><trkpt lat="44.4435954" lon="8.420765"><ele>503.75</ele><time>2026-05-03T10:16:00.396Z</time></trkpt><trkpt lat="44.4435208" lon="8.4208968"><ele>501.5</ele><time>2026-05-03T10:16:01.395Z</time></trkpt><trkpt lat="44.4434521" lon="8.4210271"><ele>499.25</ele><time>2026-05-03T10:16:02.396Z</time></trkpt><trkpt lat="44.4433918" lon="8.4211601"><ele>497.0</ele><time>2026-05-03T10:16:03.395Z</time></trkpt><trkpt lat="44.4433407" lon="8.4213097"><ele>498.75</ele><time>2026-05-03T10:16:04.395Z</time></trkpt><trkpt lat="44.4433049" lon="8.4214647"><ele>500.5</ele><time>2026-05-03T10:16:05.395Z</time></trkpt><trkpt lat="44.4432758" lon="8.4216123"><ele>502.25</ele><time>2026-05-03T10:16:06.395Z</time></trkpt><trkpt lat="44.4432546" lon="8.4217657"><ele>504.0</ele><time>2026-05-03T10:16:07.396Z</time></trkpt><trkpt lat="44.4432489" lon="8.4219242"><ele>504.0</ele><time>2026-05-03T10:16:08.396Z</time></trkpt><trkpt lat="44.4432579" lon="8.4220829"><ele>504.0</ele><time>2026-05-03T10:16:09.396Z</time></trkpt><trkpt lat="44.4432811" lon="8.422242"><ele>504.0</ele><time>2026-05-03T10:16:10.395Z</time></trkpt><trkpt lat="44.44332" lon="8.4223966"><ele>504.0</ele><time>2026-05-03T10:16:11.395Z</time></trkpt><trkpt lat="44.4433665" lon="8.4225435"><ele>503.0</ele><time>2026-05-03T10:16:12.395Z</time></trkpt><trkpt lat="44.4434178" lon="8.4226894"><ele>502.0</ele><time>2026-05-03T10:16:13.395Z</time></trkpt><trkpt lat="44.4434661" lon="8.4228372"><ele>501.0</ele><time>2026-05-03T10:16:14.395Z</time></trkpt><trkpt lat="44.4435196" lon="8.4229848"><ele>500.0</ele><time>2026-05-03T10:16:15.396Z</time></trkpt><trkpt lat="44.4435629" lon="8.4231457"><ele>498.0</ele><time>2026-05-03T10:16:16.395Z</time></trkpt><trkpt lat="44.4435805" lon="8.4233224"><ele>496.0</ele><time>2026-05-03T10:16:17.395Z</time></trkpt><trkpt lat="44.4435777" lon="8.4235055"><ele>494.0</ele><time>2026-05-03T10:16:18.395Z</time></trkpt><trkpt lat="44.4435802" lon="8.423679"><ele>492.0</ele><time>2026-05-03T10:16:19.395Z</time></trkpt><trkpt lat="44.4435884" lon="8.4238518"><ele>490.0</ele><time>2026-05-03T10:16:20.395Z</time></trkpt><trkpt lat="44.4436016" lon="8.4240196"><ele>488.0</ele><time>2026-05-03T10:16:21.395Z</time></trkpt><trkpt lat="44.4436315" lon="8.4241885"><ele>486.0</ele><time>2026-05-03T10:16:22.395Z</time></trkpt><trkpt lat="44.4436831" lon="8.4243568"><ele>484.0</ele><time>2026-05-03T10:16:23.395Z</time></trkpt><trkpt lat="44.443791" lon="8.4246987"><ele>487.75</ele><time>2026-05-03T10:16:25.398Z</time></trkpt><trkpt lat="44.4438465" lon="8.4248632"><ele>491.5</ele><time>2026-05-03T10:16:26.396Z</time></trkpt><trkpt lat="44.4439016" lon="8.425022"><ele>495.25</ele><time>2026-05-03T10:16:27.397Z</time></trkpt><trkpt lat="44.4439559" lon="8.4251774"><ele>499.0</ele><time>2026-05-03T10:16:28.397Z</time></trkpt><trkpt lat="44.4440208" lon="8.425326"><ele>499.0</ele><time>2026-05-03T10:16:29.396Z</time></trkpt><trkpt lat="44.4441057" lon="8.4254506"><ele>499.0</ele><time>2026-05-03T10:16:30.424Z</time></trkpt><trkpt lat="44.4441989" lon="8.4255493"><ele>499.0</ele><time>2026-05-03T10:16:31.415Z</time></trkpt><trkpt lat="44.4442878" lon="8.4256294"><ele>499.0</ele><time>2026-05-03T10:16:32.423Z</time></trkpt><trkpt lat="44.4443704" lon="8.4256973"><ele>499.0</ele><time>2026-05-03T10:16:33.423Z</time></trkpt><trkpt lat="44.4444467" lon="8.4257569"><ele>495.0</ele><time>2026-05-03T10:16:34.424Z</time></trkpt><trkpt lat="44.4445146" lon="8.4258067"><ele>491.0</ele><time>2026-05-03T10:16:35.423Z</time></trkpt><trkpt lat="44.444586" lon="8.4259192"><ele>487.0</ele><time>2026-05-03T10:16:37.424Z</time></trkpt><trkpt lat="44.4445451" lon="8.426063"><ele>483.0</ele><time>2026-05-03T10:16:39.423Z</time></trkpt><trkpt lat="44.4444215" lon="8.4260395"><ele>479.0</ele><time>2026-05-03T10:16:41.423Z</time></trkpt><trkpt lat="44.4443438" lon="8.4259927"><ele>479.0</ele><time>2026-05-03T10:16:42.423Z</time></trkpt><trkpt lat="44.444261" lon="8.4259391"><ele>479.0</ele><time>2026-05-03T10:16:43.423Z</time></trkpt><trkpt lat="44.4441716" lon="8.4258767"><ele>479.0</ele><time>2026-05-03T10:16:44.423Z</time></trkpt><trkpt lat="44.4440836" lon="8.425805"><ele>479.0</ele><time>2026-05-03T10:16:45.423Z</time></trkpt><trkpt lat="44.4439947" lon="8.4257197"><ele>479.0</ele><time>2026-05-03T10:16:46.423Z</time></trkpt><trkpt lat="44.443905" lon="8.42562"><ele>479.0</ele><time>2026-05-03T10:16:47.424Z</time></trkpt><trkpt lat="44.4438199" lon="8.4255056"><ele>479.0</ele><time>2026-05-03T10:16:48.423Z</time></trkpt><trkpt lat="44.4437451" lon="8.4253812"><ele>479.0</ele><time>2026-05-03T10:16:49.423Z</time></trkpt><trkpt lat="44.4436782" lon="8.4252521"><ele>479.0</ele><time>2026-05-03T10:16:50.423Z</time></trkpt><trkpt lat="44.4436107" lon="8.4251308"><ele>477.99999999999994</ele><time>2026-05-03T10:16:51.423Z</time></trkpt><trkpt lat="44.443555" lon="8.425021"><ele>477.0</ele><time>2026-05-03T10:16:52.423Z</time></trkpt><trkpt lat="44.4435075" lon="8.4249286"><ele>476.0</ele><time>2026-05-03T10:16:53.422Z</time></trkpt><trkpt lat="44.4434642" lon="8.4248502"><ele>475.0</ele><time>2026-05-03T10:16:54.412Z</time></trkpt><trkpt lat="44.443417" lon="8.4247834"><ele>473.99999999999994</ele><time>2026-05-03T10:16:55.416Z</time></trkpt><trkpt lat="44.443353" lon="8.4247529"><ele>473.0</ele><time>2026-05-03T10:16:56.419Z</time></trkpt><trkpt lat="44.443242" lon="8.4248029"><ele>473.0</ele><time>2026-05-03T10:16:58.422Z</time></trkpt><trkpt lat="44.4432425" lon="8.4249597"><ele>472.99999999999994</ele><time>2026-05-03T10:17:00.424Z</time></trkpt><trkpt lat="44.4432914" lon="8.4250673"><ele>472.99999999999994</ele><time>2026-05-03T10:17:01.424Z</time></trkpt><trkpt lat="44.4433442" lon="8.4251795"><ele>473.0</ele><time>2026-05-03T10:17:02.423Z</time></trkpt><trkpt lat="44.4434039" lon="8.4252924"><ele>473.0</ele><time>2026-05-03T10:17:03.423Z</time></trkpt><trkpt lat="44.4434688" lon="8.425412"><ele>469.5</ele><time>2026-05-03T10:17:04.423Z</time></trkpt><trkpt lat="44.4435303" lon="8.4255365"><ele>466.0</ele><time>2026-05-03T10:17:05.423Z</time></trkpt><trkpt lat="44.4435989" lon="8.4256705"><ele>462.5</ele><time>2026-05-03T10:17:06.423Z</time></trkpt><trkpt lat="44.4436811" lon="8.4258051"><ele>459.0</ele><time>2026-05-03T10:17:07.423Z</time></trkpt><trkpt lat="44.4437742" lon="8.4259315"><ele>458.75</ele><time>2026-05-03T10:17:08.424Z</time></trkpt><trkpt lat="44.4438708" lon="8.4260506"><ele>458.5</ele><time>2026-05-03T10:17:09.423Z</time></trkpt><trkpt lat="44.443968" lon="8.4261681"><ele>458.25</ele><time>2026-05-03T10:17:10.423Z</time></trkpt><trkpt lat="44.4440642" lon="8.4262838"><ele>458.0</ele><time>2026-05-03T10:17:11.423Z</time></trkpt><trkpt lat="44.4441579" lon="8.4263953"><ele>458.0</ele><time>2026-05-03T10:17:12.423Z</time></trkpt><trkpt lat="44.4442501" lon="8.4265059"><ele>458.0</ele><time>2026-05-03T10:17:13.424Z</time></trkpt><trkpt lat="44.4443483" lon="8.4266013"><ele>458.0</ele><time>2026-05-03T10:17:14.424Z</time></trkpt><trkpt lat="44.4444582" lon="8.4266745"><ele>458.0</ele><time>2026-05-03T10:17:15.423Z</time></trkpt><trkpt lat="44.4445792" lon="8.4266995"><ele>455.75</ele><time>2026-05-03T10:17:16.421Z</time></trkpt><trkpt lat="44.4447018" lon="8.426683"><ele>453.5</ele><time>2026-05-03T10:17:17.416Z</time></trkpt><trkpt lat="44.4448172" lon="8.4266184"><ele>451.25</ele><time>2026-05-03T10:17:18.423Z</time></trkpt><trkpt lat="44.4449236" lon="8.4265135"><ele>449.0</ele><time>2026-05-03T10:17:19.423Z</time></trkpt><trkpt lat="44.4450166" lon="8.4263863"><ele>454.75</ele><time>2026-05-03T10:17:20.423Z</time></trkpt><trkpt lat="44.4451009" lon="8.4262569"><ele>460.5</ele><time>2026-05-03T10:17:21.424Z</time></trkpt><trkpt lat="44.4451877" lon="8.4261331"><ele>466.25</ele><time>2026-05-03T10:17:22.424Z</time></trkpt><trkpt lat="44.445271" lon="8.4260155"><ele>472.0</ele><time>2026-05-03T10:17:23.424Z</time></trkpt><trkpt lat="44.4453637" lon="8.4259038"><ele>465.5</ele><time>2026-05-03T10:17:24.419Z</time></trkpt><trkpt lat="44.4454662" lon="8.4258057"><ele>459.0</ele><time>2026-05-03T10:17:25.423Z</time></trkpt><trkpt lat="44.4455706" lon="8.4257143"><ele>452.5</ele><time>2026-05-03T10:17:26.423Z</time></trkpt><trkpt lat="44.445677" lon="8.4256264"><ele>446.0</ele><time>2026-05-03T10:17:27.422Z</time></trkpt><trkpt lat="44.445787" lon="8.4255465"><ele>446.0</ele><time>2026-05-03T10:17:28.423Z</time></trkpt><trkpt lat="44.4459038" lon="8.4254813"><ele>446.0</ele><time>2026-05-03T10:17:29.423Z</time></trkpt><trkpt lat="44.4460323" lon="8.4254409"><ele>446.0</ele><time>2026-05-03T10:17:30.419Z</time></trkpt><trkpt lat="44.4461716" lon="8.4254047"><ele>446.0</ele><time>2026-05-03T10:17:31.423Z</time></trkpt><trkpt lat="44.4463159" lon="8.4253787"><ele>449.0</ele><time>2026-05-03T10:17:32.423Z</time></trkpt><trkpt lat="44.4464608" lon="8.4253647"><ele>452.0</ele><time>2026-05-03T10:17:33.423Z</time></trkpt><trkpt lat="44.4466009" lon="8.4253653"><ele>455.0</ele><time>2026-05-03T10:17:34.424Z</time></trkpt><trkpt lat="44.4467364" lon="8.4253491"><ele>458.0</ele><time>2026-05-03T10:17:35.423Z</time></trkpt><trkpt lat="44.4468758" lon="8.4253403"><ele>458.0</ele><time>2026-05-03T10:17:36.423Z</time></trkpt><trkpt lat="44.4470107" lon="8.4253195"><ele>458.0</ele><time>2026-05-03T10:17:37.423Z</time></trkpt><trkpt lat="44.4471466" lon="8.4253127"><ele>458.0</ele><time>2026-05-03T10:17:38.423Z</time></trkpt><trkpt lat="44.4472806" lon="8.4253026"><ele>458.0</ele><time>2026-05-03T10:17:39.423Z</time></trkpt><trkpt lat="44.4474199" lon="8.4253019"><ele>457.0</ele><time>2026-05-03T10:17:40.413Z</time></trkpt><trkpt lat="44.4475582" lon="8.4253271"><ele>456.0</ele><time>2026-05-03T10:17:41.42Z</time></trkpt><trkpt lat="44.4476892" lon="8.4253954"><ele>455.0</ele><time>2026-05-03T10:17:42.417Z</time></trkpt><trkpt lat="44.4478104" lon="8.4254918"><ele>454.0</ele><time>2026-05-03T10:17:43.422Z</time></trkpt><trkpt lat="44.4479191" lon="8.4256175"><ele>450.0</ele><time>2026-05-03T10:17:44.423Z</time></trkpt><trkpt lat="44.4480179" lon="8.4257645"><ele>446.0</ele><time>2026-05-03T10:17:45.423Z</time></trkpt><trkpt lat="44.4481012" lon="8.4259239"><ele>442.0</ele><time>2026-05-03T10:17:46.424Z</time></trkpt><trkpt lat="44.448161" lon="8.4261012"><ele>438.0</ele><time>2026-05-03T10:17:47.423Z</time></trkpt><trkpt lat="44.4481915" lon="8.4262874"><ele>435.0</ele><time>2026-05-03T10:17:48.423Z</time></trkpt><trkpt lat="44.4481996" lon="8.426481"><ele>432.0</ele><time>2026-05-03T10:17:49.423Z</time></trkpt><trkpt lat="44.4481816" lon="8.4266707"><ele>429.0</ele><time>2026-05-03T10:17:50.422Z</time></trkpt><trkpt lat="44.4481455" lon="8.4268436"><ele>426.0</ele><time>2026-05-03T10:17:51.423Z</time></trkpt><trkpt lat="44.448094" lon="8.426998"><ele>426.0</ele><time>2026-05-03T10:17:52.413Z</time></trkpt><trkpt lat="44.4480221" lon="8.4271341"><ele>426.0</ele><time>2026-05-03T10:17:53.424Z</time></trkpt><trkpt lat="44.4479381" lon="8.4272664"><ele>426.0</ele><time>2026-05-03T10:17:54.416Z</time></trkpt><trkpt lat="44.447856" lon="8.4274189"><ele>426.0</ele><time>2026-05-03T10:17:55.423Z</time></trkpt><trkpt lat="44.4477698" lon="8.4275833"><ele>425.0</ele><time>2026-05-03T10:17:56.423Z</time></trkpt><trkpt lat="44.4476687" lon="8.4277593"><ele>424.0</ele><time>2026-05-03T10:17:57.424Z</time></trkpt><trkpt lat="44.4475614" lon="8.4279483"><ele>423.0</ele><time>2026-05-03T10:17:58.424Z</time></trkpt><trkpt lat="44.4474549" lon="8.428142"><ele>423.33333333333337</ele><time>2026-05-03T10:17:59.415Z</time></trkpt><trkpt lat="44.4473437" lon="8.4283435"><ele>423.6666666666667</ele><time>2026-05-03T10:18:00.417Z</time></trkpt><trkpt lat="44.4472295" lon="8.4285458"><ele>424.0</ele><time>2026-05-03T10:18:01.42Z</time></trkpt><trkpt lat="44.4471138" lon="8.4287533"><ele>422.6666666666667</ele><time>2026-05-03T10:18:02.423Z</time></trkpt><trkpt lat="44.4470046" lon="8.4289693"><ele>421.33333333333337</ele><time>2026-05-03T10:18:03.421Z</time></trkpt><trkpt lat="44.446907" lon="8.4292028"><ele>420.0</ele><time>2026-05-03T10:18:04.423Z</time></trkpt><trkpt lat="44.4468204" lon="8.4294675"><ele>420.5</ele><time>2026-05-03T10:18:05.423Z</time></trkpt><trkpt lat="44.4467429" lon="8.4297568"><ele>421.0</ele><time>2026-05-03T10:18:06.419Z</time></trkpt><trkpt lat="44.446647" lon="8.4300527"><ele>421.0</ele><time>2026-05-03T10:18:07.423Z</time></trkpt><trkpt lat="44.4465451" lon="8.430339"><ele>421.0</ele><time>2026-05-03T10:18:08.42Z</time></trkpt><trkpt lat="44.4464565" lon="8.4306197"><ele>421.0</ele><time>2026-05-03T10:18:09.423Z</time></trkpt><trkpt lat="44.446375" lon="8.4308881"><ele>421.0</ele><time>2026-05-03T10:18:10.419Z</time></trkpt><trkpt lat="44.4462984" lon="8.4311437"><ele>421.0</ele><time>2026-05-03T10:18:11.415Z</time></trkpt><trkpt lat="44.4462292" lon="8.4313894"><ele>421.0</ele><time>2026-05-03T10:18:12.419Z</time></trkpt><trkpt lat="44.4461657" lon="8.431627"><ele>424.0</ele><time>2026-05-03T10:18:13.422Z</time></trkpt><trkpt lat="44.4461037" lon="8.4318532"><ele>427.0</ele><time>2026-05-03T10:18:14.424Z</time></trkpt><trkpt lat="44.4460466" lon="8.4320665"><ele>430.0</ele><time>2026-05-03T10:18:15.423Z</time></trkpt><trkpt lat="44.4459881" lon="8.4322666"><ele>430.0</ele><time>2026-05-03T10:18:16.423Z</time></trkpt><trkpt lat="44.4459308" lon="8.4324497"><ele>430.0</ele><time>2026-05-03T10:18:17.421Z</time></trkpt><trkpt lat="44.4458746" lon="8.4326237"><ele>430.0</ele><time>2026-05-03T10:18:18.423Z</time></trkpt><trkpt lat="44.4458179" lon="8.4327945"><ele>430.0</ele><time>2026-05-03T10:18:19.422Z</time></trkpt><trkpt lat="44.4457592" lon="8.4329605"><ele>429.25</ele><time>2026-05-03T10:18:20.423Z</time></trkpt><trkpt lat="44.4456995" lon="8.4331179"><ele>428.5</ele><time>2026-05-03T10:18:21.424Z</time></trkpt><trkpt lat="44.4456376" lon="8.4332679"><ele>427.75</ele><time>2026-05-03T10:18:22.423Z</time></trkpt><trkpt lat="44.4455736" lon="8.4334167"><ele>427.0</ele><time>2026-05-03T10:18:23.423Z</time></trkpt><trkpt lat="44.4455139" lon="8.4335595"><ele>427.20000000000005</ele><time>2026-05-03T10:18:24.423Z</time></trkpt><trkpt lat="44.4454511" lon="8.4336853"><ele>427.40000000000003</ele><time>2026-05-03T10:18:25.423Z</time></trkpt><trkpt lat="44.4453847" lon="8.4338108"><ele>427.59999999999997</ele><time>2026-05-03T10:18:26.419Z</time></trkpt><trkpt lat="44.4453087" lon="8.4339227"><ele>427.79999999999995</ele><time>2026-05-03T10:18:27.42Z</time></trkpt><trkpt lat="44.4452256" lon="8.4340327"><ele>428.0</ele><time>2026-05-03T10:18:28.423Z</time></trkpt><trkpt lat="44.4451381" lon="8.4341363"><ele>428.0</ele><time>2026-05-03T10:18:29.423Z</time></trkpt><trkpt lat="44.4450503" lon="8.4342405"><ele>428.0</ele><time>2026-05-03T10:18:30.423Z</time></trkpt><trkpt lat="44.4449605" lon="8.4343376"><ele>428.0</ele><time>2026-05-03T10:18:31.423Z</time></trkpt><trkpt lat="44.4448732" lon="8.4344351"><ele>428.0</ele><time>2026-05-03T10:18:32.423Z</time></trkpt><trkpt lat="44.4447875" lon="8.4345351"><ele>428.0</ele><time>2026-05-03T10:18:33.423Z</time></trkpt><trkpt lat="44.4446997" lon="8.4346335"><ele>427.99999999999994</ele><time>2026-05-03T10:18:34.423Z</time></trkpt><trkpt lat="44.4446142" lon="8.4347301"><ele>427.99999999999994</ele><time>2026-05-03T10:18:35.423Z</time></trkpt><trkpt lat="44.4445297" lon="8.4348256"><ele>428.0</ele><time>2026-05-03T10:18:36.423Z</time></trkpt><trkpt lat="44.4444432" lon="8.4349257"><ele>428.0</ele><time>2026-05-03T10:18:37.421Z</time></trkpt><trkpt lat="44.4443589" lon="8.4350265"><ele>428.0</ele><time>2026-05-03T10:18:38.423Z</time></trkpt><trkpt lat="44.4442765" lon="8.4351247"><ele>427.99999999999994</ele><time>2026-05-03T10:18:39.423Z</time></trkpt><trkpt lat="44.4441913" lon="8.4352267"><ele>427.99999999999994</ele><time>2026-05-03T10:18:40.421Z</time></trkpt><trkpt lat="44.4441056" lon="8.4353271"><ele>428.0</ele><time>2026-05-03T10:18:41.423Z</time></trkpt><trkpt lat="44.4440216" lon="8.4354293"><ele>428.0</ele><time>2026-05-03T10:18:42.423Z</time></trkpt><trkpt lat="44.443938" lon="8.4355341"><ele>427.79999999999995</ele><time>2026-05-03T10:18:43.424Z</time></trkpt><trkpt lat="44.4438481" lon="8.4356319"><ele>427.59999999999997</ele><time>2026-05-03T10:18:44.423Z</time></trkpt><trkpt lat="44.4437642" lon="8.4357334"><ele>427.40000000000003</ele><time>2026-05-03T10:18:45.419Z</time></trkpt><trkpt lat="44.4436799" lon="8.4358366"><ele>427.20000000000005</ele><time>2026-05-03T10:18:46.423Z</time></trkpt><trkpt lat="44.4435939" lon="8.4359387"><ele>427.0</ele><time>2026-05-03T10:18:47.419Z</time></trkpt><trkpt lat="44.4435083" lon="8.4360405"><ele>427.75</ele><time>2026-05-03T10:18:48.423Z</time></trkpt><trkpt lat="44.4434243" lon="8.4361487"><ele>428.5</ele><time>2026-05-03T10:18:49.422Z</time></trkpt><trkpt lat="44.443334" lon="8.4362579"><ele>429.25</ele><time>2026-05-03T10:18:50.423Z</time></trkpt><trkpt lat="44.4432475" lon="8.4363638"><ele>430.0</ele><time>2026-05-03T10:18:51.421Z</time></trkpt><trkpt lat="44.4431571" lon="8.436468"><ele>430.0</ele><time>2026-05-03T10:18:52.423Z</time></trkpt><trkpt lat="44.4430633" lon="8.4365636"><ele>430.0</ele><time>2026-05-03T10:18:53.423Z</time></trkpt><trkpt lat="44.4429662" lon="8.4366585"><ele>430.0</ele><time>2026-05-03T10:18:54.423Z</time></trkpt><trkpt lat="44.4428689" lon="8.4367491"><ele>430.0</ele><time>2026-05-03T10:18:55.417Z</time></trkpt><trkpt lat="44.4427685" lon="8.4368368"><ele>430.25</ele><time>2026-05-03T10:18:56.417Z</time></trkpt><trkpt lat="44.4426671" lon="8.4369232"><ele>430.5</ele><time>2026-05-03T10:18:57.424Z</time></trkpt><trkpt lat="44.442564" lon="8.4370142"><ele>430.75</ele><time>2026-05-03T10:18:58.422Z</time></trkpt><trkpt lat="44.4424594" lon="8.4371025"><ele>431.0</ele><time>2026-05-03T10:18:59.423Z</time></trkpt><trkpt lat="44.4423562" lon="8.4371889"><ele>431.0</ele><time>2026-05-03T10:19:00.423Z</time></trkpt><trkpt lat="44.4422527" lon="8.4372801"><ele>431.0</ele><time>2026-05-03T10:19:01.423Z</time></trkpt><trkpt lat="44.4421503" lon="8.4373788"><ele>431.0</ele><time>2026-05-03T10:19:02.424Z</time></trkpt><trkpt lat="44.4420482" lon="8.4374741"><ele>431.0</ele><time>2026-05-03T10:19:03.419Z</time></trkpt><trkpt lat="44.4419475" lon="8.4375768"><ele>432.25</ele><time>2026-05-03T10:19:04.413Z</time></trkpt><trkpt lat="44.4418329" lon="8.437656"><ele>433.5</ele><time>2026-05-03T10:19:05.417Z</time></trkpt><trkpt lat="44.4417293" lon="8.4377456"><ele>434.75</ele><time>2026-05-03T10:19:06.423Z</time></trkpt><trkpt lat="44.4416283" lon="8.4378255"><ele>436.0</ele><time>2026-05-03T10:19:07.422Z</time></trkpt><trkpt lat="44.4415301" lon="8.437916"><ele>435.0</ele><time>2026-05-03T10:19:08.423Z</time></trkpt><trkpt lat="44.4414273" lon="8.438014"><ele>434.0</ele><time>2026-05-03T10:19:09.415Z</time></trkpt><trkpt lat="44.4413293" lon="8.4381126"><ele>433.0</ele><time>2026-05-03T10:19:10.423Z</time></trkpt><trkpt lat="44.4412249" lon="8.4382111"><ele>432.0</ele><time>2026-05-03T10:19:11.418Z</time></trkpt><trkpt lat="44.4411223" lon="8.4383188"><ele>432.0</ele><time>2026-05-03T10:19:12.412Z</time></trkpt><trkpt lat="44.4410166" lon="8.4384434"><ele>432.0</ele><time>2026-05-03T10:19:13.423Z</time></trkpt><trkpt lat="44.44091" lon="8.4385824"><ele>432.0</ele><time>2026-05-03T10:19:14.423Z</time></trkpt><trkpt lat="44.4407972" lon="8.4387206"><ele>432.0</ele><time>2026-05-03T10:19:15.423Z</time></trkpt><trkpt lat="44.4406815" lon="8.4388613"><ele>432.0</ele><time>2026-05-03T10:19:16.423Z</time></trkpt><trkpt lat="44.4405695" lon="8.4390134"><ele>432.0</ele><time>2026-05-03T10:19:17.423Z</time></trkpt><trkpt lat="44.4404478" lon="8.439174"><ele>432.0</ele><time>2026-05-03T10:19:18.424Z</time></trkpt><trkpt lat="44.4403269" lon="8.4393334"><ele>431.33333333333337</ele><time>2026-05-03T10:19:19.423Z</time></trkpt><trkpt lat="44.4401967" lon="8.4394992"><ele>430.6666666666667</ele><time>2026-05-03T10:19:20.423Z</time></trkpt><trkpt lat="44.4400645" lon="8.4396648"><ele>430.0</ele><time>2026-05-03T10:19:21.417Z</time></trkpt><trkpt lat="44.4399319" lon="8.43984"><ele>431.0</ele><time>2026-05-03T10:19:22.422Z</time></trkpt><trkpt lat="44.4397946" lon="8.4400139"><ele>432.0</ele><time>2026-05-03T10:19:23.423Z</time></trkpt><trkpt lat="44.4396563" lon="8.4401852"><ele>433.0</ele><time>2026-05-03T10:19:24.423Z</time></trkpt><trkpt lat="44.439519" lon="8.4403602"><ele>434.0</ele><time>2026-05-03T10:19:25.423Z</time></trkpt><trkpt lat="44.4393801" lon="8.4405354"><ele>435.0</ele><time>2026-05-03T10:19:26.417Z</time></trkpt><trkpt lat="44.4392425" lon="8.4407031"><ele>436.0</ele><time>2026-05-03T10:19:27.422Z</time></trkpt><trkpt lat="44.4391101" lon="8.4408775"><ele>436.0</ele><time>2026-05-03T10:19:28.423Z</time></trkpt><trkpt lat="44.4389848" lon="8.4410619"><ele>436.0</ele><time>2026-05-03T10:19:29.422Z</time></trkpt><trkpt lat="44.438879" lon="8.4412786"><ele>436.0</ele><time>2026-05-03T10:19:30.424Z</time></trkpt><trkpt lat="44.4387902" lon="8.4415197"><ele>436.0</ele><time>2026-05-03T10:19:31.423Z</time></trkpt><trkpt lat="44.4387216" lon="8.4417776"><ele>436.0</ele><time>2026-05-03T10:19:32.419Z</time></trkpt><trkpt lat="44.4386808" lon="8.4420478"><ele>436.0</ele><time>2026-05-03T10:19:33.423Z</time></trkpt><trkpt lat="44.4386623" lon="8.4423301"><ele>436.0</ele><time>2026-05-03T10:19:34.423Z</time></trkpt><trkpt lat="44.4386568" lon="8.4426171"><ele>436.0</ele><time>2026-05-03T10:19:35.423Z</time></trkpt><trkpt lat="44.4386376" lon="8.4429019"><ele>436.0</ele><time>2026-05-03T10:19:36.421Z</time></trkpt><trkpt lat="44.4386013" lon="8.4431877"><ele>436.6666666666667</ele><time>2026-05-03T10:19:37.424Z</time></trkpt><trkpt lat="44.4385494" lon="8.4434755"><ele>437.33333333333337</ele><time>2026-05-03T10:19:38.413Z</time></trkpt><trkpt lat="44.4384811" lon="8.4437571"><ele>438.0</ele><time>2026-05-03T10:19:39.412Z</time></trkpt><trkpt lat="44.4383924" lon="8.4440183"><ele>439.33333333333337</ele><time>2026-05-03T10:19:40.424Z</time></trkpt><trkpt lat="44.4382938" lon="8.4442571"><ele>440.6666666666667</ele><time>2026-05-03T10:19:41.423Z</time></trkpt><trkpt lat="44.4381846" lon="8.4444753"><ele>442.0</ele><time>2026-05-03T10:19:42.423Z</time></trkpt><trkpt lat="44.4380709" lon="8.4446832"><ele>441.0</ele><time>2026-05-03T10:19:43.415Z</time></trkpt><trkpt lat="44.4379577" lon="8.4448917"><ele>440.0</ele><time>2026-05-03T10:19:44.423Z</time></trkpt><trkpt lat="44.4378544" lon="8.4451062"><ele>439.0</ele><time>2026-05-03T10:19:45.423Z</time></trkpt><trkpt lat="44.437757" lon="8.4453323"><ele>440.33333333333337</ele><time>2026-05-03T10:19:46.423Z</time></trkpt><trkpt lat="44.4376675" lon="8.4455721"><ele>441.66666666666663</ele><time>2026-05-03T10:19:47.423Z</time></trkpt><trkpt lat="44.4375805" lon="8.4458206"><ele>443.0</ele><time>2026-05-03T10:19:48.423Z</time></trkpt><trkpt lat="44.4374954" lon="8.4460711"><ele>445.3333333333333</ele><time>2026-05-03T10:19:49.423Z</time></trkpt><trkpt lat="44.4374066" lon="8.4463185"><ele>447.66666666666663</ele><time>2026-05-03T10:19:50.419Z</time></trkpt><trkpt lat="44.4373136" lon="8.446571"><ele>450.0</ele><time>2026-05-03T10:19:51.415Z</time></trkpt><trkpt lat="44.4372135" lon="8.4468207"><ele>450.33333333333337</ele><time>2026-05-03T10:19:52.423Z</time></trkpt><trkpt lat="44.4371091" lon="8.4470757"><ele>450.6666666666667</ele><time>2026-05-03T10:19:53.423Z</time></trkpt><trkpt lat="44.4370035" lon="8.4473216"><ele>451.0</ele><time>2026-05-03T10:19:54.422Z</time></trkpt><trkpt lat="44.4369017" lon="8.447563"><ele>453.0</ele><time>2026-05-03T10:19:55.417Z</time></trkpt><trkpt lat="44.4368012" lon="8.4477955"><ele>455.0</ele><time>2026-05-03T10:19:56.423Z</time></trkpt><trkpt lat="44.4367021" lon="8.4480261"><ele>457.0</ele><time>2026-05-03T10:19:57.424Z</time></trkpt><trkpt lat="44.4366064" lon="8.4482515"><ele>459.0</ele><time>2026-05-03T10:19:58.424Z</time></trkpt><trkpt lat="44.4365114" lon="8.4484723"><ele>461.0</ele><time>2026-05-03T10:19:59.423Z</time></trkpt><trkpt lat="44.4364215" lon="8.44869"><ele>463.0</ele><time>2026-05-03T10:20:00.42Z</time></trkpt><trkpt lat="44.4363294" lon="8.4489068"><ele>467.33333333333337</ele><time>2026-05-03T10:20:01.424Z</time></trkpt><trkpt lat="44.4362342" lon="8.4491263"><ele>471.66666666666663</ele><time>2026-05-03T10:20:02.423Z</time></trkpt><trkpt lat="44.4361498" lon="8.4493532"><ele>476.0</ele><time>2026-05-03T10:20:03.423Z</time></trkpt><trkpt lat="44.4360855" lon="8.4495923"><ele>477.0</ele><time>2026-05-03T10:20:04.423Z</time></trkpt><trkpt lat="44.4360424" lon="8.4498434"><ele>478.0</ele><time>2026-05-03T10:20:05.423Z</time></trkpt><trkpt lat="44.4360223" lon="8.4500973"><ele>479.0</ele><time>2026-05-03T10:20:06.415Z</time></trkpt><trkpt lat="44.4360083" lon="8.4503547"><ele>480.0</ele><time>2026-05-03T10:20:07.419Z</time></trkpt><trkpt lat="44.4359881" lon="8.4506128"><ele>481.0</ele><time>2026-05-03T10:20:08.423Z</time></trkpt><trkpt lat="44.4359601" lon="8.4508691"><ele>482.0</ele><time>2026-05-03T10:20:09.418Z</time></trkpt><trkpt lat="44.4359227" lon="8.4511216"><ele>481.0</ele><time>2026-05-03T10:20:10.423Z</time></trkpt><trkpt lat="44.4358695" lon="8.4513625"><ele>480.0</ele><time>2026-05-03T10:20:11.417Z</time></trkpt><trkpt lat="44.4357981" lon="8.4515881"><ele>479.0</ele><time>2026-05-03T10:20:12.423Z</time></trkpt><trkpt lat="44.4357147" lon="8.4518061"><ele>479.0</ele><time>2026-05-03T10:20:13.423Z</time></trkpt><trkpt lat="44.4356235" lon="8.4520114"><ele>479.0</ele><time>2026-05-03T10:20:14.423Z</time></trkpt><trkpt lat="44.4355258" lon="8.452196"><ele>479.0</ele><time>2026-05-03T10:20:15.423Z</time></trkpt><trkpt lat="44.4354204" lon="8.4523627"><ele>475.66666666666663</ele><time>2026-05-03T10:20:16.421Z</time></trkpt><trkpt lat="44.43531" lon="8.4525232"><ele>472.33333333333337</ele><time>2026-05-03T10:20:17.423Z</time></trkpt><trkpt lat="44.4351936" lon="8.4526779"><ele>469.0</ele><time>2026-05-03T10:20:18.418Z</time></trkpt><trkpt lat="44.4350735" lon="8.4528347"><ele>469.6666666666667</ele><time>2026-05-03T10:20:19.423Z</time></trkpt><trkpt lat="44.4349555" lon="8.4529895"><ele>470.33333333333337</ele><time>2026-05-03T10:20:20.423Z</time></trkpt><trkpt lat="44.434835" lon="8.4531496"><ele>471.0</ele><time>2026-05-03T10:20:21.423Z</time></trkpt><trkpt lat="44.4347094" lon="8.453311"><ele>468.33333333333337</ele><time>2026-05-03T10:20:22.424Z</time></trkpt><trkpt lat="44.4345796" lon="8.4534683"><ele>465.6666666666667</ele><time>2026-05-03T10:20:23.423Z</time></trkpt><trkpt lat="44.4344544" lon="8.4536268"><ele>463.0</ele><time>2026-05-03T10:20:24.422Z</time></trkpt><trkpt lat="44.4343318" lon="8.4537882"><ele>463.33333333333337</ele><time>2026-05-03T10:20:25.423Z</time></trkpt><trkpt lat="44.4342031" lon="8.4539526"><ele>463.66666666666663</ele><time>2026-05-03T10:20:26.423Z</time></trkpt><trkpt lat="44.4340748" lon="8.4541098"><ele>464.0</ele><time>2026-05-03T10:20:27.423Z</time></trkpt><trkpt lat="44.4339371" lon="8.4542565"><ele>465.0</ele><time>2026-05-03T10:20:28.423Z</time></trkpt><trkpt lat="44.4337913" lon="8.4543932"><ele>466.0</ele><time>2026-05-03T10:20:29.423Z</time></trkpt><trkpt lat="44.4336435" lon="8.4545236"><ele>467.0</ele><time>2026-05-03T10:20:30.418Z</time></trkpt><trkpt lat="44.4334957" lon="8.4546572"><ele>467.3333333333333</ele><time>2026-05-03T10:20:31.423Z</time></trkpt><trkpt lat="44.4333522" lon="8.4547928"><ele>467.66666666666663</ele><time>2026-05-03T10:20:32.423Z</time></trkpt><trkpt lat="44.4332062" lon="8.4549234"><ele>468.0</ele><time>2026-05-03T10:20:33.419Z</time></trkpt><trkpt lat="44.4330624" lon="8.4550518"><ele>467.66666666666663</ele><time>2026-05-03T10:20:34.423Z</time></trkpt><trkpt lat="44.4329197" lon="8.4551851"><ele>467.3333333333333</ele><time>2026-05-03T10:20:35.423Z</time></trkpt><trkpt lat="44.432781" lon="8.4553115"><ele>467.0</ele><time>2026-05-03T10:20:36.423Z</time></trkpt><trkpt lat="44.4326518" lon="8.4554492"><ele>467.0</ele><time>2026-05-03T10:20:37.423Z</time></trkpt><trkpt lat="44.4325362" lon="8.4556134"><ele>467.0</ele><time>2026-05-03T10:20:38.423Z</time></trkpt><trkpt lat="44.4324364" lon="8.4557954"><ele>467.0</ele><time>2026-05-03T10:20:39.419Z</time></trkpt><trkpt lat="44.4323467" lon="8.4559856"><ele>467.0</ele><time>2026-05-03T10:20:40.423Z</time></trkpt><trkpt lat="44.4322694" lon="8.4561939"><ele>467.0</ele><time>2026-05-03T10:20:41.423Z</time></trkpt><trkpt lat="44.4321972" lon="8.4564056"><ele>467.0</ele><time>2026-05-03T10:20:42.417Z</time></trkpt><trkpt lat="44.4321236" lon="8.4566193"><ele>467.66666666666663</ele><time>2026-05-03T10:20:43.423Z</time></trkpt><trkpt lat="44.4320473" lon="8.4568339"><ele>468.33333333333337</ele><time>2026-05-03T10:20:44.424Z</time></trkpt><trkpt lat="44.4319752" lon="8.4570535"><ele>469.0</ele><time>2026-05-03T10:20:45.423Z</time></trkpt><trkpt lat="44.4318998" lon="8.4572623"><ele>469.0</ele><time>2026-05-03T10:20:46.423Z</time></trkpt><trkpt lat="44.4318206" lon="8.4574516"><ele>469.0</ele><time>2026-05-03T10:20:47.417Z</time></trkpt><trkpt lat="44.4317341" lon="8.4576201"><ele>469.0</ele><time>2026-05-03T10:20:48.423Z</time></trkpt><trkpt lat="44.4316341" lon="8.4577739"><ele>469.0</ele><time>2026-05-03T10:20:49.424Z</time></trkpt><trkpt lat="44.4315244" lon="8.4579116"><ele>469.0</ele><time>2026-05-03T10:20:50.423Z</time></trkpt><trkpt lat="44.4314162" lon="8.4580362"><ele>469.0</ele><time>2026-05-03T10:20:51.423Z</time></trkpt><trkpt lat="44.4313066" lon="8.4581455"><ele>469.0</ele><time>2026-05-03T10:20:52.421Z</time></trkpt><trkpt lat="44.4311916" lon="8.4582369"><ele>470.0</ele><time>2026-05-03T10:20:53.423Z</time></trkpt><trkpt lat="44.4310769" lon="8.4583198"><ele>471.0</ele><time>2026-05-03T10:20:54.423Z</time></trkpt><trkpt lat="44.4309715" lon="8.4584029"><ele>472.0</ele><time>2026-05-03T10:20:55.424Z</time></trkpt><trkpt lat="44.4308636" lon="8.4584746"><ele>473.0</ele><time>2026-05-03T10:20:56.424Z</time></trkpt><trkpt lat="44.4307521" lon="8.4585178"><ele>473.0</ele><time>2026-05-03T10:20:57.419Z</time></trkpt><trkpt lat="44.4306417" lon="8.4585539"><ele>472.99999999999994</ele><time>2026-05-03T10:20:58.424Z</time></trkpt><trkpt lat="44.4305348" lon="8.4585913"><ele>472.99999999999994</ele><time>2026-05-03T10:20:59.423Z</time></trkpt><trkpt lat="44.4304364" lon="8.4586454"><ele>473.0</ele><time>2026-05-03T10:21:00.423Z</time></trkpt><trkpt lat="44.4303412" lon="8.45872"><ele>473.0</ele><time>2026-05-03T10:21:01.423Z</time></trkpt><trkpt lat="44.4302533" lon="8.4588246"><ele>473.25</ele><time>2026-05-03T10:21:02.424Z</time></trkpt><trkpt lat="44.4301646" lon="8.458941"><ele>473.5</ele><time>2026-05-03T10:21:03.418Z</time></trkpt><trkpt lat="44.4300791" lon="8.459075"><ele>473.75</ele><time>2026-05-03T10:21:04.423Z</time></trkpt><trkpt lat="44.4300102" lon="8.4592676"><ele>474.0</ele><time>2026-05-03T10:21:05.423Z</time></trkpt><trkpt lat="44.4299562" lon="8.4594942"><ele>476.33333333333337</ele><time>2026-05-03T10:21:06.423Z</time></trkpt><trkpt lat="44.4299026" lon="8.4597497"><ele>478.6666666666667</ele><time>2026-05-03T10:21:07.424Z</time></trkpt><trkpt lat="44.4298337" lon="8.460024"><ele>481.0</ele><time>2026-05-03T10:21:08.424Z</time></trkpt><trkpt lat="44.429752" lon="8.4603107"><ele>482.33333333333337</ele><time>2026-05-03T10:21:09.423Z</time></trkpt><trkpt lat="44.4296707" lon="8.460591"><ele>483.66666666666663</ele><time>2026-05-03T10:21:10.422Z</time></trkpt><trkpt lat="44.4295945" lon="8.4608622"><ele>485.0</ele><time>2026-05-03T10:21:11.423Z</time></trkpt><trkpt lat="44.4295264" lon="8.4611262"><ele>486.3333333333333</ele><time>2026-05-03T10:21:12.423Z</time></trkpt><trkpt lat="44.4294748" lon="8.4613856"><ele>487.66666666666663</ele><time>2026-05-03T10:21:13.424Z</time></trkpt><trkpt lat="44.429443" lon="8.461643"><ele>489.0</ele><time>2026-05-03T10:21:14.423Z</time></trkpt><trkpt lat="44.4294166" lon="8.461905"><ele>490.66666666666663</ele><time>2026-05-03T10:21:15.423Z</time></trkpt><trkpt lat="44.4293877" lon="8.4621678"><ele>492.3333333333333</ele><time>2026-05-03T10:21:16.423Z</time></trkpt><trkpt lat="44.4293592" lon="8.4624268"><ele>494.0</ele><time>2026-05-03T10:21:17.417Z</time></trkpt><trkpt lat="44.429339" lon="8.4626869"><ele>493.0</ele><time>2026-05-03T10:21:18.421Z</time></trkpt><trkpt lat="44.4293396" lon="8.4629476"><ele>492.0</ele><time>2026-05-03T10:21:19.423Z</time></trkpt><trkpt lat="44.4293614" lon="8.463213"><ele>491.0</ele><time>2026-05-03T10:21:20.424Z</time></trkpt><trkpt lat="44.4294001" lon="8.4634739"><ele>491.0</ele><time>2026-05-03T10:21:21.423Z</time></trkpt><trkpt lat="44.4294313" lon="8.463743"><ele>491.0</ele><time>2026-05-03T10:21:22.423Z</time></trkpt><trkpt lat="44.4294688" lon="8.4640168"><ele>491.0</ele><time>2026-05-03T10:21:23.423Z</time></trkpt><trkpt lat="44.4295096" lon="8.4642891"><ele>491.0</ele><time>2026-05-03T10:21:24.418Z</time></trkpt><trkpt lat="44.4295504" lon="8.4645601"><ele>491.0</ele><time>2026-05-03T10:21:25.423Z</time></trkpt><trkpt lat="44.4295901" lon="8.4648293"><ele>491.0</ele><time>2026-05-03T10:21:26.424Z</time></trkpt><trkpt lat="44.4296592" lon="8.4653394"><ele>492.0</ele><time>2026-05-03T10:21:28.424Z</time></trkpt><trkpt lat="44.4296877" lon="8.4655777"><ele>493.0</ele><time>2026-05-03T10:21:29.424Z</time></trkpt><trkpt lat="44.4297084" lon="8.4658143"><ele>494.0</ele><time>2026-05-03T10:21:30.423Z</time></trkpt><trkpt lat="44.4297262" lon="8.4660553"><ele>493.3333333333333</ele><time>2026-05-03T10:21:31.423Z</time></trkpt><trkpt lat="44.429745" lon="8.466295"><ele>492.66666666666663</ele><time>2026-05-03T10:21:32.423Z</time></trkpt><trkpt lat="44.4297599" lon="8.466524"><ele>492.0</ele><time>2026-05-03T10:21:33.421Z</time></trkpt><trkpt lat="44.4297742" lon="8.4667379"><ele>492.0</ele><time>2026-05-03T10:21:34.423Z</time></trkpt><trkpt lat="44.4297749" lon="8.466947"><ele>492.0</ele><time>2026-05-03T10:21:35.424Z</time></trkpt><trkpt lat="44.4297676" lon="8.4671511"><ele>492.0</ele><time>2026-05-03T10:21:36.42Z</time></trkpt><trkpt lat="44.4297475" lon="8.4673513"><ele>492.0</ele><time>2026-05-03T10:21:37.423Z</time></trkpt><trkpt lat="44.4297183" lon="8.467552"><ele>492.0</ele><time>2026-05-03T10:21:38.421Z</time></trkpt><trkpt lat="44.4296691" lon="8.467761"><ele>492.0</ele><time>2026-05-03T10:21:39.412Z</time></trkpt><trkpt lat="44.429607" lon="8.4679727"><ele>492.0</ele><time>2026-05-03T10:21:40.423Z</time></trkpt><trkpt lat="44.4295372" lon="8.4681902"><ele>493.0</ele><time>2026-05-03T10:21:41.424Z</time></trkpt><trkpt lat="44.4294584" lon="8.4684212"><ele>494.0</ele><time>2026-05-03T10:21:42.417Z</time></trkpt><trkpt lat="44.4293732" lon="8.4686549"><ele>495.0</ele><time>2026-05-03T10:21:43.423Z</time></trkpt><trkpt lat="44.4292904" lon="8.4688922"><ele>495.0</ele><time>2026-05-03T10:21:44.423Z</time></trkpt><trkpt lat="44.4292039" lon="8.4691307"><ele>495.0</ele><time>2026-05-03T10:21:45.423Z</time></trkpt><trkpt lat="44.4291204" lon="8.4693584"><ele>495.0</ele><time>2026-05-03T10:21:46.423Z</time></trkpt><trkpt lat="44.429042" lon="8.469592"><ele>494.66666666666663</ele><time>2026-05-03T10:21:47.422Z</time></trkpt><trkpt lat="44.4289927" lon="8.4698333"><ele>494.3333333333333</ele><time>2026-05-03T10:21:48.423Z</time></trkpt><trkpt lat="44.4289614" lon="8.470085"><ele>494.0</ele><time>2026-05-03T10:21:49.424Z</time></trkpt><trkpt lat="44.4289396" lon="8.4703411"><ele>494.66666666666663</ele><time>2026-05-03T10:21:50.423Z</time></trkpt><trkpt lat="44.428926" lon="8.470597"><ele>495.33333333333337</ele><time>2026-05-03T10:21:51.423Z</time></trkpt><trkpt lat="44.4289158" lon="8.4708563"><ele>496.0</ele><time>2026-05-03T10:21:52.423Z</time></trkpt><trkpt lat="44.428912" lon="8.4711127"><ele>496.0</ele><time>2026-05-03T10:21:53.424Z</time></trkpt><trkpt lat="44.4289068" lon="8.4713636"><ele>496.0</ele><time>2026-05-03T10:21:54.424Z</time></trkpt><trkpt lat="44.4289135" lon="8.47161"><ele>496.0</ele><time>2026-05-03T10:21:55.423Z</time></trkpt><trkpt lat="44.4289308" lon="8.4718553"><ele>496.0</ele><time>2026-05-03T10:21:56.421Z</time></trkpt><trkpt lat="44.4289565" lon="8.4720899"><ele>496.0</ele><time>2026-05-03T10:21:57.423Z</time></trkpt><trkpt lat="44.4289823" lon="8.47231"><ele>496.0</ele><time>2026-05-03T10:21:58.423Z</time></trkpt><trkpt lat="44.429002" lon="8.4725169"><ele>496.75</ele><time>2026-05-03T10:21:59.423Z</time></trkpt><trkpt lat="44.4290204" lon="8.4727112"><ele>497.5</ele><time>2026-05-03T10:22:00.423Z</time></trkpt><trkpt lat="44.429036" lon="8.4728857"><ele>498.25</ele><time>2026-05-03T10:22:01.424Z</time></trkpt><trkpt lat="44.429048" lon="8.4730419"><ele>499.0</ele><time>2026-05-03T10:22:02.423Z</time></trkpt><trkpt lat="44.4290576" lon="8.4731667"><ele>499.50000000000006</ele><time>2026-05-03T10:22:03.418Z</time></trkpt><trkpt lat="44.4290627" lon="8.473275"><ele>500.0</ele><time>2026-05-03T10:22:04.424Z</time></trkpt><trkpt lat="44.4290587" lon="8.4733774"><ele>500.5</ele><time>2026-05-03T10:22:05.424Z</time></trkpt><trkpt lat="44.4290597" lon="8.4734675"><ele>501.0</ele><time>2026-05-03T10:22:06.423Z</time></trkpt><trkpt lat="44.4291518" lon="8.4735719"><ele>501.50000000000006</ele><time>2026-05-03T10:22:08.422Z</time></trkpt><trkpt lat="44.4292302" lon="8.473601"><ele>502.0</ele><time>2026-05-03T10:22:09.423Z</time></trkpt><trkpt lat="44.4293367" lon="8.473646"><ele>502.0</ele><time>2026-05-03T10:22:10.424Z</time></trkpt><trkpt lat="44.4294637" lon="8.4736997"><ele>502.0</ele><time>2026-05-03T10:22:11.424Z</time></trkpt><trkpt lat="44.429591" lon="8.4737515"><ele>502.0</ele><time>2026-05-03T10:22:12.423Z</time></trkpt><trkpt lat="44.4297228" lon="8.4738076"><ele>502.0</ele><time>2026-05-03T10:22:13.424Z</time></trkpt><trkpt lat="44.4298536" lon="8.4738665"><ele>501.5</ele><time>2026-05-03T10:22:14.423Z</time></trkpt><trkpt lat="44.4299845" lon="8.4739288"><ele>501.0</ele><time>2026-05-03T10:22:15.423Z</time></trkpt><trkpt lat="44.43012" lon="8.4739974"><ele>500.5</ele><time>2026-05-03T10:22:16.423Z</time></trkpt><trkpt lat="44.4302463" lon="8.474085"><ele>500.0</ele><time>2026-05-03T10:22:17.423Z</time></trkpt><trkpt lat="44.4303649" lon="8.4741955"><ele>502.3333333333333</ele><time>2026-05-03T10:22:18.423Z</time></trkpt><trkpt lat="44.43048" lon="8.4743302"><ele>504.66666666666663</ele><time>2026-05-03T10:22:19.423Z</time></trkpt><trkpt lat="44.4305876" lon="8.4744795"><ele>507.0</ele><time>2026-05-03T10:22:20.423Z</time></trkpt><trkpt lat="44.4306959" lon="8.4746345"><ele>507.0</ele><time>2026-05-03T10:22:21.423Z</time></trkpt><trkpt lat="44.4308048" lon="8.4747874"><ele>507.0</ele><time>2026-05-03T10:22:22.418Z</time></trkpt><trkpt lat="44.4309176" lon="8.474934"><ele>507.0</ele><time>2026-05-03T10:22:23.423Z</time></trkpt><trkpt lat="44.4310121" lon="8.4750547"><ele>507.0</ele><time>2026-05-03T10:22:24.423Z</time></trkpt><trkpt lat="44.4311031" lon="8.4751924"><ele>507.0</ele><time>2026-05-03T10:22:25.423Z</time></trkpt><trkpt lat="44.4311759" lon="8.4753617"><ele>507.0</ele><time>2026-05-03T10:22:26.424Z</time></trkpt><trkpt lat="44.4312451" lon="8.4755571"><ele>507.0</ele><time>2026-05-03T10:22:27.424Z</time></trkpt><trkpt lat="44.4313229" lon="8.4757549"><ele>508.66666666666663</ele><time>2026-05-03T10:22:28.424Z</time></trkpt><trkpt lat="44.4314093" lon="8.4759489"><ele>510.3333333333333</ele><time>2026-05-03T10:22:29.424Z</time></trkpt><trkpt lat="44.4314965" lon="8.4761247"><ele>512.0</ele><time>2026-05-03T10:22:30.424Z</time></trkpt><trkpt lat="44.431574" lon="8.4762996"><ele>512.25</ele><time>2026-05-03T10:22:31.423Z</time></trkpt><trkpt lat="44.4316207" lon="8.4764917"><ele>512.5</ele><time>2026-05-03T10:22:32.423Z</time></trkpt><trkpt lat="44.4316233" lon="8.4766881"><ele>512.75</ele><time>2026-05-03T10:22:33.423Z</time></trkpt><trkpt lat="44.4315821" lon="8.4768846"><ele>513.0</ele><time>2026-05-03T10:22:34.424Z</time></trkpt><trkpt lat="44.4315049" lon="8.477078"><ele>515.3333333333334</ele><time>2026-05-03T10:22:35.423Z</time></trkpt><trkpt lat="44.4314277" lon="8.4772662"><ele>517.6666666666667</ele><time>2026-05-03T10:22:36.423Z</time></trkpt><trkpt lat="44.4313921" lon="8.4774812"><ele>520.0</ele><time>2026-05-03T10:22:37.423Z</time></trkpt><trkpt lat="44.4313805" lon="8.4777205"><ele>522.0</ele><time>2026-05-03T10:22:38.424Z</time></trkpt><trkpt lat="44.4313919" lon="8.4779619"><ele>524.0</ele><time>2026-05-03T10:22:39.421Z</time></trkpt><trkpt lat="44.4314177" lon="8.4782008"><ele>526.0</ele><time>2026-05-03T10:22:40.424Z</time></trkpt><trkpt lat="44.4314724" lon="8.4784292"><ele>526.0</ele><time>2026-05-03T10:22:41.418Z</time></trkpt><trkpt lat="44.4315563" lon="8.4786358"><ele>526.0</ele><time>2026-05-03T10:22:42.424Z</time></trkpt><trkpt lat="44.4316532" lon="8.4788148"><ele>526.0</ele><time>2026-05-03T10:22:43.423Z</time></trkpt><trkpt lat="44.4317629" lon="8.4789597"><ele>525.0</ele><time>2026-05-03T10:22:44.421Z</time></trkpt><trkpt lat="44.4318882" lon="8.4790825"><ele>524.0</ele><time>2026-05-03T10:22:45.423Z</time></trkpt><trkpt lat="44.4320221" lon="8.4791881"><ele>523.0</ele><time>2026-05-03T10:22:46.423Z</time></trkpt><trkpt lat="44.4321666" lon="8.4792752"><ele>523.0</ele><time>2026-05-03T10:22:47.423Z</time></trkpt><trkpt lat="44.4323231" lon="8.4793323"><ele>523.0</ele><time>2026-05-03T10:22:48.423Z</time></trkpt><trkpt lat="44.4324864" lon="8.479375"><ele>523.0</ele><time>2026-05-03T10:22:49.423Z</time></trkpt><trkpt lat="44.4326594" lon="8.4794162"><ele>523.0</ele><time>2026-05-03T10:22:50.423Z</time></trkpt><trkpt lat="44.4328305" lon="8.4794626"><ele>523.0</ele><time>2026-05-03T10:22:51.423Z</time></trkpt><trkpt lat="44.433002" lon="8.4795094"><ele>523.0</ele><time>2026-05-03T10:22:52.422Z</time></trkpt><trkpt lat="44.4331763" lon="8.47956"><ele>524.6666666666667</ele><time>2026-05-03T10:22:53.423Z</time></trkpt><trkpt lat="44.4333543" lon="8.4796215"><ele>526.3333333333334</ele><time>2026-05-03T10:22:54.424Z</time></trkpt><trkpt lat="44.4335251" lon="8.4797031"><ele>528.0</ele><time>2026-05-03T10:22:55.422Z</time></trkpt><trkpt lat="44.4336979" lon="8.4798047"><ele>524.3333333333334</ele><time>2026-05-03T10:22:56.423Z</time></trkpt><trkpt lat="44.4338728" lon="8.4799165"><ele>520.6666666666667</ele><time>2026-05-03T10:22:57.423Z</time></trkpt><trkpt lat="44.4340521" lon="8.4800366"><ele>517.0</ele><time>2026-05-03T10:22:58.423Z</time></trkpt><trkpt lat="44.4342328" lon="8.4801661"><ele>517.0</ele><time>2026-05-03T10:22:59.422Z</time></trkpt><trkpt lat="44.4344141" lon="8.4802982"><ele>517.0</ele><time>2026-05-03T10:23:00.418Z</time></trkpt><trkpt lat="44.4345989" lon="8.4804343"><ele>517.0</ele><time>2026-05-03T10:23:01.412Z</time></trkpt><trkpt lat="44.4347843" lon="8.4805647"><ele>517.6666666666667</ele><time>2026-05-03T10:23:02.423Z</time></trkpt><trkpt lat="44.4349676" lon="8.4807006"><ele>518.3333333333334</ele><time>2026-05-03T10:23:03.415Z</time></trkpt><trkpt lat="44.4351489" lon="8.4808342"><ele>519.0</ele><time>2026-05-03T10:23:04.424Z</time></trkpt><trkpt lat="44.4353339" lon="8.4809649"><ele>519.0</ele><time>2026-05-03T10:23:05.423Z</time></trkpt><trkpt lat="44.4355227" lon="8.4811015"><ele>519.0</ele><time>2026-05-03T10:23:06.423Z</time></trkpt><trkpt lat="44.4357086" lon="8.4812382"><ele>519.0</ele><time>2026-05-03T10:23:07.421Z</time></trkpt><trkpt lat="44.4358984" lon="8.4813815"><ele>517.3333333333334</ele><time>2026-05-03T10:23:08.423Z</time></trkpt><trkpt lat="44.4360796" lon="8.4815143"><ele>515.6666666666667</ele><time>2026-05-03T10:23:09.424Z</time></trkpt><trkpt lat="44.4362668" lon="8.4816487"><ele>514.0</ele><time>2026-05-03T10:23:10.423Z</time></trkpt><trkpt lat="44.4364561" lon="8.4817698"><ele>514.0</ele><time>2026-05-03T10:23:11.423Z</time></trkpt><trkpt lat="44.436651" lon="8.481887"><ele>514.0</ele><time>2026-05-03T10:23:12.421Z</time></trkpt><trkpt lat="44.4368476" lon="8.4820015"><ele>514.0</ele><time>2026-05-03T10:23:13.423Z</time></trkpt><trkpt lat="44.4370468" lon="8.4821142"><ele>513.3333333333334</ele><time>2026-05-03T10:23:14.417Z</time></trkpt><trkpt lat="44.4372456" lon="8.4822283"><ele>512.6666666666666</ele><time>2026-05-03T10:23:15.415Z</time></trkpt><trkpt lat="44.437442" lon="8.4823332"><ele>512.0</ele><time>2026-05-03T10:23:16.415Z</time></trkpt><trkpt lat="44.4376426" lon="8.4824386"><ele>512.0</ele><time>2026-05-03T10:23:17.423Z</time></trkpt><trkpt lat="44.4378408" lon="8.4825428"><ele>512.0</ele><time>2026-05-03T10:23:18.424Z</time></trkpt><trkpt lat="44.4380493" lon="8.4826505"><ele>512.0</ele><time>2026-05-03T10:23:19.423Z</time></trkpt><trkpt lat="44.4382602" lon="8.4827619"><ele>513.0</ele><time>2026-05-03T10:23:20.423Z</time></trkpt><trkpt lat="44.4384738" lon="8.4828729"><ele>514.0</ele><time>2026-05-03T10:23:21.424Z</time></trkpt><trkpt lat="44.4386836" lon="8.4829855"><ele>513.0</ele><time>2026-05-03T10:23:22.424Z</time></trkpt><trkpt lat="44.4388916" lon="8.483096"><ele>512.0</ele><time>2026-05-03T10:23:23.42Z</time></trkpt><trkpt lat="44.4390974" lon="8.4832097"><ele>511.0</ele><time>2026-05-03T10:23:24.424Z</time></trkpt><trkpt lat="44.4393015" lon="8.4833221"><ele>511.0</ele><time>2026-05-03T10:23:25.423Z</time></trkpt><trkpt lat="44.4395051" lon="8.4834344"><ele>511.0</ele><time>2026-05-03T10:23:26.422Z</time></trkpt><trkpt lat="44.4397065" lon="8.4835388"><ele>511.0</ele><time>2026-05-03T10:23:27.423Z</time></trkpt><trkpt lat="44.4399122" lon="8.483646"><ele>511.0</ele><time>2026-05-03T10:23:28.423Z</time></trkpt><trkpt lat="44.4401151" lon="8.4837569"><ele>511.0</ele><time>2026-05-03T10:23:29.417Z</time></trkpt><trkpt lat="44.4403212" lon="8.4838704"><ele>511.0</ele><time>2026-05-03T10:23:30.422Z</time></trkpt><trkpt lat="44.4405253" lon="8.483981"><ele>509.33333333333337</ele><time>2026-05-03T10:23:31.421Z</time></trkpt><trkpt lat="44.4407271" lon="8.484085"><ele>507.66666666666663</ele><time>2026-05-03T10:23:32.423Z</time></trkpt><trkpt lat="44.4409287" lon="8.4841819"><ele>506.0</ele><time>2026-05-03T10:23:33.423Z</time></trkpt><trkpt lat="44.4411278" lon="8.4842628"><ele>506.3333333333333</ele><time>2026-05-03T10:23:34.423Z</time></trkpt><trkpt lat="44.441328" lon="8.4843217"><ele>506.66666666666663</ele><time>2026-05-03T10:23:35.423Z</time></trkpt><trkpt lat="44.4415346" lon="8.484353"><ele>507.0</ele><time>2026-05-03T10:23:36.423Z</time></trkpt><trkpt lat="44.4417387" lon="8.4843617"><ele>507.0</ele><time>2026-05-03T10:23:37.424Z</time></trkpt><trkpt lat="44.4419432" lon="8.4843539"><ele>507.0</ele><time>2026-05-03T10:23:38.423Z</time></trkpt><trkpt lat="44.442151" lon="8.4843457"><ele>507.0</ele><time>2026-05-03T10:23:39.423Z</time></trkpt><trkpt lat="44.4423599" lon="8.4843413"><ele>507.0</ele><time>2026-05-03T10:23:40.423Z</time></trkpt><trkpt lat="44.4425626" lon="8.4843318"><ele>507.0</ele><time>2026-05-03T10:23:41.421Z</time></trkpt><trkpt lat="44.4427671" lon="8.4843298"><ele>507.0</ele><time>2026-05-03T10:23:42.423Z</time></trkpt><trkpt lat="44.4429731" lon="8.4843314"><ele>506.33333333333337</ele><time>2026-05-03T10:23:43.42Z</time></trkpt><trkpt lat="44.443182" lon="8.4843287"><ele>505.6666666666667</ele><time>2026-05-03T10:23:44.423Z</time></trkpt><trkpt lat="44.4433866" lon="8.4842964"><ele>505.0</ele><time>2026-05-03T10:23:45.417Z</time></trkpt><trkpt lat="44.4435919" lon="8.4842348"><ele>505.0</ele><time>2026-05-03T10:23:46.423Z</time></trkpt><trkpt lat="44.4437902" lon="8.4841322"><ele>505.0</ele><time>2026-05-03T10:23:47.417Z</time></trkpt><trkpt lat="44.4439741" lon="8.4839916"><ele>505.0</ele><time>2026-05-03T10:23:48.423Z</time></trkpt><trkpt lat="44.4441447" lon="8.4838092"><ele>503.6666666666667</ele><time>2026-05-03T10:23:49.424Z</time></trkpt><trkpt lat="44.4443046" lon="8.4836024"><ele>502.33333333333337</ele><time>2026-05-03T10:23:50.423Z</time></trkpt><trkpt lat="44.4444687" lon="8.4833906"><ele>501.0</ele><time>2026-05-03T10:23:51.42Z</time></trkpt><trkpt lat="44.4446353" lon="8.4831761"><ele>500.0</ele><time>2026-05-03T10:23:52.423Z</time></trkpt><trkpt lat="44.4447993" lon="8.4829534"><ele>499.0</ele><time>2026-05-03T10:23:53.423Z</time></trkpt><trkpt lat="44.4449664" lon="8.4827262"><ele>499.0</ele><time>2026-05-03T10:23:54.422Z</time></trkpt><trkpt lat="44.4451323" lon="8.4825055"><ele>499.0</ele><time>2026-05-03T10:23:55.423Z</time></trkpt><trkpt lat="44.4452988" lon="8.4822803"><ele>502.0</ele><time>2026-05-03T10:23:56.421Z</time></trkpt><trkpt lat="44.445459" lon="8.4820437"><ele>505.0</ele><time>2026-05-03T10:23:57.423Z</time></trkpt><trkpt lat="44.4456038" lon="8.4817907"><ele>498.5</ele><time>2026-05-03T10:23:58.423Z</time></trkpt><trkpt lat="44.4457433" lon="8.4815355"><ele>492.0</ele><time>2026-05-03T10:23:59.423Z</time></trkpt><trkpt lat="44.4458789" lon="8.4812754"><ele>490.0</ele><time>2026-05-03T10:24:00.423Z</time></trkpt><trkpt lat="44.4460056" lon="8.4810127"><ele>488.0</ele><time>2026-05-03T10:24:01.423Z</time></trkpt><trkpt lat="44.4461264" lon="8.4807424"><ele>488.0</ele><time>2026-05-03T10:24:02.423Z</time></trkpt><trkpt lat="44.4462468" lon="8.4804708"><ele>488.0</ele><time>2026-05-03T10:24:03.423Z</time></trkpt><trkpt lat="44.4463633" lon="8.4802022"><ele>488.66666666666663</ele><time>2026-05-03T10:24:04.423Z</time></trkpt><trkpt lat="44.4464789" lon="8.4799356"><ele>489.33333333333337</ele><time>2026-05-03T10:24:05.423Z</time></trkpt><trkpt lat="44.4465958" lon="8.4796725"><ele>490.0</ele><time>2026-05-03T10:24:06.421Z</time></trkpt><trkpt lat="44.4467202" lon="8.4794202"><ele>489.33333333333337</ele><time>2026-05-03T10:24:07.423Z</time></trkpt><trkpt lat="44.4468463" lon="8.4791783"><ele>488.66666666666663</ele><time>2026-05-03T10:24:08.414Z</time></trkpt><trkpt lat="44.4469779" lon="8.478943"><ele>488.0</ele><time>2026-05-03T10:24:09.423Z</time></trkpt><trkpt lat="44.4471099" lon="8.4787132"><ele>484.3333333333333</ele><time>2026-05-03T10:24:10.413Z</time></trkpt><trkpt lat="44.4472435" lon="8.4784866"><ele>480.66666666666663</ele><time>2026-05-03T10:24:11.423Z</time></trkpt><trkpt lat="44.4473751" lon="8.4782666"><ele>477.0</ele><time>2026-05-03T10:24:12.416Z</time></trkpt><trkpt lat="44.4475054" lon="8.4780503"><ele>473.0</ele><time>2026-05-03T10:24:13.423Z</time></trkpt><trkpt lat="44.4476324" lon="8.4778359"><ele>469.0</ele><time>2026-05-03T10:24:14.422Z</time></trkpt><trkpt lat="44.4477549" lon="8.4776319"><ele>465.0</ele><time>2026-05-03T10:24:15.422Z</time></trkpt><trkpt lat="44.4478727" lon="8.4774372"><ele>464.0</ele><time>2026-05-03T10:24:16.408Z</time></trkpt><trkpt lat="44.4479865" lon="8.4772632"><ele>463.0</ele><time>2026-05-03T10:24:17.423Z</time></trkpt><trkpt lat="44.448109" lon="8.4771129"><ele>462.0</ele><time>2026-05-03T10:24:18.423Z</time></trkpt><trkpt lat="44.4482503" lon="8.4769979"><ele>459.33333333333337</ele><time>2026-05-03T10:24:19.423Z</time></trkpt><trkpt lat="44.4484063" lon="8.4769158"><ele>456.6666666666667</ele><time>2026-05-03T10:24:20.423Z</time></trkpt><trkpt lat="44.4485759" lon="8.4768874"><ele>454.0</ele><time>2026-05-03T10:24:21.423Z</time></trkpt><trkpt lat="44.4487531" lon="8.4769071"><ele>455.0</ele><time>2026-05-03T10:24:22.422Z</time></trkpt><trkpt lat="44.4489253" lon="8.4769756"><ele>456.0</ele><time>2026-05-03T10:24:23.414Z</time></trkpt><trkpt lat="44.4490928" lon="8.47711"><ele>457.0</ele><time>2026-05-03T10:24:24.423Z</time></trkpt><trkpt lat="44.4492542" lon="8.4772716"><ele>457.6666666666667</ele><time>2026-05-03T10:24:25.423Z</time></trkpt><trkpt lat="44.4494266" lon="8.4774158"><ele>458.33333333333337</ele><time>2026-05-03T10:24:26.424Z</time></trkpt><trkpt lat="44.4496158" lon="8.4775363"><ele>459.0</ele><time>2026-05-03T10:24:27.424Z</time></trkpt><trkpt lat="44.449802" lon="8.4776564"><ele>459.0</ele><time>2026-05-03T10:24:28.423Z</time></trkpt><trkpt lat="44.4499803" lon="8.4777767"><ele>459.0</ele><time>2026-05-03T10:24:29.421Z</time></trkpt><trkpt lat="44.4501568" lon="8.4778961"><ele>459.0</ele><time>2026-05-03T10:24:30.414Z</time></trkpt><trkpt lat="44.4504921" lon="8.4781235"><ele>457.33333333333337</ele><time>2026-05-03T10:24:32.399Z</time></trkpt><trkpt lat="44.4506456" lon="8.4782227"><ele>455.6666666666667</ele><time>2026-05-03T10:24:33.411Z</time></trkpt><trkpt lat="44.4507974" lon="8.478327"><ele>454.0</ele><time>2026-05-03T10:24:34.403Z</time></trkpt><trkpt lat="44.4509467" lon="8.4784275"><ele>454.0</ele><time>2026-05-03T10:24:35.397Z</time></trkpt><trkpt lat="44.4510914" lon="8.4785236"><ele>454.0</ele><time>2026-05-03T10:24:36.391Z</time></trkpt><trkpt lat="44.4512351" lon="8.4786216"><ele>454.0</ele><time>2026-05-03T10:24:37.395Z</time></trkpt><trkpt lat="44.4513722" lon="8.4787059"><ele>454.5</ele><time>2026-05-03T10:24:38.395Z</time></trkpt><trkpt lat="44.4515197" lon="8.4787767"><ele>455.0</ele><time>2026-05-03T10:24:39.395Z</time></trkpt><trkpt lat="44.4516606" lon="8.4788118"><ele>455.5</ele><time>2026-05-03T10:24:40.395Z</time></trkpt><trkpt lat="44.4518007" lon="8.4788057"><ele>456.0</ele><time>2026-05-03T10:24:41.395Z</time></trkpt><trkpt lat="44.4519283" lon="8.478762"><ele>456.0</ele><time>2026-05-03T10:24:42.395Z</time></trkpt><trkpt lat="44.4520471" lon="8.4786802"><ele>456.0</ele><time>2026-05-03T10:24:43.395Z</time></trkpt><trkpt lat="44.4521517" lon="8.4785787"><ele>456.0</ele><time>2026-05-03T10:24:44.395Z</time></trkpt><trkpt lat="44.4522608" lon="8.4784905"><ele>456.0</ele><time>2026-05-03T10:24:45.395Z</time></trkpt><trkpt lat="44.4523771" lon="8.4784154"><ele>454.25</ele><time>2026-05-03T10:24:46.395Z</time></trkpt><trkpt lat="44.4524968" lon="8.4783602"><ele>452.5</ele><time>2026-05-03T10:24:47.395Z</time></trkpt><trkpt lat="44.4526209" lon="8.4783293"><ele>450.75</ele><time>2026-05-03T10:24:48.395Z</time></trkpt><trkpt lat="44.4527417" lon="8.4783122"><ele>449.0</ele><time>2026-05-03T10:24:49.395Z</time></trkpt><trkpt lat="44.4528613" lon="8.4783283"><ele>448.25</ele><time>2026-05-03T10:24:50.396Z</time></trkpt><trkpt lat="44.452976" lon="8.478379"><ele>447.5</ele><time>2026-05-03T10:24:51.395Z</time></trkpt><trkpt lat="44.4530749" lon="8.4784723"><ele>446.75</ele><time>2026-05-03T10:24:52.395Z</time></trkpt><trkpt lat="44.4531666" lon="8.4786105"><ele>446.0</ele><time>2026-05-03T10:24:53.396Z</time></trkpt><trkpt lat="44.4532587" lon="8.4787592"><ele>449.75</ele><time>2026-05-03T10:24:54.395Z</time></trkpt><trkpt lat="44.4533554" lon="8.4789055"><ele>453.5</ele><time>2026-05-03T10:24:55.395Z</time></trkpt><trkpt lat="44.453469" lon="8.4790354"><ele>457.25</ele><time>2026-05-03T10:24:56.396Z</time></trkpt><trkpt lat="44.4535963" lon="8.4791468"><ele>461.0</ele><time>2026-05-03T10:24:57.396Z</time></trkpt><trkpt lat="44.4537235" lon="8.4792525"><ele>459.0</ele><time>2026-05-03T10:24:58.395Z</time></trkpt><trkpt lat="44.4538495" lon="8.4793575"><ele>457.0</ele><time>2026-05-03T10:24:59.395Z</time></trkpt><trkpt lat="44.4539727" lon="8.4794685"><ele>455.0</ele><time>2026-05-03T10:25:00.396Z</time></trkpt><trkpt lat="44.4540935" lon="8.4795824"><ele>453.0</ele><time>2026-05-03T10:25:01.396Z</time></trkpt><trkpt lat="44.4542122" lon="8.4796819"><ele>453.0</ele><time>2026-05-03T10:25:02.395Z</time></trkpt><trkpt lat="44.4543433" lon="8.479749"><ele>453.0</ele><time>2026-05-03T10:25:03.395Z</time></trkpt><trkpt lat="44.4544788" lon="8.4797909"><ele>453.0</ele><time>2026-05-03T10:25:04.395Z</time></trkpt><trkpt lat="44.4546122" lon="8.479835"><ele>453.0</ele><time>2026-05-03T10:25:05.395Z</time></trkpt><trkpt lat="44.4547362" lon="8.4798977"><ele>449.5</ele><time>2026-05-03T10:25:06.396Z</time></trkpt><trkpt lat="44.4548545" lon="8.4799666"><ele>446.0</ele><time>2026-05-03T10:25:07.395Z</time></trkpt><trkpt lat="44.4549696" lon="8.4800282"><ele>442.5</ele><time>2026-05-03T10:25:08.396Z</time></trkpt><trkpt lat="44.4550846" lon="8.4800805"><ele>439.0</ele><time>2026-05-03T10:25:09.396Z</time></trkpt><trkpt lat="44.4551977" lon="8.4801224"><ele>439.0</ele><time>2026-05-03T10:25:10.395Z</time></trkpt><trkpt lat="44.4553082" lon="8.4801524"><ele>439.0</ele><time>2026-05-03T10:25:11.395Z</time></trkpt><trkpt lat="44.4554235" lon="8.4801433"><ele>439.0</ele><time>2026-05-03T10:25:12.395Z</time></trkpt><trkpt lat="44.4555327" lon="8.4800952"><ele>439.0</ele><time>2026-05-03T10:25:13.395Z</time></trkpt><trkpt lat="44.4556432" lon="8.4800265"><ele>437.5</ele><time>2026-05-03T10:25:14.395Z</time></trkpt><trkpt lat="44.455764" lon="8.4799821"><ele>436.0</ele><time>2026-05-03T10:25:15.395Z</time></trkpt><trkpt lat="44.4558939" lon="8.4799728"><ele>434.5</ele><time>2026-05-03T10:25:16.396Z</time></trkpt><trkpt lat="44.4560226" lon="8.479984"><ele>433.0</ele><time>2026-05-03T10:25:17.396Z</time></trkpt><trkpt lat="44.4561481" lon="8.4800049"><ele>433.0</ele><time>2026-05-03T10:25:18.395Z</time></trkpt><trkpt lat="44.4562663" lon="8.4800296"><ele>433.0</ele><time>2026-05-03T10:25:19.395Z</time></trkpt><trkpt lat="44.4563927" lon="8.480061"><ele>433.0</ele><time>2026-05-03T10:25:20.395Z</time></trkpt><trkpt lat="44.4565159" lon="8.48009"><ele>433.0</ele><time>2026-05-03T10:25:21.396Z</time></trkpt><trkpt lat="44.4566286" lon="8.4801349"><ele>430.75</ele><time>2026-05-03T10:25:22.395Z</time></trkpt><trkpt lat="44.4567379" lon="8.4802075"><ele>428.5</ele><time>2026-05-03T10:25:23.396Z</time></trkpt><trkpt lat="44.4568505" lon="8.4802707"><ele>426.25</ele><time>2026-05-03T10:25:24.395Z</time></trkpt><trkpt lat="44.4569647" lon="8.4803289"><ele>424.0</ele><time>2026-05-03T10:25:25.396Z</time></trkpt><trkpt lat="44.4570857" lon="8.4803674"><ele>423.5</ele><time>2026-05-03T10:25:26.395Z</time></trkpt><trkpt lat="44.4572095" lon="8.4803676"><ele>423.0</ele><time>2026-05-03T10:25:27.395Z</time></trkpt><trkpt lat="44.4573321" lon="8.4803242"><ele>422.5</ele><time>2026-05-03T10:25:28.395Z</time></trkpt><trkpt lat="44.4574407" lon="8.4802416"><ele>422.0</ele><time>2026-05-03T10:25:29.395Z</time></trkpt><trkpt lat="44.4575332" lon="8.4801385"><ele>422.0</ele><time>2026-05-03T10:25:30.395Z</time></trkpt><trkpt lat="44.4576186" lon="8.4800302"><ele>422.0</ele><time>2026-05-03T10:25:31.395Z</time></trkpt><trkpt lat="44.4577118" lon="8.4799305"><ele>422.0</ele><time>2026-05-03T10:25:32.395Z</time></trkpt><trkpt lat="44.4578249" lon="8.4798685"><ele>422.0</ele><time>2026-05-03T10:25:33.395Z</time></trkpt><trkpt lat="44.4579442" lon="8.4798439"><ele>422.0</ele><time>2026-05-03T10:25:34.395Z</time></trkpt><trkpt lat="44.4580617" lon="8.4798387"><ele>422.0</ele><time>2026-05-03T10:25:35.395Z</time></trkpt><trkpt lat="44.4581661" lon="8.4798156"><ele>422.0</ele><time>2026-05-03T10:25:36.395Z</time></trkpt><trkpt lat="44.4582674" lon="8.4797801"><ele>422.0</ele><time>2026-05-03T10:25:37.395Z</time></trkpt><trkpt lat="44.4583716" lon="8.4797367"><ele>422.0</ele><time>2026-05-03T10:25:38.395Z</time></trkpt><trkpt lat="44.4584752" lon="8.4796889"><ele>422.0</ele><time>2026-05-03T10:25:39.395Z</time></trkpt><trkpt lat="44.4585819" lon="8.4796656"><ele>422.0</ele><time>2026-05-03T10:25:40.395Z</time></trkpt><trkpt lat="44.4586888" lon="8.4796859"><ele>422.0</ele><time>2026-05-03T10:25:41.395Z</time></trkpt><trkpt lat="44.4587895" lon="8.4797541"><ele>422.0</ele><time>2026-05-03T10:25:42.395Z</time></trkpt><trkpt lat="44.4588831" lon="8.4798493"><ele>422.0</ele><time>2026-05-03T10:25:43.395Z</time></trkpt><trkpt lat="44.4589811" lon="8.4799397"><ele>423.25</ele><time>2026-05-03T10:25:44.395Z</time></trkpt><trkpt lat="44.4590834" lon="8.4800436"><ele>424.5</ele><time>2026-05-03T10:25:45.395Z</time></trkpt><trkpt lat="44.4591866" lon="8.480152"><ele>425.75</ele><time>2026-05-03T10:25:46.395Z</time></trkpt><trkpt lat="44.4592876" lon="8.4802551"><ele>427.0</ele><time>2026-05-03T10:25:47.395Z</time></trkpt><trkpt lat="44.4593857" lon="8.4803609"><ele>426.5</ele><time>2026-05-03T10:25:48.395Z</time></trkpt><trkpt lat="44.4594802" lon="8.4804612"><ele>426.0</ele><time>2026-05-03T10:25:49.395Z</time></trkpt><trkpt lat="44.4595727" lon="8.480565"><ele>425.5</ele><time>2026-05-03T10:25:50.396Z</time></trkpt><trkpt lat="44.4596599" lon="8.4806657"><ele>425.0</ele><time>2026-05-03T10:25:51.395Z</time></trkpt><trkpt lat="44.4597384" lon="8.4807678"><ele>425.0</ele><time>2026-05-03T10:25:52.395Z</time></trkpt><trkpt lat="44.4598081" lon="8.4808917"><ele>425.0</ele><time>2026-05-03T10:25:53.395Z</time></trkpt><trkpt lat="44.4598625" lon="8.481036"><ele>425.0</ele><time>2026-05-03T10:25:54.395Z</time></trkpt><trkpt lat="44.4599121" lon="8.4811873"><ele>425.0</ele><time>2026-05-03T10:25:55.396Z</time></trkpt><trkpt lat="44.4599768" lon="8.4813191"><ele>426.0</ele><time>2026-05-03T10:25:56.395Z</time></trkpt><trkpt lat="44.4600654" lon="8.4814302"><ele>427.0</ele><time>2026-05-03T10:25:57.395Z</time></trkpt><trkpt lat="44.4601577" lon="8.4815239"><ele>428.0</ele><time>2026-05-03T10:25:58.395Z</time></trkpt><trkpt lat="44.4602731" lon="8.481585"><ele>429.0</ele><time>2026-05-03T10:25:59.395Z</time></trkpt><trkpt lat="44.4604003" lon="8.4816355"><ele>422.66666666666663</ele><time>2026-05-03T10:26:00.395Z</time></trkpt><trkpt lat="44.4605399" lon="8.4816849"><ele>416.3333333333333</ele><time>2026-05-03T10:26:01.395Z</time></trkpt><trkpt lat="44.4606859" lon="8.4817438"><ele>410.0</ele><time>2026-05-03T10:26:02.395Z</time></trkpt><trkpt lat="44.4608348" lon="8.4818157"><ele>410.0</ele><time>2026-05-03T10:26:03.395Z</time></trkpt><trkpt lat="44.4609739" lon="8.4819039"><ele>410.0</ele><time>2026-05-03T10:26:04.395Z</time></trkpt><trkpt lat="44.4611176" lon="8.4819953"><ele>410.0</ele><time>2026-05-03T10:26:05.395Z</time></trkpt><trkpt lat="44.4612635" lon="8.4820818"><ele>411.0</ele><time>2026-05-03T10:26:06.395Z</time></trkpt><trkpt lat="44.4614169" lon="8.4821551"><ele>412.0</ele><time>2026-05-03T10:26:07.395Z</time></trkpt><trkpt lat="44.4615725" lon="8.4822047"><ele>413.0</ele><time>2026-05-03T10:26:08.395Z</time></trkpt><trkpt lat="44.461732" lon="8.4822457"><ele>413.0</ele><time>2026-05-03T10:26:09.396Z</time></trkpt><trkpt lat="44.4618927" lon="8.4822847"><ele>413.0</ele><time>2026-05-03T10:26:10.395Z</time></trkpt><trkpt lat="44.4620549" lon="8.4823211"><ele>413.0</ele><time>2026-05-03T10:26:11.395Z</time></trkpt><trkpt lat="44.4622137" lon="8.4823567"><ele>411.25</ele><time>2026-05-03T10:26:12.395Z</time></trkpt><trkpt lat="44.4623669" lon="8.4823893"><ele>409.5</ele><time>2026-05-03T10:26:13.396Z</time></trkpt><trkpt lat="44.4625119" lon="8.4824168"><ele>407.75</ele><time>2026-05-03T10:26:14.396Z</time></trkpt><trkpt lat="44.4626485" lon="8.4824512"><ele>406.0</ele><time>2026-05-03T10:26:15.395Z</time></trkpt><trkpt lat="44.4627766" lon="8.4825093"><ele>406.0</ele><time>2026-05-03T10:26:16.395Z</time></trkpt><trkpt lat="44.4628878" lon="8.4825875"><ele>406.0</ele><time>2026-05-03T10:26:17.396Z</time></trkpt><trkpt lat="44.4629915" lon="8.4826681"><ele>406.0</ele><time>2026-05-03T10:26:18.395Z</time></trkpt><trkpt lat="44.4631011" lon="8.4827236"><ele>406.0</ele><time>2026-05-03T10:26:19.395Z</time></trkpt><trkpt lat="44.4632217" lon="8.4827572"><ele>404.75</ele><time>2026-05-03T10:26:20.396Z</time></trkpt><trkpt lat="44.463353" lon="8.4827785"><ele>403.5</ele><time>2026-05-03T10:26:21.395Z</time></trkpt><trkpt lat="44.4634852" lon="8.4828024"><ele>402.25</ele><time>2026-05-03T10:26:22.395Z</time></trkpt><trkpt lat="44.4636195" lon="8.4828215"><ele>401.0</ele><time>2026-05-03T10:26:23.396Z</time></trkpt><trkpt lat="44.4637434" lon="8.482836"><ele>400.75</ele><time>2026-05-03T10:26:24.395Z</time></trkpt><trkpt lat="44.4638602" lon="8.4828585"><ele>400.5</ele><time>2026-05-03T10:26:25.395Z</time></trkpt><trkpt lat="44.4639782" lon="8.4828673"><ele>400.25</ele><time>2026-05-03T10:26:26.395Z</time></trkpt><trkpt lat="44.4640992" lon="8.4828513"><ele>400.0</ele><time>2026-05-03T10:26:27.395Z</time></trkpt><trkpt lat="44.464216" lon="8.4828202"><ele>400.0</ele><time>2026-05-03T10:26:28.396Z</time></trkpt><trkpt lat="44.4643284" lon="8.4827707"><ele>400.0</ele><time>2026-05-03T10:26:29.395Z</time></trkpt><trkpt lat="44.4644369" lon="8.4827103"><ele>400.0</ele><time>2026-05-03T10:26:30.396Z</time></trkpt><trkpt lat="44.4645397" lon="8.4826502"><ele>400.0</ele><time>2026-05-03T10:26:31.396Z</time></trkpt><trkpt lat="44.4646379" lon="8.4825952"><ele>399.8</ele><time>2026-05-03T10:26:32.395Z</time></trkpt><trkpt lat="44.4647413" lon="8.4825512"><ele>399.6</ele><time>2026-05-03T10:26:33.395Z</time></trkpt><trkpt lat="44.4648465" lon="8.4825311"><ele>399.4</ele><time>2026-05-03T10:26:34.395Z</time></trkpt><trkpt lat="44.4649526" lon="8.4825218"><ele>399.2</ele><time>2026-05-03T10:26:35.395Z</time></trkpt><trkpt lat="44.465054" lon="8.4825218"><ele>399.0</ele><time>2026-05-03T10:26:36.395Z</time></trkpt><trkpt lat="44.4651486" lon="8.4825243"><ele>399.0</ele><time>2026-05-03T10:26:37.396Z</time></trkpt><trkpt lat="44.4652496" lon="8.4825276"><ele>399.0</ele><time>2026-05-03T10:26:38.396Z</time></trkpt><trkpt lat="44.4653517" lon="8.4825341"><ele>399.0</ele><time>2026-05-03T10:26:39.395Z</time></trkpt><trkpt lat="44.4654439" lon="8.4825607"><ele>399.0</ele><time>2026-05-03T10:26:40.396Z</time></trkpt><trkpt lat="44.4655329" lon="8.482622"><ele>399.0</ele><time>2026-05-03T10:26:41.395Z</time></trkpt><trkpt lat="44.4656241" lon="8.4827085"><ele>397.0</ele><time>2026-05-03T10:26:42.395Z</time></trkpt><trkpt lat="44.4657241" lon="8.4828153"><ele>395.0</ele><time>2026-05-03T10:26:43.395Z</time></trkpt><trkpt lat="44.4658254" lon="8.482929"><ele>393.0</ele><time>2026-05-03T10:26:44.395Z</time></trkpt><trkpt lat="44.4659381" lon="8.4830459"><ele>391.0</ele><time>2026-05-03T10:26:45.396Z</time></trkpt><trkpt lat="44.4660578" lon="8.4831642"><ele>391.0</ele><time>2026-05-03T10:26:46.396Z</time></trkpt><trkpt lat="44.4661768" lon="8.4832875"><ele>391.0</ele><time>2026-05-03T10:26:47.395Z</time></trkpt><trkpt lat="44.4662956" lon="8.4834211"><ele>391.0</ele><time>2026-05-03T10:26:48.396Z</time></trkpt><trkpt lat="44.4664119" lon="8.4835553"><ele>392.25</ele><time>2026-05-03T10:26:49.396Z</time></trkpt><trkpt lat="44.4665283" lon="8.4836821"><ele>393.5</ele><time>2026-05-03T10:26:50.396Z</time></trkpt><trkpt lat="44.4666433" lon="8.4838017"><ele>394.75</ele><time>2026-05-03T10:26:51.396Z</time></trkpt><trkpt lat="44.4667633" lon="8.4839095"><ele>396.0</ele><time>2026-05-03T10:26:52.395Z</time></trkpt><trkpt lat="44.4668906" lon="8.4840101"><ele>396.0</ele><time>2026-05-03T10:26:53.395Z</time></trkpt><trkpt lat="44.4670193" lon="8.4841102"><ele>396.0</ele><time>2026-05-03T10:26:54.395Z</time></trkpt><trkpt lat="44.4671459" lon="8.4842045"><ele>396.0</ele><time>2026-05-03T10:26:55.395Z</time></trkpt><trkpt lat="44.4672824" lon="8.4842984"><ele>396.0</ele><time>2026-05-03T10:26:56.395Z</time></trkpt><trkpt lat="44.4674204" lon="8.4843794"><ele>395.25</ele><time>2026-05-03T10:26:57.395Z</time></trkpt><trkpt lat="44.4675571" lon="8.4844534"><ele>394.5</ele><time>2026-05-03T10:26:58.396Z</time></trkpt><trkpt lat="44.4676887" lon="8.4845298"><ele>393.75</ele><time>2026-05-03T10:26:59.395Z</time></trkpt><trkpt lat="44.4678181" lon="8.4846086"><ele>393.0</ele><time>2026-05-03T10:27:00.395Z</time></trkpt><trkpt lat="44.4679504" lon="8.484659"><ele>393.0</ele><time>2026-05-03T10:27:01.396Z</time></trkpt><trkpt lat="44.4680823" lon="8.4846788"><ele>393.0</ele><time>2026-05-03T10:27:02.396Z</time></trkpt><trkpt lat="44.4682134" lon="8.4846706"><ele>393.0</ele><time>2026-05-03T10:27:03.396Z</time></trkpt><trkpt lat="44.4683427" lon="8.4846384"><ele>393.0</ele><time>2026-05-03T10:27:04.395Z</time></trkpt><trkpt lat="44.4684727" lon="8.4846061"><ele>389.75</ele><time>2026-05-03T10:27:05.395Z</time></trkpt><trkpt lat="44.468608" lon="8.4845727"><ele>386.5</ele><time>2026-05-03T10:27:06.395Z</time></trkpt><trkpt lat="44.468741" lon="8.4845374"><ele>383.25</ele><time>2026-05-03T10:27:07.395Z</time></trkpt><trkpt lat="44.4688731" lon="8.4844959"><ele>380.0</ele><time>2026-05-03T10:27:08.395Z</time></trkpt><trkpt lat="44.4689964" lon="8.48446"><ele>380.0</ele><time>2026-05-03T10:27:09.395Z</time></trkpt><trkpt lat="44.4691206" lon="8.484425"><ele>380.0</ele><time>2026-05-03T10:27:10.396Z</time></trkpt><trkpt lat="44.4692461" lon="8.4843827"><ele>380.0</ele><time>2026-05-03T10:27:11.395Z</time></trkpt><trkpt lat="44.4693779" lon="8.4843432"><ele>380.0</ele><time>2026-05-03T10:27:12.396Z</time></trkpt><trkpt lat="44.4695111" lon="8.4843086"><ele>380.5</ele><time>2026-05-03T10:27:13.395Z</time></trkpt><trkpt lat="44.4696363" lon="8.4842729"><ele>381.0</ele><time>2026-05-03T10:27:14.395Z</time></trkpt><trkpt lat="44.4697548" lon="8.4842362"><ele>381.5</ele><time>2026-05-03T10:27:15.395Z</time></trkpt><trkpt lat="44.4698687" lon="8.4842117"><ele>382.0</ele><time>2026-05-03T10:27:16.396Z</time></trkpt><trkpt lat="44.4699756" lon="8.4841935"><ele>382.0</ele><time>2026-05-03T10:27:17.395Z</time></trkpt><trkpt lat="44.4700821" lon="8.4841849"><ele>382.0</ele><time>2026-05-03T10:27:18.395Z</time></trkpt><trkpt lat="44.4701951" lon="8.4841807"><ele>382.0</ele><time>2026-05-03T10:27:19.396Z</time></trkpt><trkpt lat="44.4703066" lon="8.484193"><ele>382.0</ele><time>2026-05-03T10:27:20.395Z</time></trkpt><trkpt lat="44.4704275" lon="8.4842116"><ele>381.25</ele><time>2026-05-03T10:27:21.395Z</time></trkpt><trkpt lat="44.4705508" lon="8.4842245"><ele>380.5</ele><time>2026-05-03T10:27:22.396Z</time></trkpt><trkpt lat="44.4706754" lon="8.4842457"><ele>379.75</ele><time>2026-05-03T10:27:23.396Z</time></trkpt><trkpt lat="44.4708001" lon="8.4842726"><ele>379.0</ele><time>2026-05-03T10:27:24.395Z</time></trkpt><trkpt lat="44.4709194" lon="8.4842917"><ele>379.0</ele><time>2026-05-03T10:27:25.395Z</time></trkpt><trkpt lat="44.471039" lon="8.4843212"><ele>379.0</ele><time>2026-05-03T10:27:26.395Z</time></trkpt><trkpt lat="44.4711584" lon="8.4843804"><ele>379.0</ele><time>2026-05-03T10:27:27.395Z</time></trkpt><trkpt lat="44.4712761" lon="8.4844757"><ele>379.0</ele><time>2026-05-03T10:27:28.395Z</time></trkpt><trkpt lat="44.471403" lon="8.4845846"><ele>378.66666666666663</ele><time>2026-05-03T10:27:29.395Z</time></trkpt><trkpt lat="44.4715356" lon="8.4847033"><ele>378.3333333333333</ele><time>2026-05-03T10:27:30.395Z</time></trkpt><trkpt lat="44.4716796" lon="8.484831"><ele>378.0</ele><time>2026-05-03T10:27:31.395Z</time></trkpt><trkpt lat="44.4718466" lon="8.4849718"><ele>378.0</ele><time>2026-05-03T10:27:32.395Z</time></trkpt><trkpt lat="44.4720154" lon="8.4851185"><ele>378.0</ele><time>2026-05-03T10:27:33.395Z</time></trkpt><trkpt lat="44.4721892" lon="8.4852788"><ele>378.0</ele><time>2026-05-03T10:27:34.395Z</time></trkpt><trkpt lat="44.4723583" lon="8.4854445"><ele>377.6666666666667</ele><time>2026-05-03T10:27:35.396Z</time></trkpt><trkpt lat="44.472525" lon="8.4856013"><ele>377.33333333333337</ele><time>2026-05-03T10:27:36.395Z</time></trkpt><trkpt lat="44.4727034" lon="8.4857585"><ele>377.0</ele><time>2026-05-03T10:27:37.395Z</time></trkpt><trkpt lat="44.4729012" lon="8.4859157"><ele>378.5</ele><time>2026-05-03T10:27:38.395Z</time></trkpt><trkpt lat="44.4731045" lon="8.4860848"><ele>380.0</ele><time>2026-05-03T10:27:39.396Z</time></trkpt><trkpt lat="44.4732997" lon="8.4862673"><ele>380.0</ele><time>2026-05-03T10:27:40.395Z</time></trkpt><trkpt lat="44.4734872" lon="8.4864381"><ele>380.0</ele><time>2026-05-03T10:27:41.395Z</time></trkpt><trkpt lat="44.4736676" lon="8.4865943"><ele>380.0</ele><time>2026-05-03T10:27:42.395Z</time></trkpt><trkpt lat="44.4738407" lon="8.4867487"><ele>379.6666666666667</ele><time>2026-05-03T10:27:43.396Z</time></trkpt><trkpt lat="44.4740058" lon="8.4868946"><ele>379.3333333333333</ele><time>2026-05-03T10:27:44.395Z</time></trkpt><trkpt lat="44.474161" lon="8.4870284"><ele>379.0</ele><time>2026-05-03T10:27:45.395Z</time></trkpt><trkpt lat="44.4743061" lon="8.4871393"><ele>379.0</ele><time>2026-05-03T10:27:46.395Z</time></trkpt><trkpt lat="44.4744506" lon="8.4872268"><ele>379.0</ele><time>2026-05-03T10:27:47.395Z</time></trkpt><trkpt lat="44.4746018" lon="8.4872544"><ele>379.0</ele><time>2026-05-03T10:27:48.395Z</time></trkpt><trkpt lat="44.4747459" lon="8.4872518"><ele>378.0</ele><time>2026-05-03T10:27:49.395Z</time></trkpt><trkpt lat="44.4748888" lon="8.4872038"><ele>377.0</ele><time>2026-05-03T10:27:50.395Z</time></trkpt><trkpt lat="44.4750295" lon="8.4871517"><ele>376.0</ele><time>2026-05-03T10:27:51.395Z</time></trkpt><trkpt lat="44.4751718" lon="8.4871165"><ele>375.0</ele><time>2026-05-03T10:27:52.395Z</time></trkpt><trkpt lat="44.4753046" lon="8.4870892"><ele>373.25</ele><time>2026-05-03T10:27:53.396Z</time></trkpt><trkpt lat="44.4754294" lon="8.4870639"><ele>371.5</ele><time>2026-05-03T10:27:54.395Z</time></trkpt><trkpt lat="44.4755379" lon="8.4870406"><ele>369.75</ele><time>2026-05-03T10:27:55.395Z</time></trkpt><trkpt lat="44.4756409" lon="8.4869759"><ele>368.0</ele><time>2026-05-03T10:27:56.395Z</time></trkpt><trkpt lat="44.4757414" lon="8.4868612"><ele>368.0</ele><time>2026-05-03T10:27:57.395Z</time></trkpt><trkpt lat="44.4758429" lon="8.4867288"><ele>368.0</ele><time>2026-05-03T10:27:58.395Z</time></trkpt><trkpt lat="44.4759442" lon="8.4865834"><ele>368.0</ele><time>2026-05-03T10:27:59.395Z</time></trkpt><trkpt lat="44.4760428" lon="8.486446"><ele>368.0</ele><time>2026-05-03T10:28:00.396Z</time></trkpt><trkpt lat="44.4761377" lon="8.4863152"><ele>367.25</ele><time>2026-05-03T10:28:01.395Z</time></trkpt><trkpt lat="44.4762317" lon="8.4861918"><ele>366.5</ele><time>2026-05-03T10:28:02.395Z</time></trkpt><trkpt lat="44.476323" lon="8.486065"><ele>365.75</ele><time>2026-05-03T10:28:03.396Z</time></trkpt><trkpt lat="44.4764127" lon="8.4859403"><ele>365.0</ele><time>2026-05-03T10:28:04.395Z</time></trkpt><trkpt lat="44.4764999" lon="8.4858243"><ele>364.75</ele><time>2026-05-03T10:28:05.395Z</time></trkpt><trkpt lat="44.4765952" lon="8.4857273"><ele>364.5</ele><time>2026-05-03T10:28:06.395Z</time></trkpt><trkpt lat="44.4767029" lon="8.4856618"><ele>364.25</ele><time>2026-05-03T10:28:07.395Z</time></trkpt><trkpt lat="44.4768194" lon="8.4856359"><ele>364.0</ele><time>2026-05-03T10:28:08.395Z</time></trkpt><trkpt lat="44.4769396" lon="8.4856412"><ele>364.0</ele><time>2026-05-03T10:28:09.395Z</time></trkpt><trkpt lat="44.4770577" lon="8.4856824"><ele>364.0</ele><time>2026-05-03T10:28:10.395Z</time></trkpt><trkpt lat="44.4771699" lon="8.4857447"><ele>364.0</ele><time>2026-05-03T10:28:11.395Z</time></trkpt><trkpt lat="44.4772838" lon="8.4858288"><ele>364.0</ele><time>2026-05-03T10:28:12.395Z</time></trkpt><trkpt lat="44.4774043" lon="8.4859291"><ele>364.0</ele><time>2026-05-03T10:28:13.396Z</time></trkpt><trkpt lat="44.4776343" lon="8.4861206"><ele>364.0</ele><time>2026-05-03T10:28:15.396Z</time></trkpt><trkpt lat="44.4777289" lon="8.4862449"><ele>364.0</ele><time>2026-05-03T10:28:16.395Z</time></trkpt><trkpt lat="44.477814" lon="8.4863908"><ele>364.0</ele><time>2026-05-03T10:28:17.396Z</time></trkpt><trkpt lat="44.4778808" lon="8.4865509"><ele>364.0</ele><time>2026-05-03T10:28:18.396Z</time></trkpt><trkpt lat="44.477937" lon="8.4867298"><ele>364.0</ele><time>2026-05-03T10:28:19.395Z</time></trkpt><trkpt lat="44.4779906" lon="8.486914"><ele>364.0</ele><time>2026-05-03T10:28:20.395Z</time></trkpt><trkpt lat="44.478038" lon="8.4871092"><ele>367.0</ele><time>2026-05-03T10:28:21.395Z</time></trkpt><trkpt lat="44.4780821" lon="8.4873059"><ele>370.0</ele><time>2026-05-03T10:28:22.395Z</time></trkpt><trkpt lat="44.4781183" lon="8.487505"><ele>373.0</ele><time>2026-05-03T10:28:23.395Z</time></trkpt><trkpt lat="44.4781437" lon="8.4876964"><ele>376.0</ele><time>2026-05-03T10:28:24.395Z</time></trkpt><trkpt lat="44.4781597" lon="8.4878832"><ele>376.5</ele><time>2026-05-03T10:28:25.395Z</time></trkpt><trkpt lat="44.4781715" lon="8.4880642"><ele>377.0</ele><time>2026-05-03T10:28:26.395Z</time></trkpt><trkpt lat="44.4781733" lon="8.4882398"><ele>377.5</ele><time>2026-05-03T10:28:27.396Z</time></trkpt><trkpt lat="44.4781796" lon="8.488394"><ele>378.0</ele><time>2026-05-03T10:28:28.395Z</time></trkpt><trkpt lat="44.4781922" lon="8.4885357"><ele>378.0</ele><time>2026-05-03T10:28:29.395Z</time></trkpt><trkpt lat="44.4782326" lon="8.4886586"><ele>378.0</ele><time>2026-05-03T10:28:30.395Z</time></trkpt><trkpt lat="44.478306" lon="8.4887407"><ele>378.0</ele><time>2026-05-03T10:28:31.396Z</time></trkpt><trkpt lat="44.4784035" lon="8.488786"><ele>378.0</ele><time>2026-05-03T10:28:32.395Z</time></trkpt><trkpt lat="44.4785169" lon="8.4888092"><ele>378.0</ele><time>2026-05-03T10:28:33.395Z</time></trkpt><trkpt lat="44.4786324" lon="8.4888353"><ele>379.2</ele><time>2026-05-03T10:28:34.395Z</time></trkpt><trkpt lat="44.4787397" lon="8.488857"><ele>380.4</ele><time>2026-05-03T10:28:35.395Z</time></trkpt><trkpt lat="44.4788383" lon="8.4888744"><ele>381.59999999999997</ele><time>2026-05-03T10:28:36.396Z</time></trkpt><trkpt lat="44.4789325" lon="8.4888873"><ele>382.79999999999995</ele><time>2026-05-03T10:28:37.396Z</time></trkpt><trkpt lat="44.4790188" lon="8.4889324"><ele>384.0</ele><time>2026-05-03T10:28:38.396Z</time></trkpt><trkpt lat="44.4790878" lon="8.4890091"><ele>384.4</ele><time>2026-05-03T10:28:39.396Z</time></trkpt><trkpt lat="44.4791369" lon="8.4891007"><ele>384.79999999999995</ele><time>2026-05-03T10:28:40.395Z</time></trkpt><trkpt lat="44.4791724" lon="8.4891966"><ele>385.20000000000005</ele><time>2026-05-03T10:28:41.395Z</time></trkpt><trkpt lat="44.4792014" lon="8.4892832"><ele>385.6</ele><time>2026-05-03T10:28:42.395Z</time></trkpt><trkpt lat="44.4792414" lon="8.489439"><ele>386.0</ele><time>2026-05-03T10:28:44.395Z</time></trkpt><trkpt lat="44.4792774" lon="8.4895897"><ele>386.6</ele><time>2026-05-03T10:28:46.395Z</time></trkpt><trkpt lat="44.4793086" lon="8.4897328"><ele>387.20000000000005</ele><time>2026-05-03T10:28:48.395Z</time></trkpt><trkpt lat="44.4793435" lon="8.4898727"><ele>387.79999999999995</ele><time>2026-05-03T10:28:50.395Z</time></trkpt><trkpt lat="44.4793816" lon="8.4900124"><ele>388.4</ele><time>2026-05-03T10:28:52.395Z</time></trkpt><trkpt lat="44.4794152" lon="8.4901736"><ele>389.0</ele><time>2026-05-03T10:28:54.395Z</time></trkpt><trkpt lat="44.4794355" lon="8.4903326"><ele>388.75</ele><time>2026-05-03T10:28:56.395Z</time></trkpt><trkpt lat="44.4794442" lon="8.490482"><ele>388.5</ele><time>2026-05-03T10:28:58.396Z</time></trkpt><trkpt lat="44.4794582" lon="8.490628"><ele>388.25</ele><time>2026-05-03T10:29:00.396Z</time></trkpt><trkpt lat="44.4794822" lon="8.49079"><ele>388.0</ele><time>2026-05-03T10:29:02.396Z</time></trkpt><trkpt lat="44.4795053" lon="8.4909572"><ele>388.0</ele><time>2026-05-03T10:29:04.395Z</time></trkpt><trkpt lat="44.4795193" lon="8.4911193"><ele>388.0</ele><time>2026-05-03T10:29:06.395Z</time></trkpt><trkpt lat="44.4795475" lon="8.4912674"><ele>388.0</ele><time>2026-05-03T10:29:08.395Z</time></trkpt><trkpt lat="44.4796012" lon="8.4914241"><ele>388.0</ele><time>2026-05-03T10:29:10.395Z</time></trkpt><trkpt lat="44.4796292" lon="8.4915862"><ele>387.33333333333337</ele><time>2026-05-03T10:29:12.395Z</time></trkpt><trkpt lat="44.4796751" lon="8.4916735"><ele>386.6666666666667</ele><time>2026-05-03T10:45:03.396Z</time></trkpt><trkpt lat="44.4796981" lon="8.4917728"><ele>386.0</ele><time>2026-05-03T10:45:05.396Z</time></trkpt><trkpt lat="44.4796938" lon="8.4918691"><ele>385.33333333333337</ele><time>2026-05-03T10:45:08.396Z</time></trkpt><trkpt lat="44.4797119" lon="8.4920187"><ele>384.6666666666667</ele><time>2026-05-03T10:45:11.396Z</time></trkpt><trkpt lat="44.4797276" lon="8.4921146"><ele>384.0</ele><time>2026-05-03T10:45:12.397Z</time></trkpt><trkpt lat="44.4797515" lon="8.4922211"><ele>384.0</ele><time>2026-05-03T10:45:13.397Z</time></trkpt><trkpt lat="44.4797789" lon="8.4923431"><ele>384.0</ele><time>2026-05-03T10:45:14.396Z</time></trkpt><trkpt lat="44.4798098" lon="8.4924837"><ele>384.0</ele><time>2026-05-03T10:45:15.396Z</time></trkpt><trkpt lat="44.4798457" lon="8.4926357"><ele>384.0</ele><time>2026-05-03T10:45:16.396Z</time></trkpt><trkpt lat="44.4798838" lon="8.4927927"><ele>384.0</ele><time>2026-05-03T10:45:17.396Z</time></trkpt><trkpt lat="44.4799271" lon="8.4929482"><ele>385.5</ele><time>2026-05-03T10:45:18.397Z</time></trkpt><trkpt lat="44.4799807" lon="8.4931073"><ele>387.0</ele><time>2026-05-03T10:45:19.396Z</time></trkpt><trkpt lat="44.4800274" lon="8.493275"><ele>388.5</ele><time>2026-05-03T10:45:20.396Z</time></trkpt><trkpt lat="44.4800788" lon="8.4934445"><ele>390.0</ele><time>2026-05-03T10:45:21.397Z</time></trkpt><trkpt lat="44.480135" lon="8.4936086"><ele>387.5</ele><time>2026-05-03T10:45:22.396Z</time></trkpt><trkpt lat="44.4802066" lon="8.4937587"><ele>385.0</ele><time>2026-05-03T10:45:23.396Z</time></trkpt><trkpt lat="44.480286" lon="8.493903"><ele>382.5</ele><time>2026-05-03T10:45:24.396Z</time></trkpt><trkpt lat="44.4803749" lon="8.494036"><ele>380.0</ele><time>2026-05-03T10:45:25.396Z</time></trkpt><trkpt lat="44.4804809" lon="8.4941664"><ele>380.0</ele><time>2026-05-03T10:45:26.396Z</time></trkpt><trkpt lat="44.4805997" lon="8.4942826"><ele>380.0</ele><time>2026-05-03T10:45:27.396Z</time></trkpt><trkpt lat="44.4807274" lon="8.4944009"><ele>380.0</ele><time>2026-05-03T10:45:28.397Z</time></trkpt><trkpt lat="44.4808594" lon="8.4945268"><ele>385.0</ele><time>2026-05-03T10:45:29.397Z</time></trkpt><trkpt lat="44.4809932" lon="8.4946514"><ele>390.0</ele><time>2026-05-03T10:45:30.397Z</time></trkpt><trkpt lat="44.4811256" lon="8.494776"><ele>395.0</ele><time>2026-05-03T10:45:31.397Z</time></trkpt><trkpt lat="44.4812487" lon="8.4949056"><ele>389.3333333333333</ele><time>2026-05-03T10:45:32.396Z</time></trkpt><trkpt lat="44.4813671" lon="8.4950527"><ele>383.66666666666663</ele><time>2026-05-03T10:45:33.396Z</time></trkpt><trkpt lat="44.4814723" lon="8.4952202"><ele>378.0</ele><time>2026-05-03T10:45:34.396Z</time></trkpt><trkpt lat="44.4815736" lon="8.4954093"><ele>380.33333333333337</ele><time>2026-05-03T10:45:35.396Z</time></trkpt><trkpt lat="44.4816756" lon="8.495605"><ele>382.6666666666667</ele><time>2026-05-03T10:45:36.396Z</time></trkpt><trkpt lat="44.4817709" lon="8.4958047"><ele>385.0</ele><time>2026-05-03T10:45:37.396Z</time></trkpt><trkpt lat="44.4818647" lon="8.4960098"><ele>385.0</ele><time>2026-05-03T10:45:38.396Z</time></trkpt><trkpt lat="44.4819591" lon="8.4962131"><ele>385.0</ele><time>2026-05-03T10:45:39.396Z</time></trkpt><trkpt lat="44.4820496" lon="8.4964148"><ele>385.0</ele><time>2026-05-03T10:45:40.396Z</time></trkpt><trkpt lat="44.4821336" lon="8.4966293"><ele>384.6666666666667</ele><time>2026-05-03T10:45:41.396Z</time></trkpt><trkpt lat="44.4822107" lon="8.4968417"><ele>384.33333333333337</ele><time>2026-05-03T10:45:42.396Z</time></trkpt><trkpt lat="44.4822821" lon="8.497056"><ele>384.0</ele><time>2026-05-03T10:45:43.396Z</time></trkpt><trkpt lat="44.4823511" lon="8.4972697"><ele>384.0</ele><time>2026-05-03T10:45:44.396Z</time></trkpt><trkpt lat="44.4824133" lon="8.4974764"><ele>384.0</ele><time>2026-05-03T10:45:45.396Z</time></trkpt><trkpt lat="44.4824718" lon="8.4976757"><ele>384.0</ele><time>2026-05-03T10:45:46.396Z</time></trkpt><trkpt lat="44.4825356" lon="8.4978686"><ele>384.66666666666663</ele><time>2026-05-03T10:45:47.396Z</time></trkpt><trkpt lat="44.4825975" lon="8.498063"><ele>385.3333333333333</ele><time>2026-05-03T10:45:48.396Z</time></trkpt><trkpt lat="44.4826643" lon="8.4982523"><ele>386.0</ele><time>2026-05-03T10:45:49.396Z</time></trkpt><trkpt lat="44.4827419" lon="8.4984375"><ele>386.0</ele><time>2026-05-03T10:45:50.396Z</time></trkpt><trkpt lat="44.4828205" lon="8.4986315"><ele>386.0</ele><time>2026-05-03T10:45:51.396Z</time></trkpt><trkpt lat="44.4829023" lon="8.4988154"><ele>386.0</ele><time>2026-05-03T10:45:52.396Z</time></trkpt><trkpt lat="44.4829947" lon="8.4990063"><ele>385.0</ele><time>2026-05-03T10:45:53.396Z</time></trkpt><trkpt lat="44.4830931" lon="8.4991951"><ele>384.0</ele><time>2026-05-03T10:45:54.396Z</time></trkpt><trkpt lat="44.4831905" lon="8.4993819"><ele>383.0</ele><time>2026-05-03T10:45:55.396Z</time></trkpt><trkpt lat="44.4832835" lon="8.4995685"><ele>383.6666666666667</ele><time>2026-05-03T10:45:56.397Z</time></trkpt><trkpt lat="44.4833651" lon="8.4997507"><ele>384.33333333333337</ele><time>2026-05-03T10:45:57.396Z</time></trkpt><trkpt lat="44.4834238" lon="8.499942"><ele>385.0</ele><time>2026-05-03T10:45:58.397Z</time></trkpt><trkpt lat="44.483459" lon="8.5001576"><ele>385.0</ele><time>2026-05-03T10:45:59.396Z</time></trkpt><trkpt lat="44.4834864" lon="8.5003843"><ele>385.0</ele><time>2026-05-03T10:46:00.397Z</time></trkpt><trkpt lat="44.4835067" lon="8.500617"><ele>385.0</ele><time>2026-05-03T10:46:01.396Z</time></trkpt><trkpt lat="44.4835239" lon="8.500849"><ele>385.0</ele><time>2026-05-03T10:46:02.396Z</time></trkpt><trkpt lat="44.4835507" lon="8.5010737"><ele>385.0</ele><time>2026-05-03T10:46:03.396Z</time></trkpt><trkpt lat="44.4836042" lon="8.5012799"><ele>385.0</ele><time>2026-05-03T10:46:04.397Z</time></trkpt><trkpt lat="44.4836928" lon="8.501457"><ele>385.0</ele><time>2026-05-03T10:46:05.397Z</time></trkpt><trkpt lat="44.4837969" lon="8.5016054"><ele>385.0</ele><time>2026-05-03T10:46:06.397Z</time></trkpt><trkpt lat="44.4838869" lon="8.5017627"><ele>385.0</ele><time>2026-05-03T10:46:07.396Z</time></trkpt><trkpt lat="44.4839469" lon="8.5019477"><ele>385.0</ele><time>2026-05-03T10:46:08.396Z</time></trkpt><trkpt lat="44.4839851" lon="8.5021582"><ele>385.75</ele><time>2026-05-03T10:46:09.396Z</time></trkpt><trkpt lat="44.4840263" lon="8.5023668"><ele>386.5</ele><time>2026-05-03T10:46:10.396Z</time></trkpt><trkpt lat="44.4840659" lon="8.5025657"><ele>387.25</ele><time>2026-05-03T10:46:11.396Z</time></trkpt><trkpt lat="44.484101" lon="8.5027504"><ele>388.0</ele><time>2026-05-03T10:46:12.397Z</time></trkpt><trkpt lat="44.4841241" lon="8.5029275"><ele>388.59999999999997</ele><time>2026-05-03T10:46:13.396Z</time></trkpt><trkpt lat="44.4841129" lon="8.5031054"><ele>389.2</ele><time>2026-05-03T10:46:14.396Z</time></trkpt><trkpt lat="44.4840906" lon="8.5032583"><ele>389.8</ele><time>2026-05-03T10:46:15.396Z</time></trkpt><trkpt lat="44.4840739" lon="8.5033887"><ele>390.4</ele><time>2026-05-03T10:46:16.396Z</time></trkpt><trkpt lat="44.4840624" lon="8.503509"><ele>391.0</ele><time>2026-05-03T10:46:17.396Z</time></trkpt><trkpt lat="44.4840572" lon="8.5036214"><ele>393.25</ele><time>2026-05-03T10:46:18.396Z</time></trkpt><trkpt lat="44.4840852" lon="8.5037502"><ele>395.5</ele><time>2026-05-03T10:46:19.396Z</time></trkpt><trkpt lat="44.4841413" lon="8.5038751"><ele>397.75</ele><time>2026-05-03T10:46:20.397Z</time></trkpt><trkpt lat="44.4842375" lon="8.503971"><ele>400.0</ele><time>2026-05-03T10:46:21.396Z</time></trkpt><trkpt lat="44.4843563" lon="8.5040496"><ele>400.0</ele><time>2026-05-03T10:46:22.396Z</time></trkpt><trkpt lat="44.4844832" lon="8.5041238"><ele>400.0</ele><time>2026-05-03T10:46:23.396Z</time></trkpt><trkpt lat="44.484608" lon="8.5041664"><ele>400.0</ele><time>2026-05-03T10:46:24.396Z</time></trkpt><trkpt lat="44.48473" lon="8.5041598"><ele>400.0</ele><time>2026-05-03T10:46:25.397Z</time></trkpt><trkpt lat="44.484842" lon="8.504099"><ele>398.2</ele><time>2026-05-03T10:46:26.396Z</time></trkpt><trkpt lat="44.4849332" lon="8.5039922"><ele>396.4</ele><time>2026-05-03T10:46:27.396Z</time></trkpt><trkpt lat="44.4850068" lon="8.503869"><ele>394.6</ele><time>2026-05-03T10:46:28.397Z</time></trkpt><trkpt lat="44.4850793" lon="8.503778"><ele>392.8</ele><time>2026-05-03T10:46:29.397Z</time></trkpt><trkpt lat="44.4851634" lon="8.5037381"><ele>391.0</ele><time>2026-05-03T10:46:30.396Z</time></trkpt><trkpt lat="44.4852558" lon="8.503754"><ele>390.75</ele><time>2026-05-03T10:46:31.396Z</time></trkpt><trkpt lat="44.485346" lon="8.5037868"><ele>390.5</ele><time>2026-05-03T10:46:32.396Z</time></trkpt><trkpt lat="44.4854302" lon="8.5039217"><ele>390.25</ele><time>2026-05-03T10:46:33.397Z</time></trkpt><trkpt lat="44.4855277" lon="8.5040354"><ele>390.0</ele><time>2026-05-03T10:46:34.396Z</time></trkpt><trkpt lat="44.4856323" lon="8.5041694"><ele>390.0</ele><time>2026-05-03T10:46:35.396Z</time></trkpt><trkpt lat="44.4857384" lon="8.5043155"><ele>390.0</ele><time>2026-05-03T10:46:36.396Z</time></trkpt><trkpt lat="44.4858509" lon="8.5044612"><ele>390.0</ele><time>2026-05-03T10:46:37.396Z</time></trkpt><trkpt lat="44.485963" lon="8.5046117"><ele>390.0</ele><time>2026-05-03T10:46:38.397Z</time></trkpt><trkpt lat="44.4860734" lon="8.504761"><ele>390.0</ele><time>2026-05-03T10:46:39.397Z</time></trkpt><trkpt lat="44.4861847" lon="8.5049071"><ele>390.0</ele><time>2026-05-03T10:46:40.397Z</time></trkpt><trkpt lat="44.4862951" lon="8.5050411"><ele>390.0</ele><time>2026-05-03T10:46:41.396Z</time></trkpt><trkpt lat="44.4864088" lon="8.5051448"><ele>390.0</ele><time>2026-05-03T10:46:42.396Z</time></trkpt><trkpt lat="44.4865249" lon="8.505205"><ele>390.0</ele><time>2026-05-03T10:46:43.396Z</time></trkpt><trkpt lat="44.4866337" lon="8.5052056"><ele>390.0</ele><time>2026-05-03T10:46:44.396Z</time></trkpt><trkpt lat="44.4867363" lon="8.5051443"><ele>390.0</ele><time>2026-05-03T10:46:45.396Z</time></trkpt><trkpt lat="44.4868247" lon="8.5050264"><ele>390.0</ele><time>2026-05-03T10:46:46.396Z</time></trkpt><trkpt lat="44.486909" lon="8.5048896"><ele>390.0</ele><time>2026-05-03T10:46:47.396Z</time></trkpt><trkpt lat="44.4870146" lon="8.5047791"><ele>390.0</ele><time>2026-05-03T10:46:48.397Z</time></trkpt><trkpt lat="44.4871376" lon="8.5047162"><ele>390.75</ele><time>2026-05-03T10:46:49.396Z</time></trkpt><trkpt lat="44.4872702" lon="8.5046991"><ele>391.5</ele><time>2026-05-03T10:46:50.396Z</time></trkpt><trkpt lat="44.4874085" lon="8.5047283"><ele>392.25</ele><time>2026-05-03T10:46:51.396Z</time></trkpt><trkpt lat="44.4875436" lon="8.5047905"><ele>393.0</ele><time>2026-05-03T10:46:52.396Z</time></trkpt><trkpt lat="44.4876723" lon="8.5048862"><ele>393.0</ele><time>2026-05-03T10:46:53.396Z</time></trkpt><trkpt lat="44.4878027" lon="8.5049963"><ele>393.0</ele><time>2026-05-03T10:46:54.396Z</time></trkpt><trkpt lat="44.4879295" lon="8.5051083"><ele>393.0</ele><time>2026-05-03T10:46:55.396Z</time></trkpt><trkpt lat="44.4880544" lon="8.5052279"><ele>393.5</ele><time>2026-05-03T10:46:56.396Z</time></trkpt><trkpt lat="44.4881784" lon="8.505346"><ele>394.0</ele><time>2026-05-03T10:46:57.396Z</time></trkpt><trkpt lat="44.4883009" lon="8.5054574"><ele>394.5</ele><time>2026-05-03T10:46:58.396Z</time></trkpt><trkpt lat="44.4884276" lon="8.5055653"><ele>395.0</ele><time>2026-05-03T10:46:59.397Z</time></trkpt><trkpt lat="44.4885602" lon="8.5056679"><ele>395.0</ele><time>2026-05-03T10:47:00.396Z</time></trkpt><trkpt lat="44.488696" lon="8.5057768"><ele>395.0</ele><time>2026-05-03T10:47:01.396Z</time></trkpt><trkpt lat="44.4888293" lon="8.5059041"><ele>395.0</ele><time>2026-05-03T10:47:02.396Z</time></trkpt><trkpt lat="44.4889483" lon="8.50606"><ele>396.0</ele><time>2026-05-03T10:47:03.396Z</time></trkpt><trkpt lat="44.48905" lon="8.5062498"><ele>397.0</ele><time>2026-05-03T10:47:04.397Z</time></trkpt><trkpt lat="44.4891407" lon="8.5064667"><ele>398.0</ele><time>2026-05-03T10:47:05.397Z</time></trkpt><trkpt lat="44.4892338" lon="8.5066948"><ele>398.0</ele><time>2026-05-03T10:47:06.397Z</time></trkpt><trkpt lat="44.4893267" lon="8.5069197"><ele>398.0</ele><time>2026-05-03T10:47:07.396Z</time></trkpt><trkpt lat="44.4894235" lon="8.5071523"><ele>398.0</ele><time>2026-05-03T10:47:08.397Z</time></trkpt><trkpt lat="44.4895198" lon="8.5073859"><ele>401.3333333333333</ele><time>2026-05-03T10:47:09.397Z</time></trkpt><trkpt lat="44.489613" lon="8.5076185"><ele>404.66666666666663</ele><time>2026-05-03T10:47:10.396Z</time></trkpt><trkpt lat="44.4897057" lon="8.5078478"><ele>408.0</ele><time>2026-05-03T10:47:11.396Z</time></trkpt><trkpt lat="44.4897975" lon="8.5080762"><ele>408.0</ele><time>2026-05-03T10:47:12.396Z</time></trkpt><trkpt lat="44.489887" lon="8.508302"><ele>408.0</ele><time>2026-05-03T10:47:13.396Z</time></trkpt><trkpt lat="44.4899741" lon="8.5085325"><ele>408.0</ele><time>2026-05-03T10:47:14.397Z</time></trkpt><trkpt lat="44.4900215" lon="8.5087738"><ele>408.33333333333337</ele><time>2026-05-03T10:47:15.397Z</time></trkpt><trkpt lat="44.4900672" lon="8.509019"><ele>408.6666666666667</ele><time>2026-05-03T10:47:16.396Z</time></trkpt><trkpt lat="44.490119" lon="8.5092518"><ele>409.0</ele><time>2026-05-03T10:47:17.396Z</time></trkpt><trkpt lat="44.4901988" lon="8.509475"><ele>411.0</ele><time>2026-05-03T10:47:18.396Z</time></trkpt><trkpt lat="44.4903027" lon="8.5096869"><ele>413.0</ele><time>2026-05-03T10:47:19.396Z</time></trkpt><trkpt lat="44.490427" lon="8.5098837"><ele>415.0</ele><time>2026-05-03T10:47:20.396Z</time></trkpt><trkpt lat="44.4905558" lon="8.5100832"><ele>414.6666666666667</ele><time>2026-05-03T10:47:21.397Z</time></trkpt><trkpt lat="44.4906898" lon="8.5102859"><ele>414.33333333333337</ele><time>2026-05-03T10:47:22.397Z</time></trkpt><trkpt lat="44.4908232" lon="8.5104892"><ele>414.0</ele><time>2026-05-03T10:47:23.396Z</time></trkpt><trkpt lat="44.4909648" lon="8.5106975"><ele>414.0</ele><time>2026-05-03T10:47:24.396Z</time></trkpt><trkpt lat="44.4911064" lon="8.5109095"><ele>414.0</ele><time>2026-05-03T10:47:25.396Z</time></trkpt><trkpt lat="44.491246" lon="8.5111176"><ele>414.0</ele><time>2026-05-03T10:47:26.396Z</time></trkpt><trkpt lat="44.4913843" lon="8.511324"><ele>414.66666666666663</ele><time>2026-05-03T10:47:27.396Z</time></trkpt><trkpt lat="44.4915228" lon="8.5115247"><ele>415.3333333333333</ele><time>2026-05-03T10:47:28.396Z</time></trkpt><trkpt lat="44.4916606" lon="8.5117241"><ele>416.0</ele><time>2026-05-03T10:47:29.396Z</time></trkpt><trkpt lat="44.4917975" lon="8.5119154"><ele>415.0</ele><time>2026-05-03T10:47:30.396Z</time></trkpt><trkpt lat="44.4919243" lon="8.5121028"><ele>414.0</ele><time>2026-05-03T10:47:31.397Z</time></trkpt><trkpt lat="44.4920335" lon="8.5123071"><ele>413.0</ele><time>2026-05-03T10:47:32.396Z</time></trkpt><trkpt lat="44.4921325" lon="8.5125259"><ele>415.3333333333333</ele><time>2026-05-03T10:47:33.397Z</time></trkpt><trkpt lat="44.4922351" lon="8.512747"><ele>417.66666666666663</ele><time>2026-05-03T10:47:34.396Z</time></trkpt><trkpt lat="44.4923379" lon="8.5129677"><ele>420.0</ele><time>2026-05-03T10:47:35.396Z</time></trkpt><trkpt lat="44.4924404" lon="8.5131901"><ele>420.0</ele><time>2026-05-03T10:47:36.396Z</time></trkpt><trkpt lat="44.4925372" lon="8.5134189"><ele>420.0</ele><time>2026-05-03T10:47:37.396Z</time></trkpt><trkpt lat="44.4926242" lon="8.5136496"><ele>420.0</ele><time>2026-05-03T10:47:38.396Z</time></trkpt><trkpt lat="44.4926998" lon="8.5138857"><ele>419.33333333333337</ele><time>2026-05-03T10:47:39.396Z</time></trkpt><trkpt lat="44.4927667" lon="8.5141227"><ele>418.6666666666667</ele><time>2026-05-03T10:47:40.396Z</time></trkpt><trkpt lat="44.4928236" lon="8.5143383"><ele>418.0</ele><time>2026-05-03T10:47:41.397Z</time></trkpt><trkpt lat="44.4928692" lon="8.5145215"><ele>418.75</ele><time>2026-05-03T10:47:42.396Z</time></trkpt><trkpt lat="44.4929067" lon="8.514673"><ele>419.5</ele><time>2026-05-03T10:47:43.397Z</time></trkpt><trkpt lat="44.4929642" lon="8.514803"><ele>420.25</ele><time>2026-05-03T10:47:44.396Z</time></trkpt><trkpt lat="44.4930573" lon="8.5148975"><ele>421.0</ele><time>2026-05-03T10:47:45.397Z</time></trkpt><trkpt lat="44.4931816" lon="8.5149506"><ele>422.33333333333337</ele><time>2026-05-03T10:47:46.396Z</time></trkpt><trkpt lat="44.4933268" lon="8.5149766"><ele>423.66666666666663</ele><time>2026-05-03T10:47:47.396Z</time></trkpt><trkpt lat="44.4934869" lon="8.5150081"><ele>425.0</ele><time>2026-05-03T10:47:48.396Z</time></trkpt><trkpt lat="44.4936469" lon="8.5150453"><ele>429.66666666666663</ele><time>2026-05-03T10:47:49.397Z</time></trkpt><trkpt lat="44.4937924" lon="8.5150949"><ele>434.33333333333337</ele><time>2026-05-03T10:47:50.397Z</time></trkpt><trkpt lat="44.4939307" lon="8.5151843"><ele>439.0</ele><time>2026-05-03T10:47:51.396Z</time></trkpt><trkpt lat="44.4940504" lon="8.5153132"><ele>436.0</ele><time>2026-05-03T10:47:52.397Z</time></trkpt><trkpt lat="44.4941393" lon="8.5154869"><ele>433.0</ele><time>2026-05-03T10:47:53.396Z</time></trkpt><trkpt lat="44.4942165" lon="8.5156985"><ele>430.0</ele><time>2026-05-03T10:47:54.396Z</time></trkpt><trkpt lat="44.4943024" lon="8.515917"><ele>430.0</ele><time>2026-05-03T10:47:55.396Z</time></trkpt><trkpt lat="44.4944022" lon="8.5161279"><ele>430.0</ele><time>2026-05-03T10:47:56.396Z</time></trkpt><trkpt lat="44.4945143" lon="8.5163411"><ele>430.0</ele><time>2026-05-03T10:47:57.397Z</time></trkpt><trkpt lat="44.4946343" lon="8.5165404"><ele>430.33333333333337</ele><time>2026-05-03T10:47:58.396Z</time></trkpt><trkpt lat="44.4947548" lon="8.5167392"><ele>430.66666666666663</ele><time>2026-05-03T10:47:59.396Z</time></trkpt><trkpt lat="44.4948638" lon="8.5169506"><ele>431.0</ele><time>2026-05-03T10:48:00.396Z</time></trkpt><trkpt lat="44.4949609" lon="8.5171808"><ele>431.0</ele><time>2026-05-03T10:48:01.396Z</time></trkpt><trkpt lat="44.4950517" lon="8.517426"><ele>431.0</ele><time>2026-05-03T10:48:02.397Z</time></trkpt><trkpt lat="44.4951395" lon="8.5176712"><ele>431.0</ele><time>2026-05-03T10:48:03.396Z</time></trkpt><trkpt lat="44.4952199" lon="8.5179164"><ele>429.3333333333333</ele><time>2026-05-03T10:48:04.396Z</time></trkpt><trkpt lat="44.4953062" lon="8.5181614"><ele>427.66666666666663</ele><time>2026-05-03T10:48:05.396Z</time></trkpt><trkpt lat="44.4953897" lon="8.5184034"><ele>426.0</ele><time>2026-05-03T10:48:06.396Z</time></trkpt><trkpt lat="44.4954708" lon="8.5186444"><ele>429.0</ele><time>2026-05-03T10:48:07.396Z</time></trkpt><trkpt lat="44.4955503" lon="8.5188844"><ele>432.0</ele><time>2026-05-03T10:48:08.396Z</time></trkpt><trkpt lat="44.4956319" lon="8.5191169"><ele>435.0</ele><time>2026-05-03T10:48:09.396Z</time></trkpt><trkpt lat="44.4957176" lon="8.5193445"><ele>435.0</ele><time>2026-05-03T10:48:10.396Z</time></trkpt><trkpt lat="44.4958045" lon="8.5195593"><ele>435.0</ele><time>2026-05-03T10:48:11.396Z</time></trkpt><trkpt lat="44.495876" lon="8.5197601"><ele>435.0</ele><time>2026-05-03T10:48:12.396Z</time></trkpt><trkpt lat="44.4959211" lon="8.5199785"><ele>434.33333333333337</ele><time>2026-05-03T10:48:13.396Z</time></trkpt><trkpt lat="44.4959265" lon="8.5202213"><ele>433.6666666666667</ele><time>2026-05-03T10:48:14.397Z</time></trkpt><trkpt lat="44.4959174" lon="8.5204757"><ele>433.0</ele><time>2026-05-03T10:48:15.397Z</time></trkpt><trkpt lat="44.4959186" lon="8.5207316"><ele>433.0</ele><time>2026-05-03T10:48:16.396Z</time></trkpt><trkpt lat="44.4959215" lon="8.520981"><ele>433.0</ele><time>2026-05-03T10:48:17.397Z</time></trkpt><trkpt lat="44.495905" lon="8.5212141"><ele>433.0</ele><time>2026-05-03T10:48:18.397Z</time></trkpt><trkpt lat="44.495866" lon="8.5214304"><ele>433.0</ele><time>2026-05-03T10:48:19.396Z</time></trkpt><trkpt lat="44.4958069" lon="8.5216335"><ele>433.0</ele><time>2026-05-03T10:48:20.397Z</time></trkpt><trkpt lat="44.4957555" lon="8.5218124"><ele>433.0</ele><time>2026-05-03T10:48:21.397Z</time></trkpt><trkpt lat="44.4956992" lon="8.5219558"><ele>433.0</ele><time>2026-05-03T10:48:22.397Z</time></trkpt><trkpt lat="44.495608" lon="8.5220683"><ele>433.0</ele><time>2026-05-03T10:48:23.396Z</time></trkpt><trkpt lat="44.4954799" lon="8.5221379"><ele>433.0</ele><time>2026-05-03T10:48:24.396Z</time></trkpt><trkpt lat="44.4953354" lon="8.5221803"><ele>433.0</ele><time>2026-05-03T10:48:25.396Z</time></trkpt><trkpt lat="44.4952035" lon="8.5222288"><ele>433.0</ele><time>2026-05-03T10:48:26.396Z</time></trkpt><trkpt lat="44.495097" lon="8.5223183"><ele>433.0</ele><time>2026-05-03T10:48:27.396Z</time></trkpt><trkpt lat="44.4950138" lon="8.5224595"><ele>433.0</ele><time>2026-05-03T10:48:28.396Z</time></trkpt><trkpt lat="44.494953" lon="8.5226479"><ele>433.0</ele><time>2026-05-03T10:48:29.396Z</time></trkpt><trkpt lat="44.4948914" lon="8.5228615"><ele>433.0</ele><time>2026-05-03T10:48:30.397Z</time></trkpt><trkpt lat="44.4948268" lon="8.5230825"><ele>434.6666666666667</ele><time>2026-05-03T10:48:31.396Z</time></trkpt><trkpt lat="44.4947729" lon="8.5233145"><ele>436.33333333333337</ele><time>2026-05-03T10:48:32.396Z</time></trkpt><trkpt lat="44.4947316" lon="8.5235615"><ele>438.0</ele><time>2026-05-03T10:48:33.397Z</time></trkpt><trkpt lat="44.4947093" lon="8.5238195"><ele>439.0</ele><time>2026-05-03T10:48:34.396Z</time></trkpt><trkpt lat="44.4946919" lon="8.5240788"><ele>440.0</ele><time>2026-05-03T10:48:35.396Z</time></trkpt><trkpt lat="44.4946771" lon="8.5243169"><ele>441.0</ele><time>2026-05-03T10:48:36.396Z</time></trkpt><trkpt lat="44.4946634" lon="8.5245354"><ele>442.25</ele><time>2026-05-03T10:48:37.396Z</time></trkpt><trkpt lat="44.4946319" lon="8.524738"><ele>443.5</ele><time>2026-05-03T10:48:38.396Z</time></trkpt><trkpt lat="44.4945665" lon="8.5249243"><ele>444.75</ele><time>2026-05-03T10:48:39.396Z</time></trkpt><trkpt lat="44.4944739" lon="8.5250819"><ele>446.0</ele><time>2026-05-03T10:48:40.396Z</time></trkpt><trkpt lat="44.4943846" lon="8.5252224"><ele>446.0</ele><time>2026-05-03T10:48:41.396Z</time></trkpt><trkpt lat="44.4943127" lon="8.5253636"><ele>446.0</ele><time>2026-05-03T10:48:42.396Z</time></trkpt><trkpt lat="44.4942684" lon="8.5255425"><ele>446.0</ele><time>2026-05-03T10:48:43.396Z</time></trkpt><trkpt lat="44.4942485" lon="8.5257369"><ele>446.0</ele><time>2026-05-03T10:48:44.397Z</time></trkpt><trkpt lat="44.4942386" lon="8.5259306"><ele>448.66666666666663</ele><time>2026-05-03T10:48:45.396Z</time></trkpt><trkpt lat="44.4942548" lon="8.5261241"><ele>451.33333333333337</ele><time>2026-05-03T10:48:46.397Z</time></trkpt><trkpt lat="44.4943352" lon="8.5263288"><ele>454.0</ele><time>2026-05-03T10:48:47.396Z</time></trkpt><trkpt lat="44.4943958" lon="8.526529"><ele>454.6666666666667</ele><time>2026-05-03T10:48:48.397Z</time></trkpt><trkpt lat="44.4944322" lon="8.5267397"><ele>455.33333333333337</ele><time>2026-05-03T10:48:49.396Z</time></trkpt><trkpt lat="44.494457" lon="8.5269494"><ele>456.0</ele><time>2026-05-03T10:48:50.397Z</time></trkpt><trkpt lat="44.494466" lon="8.5271587"><ele>457.33333333333337</ele><time>2026-05-03T10:48:51.396Z</time></trkpt><trkpt lat="44.4944498" lon="8.5273721"><ele>458.6666666666667</ele><time>2026-05-03T10:48:52.397Z</time></trkpt><trkpt lat="44.4944174" lon="8.527587"><ele>460.0</ele><time>2026-05-03T10:48:53.396Z</time></trkpt><trkpt lat="44.4943808" lon="8.5277854"><ele>462.25</ele><time>2026-05-03T10:48:54.396Z</time></trkpt><trkpt lat="44.4943322" lon="8.5279603"><ele>464.5</ele><time>2026-05-03T10:48:55.396Z</time></trkpt><trkpt lat="44.4942537" lon="8.5281161"><ele>466.75</ele><time>2026-05-03T10:48:56.397Z</time></trkpt><trkpt lat="44.4941664" lon="8.5282616"><ele>469.0</ele><time>2026-05-03T10:48:57.397Z</time></trkpt><trkpt lat="44.4940766" lon="8.5283951"><ele>469.0</ele><time>2026-05-03T10:48:58.396Z</time></trkpt><trkpt lat="44.4940089" lon="8.5285365"><ele>469.0</ele><time>2026-05-03T10:48:59.397Z</time></trkpt><trkpt lat="44.4939903" lon="8.5286841"><ele>469.0</ele><time>2026-05-03T10:49:00.396Z</time></trkpt><trkpt lat="44.4940119" lon="8.5288418"><ele>469.0</ele><time>2026-05-03T10:49:01.396Z</time></trkpt><trkpt lat="44.494074" lon="8.5290151"><ele>471.0</ele><time>2026-05-03T10:49:02.397Z</time></trkpt><trkpt lat="44.4941573" lon="8.5292062"><ele>473.0</ele><time>2026-05-03T10:49:03.397Z</time></trkpt><trkpt lat="44.4942416" lon="8.5294087"><ele>475.0</ele><time>2026-05-03T10:49:04.396Z</time></trkpt><trkpt lat="44.4943218" lon="8.529609"><ele>475.0</ele><time>2026-05-03T10:49:05.397Z</time></trkpt><trkpt lat="44.4943894" lon="8.5297962"><ele>475.0</ele><time>2026-05-03T10:49:06.397Z</time></trkpt><trkpt lat="44.4944546" lon="8.529968"><ele>475.0</ele><time>2026-05-03T10:49:07.396Z</time></trkpt><trkpt lat="44.49454" lon="8.5301092"><ele>475.0</ele><time>2026-05-03T10:49:08.397Z</time></trkpt><trkpt lat="44.4946578" lon="8.5302253"><ele>477.0</ele><time>2026-05-03T10:49:09.397Z</time></trkpt><trkpt lat="44.4947868" lon="8.5303378"><ele>479.0</ele><time>2026-05-03T10:49:10.396Z</time></trkpt><trkpt lat="44.4949181" lon="8.5304763"><ele>481.0</ele><time>2026-05-03T10:49:11.397Z</time></trkpt><trkpt lat="44.4950564" lon="8.5306238"><ele>481.0</ele><time>2026-05-03T10:49:12.396Z</time></trkpt><trkpt lat="44.4951985" lon="8.5307786"><ele>481.0</ele><time>2026-05-03T10:49:13.396Z</time></trkpt><trkpt lat="44.4953332" lon="8.53093"><ele>481.0</ele><time>2026-05-03T10:49:14.397Z</time></trkpt><trkpt lat="44.4954599" lon="8.5310625"><ele>484.25</ele><time>2026-05-03T10:49:15.397Z</time></trkpt><trkpt lat="44.4955676" lon="8.5311838"><ele>487.5</ele><time>2026-05-03T10:49:16.396Z</time></trkpt><trkpt lat="44.4956547" lon="8.5312872"><ele>490.75</ele><time>2026-05-03T10:49:17.396Z</time></trkpt><trkpt lat="44.4957211" lon="8.531393"><ele>494.0</ele><time>2026-05-03T10:49:18.397Z</time></trkpt><trkpt lat="44.4957534" lon="8.5315345"><ele>494.0</ele><time>2026-05-03T10:49:19.396Z</time></trkpt><trkpt lat="44.4957562" lon="8.5317"><ele>494.0</ele><time>2026-05-03T10:49:20.396Z</time></trkpt><trkpt lat="44.4957286" lon="8.5318727"><ele>494.0</ele><time>2026-05-03T10:49:21.396Z</time></trkpt><trkpt lat="44.4956777" lon="8.5320421"><ele>494.0</ele><time>2026-05-03T10:49:22.396Z</time></trkpt><trkpt lat="44.4956296" lon="8.5321926"><ele>494.5</ele><time>2026-05-03T10:49:23.396Z</time></trkpt><trkpt lat="44.4956094" lon="8.5323424"><ele>495.0</ele><time>2026-05-03T10:49:24.396Z</time></trkpt><trkpt lat="44.4956375" lon="8.5324994"><ele>495.5</ele><time>2026-05-03T10:49:25.396Z</time></trkpt><trkpt lat="44.4956708" lon="8.532659"><ele>496.0</ele><time>2026-05-03T10:49:26.396Z</time></trkpt><trkpt lat="44.4956734" lon="8.5328366"><ele>497.75</ele><time>2026-05-03T10:49:27.397Z</time></trkpt><trkpt lat="44.4956391" lon="8.5330323"><ele>499.5</ele><time>2026-05-03T10:49:28.396Z</time></trkpt><trkpt lat="44.4955945" lon="8.5332258"><ele>501.25</ele><time>2026-05-03T10:49:29.396Z</time></trkpt><trkpt lat="44.49557" lon="8.5334089"><ele>503.0</ele><time>2026-05-03T10:49:30.396Z</time></trkpt><trkpt lat="44.4955832" lon="8.5335879"><ele>503.25</ele><time>2026-05-03T10:49:31.397Z</time></trkpt><trkpt lat="44.4956167" lon="8.5337723"><ele>503.5</ele><time>2026-05-03T10:49:32.397Z</time></trkpt><trkpt lat="44.4956515" lon="8.5339511"><ele>503.75</ele><time>2026-05-03T10:49:33.397Z</time></trkpt><trkpt lat="44.495694" lon="8.5341067"><ele>504.0</ele><time>2026-05-03T10:49:34.396Z</time></trkpt><trkpt lat="44.4957597" lon="8.5342595"><ele>504.0</ele><time>2026-05-03T10:49:35.396Z</time></trkpt><trkpt lat="44.4958639" lon="8.5343947"><ele>504.0</ele><time>2026-05-03T10:49:36.397Z</time></trkpt><trkpt lat="44.4959614" lon="8.534547"><ele>504.0</ele><time>2026-05-03T10:49:37.397Z</time></trkpt><trkpt lat="44.496077" lon="8.5346787"><ele>504.0</ele><time>2026-05-03T10:49:38.397Z</time></trkpt><trkpt lat="44.4961915" lon="8.5348004"><ele>504.0</ele><time>2026-05-03T10:49:39.396Z</time></trkpt><trkpt lat="44.4963005" lon="8.5348866"><ele>504.0</ele><time>2026-05-03T10:49:40.397Z</time></trkpt><trkpt lat="44.4964057" lon="8.53495"><ele>504.0</ele><time>2026-05-03T10:49:41.396Z</time></trkpt><trkpt lat="44.4965124" lon="8.5348815"><ele>504.0</ele><time>2026-05-03T10:49:42.396Z</time></trkpt><trkpt lat="44.4965966" lon="8.5347936"><ele>504.0</ele><time>2026-05-03T10:49:43.396Z</time></trkpt><trkpt lat="44.4966676" lon="8.5346597"><ele>504.0</ele><time>2026-05-03T10:49:44.396Z</time></trkpt><trkpt lat="44.4967176" lon="8.5344872"><ele>504.0</ele><time>2026-05-03T10:49:45.396Z</time></trkpt><trkpt lat="44.4967753" lon="8.5343272"><ele>504.0</ele><time>2026-05-03T10:49:46.396Z</time></trkpt><trkpt lat="44.496848" lon="8.5341981"><ele>506.75</ele><time>2026-05-03T10:49:47.396Z</time></trkpt><trkpt lat="44.4969494" lon="8.53413"><ele>509.5</ele><time>2026-05-03T10:49:48.396Z</time></trkpt><trkpt lat="44.4970614" lon="8.5341027"><ele>512.25</ele><time>2026-05-03T10:49:49.396Z</time></trkpt><trkpt lat="44.4971775" lon="8.5340544"><ele>515.0</ele><time>2026-05-03T10:49:50.396Z</time></trkpt><trkpt lat="44.49728" lon="8.5339681"><ele>515.0</ele><time>2026-05-03T10:49:51.397Z</time></trkpt><trkpt lat="44.4973931" lon="8.5339372"><ele>515.0</ele><time>2026-05-03T10:49:52.396Z</time></trkpt><trkpt lat="44.4975235" lon="8.5339663"><ele>515.0</ele><time>2026-05-03T10:49:53.397Z</time></trkpt><trkpt lat="44.4976556" lon="8.5340225"><ele>515.0</ele><time>2026-05-03T10:49:54.396Z</time></trkpt><trkpt lat="44.4977909" lon="8.5340896"><ele>515.0</ele><time>2026-05-03T10:49:55.396Z</time></trkpt><trkpt lat="44.4979147" lon="8.5341705"><ele>515.0</ele><time>2026-05-03T10:49:56.397Z</time></trkpt><trkpt lat="44.4980319" lon="8.5342824"><ele>515.0</ele><time>2026-05-03T10:49:57.396Z</time></trkpt><trkpt lat="44.4981385" lon="8.5344099"><ele>515.0</ele><time>2026-05-03T10:49:58.396Z</time></trkpt><trkpt lat="44.4982378" lon="8.5345639"><ele>517.0</ele><time>2026-05-03T10:49:59.397Z</time></trkpt><trkpt lat="44.4983078" lon="8.5347539"><ele>519.0</ele><time>2026-05-03T10:50:00.396Z</time></trkpt><trkpt lat="44.4983585" lon="8.5349499"><ele>521.0</ele><time>2026-05-03T10:50:01.396Z</time></trkpt><trkpt lat="44.4983936" lon="8.5351569"><ele>521.0</ele><time>2026-05-03T10:50:02.396Z</time></trkpt><trkpt lat="44.4984051" lon="8.535385"><ele>521.0</ele><time>2026-05-03T10:50:03.397Z</time></trkpt><trkpt lat="44.4984153" lon="8.5356092"><ele>521.0</ele><time>2026-05-03T10:50:04.396Z</time></trkpt><trkpt lat="44.4984339" lon="8.5358241"><ele>521.3333333333333</ele><time>2026-05-03T10:50:05.396Z</time></trkpt><trkpt lat="44.4984345" lon="8.5360343"><ele>521.6666666666666</ele><time>2026-05-03T10:50:06.396Z</time></trkpt><trkpt lat="44.4984101" lon="8.536248"><ele>522.0</ele><time>2026-05-03T10:50:07.396Z</time></trkpt><trkpt lat="44.4984003" lon="8.5364729"><ele>524.0</ele><time>2026-05-03T10:50:08.396Z</time></trkpt><trkpt lat="44.4984113" lon="8.53669"><ele>526.0</ele><time>2026-05-03T10:50:09.396Z</time></trkpt><trkpt lat="44.4984175" lon="8.5369033"><ele>528.0</ele><time>2026-05-03T10:50:10.396Z</time></trkpt><trkpt lat="44.4984054" lon="8.5370909"><ele>530.0</ele><time>2026-05-03T10:50:11.397Z</time></trkpt><trkpt lat="44.4984135" lon="8.5372625"><ele>530.75</ele><time>2026-05-03T10:50:12.396Z</time></trkpt><trkpt lat="44.4984631" lon="8.5374281"><ele>531.5</ele><time>2026-05-03T10:50:13.396Z</time></trkpt><trkpt lat="44.498538" lon="8.5375797"><ele>532.25</ele><time>2026-05-03T10:50:14.396Z</time></trkpt><trkpt lat="44.4985934" lon="8.5377403"><ele>533.0</ele><time>2026-05-03T10:50:15.396Z</time></trkpt><trkpt lat="44.4986037" lon="8.5379221"><ele>533.0</ele><time>2026-05-03T10:50:16.396Z</time></trkpt><trkpt lat="44.49859" lon="8.538111"><ele>533.0</ele><time>2026-05-03T10:50:17.396Z</time></trkpt><trkpt lat="44.4985829" lon="8.5382881"><ele>533.0</ele><time>2026-05-03T10:50:18.396Z</time></trkpt><trkpt lat="44.4986251" lon="8.5384668"><ele>533.0</ele><time>2026-05-03T10:50:19.396Z</time></trkpt><trkpt lat="44.4987091" lon="8.5386488"><ele>536.0</ele><time>2026-05-03T10:50:20.396Z</time></trkpt><trkpt lat="44.4988063" lon="8.5388402"><ele>539.0</ele><time>2026-05-03T10:50:21.396Z</time></trkpt><trkpt lat="44.4989015" lon="8.539063"><ele>542.0</ele><time>2026-05-03T10:50:22.397Z</time></trkpt><trkpt lat="44.498982" lon="8.5392965"><ele>542.0</ele><time>2026-05-03T10:50:23.397Z</time></trkpt><trkpt lat="44.4990611" lon="8.5395354"><ele>542.0</ele><time>2026-05-03T10:50:24.397Z</time></trkpt><trkpt lat="44.4991396" lon="8.5397712"><ele>542.0</ele><time>2026-05-03T10:50:25.396Z</time></trkpt><trkpt lat="44.4992151" lon="8.5399973"><ele>543.3333333333333</ele><time>2026-05-03T10:50:26.397Z</time></trkpt><trkpt lat="44.4992822" lon="8.5402107"><ele>544.6666666666666</ele><time>2026-05-03T10:50:27.397Z</time></trkpt><trkpt lat="44.4993275" lon="8.5404209"><ele>546.0</ele><time>2026-05-03T10:50:28.396Z</time></trkpt><trkpt lat="44.4993425" lon="8.5406314"><ele>547.3333333333334</ele><time>2026-05-03T10:50:29.396Z</time></trkpt><trkpt lat="44.4993277" lon="8.540847"><ele>548.6666666666667</ele><time>2026-05-03T10:50:30.396Z</time></trkpt><trkpt lat="44.4992865" lon="8.5410607"><ele>550.0</ele><time>2026-05-03T10:50:31.397Z</time></trkpt><trkpt lat="44.499259" lon="8.5412792"><ele>552.0</ele><time>2026-05-03T10:50:32.397Z</time></trkpt><trkpt lat="44.4992622" lon="8.5415062"><ele>554.0</ele><time>2026-05-03T10:50:33.397Z</time></trkpt><trkpt lat="44.4992906" lon="8.5417189"><ele>556.0</ele><time>2026-05-03T10:50:34.396Z</time></trkpt><trkpt lat="44.4993477" lon="8.5419207"><ele>555.3333333333334</ele><time>2026-05-03T10:50:35.396Z</time></trkpt><trkpt lat="44.4994417" lon="8.542104"><ele>554.6666666666666</ele><time>2026-05-03T10:50:36.397Z</time></trkpt><trkpt lat="44.4995509" lon="8.5422828"><ele>554.0</ele><time>2026-05-03T10:50:37.396Z</time></trkpt><trkpt lat="44.4996619" lon="8.5424587"><ele>560.3333333333333</ele><time>2026-05-03T10:50:38.396Z</time></trkpt><trkpt lat="44.4997504" lon="8.5426544"><ele>566.6666666666666</ele><time>2026-05-03T10:50:39.397Z</time></trkpt><trkpt lat="44.4998085" lon="8.5428808"><ele>573.0</ele><time>2026-05-03T10:50:40.396Z</time></trkpt><trkpt lat="44.4998601" lon="8.543123"><ele>573.6666666666666</ele><time>2026-05-03T10:50:41.396Z</time></trkpt><trkpt lat="44.4999138" lon="8.5433665"><ele>574.3333333333333</ele><time>2026-05-03T10:50:42.396Z</time></trkpt><trkpt lat="44.4999578" lon="8.543604"><ele>575.0</ele><time>2026-05-03T10:50:43.396Z</time></trkpt><trkpt lat="44.4999989" lon="8.5438252"><ele>576.25</ele><time>2026-05-03T10:50:44.396Z</time></trkpt><trkpt lat="44.5000292" lon="8.5440243"><ele>577.5</ele><time>2026-05-03T10:50:45.396Z</time></trkpt><trkpt lat="44.5000509" lon="8.5441967"><ele>578.75</ele><time>2026-05-03T10:50:46.396Z</time></trkpt><trkpt lat="44.5000618" lon="8.5443437"><ele>580.0</ele><time>2026-05-03T10:50:47.396Z</time></trkpt><trkpt lat="44.5000323" lon="8.5444785"><ele>582.75</ele><time>2026-05-03T10:50:48.396Z</time></trkpt><trkpt lat="44.4999641" lon="8.5445926"><ele>585.5</ele><time>2026-05-03T10:50:49.397Z</time></trkpt><trkpt lat="44.4998671" lon="8.5446779"><ele>588.25</ele><time>2026-05-03T10:50:50.396Z</time></trkpt><trkpt lat="44.4997391" lon="8.5446939"><ele>591.0</ele><time>2026-05-03T10:50:51.396Z</time></trkpt><trkpt lat="44.4996129" lon="8.5446933"><ele>591.5</ele><time>2026-05-03T10:50:52.396Z</time></trkpt><trkpt lat="44.4994932" lon="8.5447454"><ele>592.0</ele><time>2026-05-03T10:50:53.396Z</time></trkpt><trkpt lat="44.4993811" lon="8.544832"><ele>592.5</ele><time>2026-05-03T10:50:54.396Z</time></trkpt><trkpt lat="44.4992833" lon="8.5448756"><ele>593.0</ele><time>2026-05-03T10:50:55.396Z</time></trkpt><trkpt lat="44.4991831" lon="8.5448578"><ele>593.0</ele><time>2026-05-03T10:50:56.396Z</time></trkpt><trkpt lat="44.4990806" lon="8.5447886"><ele>593.0</ele><time>2026-05-03T10:50:57.396Z</time></trkpt><trkpt lat="44.4989846" lon="8.5446874"><ele>593.0</ele><time>2026-05-03T10:50:58.396Z</time></trkpt><trkpt lat="44.4988918" lon="8.5445742"><ele>593.0</ele><time>2026-05-03T10:50:59.396Z</time></trkpt><trkpt lat="44.4987909" lon="8.5445034"><ele>593.0</ele><time>2026-05-03T10:51:00.396Z</time></trkpt><trkpt lat="44.4986774" lon="8.5444952"><ele>593.0</ele><time>2026-05-03T10:51:01.396Z</time></trkpt><trkpt lat="44.4985597" lon="8.5445582"><ele>593.0</ele><time>2026-05-03T10:51:02.396Z</time></trkpt><trkpt lat="44.4984407" lon="8.5446668"><ele>593.0</ele><time>2026-05-03T10:51:03.396Z</time></trkpt><trkpt lat="44.4983135" lon="8.5448048"><ele>593.0</ele><time>2026-05-03T10:51:04.396Z</time></trkpt><trkpt lat="44.4981884" lon="8.5449678"><ele>593.0</ele><time>2026-05-03T10:51:05.396Z</time></trkpt><trkpt lat="44.4980775" lon="8.545132"><ele>593.0</ele><time>2026-05-03T10:51:06.396Z</time></trkpt><trkpt lat="44.4979702" lon="8.5452762"><ele>594.25</ele><time>2026-05-03T10:51:07.396Z</time></trkpt><trkpt lat="44.4978662" lon="8.5454138"><ele>595.5</ele><time>2026-05-03T10:51:08.396Z</time></trkpt><trkpt lat="44.4977515" lon="8.5455306"><ele>596.75</ele><time>2026-05-03T10:51:09.397Z</time></trkpt><trkpt lat="44.4976178" lon="8.545624"><ele>598.0</ele><time>2026-05-03T10:51:10.396Z</time></trkpt><trkpt lat="44.4974746" lon="8.5456889"><ele>598.0</ele><time>2026-05-03T10:51:11.396Z</time></trkpt><trkpt lat="44.4973328" lon="8.5457357"><ele>598.0</ele><time>2026-05-03T10:51:12.396Z</time></trkpt><trkpt lat="44.4972004" lon="8.5457498"><ele>598.0</ele><time>2026-05-03T10:51:13.396Z</time></trkpt><trkpt lat="44.4970744" lon="8.5457023"><ele>598.0</ele><time>2026-05-03T10:51:14.397Z</time></trkpt><trkpt lat="44.4969568" lon="8.5456173"><ele>599.75</ele><time>2026-05-03T10:51:15.396Z</time></trkpt><trkpt lat="44.4968535" lon="8.5455218"><ele>601.5</ele><time>2026-05-03T10:51:16.396Z</time></trkpt><trkpt lat="44.4967492" lon="8.545442"><ele>603.25</ele><time>2026-05-03T10:51:17.396Z</time></trkpt><trkpt lat="44.4966384" lon="8.5454092"><ele>605.0</ele><time>2026-05-03T10:51:18.396Z</time></trkpt><trkpt lat="44.4965371" lon="8.5454123"><ele>605.0</ele><time>2026-05-03T10:51:19.396Z</time></trkpt><trkpt lat="44.4964619" lon="8.5455485"><ele>605.0</ele><time>2026-05-03T10:51:20.396Z</time></trkpt><trkpt lat="44.496418" lon="8.5456949"><ele>605.0</ele><time>2026-05-03T10:51:21.396Z</time></trkpt><trkpt lat="44.4964116" lon="8.5458979"><ele>605.0</ele><time>2026-05-03T10:51:22.396Z</time></trkpt><trkpt lat="44.4964097" lon="8.5461164"><ele>605.0</ele><time>2026-05-03T10:51:23.396Z</time></trkpt><trkpt lat="44.4964089" lon="8.5463511"><ele>605.0</ele><time>2026-05-03T10:51:24.396Z</time></trkpt><trkpt lat="44.4964135" lon="8.5465801"><ele>605.0</ele><time>2026-05-03T10:51:25.396Z</time></trkpt><trkpt lat="44.4964109" lon="8.5467921"><ele>605.0</ele><time>2026-05-03T10:51:26.396Z</time></trkpt><trkpt lat="44.4963944" lon="8.5469869"><ele>605.0</ele><time>2026-05-03T10:51:27.396Z</time></trkpt><trkpt lat="44.4963542" lon="8.5471737"><ele>605.0</ele><time>2026-05-03T10:51:28.397Z</time></trkpt><trkpt lat="44.4962874" lon="8.5473466"><ele>605.0</ele><time>2026-05-03T10:51:29.396Z</time></trkpt><trkpt lat="44.4961834" lon="8.5474967"><ele>608.6666666666666</ele><time>2026-05-03T10:51:30.396Z</time></trkpt><trkpt lat="44.4960579" lon="8.5476376"><ele>612.3333333333334</ele><time>2026-05-03T10:51:31.396Z</time></trkpt><trkpt lat="44.4959215" lon="8.54778"><ele>616.0</ele><time>2026-05-03T10:51:32.396Z</time></trkpt><trkpt lat="44.4957841" lon="8.5479155"><ele>616.0</ele><time>2026-05-03T10:51:33.396Z</time></trkpt><trkpt lat="44.4956555" lon="8.5480498"><ele>616.0</ele><time>2026-05-03T10:51:34.396Z</time></trkpt><trkpt lat="44.495542" lon="8.5481562"><ele>616.0</ele><time>2026-05-03T10:51:35.396Z</time></trkpt><trkpt lat="44.4954335" lon="8.5482342"><ele>616.0</ele><time>2026-05-03T10:51:36.396Z</time></trkpt><trkpt lat="44.4953191" lon="8.5482628"><ele>616.5</ele><time>2026-05-03T10:51:37.397Z</time></trkpt><trkpt lat="44.4951976" lon="8.5482237"><ele>617.0</ele><time>2026-05-03T10:51:38.397Z</time></trkpt><trkpt lat="44.4950754" lon="8.5481301"><ele>617.5</ele><time>2026-05-03T10:51:39.397Z</time></trkpt><trkpt lat="44.4949442" lon="8.5480138"><ele>618.0</ele><time>2026-05-03T10:51:40.396Z</time></trkpt><trkpt lat="44.494807" lon="8.5478824"><ele>617.3333333333334</ele><time>2026-05-03T10:51:41.397Z</time></trkpt><trkpt lat="44.4946636" lon="8.5477455"><ele>616.6666666666667</ele><time>2026-05-03T10:51:42.396Z</time></trkpt><trkpt lat="44.4945175" lon="8.5476069"><ele>616.0</ele><time>2026-05-03T10:51:43.396Z</time></trkpt><trkpt lat="44.4943721" lon="8.5474593"><ele>616.0</ele><time>2026-05-03T10:51:44.396Z</time></trkpt><trkpt lat="44.4942365" lon="8.5473213"><ele>616.0</ele><time>2026-05-03T10:51:45.396Z</time></trkpt><trkpt lat="44.4941135" lon="8.5471977"><ele>616.0</ele><time>2026-05-03T10:51:46.396Z</time></trkpt><trkpt lat="44.4940028" lon="8.5470908"><ele>616.0</ele><time>2026-05-03T10:51:47.397Z</time></trkpt><trkpt lat="44.4938942" lon="8.5470178"><ele>616.0</ele><time>2026-05-03T10:51:48.396Z</time></trkpt><trkpt lat="44.4937783" lon="8.5469886"><ele>616.0</ele><time>2026-05-03T10:51:49.396Z</time></trkpt><trkpt lat="44.4936517" lon="8.5470199"><ele>616.0</ele><time>2026-05-03T10:51:50.396Z</time></trkpt><trkpt lat="44.4935237" lon="8.547114"><ele>615.3333333333334</ele><time>2026-05-03T10:51:51.397Z</time></trkpt><trkpt lat="44.4933981" lon="8.5472279"><ele>614.6666666666666</ele><time>2026-05-03T10:51:52.396Z</time></trkpt><trkpt lat="44.4932392" lon="8.5473204"><ele>614.0</ele><time>2026-05-03T10:51:53.397Z</time></trkpt><trkpt lat="44.49307" lon="8.5473929"><ele>616.0</ele><time>2026-05-03T10:51:54.396Z</time></trkpt><trkpt lat="44.4929059" lon="8.5474372"><ele>618.0</ele><time>2026-05-03T10:51:55.396Z</time></trkpt><trkpt lat="44.4927537" lon="8.5474528"><ele>620.0</ele><time>2026-05-03T10:51:56.396Z</time></trkpt><trkpt lat="44.4926089" lon="8.5474395"><ele>620.0</ele><time>2026-05-03T10:51:57.396Z</time></trkpt><trkpt lat="44.4924727" lon="8.5473653"><ele>620.0</ele><time>2026-05-03T10:51:58.396Z</time></trkpt><trkpt lat="44.4923441" lon="8.5472321"><ele>620.0</ele><time>2026-05-03T10:51:59.396Z</time></trkpt><trkpt lat="44.4922229" lon="8.547069"><ele>618.75</ele><time>2026-05-03T10:52:00.396Z</time></trkpt><trkpt lat="44.4920987" lon="8.5469239"><ele>617.5</ele><time>2026-05-03T10:52:01.397Z</time></trkpt><trkpt lat="44.4919624" lon="8.5468367"><ele>616.25</ele><time>2026-05-03T10:52:02.397Z</time></trkpt><trkpt lat="44.4918364" lon="8.5467712"><ele>615.0</ele><time>2026-05-03T10:52:03.396Z</time></trkpt><trkpt lat="44.4917356" lon="8.5466598"><ele>620.3333333333334</ele><time>2026-05-03T10:52:04.396Z</time></trkpt><trkpt lat="44.4916446" lon="8.5464923"><ele>625.6666666666667</ele><time>2026-05-03T10:52:05.396Z</time></trkpt><trkpt lat="44.4915318" lon="8.5463379"><ele>631.0</ele><time>2026-05-03T10:52:06.396Z</time></trkpt><trkpt lat="44.4913828" lon="8.5462219"><ele>631.0</ele><time>2026-05-03T10:52:07.396Z</time></trkpt><trkpt lat="44.4912302" lon="8.5461178"><ele>631.0</ele><time>2026-05-03T10:52:08.397Z</time></trkpt><trkpt lat="44.4910921" lon="8.5460241"><ele>631.0</ele><time>2026-05-03T10:52:09.396Z</time></trkpt><trkpt lat="44.4909681" lon="8.5459491"><ele>631.0</ele><time>2026-05-03T10:52:10.396Z</time></trkpt><trkpt lat="44.4908571" lon="8.5459132"><ele>631.0</ele><time>2026-05-03T10:52:11.396Z</time></trkpt><trkpt lat="44.4907396" lon="8.5459259"><ele>631.0</ele><time>2026-05-03T10:52:12.397Z</time></trkpt><trkpt lat="44.4906144" lon="8.5459948"><ele>631.0</ele><time>2026-05-03T10:52:13.396Z</time></trkpt><trkpt lat="44.4904969" lon="8.5461004"><ele>633.75</ele><time>2026-05-03T10:52:14.396Z</time></trkpt><trkpt lat="44.4903892" lon="8.5462358"><ele>636.5</ele><time>2026-05-03T10:52:15.396Z</time></trkpt><trkpt lat="44.4902975" lon="8.5463875"><ele>639.25</ele><time>2026-05-03T10:52:16.396Z</time></trkpt><trkpt lat="44.4902119" lon="8.546529"><ele>642.0</ele><time>2026-05-03T10:52:17.397Z</time></trkpt><trkpt lat="44.4901245" lon="8.5466603"><ele>642.0</ele><time>2026-05-03T10:52:18.396Z</time></trkpt><trkpt lat="44.4900415" lon="8.5467894"><ele>642.0</ele><time>2026-05-03T10:52:19.397Z</time></trkpt><trkpt lat="44.4899594" lon="8.5469215"><ele>642.0</ele><time>2026-05-03T10:52:20.397Z</time></trkpt><trkpt lat="44.4898743" lon="8.5470554"><ele>642.0</ele><time>2026-05-03T10:52:21.396Z</time></trkpt><trkpt lat="44.48979" lon="8.5471904"><ele>643.5</ele><time>2026-05-03T10:52:22.397Z</time></trkpt><trkpt lat="44.4897043" lon="8.5473237"><ele>645.0</ele><time>2026-05-03T10:52:23.396Z</time></trkpt><trkpt lat="44.4896199" lon="8.5474456"><ele>646.5</ele><time>2026-05-03T10:52:24.396Z</time></trkpt><trkpt lat="44.4895336" lon="8.5475624"><ele>648.0</ele><time>2026-05-03T10:52:25.397Z</time></trkpt><trkpt lat="44.489449" lon="8.547675"><ele>648.0</ele><time>2026-05-03T10:52:26.396Z</time></trkpt><trkpt lat="44.4893577" lon="8.547784"><ele>648.0</ele><time>2026-05-03T10:52:27.396Z</time></trkpt><trkpt lat="44.4892692" lon="8.5478903"><ele>648.0</ele><time>2026-05-03T10:52:28.396Z</time></trkpt><trkpt lat="44.4891803" lon="8.5479997"><ele>648.0</ele><time>2026-05-03T10:52:29.396Z</time></trkpt><trkpt lat="44.4890952" lon="8.5481112"><ele>648.75</ele><time>2026-05-03T10:52:30.396Z</time></trkpt><trkpt lat="44.4890044" lon="8.5482145"><ele>649.5</ele><time>2026-05-03T10:52:31.397Z</time></trkpt><trkpt lat="44.4889012" lon="8.5483089"><ele>650.25</ele><time>2026-05-03T10:52:32.396Z</time></trkpt><trkpt lat="44.4887833" lon="8.5483864"><ele>651.0</ele><time>2026-05-03T10:52:33.396Z</time></trkpt><trkpt lat="44.488655" lon="8.5484532"><ele>651.25</ele><time>2026-05-03T10:52:34.396Z</time></trkpt><trkpt lat="44.4885205" lon="8.5485185"><ele>651.5</ele><time>2026-05-03T10:52:35.396Z</time></trkpt><trkpt lat="44.4883889" lon="8.5485845"><ele>651.75</ele><time>2026-05-03T10:52:36.396Z</time></trkpt><trkpt lat="44.4882518" lon="8.548645"><ele>652.0</ele><time>2026-05-03T10:52:37.396Z</time></trkpt><trkpt lat="44.48812" lon="8.5487073"><ele>653.5</ele><time>2026-05-03T10:52:38.396Z</time></trkpt><trkpt lat="44.4879881" lon="8.548767"><ele>655.0</ele><time>2026-05-03T10:52:39.396Z</time></trkpt><trkpt lat="44.4878621" lon="8.5488175"><ele>656.5</ele><time>2026-05-03T10:52:40.396Z</time></trkpt><trkpt lat="44.4877393" lon="8.5488725"><ele>658.0</ele><time>2026-05-03T10:52:41.396Z</time></trkpt><trkpt lat="44.4876215" lon="8.5489272"><ele>658.0</ele><time>2026-05-03T10:52:42.396Z</time></trkpt><trkpt lat="44.4875084" lon="8.5489707"><ele>658.0</ele><time>2026-05-03T10:52:43.396Z</time></trkpt><trkpt lat="44.4874009" lon="8.5490066"><ele>658.0</ele><time>2026-05-03T10:52:44.396Z</time></trkpt><trkpt lat="44.4872921" lon="8.5490383"><ele>658.0</ele><time>2026-05-03T10:52:45.396Z</time></trkpt><trkpt lat="44.487169" lon="8.5490291"><ele>656.75</ele><time>2026-05-03T10:52:46.396Z</time></trkpt><trkpt lat="44.48705" lon="8.5489935"><ele>655.5</ele><time>2026-05-03T10:52:47.397Z</time></trkpt><trkpt lat="44.4869321" lon="8.5489552"><ele>654.25</ele><time>2026-05-03T10:52:48.396Z</time></trkpt><trkpt lat="44.4868234" lon="8.5488824"><ele>653.0</ele><time>2026-05-03T10:52:49.396Z</time></trkpt><trkpt lat="44.486725" lon="8.5487766"><ele>654.75</ele><time>2026-05-03T10:52:50.396Z</time></trkpt><trkpt lat="44.4866401" lon="8.5486205"><ele>656.5</ele><time>2026-05-03T10:52:51.396Z</time></trkpt><trkpt lat="44.4865421" lon="8.5484619"><ele>658.25</ele><time>2026-05-03T10:52:52.396Z</time></trkpt><trkpt lat="44.4864282" lon="8.5483151"><ele>660.0</ele><time>2026-05-03T10:52:53.397Z</time></trkpt><trkpt lat="44.4863157" lon="8.5481754"><ele>657.6666666666666</ele><time>2026-05-03T10:52:54.396Z</time></trkpt><trkpt lat="44.4862017" lon="8.5480546"><ele>655.3333333333333</ele><time>2026-05-03T10:52:55.397Z</time></trkpt><trkpt lat="44.4860532" lon="8.5479968"><ele>653.0</ele><time>2026-05-03T10:52:56.396Z</time></trkpt><trkpt lat="44.4858954" lon="8.5479485"><ele>653.0</ele><time>2026-05-03T10:52:57.396Z</time></trkpt><trkpt lat="44.4857347" lon="8.5478915"><ele>653.0</ele><time>2026-05-03T10:52:58.396Z</time></trkpt><trkpt lat="44.485575" lon="8.547812"><ele>653.0</ele><time>2026-05-03T10:52:59.397Z</time></trkpt><trkpt lat="44.4854249" lon="8.547739"><ele>655.5</ele><time>2026-05-03T10:53:00.396Z</time></trkpt><trkpt lat="44.4852834" lon="8.5476594"><ele>658.0</ele><time>2026-05-03T10:53:01.397Z</time></trkpt><trkpt lat="44.4851597" lon="8.5475613"><ele>660.5</ele><time>2026-05-03T10:53:02.396Z</time></trkpt><trkpt lat="44.4850476" lon="8.5474296"><ele>663.0</ele><time>2026-05-03T10:53:03.396Z</time></trkpt><trkpt lat="44.4849549" lon="8.5472699"><ele>663.0</ele><time>2026-05-03T10:53:04.396Z</time></trkpt><trkpt lat="44.484862" lon="8.5471354"><ele>663.0</ele><time>2026-05-03T10:53:05.397Z</time></trkpt><trkpt lat="44.4847436" lon="8.5470363"><ele>663.0</ele><time>2026-05-03T10:53:06.396Z</time></trkpt><trkpt lat="44.4845993" lon="8.5469937"><ele>663.0</ele><time>2026-05-03T10:53:07.396Z</time></trkpt><trkpt lat="44.4844412" lon="8.5469859"><ele>665.0</ele><time>2026-05-03T10:53:08.397Z</time></trkpt><trkpt lat="44.4842844" lon="8.5469613"><ele>667.0</ele><time>2026-05-03T10:53:09.396Z</time></trkpt><trkpt lat="44.4841299" lon="8.5469142"><ele>669.0</ele><time>2026-05-03T10:53:10.397Z</time></trkpt><trkpt lat="44.4839905" lon="8.5468263"><ele>669.0</ele><time>2026-05-03T10:53:11.396Z</time></trkpt><trkpt lat="44.4838771" lon="8.5466902"><ele>669.0</ele><time>2026-05-03T10:53:12.396Z</time></trkpt><trkpt lat="44.4837779" lon="8.5465499"><ele>669.0</ele><time>2026-05-03T10:53:13.396Z</time></trkpt><trkpt lat="44.4836701" lon="8.5464333"><ele>669.0</ele><time>2026-05-03T10:53:14.397Z</time></trkpt><trkpt lat="44.4835448" lon="8.5463785"><ele>667.0</ele><time>2026-05-03T10:53:15.396Z</time></trkpt><trkpt lat="44.483403" lon="8.5463771"><ele>665.0</ele><time>2026-05-03T10:53:16.396Z</time></trkpt><trkpt lat="44.4832587" lon="8.5464076"><ele>663.0</ele><time>2026-05-03T10:53:17.396Z</time></trkpt><trkpt lat="44.4831336" lon="8.5464379"><ele>661.0</ele><time>2026-05-03T10:53:18.396Z</time></trkpt><trkpt lat="44.4830248" lon="8.5464993"><ele>661.0</ele><time>2026-05-03T10:53:19.396Z</time></trkpt><trkpt lat="44.4829373" lon="8.546609"><ele>661.0</ele><time>2026-05-03T10:53:20.397Z</time></trkpt><trkpt lat="44.4828951" lon="8.5467578"><ele>661.0</ele><time>2026-05-03T10:53:21.397Z</time></trkpt><trkpt lat="44.4828941" lon="8.546916"><ele>661.0</ele><time>2026-05-03T10:53:22.397Z</time></trkpt><trkpt lat="44.4829126" lon="8.5470449"><ele>661.0</ele><time>2026-05-03T10:53:23.396Z</time></trkpt><trkpt lat="44.4829765" lon="8.5471601"><ele>662.0</ele><time>2026-05-03T10:53:24.396Z</time></trkpt><trkpt lat="44.4830771" lon="8.5472503"><ele>663.0</ele><time>2026-05-03T10:53:25.396Z</time></trkpt><trkpt lat="44.4831918" lon="8.5473555"><ele>664.0</ele><time>2026-05-03T10:53:26.396Z</time></trkpt><trkpt lat="44.4833039" lon="8.5475118"><ele>665.0</ele><time>2026-05-03T10:53:27.396Z</time></trkpt><trkpt lat="44.483417" lon="8.5476914"><ele>665.0</ele><time>2026-05-03T10:53:28.397Z</time></trkpt><trkpt lat="44.4835268" lon="8.5478577"><ele>665.0</ele><time>2026-05-03T10:53:29.396Z</time></trkpt><trkpt lat="44.4836229" lon="8.5480142"><ele>665.0</ele><time>2026-05-03T10:53:30.396Z</time></trkpt><trkpt lat="44.4836945" lon="8.5481774"><ele>665.0</ele><time>2026-05-03T10:53:31.396Z</time></trkpt><trkpt lat="44.4837502" lon="8.5483249"><ele>663.25</ele><time>2026-05-03T10:53:32.397Z</time></trkpt><trkpt lat="44.4837844" lon="8.5484644"><ele>661.5</ele><time>2026-05-03T10:53:33.397Z</time></trkpt><trkpt lat="44.4837789" lon="8.5486253"><ele>659.75</ele><time>2026-05-03T10:53:34.396Z</time></trkpt><trkpt lat="44.483734" lon="8.5487934"><ele>658.0</ele><time>2026-05-03T10:53:35.397Z</time></trkpt><trkpt lat="44.4836685" lon="8.5489516"><ele>661.75</ele><time>2026-05-03T10:53:36.397Z</time></trkpt><trkpt lat="44.4835923" lon="8.5490969"><ele>665.5</ele><time>2026-05-03T10:53:37.396Z</time></trkpt><trkpt lat="44.4834975" lon="8.5492181"><ele>669.25</ele><time>2026-05-03T10:53:38.397Z</time></trkpt><trkpt lat="44.4833954" lon="8.5493126"><ele>673.0</ele><time>2026-05-03T10:53:39.396Z</time></trkpt><trkpt lat="44.4832771" lon="8.5493723"><ele>673.0</ele><time>2026-05-03T10:53:40.396Z</time></trkpt><trkpt lat="44.4831442" lon="8.5493818"><ele>673.0</ele><time>2026-05-03T10:53:41.396Z</time></trkpt><trkpt lat="44.4830072" lon="8.5493599"><ele>673.0</ele><time>2026-05-03T10:53:42.396Z</time></trkpt><trkpt lat="44.4828373" lon="8.549327"><ele>673.0</ele><time>2026-05-03T10:53:43.396Z</time></trkpt><trkpt lat="44.4826772" lon="8.549305"><ele>675.6666666666667</ele><time>2026-05-03T10:53:44.396Z</time></trkpt><trkpt lat="44.4825183" lon="8.5492711"><ele>678.3333333333334</ele><time>2026-05-03T10:53:45.396Z</time></trkpt><trkpt lat="44.4823675" lon="8.5492255"><ele>681.0</ele><time>2026-05-03T10:53:46.396Z</time></trkpt><trkpt lat="44.4822182" lon="8.5491971"><ele>683.25</ele><time>2026-05-03T10:53:47.397Z</time></trkpt><trkpt lat="44.4820628" lon="8.549201"><ele>685.5</ele><time>2026-05-03T10:53:48.396Z</time></trkpt><trkpt lat="44.4819362" lon="8.5492292"><ele>687.75</ele><time>2026-05-03T10:53:49.396Z</time></trkpt><trkpt lat="44.4818209" lon="8.5492469"><ele>690.0</ele><time>2026-05-03T10:53:50.396Z</time></trkpt><trkpt lat="44.4817172" lon="8.5493029"><ele>690.0</ele><time>2026-05-03T10:53:51.396Z</time></trkpt><trkpt lat="44.4816381" lon="8.5494195"><ele>690.0</ele><time>2026-05-03T10:53:52.396Z</time></trkpt><trkpt lat="44.4815877" lon="8.5495825"><ele>690.0</ele><time>2026-05-03T10:53:53.397Z</time></trkpt><trkpt lat="44.4815529" lon="8.5497494"><ele>690.0</ele><time>2026-05-03T10:53:54.396Z</time></trkpt><trkpt lat="44.4814988" lon="8.5499194"><ele>689.25</ele><time>2026-05-03T10:53:55.396Z</time></trkpt><trkpt lat="44.4814016" lon="8.5500679"><ele>688.5</ele><time>2026-05-03T10:53:56.396Z</time></trkpt><trkpt lat="44.4813006" lon="8.5501958"><ele>687.75</ele><time>2026-05-03T10:53:57.396Z</time></trkpt><trkpt lat="44.4812075" lon="8.5502919"><ele>687.0</ele><time>2026-05-03T10:53:58.396Z</time></trkpt><trkpt lat="44.4811023" lon="8.5503637"><ele>687.0</ele><time>2026-05-03T10:53:59.397Z</time></trkpt><trkpt lat="44.4809627" lon="8.5503469"><ele>687.0</ele><time>2026-05-03T10:54:00.396Z</time></trkpt><trkpt lat="44.4807989" lon="8.5503371"><ele>687.0</ele><time>2026-05-03T10:54:01.396Z</time></trkpt><trkpt lat="44.480666" lon="8.5503218"><ele>687.0</ele><time>2026-05-03T10:54:02.396Z</time></trkpt><trkpt lat="44.480554" lon="8.5502652"><ele>687.0</ele><time>2026-05-03T10:54:03.396Z</time></trkpt><trkpt lat="44.4804475" lon="8.5502683"><ele>687.0</ele><time>2026-05-03T10:54:04.397Z</time></trkpt><trkpt lat="44.4803425" lon="8.5502632"><ele>687.0</ele><time>2026-05-03T10:54:05.397Z</time></trkpt><trkpt lat="44.4802913" lon="8.5504261"><ele>687.0</ele><time>2026-05-03T10:54:06.396Z</time></trkpt><trkpt lat="44.4802726" lon="8.550559"><ele>687.0</ele><time>2026-05-03T10:54:07.397Z</time></trkpt><trkpt lat="44.4802962" lon="8.550733"><ele>687.5</ele><time>2026-05-03T10:54:08.396Z</time></trkpt><trkpt lat="44.48032" lon="8.5508744"><ele>688.0</ele><time>2026-05-03T10:54:09.397Z</time></trkpt><trkpt lat="44.4803839" lon="8.5510131"><ele>688.5</ele><time>2026-05-03T10:54:10.396Z</time></trkpt><trkpt lat="44.480494" lon="8.5511287"><ele>689.0</ele><time>2026-05-03T10:54:11.396Z</time></trkpt><trkpt lat="44.4806224" lon="8.5512415"><ele>692.75</ele><time>2026-05-03T10:54:12.396Z</time></trkpt><trkpt lat="44.4807581" lon="8.5513206"><ele>696.5</ele><time>2026-05-03T10:54:13.396Z</time></trkpt><trkpt lat="44.480891" lon="8.551365"><ele>700.25</ele><time>2026-05-03T10:54:14.397Z</time></trkpt><trkpt lat="44.4810241" lon="8.5513515"><ele>704.0</ele><time>2026-05-03T10:54:15.397Z</time></trkpt><trkpt lat="44.4811578" lon="8.5512757"><ele>696.0</ele><time>2026-05-03T10:54:16.396Z</time></trkpt><trkpt lat="44.4812934" lon="8.5511952"><ele>688.0</ele><time>2026-05-03T10:54:17.397Z</time></trkpt><trkpt lat="44.4814418" lon="8.5511023"><ele>680.0</ele><time>2026-05-03T10:54:18.397Z</time></trkpt><trkpt lat="44.4815823" lon="8.5510063"><ele>680.0</ele><time>2026-05-03T10:54:19.397Z</time></trkpt><trkpt lat="44.4817092" lon="8.5509134"><ele>680.0</ele><time>2026-05-03T10:54:20.397Z</time></trkpt><trkpt lat="44.481819" lon="8.5508288"><ele>680.0</ele><time>2026-05-03T10:54:21.396Z</time></trkpt><trkpt lat="44.4819425" lon="8.5507642"><ele>680.0</ele><time>2026-05-03T10:54:22.396Z</time></trkpt><trkpt lat="44.4820859" lon="8.5507538"><ele>681.75</ele><time>2026-05-03T10:54:23.397Z</time></trkpt><trkpt lat="44.4822224" lon="8.5507401"><ele>683.5</ele><time>2026-05-03T10:54:24.397Z</time></trkpt><trkpt lat="44.4823449" lon="8.5507021"><ele>685.25</ele><time>2026-05-03T10:54:25.396Z</time></trkpt><trkpt lat="44.4824556" lon="8.5506812"><ele>687.0</ele><time>2026-05-03T10:54:26.396Z</time></trkpt><trkpt lat="44.4825832" lon="8.5507091"><ele>687.0</ele><time>2026-05-03T10:54:27.397Z</time></trkpt><trkpt lat="44.4827175" lon="8.5507583"><ele>687.0</ele><time>2026-05-03T10:54:28.396Z</time></trkpt><trkpt lat="44.4828639" lon="8.5507677"><ele>687.0</ele><time>2026-05-03T10:54:29.397Z</time></trkpt><trkpt lat="44.483014" lon="8.5507606"><ele>687.0</ele><time>2026-05-03T10:54:30.396Z</time></trkpt><trkpt lat="44.4831732" lon="8.5507749"><ele>686.5</ele><time>2026-05-03T10:54:31.396Z</time></trkpt><trkpt lat="44.4833253" lon="8.5508226"><ele>686.0</ele><time>2026-05-03T10:54:32.396Z</time></trkpt><trkpt lat="44.4834631" lon="8.5508554"><ele>685.5</ele><time>2026-05-03T10:54:33.396Z</time></trkpt><trkpt lat="44.4835715" lon="8.5509271"><ele>685.0</ele><time>2026-05-03T10:54:34.396Z</time></trkpt><trkpt lat="44.4836528" lon="8.5510415"><ele>685.0</ele><time>2026-05-03T10:54:35.396Z</time></trkpt><trkpt lat="44.4837239" lon="8.5511871"><ele>685.0</ele><time>2026-05-03T10:54:36.396Z</time></trkpt><trkpt lat="44.4837858" lon="8.5513693"><ele>685.0</ele><time>2026-05-03T10:54:37.396Z</time></trkpt><trkpt lat="44.4838376" lon="8.5515487"><ele>685.0</ele><time>2026-05-03T10:54:38.396Z</time></trkpt><trkpt lat="44.4838839" lon="8.5517229"><ele>683.5</ele><time>2026-05-03T10:54:39.396Z</time></trkpt><trkpt lat="44.4838551" lon="8.5518986"><ele>682.0</ele><time>2026-05-03T10:54:40.396Z</time></trkpt><trkpt lat="44.4838169" lon="8.5520838"><ele>680.5</ele><time>2026-05-03T10:54:41.396Z</time></trkpt><trkpt lat="44.4837832" lon="8.5522497"><ele>679.0</ele><time>2026-05-03T10:54:42.396Z</time></trkpt><trkpt lat="44.4837572" lon="8.5524096"><ele>678.0</ele><time>2026-05-03T10:54:43.396Z</time></trkpt><trkpt lat="44.483799" lon="8.5525411"><ele>677.0</ele><time>2026-05-03T10:54:44.397Z</time></trkpt><trkpt lat="44.4837852" lon="8.5526844"><ele>676.0</ele><time>2026-05-03T10:54:45.396Z</time></trkpt><trkpt lat="44.4836783" lon="8.5527821"><ele>675.0</ele><time>2026-05-03T10:54:46.396Z</time></trkpt><trkpt lat="44.4835915" lon="8.5528935"><ele>679.75</ele><time>2026-05-03T10:54:47.396Z</time></trkpt><trkpt lat="44.4835265" lon="8.553018"><ele>684.5</ele><time>2026-05-03T10:54:48.396Z</time></trkpt><trkpt lat="44.4834606" lon="8.5531378"><ele>689.25</ele><time>2026-05-03T10:54:49.397Z</time></trkpt><trkpt lat="44.4833518" lon="8.5532115"><ele>694.0</ele><time>2026-05-03T10:54:50.396Z</time></trkpt><trkpt lat="44.483238" lon="8.5532859"><ele>694.0</ele><time>2026-05-03T10:54:51.396Z</time></trkpt><trkpt lat="44.4831089" lon="8.5533615"><ele>694.0</ele><time>2026-05-03T10:54:52.396Z</time></trkpt><trkpt lat="44.4829793" lon="8.5534255"><ele>694.0</ele><time>2026-05-03T10:54:53.396Z</time></trkpt><trkpt lat="44.482852" lon="8.5534898"><ele>694.0</ele><time>2026-05-03T10:54:54.396Z</time></trkpt><trkpt lat="44.4827402" lon="8.5535975"><ele>695.5</ele><time>2026-05-03T10:54:55.397Z</time></trkpt><trkpt lat="44.4826469" lon="8.553747"><ele>697.0</ele><time>2026-05-03T10:54:56.396Z</time></trkpt><trkpt lat="44.4825596" lon="8.5538948"><ele>698.5</ele><time>2026-05-03T10:54:57.396Z</time></trkpt><trkpt lat="44.4824468" lon="8.5540244"><ele>700.0</ele><time>2026-05-03T10:54:58.397Z</time></trkpt><trkpt lat="44.482318" lon="8.5541262"><ele>700.0</ele><time>2026-05-03T10:54:59.396Z</time></trkpt><trkpt lat="44.4821838" lon="8.5542125"><ele>700.0</ele><time>2026-05-03T10:55:00.396Z</time></trkpt><trkpt lat="44.4820746" lon="8.5542975"><ele>700.0</ele><time>2026-05-03T10:55:01.396Z</time></trkpt><trkpt lat="44.4819775" lon="8.5544143"><ele>700.0</ele><time>2026-05-03T10:55:02.396Z</time></trkpt><trkpt lat="44.4819065" lon="8.5545877"><ele>703.6666666666667</ele><time>2026-05-03T10:55:03.396Z</time></trkpt><trkpt lat="44.4818572" lon="8.5547928"><ele>707.3333333333334</ele><time>2026-05-03T10:55:04.396Z</time></trkpt><trkpt lat="44.481824" lon="8.5550211"><ele>711.0</ele><time>2026-05-03T10:55:05.396Z</time></trkpt><trkpt lat="44.4817843" lon="8.5552475"><ele>712.25</ele><time>2026-05-03T10:55:06.396Z</time></trkpt><trkpt lat="44.4817484" lon="8.5554548"><ele>713.5</ele><time>2026-05-03T10:55:07.396Z</time></trkpt><trkpt lat="44.481719" lon="8.5556378"><ele>714.75</ele><time>2026-05-03T10:55:08.396Z</time></trkpt><trkpt lat="44.4816973" lon="8.5558027"><ele>716.0</ele><time>2026-05-03T10:55:09.396Z</time></trkpt><trkpt lat="44.4817128" lon="8.5559633"><ele>716.0</ele><time>2026-05-03T10:55:10.396Z</time></trkpt><trkpt lat="44.4817237" lon="8.5561181"><ele>716.0</ele><time>2026-05-03T10:55:11.396Z</time></trkpt><trkpt lat="44.481855" lon="8.5562273"><ele>716.0</ele><time>2026-05-03T10:55:12.396Z</time></trkpt><trkpt lat="44.4819797" lon="8.5562989"><ele>716.0</ele><time>2026-05-03T10:55:13.397Z</time></trkpt><trkpt lat="44.4821123" lon="8.5563624"><ele>719.3333333333333</ele><time>2026-05-03T10:55:14.396Z</time></trkpt><trkpt lat="44.4822568" lon="8.5564343"><ele>722.6666666666666</ele><time>2026-05-03T10:55:15.396Z</time></trkpt><trkpt lat="44.4824108" lon="8.5564759"><ele>726.0</ele><time>2026-05-03T10:55:16.396Z</time></trkpt><trkpt lat="44.4825628" lon="8.5564882"><ele>726.0</ele><time>2026-05-03T10:55:17.396Z</time></trkpt><trkpt lat="44.4827044" lon="8.5564915"><ele>726.0</ele><time>2026-05-03T10:55:18.396Z</time></trkpt><trkpt lat="44.4828232" lon="8.5564985"><ele>726.0</ele><time>2026-05-03T10:55:19.396Z</time></trkpt><trkpt lat="44.4829124" lon="8.556546"><ele>726.0</ele><time>2026-05-03T10:55:20.397Z</time></trkpt><trkpt lat="44.4829747" lon="8.5566388"><ele>726.0</ele><time>2026-05-03T10:55:21.397Z</time></trkpt><trkpt lat="44.4830059" lon="8.5567733"><ele>722.75</ele><time>2026-05-03T10:55:22.396Z</time></trkpt><trkpt lat="44.4829913" lon="8.5569213"><ele>719.5</ele><time>2026-05-03T10:55:23.397Z</time></trkpt><trkpt lat="44.4829414" lon="8.5570917"><ele>716.25</ele><time>2026-05-03T10:55:24.396Z</time></trkpt><trkpt lat="44.4828975" lon="8.5572643"><ele>713.0</ele><time>2026-05-03T10:55:25.396Z</time></trkpt><trkpt lat="44.4828904" lon="8.5574679"><ele>716.6666666666666</ele><time>2026-05-03T10:55:26.397Z</time></trkpt><trkpt lat="44.4829144" lon="8.5576756"><ele>720.3333333333334</ele><time>2026-05-03T10:55:27.396Z</time></trkpt><trkpt lat="44.4829592" lon="8.5578858"><ele>724.0</ele><time>2026-05-03T10:55:28.397Z</time></trkpt><trkpt lat="44.4829958" lon="8.5580803"><ele>724.0</ele><time>2026-05-03T10:55:29.396Z</time></trkpt><trkpt lat="44.4830119" lon="8.5582784"><ele>724.0</ele><time>2026-05-03T10:55:30.396Z</time></trkpt><trkpt lat="44.4830025" lon="8.5584771"><ele>724.0</ele><time>2026-05-03T10:55:31.396Z</time></trkpt><trkpt lat="44.4829784" lon="8.5586748"><ele>724.0</ele><time>2026-05-03T10:55:32.396Z</time></trkpt><trkpt lat="44.4829544" lon="8.5588552"><ele>729.75</ele><time>2026-05-03T10:55:33.396Z</time></trkpt><trkpt lat="44.4829205" lon="8.5590051"><ele>735.5</ele><time>2026-05-03T10:55:34.396Z</time></trkpt><trkpt lat="44.4828546" lon="8.5591388"><ele>741.25</ele><time>2026-05-03T10:55:35.397Z</time></trkpt><trkpt lat="44.4827611" lon="8.5592704"><ele>747.0</ele><time>2026-05-03T10:55:36.396Z</time></trkpt><trkpt lat="44.4826831" lon="8.5594282"><ele>745.3333333333334</ele><time>2026-05-03T10:55:37.396Z</time></trkpt><trkpt lat="44.4826271" lon="8.559628"><ele>743.6666666666667</ele><time>2026-05-03T10:55:38.396Z</time></trkpt><trkpt lat="44.4825751" lon="8.5598412"><ele>742.0</ele><time>2026-05-03T10:55:39.396Z</time></trkpt><trkpt lat="44.4825358" lon="8.5600559"><ele>742.0</ele><time>2026-05-03T10:55:40.396Z</time></trkpt><trkpt lat="44.4825187" lon="8.5602768"><ele>742.0</ele><time>2026-05-03T10:55:41.396Z</time></trkpt><trkpt lat="44.4825193" lon="8.5604959"><ele>742.0</ele><time>2026-05-03T10:55:42.397Z</time></trkpt><trkpt lat="44.4825216" lon="8.5607114"><ele>742.0</ele><time>2026-05-03T10:55:43.396Z</time></trkpt><trkpt lat="44.4825173" lon="8.5609159"><ele>742.0</ele><time>2026-05-03T10:55:44.396Z</time></trkpt><trkpt lat="44.4824968" lon="8.5611153"><ele>742.0</ele><time>2026-05-03T10:55:45.397Z</time></trkpt><trkpt lat="44.4824607" lon="8.5613137"><ele>742.0</ele><time>2026-05-03T10:55:46.396Z</time></trkpt><trkpt lat="44.4824157" lon="8.5615096"><ele>740.75</ele><time>2026-05-03T10:55:47.396Z</time></trkpt><trkpt lat="44.4823695" lon="8.5617053"><ele>739.5</ele><time>2026-05-03T10:55:48.396Z</time></trkpt><trkpt lat="44.4823145" lon="8.5618868"><ele>738.25</ele><time>2026-05-03T10:55:49.397Z</time></trkpt><trkpt lat="44.4822365" lon="8.5620535"><ele>737.0</ele><time>2026-05-03T10:55:50.396Z</time></trkpt><trkpt lat="44.4821242" lon="8.5621992"><ele>740.5</ele><time>2026-05-03T10:55:51.396Z</time></trkpt><trkpt lat="44.4820102" lon="8.5623289"><ele>744.0</ele><time>2026-05-03T10:55:52.396Z</time></trkpt><trkpt lat="44.4819034" lon="8.5624515"><ele>747.5</ele><time>2026-05-03T10:55:53.397Z</time></trkpt><trkpt lat="44.481815" lon="8.5625871"><ele>751.0</ele><time>2026-05-03T10:55:54.397Z</time></trkpt><trkpt lat="44.4817585" lon="8.5627563"><ele>750.0</ele><time>2026-05-03T10:55:55.396Z</time></trkpt><trkpt lat="44.4817333" lon="8.5629337"><ele>749.0</ele><time>2026-05-03T10:55:56.396Z</time></trkpt><trkpt lat="44.4817509" lon="8.5631234"><ele>748.0</ele><time>2026-05-03T10:55:57.396Z</time></trkpt><trkpt lat="44.481812" lon="8.5633176"><ele>747.0</ele><time>2026-05-03T10:55:58.396Z</time></trkpt><trkpt lat="44.4819044" lon="8.5635018"><ele>747.0</ele><time>2026-05-03T10:55:59.396Z</time></trkpt><trkpt lat="44.4820102" lon="8.5636883"><ele>747.0</ele><time>2026-05-03T10:56:00.396Z</time></trkpt><trkpt lat="44.4821109" lon="8.5638608"><ele>747.0</ele><time>2026-05-03T10:56:01.396Z</time></trkpt><trkpt lat="44.4822069" lon="8.5640189"><ele>745.75</ele><time>2026-05-03T10:56:02.397Z</time></trkpt><trkpt lat="44.4822969" lon="8.5641695"><ele>744.5</ele><time>2026-05-03T10:56:03.396Z</time></trkpt><trkpt lat="44.4823919" lon="8.5643051"><ele>743.25</ele><time>2026-05-03T10:56:04.397Z</time></trkpt><trkpt lat="44.4824932" lon="8.564408"><ele>742.0</ele><time>2026-05-03T10:56:05.396Z</time></trkpt><trkpt lat="44.4825983" lon="8.5644759"><ele>742.0</ele><time>2026-05-03T10:56:06.397Z</time></trkpt><trkpt lat="44.4827085" lon="8.5645181"><ele>742.0</ele><time>2026-05-03T10:56:07.39Z</time></trkpt><trkpt lat="44.4828205" lon="8.5645399"><ele>742.0</ele><time>2026-05-03T10:56:08.396Z</time></trkpt><trkpt lat="44.4829315" lon="8.5645733"><ele>742.0</ele><time>2026-05-03T10:56:09.396Z</time></trkpt><trkpt lat="44.4830407" lon="8.5646085"><ele>742.5</ele><time>2026-05-03T10:56:10.396Z</time></trkpt><trkpt lat="44.4831426" lon="8.5646454"><ele>743.0</ele><time>2026-05-03T10:56:11.397Z</time></trkpt><trkpt lat="44.4832357" lon="8.5646932"><ele>743.5</ele><time>2026-05-03T10:56:12.396Z</time></trkpt><trkpt lat="44.4833097" lon="8.5647488"><ele>744.0</ele><time>2026-05-03T10:56:13.396Z</time></trkpt><trkpt lat="44.4833697" lon="8.5648173"><ele>744.5</ele><time>2026-05-03T10:56:14.397Z</time></trkpt><trkpt lat="44.4833969" lon="8.564901"><ele>745.0</ele><time>2026-05-03T10:56:15.396Z</time></trkpt><trkpt lat="44.4834045" lon="8.565045"><ele>745.0</ele><time>2026-05-03T10:56:17.396Z</time></trkpt><trkpt lat="44.4834029" lon="8.5651469"><ele>745.0</ele><time>2026-05-03T10:56:20.396Z</time></trkpt><trkpt lat="44.4833614" lon="8.5653123"><ele>745.0</ele><time>2026-05-03T10:56:23.396Z</time></trkpt><trkpt lat="44.4833429" lon="8.5654145"><ele>745.0</ele><time>2026-05-03T10:56:24.397Z</time></trkpt><trkpt lat="44.4833306" lon="8.5655241"><ele>745.0</ele><time>2026-05-03T10:56:25.396Z</time></trkpt><trkpt lat="44.4833184" lon="8.5656351"><ele>745.0</ele><time>2026-05-03T10:56:26.396Z</time></trkpt><trkpt lat="44.4833104" lon="8.5657591"><ele>746.4</ele><time>2026-05-03T10:56:27.396Z</time></trkpt><trkpt lat="44.4833046" lon="8.565894"><ele>747.8</ele><time>2026-05-03T10:56:28.396Z</time></trkpt><trkpt lat="44.4832997" lon="8.566037"><ele>749.2</ele><time>2026-05-03T10:56:29.396Z</time></trkpt><trkpt lat="44.4832997" lon="8.5661768"><ele>750.6</ele><time>2026-05-03T10:56:30.396Z</time></trkpt><trkpt lat="44.4832939" lon="8.566317"><ele>752.0</ele><time>2026-05-03T10:56:31.396Z</time></trkpt><trkpt lat="44.4832752" lon="8.5664558"><ele>752.4000000000001</ele><time>2026-05-03T10:56:32.396Z</time></trkpt><trkpt lat="44.4832405" lon="8.5665995"><ele>752.8000000000001</ele><time>2026-05-03T10:56:33.396Z</time></trkpt><trkpt lat="44.4831842" lon="8.5667322"><ele>753.2</ele><time>2026-05-03T10:56:34.396Z</time></trkpt><trkpt lat="44.4831108" lon="8.5668438"><ele>753.6</ele><time>2026-05-03T10:56:35.397Z</time></trkpt><trkpt lat="44.4830295" lon="8.5669549"><ele>754.0</ele><time>2026-05-03T10:56:36.397Z</time></trkpt><trkpt lat="44.4829396" lon="8.5670493"><ele>756.0</ele><time>2026-05-03T10:56:37.396Z</time></trkpt><trkpt lat="44.4828494" lon="8.5671366"><ele>758.0</ele><time>2026-05-03T10:56:38.396Z</time></trkpt><trkpt lat="44.4827478" lon="8.5672028"><ele>760.0</ele><time>2026-05-03T10:56:39.397Z</time></trkpt><trkpt lat="44.4826367" lon="8.5672403"><ele>762.0</ele><time>2026-05-03T10:56:40.396Z</time></trkpt><trkpt lat="44.4825191" lon="8.5672579"><ele>762.0</ele><time>2026-05-03T10:56:41.397Z</time></trkpt><trkpt lat="44.4823966" lon="8.5672608"><ele>762.0</ele><time>2026-05-03T10:56:42.396Z</time></trkpt><trkpt lat="44.4822825" lon="8.5672889"><ele>762.0</ele><time>2026-05-03T10:56:43.396Z</time></trkpt><trkpt lat="44.4821771" lon="8.5673461"><ele>762.0</ele><time>2026-05-03T10:56:44.396Z</time></trkpt><trkpt lat="44.4820883" lon="8.56744"><ele>765.25</ele><time>2026-05-03T10:56:45.396Z</time></trkpt><trkpt lat="44.4820197" lon="8.5675711"><ele>768.5</ele><time>2026-05-03T10:56:46.397Z</time></trkpt><trkpt lat="44.4819754" lon="8.5677191"><ele>771.75</ele><time>2026-05-03T10:56:47.396Z</time></trkpt><trkpt lat="44.4819517" lon="8.5678921"><ele>775.0</ele><time>2026-05-03T10:56:48.397Z</time></trkpt><trkpt lat="44.4819407" lon="8.5680727"><ele>776.25</ele><time>2026-05-03T10:56:49.396Z</time></trkpt><trkpt lat="44.4819332" lon="8.5682526"><ele>777.5</ele><time>2026-05-03T10:56:50.396Z</time></trkpt><trkpt lat="44.48193" lon="8.5684377"><ele>778.75</ele><time>2026-05-03T10:56:51.397Z</time></trkpt><trkpt lat="44.4819247" lon="8.5686206"><ele>780.0</ele><time>2026-05-03T10:56:52.397Z</time></trkpt><trkpt lat="44.4819178" lon="8.568803"><ele>781.75</ele><time>2026-05-03T10:56:53.396Z</time></trkpt><trkpt lat="44.4819154" lon="8.5689901"><ele>783.5</ele><time>2026-05-03T10:56:54.397Z</time></trkpt><trkpt lat="44.4819043" lon="8.5691782"><ele>785.25</ele><time>2026-05-03T10:56:55.396Z</time></trkpt><trkpt lat="44.4819016" lon="8.5693631"><ele>787.0</ele><time>2026-05-03T10:56:56.396Z</time></trkpt><trkpt lat="44.4819002" lon="8.5695541"><ele>789.25</ele><time>2026-05-03T10:56:57.397Z</time></trkpt><trkpt lat="44.4819101" lon="8.5697432"><ele>791.5</ele><time>2026-05-03T10:56:58.396Z</time></trkpt><trkpt lat="44.4819282" lon="8.5699293"><ele>793.75</ele><time>2026-05-03T10:56:59.396Z</time></trkpt><trkpt lat="44.4819437" lon="8.5701118"><ele>796.0</ele><time>2026-05-03T10:57:00.397Z</time></trkpt><trkpt lat="44.4819492" lon="8.5702969"><ele>796.25</ele><time>2026-05-03T10:57:01.396Z</time></trkpt><trkpt lat="44.4819299" lon="8.5704799"><ele>796.5</ele><time>2026-05-03T10:57:02.397Z</time></trkpt><trkpt lat="44.4818903" lon="8.5706502"><ele>796.75</ele><time>2026-05-03T10:57:03.396Z</time></trkpt><trkpt lat="44.4818288" lon="8.5708099"><ele>797.0</ele><time>2026-05-03T10:57:04.396Z</time></trkpt><trkpt lat="44.481742" lon="8.5709453"><ele>797.0</ele><time>2026-05-03T10:57:05.397Z</time></trkpt><trkpt lat="44.4816629" lon="8.571077"><ele>797.0</ele><time>2026-05-03T10:57:06.397Z</time></trkpt><trkpt lat="44.4816252" lon="8.5712208"><ele>797.0</ele><time>2026-05-03T10:57:07.396Z</time></trkpt><trkpt lat="44.4816264" lon="8.571368"><ele>797.0</ele><time>2026-05-03T10:57:08.396Z</time></trkpt><trkpt lat="44.4816704" lon="8.5715104"><ele>797.0</ele><time>2026-05-03T10:57:09.397Z</time></trkpt><trkpt lat="44.4817243" lon="8.571648"><ele>797.75</ele><time>2026-05-03T10:57:10.396Z</time></trkpt><trkpt lat="44.4817524" lon="8.571805"><ele>798.5</ele><time>2026-05-03T10:57:11.396Z</time></trkpt><trkpt lat="44.4817474" lon="8.5719806"><ele>799.25</ele><time>2026-05-03T10:57:12.396Z</time></trkpt><trkpt lat="44.4817178" lon="8.5721504"><ele>800.0</ele><time>2026-05-03T10:57:13.396Z</time></trkpt><trkpt lat="44.4816699" lon="8.5722964"><ele>800.0</ele><time>2026-05-03T10:57:14.397Z</time></trkpt><trkpt lat="44.4815913" lon="8.5724086"><ele>800.0</ele><time>2026-05-03T10:57:15.396Z</time></trkpt><trkpt lat="44.4814812" lon="8.5724838"><ele>800.0</ele><time>2026-05-03T10:57:16.396Z</time></trkpt><trkpt lat="44.4813589" lon="8.5725598"><ele>800.0</ele><time>2026-05-03T10:57:17.397Z</time></trkpt><trkpt lat="44.48123" lon="8.5726342"><ele>802.0</ele><time>2026-05-03T10:57:18.396Z</time></trkpt><trkpt lat="44.4810958" lon="8.5727029"><ele>804.0</ele><time>2026-05-03T10:57:19.396Z</time></trkpt><trkpt lat="44.4809607" lon="8.5727709"><ele>806.0</ele><time>2026-05-03T10:57:20.396Z</time></trkpt><trkpt lat="44.4808246" lon="8.5728234"><ele>808.0</ele><time>2026-05-03T10:57:21.396Z</time></trkpt><trkpt lat="44.4806928" lon="8.5728686"><ele>808.0</ele><time>2026-05-03T10:57:22.396Z</time></trkpt><trkpt lat="44.4805813" lon="8.5729488"><ele>808.0</ele><time>2026-05-03T10:57:23.396Z</time></trkpt><trkpt lat="44.480475" lon="8.5730643"><ele>808.0</ele><time>2026-05-03T10:57:24.396Z</time></trkpt><trkpt lat="44.4804117" lon="8.573239"><ele>808.0</ele><time>2026-05-03T10:57:25.397Z</time></trkpt><trkpt lat="44.4803552" lon="8.5734281"><ele>814.0</ele><time>2026-05-03T10:57:26.396Z</time></trkpt><trkpt lat="44.4803074" lon="8.5736234"><ele>820.0</ele><time>2026-05-03T10:57:27.396Z</time></trkpt><trkpt lat="44.4802507" lon="8.5738114"><ele>826.0</ele><time>2026-05-03T10:57:28.397Z</time></trkpt><trkpt lat="44.4801827" lon="8.5739952"><ele>832.0</ele><time>2026-05-03T10:57:29.396Z</time></trkpt><trkpt lat="44.4801213" lon="8.5741828"><ele>832.0</ele><time>2026-05-03T10:57:30.397Z</time></trkpt><trkpt lat="44.4800835" lon="8.5743751"><ele>832.0</ele><time>2026-05-03T10:57:31.396Z</time></trkpt><trkpt lat="44.4800689" lon="8.5745716"><ele>832.0</ele><time>2026-05-03T10:57:32.396Z</time></trkpt><trkpt lat="44.4800668" lon="8.5747486"><ele>832.0</ele><time>2026-05-03T10:57:33.396Z</time></trkpt><trkpt lat="44.4800683" lon="8.5749007"><ele>830.8</ele><time>2026-05-03T10:57:34.397Z</time></trkpt><trkpt lat="44.4800507" lon="8.5750281"><ele>829.6</ele><time>2026-05-03T10:57:35.396Z</time></trkpt><trkpt lat="44.4799957" lon="8.5751323"><ele>828.4</ele><time>2026-05-03T10:57:36.396Z</time></trkpt><trkpt lat="44.4799123" lon="8.5752"><ele>827.1999999999999</ele><time>2026-05-03T10:57:37.396Z</time></trkpt><trkpt lat="44.4798055" lon="8.575232"><ele>826.0</ele><time>2026-05-03T10:57:38.396Z</time></trkpt><trkpt lat="44.4796719" lon="8.5752496"><ele>825.0</ele><time>2026-05-03T10:57:39.396Z</time></trkpt><trkpt lat="44.4795357" lon="8.5752727"><ele>824.0</ele><time>2026-05-03T10:57:40.396Z</time></trkpt><trkpt lat="44.4794007" lon="8.5753038"><ele>823.0</ele><time>2026-05-03T10:57:41.396Z</time></trkpt><trkpt lat="44.4792569" lon="8.575341"><ele>822.0</ele><time>2026-05-03T10:57:42.396Z</time></trkpt><trkpt lat="44.4791097" lon="8.5753803"><ele>822.0</ele><time>2026-05-03T10:57:43.396Z</time></trkpt><trkpt lat="44.4789681" lon="8.57542"><ele>822.0</ele><time>2026-05-03T10:57:44.396Z</time></trkpt><trkpt lat="44.478834" lon="8.5754511"><ele>822.0</ele><time>2026-05-03T10:57:45.397Z</time></trkpt><trkpt lat="44.4787089" lon="8.5754791"><ele>822.0</ele><time>2026-05-03T10:57:46.396Z</time></trkpt><trkpt lat="44.4786002" lon="8.5754802"><ele>821.8</ele><time>2026-05-03T10:57:47.396Z</time></trkpt><trkpt lat="44.4785095" lon="8.575438"><ele>821.6</ele><time>2026-05-03T10:57:48.396Z</time></trkpt><trkpt lat="44.4784536" lon="8.5753507"><ele>821.4</ele><time>2026-05-03T10:57:49.396Z</time></trkpt><trkpt lat="44.4784278" lon="8.5752231"><ele>821.1999999999999</ele><time>2026-05-03T10:57:50.396Z</time></trkpt><trkpt lat="44.478402" lon="8.57507"><ele>821.0</ele><time>2026-05-03T10:57:51.397Z</time></trkpt><trkpt lat="44.4783541" lon="8.5748983"><ele>825.25</ele><time>2026-05-03T10:57:52.396Z</time></trkpt><trkpt lat="44.478295" lon="8.5747374"><ele>829.5</ele><time>2026-05-03T10:57:53.396Z</time></trkpt><trkpt lat="44.4782343" lon="8.5745763"><ele>833.75</ele><time>2026-05-03T10:57:54.397Z</time></trkpt><trkpt lat="44.4781754" lon="8.5744011"><ele>838.0</ele><time>2026-05-03T10:57:55.397Z</time></trkpt><trkpt lat="44.4781158" lon="8.5742264"><ele>839.25</ele><time>2026-05-03T10:57:56.396Z</time></trkpt><trkpt lat="44.4780503" lon="8.5740441"><ele>840.5</ele><time>2026-05-03T10:57:57.396Z</time></trkpt><trkpt lat="44.4779772" lon="8.573864"><ele>841.75</ele><time>2026-05-03T10:57:58.396Z</time></trkpt><trkpt lat="44.4779024" lon="8.5736799"><ele>843.0</ele><time>2026-05-03T10:57:59.396Z</time></trkpt><trkpt lat="44.4778261" lon="8.57349"><ele>843.0</ele><time>2026-05-03T10:58:00.397Z</time></trkpt><trkpt lat="44.4777447" lon="8.5733014"><ele>843.0</ele><time>2026-05-03T10:58:01.396Z</time></trkpt><trkpt lat="44.4776636" lon="8.5731103"><ele>843.0</ele><time>2026-05-03T10:58:02.396Z</time></trkpt><trkpt lat="44.4775795" lon="8.5729214"><ele>848.6666666666667</ele><time>2026-05-03T10:58:03.396Z</time></trkpt><trkpt lat="44.4774949" lon="8.5727365"><ele>854.3333333333334</ele><time>2026-05-03T10:58:04.397Z</time></trkpt><trkpt lat="44.4773987" lon="8.5725655"><ele>860.0</ele><time>2026-05-03T10:58:05.397Z</time></trkpt><trkpt lat="44.4773014" lon="8.5724045"><ele>860.0</ele><time>2026-05-03T10:58:06.397Z</time></trkpt><trkpt lat="44.4772083" lon="8.5722422"><ele>860.0</ele><time>2026-05-03T10:58:07.396Z</time></trkpt><trkpt lat="44.4771191" lon="8.5720772"><ele>860.0</ele><time>2026-05-03T10:58:08.396Z</time></trkpt><trkpt lat="44.4770281" lon="8.5719104"><ele>860.0</ele><time>2026-05-03T10:58:09.396Z</time></trkpt><trkpt lat="44.4769461" lon="8.5717354"><ele>857.3333333333334</ele><time>2026-05-03T10:58:10.396Z</time></trkpt><trkpt lat="44.4768717" lon="8.5715525"><ele>854.6666666666667</ele><time>2026-05-03T10:58:11.396Z</time></trkpt><trkpt lat="44.4767907" lon="8.5713609"><ele>852.0</ele><time>2026-05-03T10:58:12.397Z</time></trkpt><trkpt lat="44.4767003" lon="8.5711857"><ele>860.0</ele><time>2026-05-03T10:58:13.396Z</time></trkpt><trkpt lat="44.4766083" lon="8.5710068"><ele>868.0</ele><time>2026-05-03T10:58:14.396Z</time></trkpt><trkpt lat="44.4765308" lon="8.5708249"><ele>876.0</ele><time>2026-05-03T10:58:15.396Z</time></trkpt><trkpt lat="44.4764587" lon="8.5706383"><ele>876.0</ele><time>2026-05-03T10:58:16.396Z</time></trkpt><trkpt lat="44.4763928" lon="8.5704443"><ele>876.0</ele><time>2026-05-03T10:58:17.396Z</time></trkpt><trkpt lat="44.4763375" lon="8.5702434"><ele>876.0</ele><time>2026-05-03T10:58:18.396Z</time></trkpt><trkpt lat="44.4763" lon="8.5700314"><ele>881.0</ele><time>2026-05-03T10:58:19.396Z</time></trkpt><trkpt lat="44.4762789" lon="8.569813"><ele>886.0</ele><time>2026-05-03T10:58:20.397Z</time></trkpt><trkpt lat="44.4762737" lon="8.5695917"><ele>891.0</ele><time>2026-05-03T10:58:21.397Z</time></trkpt><trkpt lat="44.476288" lon="8.5693772"><ele>892.0</ele><time>2026-05-03T10:58:22.396Z</time></trkpt><trkpt lat="44.4763276" lon="8.5691646"><ele>893.0</ele><time>2026-05-03T10:58:23.396Z</time></trkpt><trkpt lat="44.4763531" lon="8.5689604"><ele>894.0</ele><time>2026-05-03T10:58:24.396Z</time></trkpt><trkpt lat="44.4763461" lon="8.5687614"><ele>895.0</ele><time>2026-05-03T10:58:25.397Z</time></trkpt><trkpt lat="44.4763267" lon="8.5685737"><ele>895.5</ele><time>2026-05-03T10:58:26.396Z</time></trkpt><trkpt lat="44.4763106" lon="8.5684009"><ele>896.0</ele><time>2026-05-03T10:58:27.396Z</time></trkpt><trkpt lat="44.4763179" lon="8.5682408"><ele>896.5</ele><time>2026-05-03T10:58:28.396Z</time></trkpt><trkpt lat="44.4763589" lon="8.5681033"><ele>897.0</ele><time>2026-05-03T10:58:29.397Z</time></trkpt><trkpt lat="44.4764337" lon="8.5679943"><ele>897.0</ele><time>2026-05-03T10:58:30.397Z</time></trkpt><trkpt lat="44.4765272" lon="8.567892"><ele>897.0</ele><time>2026-05-03T10:58:31.396Z</time></trkpt><trkpt lat="44.4766154" lon="8.5677596"><ele>897.0</ele><time>2026-05-03T10:58:32.397Z</time></trkpt><trkpt lat="44.47668" lon="8.5675836"><ele>897.0</ele><time>2026-05-03T10:58:33.396Z</time></trkpt><trkpt lat="44.4767223" lon="8.5673897"><ele>895.6666666666667</ele><time>2026-05-03T10:58:34.396Z</time></trkpt><trkpt lat="44.4767609" lon="8.5671896"><ele>894.3333333333334</ele><time>2026-05-03T10:58:35.396Z</time></trkpt><trkpt lat="44.4767812" lon="8.5669776"><ele>893.0</ele><time>2026-05-03T10:58:36.396Z</time></trkpt><trkpt lat="44.476778" lon="8.5667533"><ele>893.3333333333334</ele><time>2026-05-03T10:58:37.397Z</time></trkpt><trkpt lat="44.4767633" lon="8.5665265"><ele>893.6666666666667</ele><time>2026-05-03T10:58:38.396Z</time></trkpt><trkpt lat="44.4767671" lon="8.5662979"><ele>894.0</ele><time>2026-05-03T10:58:39.396Z</time></trkpt><trkpt lat="44.4767812" lon="8.5660597"><ele>894.0</ele><time>2026-05-03T10:58:40.396Z</time></trkpt><trkpt lat="44.4767848" lon="8.5658225"><ele>894.0</ele><time>2026-05-03T10:58:41.396Z</time></trkpt><trkpt lat="44.4767656" lon="8.565585"><ele>894.0</ele><time>2026-05-03T10:58:42.396Z</time></trkpt><trkpt lat="44.4767231" lon="8.5653636"><ele>896.3333333333333</ele><time>2026-05-03T10:58:43.396Z</time></trkpt><trkpt lat="44.4766576" lon="8.5651601"><ele>898.6666666666666</ele><time>2026-05-03T10:58:44.397Z</time></trkpt><trkpt lat="44.4765825" lon="8.5649769"><ele>901.0</ele><time>2026-05-03T10:58:45.396Z</time></trkpt><trkpt lat="44.476511" lon="8.5647946"><ele>901.0</ele><time>2026-05-03T10:58:46.396Z</time></trkpt><trkpt lat="44.4764572" lon="8.564616"><ele>901.0</ele><time>2026-05-03T10:58:47.396Z</time></trkpt><trkpt lat="44.4764231" lon="8.5644243"><ele>901.0</ele><time>2026-05-03T10:58:48.396Z</time></trkpt><trkpt lat="44.4764044" lon="8.5642128"><ele>901.0</ele><time>2026-05-03T10:58:49.396Z</time></trkpt><trkpt lat="44.4763818" lon="8.5640018"><ele>900.6666666666666</ele><time>2026-05-03T10:58:50.396Z</time></trkpt><trkpt lat="44.4763443" lon="8.5637896"><ele>900.3333333333333</ele><time>2026-05-03T10:58:51.396Z</time></trkpt><trkpt lat="44.4762891" lon="8.5635928"><ele>900.0</ele><time>2026-05-03T10:58:52.396Z</time></trkpt><trkpt lat="44.4762167" lon="8.5634032"><ele>900.0</ele><time>2026-05-03T10:58:53.397Z</time></trkpt><trkpt lat="44.4761331" lon="8.5632171"><ele>900.0</ele><time>2026-05-03T10:58:54.396Z</time></trkpt><trkpt lat="44.4760287" lon="8.5630487"><ele>900.0</ele><time>2026-05-03T10:58:55.397Z</time></trkpt><trkpt lat="44.4759213" lon="8.5628921"><ele>900.25</ele><time>2026-05-03T10:58:56.396Z</time></trkpt><trkpt lat="44.4758182" lon="8.5627293"><ele>900.5</ele><time>2026-05-03T10:58:57.396Z</time></trkpt><trkpt lat="44.4757206" lon="8.562577"><ele>900.75</ele><time>2026-05-03T10:58:58.396Z</time></trkpt><trkpt lat="44.4756126" lon="8.5624382"><ele>901.0</ele><time>2026-05-03T10:58:59.397Z</time></trkpt><trkpt lat="44.4754764" lon="8.5623493"><ele>905.25</ele><time>2026-05-03T10:59:00.396Z</time></trkpt><trkpt lat="44.4753379" lon="8.5622797"><ele>909.5</ele><time>2026-05-03T10:59:01.397Z</time></trkpt><trkpt lat="44.4752091" lon="8.5622082"><ele>913.75</ele><time>2026-05-03T10:59:02.397Z</time></trkpt><trkpt lat="44.4750943" lon="8.5620997"><ele>918.0</ele><time>2026-05-03T10:59:03.396Z</time></trkpt><trkpt lat="44.4749977" lon="8.5619569"><ele>918.25</ele><time>2026-05-03T10:59:04.396Z</time></trkpt><trkpt lat="44.474925" lon="8.5617852"><ele>918.5</ele><time>2026-05-03T10:59:05.396Z</time></trkpt><trkpt lat="44.4748642" lon="8.5616085"><ele>918.75</ele><time>2026-05-03T10:59:06.396Z</time></trkpt><trkpt lat="44.474793" lon="8.56144"><ele>919.0</ele><time>2026-05-03T10:59:07.396Z</time></trkpt><trkpt lat="44.474719" lon="8.5612702"><ele>917.3333333333333</ele><time>2026-05-03T10:59:08.397Z</time></trkpt><trkpt lat="44.4746396" lon="8.5611171"><ele>915.6666666666667</ele><time>2026-05-03T10:59:09.396Z</time></trkpt><trkpt lat="44.4744396" lon="8.5610589"><ele>914.0</ele><time>2026-05-03T10:59:10.397Z</time></trkpt><trkpt lat="44.4743201" lon="8.560922"><ele>918.6666666666667</ele><time>2026-05-03T10:59:11.396Z</time></trkpt><trkpt lat="44.4741881" lon="8.5607905"><ele>923.3333333333333</ele><time>2026-05-03T10:59:12.396Z</time></trkpt><trkpt lat="44.4740537" lon="8.5606469"><ele>928.0</ele><time>2026-05-03T10:59:13.396Z</time></trkpt><trkpt lat="44.4739198" lon="8.5605225"><ele>928.0</ele><time>2026-05-03T10:59:14.397Z</time></trkpt><trkpt lat="44.4737886" lon="8.5604386"><ele>928.0</ele><time>2026-05-03T10:59:15.396Z</time></trkpt><trkpt lat="44.4736583" lon="8.5604061"><ele>928.0</ele><time>2026-05-03T10:59:16.396Z</time></trkpt><trkpt lat="44.473529" lon="8.5604204"><ele>928.0</ele><time>2026-05-03T10:59:17.396Z</time></trkpt><trkpt lat="44.4733951" lon="8.5604726"><ele>931.25</ele><time>2026-05-03T10:59:18.396Z</time></trkpt><trkpt lat="44.473269" lon="8.560571"><ele>934.5</ele><time>2026-05-03T10:59:19.396Z</time></trkpt><trkpt lat="44.4731562" lon="8.5606946"><ele>937.75</ele><time>2026-05-03T10:59:20.396Z</time></trkpt><trkpt lat="44.4730434" lon="8.5608137"><ele>941.0</ele><time>2026-05-03T10:59:21.397Z</time></trkpt><trkpt lat="44.4729387" lon="8.5609135"><ele>941.25</ele><time>2026-05-03T10:59:22.396Z</time></trkpt><trkpt lat="44.472827" lon="8.5609512"><ele>941.5</ele><time>2026-05-03T10:59:23.397Z</time></trkpt><trkpt lat="44.4727037" lon="8.5609478"><ele>941.75</ele><time>2026-05-03T10:59:24.396Z</time></trkpt><trkpt lat="44.4725767" lon="8.5609535"><ele>942.0</ele><time>2026-05-03T10:59:25.397Z</time></trkpt><trkpt lat="44.4724445" lon="8.5609877"><ele>942.0</ele><time>2026-05-03T10:59:26.396Z</time></trkpt><trkpt lat="44.4723111" lon="8.5610714"><ele>942.0</ele><time>2026-05-03T10:59:27.396Z</time></trkpt><trkpt lat="44.4721801" lon="8.5611544"><ele>942.0</ele><time>2026-05-03T10:59:28.397Z</time></trkpt><trkpt lat="44.4720561" lon="8.5612385"><ele>942.0</ele><time>2026-05-03T10:59:29.396Z</time></trkpt><trkpt lat="44.4719188" lon="8.5612656"><ele>945.0</ele><time>2026-05-03T10:59:30.396Z</time></trkpt><trkpt lat="44.4717775" lon="8.561265"><ele>948.0</ele><time>2026-05-03T10:59:31.396Z</time></trkpt><trkpt lat="44.4716238" lon="8.5612541"><ele>951.0</ele><time>2026-05-03T10:59:32.396Z</time></trkpt><trkpt lat="44.4714641" lon="8.5612552"><ele>951.0</ele><time>2026-05-03T10:59:33.396Z</time></trkpt><trkpt lat="44.4713037" lon="8.5612583"><ele>951.0</ele><time>2026-05-03T10:59:34.396Z</time></trkpt><trkpt lat="44.4711531" lon="8.5612817"><ele>951.0</ele><time>2026-05-03T10:59:35.397Z</time></trkpt><trkpt lat="44.4710123" lon="8.5613173"><ele>951.5</ele><time>2026-05-03T10:59:36.396Z</time></trkpt><trkpt lat="44.4708878" lon="8.5613292"><ele>952.0</ele><time>2026-05-03T10:59:37.396Z</time></trkpt><trkpt lat="44.4707702" lon="8.5612974"><ele>952.5</ele><time>2026-05-03T10:59:38.396Z</time></trkpt><trkpt lat="44.4706572" lon="8.561223"><ele>953.0</ele><time>2026-05-03T10:59:39.396Z</time></trkpt><trkpt lat="44.4705404" lon="8.5611148"><ele>958.0</ele><time>2026-05-03T10:59:40.396Z</time></trkpt><trkpt lat="44.4704203" lon="8.5609892"><ele>963.0</ele><time>2026-05-03T10:59:41.396Z</time></trkpt><trkpt lat="44.4703015" lon="8.5608516"><ele>968.0</ele><time>2026-05-03T10:59:42.396Z</time></trkpt><trkpt lat="44.4701818" lon="8.5607163"><ele>968.0</ele><time>2026-05-03T10:59:43.396Z</time></trkpt><trkpt lat="44.4699803" lon="8.5605506"><ele>968.0</ele><time>2026-05-03T10:59:45.574Z</time></trkpt><trkpt lat="44.4696159" lon="8.5603107"><ele>969.3333333333334</ele><time>2026-05-03T10:59:48.349Z</time></trkpt><trkpt lat="44.4694121" lon="8.5601761"><ele>970.6666666666667</ele><time>2026-05-03T10:59:49.386Z</time></trkpt><trkpt lat="44.4692888" lon="8.5600791"><ele>972.0</ele><time>2026-05-03T10:59:50.393Z</time></trkpt><trkpt lat="44.4691665" lon="8.5599502"><ele>972.0</ele><time>2026-05-03T10:59:51.391Z</time></trkpt><trkpt lat="44.4690277" lon="8.5598204"><ele>972.0</ele><time>2026-05-03T10:59:52.389Z</time></trkpt><trkpt lat="44.4689375" lon="8.5596711"><ele>972.0</ele><time>2026-05-03T10:59:53.387Z</time></trkpt><trkpt lat="44.4688356" lon="8.5595132"><ele>970.0</ele><time>2026-05-03T10:59:54.387Z</time></trkpt><trkpt lat="44.4687385" lon="8.559348"><ele>968.0</ele><time>2026-05-03T10:59:55.387Z</time></trkpt><trkpt lat="44.4686433" lon="8.5591662"><ele>966.0</ele><time>2026-05-03T10:59:56.387Z</time></trkpt><trkpt lat="44.4685527" lon="8.5589803"><ele>966.0</ele><time>2026-05-03T10:59:57.387Z</time></trkpt><trkpt lat="44.4684601" lon="8.5587884"><ele>966.0</ele><time>2026-05-03T10:59:58.388Z</time></trkpt><trkpt lat="44.4683675" lon="8.558593"><ele>966.0</ele><time>2026-05-03T10:59:59.387Z</time></trkpt><trkpt lat="44.4682803" lon="8.5583941"><ele>966.0</ele><time>2026-05-03T11:00:00.387Z</time></trkpt><trkpt lat="44.4681949" lon="8.5581939"><ele>966.0</ele><time>2026-05-03T11:00:01.387Z</time></trkpt><trkpt lat="44.4681063" lon="8.557988"><ele>966.0</ele><time>2026-05-03T11:00:02.387Z</time></trkpt><trkpt lat="44.4680172" lon="8.5577876"><ele>968.6666666666667</ele><time>2026-05-03T11:00:03.387Z</time></trkpt><trkpt lat="44.4679281" lon="8.5575963"><ele>971.3333333333334</ele><time>2026-05-03T11:00:04.387Z</time></trkpt><trkpt lat="44.467838" lon="8.5573969"><ele>974.0</ele><time>2026-05-03T11:00:05.387Z</time></trkpt><trkpt lat="44.467748" lon="8.5572071"><ele>973.0</ele><time>2026-05-03T11:00:06.387Z</time></trkpt><trkpt lat="44.4676559" lon="8.5570203"><ele>972.0</ele><time>2026-05-03T11:00:07.387Z</time></trkpt><trkpt lat="44.4675666" lon="8.5568336"><ele>971.0</ele><time>2026-05-03T11:00:08.387Z</time></trkpt><trkpt lat="44.4674752" lon="8.5566545"><ele>971.0</ele><time>2026-05-03T11:00:09.387Z</time></trkpt><trkpt lat="44.4673791" lon="8.5564724"><ele>971.0</ele><time>2026-05-03T11:00:10.388Z</time></trkpt><trkpt lat="44.4672869" lon="8.5562926"><ele>971.0</ele><time>2026-05-03T11:00:11.387Z</time></trkpt><trkpt lat="44.4671893" lon="8.5561225"><ele>971.3333333333334</ele><time>2026-05-03T11:00:12.387Z</time></trkpt><trkpt lat="44.4670888" lon="8.5559678"><ele>971.6666666666667</ele><time>2026-05-03T11:00:13.388Z</time></trkpt><trkpt lat="44.466974" lon="8.5558178"><ele>972.0</ele><time>2026-05-03T11:00:14.387Z</time></trkpt><trkpt lat="44.4668601" lon="8.5556638"><ele>972.0</ele><time>2026-05-03T11:00:15.388Z</time></trkpt><trkpt lat="44.4667567" lon="8.5554846"><ele>972.0</ele><time>2026-05-03T11:00:16.387Z</time></trkpt><trkpt lat="44.4666622" lon="8.5552937"><ele>972.0</ele><time>2026-05-03T11:00:17.388Z</time></trkpt><trkpt lat="44.4665777" lon="8.555093"><ele>970.3333333333333</ele><time>2026-05-03T11:00:18.388Z</time></trkpt><trkpt lat="44.4665036" lon="8.5548835"><ele>968.6666666666666</ele><time>2026-05-03T11:00:19.387Z</time></trkpt><trkpt lat="44.4664376" lon="8.5546733"><ele>967.0</ele><time>2026-05-03T11:00:20.387Z</time></trkpt><trkpt lat="44.4663689" lon="8.5544657"><ele>968.0</ele><time>2026-05-03T11:00:21.388Z</time></trkpt><trkpt lat="44.466294" lon="8.5542553"><ele>969.0</ele><time>2026-05-03T11:00:22.388Z</time></trkpt><trkpt lat="44.4661969" lon="8.5540564"><ele>970.0</ele><time>2026-05-03T11:00:23.387Z</time></trkpt><trkpt lat="44.466093" lon="8.5538692"><ele>972.6666666666666</ele><time>2026-05-03T11:00:24.388Z</time></trkpt><trkpt lat="44.4659822" lon="8.5536912"><ele>975.3333333333333</ele><time>2026-05-03T11:00:25.387Z</time></trkpt><trkpt lat="44.465867" lon="8.5535383"><ele>978.0</ele><time>2026-05-03T11:00:26.387Z</time></trkpt><trkpt lat="44.4657429" lon="8.5533992"><ele>978.0</ele><time>2026-05-03T11:00:27.388Z</time></trkpt><trkpt lat="44.4656178" lon="8.5532848"><ele>978.0</ele><time>2026-05-03T11:00:28.387Z</time></trkpt><trkpt lat="44.4654931" lon="8.5532183"><ele>978.0</ele><time>2026-05-03T11:00:29.388Z</time></trkpt><trkpt lat="44.4653925" lon="8.5531408"><ele>978.0</ele><time>2026-05-03T11:00:30.388Z</time></trkpt><trkpt lat="44.465317" lon="8.5530245"><ele>977.75</ele><time>2026-05-03T11:00:31.388Z</time></trkpt><trkpt lat="44.4652591" lon="8.5528812"><ele>977.5</ele><time>2026-05-03T11:00:32.387Z</time></trkpt><trkpt lat="44.4652105" lon="8.5527029"><ele>977.25</ele><time>2026-05-03T11:00:33.387Z</time></trkpt><trkpt lat="44.4651604" lon="8.5525146"><ele>977.0</ele><time>2026-05-03T11:00:34.387Z</time></trkpt><trkpt lat="44.4651069" lon="8.5523176"><ele>977.0</ele><time>2026-05-03T11:00:35.388Z</time></trkpt><trkpt lat="44.4650508" lon="8.5521227"><ele>977.0</ele><time>2026-05-03T11:00:36.387Z</time></trkpt><trkpt lat="44.4649861" lon="8.5519387"><ele>977.0</ele><time>2026-05-03T11:00:37.388Z</time></trkpt><trkpt lat="44.4649165" lon="8.5517611"><ele>977.0</ele><time>2026-05-03T11:00:38.387Z</time></trkpt><trkpt lat="44.4648474" lon="8.5515901"><ele>978.0</ele><time>2026-05-03T11:00:39.387Z</time></trkpt><trkpt lat="44.4647524" lon="8.5514422"><ele>979.0</ele><time>2026-05-03T11:00:40.387Z</time></trkpt><trkpt lat="44.464662" lon="8.5512901"><ele>980.0</ele><time>2026-05-03T11:00:41.387Z</time></trkpt><trkpt lat="44.4645665" lon="8.5511408"><ele>981.0</ele><time>2026-05-03T11:00:42.388Z</time></trkpt><trkpt lat="44.4644573" lon="8.5510066"><ele>981.0</ele><time>2026-05-03T11:00:43.387Z</time></trkpt><trkpt lat="44.4643558" lon="8.5508885"><ele>981.0</ele><time>2026-05-03T11:00:44.388Z</time></trkpt><trkpt lat="44.4642599" lon="8.5507848"><ele>981.0</ele><time>2026-05-03T11:00:45.388Z</time></trkpt><trkpt lat="44.4641746" lon="8.5506959"><ele>981.0</ele><time>2026-05-03T11:00:46.387Z</time></trkpt><trkpt lat="44.4640813" lon="8.5506265"><ele>981.0</ele><time>2026-05-03T11:00:47.387Z</time></trkpt><trkpt lat="44.4639793" lon="8.5506069"><ele>980.9999999999999</ele><time>2026-05-03T11:00:48.388Z</time></trkpt><trkpt lat="44.4638833" lon="8.5506417"><ele>980.9999999999999</ele><time>2026-05-03T11:00:49.388Z</time></trkpt><trkpt lat="44.4637824" lon="8.5507153"><ele>981.0</ele><time>2026-05-03T11:00:50.387Z</time></trkpt><trkpt lat="44.463682" lon="8.5508262"><ele>981.0</ele><time>2026-05-03T11:00:51.387Z</time></trkpt><trkpt lat="44.463571" lon="8.550933"><ele>981.0</ele><time>2026-05-03T11:00:52.388Z</time></trkpt><trkpt lat="44.4634527" lon="8.5510285"><ele>981.0</ele><time>2026-05-03T11:00:53.387Z</time></trkpt><trkpt lat="44.4633412" lon="8.5511166"><ele>981.0</ele><time>2026-05-03T11:00:54.387Z</time></trkpt><trkpt lat="44.4632347" lon="8.5511688"><ele>981.0</ele><time>2026-05-03T11:00:55.387Z</time></trkpt><trkpt lat="44.4631251" lon="8.551196"><ele>981.0</ele><time>2026-05-03T11:00:56.388Z</time></trkpt><trkpt lat="44.4630254" lon="8.5511452"><ele>981.0</ele><time>2026-05-03T11:00:57.387Z</time></trkpt><trkpt lat="44.4629436" lon="8.5510442"><ele>981.0</ele><time>2026-05-03T11:00:58.388Z</time></trkpt><trkpt lat="44.4628694" lon="8.5508948"><ele>981.0</ele><time>2026-05-03T11:00:59.388Z</time></trkpt><trkpt lat="44.4627925" lon="8.5507433"><ele>980.0</ele><time>2026-05-03T11:01:00.388Z</time></trkpt><trkpt lat="44.4627151" lon="8.5505894"><ele>979.0</ele><time>2026-05-03T11:01:01.387Z</time></trkpt><trkpt lat="44.4626291" lon="8.5504505"><ele>978.0</ele><time>2026-05-03T11:01:02.387Z</time></trkpt><trkpt lat="44.4625361" lon="8.550341"><ele>977.0</ele><time>2026-05-03T11:01:03.387Z</time></trkpt><trkpt lat="44.4624305" lon="8.5502809"><ele>977.0</ele><time>2026-05-03T11:01:04.387Z</time></trkpt><trkpt lat="44.4623166" lon="8.5502842"><ele>977.0</ele><time>2026-05-03T11:01:05.387Z</time></trkpt><trkpt lat="44.4621982" lon="8.5502997"><ele>977.0</ele><time>2026-05-03T11:01:06.388Z</time></trkpt><trkpt lat="44.4620709" lon="8.550344"><ele>977.0</ele><time>2026-05-03T11:01:07.387Z</time></trkpt><trkpt lat="44.4619313" lon="8.550386"><ele>973.75</ele><time>2026-05-03T11:01:08.387Z</time></trkpt><trkpt lat="44.4617926" lon="8.5504418"><ele>970.5</ele><time>2026-05-03T11:01:09.388Z</time></trkpt><trkpt lat="44.4616602" lon="8.55052"><ele>967.25</ele><time>2026-05-03T11:01:10.387Z</time></trkpt><trkpt lat="44.4615349" lon="8.5506146"><ele>964.0</ele><time>2026-05-03T11:01:11.387Z</time></trkpt><trkpt lat="44.4614104" lon="8.5507164"><ele>964.0</ele><time>2026-05-03T11:01:12.387Z</time></trkpt><trkpt lat="44.4612985" lon="8.5508366"><ele>964.0</ele><time>2026-05-03T11:01:13.388Z</time></trkpt><trkpt lat="44.4611884" lon="8.550951"><ele>964.0</ele><time>2026-05-03T11:01:14.387Z</time></trkpt><trkpt lat="44.4610809" lon="8.5510728"><ele>964.0</ele><time>2026-05-03T11:01:15.387Z</time></trkpt><trkpt lat="44.4609797" lon="8.5511917"><ele>962.5</ele><time>2026-05-03T11:01:16.388Z</time></trkpt><trkpt lat="44.4608836" lon="8.5513038"><ele>961.0</ele><time>2026-05-03T11:01:17.387Z</time></trkpt><trkpt lat="44.4607999" lon="8.551407"><ele>959.5</ele><time>2026-05-03T11:01:18.388Z</time></trkpt><trkpt lat="44.4607148" lon="8.5515062"><ele>958.0</ele><time>2026-05-03T11:01:19.387Z</time></trkpt><trkpt lat="44.4606505" lon="8.5516291"><ele>958.0</ele><time>2026-05-03T11:01:20.387Z</time></trkpt><trkpt lat="44.460602" lon="8.5517574"><ele>958.0</ele><time>2026-05-03T11:01:21.387Z</time></trkpt><trkpt lat="44.4605561" lon="8.5518923"><ele>958.0</ele><time>2026-05-03T11:01:22.388Z</time></trkpt><trkpt lat="44.4605224" lon="8.552063"><ele>958.0</ele><time>2026-05-03T11:01:23.387Z</time></trkpt><trkpt lat="44.4604713" lon="8.5522223"><ele>959.0</ele><time>2026-05-03T11:01:24.387Z</time></trkpt><trkpt lat="44.4604178" lon="8.5523764"><ele>960.0</ele><time>2026-05-03T11:01:25.387Z</time></trkpt><trkpt lat="44.4603594" lon="8.5525298"><ele>961.0</ele><time>2026-05-03T11:01:26.387Z</time></trkpt><trkpt lat="44.4602938" lon="8.5526773"><ele>962.0</ele><time>2026-05-03T11:01:27.387Z</time></trkpt><trkpt lat="44.4602198" lon="8.5528125"><ele>959.75</ele><time>2026-05-03T11:01:28.387Z</time></trkpt><trkpt lat="44.4601712" lon="8.5529684"><ele>957.5</ele><time>2026-05-03T11:01:29.387Z</time></trkpt><trkpt lat="44.4601474" lon="8.5531452"><ele>955.25</ele><time>2026-05-03T11:01:30.388Z</time></trkpt><trkpt lat="44.4601231" lon="8.5533279"><ele>953.0</ele><time>2026-05-03T11:01:31.387Z</time></trkpt><trkpt lat="44.4601067" lon="8.553518"><ele>953.0</ele><time>2026-05-03T11:01:32.387Z</time></trkpt><trkpt lat="44.4600985" lon="8.5537039"><ele>953.0</ele><time>2026-05-03T11:01:33.387Z</time></trkpt><trkpt lat="44.4600777" lon="8.5538747"><ele>953.0</ele><time>2026-05-03T11:01:34.388Z</time></trkpt><trkpt lat="44.4600536" lon="8.5540383"><ele>953.0</ele><time>2026-05-03T11:01:35.388Z</time></trkpt><trkpt lat="44.4599956" lon="8.5541825"><ele>951.75</ele><time>2026-05-03T11:01:36.387Z</time></trkpt><trkpt lat="44.4599296" lon="8.5542964"><ele>950.5</ele><time>2026-05-03T11:01:37.387Z</time></trkpt><trkpt lat="44.4598459" lon="8.5543906"><ele>949.25</ele><time>2026-05-03T11:01:38.387Z</time></trkpt><trkpt lat="44.4597291" lon="8.5544618"><ele>948.0</ele><time>2026-05-03T11:01:39.387Z</time></trkpt><trkpt lat="44.459598" lon="8.5545217"><ele>944.75</ele><time>2026-05-03T11:01:40.388Z</time></trkpt><trkpt lat="44.4594671" lon="8.5545962"><ele>941.5</ele><time>2026-05-03T11:01:41.387Z</time></trkpt><trkpt lat="44.4593419" lon="8.5546757"><ele>938.25</ele><time>2026-05-03T11:01:42.387Z</time></trkpt><trkpt lat="44.4592295" lon="8.5547472"><ele>935.0</ele><time>2026-05-03T11:01:43.387Z</time></trkpt><trkpt lat="44.4591202" lon="8.5548079"><ele>935.0</ele><time>2026-05-03T11:01:44.388Z</time></trkpt><trkpt lat="44.4589964" lon="8.5548403"><ele>935.0</ele><time>2026-05-03T11:01:45.387Z</time></trkpt><trkpt lat="44.4588673" lon="8.554852"><ele>935.0</ele><time>2026-05-03T11:01:46.388Z</time></trkpt><trkpt lat="44.4587396" lon="8.5548478"><ele>935.0</ele><time>2026-05-03T11:01:47.387Z</time></trkpt><trkpt lat="44.4586212" lon="8.5548205"><ele>934.0</ele><time>2026-05-03T11:01:48.387Z</time></trkpt><trkpt lat="44.458516" lon="8.5547954"><ele>933.0</ele><time>2026-05-03T11:01:49.387Z</time></trkpt><trkpt lat="44.4584203" lon="8.5547911"><ele>932.0</ele><time>2026-05-03T11:01:50.387Z</time></trkpt><trkpt lat="44.4583171" lon="8.5548283"><ele>931.0</ele><time>2026-05-03T11:01:51.387Z</time></trkpt><trkpt lat="44.4582056" lon="8.5549088"><ele>930.0</ele><time>2026-05-03T11:01:52.387Z</time></trkpt><trkpt lat="44.4581041" lon="8.5550252"><ele>930.0</ele><time>2026-05-03T11:01:53.387Z</time></trkpt><trkpt lat="44.4579992" lon="8.5551543"><ele>930.0</ele><time>2026-05-03T11:01:54.387Z</time></trkpt><trkpt lat="44.4578861" lon="8.5552748"><ele>930.0</ele><time>2026-05-03T11:01:55.388Z</time></trkpt><trkpt lat="44.4577793" lon="8.5553899"><ele>930.0</ele><time>2026-05-03T11:01:56.388Z</time></trkpt><trkpt lat="44.4576884" lon="8.5555015"><ele>930.5</ele><time>2026-05-03T11:01:57.388Z</time></trkpt><trkpt lat="44.4576228" lon="8.555626"><ele>931.0</ele><time>2026-05-03T11:01:58.387Z</time></trkpt><trkpt lat="44.4575951" lon="8.5557877"><ele>931.5</ele><time>2026-05-03T11:01:59.387Z</time></trkpt><trkpt lat="44.4575955" lon="8.5559645"><ele>932.0</ele><time>2026-05-03T11:02:00.387Z</time></trkpt><trkpt lat="44.4576055" lon="8.5561547"><ele>930.3333333333334</ele><time>2026-05-03T11:02:01.388Z</time></trkpt><trkpt lat="44.4576107" lon="8.5563608"><ele>928.6666666666667</ele><time>2026-05-03T11:02:02.388Z</time></trkpt><trkpt lat="44.4576128" lon="8.5565733"><ele>927.0</ele><time>2026-05-03T11:02:03.387Z</time></trkpt><trkpt lat="44.4576022" lon="8.5567875"><ele>927.0</ele><time>2026-05-03T11:02:04.387Z</time></trkpt><trkpt lat="44.4575812" lon="8.5570026"><ele>927.0</ele><time>2026-05-03T11:02:05.387Z</time></trkpt><trkpt lat="44.4575634" lon="8.5572158"><ele>927.0</ele><time>2026-05-03T11:02:06.387Z</time></trkpt><trkpt lat="44.4575771" lon="8.5574257"><ele>926.6666666666667</ele><time>2026-05-03T11:02:07.387Z</time></trkpt><trkpt lat="44.4575909" lon="8.5576361"><ele>926.3333333333334</ele><time>2026-05-03T11:02:08.387Z</time></trkpt><trkpt lat="44.4576139" lon="8.5578438"><ele>926.0</ele><time>2026-05-03T11:02:09.387Z</time></trkpt><trkpt lat="44.4576347" lon="8.5580507"><ele>926.0</ele><time>2026-05-03T11:02:10.387Z</time></trkpt><trkpt lat="44.4576535" lon="8.5582573"><ele>926.0</ele><time>2026-05-03T11:02:11.387Z</time></trkpt><trkpt lat="44.4576754" lon="8.5584614"><ele>926.0</ele><time>2026-05-03T11:02:12.387Z</time></trkpt><trkpt lat="44.4576936" lon="8.5586602"><ele>926.0</ele><time>2026-05-03T11:02:13.388Z</time></trkpt><trkpt lat="44.4577105" lon="8.5588546"><ele>926.0</ele><time>2026-05-03T11:02:14.388Z</time></trkpt><trkpt lat="44.4577235" lon="8.5590435"><ele>926.0</ele><time>2026-05-03T11:02:15.388Z</time></trkpt><trkpt lat="44.4577212" lon="8.5592267"><ele>926.0</ele><time>2026-05-03T11:02:16.388Z</time></trkpt><trkpt lat="44.4576972" lon="8.5594159"><ele>926.0</ele><time>2026-05-03T11:02:17.387Z</time></trkpt><trkpt lat="44.4576516" lon="8.5596048"><ele>924.3333333333334</ele><time>2026-05-03T11:02:18.387Z</time></trkpt><trkpt lat="44.4576087" lon="8.5598104"><ele>922.6666666666667</ele><time>2026-05-03T11:02:19.387Z</time></trkpt><trkpt lat="44.4575671" lon="8.5600388"><ele>921.0</ele><time>2026-05-03T11:02:20.387Z</time></trkpt><trkpt lat="44.4575249" lon="8.5602448"><ele>916.3333333333333</ele><time>2026-05-03T11:02:21.388Z</time></trkpt><trkpt lat="44.4574635" lon="8.5604639"><ele>911.6666666666666</ele><time>2026-05-03T11:02:22.387Z</time></trkpt><trkpt lat="44.457409" lon="8.5606835"><ele>907.0</ele><time>2026-05-03T11:02:23.388Z</time></trkpt><trkpt lat="44.4573592" lon="8.5608977"><ele>907.0</ele><time>2026-05-03T11:02:24.387Z</time></trkpt><trkpt lat="44.4573162" lon="8.5611223"><ele>907.0</ele><time>2026-05-03T11:02:25.388Z</time></trkpt><trkpt lat="44.4572765" lon="8.5613438"><ele>907.0</ele><time>2026-05-03T11:02:26.387Z</time></trkpt><trkpt lat="44.4572376" lon="8.5615598"><ele>905.25</ele><time>2026-05-03T11:02:27.387Z</time></trkpt><trkpt lat="44.4571998" lon="8.5617624"><ele>903.5</ele><time>2026-05-03T11:02:28.387Z</time></trkpt><trkpt lat="44.4571613" lon="8.5619638"><ele>901.75</ele><time>2026-05-03T11:02:29.388Z</time></trkpt><trkpt lat="44.4571164" lon="8.5621418"><ele>900.0</ele><time>2026-05-03T11:02:30.387Z</time></trkpt><trkpt lat="44.4570708" lon="8.562294"><ele>898.5</ele><time>2026-05-03T11:02:31.387Z</time></trkpt><trkpt lat="44.457054" lon="8.5624669"><ele>897.0</ele><time>2026-05-03T11:02:32.388Z</time></trkpt><trkpt lat="44.4570763" lon="8.5626524"><ele>895.5</ele><time>2026-05-03T11:02:33.387Z</time></trkpt><trkpt lat="44.4571339" lon="8.562831"><ele>894.0</ele><time>2026-05-03T11:02:34.387Z</time></trkpt><trkpt lat="44.457215" lon="8.5629902"><ele>898.0</ele><time>2026-05-03T11:02:35.388Z</time></trkpt><trkpt lat="44.4573167" lon="8.563136"><ele>902.0</ele><time>2026-05-03T11:02:36.388Z</time></trkpt><trkpt lat="44.4574362" lon="8.5632739"><ele>906.0</ele><time>2026-05-03T11:02:37.388Z</time></trkpt><trkpt lat="44.4575556" lon="8.5634015"><ele>906.0</ele><time>2026-05-03T11:02:38.387Z</time></trkpt><trkpt lat="44.4576721" lon="8.5635148"><ele>906.0</ele><time>2026-05-03T11:02:39.387Z</time></trkpt><trkpt lat="44.4577958" lon="8.5635986"><ele>906.0</ele><time>2026-05-03T11:02:40.388Z</time></trkpt><trkpt lat="44.4579248" lon="8.563657"><ele>906.0</ele><time>2026-05-03T11:02:41.387Z</time></trkpt><trkpt lat="44.4580302" lon="8.5636837"><ele>905.4</ele><time>2026-05-03T11:02:42.388Z</time></trkpt><trkpt lat="44.4581235" lon="8.5637417"><ele>904.8</ele><time>2026-05-03T11:02:43.387Z</time></trkpt><trkpt lat="44.4581907" lon="8.5638353"><ele>904.1999999999999</ele><time>2026-05-03T11:02:44.387Z</time></trkpt><trkpt lat="44.458216" lon="8.5639816"><ele>903.5999999999999</ele><time>2026-05-03T11:02:45.388Z</time></trkpt><trkpt lat="44.4581964" lon="8.5641328"><ele>903.0</ele><time>2026-05-03T11:02:46.387Z</time></trkpt><trkpt lat="44.4581637" lon="8.5642516"><ele>903.0</ele><time>2026-05-03T11:02:47.387Z</time></trkpt><trkpt lat="44.4581253" lon="8.5643585"><ele>903.0</ele><time>2026-05-03T11:02:48.387Z</time></trkpt><trkpt lat="44.4580924" lon="8.5644372"><ele>903.0</ele><time>2026-05-03T11:02:49.388Z</time></trkpt><trkpt lat="44.4580648" lon="8.5645166"><ele>903.0</ele><time>2026-05-03T11:02:50.387Z</time></trkpt><trkpt lat="44.458021" lon="8.564598"><ele>903.0</ele><time>2026-05-03T11:02:51.387Z</time></trkpt><trkpt lat="44.4579718" lon="8.564685"><ele>903.0</ele><time>2026-05-03T11:02:52.388Z</time></trkpt><trkpt lat="44.4579171" lon="8.5647654"><ele>903.0</ele><time>2026-05-03T11:02:53.387Z</time></trkpt><trkpt lat="44.4578467" lon="8.5648086"><ele>902.1666666666666</ele><time>2026-05-03T11:02:54.388Z</time></trkpt><trkpt lat="44.4577713" lon="8.5648213"><ele>901.3333333333333</ele><time>2026-05-03T11:02:55.387Z</time></trkpt><trkpt lat="44.4576963" lon="8.5648063"><ele>900.5</ele><time>2026-05-03T11:02:56.387Z</time></trkpt><trkpt lat="44.457616" lon="8.5647869"><ele>899.6666666666666</ele><time>2026-05-03T11:02:57.387Z</time></trkpt><trkpt lat="44.4575299" lon="8.5647757"><ele>898.8333333333333</ele><time>2026-05-03T11:02:58.387Z</time></trkpt><trkpt lat="44.4574376" lon="8.5647783"><ele>898.0</ele><time>2026-05-03T11:02:59.388Z</time></trkpt><trkpt lat="44.4573562" lon="8.56481"><ele>897.9999999999999</ele><time>2026-05-03T11:03:00.387Z</time></trkpt><trkpt lat="44.4572814" lon="8.5648661"><ele>898.0</ele><time>2026-05-03T11:03:01.387Z</time></trkpt><trkpt lat="44.4572058" lon="8.5649379"><ele>898.0</ele><time>2026-05-03T11:03:02.387Z</time></trkpt><trkpt lat="44.457151" lon="8.565036"><ele>898.0</ele><time>2026-05-03T11:03:03.387Z</time></trkpt><trkpt lat="44.4571036" lon="8.5651354"><ele>897.9999999999999</ele><time>2026-05-03T11:03:04.387Z</time></trkpt><trkpt lat="44.4570781" lon="8.5652627"><ele>898.0</ele><time>2026-05-03T11:03:05.387Z</time></trkpt><trkpt lat="44.4570617" lon="8.5653823"><ele>898.2</ele><time>2026-05-03T11:03:06.387Z</time></trkpt><trkpt lat="44.4570522" lon="8.5655348"><ele>898.4</ele><time>2026-05-03T11:03:07.388Z</time></trkpt><trkpt lat="44.4570273" lon="8.5656818"><ele>898.6000000000001</ele><time>2026-05-03T11:03:08.388Z</time></trkpt><trkpt lat="44.456993" lon="8.5658262"><ele>898.8000000000001</ele><time>2026-05-03T11:03:09.387Z</time></trkpt><trkpt lat="44.4569295" lon="8.5659558"><ele>899.0</ele><time>2026-05-03T11:03:10.387Z</time></trkpt><trkpt lat="44.4568619" lon="8.5660876"><ele>896.0</ele><time>2026-05-03T11:03:11.388Z</time></trkpt><trkpt lat="44.4567946" lon="8.566228"><ele>893.0</ele><time>2026-05-03T11:03:12.387Z</time></trkpt><trkpt lat="44.4567229" lon="8.566366"><ele>890.0</ele><time>2026-05-03T11:03:13.388Z</time></trkpt><trkpt lat="44.4566502" lon="8.5665015"><ele>887.0</ele><time>2026-05-03T11:03:14.388Z</time></trkpt><trkpt lat="44.4565748" lon="8.5666348"><ele>887.0</ele><time>2026-05-03T11:03:15.387Z</time></trkpt><trkpt lat="44.4565039" lon="8.5667634"><ele>887.0</ele><time>2026-05-03T11:03:16.387Z</time></trkpt><trkpt lat="44.456435" lon="8.5668818"><ele>887.0</ele><time>2026-05-03T11:03:17.388Z</time></trkpt><trkpt lat="44.4563597" lon="8.5669995"><ele>887.0</ele><time>2026-05-03T11:03:18.388Z</time></trkpt><trkpt lat="44.4562852" lon="8.5671191"><ele>887.75</ele><time>2026-05-03T11:03:19.387Z</time></trkpt><trkpt lat="44.4562049" lon="8.5672339"><ele>888.5</ele><time>2026-05-03T11:03:20.387Z</time></trkpt><trkpt lat="44.4561105" lon="8.5673234"><ele>889.25</ele><time>2026-05-03T11:03:21.388Z</time></trkpt><trkpt lat="44.4560079" lon="8.567393"><ele>890.0</ele><time>2026-05-03T11:03:22.387Z</time></trkpt><trkpt lat="44.4558996" lon="8.567455"><ele>890.0</ele><time>2026-05-03T11:03:23.387Z</time></trkpt><trkpt lat="44.4557889" lon="8.5675188"><ele>890.0</ele><time>2026-05-03T11:03:24.387Z</time></trkpt><trkpt lat="44.4556768" lon="8.5675826"><ele>890.0</ele><time>2026-05-03T11:03:25.387Z</time></trkpt><trkpt lat="44.4555639" lon="8.5676443"><ele>890.0</ele><time>2026-05-03T11:03:26.388Z</time></trkpt><trkpt lat="44.4554468" lon="8.5677039"><ele>891.5</ele><time>2026-05-03T11:03:27.387Z</time></trkpt><trkpt lat="44.455334" lon="8.5677713"><ele>893.0</ele><time>2026-05-03T11:03:28.388Z</time></trkpt><trkpt lat="44.4552254" lon="8.5678302"><ele>894.5</ele><time>2026-05-03T11:03:29.387Z</time></trkpt><trkpt lat="44.4551235" lon="8.5678955"><ele>896.0</ele><time>2026-05-03T11:03:30.388Z</time></trkpt><trkpt lat="44.4550228" lon="8.5679612"><ele>892.4</ele><time>2026-05-03T11:03:31.388Z</time></trkpt><trkpt lat="44.4549407" lon="8.5680323"><ele>888.8</ele><time>2026-05-03T11:03:32.388Z</time></trkpt><trkpt lat="44.4548566" lon="8.5681529"><ele>885.1999999999999</ele><time>2026-05-03T11:03:33.388Z</time></trkpt><trkpt lat="44.4548149" lon="8.5682964"><ele>881.5999999999999</ele><time>2026-05-03T11:03:34.388Z</time></trkpt><trkpt lat="44.4547887" lon="8.5684601"><ele>878.0</ele><time>2026-05-03T11:03:35.388Z</time></trkpt><trkpt lat="44.4547853" lon="8.5686426"><ele>876.25</ele><time>2026-05-03T11:03:36.388Z</time></trkpt><trkpt lat="44.4547849" lon="8.5688325"><ele>874.5</ele><time>2026-05-03T11:03:37.387Z</time></trkpt><trkpt lat="44.4547952" lon="8.5690208"><ele>872.75</ele><time>2026-05-03T11:03:38.388Z</time></trkpt><trkpt lat="44.4548311" lon="8.5692056"><ele>871.0</ele><time>2026-05-03T11:03:39.387Z</time></trkpt><trkpt lat="44.4548737" lon="8.5693907"><ele>871.75</ele><time>2026-05-03T11:03:40.387Z</time></trkpt><trkpt lat="44.454913" lon="8.5695724"><ele>872.5</ele><time>2026-05-03T11:03:41.387Z</time></trkpt><trkpt lat="44.4549583" lon="8.5697534"><ele>873.25</ele><time>2026-05-03T11:03:42.387Z</time></trkpt><trkpt lat="44.4549937" lon="8.5699246"><ele>874.0</ele><time>2026-05-03T11:03:43.387Z</time></trkpt><trkpt lat="44.4550106" lon="8.5701074"><ele>874.0</ele><time>2026-05-03T11:03:44.387Z</time></trkpt><trkpt lat="44.454989" lon="8.5702876"><ele>874.0</ele><time>2026-05-03T11:03:45.387Z</time></trkpt><trkpt lat="44.4549478" lon="8.5704671"><ele>874.0</ele><time>2026-05-03T11:03:46.387Z</time></trkpt><trkpt lat="44.4549072" lon="8.570646"><ele>874.0</ele><time>2026-05-03T11:03:47.388Z</time></trkpt><trkpt lat="44.4548857" lon="8.570815"><ele>876.25</ele><time>2026-05-03T11:03:48.387Z</time></trkpt><trkpt lat="44.4548947" lon="8.5709857"><ele>878.5</ele><time>2026-05-03T11:03:49.387Z</time></trkpt><trkpt lat="44.4549054" lon="8.5711468"><ele>880.75</ele><time>2026-05-03T11:03:50.387Z</time></trkpt><trkpt lat="44.4549835" lon="8.5713154"><ele>883.0</ele><time>2026-05-03T11:03:51.387Z</time></trkpt><trkpt lat="44.4550636" lon="8.5714605"><ele>885.75</ele><time>2026-05-03T11:03:52.387Z</time></trkpt><trkpt lat="44.4551453" lon="8.5716042"><ele>888.5</ele><time>2026-05-03T11:03:53.387Z</time></trkpt><trkpt lat="44.4552159" lon="8.5717589"><ele>891.25</ele><time>2026-05-03T11:03:54.388Z</time></trkpt><trkpt lat="44.4552659" lon="8.571937"><ele>894.0</ele><time>2026-05-03T11:03:55.388Z</time></trkpt><trkpt lat="44.4553021" lon="8.572118"><ele>895.25</ele><time>2026-05-03T11:03:56.388Z</time></trkpt><trkpt lat="44.4553429" lon="8.5722902"><ele>896.5</ele><time>2026-05-03T11:03:57.387Z</time></trkpt><trkpt lat="44.4553727" lon="8.5724594"><ele>897.75</ele><time>2026-05-03T11:03:58.387Z</time></trkpt><trkpt lat="44.4553899" lon="8.5726134"><ele>899.0</ele><time>2026-05-03T11:03:59.388Z</time></trkpt><trkpt lat="44.4553739" lon="8.5727655"><ele>897.6</ele><time>2026-05-03T11:04:00.387Z</time></trkpt><trkpt lat="44.4553318" lon="8.5728899"><ele>896.2</ele><time>2026-05-03T11:04:01.387Z</time></trkpt><trkpt lat="44.4552568" lon="8.5729832"><ele>894.8000000000001</ele><time>2026-05-03T11:04:02.387Z</time></trkpt><trkpt lat="44.455156" lon="8.5730563"><ele>893.4000000000001</ele><time>2026-05-03T11:04:03.387Z</time></trkpt><trkpt lat="44.4550578" lon="8.5731379"><ele>892.0</ele><time>2026-05-03T11:04:04.388Z</time></trkpt><trkpt lat="44.4549666" lon="8.5732489"><ele>892.0</ele><time>2026-05-03T11:04:05.388Z</time></trkpt><trkpt lat="44.4548866" lon="8.5733888"><ele>892.0</ele><time>2026-05-03T11:04:06.387Z</time></trkpt><trkpt lat="44.4548435" lon="8.5735569"><ele>892.0</ele><time>2026-05-03T11:04:07.387Z</time></trkpt><trkpt lat="44.4547909" lon="8.5737313"><ele>892.0</ele><time>2026-05-03T11:04:08.387Z</time></trkpt><trkpt lat="44.4547534" lon="8.5739173"><ele>889.5</ele><time>2026-05-03T11:04:09.387Z</time></trkpt><trkpt lat="44.4547169" lon="8.5741044"><ele>887.0</ele><time>2026-05-03T11:04:10.387Z</time></trkpt><trkpt lat="44.454675" lon="8.5742877"><ele>884.5</ele><time>2026-05-03T11:04:11.388Z</time></trkpt><trkpt lat="44.4546335" lon="8.5744663"><ele>882.0</ele><time>2026-05-03T11:04:12.388Z</time></trkpt><trkpt lat="44.4545942" lon="8.5746403"><ele>881.25</ele><time>2026-05-03T11:04:13.388Z</time></trkpt><trkpt lat="44.4545862" lon="8.5748353"><ele>880.5</ele><time>2026-05-03T11:04:14.387Z</time></trkpt><trkpt lat="44.4545834" lon="8.575013"><ele>879.75</ele><time>2026-05-03T11:04:15.387Z</time></trkpt><trkpt lat="44.4546102" lon="8.575189"><ele>879.0</ele><time>2026-05-03T11:04:16.387Z</time></trkpt><trkpt lat="44.4546337" lon="8.5753451"><ele>877.75</ele><time>2026-05-03T11:04:17.387Z</time></trkpt><trkpt lat="44.4546437" lon="8.5754994"><ele>876.5</ele><time>2026-05-03T11:04:18.387Z</time></trkpt><trkpt lat="44.454626" lon="8.575658"><ele>875.25</ele><time>2026-05-03T11:04:19.388Z</time></trkpt><trkpt lat="44.4545902" lon="8.5758242"><ele>874.0</ele><time>2026-05-03T11:04:20.388Z</time></trkpt><trkpt lat="44.4545453" lon="8.575992"><ele>879.75</ele><time>2026-05-03T11:04:21.387Z</time></trkpt><trkpt lat="44.4544955" lon="8.5761454"><ele>885.5</ele><time>2026-05-03T11:04:22.387Z</time></trkpt><trkpt lat="44.4544314" lon="8.5763045"><ele>891.25</ele><time>2026-05-03T11:04:23.387Z</time></trkpt><trkpt lat="44.4543573" lon="8.5764322"><ele>897.0</ele><time>2026-05-03T11:04:24.388Z</time></trkpt><trkpt lat="44.4543261" lon="8.5765415"><ele>897.0</ele><time>2026-05-03T11:04:25.387Z</time></trkpt><trkpt lat="44.4542883" lon="8.5766416"><ele>897.0</ele><time>2026-05-03T11:04:26.387Z</time></trkpt><trkpt lat="44.4543034" lon="8.5767591"><ele>897.0</ele><time>2026-05-03T11:04:27.387Z</time></trkpt><trkpt lat="44.4543206" lon="8.5768724"><ele>897.0</ele><time>2026-05-03T11:04:28.388Z</time></trkpt><trkpt lat="44.4543595" lon="8.5769996"><ele>897.0</ele><time>2026-05-03T11:04:29.387Z</time></trkpt><trkpt lat="44.4544207" lon="8.5771246"><ele>899.0</ele><time>2026-05-03T11:04:30.388Z</time></trkpt><trkpt lat="44.4544858" lon="8.5772467"><ele>901.0</ele><time>2026-05-03T11:04:31.387Z</time></trkpt><trkpt lat="44.4545458" lon="8.5773763"><ele>903.0</ele><time>2026-05-03T11:04:32.388Z</time></trkpt><trkpt lat="44.4546043" lon="8.5775265"><ele>905.0</ele><time>2026-05-03T11:04:33.388Z</time></trkpt><trkpt lat="44.4546536" lon="8.5776826"><ele>900.75</ele><time>2026-05-03T11:04:34.388Z</time></trkpt><trkpt lat="44.4547006" lon="8.5778426"><ele>896.5</ele><time>2026-05-03T11:04:35.387Z</time></trkpt><trkpt lat="44.4547612" lon="8.5780005"><ele>892.25</ele><time>2026-05-03T11:04:36.387Z</time></trkpt><trkpt lat="44.4548285" lon="8.5781516"><ele>888.0</ele><time>2026-05-03T11:04:37.387Z</time></trkpt><trkpt lat="44.454906" lon="8.5783016"><ele>888.0</ele><time>2026-05-03T11:04:38.387Z</time></trkpt><trkpt lat="44.4549841" lon="8.5784467"><ele>888.0</ele><time>2026-05-03T11:04:39.387Z</time></trkpt><trkpt lat="44.4550706" lon="8.5785852"><ele>888.0</ele><time>2026-05-03T11:04:40.387Z</time></trkpt><trkpt lat="44.4551735" lon="8.5787122"><ele>888.0</ele><time>2026-05-03T11:04:41.387Z</time></trkpt><trkpt lat="44.4552824" lon="8.5788226"><ele>887.5</ele><time>2026-05-03T11:04:42.387Z</time></trkpt><trkpt lat="44.4553962" lon="8.5789302"><ele>887.0</ele><time>2026-05-03T11:04:43.388Z</time></trkpt><trkpt lat="44.4555088" lon="8.579041"><ele>886.5</ele><time>2026-05-03T11:04:44.387Z</time></trkpt><trkpt lat="44.4556248" lon="8.5791515"><ele>886.0</ele><time>2026-05-03T11:04:45.388Z</time></trkpt><trkpt lat="44.4557377" lon="8.5792664"><ele>886.0</ele><time>2026-05-03T11:04:46.388Z</time></trkpt><trkpt lat="44.4558465" lon="8.5793833"><ele>886.0</ele><time>2026-05-03T11:04:47.387Z</time></trkpt><trkpt lat="44.4559462" lon="8.5794962"><ele>886.0</ele><time>2026-05-03T11:04:48.388Z</time></trkpt><trkpt lat="44.4560427" lon="8.57959"><ele>886.0</ele><time>2026-05-03T11:04:49.387Z</time></trkpt><trkpt lat="44.456144" lon="8.5796582"><ele>886.1999999999999</ele><time>2026-05-03T11:04:50.387Z</time></trkpt><trkpt lat="44.4562578" lon="8.5796875"><ele>886.3999999999999</ele><time>2026-05-03T11:04:51.388Z</time></trkpt><trkpt lat="44.4563656" lon="8.5796817"><ele>886.6</ele><time>2026-05-03T11:04:52.387Z</time></trkpt><trkpt lat="44.4564594" lon="8.5796141"><ele>886.8</ele><time>2026-05-03T11:04:53.387Z</time></trkpt><trkpt lat="44.4565351" lon="8.5795028"><ele>887.0</ele><time>2026-05-03T11:04:54.387Z</time></trkpt><trkpt lat="44.4566091" lon="8.579369"><ele>887.0</ele><time>2026-05-03T11:04:55.387Z</time></trkpt><trkpt lat="44.4566831" lon="8.5792426"><ele>887.0</ele><time>2026-05-03T11:04:56.387Z</time></trkpt><trkpt lat="44.4567576" lon="8.5791299"><ele>887.0</ele><time>2026-05-03T11:04:57.388Z</time></trkpt><trkpt lat="44.4568483" lon="8.5790427"><ele>887.0</ele><time>2026-05-03T11:04:58.388Z</time></trkpt><trkpt lat="44.4569525" lon="8.579002"><ele>887.0</ele><time>2026-05-03T11:04:59.387Z</time></trkpt><trkpt lat="44.457067" lon="8.5790088"><ele>887.75</ele><time>2026-05-03T11:05:00.387Z</time></trkpt><trkpt lat="44.4571825" lon="8.5790558"><ele>888.5</ele><time>2026-05-03T11:05:01.388Z</time></trkpt><trkpt lat="44.4572997" lon="8.5790879"><ele>889.25</ele><time>2026-05-03T11:05:02.387Z</time></trkpt><trkpt lat="44.457413" lon="8.5790758"><ele>890.0</ele><time>2026-05-03T11:05:03.387Z</time></trkpt><trkpt lat="44.4575147" lon="8.5790139"><ele>890.0</ele><time>2026-05-03T11:05:04.387Z</time></trkpt><trkpt lat="44.4576001" lon="8.5789172"><ele>890.0</ele><time>2026-05-03T11:05:05.387Z</time></trkpt><trkpt lat="44.4576845" lon="8.5788036"><ele>890.0</ele><time>2026-05-03T11:05:06.388Z</time></trkpt><trkpt lat="44.4577741" lon="8.5787011"><ele>890.0</ele><time>2026-05-03T11:05:07.387Z</time></trkpt><trkpt lat="44.4578639" lon="8.5786207"><ele>890.0</ele><time>2026-05-03T11:05:08.387Z</time></trkpt><trkpt lat="44.4579609" lon="8.578575"><ele>890.0</ele><time>2026-05-03T11:05:09.387Z</time></trkpt><trkpt lat="44.458066" lon="8.578578"><ele>890.0</ele><time>2026-05-03T11:05:10.387Z</time></trkpt><trkpt lat="44.4581655" lon="8.5786196"><ele>890.0</ele><time>2026-05-03T11:05:11.387Z</time></trkpt><trkpt lat="44.4582596" lon="8.5786992"><ele>890.0</ele><time>2026-05-03T11:05:12.387Z</time></trkpt><trkpt lat="44.4583567" lon="8.5788018"><ele>890.0</ele><time>2026-05-03T11:05:13.387Z</time></trkpt><trkpt lat="44.4584603" lon="8.5789141"><ele>890.0</ele><time>2026-05-03T11:05:14.387Z</time></trkpt><trkpt lat="44.4585665" lon="8.5790248"><ele>890.0</ele><time>2026-05-03T11:05:15.387Z</time></trkpt><trkpt lat="44.4586693" lon="8.5791327"><ele>890.0</ele><time>2026-05-03T11:05:16.387Z</time></trkpt><trkpt lat="44.4587694" lon="8.5792345"><ele>890.0</ele><time>2026-05-03T11:05:17.388Z</time></trkpt><trkpt lat="44.4588679" lon="8.5793353"><ele>889.5</ele><time>2026-05-03T11:05:18.388Z</time></trkpt><trkpt lat="44.4589666" lon="8.5794238"><ele>889.0</ele><time>2026-05-03T11:05:19.387Z</time></trkpt><trkpt lat="44.4590714" lon="8.5794904"><ele>888.5</ele><time>2026-05-03T11:05:20.387Z</time></trkpt><trkpt lat="44.4591864" lon="8.579515"><ele>888.0</ele><time>2026-05-03T11:05:21.387Z</time></trkpt><trkpt lat="44.4592978" lon="8.5795275"><ele>888.0</ele><time>2026-05-03T11:05:22.388Z</time></trkpt><trkpt lat="44.459401" lon="8.579537"><ele>888.0</ele><time>2026-05-03T11:05:23.388Z</time></trkpt><trkpt lat="44.4594944" lon="8.5795497"><ele>888.0</ele><time>2026-05-03T11:05:24.387Z</time></trkpt><trkpt lat="44.4595944" lon="8.5795668"><ele>888.0</ele><time>2026-05-03T11:05:25.388Z</time></trkpt><trkpt lat="44.4596799" lon="8.5796254"><ele>888.0</ele><time>2026-05-03T11:05:26.387Z</time></trkpt><trkpt lat="44.4597638" lon="8.579718"><ele>886.5999999999999</ele><time>2026-05-03T11:05:27.387Z</time></trkpt><trkpt lat="44.4598513" lon="8.5798115"><ele>885.1999999999999</ele><time>2026-05-03T11:05:28.387Z</time></trkpt><trkpt lat="44.459938" lon="8.5798906"><ele>883.8</ele><time>2026-05-03T11:05:29.387Z</time></trkpt><trkpt lat="44.4600208" lon="8.5799631"><ele>882.4</ele><time>2026-05-03T11:05:30.387Z</time></trkpt><trkpt lat="44.4601062" lon="8.580027"><ele>881.0</ele><time>2026-05-03T11:05:31.388Z</time></trkpt><trkpt lat="44.4601894" lon="8.5800682"><ele>881.0</ele><time>2026-05-03T11:05:32.388Z</time></trkpt><trkpt lat="44.4602798" lon="8.5800872"><ele>880.9999999999999</ele><time>2026-05-03T11:05:33.388Z</time></trkpt><trkpt lat="44.4603697" lon="8.5801039"><ele>880.9999999999999</ele><time>2026-05-03T11:05:34.388Z</time></trkpt><trkpt lat="44.4604632" lon="8.5801269"><ele>881.0</ele><time>2026-05-03T11:05:35.387Z</time></trkpt><trkpt lat="44.4605575" lon="8.5801546"><ele>881.0</ele><time>2026-05-03T11:05:36.387Z</time></trkpt><trkpt lat="44.4606441" lon="8.5802103"><ele>880.0</ele><time>2026-05-03T11:05:37.387Z</time></trkpt><trkpt lat="44.4607155" lon="8.5802873"><ele>878.9999999999999</ele><time>2026-05-03T11:05:38.387Z</time></trkpt><trkpt lat="44.4607823" lon="8.5803928"><ele>877.9999999999999</ele><time>2026-05-03T11:05:39.387Z</time></trkpt><trkpt lat="44.4608428" lon="8.5805134"><ele>877.0</ele><time>2026-05-03T11:05:40.387Z</time></trkpt><trkpt lat="44.4608954" lon="8.5806379"><ele>876.0</ele><time>2026-05-03T11:05:41.388Z</time></trkpt><trkpt lat="44.4609396" lon="8.580774"><ele>875.6666666666666</ele><time>2026-05-03T11:05:42.388Z</time></trkpt><trkpt lat="44.4609638" lon="8.5808989"><ele>875.3333333333333</ele><time>2026-05-03T11:05:43.387Z</time></trkpt><trkpt lat="44.4609855" lon="8.5810009"><ele>875.0</ele><time>2026-05-03T11:05:44.387Z</time></trkpt><trkpt lat="44.4609999" lon="8.5811217"><ele>874.6666666666666</ele><time>2026-05-03T11:05:46.387Z</time></trkpt><trkpt lat="44.4610021" lon="8.5812177"><ele>874.3333333333333</ele><time>2026-05-03T11:06:08.387Z</time></trkpt><trkpt lat="44.4610502" lon="8.5811529"><ele>874.0</ele><time>2026-05-03T11:06:15.388Z</time></trkpt><trkpt lat="44.461" lon="8.581093"><ele>874.0</ele><time>2026-05-03T11:06:19.387Z</time></trkpt><trkpt lat="44.4609817" lon="8.5809642"><ele>874.0000000000001</ele><time>2026-05-03T11:06:32.388Z</time></trkpt><trkpt lat="44.4609625" lon="8.5807945"><ele>874.0000000000001</ele><time>2026-05-03T11:06:34.387Z</time></trkpt><trkpt lat="44.4609394" lon="8.5807089"><ele>874.0</ele><time>2026-05-03T11:06:35.387Z</time></trkpt><trkpt lat="44.4609137" lon="8.5806246"><ele>874.0</ele><time>2026-05-03T11:06:36.387Z</time></trkpt><trkpt lat="44.460855" lon="8.5804821"><ele>873.9999999999999</ele><time>2026-05-03T11:06:38.387Z</time></trkpt><trkpt lat="44.4607763" lon="8.5803507"><ele>874.0</ele><time>2026-05-03T11:06:40.387Z</time></trkpt><trkpt lat="44.4607336" lon="8.5802853"><ele>874.0</ele><time>2026-05-03T11:06:41.387Z</time></trkpt><trkpt lat="44.4606869" lon="8.5802219"><ele>874.0</ele><time>2026-05-03T11:06:42.388Z</time></trkpt><trkpt lat="44.4605766" lon="8.5801429"><ele>873.9999999999999</ele><time>2026-05-03T11:06:44.388Z</time></trkpt><trkpt lat="44.4605085" lon="8.5801206"><ele>874.0</ele><time>2026-05-03T11:06:45.388Z</time></trkpt><trkpt lat="44.4604422" lon="8.5800991"><ele>875.4000000000001</ele><time>2026-05-03T11:06:46.387Z</time></trkpt><trkpt lat="44.460374" lon="8.5800856"><ele>876.8000000000001</ele><time>2026-05-03T11:06:47.387Z</time></trkpt><trkpt lat="44.4603082" lon="8.5800739"><ele>878.1999999999999</ele><time>2026-05-03T11:06:48.387Z</time></trkpt><trkpt lat="44.4601858" lon="8.5800576"><ele>879.5999999999999</ele><time>2026-05-03T11:06:50.387Z</time></trkpt><trkpt lat="44.4600643" lon="8.5800549"><ele>881.0</ele><time>2026-05-03T11:06:52.387Z</time></trkpt><trkpt lat="44.4599554" lon="8.5800603"><ele>881.0000000000001</ele><time>2026-05-03T11:06:54.388Z</time></trkpt><trkpt lat="44.459891" lon="8.5800689"><ele>881.0</ele><time>2026-05-03T11:06:56.388Z</time></trkpt><trkpt lat="44.4598082" lon="8.5800814"><ele>881.0</ele><time>2026-05-03T11:09:11.387Z</time></trkpt><trkpt lat="44.4597063" lon="8.5800991"><ele>881.0</ele><time>2026-05-03T11:09:13.387Z</time></trkpt><trkpt lat="44.4595858" lon="8.5801312"><ele>881.0000000000001</ele><time>2026-05-03T11:09:15.387Z</time></trkpt><trkpt lat="44.4595135" lon="8.5801433"><ele>881.0</ele><time>2026-05-03T11:09:16.387Z</time></trkpt><trkpt lat="44.4594395" lon="8.5801584"><ele>882.1666666666667</ele><time>2026-05-03T11:09:17.387Z</time></trkpt><trkpt lat="44.4593566" lon="8.5801786"><ele>883.3333333333334</ele><time>2026-05-03T11:09:18.387Z</time></trkpt><trkpt lat="44.4592761" lon="8.580212"><ele>884.5</ele><time>2026-05-03T11:09:19.387Z</time></trkpt><trkpt lat="44.4591906" lon="8.5802479"><ele>885.6666666666667</ele><time>2026-05-03T11:09:20.387Z</time></trkpt><trkpt lat="44.4591182" lon="8.5803111"><ele>886.8333333333334</ele><time>2026-05-03T11:09:21.387Z</time></trkpt><trkpt lat="44.4590365" lon="8.5803591"><ele>888.0</ele><time>2026-05-03T11:09:22.387Z</time></trkpt><trkpt lat="44.4589677" lon="8.5804435"><ele>888.4</ele><time>2026-05-03T11:09:23.387Z</time></trkpt><trkpt lat="44.4588865" lon="8.5805325"><ele>888.8</ele><time>2026-05-03T11:09:24.387Z</time></trkpt><trkpt lat="44.4588092" lon="8.580621"><ele>889.2</ele><time>2026-05-03T11:09:25.387Z</time></trkpt><trkpt lat="44.458727" lon="8.5807087"><ele>889.6</ele><time>2026-05-03T11:09:26.387Z</time></trkpt><trkpt lat="44.4586427" lon="8.580805"><ele>890.0</ele><time>2026-05-03T11:09:27.387Z</time></trkpt><trkpt lat="44.4585585" lon="8.5808956"><ele>890.6</ele><time>2026-05-03T11:09:28.387Z</time></trkpt><trkpt lat="44.4584691" lon="8.5809945"><ele>891.2</ele><time>2026-05-03T11:09:29.387Z</time></trkpt><trkpt lat="44.4583883" lon="8.5810901"><ele>891.8</ele><time>2026-05-03T11:09:30.387Z</time></trkpt><trkpt lat="44.4583044" lon="8.5811884"><ele>892.4</ele><time>2026-05-03T11:09:31.387Z</time></trkpt><trkpt lat="44.4582246" lon="8.5812878"><ele>893.0</ele><time>2026-05-03T11:09:32.387Z</time></trkpt><trkpt lat="44.4581424" lon="8.5813765"><ele>893.0000000000001</ele><time>2026-05-03T11:09:33.388Z</time></trkpt><trkpt lat="44.4580654" lon="8.581443"><ele>893.0</ele><time>2026-05-03T11:09:34.388Z</time></trkpt><trkpt lat="44.4579817" lon="8.5814713"><ele>893.0</ele><time>2026-05-03T11:09:35.387Z</time></trkpt><trkpt lat="44.4579031" lon="8.5814541"><ele>893.0</ele><time>2026-05-03T11:09:36.387Z</time></trkpt><trkpt lat="44.4578354" lon="8.5814064"><ele>893.0000000000001</ele><time>2026-05-03T11:09:37.387Z</time></trkpt><trkpt lat="44.457784" lon="8.5813298"><ele>893.0</ele><time>2026-05-03T11:09:38.388Z</time></trkpt><trkpt lat="44.4577303" lon="8.5812314"><ele>894.2</ele><time>2026-05-03T11:09:39.387Z</time></trkpt><trkpt lat="44.4576696" lon="8.5811224"><ele>895.4</ele><time>2026-05-03T11:09:40.387Z</time></trkpt><trkpt lat="44.4576028" lon="8.5810149"><ele>896.6000000000001</ele><time>2026-05-03T11:09:41.387Z</time></trkpt><trkpt lat="44.4575391" lon="8.5809026"><ele>897.8000000000001</ele><time>2026-05-03T11:09:42.387Z</time></trkpt><trkpt lat="44.4574765" lon="8.5807999"><ele>899.0</ele><time>2026-05-03T11:09:43.387Z</time></trkpt><trkpt lat="44.457411" lon="8.5807012"><ele>899.0000000000001</ele><time>2026-05-03T11:09:44.387Z</time></trkpt><trkpt lat="44.4573584" lon="8.58061"><ele>899.0</ele><time>2026-05-03T11:09:45.387Z</time></trkpt><trkpt lat="44.4572913" lon="8.5805529"><ele>899.0</ele><time>2026-05-03T11:09:46.387Z</time></trkpt><trkpt lat="44.4572159" lon="8.5805254"><ele>899.0</ele><time>2026-05-03T11:09:47.388Z</time></trkpt><trkpt lat="44.4571422" lon="8.5805765"><ele>899.0000000000001</ele><time>2026-05-03T11:09:48.387Z</time></trkpt><trkpt lat="44.4570712" lon="8.5806276"><ele>899.0</ele><time>2026-05-03T11:09:49.388Z</time></trkpt><trkpt lat="44.4570061" lon="8.5807126"><ele>899.2</ele><time>2026-05-03T11:09:50.387Z</time></trkpt><trkpt lat="44.4569502" lon="8.580826"><ele>899.4000000000001</ele><time>2026-05-03T11:09:51.388Z</time></trkpt><trkpt lat="44.4568902" lon="8.5809481"><ele>899.6</ele><time>2026-05-03T11:09:52.387Z</time></trkpt><trkpt lat="44.4568269" lon="8.5810678"><ele>899.8</ele><time>2026-05-03T11:09:53.387Z</time></trkpt><trkpt lat="44.456762" lon="8.5811863"><ele>900.0</ele><time>2026-05-03T11:09:54.387Z</time></trkpt><trkpt lat="44.456693" lon="8.5812804"><ele>900.2</ele><time>2026-05-03T11:09:55.387Z</time></trkpt><trkpt lat="44.4566169" lon="8.5813549"><ele>900.4</ele><time>2026-05-03T11:09:56.388Z</time></trkpt><trkpt lat="44.4565261" lon="8.581385"><ele>900.5999999999999</ele><time>2026-05-03T11:09:57.387Z</time></trkpt><trkpt lat="44.4564318" lon="8.5813767"><ele>900.8</ele><time>2026-05-03T11:09:58.387Z</time></trkpt><trkpt lat="44.456331" lon="8.5813485"><ele>901.0</ele><time>2026-05-03T11:09:59.387Z</time></trkpt><trkpt lat="44.4562312" lon="8.5813153"><ele>901.5</ele><time>2026-05-03T11:10:00.387Z</time></trkpt><trkpt lat="44.4561218" lon="8.5812731"><ele>902.0</ele><time>2026-05-03T11:10:01.388Z</time></trkpt><trkpt lat="44.4560104" lon="8.5812295"><ele>902.5</ele><time>2026-05-03T11:10:02.387Z</time></trkpt><trkpt lat="44.4558974" lon="8.5811846"><ele>903.0</ele><time>2026-05-03T11:10:03.387Z</time></trkpt><trkpt lat="44.455786" lon="8.5811306"><ele>903.25</ele><time>2026-05-03T11:10:04.387Z</time></trkpt><trkpt lat="44.4556697" lon="8.5810772"><ele>903.5</ele><time>2026-05-03T11:10:05.387Z</time></trkpt><trkpt lat="44.4555556" lon="8.5810212"><ele>903.75</ele><time>2026-05-03T11:10:06.388Z</time></trkpt><trkpt lat="44.4554502" lon="8.5809663"><ele>904.0</ele><time>2026-05-03T11:10:07.387Z</time></trkpt><trkpt lat="44.4553508" lon="8.5809227"><ele>905.0</ele><time>2026-05-03T11:10:08.387Z</time></trkpt><trkpt lat="44.4552513" lon="8.5809087"><ele>906.0000000000001</ele><time>2026-05-03T11:10:09.387Z</time></trkpt><trkpt lat="44.4551499" lon="8.5809292"><ele>907.0000000000001</ele><time>2026-05-03T11:10:10.387Z</time></trkpt><trkpt lat="44.4550563" lon="8.5809925"><ele>908.0</ele><time>2026-05-03T11:10:11.387Z</time></trkpt><trkpt lat="44.4549792" lon="8.5810956"><ele>909.0</ele><time>2026-05-03T11:10:12.387Z</time></trkpt><trkpt lat="44.4549072" lon="8.581213"><ele>909.0</ele><time>2026-05-03T11:10:13.387Z</time></trkpt><trkpt lat="44.4548264" lon="8.5813308"><ele>909.0</ele><time>2026-05-03T11:10:14.386Z</time></trkpt><trkpt lat="44.4547396" lon="8.5814368"><ele>909.0</ele><time>2026-05-03T11:10:15.387Z</time></trkpt><trkpt lat="44.454648" lon="8.5815306"><ele>909.0</ele><time>2026-05-03T11:10:16.387Z</time></trkpt><trkpt lat="44.4545555" lon="8.5816079"><ele>913.0</ele><time>2026-05-03T11:10:17.388Z</time></trkpt><trkpt lat="44.4544669" lon="8.5816969"><ele>917.0</ele><time>2026-05-03T11:10:18.387Z</time></trkpt><trkpt lat="44.4543956" lon="8.5818212"><ele>921.0</ele><time>2026-05-03T11:10:19.387Z</time></trkpt><trkpt lat="44.4543593" lon="8.5819651"><ele>925.0</ele><time>2026-05-03T11:10:20.387Z</time></trkpt><trkpt lat="44.4543363" lon="8.582128"><ele>925.0</ele><time>2026-05-03T11:10:21.388Z</time></trkpt><trkpt lat="44.4543331" lon="8.5822849"><ele>925.0</ele><time>2026-05-03T11:10:22.387Z</time></trkpt><trkpt lat="44.454338" lon="8.5824425"><ele>925.0</ele><time>2026-05-03T11:10:23.388Z</time></trkpt><trkpt lat="44.4543369" lon="8.5825866"><ele>925.0</ele><time>2026-05-03T11:10:24.387Z</time></trkpt><trkpt lat="44.4543269" lon="8.5827071"><ele>925.0</ele><time>2026-05-03T11:10:25.387Z</time></trkpt><trkpt lat="44.4542745" lon="8.5828183"><ele>924.6</ele><time>2026-05-03T11:10:26.387Z</time></trkpt><trkpt lat="44.4542105" lon="8.5829234"><ele>924.2</ele><time>2026-05-03T11:10:27.388Z</time></trkpt><trkpt lat="44.454163" lon="8.5830221"><ele>923.8</ele><time>2026-05-03T11:10:28.388Z</time></trkpt><trkpt lat="44.4541158" lon="8.5831432"><ele>923.4</ele><time>2026-05-03T11:10:29.387Z</time></trkpt><trkpt lat="44.4541238" lon="8.5833042"><ele>923.0</ele><time>2026-05-03T11:10:30.388Z</time></trkpt><trkpt lat="44.4541801" lon="8.5834308"><ele>923.0000000000001</ele><time>2026-05-03T11:10:31.387Z</time></trkpt><trkpt lat="44.4542111" lon="8.5835647"><ele>923.0</ele><time>2026-05-03T11:10:32.387Z</time></trkpt><trkpt lat="44.4542334" lon="8.5836843"><ele>923.0</ele><time>2026-05-03T11:10:33.387Z</time></trkpt><trkpt lat="44.4542436" lon="8.5838053"><ele>923.0</ele><time>2026-05-03T11:10:34.387Z</time></trkpt><trkpt lat="44.4542144" lon="8.5839125"><ele>923.0000000000001</ele><time>2026-05-03T11:10:35.387Z</time></trkpt><trkpt lat="44.4541571" lon="8.5840094"><ele>923.0</ele><time>2026-05-03T11:10:36.387Z</time></trkpt><trkpt lat="44.4540801" lon="8.584091"><ele>923.0</ele><time>2026-05-03T11:10:37.387Z</time></trkpt><trkpt lat="44.4540076" lon="8.5841574"><ele>923.0</ele><time>2026-05-03T11:10:38.387Z</time></trkpt><trkpt lat="44.4539413" lon="8.5841769"><ele>923.0</ele><time>2026-05-03T11:10:39.387Z</time></trkpt><trkpt lat="44.4538702" lon="8.5841582"><ele>923.0</ele><time>2026-05-03T11:10:40.388Z</time></trkpt><trkpt lat="44.4537838" lon="8.5840402"><ele>923.0</ele><time>2026-05-03T11:10:42.388Z</time></trkpt><trkpt lat="44.4537662" lon="8.5838348"><ele>922.5999999999999</ele><time>2026-05-03T11:10:44.387Z</time></trkpt><trkpt lat="44.4537671" lon="8.5837089"><ele>922.1999999999999</ele><time>2026-05-03T11:10:45.387Z</time></trkpt><trkpt lat="44.4537626" lon="8.5835713"><ele>921.8</ele><time>2026-05-03T11:10:46.388Z</time></trkpt><trkpt lat="44.4537405" lon="8.5834393"><ele>921.4</ele><time>2026-05-03T11:10:47.387Z</time></trkpt><trkpt lat="44.4537086" lon="8.5833162"><ele>921.0</ele><time>2026-05-03T11:10:48.388Z</time></trkpt><trkpt lat="44.453672" lon="8.5832014"><ele>922.1666666666666</ele><time>2026-05-03T11:10:49.387Z</time></trkpt><trkpt lat="44.4536368" lon="8.5830945"><ele>923.3333333333333</ele><time>2026-05-03T11:10:50.388Z</time></trkpt><trkpt lat="44.4535972" lon="8.5829923"><ele>924.5</ele><time>2026-05-03T11:10:51.387Z</time></trkpt><trkpt lat="44.4535593" lon="8.5828925"><ele>925.6666666666666</ele><time>2026-05-03T11:10:52.387Z</time></trkpt><trkpt lat="44.4535206" lon="8.5827903"><ele>926.8333333333333</ele><time>2026-05-03T11:10:53.387Z</time></trkpt><trkpt lat="44.4534696" lon="8.5826998"><ele>928.0</ele><time>2026-05-03T11:10:54.387Z</time></trkpt><trkpt lat="44.4534308" lon="8.5826044"><ele>929.1666666666666</ele><time>2026-05-03T11:10:55.388Z</time></trkpt><trkpt lat="44.4533826" lon="8.5825139"><ele>930.3333333333333</ele><time>2026-05-03T11:10:56.387Z</time></trkpt><trkpt lat="44.4533385" lon="8.582419"><ele>931.5</ele><time>2026-05-03T11:10:57.388Z</time></trkpt><trkpt lat="44.4532942" lon="8.5823264"><ele>932.6666666666667</ele><time>2026-05-03T11:10:58.387Z</time></trkpt><trkpt lat="44.4532474" lon="8.5822251"><ele>933.8333333333334</ele><time>2026-05-03T11:10:59.387Z</time></trkpt><trkpt lat="44.4532078" lon="8.5821257"><ele>935.0</ele><time>2026-05-03T11:11:00.387Z</time></trkpt><trkpt lat="44.4531628" lon="8.5820239"><ele>935.4</ele><time>2026-05-03T11:11:01.387Z</time></trkpt><trkpt lat="44.4531169" lon="8.5819175"><ele>935.8</ele><time>2026-05-03T11:11:02.387Z</time></trkpt><trkpt lat="44.4530602" lon="8.5818167"><ele>936.2</ele><time>2026-05-03T11:11:03.387Z</time></trkpt><trkpt lat="44.4529946" lon="8.5817101"><ele>936.6</ele><time>2026-05-03T11:11:04.387Z</time></trkpt><trkpt lat="44.4529328" lon="8.5815928"><ele>937.0</ele><time>2026-05-03T11:11:05.388Z</time></trkpt><trkpt lat="44.4528621" lon="8.5814737"><ele>935.8</ele><time>2026-05-03T11:11:06.388Z</time></trkpt><trkpt lat="44.4528012" lon="8.5813506"><ele>934.6</ele><time>2026-05-03T11:11:07.388Z</time></trkpt><trkpt lat="44.4527394" lon="8.5812232"><ele>933.3999999999999</ele><time>2026-05-03T11:11:08.387Z</time></trkpt><trkpt lat="44.4526816" lon="8.5810994"><ele>932.1999999999999</ele><time>2026-05-03T11:11:09.387Z</time></trkpt><trkpt lat="44.452636" lon="8.5809619"><ele>931.0</ele><time>2026-05-03T11:11:10.387Z</time></trkpt><trkpt lat="44.4526193" lon="8.5808215"><ele>934.1999999999999</ele><time>2026-05-03T11:11:11.387Z</time></trkpt><trkpt lat="44.4526345" lon="8.580689"><ele>937.3999999999999</ele><time>2026-05-03T11:11:12.387Z</time></trkpt><trkpt lat="44.4526743" lon="8.5805531"><ele>940.6</ele><time>2026-05-03T11:11:13.387Z</time></trkpt><trkpt lat="44.4527181" lon="8.5804144"><ele>943.8</ele><time>2026-05-03T11:11:14.387Z</time></trkpt><trkpt lat="44.4527617" lon="8.5802723"><ele>947.0</ele><time>2026-05-03T11:11:15.388Z</time></trkpt><trkpt lat="44.4528037" lon="8.5801272"><ele>945.4000000000001</ele><time>2026-05-03T11:11:16.387Z</time></trkpt><trkpt lat="44.4528616" lon="8.5800012"><ele>943.8000000000001</ele><time>2026-05-03T11:11:17.387Z</time></trkpt><trkpt lat="44.4529211" lon="8.5798843"><ele>942.2</ele><time>2026-05-03T11:11:18.387Z</time></trkpt><trkpt lat="44.4529918" lon="8.5797844"><ele>940.6</ele><time>2026-05-03T11:11:19.388Z</time></trkpt><trkpt lat="44.4531074" lon="8.5797276"><ele>939.0</ele><time>2026-05-03T11:11:20.388Z</time></trkpt><trkpt lat="44.453204" lon="8.5796525"><ele>939.0</ele><time>2026-05-03T11:11:21.388Z</time></trkpt><trkpt lat="44.4532923" lon="8.5795732"><ele>939.0000000000001</ele><time>2026-05-03T11:11:22.387Z</time></trkpt><trkpt lat="44.4533564" lon="8.5794735"><ele>939.0000000000001</ele><time>2026-05-03T11:11:23.388Z</time></trkpt><trkpt lat="44.4534066" lon="8.5793721"><ele>939.0</ele><time>2026-05-03T11:11:24.387Z</time></trkpt><trkpt lat="44.4534153" lon="8.5792566"><ele>939.0</ele><time>2026-05-03T11:11:25.387Z</time></trkpt><trkpt lat="44.4533843" lon="8.5791426"><ele>940.6666666666666</ele><time>2026-05-03T11:11:26.387Z</time></trkpt><trkpt lat="44.4533259" lon="8.5790755"><ele>942.3333333333333</ele><time>2026-05-03T11:11:27.387Z</time></trkpt><trkpt lat="44.4532762" lon="8.5790152"><ele>944.0</ele><time>2026-05-03T11:11:28.387Z</time></trkpt><trkpt lat="44.4532085" lon="8.5791033"><ele>945.6666666666666</ele><time>2026-05-03T11:11:29.387Z</time></trkpt><trkpt lat="44.453159" lon="8.5792192"><ele>947.3333333333333</ele><time>2026-05-03T11:11:30.387Z</time></trkpt><trkpt lat="44.4531198" lon="8.579324"><ele>949.0</ele><time>2026-05-03T11:11:31.387Z</time></trkpt><trkpt lat="44.4530563" lon="8.5793958"><ele>949.0</ele><time>2026-05-03T11:11:32.387Z</time></trkpt><trkpt lat="44.4529696" lon="8.5794357"><ele>949.0000000000001</ele><time>2026-05-03T11:11:33.387Z</time></trkpt><trkpt lat="44.4528656" lon="8.5794347"><ele>949.0000000000001</ele><time>2026-05-03T11:11:34.387Z</time></trkpt><trkpt lat="44.452756" lon="8.5794244"><ele>949.0</ele><time>2026-05-03T11:11:35.387Z</time></trkpt><trkpt lat="44.4526498" lon="8.5794165"><ele>949.0</ele><time>2026-05-03T11:11:36.387Z</time></trkpt><trkpt lat="44.4525428" lon="8.5794423"><ele>950.75</ele><time>2026-05-03T11:11:37.387Z</time></trkpt><trkpt lat="44.4524464" lon="8.579541"><ele>952.5</ele><time>2026-05-03T11:11:38.387Z</time></trkpt><trkpt lat="44.4523729" lon="8.5796555"><ele>954.25</ele><time>2026-05-03T11:11:39.388Z</time></trkpt><trkpt lat="44.4522897" lon="8.5797699"><ele>956.0</ele><time>2026-05-03T11:11:40.387Z</time></trkpt><trkpt lat="44.4522009" lon="8.5798891"><ele>958.1999999999999</ele><time>2026-05-03T11:11:41.388Z</time></trkpt><trkpt lat="44.452111" lon="8.5799935"><ele>960.3999999999999</ele><time>2026-05-03T11:11:42.388Z</time></trkpt><trkpt lat="44.4520184" lon="8.5800707"><ele>962.6</ele><time>2026-05-03T11:11:43.387Z</time></trkpt><trkpt lat="44.4519243" lon="8.5801113"><ele>964.8</ele><time>2026-05-03T11:11:44.387Z</time></trkpt><trkpt lat="44.451824" lon="8.5801065"><ele>967.0</ele><time>2026-05-03T11:11:45.387Z</time></trkpt><trkpt lat="44.4517289" lon="8.5800543"><ele>967.0</ele><time>2026-05-03T11:11:46.387Z</time></trkpt><trkpt lat="44.4516456" lon="8.579977"><ele>967.0</ele><time>2026-05-03T11:11:47.387Z</time></trkpt><trkpt lat="44.4515626" lon="8.5799027"><ele>967.0</ele><time>2026-05-03T11:11:48.387Z</time></trkpt><trkpt lat="44.4514741" lon="8.5798109"><ele>967.0</ele><time>2026-05-03T11:11:49.387Z</time></trkpt><trkpt lat="44.4513866" lon="8.5797176"><ele>967.0</ele><time>2026-05-03T11:11:50.387Z</time></trkpt><trkpt lat="44.4513031" lon="8.5796333"><ele>967.6</ele><time>2026-05-03T11:11:51.388Z</time></trkpt><trkpt lat="44.451219" lon="8.5795495"><ele>968.2</ele><time>2026-05-03T11:11:52.387Z</time></trkpt><trkpt lat="44.4511231" lon="8.5794788"><ele>968.8</ele><time>2026-05-03T11:11:53.388Z</time></trkpt><trkpt lat="44.451027" lon="8.5793915"><ele>969.4</ele><time>2026-05-03T11:11:54.387Z</time></trkpt><trkpt lat="44.4509444" lon="8.5792943"><ele>970.0</ele><time>2026-05-03T11:11:55.387Z</time></trkpt><trkpt lat="44.4508588" lon="8.5792106"><ele>970.0</ele><time>2026-05-03T11:11:56.388Z</time></trkpt><trkpt lat="44.4507727" lon="8.5791152"><ele>970.0</ele><time>2026-05-03T11:11:57.387Z</time></trkpt><trkpt lat="44.450677" lon="8.5790513"><ele>970.0</ele><time>2026-05-03T11:11:58.388Z</time></trkpt><trkpt lat="44.4505678" lon="8.5790189"><ele>970.0</ele><time>2026-05-03T11:11:59.388Z</time></trkpt><trkpt lat="44.4504569" lon="8.5790079"><ele>970.0</ele><time>2026-05-03T11:12:00.387Z</time></trkpt><trkpt lat="44.4503369" lon="8.5790122"><ele>973.25</ele><time>2026-05-03T11:12:01.387Z</time></trkpt><trkpt lat="44.4502102" lon="8.5790236"><ele>976.5</ele><time>2026-05-03T11:12:02.387Z</time></trkpt><trkpt lat="44.4500918" lon="8.5790628"><ele>979.75</ele><time>2026-05-03T11:12:03.388Z</time></trkpt><trkpt lat="44.4499725" lon="8.5791077"><ele>983.0</ele><time>2026-05-03T11:12:04.387Z</time></trkpt><trkpt lat="44.4498512" lon="8.5791472"><ele>983.0</ele><time>2026-05-03T11:12:05.387Z</time></trkpt><trkpt lat="44.4497345" lon="8.5791821"><ele>983.0</ele><time>2026-05-03T11:12:06.387Z</time></trkpt><trkpt lat="44.449607" lon="8.5792126"><ele>983.0</ele><time>2026-05-03T11:12:07.387Z</time></trkpt><trkpt lat="44.4494875" lon="8.5792437"><ele>983.0</ele><time>2026-05-03T11:12:08.387Z</time></trkpt><trkpt lat="44.4493654" lon="8.5792747"><ele>983.75</ele><time>2026-05-03T11:12:09.387Z</time></trkpt><trkpt lat="44.4492509" lon="8.5793298"><ele>984.5</ele><time>2026-05-03T11:12:10.387Z</time></trkpt><trkpt lat="44.449139" lon="8.5794006"><ele>985.25</ele><time>2026-05-03T11:12:11.387Z</time></trkpt><trkpt lat="44.4490262" lon="8.5794753"><ele>986.0</ele><time>2026-05-03T11:12:12.387Z</time></trkpt><trkpt lat="44.4489119" lon="8.5795573"><ele>986.5</ele><time>2026-05-03T11:12:13.387Z</time></trkpt><trkpt lat="44.4488094" lon="8.5796522"><ele>987.0</ele><time>2026-05-03T11:12:14.388Z</time></trkpt><trkpt lat="44.448699" lon="8.5797154"><ele>987.5</ele><time>2026-05-03T11:12:15.387Z</time></trkpt><trkpt lat="44.4485903" lon="8.579759"><ele>988.0</ele><time>2026-05-03T11:12:16.388Z</time></trkpt><trkpt lat="44.4484794" lon="8.5797815"><ele>988.0</ele><time>2026-05-03T11:12:17.387Z</time></trkpt><trkpt lat="44.4483609" lon="8.5797867"><ele>988.0</ele><time>2026-05-03T11:12:18.387Z</time></trkpt><trkpt lat="44.4482354" lon="8.5797678"><ele>988.0</ele><time>2026-05-03T11:12:19.388Z</time></trkpt><trkpt lat="44.4481128" lon="8.5797492"><ele>988.0</ele><time>2026-05-03T11:12:20.387Z</time></trkpt><trkpt lat="44.4479801" lon="8.5797133"><ele>989.5</ele><time>2026-05-03T11:12:21.387Z</time></trkpt><trkpt lat="44.4478494" lon="8.5796697"><ele>991.0</ele><time>2026-05-03T11:12:22.387Z</time></trkpt><trkpt lat="44.4477181" lon="8.5796154"><ele>992.5</ele><time>2026-05-03T11:12:23.387Z</time></trkpt><trkpt lat="44.4475913" lon="8.5795471"><ele>994.0</ele><time>2026-05-03T11:12:24.387Z</time></trkpt><trkpt lat="44.4474613" lon="8.5794681"><ele>994.0</ele><time>2026-05-03T11:12:25.387Z</time></trkpt><trkpt lat="44.4473349" lon="8.5793871"><ele>994.0</ele><time>2026-05-03T11:12:26.387Z</time></trkpt><trkpt lat="44.4472111" lon="8.579311"><ele>994.0</ele><time>2026-05-03T11:12:27.387Z</time></trkpt><trkpt lat="44.4470831" lon="8.579246"><ele>994.0</ele><time>2026-05-03T11:12:28.388Z</time></trkpt><trkpt lat="44.4469576" lon="8.5791864"><ele>993.75</ele><time>2026-05-03T11:12:29.388Z</time></trkpt><trkpt lat="44.4468276" lon="8.5791515"><ele>993.5</ele><time>2026-05-03T11:12:30.387Z</time></trkpt><trkpt lat="44.4466991" lon="8.5791207"><ele>993.25</ele><time>2026-05-03T11:12:31.387Z</time></trkpt><trkpt lat="44.4465793" lon="8.5791117"><ele>993.0</ele><time>2026-05-03T11:12:32.387Z</time></trkpt><trkpt lat="44.4464587" lon="8.5791025"><ele>993.0</ele><time>2026-05-03T11:12:33.387Z</time></trkpt><trkpt lat="44.4463463" lon="8.5790934"><ele>993.0</ele><time>2026-05-03T11:12:34.388Z</time></trkpt><trkpt lat="44.4462466" lon="8.5790828"><ele>993.0</ele><time>2026-05-03T11:12:35.388Z</time></trkpt><trkpt lat="44.4461451" lon="8.5790825"><ele>993.0</ele><time>2026-05-03T11:12:36.387Z</time></trkpt><trkpt lat="44.4460418" lon="8.5790796"><ele>993.0</ele><time>2026-05-03T11:12:37.387Z</time></trkpt><trkpt lat="44.4459455" lon="8.5790842"><ele>993.2</ele><time>2026-05-03T11:12:38.387Z</time></trkpt><trkpt lat="44.4458457" lon="8.5790715"><ele>993.4</ele><time>2026-05-03T11:12:39.387Z</time></trkpt><trkpt lat="44.4457486" lon="8.5790688"><ele>993.6000000000001</ele><time>2026-05-03T11:12:40.387Z</time></trkpt><trkpt lat="44.4456525" lon="8.5790656"><ele>993.8000000000001</ele><time>2026-05-03T11:12:41.387Z</time></trkpt><trkpt lat="44.4455642" lon="8.5790666"><ele>994.0</ele><time>2026-05-03T11:12:42.387Z</time></trkpt><trkpt lat="44.4454678" lon="8.5790599"><ele>994.6666666666666</ele><time>2026-05-03T11:12:43.387Z</time></trkpt><trkpt lat="44.4453806" lon="8.5790564"><ele>995.3333333333333</ele><time>2026-05-03T11:12:44.387Z</time></trkpt><trkpt lat="44.4452934" lon="8.5790514"><ele>996.0</ele><time>2026-05-03T11:12:45.388Z</time></trkpt><trkpt lat="44.4452044" lon="8.5790424"><ele>996.6666666666667</ele><time>2026-05-03T11:12:46.387Z</time></trkpt><trkpt lat="44.4451189" lon="8.579022"><ele>997.3333333333334</ele><time>2026-05-03T11:12:47.387Z</time></trkpt><trkpt lat="44.4450277" lon="8.579001"><ele>998.0</ele><time>2026-05-03T11:12:48.388Z</time></trkpt><trkpt lat="44.4449311" lon="8.5789801"><ele>998.0</ele><time>2026-05-03T11:12:49.387Z</time></trkpt><trkpt lat="44.4448247" lon="8.5789458"><ele>998.0</ele><time>2026-05-03T11:12:50.387Z</time></trkpt><trkpt lat="44.4447165" lon="8.5789181"><ele>998.0</ele><time>2026-05-03T11:12:51.387Z</time></trkpt><trkpt lat="44.444601" lon="8.5788887"><ele>998.0</ele><time>2026-05-03T11:12:52.387Z</time></trkpt><trkpt lat="44.4444866" lon="8.5788577"><ele>997.75</ele><time>2026-05-03T11:12:53.387Z</time></trkpt><trkpt lat="44.4443733" lon="8.578814"><ele>997.5</ele><time>2026-05-03T11:12:54.387Z</time></trkpt><trkpt lat="44.4442601" lon="8.5787761"><ele>997.25</ele><time>2026-05-03T11:12:55.387Z</time></trkpt><trkpt lat="44.4441492" lon="8.5787271"><ele>997.0</ele><time>2026-05-03T11:12:56.387Z</time></trkpt><trkpt lat="44.4440414" lon="8.5786722"><ele>998.25</ele><time>2026-05-03T11:12:57.387Z</time></trkpt><trkpt lat="44.4439384" lon="8.5786031"><ele>999.5</ele><time>2026-05-03T11:12:58.387Z</time></trkpt><trkpt lat="44.4438403" lon="8.5785145"><ele>1000.75</ele><time>2026-05-03T11:12:59.388Z</time></trkpt><trkpt lat="44.4437493" lon="8.578406"><ele>1002.0</ele><time>2026-05-03T11:13:00.387Z</time></trkpt><trkpt lat="44.4436668" lon="8.5782847"><ele>1002.5</ele><time>2026-05-03T11:13:01.387Z</time></trkpt><trkpt lat="44.4435884" lon="8.5781528"><ele>1003.0</ele><time>2026-05-03T11:13:02.387Z</time></trkpt><trkpt lat="44.4435115" lon="8.578019"><ele>1003.5</ele><time>2026-05-03T11:13:03.387Z</time></trkpt><trkpt lat="44.4434296" lon="8.5778973"><ele>1004.0</ele><time>2026-05-03T11:13:04.387Z</time></trkpt><trkpt lat="44.4433408" lon="8.5777813"><ele>1006.25</ele><time>2026-05-03T11:13:05.387Z</time></trkpt><trkpt lat="44.4432466" lon="8.5776738"><ele>1008.5</ele><time>2026-05-03T11:13:06.387Z</time></trkpt><trkpt lat="44.4431475" lon="8.5775872"><ele>1010.75</ele><time>2026-05-03T11:13:07.387Z</time></trkpt><trkpt lat="44.4430403" lon="8.577525"><ele>1013.0</ele><time>2026-05-03T11:13:08.388Z</time></trkpt><trkpt lat="44.4429354" lon="8.5774836"><ele>1013.3333333333334</ele><time>2026-05-03T11:13:09.388Z</time></trkpt><trkpt lat="44.4428175" lon="8.5774765"><ele>1013.6666666666667</ele><time>2026-05-03T11:13:10.387Z</time></trkpt><trkpt lat="44.4427026" lon="8.5774815"><ele>1014.0</ele><time>2026-05-03T11:13:11.387Z</time></trkpt><trkpt lat="44.4281854" lon="8.5871236"><ele>1030.0</ele><time>2026-05-03T11:17:44.387Z</time></trkpt><trkpt lat="44.42812" lon="8.5870914"><ele>1046.0</ele><time>2026-05-03T11:17:45.387Z</time></trkpt><trkpt lat="44.4280548" lon="8.5870649"><ele>1062.0</ele><time>2026-05-03T11:17:46.387Z</time></trkpt><trkpt lat="44.4279459" lon="8.5869989"><ele>1078.0</ele><time>2026-05-03T11:17:48.387Z</time></trkpt><trkpt lat="44.4278581" lon="8.5869505"><ele>1094.0</ele><time>2026-05-03T11:17:50.387Z</time></trkpt><trkpt lat="44.427783" lon="8.5869127"><ele>1110.0</ele><time>2026-05-03T11:18:09.388Z</time></trkpt><trkpt lat="44.4278594" lon="8.5869367"><ele>1114.0</ele><time>2026-05-03T11:19:38.387Z</time></trkpt><trkpt lat="44.4279161" lon="8.5869841"><ele>1114.0</ele><time>2026-05-03T11:20:58.387Z</time></trkpt></trkseg><trkseg><trkpt lat="44.4277957" lon="8.586805"><ele>1114.0</ele><time>2026-05-03T13:07:57.369Z</time></trkpt><trkpt lat="44.427826" lon="8.5866593"><ele>1114.0</ele><time>2026-05-03T13:07:59.369Z</time></trkpt><trkpt lat="44.4278818" lon="8.5865225"><ele>1114.0</ele><time>2026-05-03T13:08:01.369Z</time></trkpt><trkpt lat="44.4279163" lon="8.5864375"><ele>1114.0</ele><time>2026-05-03T13:08:02.369Z</time></trkpt><trkpt lat="44.4279538" lon="8.586352"><ele>1114.0</ele><time>2026-05-03T13:08:03.37Z</time></trkpt><trkpt lat="44.4279881" lon="8.5862683"><ele>1114.0</ele><time>2026-05-03T13:08:04.369Z</time></trkpt><trkpt lat="44.4280306" lon="8.5861788"><ele>1116.1666666666665</ele><time>2026-05-03T13:08:05.369Z</time></trkpt><trkpt lat="44.428076" lon="8.586095"><ele>1118.3333333333333</ele><time>2026-05-03T13:08:06.369Z</time></trkpt><trkpt lat="44.4281334" lon="8.5860134"><ele>1120.5</ele><time>2026-05-03T13:08:07.369Z</time></trkpt><trkpt lat="44.4281981" lon="8.5859226"><ele>1122.6666666666667</ele><time>2026-05-03T13:08:08.369Z</time></trkpt><trkpt lat="44.4282651" lon="8.5858307"><ele>1124.8333333333335</ele><time>2026-05-03T13:08:09.369Z</time></trkpt><trkpt lat="44.4283333" lon="8.5857398"><ele>1127.0</ele><time>2026-05-03T13:08:10.37Z</time></trkpt><trkpt lat="44.4283869" lon="8.5856454"><ele>1127.0</ele><time>2026-05-03T13:08:11.369Z</time></trkpt><trkpt lat="44.4284105" lon="8.5855218"><ele>1127.0</ele><time>2026-05-03T13:08:12.369Z</time></trkpt><trkpt lat="44.4284313" lon="8.585418"><ele>1127.0</ele><time>2026-05-03T13:08:13.369Z</time></trkpt><trkpt lat="44.4284507" lon="8.5852945"><ele>1127.0</ele><time>2026-05-03T13:08:14.369Z</time></trkpt><trkpt lat="44.4284308" lon="8.5851962"><ele>1127.0</ele><time>2026-05-03T13:08:15.369Z</time></trkpt><trkpt lat="44.4284228" lon="8.5850857"><ele>1127.0</ele><time>2026-05-03T13:08:16.369Z</time></trkpt><trkpt lat="44.4284128" lon="8.5849782"><ele>1127.3333333333335</ele><time>2026-05-03T13:08:17.369Z</time></trkpt><trkpt lat="44.4284374" lon="8.5848686"><ele>1127.6666666666667</ele><time>2026-05-03T13:08:18.37Z</time></trkpt><trkpt lat="44.4284714" lon="8.5847674"><ele>1128.0</ele><time>2026-05-03T13:08:19.369Z</time></trkpt><trkpt lat="44.4285163" lon="8.5846685"><ele>1128.3333333333333</ele><time>2026-05-03T13:08:20.369Z</time></trkpt><trkpt lat="44.4285839" lon="8.5845924"><ele>1128.6666666666665</ele><time>2026-05-03T13:08:21.369Z</time></trkpt><trkpt lat="44.4286578" lon="8.5845204"><ele>1129.0</ele><time>2026-05-03T13:08:22.37Z</time></trkpt><trkpt lat="44.4287434" lon="8.584463"><ele>1131.6000000000001</ele><time>2026-05-03T13:08:23.369Z</time></trkpt><trkpt lat="44.4288268" lon="8.5844129"><ele>1134.2</ele><time>2026-05-03T13:08:24.37Z</time></trkpt><trkpt lat="44.4289149" lon="8.5843611"><ele>1136.8000000000002</ele><time>2026-05-03T13:08:25.37Z</time></trkpt><trkpt lat="44.429001" lon="8.5842926"><ele>1139.4</ele><time>2026-05-03T13:08:26.37Z</time></trkpt><trkpt lat="44.4290785" lon="8.5842197"><ele>1142.0</ele><time>2026-05-03T13:08:27.369Z</time></trkpt><trkpt lat="44.4291569" lon="8.5841516"><ele>1142.0</ele><time>2026-05-03T13:08:28.369Z</time></trkpt><trkpt lat="44.4292386" lon="8.5840839"><ele>1142.0</ele><time>2026-05-03T13:08:29.369Z</time></trkpt><trkpt lat="44.4293216" lon="8.5840245"><ele>1142.0</ele><time>2026-05-03T13:08:30.37Z</time></trkpt><trkpt lat="44.4294082" lon="8.5839675"><ele>1142.0</ele><time>2026-05-03T13:08:31.37Z</time></trkpt><trkpt lat="44.4294858" lon="8.5839098"><ele>1142.0</ele><time>2026-05-03T13:08:32.369Z</time></trkpt><trkpt lat="44.4295597" lon="8.5838579"><ele>1142.0</ele><time>2026-05-03T13:08:33.369Z</time></trkpt><trkpt lat="44.4296373" lon="8.5838167"><ele>1142.0</ele><time>2026-05-03T13:08:34.369Z</time></trkpt><trkpt lat="44.4297228" lon="8.5837918"><ele>1142.0</ele><time>2026-05-03T13:08:35.369Z</time></trkpt><trkpt lat="44.4298104" lon="8.5837806"><ele>1142.0</ele><time>2026-05-03T13:08:36.369Z</time></trkpt><trkpt lat="44.4298971" lon="8.5837583"><ele>1142.0</ele><time>2026-05-03T13:08:37.37Z</time></trkpt><trkpt lat="44.4299768" lon="8.5837179"><ele>1142.0</ele><time>2026-05-03T13:08:38.37Z</time></trkpt><trkpt lat="44.4300472" lon="8.5836526"><ele>1141.8333333333335</ele><time>2026-05-03T13:08:39.37Z</time></trkpt><trkpt lat="44.4301098" lon="8.5835659"><ele>1141.6666666666667</ele><time>2026-05-03T13:08:40.369Z</time></trkpt><trkpt lat="44.4301737" lon="8.5834709"><ele>1141.5</ele><time>2026-05-03T13:08:41.37Z</time></trkpt><trkpt lat="44.4302326" lon="8.5833792"><ele>1141.3333333333333</ele><time>2026-05-03T13:08:42.369Z</time></trkpt><trkpt lat="44.4302883" lon="8.5832799"><ele>1141.1666666666665</ele><time>2026-05-03T13:08:43.369Z</time></trkpt><trkpt lat="44.430333" lon="8.583175"><ele>1141.0</ele><time>2026-05-03T13:08:44.369Z</time></trkpt><trkpt lat="44.430367" lon="8.5830683"><ele>1141.0</ele><time>2026-05-03T13:08:45.369Z</time></trkpt><trkpt lat="44.4303913" lon="8.582959"><ele>1141.0</ele><time>2026-05-03T13:08:46.37Z</time></trkpt><trkpt lat="44.4304031" lon="8.5828531"><ele>1141.0</ele><time>2026-05-03T13:08:47.369Z</time></trkpt><trkpt lat="44.4304004" lon="8.5827385"><ele>1141.0</ele><time>2026-05-03T13:08:48.369Z</time></trkpt><trkpt lat="44.4303968" lon="8.5826428"><ele>1141.0</ele><time>2026-05-03T13:08:49.37Z</time></trkpt><trkpt lat="44.4303843" lon="8.582537"><ele>1141.0</ele><time>2026-05-03T13:08:50.369Z</time></trkpt><trkpt lat="44.4303549" lon="8.5824372"><ele>1140.6666666666665</ele><time>2026-05-03T13:08:51.369Z</time></trkpt><trkpt lat="44.4303324" lon="8.5823316"><ele>1140.3333333333333</ele><time>2026-05-03T13:08:52.37Z</time></trkpt><trkpt lat="44.4303245" lon="8.5822204"><ele>1140.0</ele><time>2026-05-03T13:08:53.37Z</time></trkpt><trkpt lat="44.4303229" lon="8.5821074"><ele>1139.6666666666667</ele><time>2026-05-03T13:08:54.369Z</time></trkpt><trkpt lat="44.4303322" lon="8.5819933"><ele>1139.3333333333335</ele><time>2026-05-03T13:08:55.369Z</time></trkpt><trkpt lat="44.4303433" lon="8.5818718"><ele>1139.0</ele><time>2026-05-03T13:08:56.369Z</time></trkpt><trkpt lat="44.4303501" lon="8.5817544"><ele>1139.6666666666667</ele><time>2026-05-03T13:08:57.369Z</time></trkpt><trkpt lat="44.4303553" lon="8.5816403"><ele>1140.3333333333335</ele><time>2026-05-03T13:08:58.369Z</time></trkpt><trkpt lat="44.4303442" lon="8.5815334"><ele>1141.0</ele><time>2026-05-03T13:08:59.369Z</time></trkpt><trkpt lat="44.4303382" lon="8.5814243"><ele>1141.6666666666667</ele><time>2026-05-03T13:09:00.369Z</time></trkpt><trkpt lat="44.4303382" lon="8.5813153"><ele>1142.3333333333333</ele><time>2026-05-03T13:09:01.369Z</time></trkpt><trkpt lat="44.4303335" lon="8.5812078"><ele>1143.0</ele><time>2026-05-03T13:09:02.369Z</time></trkpt><trkpt lat="44.4303298" lon="8.5811026"><ele>1143.5</ele><time>2026-05-03T13:09:03.369Z</time></trkpt><trkpt lat="44.4303324" lon="8.5810022"><ele>1144.0</ele><time>2026-05-03T13:09:04.37Z</time></trkpt><trkpt lat="44.4303341" lon="8.5809086"><ele>1144.5</ele><time>2026-05-03T13:09:05.37Z</time></trkpt><trkpt lat="44.430377" lon="8.5807902"><ele>1145.0</ele><time>2026-05-03T13:09:06.369Z</time></trkpt><trkpt lat="44.430417" lon="8.5806766"><ele>1145.5</ele><time>2026-05-03T13:09:07.369Z</time></trkpt><trkpt lat="44.4304682" lon="8.5805781"><ele>1146.0</ele><time>2026-05-03T13:09:08.369Z</time></trkpt><trkpt lat="44.4305256" lon="8.580479"><ele>1148.3999999999999</ele><time>2026-05-03T13:09:09.369Z</time></trkpt><trkpt lat="44.4305958" lon="8.5803821"><ele>1150.8</ele><time>2026-05-03T13:09:10.369Z</time></trkpt><trkpt lat="44.4306593" lon="8.5802789"><ele>1153.1999999999998</ele><time>2026-05-03T13:09:11.37Z</time></trkpt><trkpt lat="44.4307012" lon="8.5801623"><ele>1155.6</ele><time>2026-05-03T13:09:12.369Z</time></trkpt><trkpt lat="44.4307431" lon="8.5800552"><ele>1158.0</ele><time>2026-05-03T13:09:13.369Z</time></trkpt><trkpt lat="44.4307497" lon="8.579927"><ele>1158.0</ele><time>2026-05-03T13:09:14.369Z</time></trkpt><trkpt lat="44.4307626" lon="8.5797947"><ele>1158.0</ele><time>2026-05-03T13:09:15.37Z</time></trkpt><trkpt lat="44.4307683" lon="8.5796565"><ele>1158.0</ele><time>2026-05-03T13:09:16.369Z</time></trkpt><trkpt lat="44.43077" lon="8.5795136"><ele>1158.0</ele><time>2026-05-03T13:09:17.369Z</time></trkpt><trkpt lat="44.4307633" lon="8.579371"><ele>1158.0</ele><time>2026-05-03T13:09:18.37Z</time></trkpt><trkpt lat="44.4307584" lon="8.5792304"><ele>1158.8</ele><time>2026-05-03T13:09:19.37Z</time></trkpt><trkpt lat="44.4307357" lon="8.5790935"><ele>1159.6</ele><time>2026-05-03T13:09:20.369Z</time></trkpt><trkpt lat="44.4307162" lon="8.5789596"><ele>1160.4</ele><time>2026-05-03T13:09:21.369Z</time></trkpt><trkpt lat="44.4306764" lon="8.5788362"><ele>1161.2</ele><time>2026-05-03T13:09:22.369Z</time></trkpt><trkpt lat="44.4306161" lon="8.5787302"><ele>1162.0</ele><time>2026-05-03T13:09:23.37Z</time></trkpt><trkpt lat="44.4305532" lon="8.578622"><ele>1162.6</ele><time>2026-05-03T13:09:24.369Z</time></trkpt><trkpt lat="44.4304958" lon="8.5785027"><ele>1163.2</ele><time>2026-05-03T13:09:25.369Z</time></trkpt><trkpt lat="44.4304411" lon="8.5783815"><ele>1163.8</ele><time>2026-05-03T13:09:26.37Z</time></trkpt><trkpt lat="44.4303842" lon="8.5782645"><ele>1164.4</ele><time>2026-05-03T13:09:27.37Z</time></trkpt><trkpt lat="44.4303272" lon="8.5781336"><ele>1165.0</ele><time>2026-05-03T13:09:28.37Z</time></trkpt><trkpt lat="44.4302851" lon="8.5780084"><ele>1165.0</ele><time>2026-05-03T13:09:29.369Z</time></trkpt><trkpt lat="44.4302383" lon="8.5778798"><ele>1165.0</ele><time>2026-05-03T13:09:30.369Z</time></trkpt><trkpt lat="44.4301839" lon="8.5777641"><ele>1165.0</ele><time>2026-05-03T13:09:31.369Z</time></trkpt><trkpt lat="44.4301273" lon="8.5776511"><ele>1165.0</ele><time>2026-05-03T13:09:32.369Z</time></trkpt><trkpt lat="44.4300789" lon="8.5775406"><ele>1165.0</ele><time>2026-05-03T13:09:33.37Z</time></trkpt><trkpt lat="44.4300492" lon="8.5774136"><ele>1166.6666666666665</ele><time>2026-05-03T13:09:34.369Z</time></trkpt><trkpt lat="44.4300331" lon="8.5772795"><ele>1168.3333333333333</ele><time>2026-05-03T13:09:35.369Z</time></trkpt><trkpt lat="44.4300367" lon="8.5771482"><ele>1170.0</ele><time>2026-05-03T13:09:36.369Z</time></trkpt><trkpt lat="44.43006" lon="8.5770269"><ele>1171.6666666666667</ele><time>2026-05-03T13:09:37.369Z</time></trkpt><trkpt lat="44.4300856" lon="8.5769125"><ele>1173.3333333333335</ele><time>2026-05-03T13:09:38.369Z</time></trkpt><trkpt lat="44.430104" lon="8.5768041"><ele>1175.0</ele><time>2026-05-03T13:09:39.369Z</time></trkpt><trkpt lat="44.4301312" lon="8.5767066"><ele>1176.1666666666667</ele><time>2026-05-03T13:09:40.369Z</time></trkpt><trkpt lat="44.4301753" lon="8.5766091"><ele>1177.3333333333335</ele><time>2026-05-03T13:09:41.369Z</time></trkpt><trkpt lat="44.4302352" lon="8.5765243"><ele>1178.5</ele><time>2026-05-03T13:09:42.369Z</time></trkpt><trkpt lat="44.4303136" lon="8.576466"><ele>1179.6666666666667</ele><time>2026-05-03T13:09:43.369Z</time></trkpt><trkpt lat="44.4304017" lon="8.5764253"><ele>1180.8333333333333</ele><time>2026-05-03T13:09:44.369Z</time></trkpt><trkpt lat="44.4304922" lon="8.5764016"><ele>1182.0</ele><time>2026-05-03T13:09:45.37Z</time></trkpt><trkpt lat="44.4305794" lon="8.5763783"><ele>1183.3333333333333</ele><time>2026-05-03T13:09:46.369Z</time></trkpt><trkpt lat="44.4306567" lon="8.5763377"><ele>1184.6666666666667</ele><time>2026-05-03T13:09:47.369Z</time></trkpt><trkpt lat="44.4307111" lon="8.5762708"><ele>1186.0</ele><time>2026-05-03T13:09:48.37Z</time></trkpt><trkpt lat="44.4307538" lon="8.5761758"><ele>1187.3333333333335</ele><time>2026-05-03T13:09:49.369Z</time></trkpt><trkpt lat="44.4307985" lon="8.5760695"><ele>1188.6666666666667</ele><time>2026-05-03T13:09:50.369Z</time></trkpt><trkpt lat="44.430841" lon="8.5759579"><ele>1190.0</ele><time>2026-05-03T13:09:51.37Z</time></trkpt><trkpt lat="44.4308789" lon="8.5758429"><ele>1191.0</ele><time>2026-05-03T13:09:52.37Z</time></trkpt><trkpt lat="44.4309127" lon="8.5757253"><ele>1192.0</ele><time>2026-05-03T13:09:53.37Z</time></trkpt><trkpt lat="44.4309376" lon="8.5756073"><ele>1193.0</ele><time>2026-05-03T13:09:54.369Z</time></trkpt><trkpt lat="44.4309375" lon="8.575489"><ele>1194.0</ele><time>2026-05-03T13:09:55.369Z</time></trkpt><trkpt lat="44.4309114" lon="8.5753687"><ele>1195.0</ele><time>2026-05-03T13:09:56.369Z</time></trkpt><trkpt lat="44.430874" lon="8.5752617"><ele>1196.0</ele><time>2026-05-03T13:09:57.369Z</time></trkpt><trkpt lat="44.4308262" lon="8.5751546"><ele>1197.6</ele><time>2026-05-03T13:09:58.369Z</time></trkpt><trkpt lat="44.4307835" lon="8.5750435"><ele>1199.1999999999998</ele><time>2026-05-03T13:09:59.369Z</time></trkpt><trkpt lat="44.4307515" lon="8.5749195"><ele>1200.8000000000002</ele><time>2026-05-03T13:10:00.37Z</time></trkpt><trkpt lat="44.430716" lon="8.5747852"><ele>1202.4</ele><time>2026-05-03T13:10:01.37Z</time></trkpt><trkpt lat="44.4306814" lon="8.5746458"><ele>1204.0</ele><time>2026-05-03T13:10:02.369Z</time></trkpt><trkpt lat="44.4306439" lon="8.574508"><ele>1204.2</ele><time>2026-05-03T13:10:03.369Z</time></trkpt><trkpt lat="44.4306043" lon="8.5743767"><ele>1204.4</ele><time>2026-05-03T13:10:04.369Z</time></trkpt><trkpt lat="44.430564" lon="8.5742511"><ele>1204.6</ele><time>2026-05-03T13:10:05.37Z</time></trkpt><trkpt lat="44.4305281" lon="8.5741306"><ele>1204.8</ele><time>2026-05-03T13:10:06.369Z</time></trkpt><trkpt lat="44.43049" lon="8.5740048"><ele>1205.0</ele><time>2026-05-03T13:10:07.369Z</time></trkpt><trkpt lat="44.4304522" lon="8.5738723"><ele>1205.0</ele><time>2026-05-03T13:10:08.37Z</time></trkpt><trkpt lat="44.4304272" lon="8.5737363"><ele>1205.0</ele><time>2026-05-03T13:10:09.369Z</time></trkpt><trkpt lat="44.4304225" lon="8.5734514"><ele>1205.0</ele><time>2026-05-03T13:10:11.37Z</time></trkpt><trkpt lat="44.4304313" lon="8.5733111"><ele>1205.0</ele><time>2026-05-03T13:10:12.369Z</time></trkpt><trkpt lat="44.430444" lon="8.5731802"><ele>1206.0</ele><time>2026-05-03T13:10:13.37Z</time></trkpt><trkpt lat="44.430451" lon="8.5730589"><ele>1207.0</ele><time>2026-05-03T13:10:14.369Z</time></trkpt><trkpt lat="44.4304557" lon="8.5729384"><ele>1208.0</ele><time>2026-05-03T13:10:15.369Z</time></trkpt><trkpt lat="44.4304583" lon="8.5728272"><ele>1209.0</ele><time>2026-05-03T13:10:16.37Z</time></trkpt><trkpt lat="44.4304544" lon="8.5727325"><ele>1210.0</ele><time>2026-05-03T13:10:17.369Z</time></trkpt><trkpt lat="44.430467" lon="8.5726002"><ele>1211.0</ele><time>2026-05-03T13:10:19.37Z</time></trkpt><trkpt lat="44.4305134" lon="8.5725075"><ele>1213.6666666666667</ele><time>2026-05-03T13:10:21.369Z</time></trkpt><trkpt lat="44.4306049" lon="8.5723933"><ele>1216.3333333333335</ele><time>2026-05-03T13:10:23.37Z</time></trkpt><trkpt lat="44.4306567" lon="8.5723177"><ele>1219.0</ele><time>2026-05-03T13:10:24.369Z</time></trkpt><trkpt lat="44.4307161" lon="8.5722443"><ele>1221.6666666666667</ele><time>2026-05-03T13:10:25.369Z</time></trkpt><trkpt lat="44.4307768" lon="8.5721722"><ele>1224.3333333333333</ele><time>2026-05-03T13:10:26.369Z</time></trkpt><trkpt lat="44.4308455" lon="8.5721064"><ele>1227.0</ele><time>2026-05-03T13:10:27.369Z</time></trkpt><trkpt lat="44.4309269" lon="8.5720719"><ele>1227.0</ele><time>2026-05-03T13:10:28.369Z</time></trkpt><trkpt lat="44.4310134" lon="8.572082"><ele>1227.0</ele><time>2026-05-03T13:10:29.369Z</time></trkpt><trkpt lat="44.4310937" lon="8.5721096"><ele>1227.0</ele><time>2026-05-03T13:10:30.37Z</time></trkpt><trkpt lat="44.4311734" lon="8.5721529"><ele>1227.0</ele><time>2026-05-03T13:10:31.369Z</time></trkpt><trkpt lat="44.4312552" lon="8.5722063"><ele>1227.0</ele><time>2026-05-03T13:10:32.37Z</time></trkpt><trkpt lat="44.4313325" lon="8.5722604"><ele>1227.0</ele><time>2026-05-03T13:10:33.369Z</time></trkpt><trkpt lat="44.4314074" lon="8.5723117"><ele>1229.1666666666667</ele><time>2026-05-03T13:10:34.369Z</time></trkpt><trkpt lat="44.4314834" lon="8.5723341"><ele>1231.3333333333333</ele><time>2026-05-03T13:10:35.37Z</time></trkpt><trkpt lat="44.4315532" lon="8.5723037"><ele>1233.5</ele><time>2026-05-03T13:10:36.369Z</time></trkpt><trkpt lat="44.4315977" lon="8.5722359"><ele>1235.6666666666665</ele><time>2026-05-03T13:10:37.369Z</time></trkpt><trkpt lat="44.43161" lon="8.5721337"><ele>1237.8333333333333</ele><time>2026-05-03T13:10:38.369Z</time></trkpt><trkpt lat="44.4316117" lon="8.5720107"><ele>1240.0</ele><time>2026-05-03T13:10:39.369Z</time></trkpt><trkpt lat="44.4316183" lon="8.5718674"><ele>1240.5</ele><time>2026-05-03T13:10:40.369Z</time></trkpt><trkpt lat="44.4316261" lon="8.5717142"><ele>1241.0</ele><time>2026-05-03T13:10:41.369Z</time></trkpt><trkpt lat="44.4316406" lon="8.5715563"><ele>1241.5</ele><time>2026-05-03T13:10:42.369Z</time></trkpt><trkpt lat="44.4316647" lon="8.5713968"><ele>1242.0</ele><time>2026-05-03T13:10:43.37Z</time></trkpt><trkpt lat="44.431693" lon="8.5712451"><ele>1242.25</ele><time>2026-05-03T13:10:44.369Z</time></trkpt><trkpt lat="44.4317298" lon="8.571093"><ele>1242.5</ele><time>2026-05-03T13:10:45.369Z</time></trkpt><trkpt lat="44.4317724" lon="8.5709416"><ele>1242.75</ele><time>2026-05-03T13:10:46.37Z</time></trkpt><trkpt lat="44.4318123" lon="8.570794"><ele>1243.0</ele><time>2026-05-03T13:10:47.37Z</time></trkpt><trkpt lat="44.4318528" lon="8.5706516"><ele>1243.0</ele><time>2026-05-03T13:10:48.369Z</time></trkpt><trkpt lat="44.4318901" lon="8.570523"><ele>1243.0</ele><time>2026-05-03T13:10:49.369Z</time></trkpt><trkpt lat="44.4319283" lon="8.5704163"><ele>1243.0</ele><time>2026-05-03T13:10:50.369Z</time></trkpt><trkpt lat="44.4319833" lon="8.5703286"><ele>1243.0</ele><time>2026-05-03T13:10:51.37Z</time></trkpt><trkpt lat="44.4320589" lon="8.5702517"><ele>1243.0</ele><time>2026-05-03T13:10:52.369Z</time></trkpt><trkpt lat="44.4321407" lon="8.5701808"><ele>1244.8</ele><time>2026-05-03T13:10:53.369Z</time></trkpt><trkpt lat="44.4322247" lon="8.5701054"><ele>1246.6</ele><time>2026-05-03T13:10:54.369Z</time></trkpt><trkpt lat="44.4322939" lon="8.5700142"><ele>1248.4</ele><time>2026-05-03T13:10:55.369Z</time></trkpt><trkpt lat="44.4323445" lon="8.569902"><ele>1250.2</ele><time>2026-05-03T13:10:56.369Z</time></trkpt><trkpt lat="44.4323763" lon="8.5697691"><ele>1252.0</ele><time>2026-05-03T13:10:57.369Z</time></trkpt><trkpt lat="44.4323874" lon="8.5696338"><ele>1253.6</ele><time>2026-05-03T13:10:58.37Z</time></trkpt><trkpt lat="44.4323916" lon="8.5694971"><ele>1255.2</ele><time>2026-05-03T13:10:59.369Z</time></trkpt><trkpt lat="44.4323994" lon="8.5693595"><ele>1256.8</ele><time>2026-05-03T13:11:00.369Z</time></trkpt><trkpt lat="44.4324116" lon="8.5692238"><ele>1258.4</ele><time>2026-05-03T13:11:01.37Z</time></trkpt><trkpt lat="44.4324324" lon="8.5690861"><ele>1260.0</ele><time>2026-05-03T13:11:02.37Z</time></trkpt><trkpt lat="44.432454" lon="8.5689437"><ele>1260.0</ele><time>2026-05-03T13:11:03.369Z</time></trkpt><trkpt lat="44.4324797" lon="8.5688019"><ele>1260.0</ele><time>2026-05-03T13:11:04.369Z</time></trkpt><trkpt lat="44.4325086" lon="8.568661"><ele>1260.0</ele><time>2026-05-03T13:11:05.369Z</time></trkpt><trkpt lat="44.4325391" lon="8.5685212"><ele>1260.0</ele><time>2026-05-03T13:11:06.37Z</time></trkpt><trkpt lat="44.43257" lon="8.5683824"><ele>1260.0</ele><time>2026-05-03T13:11:07.37Z</time></trkpt><trkpt lat="44.4325894" lon="8.5682391"><ele>1261.6</ele><time>2026-05-03T13:11:08.369Z</time></trkpt><trkpt lat="44.4325969" lon="8.5680939"><ele>1263.2</ele><time>2026-05-03T13:11:09.369Z</time></trkpt><trkpt lat="44.4325984" lon="8.567945"><ele>1264.8</ele><time>2026-05-03T13:11:10.369Z</time></trkpt><trkpt lat="44.4325938" lon="8.5677964"><ele>1266.4</ele><time>2026-05-03T13:11:11.369Z</time></trkpt><trkpt lat="44.4325857" lon="8.567644"><ele>1268.0</ele><time>2026-05-03T13:11:12.369Z</time></trkpt><trkpt lat="44.4325851" lon="8.5674883"><ele>1269.2</ele><time>2026-05-03T13:11:13.369Z</time></trkpt><trkpt lat="44.4325819" lon="8.5673381"><ele>1270.4</ele><time>2026-05-03T13:11:14.37Z</time></trkpt><trkpt lat="44.4325846" lon="8.5671855"><ele>1271.6000000000001</ele><time>2026-05-03T13:11:15.37Z</time></trkpt><trkpt lat="44.4325844" lon="8.5670347"><ele>1272.8</ele><time>2026-05-03T13:11:16.369Z</time></trkpt><trkpt lat="44.4325888" lon="8.5668816"><ele>1274.0</ele><time>2026-05-03T13:11:17.369Z</time></trkpt><trkpt lat="44.4325958" lon="8.5667371"><ele>1274.0</ele><time>2026-05-03T13:11:18.369Z</time></trkpt><trkpt lat="44.4326015" lon="8.5666065"><ele>1274.0</ele><time>2026-05-03T13:11:19.37Z</time></trkpt><trkpt lat="44.4326177" lon="8.5664807"><ele>1274.0</ele><time>2026-05-03T13:11:20.37Z</time></trkpt><trkpt lat="44.4326368" lon="8.5663592"><ele>1274.0</ele><time>2026-05-03T13:11:21.369Z</time></trkpt><trkpt lat="44.4326471" lon="8.5662324"><ele>1274.0</ele><time>2026-05-03T13:11:22.369Z</time></trkpt><trkpt lat="44.4326701" lon="8.5660961"><ele>1274.0</ele><time>2026-05-03T13:11:23.37Z</time></trkpt><trkpt lat="44.432702" lon="8.5659651"><ele>1274.0</ele><time>2026-05-03T13:11:24.37Z</time></trkpt><trkpt lat="44.4327337" lon="8.5658561"><ele>1274.0</ele><time>2026-05-03T13:11:25.369Z</time></trkpt><trkpt lat="44.4327671" lon="8.565738"><ele>1274.0</ele><time>2026-05-03T13:11:26.369Z</time></trkpt><trkpt lat="44.4328103" lon="8.5656213"><ele>1274.0</ele><time>2026-05-03T13:11:27.369Z</time></trkpt><trkpt lat="44.4328678" lon="8.5655195"><ele>1274.0</ele><time>2026-05-03T13:11:28.369Z</time></trkpt><trkpt lat="44.4329305" lon="8.5654393"><ele>1274.0</ele><time>2026-05-03T13:11:29.37Z</time></trkpt><trkpt lat="44.4329925" lon="8.5653636"><ele>1274.0</ele><time>2026-05-03T13:11:30.369Z</time></trkpt><trkpt lat="44.4330516" lon="8.5652953"><ele>1274.0</ele><time>2026-05-03T13:11:31.369Z</time></trkpt><trkpt lat="44.4331056" lon="8.5652188"><ele>1274.0</ele><time>2026-05-03T13:11:32.369Z</time></trkpt><trkpt lat="44.4331313" lon="8.5651173"><ele>1274.0</ele><time>2026-05-03T13:11:33.369Z</time></trkpt><trkpt lat="44.4331524" lon="8.5650239"><ele>1273.8333333333335</ele><time>2026-05-03T13:11:34.369Z</time></trkpt><trkpt lat="44.4331625" lon="8.5649302"><ele>1273.6666666666667</ele><time>2026-05-03T13:11:35.369Z</time></trkpt><trkpt lat="44.433171" lon="8.5648427"><ele>1273.5</ele><time>2026-05-03T13:11:36.369Z</time></trkpt><trkpt lat="44.4331863" lon="8.564689"><ele>1273.3333333333333</ele><time>2026-05-03T13:11:38.369Z</time></trkpt><trkpt lat="44.4331656" lon="8.5645214"><ele>1273.1666666666665</ele><time>2026-05-03T13:11:40.37Z</time></trkpt><trkpt lat="44.4331424" lon="8.564414"><ele>1273.0</ele><time>2026-05-03T13:11:41.37Z</time></trkpt><trkpt lat="44.4331174" lon="8.5643048"><ele>1273.0</ele><time>2026-05-03T13:11:42.369Z</time></trkpt><trkpt lat="44.4330954" lon="8.5641959"><ele>1273.0</ele><time>2026-05-03T13:11:43.369Z</time></trkpt><trkpt lat="44.4330703" lon="8.5640936"><ele>1273.0</ele><time>2026-05-03T13:11:44.369Z</time></trkpt><trkpt lat="44.4330477" lon="8.5639988"><ele>1273.0</ele><time>2026-05-03T13:11:45.369Z</time></trkpt><trkpt lat="44.4330294" lon="8.5639136"><ele>1273.0</ele><time>2026-05-03T13:11:46.369Z</time></trkpt><trkpt lat="44.4329748" lon="8.5637768"><ele>1273.0</ele><time>2026-05-03T13:11:48.37Z</time></trkpt><trkpt lat="44.432883" lon="8.5637352"><ele>1272.5</ele><time>2026-05-03T13:11:50.37Z</time></trkpt><trkpt lat="44.4328341" lon="8.5638069"><ele>1272.0</ele><time>2026-05-03T13:11:51.369Z</time></trkpt><trkpt lat="44.4327914" lon="8.5638901"><ele>1271.5</ele><time>2026-05-03T13:11:52.369Z</time></trkpt><trkpt lat="44.4327589" lon="8.5639849"><ele>1271.0</ele><time>2026-05-03T13:11:53.369Z</time></trkpt><trkpt lat="44.4327243" lon="8.5640839"><ele>1270.5</ele><time>2026-05-03T13:11:54.369Z</time></trkpt><trkpt lat="44.4326933" lon="8.5641875"><ele>1270.0</ele><time>2026-05-03T13:11:55.369Z</time></trkpt><trkpt lat="44.432663" lon="8.5642986"><ele>1270.0</ele><time>2026-05-03T13:11:56.37Z</time></trkpt><trkpt lat="44.4326375" lon="8.5644099"><ele>1270.0</ele><time>2026-05-03T13:11:57.369Z</time></trkpt><trkpt lat="44.432623" lon="8.5645186"><ele>1270.0</ele><time>2026-05-03T13:11:58.37Z</time></trkpt><trkpt lat="44.4326138" lon="8.5646218"><ele>1270.0</ele><time>2026-05-03T13:11:59.369Z</time></trkpt><trkpt lat="44.4325716" lon="8.5647694"><ele>1270.0</ele><time>2026-05-03T13:12:01.369Z</time></trkpt><trkpt lat="44.4324712" lon="8.5648018"><ele>1270.0</ele><time>2026-05-03T13:12:03.37Z</time></trkpt><trkpt lat="44.4324262" lon="8.564721"><ele>1270.0</ele><time>2026-05-03T13:12:04.369Z</time></trkpt><trkpt lat="44.4324031" lon="8.564547"><ele>1270.0</ele><time>2026-05-03T13:12:06.37Z</time></trkpt><trkpt lat="44.43238" lon="8.5644254"><ele>1270.0</ele><time>2026-05-03T13:12:07.369Z</time></trkpt><trkpt lat="44.4323427" lon="8.564303"><ele>1270.0</ele><time>2026-05-03T13:12:08.369Z</time></trkpt><trkpt lat="44.4322923" lon="8.5641777"><ele>1270.0</ele><time>2026-05-03T13:12:09.369Z</time></trkpt><trkpt lat="44.4322442" lon="8.5640563"><ele>1270.0</ele><time>2026-05-03T13:12:10.369Z</time></trkpt><trkpt lat="44.4321959" lon="8.5639392"><ele>1270.0</ele><time>2026-05-03T13:12:11.369Z</time></trkpt><trkpt lat="44.4321516" lon="8.5638257"><ele>1270.0</ele><time>2026-05-03T13:12:12.369Z</time></trkpt><trkpt lat="44.4321094" lon="8.5637193"><ele>1270.0</ele><time>2026-05-03T13:12:13.369Z</time></trkpt><trkpt lat="44.4320748" lon="8.5636209"><ele>1264.8</ele><time>2026-05-03T13:12:14.369Z</time></trkpt><trkpt lat="44.4320493" lon="8.5635206"><ele>1259.6</ele><time>2026-05-03T13:12:15.369Z</time></trkpt><trkpt lat="44.4320451" lon="8.56341"><ele>1254.4</ele><time>2026-05-03T13:12:16.37Z</time></trkpt><trkpt lat="44.4320526" lon="8.5632854"><ele>1249.2</ele><time>2026-05-03T13:12:17.37Z</time></trkpt><trkpt lat="44.4320746" lon="8.5631437"><ele>1244.0</ele><time>2026-05-03T13:12:18.37Z</time></trkpt><trkpt lat="44.4321021" lon="8.5629968"><ele>1242.6000000000001</ele><time>2026-05-03T13:12:19.37Z</time></trkpt><trkpt lat="44.4321234" lon="8.5628504"><ele>1241.2</ele><time>2026-05-03T13:12:20.369Z</time></trkpt><trkpt lat="44.432147" lon="8.562702"><ele>1239.8000000000002</ele><time>2026-05-03T13:12:21.369Z</time></trkpt><trkpt lat="44.4321679" lon="8.5625517"><ele>1238.4</ele><time>2026-05-03T13:12:22.369Z</time></trkpt><trkpt lat="44.4321942" lon="8.5624077"><ele>1237.0</ele><time>2026-05-03T13:12:23.369Z</time></trkpt><trkpt lat="44.4322309" lon="8.5622686"><ele>1238.8</ele><time>2026-05-03T13:12:24.369Z</time></trkpt><trkpt lat="44.432271" lon="8.5621364"><ele>1240.6</ele><time>2026-05-03T13:12:25.37Z</time></trkpt><trkpt lat="44.4323156" lon="8.5620079"><ele>1242.3999999999999</ele><time>2026-05-03T13:12:26.369Z</time></trkpt><trkpt lat="44.4323641" lon="8.5618842"><ele>1244.2</ele><time>2026-05-03T13:12:27.37Z</time></trkpt><trkpt lat="44.4324185" lon="8.5617707"><ele>1246.0</ele><time>2026-05-03T13:12:28.369Z</time></trkpt><trkpt lat="44.4324636" lon="8.5616604"><ele>1246.0</ele><time>2026-05-03T13:12:29.37Z</time></trkpt><trkpt lat="44.432491" lon="8.5615474"><ele>1246.0</ele><time>2026-05-03T13:12:30.369Z</time></trkpt><trkpt lat="44.4324889" lon="8.5614227"><ele>1246.0</ele><time>2026-05-03T13:12:31.369Z</time></trkpt><trkpt lat="44.4324932" lon="8.5612936"><ele>1246.0</ele><time>2026-05-03T13:12:32.37Z</time></trkpt><trkpt lat="44.4324515" lon="8.5611305"><ele>1246.0</ele><time>2026-05-03T13:12:33.369Z</time></trkpt><trkpt lat="44.4324241" lon="8.5609773"><ele>1245.0</ele><time>2026-05-03T13:12:34.369Z</time></trkpt><trkpt lat="44.4323854" lon="8.5608296"><ele>1244.0</ele><time>2026-05-03T13:12:35.37Z</time></trkpt><trkpt lat="44.432357" lon="8.5606754"><ele>1243.0</ele><time>2026-05-03T13:12:36.37Z</time></trkpt><trkpt lat="44.4323303" lon="8.560532"><ele>1242.0</ele><time>2026-05-03T13:12:37.369Z</time></trkpt><trkpt lat="44.4323018" lon="8.56039"><ele>1241.0</ele><time>2026-05-03T13:12:38.37Z</time></trkpt><trkpt lat="44.4322984" lon="8.5602473"><ele>1240.2</ele><time>2026-05-03T13:12:39.369Z</time></trkpt><trkpt lat="44.4322863" lon="8.5601065"><ele>1239.3999999999999</ele><time>2026-05-03T13:12:40.369Z</time></trkpt><trkpt lat="44.4322794" lon="8.5599584"><ele>1238.6</ele><time>2026-05-03T13:12:41.369Z</time></trkpt><trkpt lat="44.4322704" lon="8.559817"><ele>1237.8</ele><time>2026-05-03T13:12:42.369Z</time></trkpt><trkpt lat="44.432254" lon="8.5597039"><ele>1237.0</ele><time>2026-05-03T13:12:43.369Z</time></trkpt><trkpt lat="44.4321874" lon="8.559586"><ele>1234.4</ele><time>2026-05-03T13:12:44.369Z</time></trkpt><trkpt lat="44.4321266" lon="8.5594951"><ele>1231.8000000000002</ele><time>2026-05-03T13:12:45.37Z</time></trkpt><trkpt lat="44.4320786" lon="8.5593573"><ele>1229.2</ele><time>2026-05-03T13:12:46.369Z</time></trkpt><trkpt lat="44.4320201" lon="8.5592586"><ele>1226.6000000000001</ele><time>2026-05-03T13:12:47.369Z</time></trkpt><trkpt lat="44.43194" lon="8.5591716"><ele>1224.0</ele><time>2026-05-03T13:12:48.369Z</time></trkpt><trkpt lat="44.4318525" lon="8.5590829"><ele>1224.0</ele><time>2026-05-03T13:12:49.37Z</time></trkpt><trkpt lat="44.4317754" lon="8.5590063"><ele>1224.0</ele><time>2026-05-03T13:12:50.369Z</time></trkpt><trkpt lat="44.431704" lon="8.5589356"><ele>1224.0</ele><time>2026-05-03T13:12:51.369Z</time></trkpt><trkpt lat="44.4316339" lon="8.5588607"><ele>1224.0</ele><time>2026-05-03T13:12:52.37Z</time></trkpt><trkpt lat="44.4315789" lon="8.5587731"><ele>1224.0</ele><time>2026-05-03T13:12:53.369Z</time></trkpt><trkpt lat="44.431535" lon="8.5586675"><ele>1224.0</ele><time>2026-05-03T13:12:54.369Z</time></trkpt><trkpt lat="44.4314905" lon="8.5585408"><ele>1223.4</ele><time>2026-05-03T13:12:55.369Z</time></trkpt><trkpt lat="44.4314519" lon="8.5584154"><ele>1222.8000000000002</ele><time>2026-05-03T13:12:56.369Z</time></trkpt><trkpt lat="44.4314193" lon="8.5582938"><ele>1222.1999999999998</ele><time>2026-05-03T13:12:57.369Z</time></trkpt><trkpt lat="44.4314112" lon="8.5581634"><ele>1221.6</ele><time>2026-05-03T13:12:58.368Z</time></trkpt><trkpt lat="44.4314167" lon="8.5580215"><ele>1221.0</ele><time>2026-05-03T13:12:59.369Z</time></trkpt><trkpt lat="44.4314216" lon="8.5578863"><ele>1221.8</ele><time>2026-05-03T13:13:00.369Z</time></trkpt><trkpt lat="44.4314214" lon="8.5577497"><ele>1222.6</ele><time>2026-05-03T13:13:01.369Z</time></trkpt><trkpt lat="44.431387" lon="8.5576266"><ele>1223.4</ele><time>2026-05-03T13:13:02.369Z</time></trkpt><trkpt lat="44.4313237" lon="8.5575228"><ele>1224.2</ele><time>2026-05-03T13:13:03.37Z</time></trkpt><trkpt lat="44.4312459" lon="8.5574177"><ele>1225.0</ele><time>2026-05-03T13:13:04.369Z</time></trkpt><trkpt lat="44.4311643" lon="8.5573068"><ele>1223.4</ele><time>2026-05-03T13:13:05.369Z</time></trkpt><trkpt lat="44.4310781" lon="8.5572033"><ele>1221.8</ele><time>2026-05-03T13:13:06.369Z</time></trkpt><trkpt lat="44.430992" lon="8.557101"><ele>1220.2</ele><time>2026-05-03T13:13:07.369Z</time></trkpt><trkpt lat="44.4309095" lon="8.5570177"><ele>1218.6</ele><time>2026-05-03T13:13:08.37Z</time></trkpt><trkpt lat="44.4308272" lon="8.5569544"><ele>1217.0</ele><time>2026-05-03T13:13:09.37Z</time></trkpt><trkpt lat="44.4307483" lon="8.5568888"><ele>1217.0</ele><time>2026-05-03T13:13:10.369Z</time></trkpt><trkpt lat="44.4306886" lon="8.5567954"><ele>1217.0</ele><time>2026-05-03T13:13:11.37Z</time></trkpt><trkpt lat="44.4306426" lon="8.5566879"><ele>1217.0</ele><time>2026-05-03T13:13:12.369Z</time></trkpt><trkpt lat="44.4305931" lon="8.5565724"><ele>1217.0</ele><time>2026-05-03T13:13:13.37Z</time></trkpt><trkpt lat="44.4305303" lon="8.5564578"><ele>1217.0</ele><time>2026-05-03T13:13:14.369Z</time></trkpt><trkpt lat="44.4304556" lon="8.5563512"><ele>1214.5</ele><time>2026-05-03T13:13:15.37Z</time></trkpt><trkpt lat="44.4303813" lon="8.5562579"><ele>1212.0</ele><time>2026-05-03T13:13:16.369Z</time></trkpt><trkpt lat="44.4303057" lon="8.5561769"><ele>1209.5</ele><time>2026-05-03T13:13:17.37Z</time></trkpt><trkpt lat="44.4302469" lon="8.5560972"><ele>1207.0</ele><time>2026-05-03T13:13:18.369Z</time></trkpt><trkpt lat="44.4302013" lon="8.556006"><ele>1204.5</ele><time>2026-05-03T13:13:19.369Z</time></trkpt><trkpt lat="44.4301814" lon="8.5558974"><ele>1202.0</ele><time>2026-05-03T13:13:20.369Z</time></trkpt><trkpt lat="44.4301723" lon="8.5557772"><ele>1202.0</ele><time>2026-05-03T13:13:21.37Z</time></trkpt><trkpt lat="44.4301617" lon="8.5556493"><ele>1202.0</ele><time>2026-05-03T13:13:22.369Z</time></trkpt><trkpt lat="44.430124" lon="8.5555263"><ele>1202.0</ele><time>2026-05-03T13:13:23.369Z</time></trkpt><trkpt lat="44.4300573" lon="8.5554324"><ele>1202.0</ele><time>2026-05-03T13:13:24.369Z</time></trkpt><trkpt lat="44.4299742" lon="8.555358"><ele>1202.0</ele><time>2026-05-03T13:13:25.369Z</time></trkpt><trkpt lat="44.4298881" lon="8.5552962"><ele>1203.5</ele><time>2026-05-03T13:13:26.37Z</time></trkpt><trkpt lat="44.4298092" lon="8.5552355"><ele>1205.0</ele><time>2026-05-03T13:13:27.37Z</time></trkpt><trkpt lat="44.4297308" lon="8.5551778"><ele>1206.5</ele><time>2026-05-03T13:13:28.369Z</time></trkpt><trkpt lat="44.4296564" lon="8.555125"><ele>1208.0</ele><time>2026-05-03T13:13:29.37Z</time></trkpt><trkpt lat="44.4295878" lon="8.5550813"><ele>1209.5</ele><time>2026-05-03T13:13:30.369Z</time></trkpt><trkpt lat="44.4295283" lon="8.5550367"><ele>1211.0</ele><time>2026-05-03T13:13:31.369Z</time></trkpt><trkpt lat="44.4294714" lon="8.5549916"><ele>1206.0</ele><time>2026-05-03T13:13:32.369Z</time></trkpt><trkpt lat="44.4294148" lon="8.5549496"><ele>1201.0</ele><time>2026-05-03T13:13:33.369Z</time></trkpt><trkpt lat="44.4293209" lon="8.5548588"><ele>1196.0</ele><time>2026-05-03T13:13:35.37Z</time></trkpt><trkpt lat="44.4292893" lon="8.554716"><ele>1191.0</ele><time>2026-05-03T13:13:37.369Z</time></trkpt><trkpt lat="44.4293122" lon="8.5545861"><ele>1186.0</ele><time>2026-05-03T13:13:39.369Z</time></trkpt><trkpt lat="44.4294033" lon="8.5544669"><ele>1184.5</ele><time>2026-05-03T13:13:41.369Z</time></trkpt><trkpt lat="44.429492" lon="8.554371"><ele>1183.0</ele><time>2026-05-03T13:13:43.369Z</time></trkpt><trkpt lat="44.4295423" lon="8.5543092"><ele>1181.5</ele><time>2026-05-03T13:13:44.369Z</time></trkpt><trkpt lat="44.4295859" lon="8.5542449"><ele>1180.0</ele><time>2026-05-03T13:13:45.369Z</time></trkpt><trkpt lat="44.4296267" lon="8.5541749"><ele>1178.5</ele><time>2026-05-03T13:13:46.369Z</time></trkpt><trkpt lat="44.4297081" lon="8.5540317"><ele>1177.0</ele><time>2026-05-03T13:13:48.369Z</time></trkpt><trkpt lat="44.4297531" lon="8.5539555"><ele>1177.0</ele><time>2026-05-03T13:13:49.369Z</time></trkpt><trkpt lat="44.4297964" lon="8.5538911"><ele>1177.0</ele><time>2026-05-03T13:13:50.37Z</time></trkpt><trkpt lat="44.4298494" lon="8.5538226"><ele>1177.0</ele><time>2026-05-03T13:13:51.369Z</time></trkpt><trkpt lat="44.4299005" lon="8.5537605"><ele>1177.0</ele><time>2026-05-03T13:13:52.369Z</time></trkpt><trkpt lat="44.429961" lon="8.5537092"><ele>1177.0</ele><time>2026-05-03T13:13:53.369Z</time></trkpt><trkpt lat="44.4300207" lon="8.5536606"><ele>1177.0</ele><time>2026-05-03T13:13:54.369Z</time></trkpt><trkpt lat="44.4300788" lon="8.5536167"><ele>1177.0</ele><time>2026-05-03T13:13:55.369Z</time></trkpt><trkpt lat="44.4302083" lon="8.5535393"><ele>1177.0</ele><time>2026-05-03T13:13:57.369Z</time></trkpt><trkpt lat="44.4302845" lon="8.5535166"><ele>1177.0</ele><time>2026-05-03T13:13:58.369Z</time></trkpt><trkpt lat="44.4303498" lon="8.5534811"><ele>1177.0</ele><time>2026-05-03T13:13:59.369Z</time></trkpt><trkpt lat="44.4304122" lon="8.553441"><ele>1177.0</ele><time>2026-05-03T13:14:00.369Z</time></trkpt><trkpt lat="44.4305192" lon="8.5533532"><ele>1177.0</ele><time>2026-05-03T13:14:02.37Z</time></trkpt><trkpt lat="44.4305618" lon="8.553285"><ele>1177.0</ele><time>2026-05-03T13:14:03.369Z</time></trkpt><trkpt lat="44.4305834" lon="8.553199"><ele>1179.3333333333333</ele><time>2026-05-03T13:14:04.369Z</time></trkpt><trkpt lat="44.4305959" lon="8.5531029"><ele>1181.6666666666665</ele><time>2026-05-03T13:14:05.37Z</time></trkpt><trkpt lat="44.4306004" lon="8.5530023"><ele>1184.0</ele><time>2026-05-03T13:14:06.369Z</time></trkpt><trkpt lat="44.4306095" lon="8.5528697"><ele>1186.3333333333333</ele><time>2026-05-03T13:14:07.369Z</time></trkpt><trkpt lat="44.430622" lon="8.5527249"><ele>1188.6666666666667</ele><time>2026-05-03T13:14:08.369Z</time></trkpt><trkpt lat="44.4306357" lon="8.5525794"><ele>1191.0</ele><time>2026-05-03T13:14:09.369Z</time></trkpt><trkpt lat="44.4306604" lon="8.5524152"><ele>1191.0</ele><time>2026-05-03T13:14:10.37Z</time></trkpt><trkpt lat="44.4306674" lon="8.5522561"><ele>1191.0</ele><time>2026-05-03T13:14:11.369Z</time></trkpt><trkpt lat="44.430671" lon="8.5521053"><ele>1191.0</ele><time>2026-05-03T13:14:12.369Z</time></trkpt><trkpt lat="44.4306743" lon="8.5519608"><ele>1191.0</ele><time>2026-05-03T13:14:13.369Z</time></trkpt><trkpt lat="44.4306557" lon="8.551808"><ele>1191.0</ele><time>2026-05-03T13:14:14.37Z</time></trkpt><trkpt lat="44.4306154" lon="8.5516678"><ele>1189.75</ele><time>2026-05-03T13:14:15.369Z</time></trkpt><trkpt lat="44.4305638" lon="8.5515366"><ele>1188.5</ele><time>2026-05-03T13:14:16.369Z</time></trkpt><trkpt lat="44.4304879" lon="8.5514044"><ele>1187.25</ele><time>2026-05-03T13:14:17.369Z</time></trkpt><trkpt lat="44.4304124" lon="8.5512747"><ele>1186.0</ele><time>2026-05-03T13:14:18.369Z</time></trkpt><trkpt lat="44.4303276" lon="8.55114"><ele>1180.25</ele><time>2026-05-03T13:14:19.369Z</time></trkpt><trkpt lat="44.4302416" lon="8.5509893"><ele>1174.5</ele><time>2026-05-03T13:14:20.369Z</time></trkpt><trkpt lat="44.4301459" lon="8.5508557"><ele>1168.75</ele><time>2026-05-03T13:14:21.369Z</time></trkpt><trkpt lat="44.4300555" lon="8.5507052"><ele>1163.0</ele><time>2026-05-03T13:14:22.369Z</time></trkpt><trkpt lat="44.4299729" lon="8.5505369"><ele>1163.0</ele><time>2026-05-03T13:14:23.37Z</time></trkpt><trkpt lat="44.4298837" lon="8.5503831"><ele>1163.0</ele><time>2026-05-03T13:14:24.369Z</time></trkpt><trkpt lat="44.4297982" lon="8.5502209"><ele>1163.0</ele><time>2026-05-03T13:14:25.369Z</time></trkpt><trkpt lat="44.4297104" lon="8.5500668"><ele>1163.0</ele><time>2026-05-03T13:14:26.369Z</time></trkpt><trkpt lat="44.4296134" lon="8.5498993"><ele>1162.25</ele><time>2026-05-03T13:14:27.37Z</time></trkpt><trkpt lat="44.4295023" lon="8.5497747"><ele>1161.5</ele><time>2026-05-03T13:14:28.369Z</time></trkpt><trkpt lat="44.4293905" lon="8.549632"><ele>1160.75</ele><time>2026-05-03T13:14:29.37Z</time></trkpt><trkpt lat="44.4292769" lon="8.5495033"><ele>1160.0</ele><time>2026-05-03T13:14:30.369Z</time></trkpt><trkpt lat="44.4291604" lon="8.5493721"><ele>1160.0</ele><time>2026-05-03T13:14:31.369Z</time></trkpt><trkpt lat="44.4290397" lon="8.5492494"><ele>1160.0</ele><time>2026-05-03T13:14:32.369Z</time></trkpt><trkpt lat="44.4289195" lon="8.5491377"><ele>1160.0</ele><time>2026-05-03T13:14:33.37Z</time></trkpt><trkpt lat="44.4288082" lon="8.5490339"><ele>1160.0</ele><time>2026-05-03T13:14:34.369Z</time></trkpt><trkpt lat="44.4287087" lon="8.548939"><ele>1155.6</ele><time>2026-05-03T13:14:35.369Z</time></trkpt><trkpt lat="44.4286166" lon="8.5488478"><ele>1151.2</ele><time>2026-05-03T13:14:36.369Z</time></trkpt><trkpt lat="44.4285402" lon="8.5487401"><ele>1146.8</ele><time>2026-05-03T13:14:37.369Z</time></trkpt><trkpt lat="44.4284761" lon="8.5486216"><ele>1142.4</ele><time>2026-05-03T13:14:38.37Z</time></trkpt><trkpt lat="44.428433" lon="8.548489"><ele>1138.0</ele><time>2026-05-03T13:14:39.37Z</time></trkpt><trkpt lat="44.4284138" lon="8.5483481"><ele>1138.0</ele><time>2026-05-03T13:14:40.369Z</time></trkpt><trkpt lat="44.428414" lon="8.5482051"><ele>1138.0</ele><time>2026-05-03T13:14:41.369Z</time></trkpt><trkpt lat="44.4284356" lon="8.5480445"><ele>1138.0</ele><time>2026-05-03T13:14:42.369Z</time></trkpt><trkpt lat="44.4284547" lon="8.5478799"><ele>1138.0</ele><time>2026-05-03T13:14:43.37Z</time></trkpt><trkpt lat="44.4284742" lon="8.5477217"><ele>1137.25</ele><time>2026-05-03T13:14:44.369Z</time></trkpt><trkpt lat="44.428511" lon="8.5475744"><ele>1136.5</ele><time>2026-05-03T13:14:45.37Z</time></trkpt><trkpt lat="44.4285751" lon="8.5474273"><ele>1135.75</ele><time>2026-05-03T13:14:46.369Z</time></trkpt><trkpt lat="44.4286484" lon="8.5472707"><ele>1135.0</ele><time>2026-05-03T13:14:47.37Z</time></trkpt><trkpt lat="44.428716" lon="8.5471144"><ele>1135.25</ele><time>2026-05-03T13:14:48.369Z</time></trkpt><trkpt lat="44.4287846" lon="8.5469551"><ele>1135.5</ele><time>2026-05-03T13:14:49.37Z</time></trkpt><trkpt lat="44.4288522" lon="8.5468063"><ele>1135.75</ele><time>2026-05-03T13:14:50.369Z</time></trkpt><trkpt lat="44.4289163" lon="8.5466664"><ele>1136.0</ele><time>2026-05-03T13:14:51.369Z</time></trkpt><trkpt lat="44.428973" lon="8.5465517"><ele>1136.0</ele><time>2026-05-03T13:14:52.369Z</time></trkpt><trkpt lat="44.4290446" lon="8.5464606"><ele>1136.0</ele><time>2026-05-03T13:14:53.369Z</time></trkpt><trkpt lat="44.429119" lon="8.5463623"><ele>1136.0</ele><time>2026-05-03T13:14:54.369Z</time></trkpt><trkpt lat="44.4292346" lon="8.5462934"><ele>1136.0</ele><time>2026-05-03T13:14:55.369Z</time></trkpt><trkpt lat="44.4293559" lon="8.5462479"><ele>1132.25</ele><time>2026-05-03T13:14:56.369Z</time></trkpt><trkpt lat="44.4294812" lon="8.5461966"><ele>1128.5</ele><time>2026-05-03T13:14:57.37Z</time></trkpt><trkpt lat="44.4296051" lon="8.5461502"><ele>1124.75</ele><time>2026-05-03T13:14:58.37Z</time></trkpt><trkpt lat="44.4297287" lon="8.5461112"><ele>1121.0</ele><time>2026-05-03T13:14:59.369Z</time></trkpt><trkpt lat="44.4298366" lon="8.5460515"><ele>1121.0</ele><time>2026-05-03T13:15:00.37Z</time></trkpt><trkpt lat="44.4299317" lon="8.5459596"><ele>1121.0</ele><time>2026-05-03T13:15:01.37Z</time></trkpt><trkpt lat="44.4300306" lon="8.5458552"><ele>1121.0</ele><time>2026-05-03T13:15:02.37Z</time></trkpt><trkpt lat="44.4301302" lon="8.5457428"><ele>1121.0</ele><time>2026-05-03T13:15:03.369Z</time></trkpt><trkpt lat="44.4302276" lon="8.5456343"><ele>1121.0</ele><time>2026-05-03T13:15:04.369Z</time></trkpt><trkpt lat="44.4303102" lon="8.5455125"><ele>1121.0</ele><time>2026-05-03T13:15:05.369Z</time></trkpt><trkpt lat="44.430373" lon="8.5453758"><ele>1121.0</ele><time>2026-05-03T13:15:06.369Z</time></trkpt><trkpt lat="44.4304446" lon="8.5452469"><ele>1121.0</ele><time>2026-05-03T13:15:07.369Z</time></trkpt><trkpt lat="44.4305019" lon="8.5451206"><ele>1119.0</ele><time>2026-05-03T13:15:08.369Z</time></trkpt><trkpt lat="44.4305491" lon="8.5450303"><ele>1117.0</ele><time>2026-05-03T13:15:09.37Z</time></trkpt><trkpt lat="44.4306096" lon="8.5449352"><ele>1115.0</ele><time>2026-05-03T13:15:10.369Z</time></trkpt><trkpt lat="44.4306844" lon="8.5448454"><ele>1113.0</ele><time>2026-05-03T13:15:11.37Z</time></trkpt><trkpt lat="44.4307702" lon="8.5447698"><ele>1111.0</ele><time>2026-05-03T13:15:12.369Z</time></trkpt><trkpt lat="44.4308491" lon="8.5446971"><ele>1111.0</ele><time>2026-05-03T13:15:13.369Z</time></trkpt><trkpt lat="44.4309163" lon="8.5446138"><ele>1111.0</ele><time>2026-05-03T13:15:14.369Z</time></trkpt><trkpt lat="44.4309644" lon="8.5445117"><ele>1111.0</ele><time>2026-05-03T13:15:15.369Z</time></trkpt><trkpt lat="44.4309943" lon="8.5444064"><ele>1111.0</ele><time>2026-05-03T13:15:16.369Z</time></trkpt><trkpt lat="44.4309947" lon="8.5442921"><ele>1111.0</ele><time>2026-05-03T13:15:17.37Z</time></trkpt><trkpt lat="44.4309667" lon="8.5441795"><ele>1111.0</ele><time>2026-05-03T13:15:18.37Z</time></trkpt><trkpt lat="44.4309187" lon="8.5440937"><ele>1109.2</ele><time>2026-05-03T13:15:19.369Z</time></trkpt><trkpt lat="44.4308244" lon="8.5440547"><ele>1107.3999999999999</ele><time>2026-05-03T13:15:20.37Z</time></trkpt><trkpt lat="44.4307167" lon="8.544036"><ele>1105.6</ele><time>2026-05-03T13:15:21.369Z</time></trkpt><trkpt lat="44.4306118" lon="8.544015"><ele>1103.8</ele><time>2026-05-03T13:15:22.37Z</time></trkpt><trkpt lat="44.4305116" lon="8.543998"><ele>1102.0</ele><time>2026-05-03T13:15:23.369Z</time></trkpt><trkpt lat="44.4304182" lon="8.5439216"><ele>1101.8</ele><time>2026-05-03T13:15:24.369Z</time></trkpt><trkpt lat="44.4303463" lon="8.5438319"><ele>1101.6</ele><time>2026-05-03T13:15:25.369Z</time></trkpt><trkpt lat="44.4303076" lon="8.5436905"><ele>1101.3999999999999</ele><time>2026-05-03T13:15:26.369Z</time></trkpt><trkpt lat="44.430285" lon="8.5435353"><ele>1101.2</ele><time>2026-05-03T13:15:27.37Z</time></trkpt><trkpt lat="44.430231" lon="8.5433979"><ele>1101.0</ele><time>2026-05-03T13:15:28.369Z</time></trkpt><trkpt lat="44.4301581" lon="8.5432578"><ele>1100.6</ele><time>2026-05-03T13:15:29.369Z</time></trkpt><trkpt lat="44.4300851" lon="8.5431437"><ele>1100.1999999999998</ele><time>2026-05-03T13:15:30.369Z</time></trkpt><trkpt lat="44.4300033" lon="8.5430528"><ele>1099.8000000000002</ele><time>2026-05-03T13:15:31.37Z</time></trkpt><trkpt lat="44.4299042" lon="8.5430038"><ele>1099.4</ele><time>2026-05-03T13:15:32.369Z</time></trkpt><trkpt lat="44.4297972" lon="8.5429653"><ele>1099.0</ele><time>2026-05-03T13:15:33.369Z</time></trkpt><trkpt lat="44.4296763" lon="8.5429662"><ele>1098.5</ele><time>2026-05-03T13:15:34.369Z</time></trkpt><trkpt lat="44.4295544" lon="8.5429732"><ele>1098.0</ele><time>2026-05-03T13:15:35.369Z</time></trkpt><trkpt lat="44.429444" lon="8.5429534"><ele>1097.5</ele><time>2026-05-03T13:15:36.37Z</time></trkpt><trkpt lat="44.429334" lon="8.5429042"><ele>1097.0</ele><time>2026-05-03T13:15:37.37Z</time></trkpt><trkpt lat="44.4292257" lon="8.5428373"><ele>1097.0</ele><time>2026-05-03T13:15:38.369Z</time></trkpt><trkpt lat="44.4291035" lon="8.5427427"><ele>1097.0</ele><time>2026-05-03T13:15:39.37Z</time></trkpt><trkpt lat="44.4289878" lon="8.5426604"><ele>1097.0</ele><time>2026-05-03T13:15:40.37Z</time></trkpt><trkpt lat="44.4288845" lon="8.5425584"><ele>1097.0</ele><time>2026-05-03T13:15:41.369Z</time></trkpt><trkpt lat="44.4287816" lon="8.5424354"><ele>1093.0</ele><time>2026-05-03T13:15:42.369Z</time></trkpt><trkpt lat="44.4286921" lon="8.5423088"><ele>1089.0</ele><time>2026-05-03T13:15:43.37Z</time></trkpt><trkpt lat="44.4285992" lon="8.5421943"><ele>1085.0</ele><time>2026-05-03T13:15:44.37Z</time></trkpt><trkpt lat="44.4285283" lon="8.5420879"><ele>1081.0</ele><time>2026-05-03T13:15:45.369Z</time></trkpt><trkpt lat="44.428468" lon="8.5419611"><ele>1081.0</ele><time>2026-05-03T13:15:46.369Z</time></trkpt><trkpt lat="44.4284263" lon="8.5418028"><ele>1081.0</ele><time>2026-05-03T13:15:47.369Z</time></trkpt><trkpt lat="44.4283851" lon="8.5416323"><ele>1081.0</ele><time>2026-05-03T13:15:48.369Z</time></trkpt><trkpt lat="44.4283398" lon="8.5414798"><ele>1081.0</ele><time>2026-05-03T13:15:49.37Z</time></trkpt><trkpt lat="44.4283014" lon="8.5413417"><ele>1080.5</ele><time>2026-05-03T13:15:50.369Z</time></trkpt><trkpt lat="44.428275" lon="8.5411883"><ele>1080.0</ele><time>2026-05-03T13:15:51.37Z</time></trkpt><trkpt lat="44.4282668" lon="8.5410186"><ele>1079.5</ele><time>2026-05-03T13:15:52.37Z</time></trkpt><trkpt lat="44.4282686" lon="8.5408505"><ele>1079.0</ele><time>2026-05-03T13:15:53.369Z</time></trkpt><trkpt lat="44.4282886" lon="8.5406823"><ele>1079.0</ele><time>2026-05-03T13:15:54.369Z</time></trkpt><trkpt lat="44.4283279" lon="8.5405101"><ele>1079.0</ele><time>2026-05-03T13:15:55.369Z</time></trkpt><trkpt lat="44.4283635" lon="8.5403482"><ele>1079.0</ele><time>2026-05-03T13:15:56.37Z</time></trkpt><trkpt lat="44.4284029" lon="8.5402101"><ele>1079.0</ele><time>2026-05-03T13:15:57.37Z</time></trkpt><trkpt lat="44.4284643" lon="8.5400775"><ele>1077.0</ele><time>2026-05-03T13:15:58.369Z</time></trkpt><trkpt lat="44.4285441" lon="8.5399608"><ele>1075.0</ele><time>2026-05-03T13:15:59.369Z</time></trkpt><trkpt lat="44.4286197" lon="8.5398707"><ele>1073.0</ele><time>2026-05-03T13:16:00.369Z</time></trkpt><trkpt lat="44.4286658" lon="8.5397869"><ele>1071.0</ele><time>2026-05-03T13:16:01.369Z</time></trkpt><trkpt lat="44.4286543" lon="8.5396319"><ele>1069.0</ele><time>2026-05-03T13:16:03.369Z</time></trkpt><trkpt lat="44.4285922" lon="8.5395999"><ele>1069.0</ele><time>2026-05-03T13:16:04.369Z</time></trkpt><trkpt lat="44.4285241" lon="8.5396237"><ele>1069.0</ele><time>2026-05-03T13:16:05.37Z</time></trkpt><trkpt lat="44.4284374" lon="8.5396844"><ele>1069.0</ele><time>2026-05-03T13:16:06.369Z</time></trkpt><trkpt lat="44.428344" lon="8.5397672"><ele>1069.0</ele><time>2026-05-03T13:16:07.369Z</time></trkpt><trkpt lat="44.4282519" lon="8.5398728"><ele>1069.0</ele><time>2026-05-03T13:16:08.369Z</time></trkpt><trkpt lat="44.4281643" lon="8.5399881"><ele>1069.0</ele><time>2026-05-03T13:16:09.37Z</time></trkpt><trkpt lat="44.4280946" lon="8.5401207"><ele>1069.0</ele><time>2026-05-03T13:16:10.369Z</time></trkpt><trkpt lat="44.4280301" lon="8.5402584"><ele>1069.0</ele><time>2026-05-03T13:16:11.37Z</time></trkpt><trkpt lat="44.4279847" lon="8.5404157"><ele>1069.0</ele><time>2026-05-03T13:16:12.369Z</time></trkpt><trkpt lat="44.4279469" lon="8.5405711"><ele>1063.5</ele><time>2026-05-03T13:16:13.369Z</time></trkpt><trkpt lat="44.4279021" lon="8.540726"><ele>1058.0</ele><time>2026-05-03T13:16:14.37Z</time></trkpt><trkpt lat="44.427862" lon="8.5408817"><ele>1052.5</ele><time>2026-05-03T13:16:15.37Z</time></trkpt><trkpt lat="44.4278342" lon="8.5410401"><ele>1047.0</ele><time>2026-05-03T13:16:16.37Z</time></trkpt><trkpt lat="44.4278124" lon="8.5412006"><ele>1047.75</ele><time>2026-05-03T13:16:17.369Z</time></trkpt><trkpt lat="44.4277933" lon="8.5413628"><ele>1048.5</ele><time>2026-05-03T13:16:18.369Z</time></trkpt><trkpt lat="44.4277919" lon="8.5415361"><ele>1049.25</ele><time>2026-05-03T13:16:19.369Z</time></trkpt><trkpt lat="44.4277875" lon="8.5416995"><ele>1050.0</ele><time>2026-05-03T13:16:20.369Z</time></trkpt><trkpt lat="44.4277921" lon="8.5418681"><ele>1050.0</ele><time>2026-05-03T13:16:21.37Z</time></trkpt><trkpt lat="44.4277839" lon="8.5420344"><ele>1050.0</ele><time>2026-05-03T13:16:22.37Z</time></trkpt><trkpt lat="44.4277707" lon="8.5421953"><ele>1050.0</ele><time>2026-05-03T13:16:23.369Z</time></trkpt><trkpt lat="44.4277348" lon="8.5423378"><ele>1050.0</ele><time>2026-05-03T13:16:24.369Z</time></trkpt><trkpt lat="44.4276871" lon="8.5424645"><ele>1050.0</ele><time>2026-05-03T13:16:25.369Z</time></trkpt><trkpt lat="44.4276275" lon="8.54259"><ele>1050.6</ele><time>2026-05-03T13:16:26.37Z</time></trkpt><trkpt lat="44.4275557" lon="8.542701"><ele>1051.2</ele><time>2026-05-03T13:16:27.37Z</time></trkpt><trkpt lat="44.4274748" lon="8.5428037"><ele>1051.8</ele><time>2026-05-03T13:16:28.37Z</time></trkpt><trkpt lat="44.4273915" lon="8.5429003"><ele>1052.4</ele><time>2026-05-03T13:16:29.369Z</time></trkpt><trkpt lat="44.4272976" lon="8.5429841"><ele>1053.0</ele><time>2026-05-03T13:16:30.369Z</time></trkpt><trkpt lat="44.4272033" lon="8.5430667"><ele>1053.8</ele><time>2026-05-03T13:16:31.369Z</time></trkpt><trkpt lat="44.4270992" lon="8.5431315"><ele>1054.6</ele><time>2026-05-03T13:16:32.369Z</time></trkpt><trkpt lat="44.4270023" lon="8.5431913"><ele>1055.4</ele><time>2026-05-03T13:16:33.369Z</time></trkpt><trkpt lat="44.4268941" lon="8.5431844"><ele>1056.2</ele><time>2026-05-03T13:16:34.369Z</time></trkpt><trkpt lat="44.4267865" lon="8.543171"><ele>1057.0</ele><time>2026-05-03T13:16:35.369Z</time></trkpt><trkpt lat="44.4266737" lon="8.5431009"><ele>1057.0</ele><time>2026-05-03T13:16:36.37Z</time></trkpt><trkpt lat="44.4265744" lon="8.5430515"><ele>1057.0</ele><time>2026-05-03T13:16:37.37Z</time></trkpt><trkpt lat="44.4264887" lon="8.5429561"><ele>1057.0</ele><time>2026-05-03T13:16:38.369Z</time></trkpt><trkpt lat="44.4264326" lon="8.5428298"><ele>1057.0</ele><time>2026-05-03T13:16:39.37Z</time></trkpt><trkpt lat="44.4263638" lon="8.5426959"><ele>1057.0</ele><time>2026-05-03T13:16:40.369Z</time></trkpt><trkpt lat="44.4263017" lon="8.5425514"><ele>1054.75</ele><time>2026-05-03T13:16:41.369Z</time></trkpt><trkpt lat="44.4262418" lon="8.5423798"><ele>1052.5</ele><time>2026-05-03T13:16:42.369Z</time></trkpt><trkpt lat="44.4261848" lon="8.5422192"><ele>1050.25</ele><time>2026-05-03T13:16:43.369Z</time></trkpt><trkpt lat="44.426118" lon="8.542068"><ele>1048.0</ele><time>2026-05-03T13:16:44.369Z</time></trkpt><trkpt lat="44.4260707" lon="8.5419343"><ele>1045.75</ele><time>2026-05-03T13:16:45.369Z</time></trkpt><trkpt lat="44.4259864" lon="8.5418016"><ele>1043.5</ele><time>2026-05-03T13:16:46.37Z</time></trkpt><trkpt lat="44.4258846" lon="8.5416907"><ele>1041.25</ele><time>2026-05-03T13:16:47.369Z</time></trkpt><trkpt lat="44.4257821" lon="8.5415766"><ele>1039.0</ele><time>2026-05-03T13:16:48.369Z</time></trkpt><trkpt lat="44.4256564" lon="8.5414542"><ele>1039.0</ele><time>2026-05-03T13:16:49.369Z</time></trkpt><trkpt lat="44.4255363" lon="8.5413551"><ele>1039.0</ele><time>2026-05-03T13:16:50.369Z</time></trkpt><trkpt lat="44.4254281" lon="8.5412497"><ele>1039.0</ele><time>2026-05-03T13:16:51.369Z</time></trkpt><trkpt lat="44.4253143" lon="8.541156"><ele>1039.0</ele><time>2026-05-03T13:16:52.37Z</time></trkpt><trkpt lat="44.4252233" lon="8.5410656"><ele>1037.0</ele><time>2026-05-03T13:16:53.369Z</time></trkpt><trkpt lat="44.4251382" lon="8.5409628"><ele>1035.0</ele><time>2026-05-03T13:16:54.369Z</time></trkpt><trkpt lat="44.425072" lon="8.5408425"><ele>1033.0</ele><time>2026-05-03T13:16:55.369Z</time></trkpt><trkpt lat="44.4250273" lon="8.5406957"><ele>1031.0</ele><time>2026-05-03T13:16:56.369Z</time></trkpt><trkpt lat="44.4250283" lon="8.5405245"><ele>1029.75</ele><time>2026-05-03T13:16:57.369Z</time></trkpt><trkpt lat="44.4250433" lon="8.5403615"><ele>1028.5</ele><time>2026-05-03T13:16:58.369Z</time></trkpt><trkpt lat="44.4250772" lon="8.5401717"><ele>1027.25</ele><time>2026-05-03T13:16:59.37Z</time></trkpt><trkpt lat="44.4251071" lon="8.5400029"><ele>1026.0</ele><time>2026-05-03T13:17:00.369Z</time></trkpt><trkpt lat="44.4251437" lon="8.539823"><ele>1026.0</ele><time>2026-05-03T13:17:01.369Z</time></trkpt><trkpt lat="44.4251897" lon="8.5396524"><ele>1026.0</ele><time>2026-05-03T13:17:02.37Z</time></trkpt><trkpt lat="44.4252271" lon="8.5394671"><ele>1026.0</ele><time>2026-05-03T13:17:03.369Z</time></trkpt><trkpt lat="44.4252639" lon="8.539302"><ele>1026.0</ele><time>2026-05-03T13:17:04.37Z</time></trkpt><trkpt lat="44.4252909" lon="8.5391358"><ele>1025.75</ele><time>2026-05-03T13:17:05.369Z</time></trkpt><trkpt lat="44.4252794" lon="8.538964"><ele>1025.5</ele><time>2026-05-03T13:17:06.369Z</time></trkpt><trkpt lat="44.4252889" lon="8.5387615"><ele>1025.25</ele><time>2026-05-03T13:17:07.369Z</time></trkpt><trkpt lat="44.4252817" lon="8.5385814"><ele>1025.0</ele><time>2026-05-03T13:17:08.369Z</time></trkpt><trkpt lat="44.4252751" lon="8.538416"><ele>1023.8</ele><time>2026-05-03T13:17:09.369Z</time></trkpt><trkpt lat="44.4252856" lon="8.5382422"><ele>1022.6</ele><time>2026-05-03T13:17:10.369Z</time></trkpt><trkpt lat="44.4252682" lon="8.5381261"><ele>1021.4000000000001</ele><time>2026-05-03T13:17:11.369Z</time></trkpt><trkpt lat="44.4252401" lon="8.5380077"><ele>1020.2</ele><time>2026-05-03T13:17:12.369Z</time></trkpt><trkpt lat="44.4252012" lon="8.5379157"><ele>1019.0</ele><time>2026-05-03T13:17:13.369Z</time></trkpt><trkpt lat="44.425128" lon="8.5378407"><ele>1016.5</ele><time>2026-05-03T13:17:14.369Z</time></trkpt><trkpt lat="44.4250195" lon="8.5377478"><ele>1014.0</ele><time>2026-05-03T13:17:15.369Z</time></trkpt><trkpt lat="44.424898" lon="8.5376539"><ele>1011.5</ele><time>2026-05-03T13:17:16.369Z</time></trkpt><trkpt lat="44.4247513" lon="8.5375657"><ele>1009.0</ele><time>2026-05-03T13:17:17.369Z</time></trkpt><trkpt lat="44.424629" lon="8.537456"><ele>1008.5</ele><time>2026-05-03T13:17:18.37Z</time></trkpt><trkpt lat="44.4245172" lon="8.5373622"><ele>1008.0</ele><time>2026-05-03T13:17:19.369Z</time></trkpt><trkpt lat="44.4244069" lon="8.5372607"><ele>1007.5</ele><time>2026-05-03T13:17:20.365Z</time></trkpt><trkpt lat="44.4243353" lon="8.5371251"><ele>1007.0</ele><time>2026-05-03T13:17:21.37Z</time></trkpt><trkpt lat="44.4242597" lon="8.5369935"><ele>1005.25</ele><time>2026-05-03T13:17:22.369Z</time></trkpt><trkpt lat="44.4242122" lon="8.5368195"><ele>1003.5</ele><time>2026-05-03T13:17:23.369Z</time></trkpt><trkpt lat="44.4241943" lon="8.5366661"><ele>1001.75</ele><time>2026-05-03T13:17:24.369Z</time></trkpt><trkpt lat="44.4241562" lon="8.5365022"><ele>1000.0</ele><time>2026-05-03T13:17:25.37Z</time></trkpt><trkpt lat="44.4241203" lon="8.5363813"><ele>1000.0</ele><time>2026-05-03T13:17:26.369Z</time></trkpt><trkpt lat="44.4240894" lon="8.5362465"><ele>1000.0</ele><time>2026-05-03T13:17:27.369Z</time></trkpt><trkpt lat="44.423997" lon="8.5361596"><ele>1000.0</ele><time>2026-05-03T13:17:28.369Z</time></trkpt><trkpt lat="44.4239009" lon="8.5361077"><ele>1000.0</ele><time>2026-05-03T13:17:29.369Z</time></trkpt><trkpt lat="44.4237934" lon="8.536106"><ele>1000.0</ele><time>2026-05-03T13:17:30.369Z</time></trkpt><trkpt lat="44.4236842" lon="8.5360918"><ele>1186.0</ele><time>2026-05-03T13:17:31.369Z</time></trkpt><trkpt lat="44.4295878" lon="8.5550813"><ele>1186.0</ele><time>2026-05-03T13:13:30.369Z</time></trkpt><trkpt lat="44.4295283" lon="8.5550367"><ele>1186.0</ele><time>2026-05-03T13:13:31.369Z</time></trkpt><trkpt lat="44.4294714" lon="8.5549916"><ele>1186.0</ele><time>2026-05-03T13:13:32.369Z</time></trkpt><trkpt lat="44.4294148" lon="8.5549496"><ele>1186.0</ele><time>2026-05-03T13:13:33.369Z</time></trkpt><trkpt lat="44.4293209" lon="8.5548588"><ele>1186.0</ele><time>2026-05-03T13:13:35.37Z</time></trkpt><trkpt lat="44.4292893" lon="8.554716"><ele>1186.0</ele><time>2026-05-03T13:13:37.369Z</time></trkpt><trkpt lat="44.4293122" lon="8.5545861"><ele>1184.5</ele><time>2026-05-03T13:13:39.369Z</time></trkpt><trkpt lat="44.4294033" lon="8.5544669"><ele>1183.0</ele><time>2026-05-03T13:13:41.369Z</time></trkpt><trkpt lat="44.429492" lon="8.554371"><ele>1181.5</ele><time>2026-05-03T13:13:43.369Z</time></trkpt><trkpt lat="44.4295423" lon="8.5543092"><ele>1180.0</ele><time>2026-05-03T13:13:44.369Z</time></trkpt><trkpt lat="44.4295859" lon="8.5542449"><ele>1178.5</ele><time>2026-05-03T13:13:45.369Z</time></trkpt><trkpt lat="44.4296267" lon="8.5541749"><ele>1177.0</ele><time>2026-05-03T13:13:46.369Z</time></trkpt><trkpt lat="44.4297081" lon="8.5540317"><ele>1177.0</ele><time>2026-05-03T13:13:48.369Z</time></trkpt><trkpt lat="44.4297531" lon="8.5539555"><ele>1177.0</ele><time>2026-05-03T13:13:49.369Z</time></trkpt><trkpt lat="44.4297964" lon="8.5538911"><ele>1177.0</ele><time>2026-05-03T13:13:50.37Z</time></trkpt><trkpt lat="44.4298494" lon="8.5538226"><ele>1177.0</ele><time>2026-05-03T13:13:51.369Z</time></trkpt><trkpt lat="44.4299005" lon="8.5537605"><ele>1177.0</ele><time>2026-05-03T13:13:52.369Z</time></trkpt><trkpt lat="44.429961" lon="8.5537092"><ele>1177.0</ele><time>2026-05-03T13:13:53.369Z</time></trkpt><trkpt lat="44.4300207" lon="8.5536606"><ele>1177.0</ele><time>2026-05-03T13:13:54.369Z</time></trkpt><trkpt lat="44.4300788" lon="8.5536167"><ele>1177.0</ele><time>2026-05-03T13:13:55.369Z</time></trkpt><trkpt lat="44.4302083" lon="8.5535393"><ele>1177.0</ele><time>2026-05-03T13:13:57.369Z</time></trkpt><trkpt lat="44.4302845" lon="8.5535166"><ele>1177.0</ele><time>2026-05-03T13:13:58.369Z</time></trkpt><trkpt lat="44.4303498" lon="8.5534811"><ele>1177.0</ele><time>2026-05-03T13:13:59.369Z</time></trkpt><trkpt lat="44.4304122" lon="8.553441"><ele>1177.0</ele><time>2026-05-03T13:14:00.369Z</time></trkpt><trkpt lat="44.4305192" lon="8.5533532"><ele>1179.3333333333333</ele><time>2026-05-03T13:14:02.37Z</time></trkpt><trkpt lat="44.4305618" lon="8.553285"><ele>1181.6666666666665</ele><time>2026-05-03T13:14:03.369Z</time></trkpt><trkpt lat="44.4305834" lon="8.553199"><ele>1184.0</ele><time>2026-05-03T13:14:04.369Z</time></trkpt><trkpt lat="44.4305959" lon="8.5531029"><ele>1186.3333333333333</ele><time>2026-05-03T13:14:05.37Z</time></trkpt><trkpt lat="44.4306004" lon="8.5530023"><ele>1188.6666666666667</ele><time>2026-05-03T13:14:06.369Z</time></trkpt><trkpt lat="44.4306095" lon="8.5528697"><ele>1191.0</ele><time>2026-05-03T13:14:07.369Z</time></trkpt><trkpt lat="44.430622" lon="8.5527249"><ele>1191.0</ele><time>2026-05-03T13:14:08.369Z</time></trkpt><trkpt lat="44.4306357" lon="8.5525794"><ele>1191.0</ele><time>2026-05-03T13:14:09.369Z</time></trkpt><trkpt lat="44.4306604" lon="8.5524152"><ele>1191.0</ele><time>2026-05-03T13:14:10.37Z</time></trkpt><trkpt lat="44.4306674" lon="8.5522561"><ele>1191.0</ele><time>2026-05-03T13:14:11.369Z</time></trkpt><trkpt lat="44.430671" lon="8.5521053"><ele>1191.0</ele><time>2026-05-03T13:14:12.369Z</time></trkpt><trkpt lat="44.4306743" lon="8.5519608"><ele>1190.0</ele><time>2026-05-03T13:14:13.369Z</time></trkpt><trkpt lat="44.4306557" lon="8.551808"><ele>1189.0</ele><time>2026-05-03T13:14:14.37Z</time></trkpt><trkpt lat="44.4306154" lon="8.5516678"><ele>1188.0</ele><time>2026-05-03T13:14:15.369Z</time></trkpt><trkpt lat="44.4305638" lon="8.5515366"><ele>1187.0</ele><time>2026-05-03T13:14:16.369Z</time></trkpt><trkpt lat="44.4304879" lon="8.5514044"><ele>1186.0</ele><time>2026-05-03T13:14:17.369Z</time></trkpt><trkpt lat="44.4304124" lon="8.5512747"><ele>1180.25</ele><time>2026-05-03T13:14:18.369Z</time></trkpt><trkpt lat="44.4303276" lon="8.55114"><ele>1174.5</ele><time>2026-05-03T13:14:19.369Z</time></trkpt><trkpt lat="44.4302416" lon="8.5509893"><ele>1168.75</ele><time>2026-05-03T13:14:20.369Z</time></trkpt><trkpt lat="44.4301459" lon="8.5508557"><ele>1163.0</ele><time>2026-05-03T13:14:21.369Z</time></trkpt><trkpt lat="44.4300555" lon="8.5507052"><ele>1163.0</ele><time>2026-05-03T13:14:22.369Z</time></trkpt><trkpt lat="44.4299729" lon="8.5505369"><ele>1163.0</ele><time>2026-05-03T13:14:23.37Z</time></trkpt><trkpt lat="44.4298837" lon="8.5503831"><ele>1163.0</ele><time>2026-05-03T13:14:24.369Z</time></trkpt><trkpt lat="44.4297982" lon="8.5502209"><ele>1163.0</ele><time>2026-05-03T13:14:25.369Z</time></trkpt><trkpt lat="44.4297104" lon="8.5500668"><ele>1162.25</ele><time>2026-05-03T13:14:26.369Z</time></trkpt><trkpt lat="44.4296134" lon="8.5498993"><ele>1161.5</ele><time>2026-05-03T13:14:27.37Z</time></trkpt><trkpt lat="44.4295023" lon="8.5497747"><ele>1160.75</ele><time>2026-05-03T13:14:28.369Z</time></trkpt><trkpt lat="44.4293905" lon="8.549632"><ele>1160.0</ele><time>2026-05-03T13:14:29.37Z</time></trkpt><trkpt lat="44.4292769" lon="8.5495033"><ele>1160.0</ele><time>2026-05-03T13:14:30.369Z</time></trkpt><trkpt lat="44.4291604" lon="8.5493721"><ele>1160.0</ele><time>2026-05-03T13:14:31.369Z</time></trkpt><trkpt lat="44.4290397" lon="8.5492494"><ele>1160.0</ele><time>2026-05-03T13:14:32.369Z</time></trkpt><trkpt lat="44.4289195" lon="8.5491377"><ele>1160.0</ele><time>2026-05-03T13:14:33.37Z</time></trkpt><trkpt lat="44.4288082" lon="8.5490339"><ele>1155.6</ele><time>2026-05-03T13:14:34.369Z</time></trkpt><trkpt lat="44.4287087" lon="8.548939"><ele>1151.2</ele><time>2026-05-03T13:14:35.369Z</time></trkpt><trkpt lat="44.4286166" lon="8.5488478"><ele>1146.8</ele><time>2026-05-03T13:14:36.369Z</time></trkpt><trkpt lat="44.4285402" lon="8.5487401"><ele>1142.4</ele><time>2026-05-03T13:14:37.369Z</time></trkpt><trkpt lat="44.4284761" lon="8.5486216"><ele>1138.0</ele><time>2026-05-03T13:14:38.37Z</time></trkpt><trkpt lat="44.428433" lon="8.548489"><ele>1138.0</ele><time>2026-05-03T13:14:39.37Z</time></trkpt><trkpt lat="44.4284138" lon="8.5483481"><ele>1138.0</ele><time>2026-05-03T13:14:40.369Z</time></trkpt><trkpt lat="44.428414" lon="8.5482051"><ele>1138.0</ele><time>2026-05-03T13:14:41.369Z</time></trkpt><trkpt lat="44.4284356" lon="8.5480445"><ele>1138.0</ele><time>2026-05-03T13:14:42.369Z</time></trkpt><trkpt lat="44.4284547" lon="8.5478799"><ele>1138.0</ele><time>2026-05-03T13:14:43.37Z</time></trkpt><trkpt lat="44.4284742" lon="8.5477217"><ele>1137.25</ele><time>2026-05-03T13:14:44.369Z</time></trkpt><trkpt lat="44.428511" lon="8.5475744"><ele>1136.5</ele><time>2026-05-03T13:14:45.37Z</time></trkpt><trkpt lat="44.4285751" lon="8.5474273"><ele>1135.75</ele><time>2026-05-03T13:14:46.369Z</time></trkpt><trkpt lat="44.4286484" lon="8.5472707"><ele>1135.0</ele><time>2026-05-03T13:14:47.37Z</time></trkpt><trkpt lat="44.428716" lon="8.5471144"><ele>1135.25</ele><time>2026-05-03T13:14:48.369Z</time></trkpt><trkpt lat="44.4287846" lon="8.5469551"><ele>1135.5</ele><time>2026-05-03T13:14:49.37Z</time></trkpt><trkpt lat="44.4288522" lon="8.5468063"><ele>1135.75</ele><time>2026-05-03T13:14:50.369Z</time></trkpt><trkpt lat="44.4289163" lon="8.5466664"><ele>1136.0</ele><time>2026-05-03T13:14:51.369Z</time></trkpt><trkpt lat="44.428973" lon="8.5465517"><ele>1136.0</ele><time>2026-05-03T13:14:52.369Z</time></trkpt><trkpt lat="44.4290446" lon="8.5464606"><ele>1136.0</ele><time>2026-05-03T13:14:53.369Z</time></trkpt><trkpt lat="44.429119" lon="8.5463623"><ele>1136.0</ele><time>2026-05-03T13:14:54.369Z</time></trkpt><trkpt lat="44.4292346" lon="8.5462934"><ele>1136.0</ele><time>2026-05-03T13:14:55.369Z</time></trkpt><trkpt lat="44.4293559" lon="8.5462479"><ele>1132.25</ele><time>2026-05-03T13:14:56.369Z</time></trkpt><trkpt lat="44.4294812" lon="8.5461966"><ele>1128.5</ele><time>2026-05-03T13:14:57.37Z</time></trkpt><trkpt lat="44.4296051" lon="8.5461502"><ele>1124.75</ele><time>2026-05-03T13:14:58.37Z</time></trkpt><trkpt lat="44.4297287" lon="8.5461112"><ele>1121.0</ele><time>2026-05-03T13:14:59.369Z</time></trkpt><trkpt lat="44.4298366" lon="8.5460515"><ele>1121.0</ele><time>2026-05-03T13:15:00.37Z</time></trkpt><trkpt lat="44.4299317" lon="8.5459596"><ele>1121.0</ele><time>2026-05-03T13:15:01.37Z</time></trkpt><trkpt lat="44.4300306" lon="8.5458552"><ele>1121.0</ele><time>2026-05-03T13:15:02.37Z</time></trkpt><trkpt lat="44.4301302" lon="8.5457428"><ele>1121.0</ele><time>2026-05-03T13:15:03.369Z</time></trkpt><trkpt lat="44.4302276" lon="8.5456343"><ele>1121.0</ele><time>2026-05-03T13:15:04.369Z</time></trkpt><trkpt lat="44.4303102" lon="8.5455125"><ele>1121.0</ele><time>2026-05-03T13:15:05.369Z</time></trkpt><trkpt lat="44.430373" lon="8.5453758"><ele>1121.0</ele><time>2026-05-03T13:15:06.369Z</time></trkpt><trkpt lat="44.4304446" lon="8.5452469"><ele>1121.0</ele><time>2026-05-03T13:15:07.369Z</time></trkpt><trkpt lat="44.4305019" lon="8.5451206"><ele>1119.0</ele><time>2026-05-03T13:15:08.369Z</time></trkpt><trkpt lat="44.4305491" lon="8.5450303"><ele>1117.0</ele><time>2026-05-03T13:15:09.37Z</time></trkpt><trkpt lat="44.4306096" lon="8.5449352"><ele>1115.0</ele><time>2026-05-03T13:15:10.369Z</time></trkpt><trkpt lat="44.4306844" lon="8.5448454"><ele>1113.0</ele><time>2026-05-03T13:15:11.37Z</time></trkpt><trkpt lat="44.4307702" lon="8.5447698"><ele>1111.0</ele><time>2026-05-03T13:15:12.369Z</time></trkpt><trkpt lat="44.4308491" lon="8.5446971"><ele>1111.0</ele><time>2026-05-03T13:15:13.369Z</time></trkpt><trkpt lat="44.4309163" lon="8.5446138"><ele>1111.0</ele><time>2026-05-03T13:15:14.369Z</time></trkpt><trkpt lat="44.4309644" lon="8.5445117"><ele>1111.0</ele><time>2026-05-03T13:15:15.369Z</time></trkpt><trkpt lat="44.4309943" lon="8.5444064"><ele>1111.0</ele><time>2026-05-03T13:15:16.369Z</time></trkpt><trkpt lat="44.4309947" lon="8.5442921"><ele>1111.0</ele><time>2026-05-03T13:15:17.37Z</time></trkpt><trkpt lat="44.4309667" lon="8.5441795"><ele>1111.0</ele><time>2026-05-03T13:15:18.37Z</time></trkpt><trkpt lat="44.4309187" lon="8.5440937"><ele>1109.2</ele><time>2026-05-03T13:15:19.369Z</time></trkpt><trkpt lat="44.4308244" lon="8.5440547"><ele>1107.3999999999999</ele><time>2026-05-03T13:15:20.37Z</time></trkpt><trkpt lat="44.4307167" lon="8.544036"><ele>1105.6</ele><time>2026-05-03T13:15:21.369Z</time></trkpt><trkpt lat="44.4306118" lon="8.544015"><ele>1103.8</ele><time>2026-05-03T13:15:22.37Z</time></trkpt><trkpt lat="44.4305116" lon="8.543998"><ele>1102.0</ele><time>2026-05-03T13:15:23.369Z</time></trkpt><trkpt lat="44.4304182" lon="8.5439216"><ele>1101.8</ele><time>2026-05-03T13:15:24.369Z</time></trkpt><trkpt lat="44.4303463" lon="8.5438319"><ele>1101.6</ele><time>2026-05-03T13:15:25.369Z</time></trkpt><trkpt lat="44.4303076" lon="8.5436905"><ele>1101.3999999999999</ele><time>2026-05-03T13:15:26.369Z</time></trkpt><trkpt lat="44.430285" lon="8.5435353"><ele>1101.2</ele><time>2026-05-03T13:15:27.37Z</time></trkpt><trkpt lat="44.430231" lon="8.5433979"><ele>1101.0</ele><time>2026-05-03T13:15:28.369Z</time></trkpt><trkpt lat="44.4301581" lon="8.5432578"><ele>1100.6</ele><time>2026-05-03T13:15:29.369Z</time></trkpt><trkpt lat="44.4300851" lon="8.5431437"><ele>1100.1999999999998</ele><time>2026-05-03T13:15:30.369Z</time></trkpt><trkpt lat="44.4300033" lon="8.5430528"><ele>1099.8000000000002</ele><time>2026-05-03T13:15:31.37Z</time></trkpt><trkpt lat="44.4299042" lon="8.5430038"><ele>1099.4</ele><time>2026-05-03T13:15:32.369Z</time></trkpt><trkpt lat="44.4297972" lon="8.5429653"><ele>1099.0</ele><time>2026-05-03T13:15:33.369Z</time></trkpt><trkpt lat="44.4296763" lon="8.5429662"><ele>1098.5</ele><time>2026-05-03T13:15:34.369Z</time></trkpt><trkpt lat="44.4295544" lon="8.5429732"><ele>1098.0</ele><time>2026-05-03T13:15:35.369Z</time></trkpt><trkpt lat="44.429444" lon="8.5429534"><ele>1097.5</ele><time>2026-05-03T13:15:36.37Z</time></trkpt><trkpt lat="44.429334" lon="8.5429042"><ele>1097.0</ele><time>2026-05-03T13:15:37.37Z</time></trkpt><trkpt lat="44.4292257" lon="8.5428373"><ele>1097.0</ele><time>2026-05-03T13:15:38.369Z</time></trkpt><trkpt lat="44.4291035" lon="8.5427427"><ele>1097.0</ele><time>2026-05-03T13:15:39.37Z</time></trkpt><trkpt lat="44.4289878" lon="8.5426604"><ele>1097.0</ele><time>2026-05-03T13:15:40.37Z</time></trkpt><trkpt lat="44.4288845" lon="8.5425584"><ele>1097.0</ele><time>2026-05-03T13:15:41.369Z</time></trkpt><trkpt lat="44.4287816" lon="8.5424354"><ele>1093.0</ele><time>2026-05-03T13:15:42.369Z</time></trkpt><trkpt lat="44.4286921" lon="8.5423088"><ele>1089.0</ele><time>2026-05-03T13:15:43.37Z</time></trkpt><trkpt lat="44.4285992" lon="8.5421943"><ele>1085.0</ele><time>2026-05-03T13:15:44.37Z</time></trkpt><trkpt lat="44.4285283" lon="8.5420879"><ele>1081.0</ele><time>2026-05-03T13:15:45.369Z</time></trkpt><trkpt lat="44.428468" lon="8.5419611"><ele>1081.0</ele><time>2026-05-03T13:15:46.369Z</time></trkpt><trkpt lat="44.4284263" lon="8.5418028"><ele>1081.0</ele><time>2026-05-03T13:15:47.369Z</time></trkpt><trkpt lat="44.4283851" lon="8.5416323"><ele>1081.0</ele><time>2026-05-03T13:15:48.369Z</time></trkpt><trkpt lat="44.4283398" lon="8.5414798"><ele>1081.0</ele><time>2026-05-03T13:15:49.37Z</time></trkpt><trkpt lat="44.4283014" lon="8.5413417"><ele>1080.5</ele><time>2026-05-03T13:15:50.369Z</time></trkpt><trkpt lat="44.428275" lon="8.5411883"><ele>1080.0</ele><time>2026-05-03T13:15:51.37Z</time></trkpt><trkpt lat="44.4282668" lon="8.5410186"><ele>1079.5</ele><time>2026-05-03T13:15:52.37Z</time></trkpt><trkpt lat="44.4282686" lon="8.5408505"><ele>1079.0</ele><time>2026-05-03T13:15:53.369Z</time></trkpt><trkpt lat="44.4282886" lon="8.5406823"><ele>1079.0</ele><time>2026-05-03T13:15:54.369Z</time></trkpt><trkpt lat="44.4283279" lon="8.5405101"><ele>1079.0</ele><time>2026-05-03T13:15:55.369Z</time></trkpt><trkpt lat="44.4283635" lon="8.5403482"><ele>1079.0</ele><time>2026-05-03T13:15:56.37Z</time></trkpt><trkpt lat="44.4284029" lon="8.5402101"><ele>1079.0</ele><time>2026-05-03T13:15:57.37Z</time></trkpt><trkpt lat="44.4284643" lon="8.5400775"><ele>1077.0</ele><time>2026-05-03T13:15:58.369Z</time></trkpt><trkpt lat="44.4285441" lon="8.5399608"><ele>1075.0</ele><time>2026-05-03T13:15:59.369Z</time></trkpt><trkpt lat="44.4286197" lon="8.5398707"><ele>1073.0</ele><time>2026-05-03T13:16:00.369Z</time></trkpt><trkpt lat="44.4286658" lon="8.5397869"><ele>1071.0</ele><time>2026-05-03T13:16:01.369Z</time></trkpt><trkpt lat="44.4286543" lon="8.5396319"><ele>1069.0</ele><time>2026-05-03T13:16:03.369Z</time></trkpt><trkpt lat="44.4285922" lon="8.5395999"><ele>1069.0</ele><time>2026-05-03T13:16:04.369Z</time></trkpt><trkpt lat="44.4285241" lon="8.5396237"><ele>1069.0</ele><time>2026-05-03T13:16:05.37Z</time></trkpt><trkpt lat="44.4284374" lon="8.5396844"><ele>1069.0</ele><time>2026-05-03T13:16:06.369Z</time></trkpt><trkpt lat="44.428344" lon="8.5397672"><ele>1069.0</ele><time>2026-05-03T13:16:07.369Z</time></trkpt><trkpt lat="44.4282519" lon="8.5398728"><ele>1069.0</ele><time>2026-05-03T13:16:08.369Z</time></trkpt><trkpt lat="44.4281643" lon="8.5399881"><ele>1069.0</ele><time>2026-05-03T13:16:09.37Z</time></trkpt><trkpt lat="44.4280946" lon="8.5401207"><ele>1069.0</ele><time>2026-05-03T13:16:10.369Z</time></trkpt><trkpt lat="44.4280301" lon="8.5402584"><ele>1069.0</ele><time>2026-05-03T13:16:11.37Z</time></trkpt><trkpt lat="44.4279847" lon="8.5404157"><ele>1069.0</ele><time>2026-05-03T13:16:12.369Z</time></trkpt><trkpt lat="44.4279469" lon="8.5405711"><ele>1063.5</ele><time>2026-05-03T13:16:13.369Z</time></trkpt><trkpt lat="44.4279021" lon="8.540726"><ele>1058.0</ele><time>2026-05-03T13:16:14.37Z</time></trkpt><trkpt lat="44.427862" lon="8.5408817"><ele>1052.5</ele><time>2026-05-03T13:16:15.37Z</time></trkpt><trkpt lat="44.4278342" lon="8.5410401"><ele>1047.0</ele><time>2026-05-03T13:16:16.37Z</time></trkpt><trkpt lat="44.4278124" lon="8.5412006"><ele>1047.75</ele><time>2026-05-03T13:16:17.369Z</time></trkpt><trkpt lat="44.4277933" lon="8.5413628"><ele>1048.5</ele><time>2026-05-03T13:16:18.369Z</time></trkpt><trkpt lat="44.4277919" lon="8.5415361"><ele>1049.25</ele><time>2026-05-03T13:16:19.369Z</time></trkpt><trkpt lat="44.4277875" lon="8.5416995"><ele>1050.0</ele><time>2026-05-03T13:16:20.369Z</time></trkpt><trkpt lat="44.4277921" lon="8.5418681"><ele>1050.0</ele><time>2026-05-03T13:16:21.37Z</time></trkpt><trkpt lat="44.4277839" lon="8.5420344"><ele>1050.0</ele><time>2026-05-03T13:16:22.37Z</time></trkpt><trkpt lat="44.4277707" lon="8.5421953"><ele>1050.0</ele><time>2026-05-03T13:16:23.369Z</time></trkpt><trkpt lat="44.4277348" lon="8.5423378"><ele>1050.0</ele><time>2026-05-03T13:16:24.369Z</time></trkpt><trkpt lat="44.4276871" lon="8.5424645"><ele>1050.0</ele><time>2026-05-03T13:16:25.369Z</time></trkpt><trkpt lat="44.4276275" lon="8.54259"><ele>1050.6</ele><time>2026-05-03T13:16:26.37Z</time></trkpt><trkpt lat="44.4275557" lon="8.542701"><ele>1051.2</ele><time>2026-05-03T13:16:27.37Z</time></trkpt><trkpt lat="44.4274748" lon="8.5428037"><ele>1051.8</ele><time>2026-05-03T13:16:28.37Z</time></trkpt><trkpt lat="44.4273915" lon="8.5429003"><ele>1052.4</ele><time>2026-05-03T13:16:29.369Z</time></trkpt><trkpt lat="44.4272976" lon="8.5429841"><ele>1053.0</ele><time>2026-05-03T13:16:30.369Z</time></trkpt><trkpt lat="44.4272033" lon="8.5430667"><ele>1053.8</ele><time>2026-05-03T13:16:31.369Z</time></trkpt><trkpt lat="44.4270992" lon="8.5431315"><ele>1054.6</ele><time>2026-05-03T13:16:32.369Z</time></trkpt><trkpt lat="44.4270023" lon="8.5431913"><ele>1055.4</ele><time>2026-05-03T13:16:33.369Z</time></trkpt><trkpt lat="44.4268941" lon="8.5431844"><ele>1056.2</ele><time>2026-05-03T13:16:34.369Z</time></trkpt><trkpt lat="44.4267865" lon="8.543171"><ele>1057.0</ele><time>2026-05-03T13:16:35.369Z</time></trkpt><trkpt lat="44.4266737" lon="8.5431009"><ele>1057.0</ele><time>2026-05-03T13:16:36.37Z</time></trkpt><trkpt lat="44.4265744" lon="8.5430515"><ele>1057.0</ele><time>2026-05-03T13:16:37.37Z</time></trkpt><trkpt lat="44.4264887" lon="8.5429561"><ele>1057.0</ele><time>2026-05-03T13:16:38.369Z</time></trkpt><trkpt lat="44.4264326" lon="8.5428298"><ele>1057.0</ele><time>2026-05-03T13:16:39.37Z</time></trkpt><trkpt lat="44.4263638" lon="8.5426959"><ele>1057.0</ele><time>2026-05-03T13:16:40.369Z</time></trkpt><trkpt lat="44.4263017" lon="8.5425514"><ele>1054.75</ele><time>2026-05-03T13:16:41.369Z</time></trkpt><trkpt lat="44.4262418" lon="8.5423798"><ele>1052.5</ele><time>2026-05-03T13:16:42.369Z</time></trkpt><trkpt lat="44.4261848" lon="8.5422192"><ele>1050.25</ele><time>2026-05-03T13:16:43.369Z</time></trkpt><trkpt lat="44.426118" lon="8.542068"><ele>1048.0</ele><time>2026-05-03T13:16:44.369Z</time></trkpt><trkpt lat="44.4260707" lon="8.5419343"><ele>1045.75</ele><time>2026-05-03T13:16:45.369Z</time></trkpt><trkpt lat="44.4259864" lon="8.5418016"><ele>1043.5</ele><time>2026-05-03T13:16:46.37Z</time></trkpt><trkpt lat="44.4258846" lon="8.5416907"><ele>1041.25</ele><time>2026-05-03T13:16:47.369Z</time></trkpt><trkpt lat="44.4257821" lon="8.5415766"><ele>1039.0</ele><time>2026-05-03T13:16:48.369Z</time></trkpt><trkpt lat="44.4256564" lon="8.5414542"><ele>1039.0</ele><time>2026-05-03T13:16:49.369Z</time></trkpt><trkpt lat="44.4255363" lon="8.5413551"><ele>1039.0</ele><time>2026-05-03T13:16:50.369Z</time></trkpt><trkpt lat="44.4254281" lon="8.5412497"><ele>1039.0</ele><time>2026-05-03T13:16:51.369Z</time></trkpt><trkpt lat="44.4253143" lon="8.541156"><ele>1039.0</ele><time>2026-05-03T13:16:52.37Z</time></trkpt><trkpt lat="44.4252233" lon="8.5410656"><ele>1037.0</ele><time>2026-05-03T13:16:53.369Z</time></trkpt><trkpt lat="44.4251382" lon="8.5409628"><ele>1035.0</ele><time>2026-05-03T13:16:54.369Z</time></trkpt><trkpt lat="44.425072" lon="8.5408425"><ele>1033.0</ele><time>2026-05-03T13:16:55.369Z</time></trkpt><trkpt lat="44.4250273" lon="8.5406957"><ele>1031.0</ele><time>2026-05-03T13:16:56.369Z</time></trkpt><trkpt lat="44.4250283" lon="8.5405245"><ele>1029.75</ele><time>2026-05-03T13:16:57.369Z</time></trkpt><trkpt lat="44.4250433" lon="8.5403615"><ele>1028.5</ele><time>2026-05-03T13:16:58.369Z</time></trkpt><trkpt lat="44.4250772" lon="8.5401717"><ele>1027.25</ele><time>2026-05-03T13:16:59.37Z</time></trkpt><trkpt lat="44.4251071" lon="8.5400029"><ele>1026.0</ele><time>2026-05-03T13:17:00.369Z</time></trkpt><trkpt lat="44.4251437" lon="8.539823"><ele>1026.0</ele><time>2026-05-03T13:17:01.369Z</time></trkpt><trkpt lat="44.4251897" lon="8.5396524"><ele>1026.0</ele><time>2026-05-03T13:17:02.37Z</time></trkpt><trkpt lat="44.4252271" lon="8.5394671"><ele>1026.0</ele><time>2026-05-03T13:17:03.369Z</time></trkpt><trkpt lat="44.4252639" lon="8.539302"><ele>1026.0</ele><time>2026-05-03T13:17:04.37Z</time></trkpt><trkpt lat="44.4252909" lon="8.5391358"><ele>1025.75</ele><time>2026-05-03T13:17:05.369Z</time></trkpt><trkpt lat="44.4252794" lon="8.538964"><ele>1025.5</ele><time>2026-05-03T13:17:06.369Z</time></trkpt><trkpt lat="44.4252889" lon="8.5387615"><ele>1025.25</ele><time>2026-05-03T13:17:07.369Z</time></trkpt><trkpt lat="44.4252817" lon="8.5385814"><ele>1025.0</ele><time>2026-05-03T13:17:08.369Z</time></trkpt><trkpt lat="44.4252751" lon="8.538416"><ele>1023.8</ele><time>2026-05-03T13:17:09.369Z</time></trkpt><trkpt lat="44.4252856" lon="8.5382422"><ele>1022.6</ele><time>2026-05-03T13:17:10.369Z</time></trkpt><trkpt lat="44.4252682" lon="8.5381261"><ele>1021.4000000000001</ele><time>2026-05-03T13:17:11.369Z</time></trkpt><trkpt lat="44.4252401" lon="8.5380077"><ele>1020.2</ele><time>2026-05-03T13:17:12.369Z</time></trkpt><trkpt lat="44.4252012" lon="8.5379157"><ele>1019.0</ele><time>2026-05-03T13:17:13.369Z</time></trkpt><trkpt lat="44.425128" lon="8.5378407"><ele>1016.5</ele><time>2026-05-03T13:17:14.369Z</time></trkpt><trkpt lat="44.4250195" lon="8.5377478"><ele>1014.0</ele><time>2026-05-03T13:17:15.369Z</time></trkpt><trkpt lat="44.424898" lon="8.5376539"><ele>1011.5</ele><time>2026-05-03T13:17:16.369Z</time></trkpt><trkpt lat="44.4247513" lon="8.5375657"><ele>1009.0</ele><time>2026-05-03T13:17:17.369Z</time></trkpt><trkpt lat="44.424629" lon="8.537456"><ele>1008.5</ele><time>2026-05-03T13:17:18.37Z</time></trkpt><trkpt lat="44.4245172" lon="8.5373622"><ele>1008.0</ele><time>2026-05-03T13:17:19.369Z</time></trkpt><trkpt lat="44.4244069" lon="8.5372607"><ele>1007.5</ele><time>2026-05-03T13:17:20.365Z</time></trkpt><trkpt lat="44.4243353" lon="8.5371251"><ele>1007.0</ele><time>2026-05-03T13:17:21.37Z</time></trkpt><trkpt lat="44.4242597" lon="8.5369935"><ele>1005.25</ele><time>2026-05-03T13:17:22.369Z</time></trkpt><trkpt lat="44.4242122" lon="8.5368195"><ele>1003.5</ele><time>2026-05-03T13:17:23.369Z</time></trkpt><trkpt lat="44.4241943" lon="8.5366661"><ele>1001.75</ele><time>2026-05-03T13:17:24.369Z</time></trkpt><trkpt lat="44.4241562" lon="8.5365022"><ele>1000.0</ele><time>2026-05-03T13:17:25.37Z</time></trkpt><trkpt lat="44.4241203" lon="8.5363813"><ele>1000.0</ele><time>2026-05-03T13:17:26.369Z</time></trkpt><trkpt lat="44.4240894" lon="8.5362465"><ele>1000.0</ele><time>2026-05-03T13:17:27.369Z</time></trkpt><trkpt lat="44.423997" lon="8.5361596"><ele>1000.0</ele><time>2026-05-03T13:17:28.369Z</time></trkpt><trkpt lat="44.4239009" lon="8.5361077"><ele>1000.0</ele><time>2026-05-03T13:17:29.369Z</time></trkpt><trkpt lat="44.4237934" lon="8.536106"><ele>1000.0</ele><time>2026-05-03T13:17:30.369Z</time></trkpt><trkpt lat="44.4236842" lon="8.5360918"><ele>998.0</ele><time>2026-05-03T13:17:31.369Z</time></trkpt><trkpt lat="44.4235791" lon="8.5362017"><ele>996.0</ele><time>2026-05-03T13:17:32.37Z</time></trkpt><trkpt lat="44.4234737" lon="8.5362781"><ele>994.0</ele><time>2026-05-03T13:17:33.369Z</time></trkpt><trkpt lat="44.4234768" lon="8.5365093"><ele>992.0</ele><time>2026-05-03T13:17:34.369Z</time></trkpt><trkpt lat="44.4234173" lon="8.5366879"><ele>992.0</ele><time>2026-05-03T13:17:35.369Z</time></trkpt><trkpt lat="44.4233615" lon="8.5368259"><ele>992.0</ele><time>2026-05-03T13:17:36.37Z</time></trkpt><trkpt lat="44.4233104" lon="8.5369711"><ele>992.0</ele><time>2026-05-03T13:17:37.369Z</time></trkpt><trkpt lat="44.4232528" lon="8.5371035"><ele>992.0</ele><time>2026-05-03T13:17:38.369Z</time></trkpt><trkpt lat="44.423225" lon="8.5372695"><ele>992.5</ele><time>2026-05-03T13:17:39.37Z</time></trkpt><trkpt lat="44.4231975" lon="8.5374513"><ele>993.0</ele><time>2026-05-03T13:17:40.37Z</time></trkpt><trkpt lat="44.4231894" lon="8.5376297"><ele>993.5</ele><time>2026-05-03T13:17:41.369Z</time></trkpt><trkpt lat="44.4231781" lon="8.5378072"><ele>994.0</ele><time>2026-05-03T13:17:42.369Z</time></trkpt><trkpt lat="44.4231677" lon="8.5379835"><ele>993.9999999999999</ele><time>2026-05-03T13:17:43.369Z</time></trkpt><trkpt lat="44.4231526" lon="8.5381353"><ele>994.0</ele><time>2026-05-03T13:17:44.369Z</time></trkpt><trkpt lat="44.423145" lon="8.5382614"><ele>994.0</ele><time>2026-05-03T13:17:45.369Z</time></trkpt><trkpt lat="44.4231246" lon="8.5383708"><ele>994.0</ele><time>2026-05-03T13:17:46.369Z</time></trkpt><trkpt lat="44.4230784" lon="8.5384493"><ele>993.9999999999999</ele><time>2026-05-03T13:17:47.37Z</time></trkpt><trkpt lat="44.4230074" lon="8.5384803"><ele>994.0</ele><time>2026-05-03T13:17:48.369Z</time></trkpt><trkpt lat="44.4229383" lon="8.5384502"><ele>989.6</ele><time>2026-05-03T13:17:49.37Z</time></trkpt><trkpt lat="44.4228978" lon="8.5383709"><ele>985.2</ele><time>2026-05-03T13:17:50.369Z</time></trkpt><trkpt lat="44.4228659" lon="8.5382613"><ele>980.8000000000001</ele><time>2026-05-03T13:17:51.369Z</time></trkpt><trkpt lat="44.4228257" lon="8.5381514"><ele>976.4000000000001</ele><time>2026-05-03T13:17:52.369Z</time></trkpt><trkpt lat="44.4227578" lon="8.5380201"><ele>972.0</ele><time>2026-05-03T13:17:53.369Z</time></trkpt><trkpt lat="44.4226924" lon="8.5378836"><ele>972.0</ele><time>2026-05-03T13:17:54.369Z</time></trkpt><trkpt lat="44.4226237" lon="8.5377454"><ele>972.0</ele><time>2026-05-03T13:17:55.369Z</time></trkpt><trkpt lat="44.4225446" lon="8.537606"><ele>972.0</ele><time>2026-05-03T13:17:56.37Z</time></trkpt><trkpt lat="44.4224745" lon="8.5375202"><ele>972.0</ele><time>2026-05-03T13:17:57.369Z</time></trkpt><trkpt lat="44.4224065" lon="8.5374128"><ele>972.0</ele><time>2026-05-03T13:17:58.369Z</time></trkpt><trkpt lat="44.4223552" lon="8.5372921"><ele>972.0</ele><time>2026-05-03T13:17:59.37Z</time></trkpt><trkpt lat="44.4223301" lon="8.5371675"><ele>972.0</ele><time>2026-05-03T13:18:00.37Z</time></trkpt><trkpt lat="44.4223158" lon="8.5370489"><ele>972.0</ele><time>2026-05-03T13:18:01.369Z</time></trkpt><trkpt lat="44.4223347" lon="8.5369095"><ele>972.0</ele><time>2026-05-03T13:18:02.369Z</time></trkpt><trkpt lat="44.4223515" lon="8.5367829"><ele>972.0</ele><time>2026-05-03T13:18:03.369Z</time></trkpt><trkpt lat="44.4223996" lon="8.5366676"><ele>971.2</ele><time>2026-05-03T13:18:04.37Z</time></trkpt><trkpt lat="44.4224384" lon="8.5365461"><ele>970.4000000000001</ele><time>2026-05-03T13:18:05.369Z</time></trkpt><trkpt lat="44.4224918" lon="8.5364386"><ele>969.5999999999999</ele><time>2026-05-03T13:18:06.369Z</time></trkpt><trkpt lat="44.4225423" lon="8.536337"><ele>968.8</ele><time>2026-05-03T13:18:07.369Z</time></trkpt><trkpt lat="44.4225956" lon="8.5362384"><ele>968.0</ele><time>2026-05-03T13:18:08.369Z</time></trkpt><trkpt lat="44.4226332" lon="8.5361306"><ele>966.2</ele><time>2026-05-03T13:18:09.369Z</time></trkpt><trkpt lat="44.4226548" lon="8.5360154"><ele>964.4</ele><time>2026-05-03T13:18:10.369Z</time></trkpt><trkpt lat="44.4226515" lon="8.5358859"><ele>962.6000000000001</ele><time>2026-05-03T13:18:11.369Z</time></trkpt><trkpt lat="44.4226419" lon="8.5357606"><ele>960.8000000000001</ele><time>2026-05-03T13:18:12.37Z</time></trkpt><trkpt lat="44.4226213" lon="8.5356376"><ele>959.0</ele><time>2026-05-03T13:18:13.37Z</time></trkpt><trkpt lat="44.4225854" lon="8.5355174"><ele>959.0</ele><time>2026-05-03T13:18:14.369Z</time></trkpt><trkpt lat="44.4225407" lon="8.53541"><ele>959.0000000000001</ele><time>2026-05-03T13:18:15.369Z</time></trkpt><trkpt lat="44.4224885" lon="8.5353036"><ele>959.0000000000001</ele><time>2026-05-03T13:18:16.369Z</time></trkpt><trkpt lat="44.4224359" lon="8.5351827"><ele>959.0</ele><time>2026-05-03T13:18:17.37Z</time></trkpt><trkpt lat="44.4223817" lon="8.5350619"><ele>959.0</ele><time>2026-05-03T13:18:18.37Z</time></trkpt><trkpt lat="44.42234" lon="8.5349326"><ele>958.5000000000001</ele><time>2026-05-03T13:18:19.369Z</time></trkpt><trkpt lat="44.4222949" lon="8.5348158"><ele>958.0</ele><time>2026-05-03T13:18:20.37Z</time></trkpt><trkpt lat="44.4222491" lon="8.5347029"><ele>957.5</ele><time>2026-05-03T13:18:21.369Z</time></trkpt><trkpt lat="44.4222292" lon="8.5346037"><ele>957.0</ele><time>2026-05-03T13:18:22.37Z</time></trkpt><trkpt lat="44.422226" lon="8.5345004"><ele>956.5000000000001</ele><time>2026-05-03T13:18:23.37Z</time></trkpt><trkpt lat="44.422233" lon="8.5343748"><ele>956.0</ele><time>2026-05-03T13:18:24.369Z</time></trkpt><trkpt lat="44.4222608" lon="8.5342426"><ele>954.8</ele><time>2026-05-03T13:18:25.37Z</time></trkpt><trkpt lat="44.4222745" lon="8.5341209"><ele>953.5999999999999</ele><time>2026-05-03T13:18:26.369Z</time></trkpt><trkpt lat="44.4222672" lon="8.5339971"><ele>952.4</ele><time>2026-05-03T13:18:27.37Z</time></trkpt><trkpt lat="44.4222452" lon="8.5338753"><ele>951.2</ele><time>2026-05-03T13:18:28.369Z</time></trkpt><trkpt lat="44.4222017" lon="8.5337598"><ele>950.0</ele><time>2026-05-03T13:18:29.369Z</time></trkpt><trkpt lat="44.4221477" lon="8.533649"><ele>945.8333333333334</ele><time>2026-05-03T13:18:30.37Z</time></trkpt><trkpt lat="44.4220831" lon="8.5335485"><ele>941.6666666666667</ele><time>2026-05-03T13:18:31.37Z</time></trkpt><trkpt lat="44.4220294" lon="8.5334383"><ele>937.5</ele><time>2026-05-03T13:18:32.369Z</time></trkpt><trkpt lat="44.4219747" lon="8.5333351"><ele>933.3333333333333</ele><time>2026-05-03T13:18:33.369Z</time></trkpt><trkpt lat="44.4219312" lon="8.5332463"><ele>929.1666666666666</ele><time>2026-05-03T13:18:34.369Z</time></trkpt><trkpt lat="44.4219172" lon="8.5331256"><ele>925.0</ele><time>2026-05-03T13:18:35.369Z</time></trkpt><trkpt lat="44.421899" lon="8.5330083"><ele>923.8333333333333</ele><time>2026-05-03T13:18:36.369Z</time></trkpt><trkpt lat="44.4219145" lon="8.5328469"><ele>922.6666666666666</ele><time>2026-05-03T13:18:37.37Z</time></trkpt><trkpt lat="44.4219173" lon="8.5327251"><ele>921.5</ele><time>2026-05-03T13:18:38.369Z</time></trkpt><trkpt lat="44.4219319" lon="8.5326103"><ele>920.3333333333333</ele><time>2026-05-03T13:18:39.369Z</time></trkpt><trkpt lat="44.4219617" lon="8.5325075"><ele>919.1666666666666</ele><time>2026-05-03T13:18:40.369Z</time></trkpt><trkpt lat="44.421996" lon="8.5324111"><ele>918.0</ele><time>2026-05-03T13:18:41.369Z</time></trkpt><trkpt lat="44.4220727" lon="8.5323455"><ele>921.2</ele><time>2026-05-03T13:18:42.369Z</time></trkpt><trkpt lat="44.4221611" lon="8.5322853"><ele>924.4</ele><time>2026-05-03T13:18:43.369Z</time></trkpt><trkpt lat="44.4222601" lon="8.5322428"><ele>927.6000000000001</ele><time>2026-05-03T13:18:44.37Z</time></trkpt><trkpt lat="44.4223825" lon="8.5322677"><ele>930.8000000000001</ele><time>2026-05-03T13:18:45.369Z</time></trkpt><trkpt lat="44.4224821" lon="8.532261"><ele>934.0</ele><time>2026-05-03T13:18:46.369Z</time></trkpt><trkpt lat="44.4225606" lon="8.5322512"><ele>934.0</ele><time>2026-05-03T13:18:47.369Z</time></trkpt><trkpt lat="44.4226226" lon="8.5322268"><ele>934.0</ele><time>2026-05-03T13:18:48.37Z</time></trkpt><trkpt lat="44.4226785" lon="8.5321113"><ele>934.0</ele><time>2026-05-03T13:18:50.369Z</time></trkpt><trkpt lat="44.4225821" lon="8.5319287"><ele>934.0</ele><time>2026-05-03T13:18:52.369Z</time></trkpt><trkpt lat="44.4224889" lon="8.5317833"><ele>931.75</ele><time>2026-05-03T13:18:53.369Z</time></trkpt><trkpt lat="44.4223967" lon="8.5316352"><ele>929.5</ele><time>2026-05-03T13:18:54.37Z</time></trkpt><trkpt lat="44.4223189" lon="8.5314819"><ele>927.25</ele><time>2026-05-03T13:18:55.37Z</time></trkpt><trkpt lat="44.422226" lon="8.5313735"><ele>925.0</ele><time>2026-05-03T13:18:56.369Z</time></trkpt><trkpt lat="44.4221323" lon="8.5312466"><ele>922.2</ele><time>2026-05-03T13:18:57.369Z</time></trkpt><trkpt lat="44.4220528" lon="8.5311223"><ele>919.4</ele><time>2026-05-03T13:18:58.369Z</time></trkpt><trkpt lat="44.4220026" lon="8.5310075"><ele>916.5999999999999</ele><time>2026-05-03T13:18:59.37Z</time></trkpt><trkpt lat="44.4219616" lon="8.5308672"><ele>913.8</ele><time>2026-05-03T13:19:00.369Z</time></trkpt><trkpt lat="44.421933" lon="8.5307484"><ele>911.0</ele><time>2026-05-03T13:19:01.369Z</time></trkpt><trkpt lat="44.4218913" lon="8.5306331"><ele>911.0000000000001</ele><time>2026-05-03T13:19:02.369Z</time></trkpt><trkpt lat="44.4218315" lon="8.5305362"><ele>911.0</ele><time>2026-05-03T13:19:03.37Z</time></trkpt><trkpt lat="44.4217616" lon="8.5304868"><ele>911.0</ele><time>2026-05-03T13:19:04.369Z</time></trkpt><trkpt lat="44.4216877" lon="8.5304343"><ele>911.0</ele><time>2026-05-03T13:19:05.369Z</time></trkpt><trkpt lat="44.4216267" lon="8.5305092"><ele>911.0000000000001</ele><time>2026-05-03T13:19:06.369Z</time></trkpt><trkpt lat="44.4215608" lon="8.530575"><ele>911.0</ele><time>2026-05-03T13:19:07.369Z</time></trkpt><trkpt lat="44.4214961" lon="8.5305942"><ele>911.0</ele><time>2026-05-03T13:19:08.37Z</time></trkpt><trkpt lat="44.4213869" lon="8.5305658"><ele>911.0</ele><time>2026-05-03T13:19:10.369Z</time></trkpt><trkpt lat="44.4213731" lon="8.5304616"><ele>911.0</ele><time>2026-05-03T13:19:11.369Z</time></trkpt><trkpt lat="44.42136" lon="8.530314"><ele>911.0</ele><time>2026-05-03T13:19:12.369Z</time></trkpt><trkpt lat="44.4214542" lon="8.5301377"><ele>908.0</ele><time>2026-05-03T13:19:13.369Z</time></trkpt><trkpt lat="44.4215918" lon="8.5299434"><ele>905.0</ele><time>2026-05-03T13:19:14.369Z</time></trkpt><trkpt lat="44.4216475" lon="8.5297731"><ele>902.0</ele><time>2026-05-03T13:19:15.369Z</time></trkpt><trkpt lat="44.4217247" lon="8.5296188"><ele>899.6</ele><time>2026-05-03T13:19:16.369Z</time></trkpt><trkpt lat="44.4217872" lon="8.5294712"><ele>897.2</ele><time>2026-05-03T13:19:17.369Z</time></trkpt><trkpt lat="44.4218418" lon="8.5293457"><ele>894.8</ele><time>2026-05-03T13:19:18.369Z</time></trkpt><trkpt lat="44.4218773" lon="8.5292204"><ele>892.4</ele><time>2026-05-03T13:19:19.369Z</time></trkpt><trkpt lat="44.4218753" lon="8.5290679"><ele>890.0</ele><time>2026-05-03T13:19:20.37Z</time></trkpt><trkpt lat="44.4218728" lon="8.5289178"><ele>890.0</ele><time>2026-05-03T13:19:21.369Z</time></trkpt><trkpt lat="44.4218741" lon="8.5287725"><ele>890.0</ele><time>2026-05-03T13:19:22.369Z</time></trkpt><trkpt lat="44.4218774" lon="8.5286469"><ele>890.0</ele><time>2026-05-03T13:19:23.369Z</time></trkpt><trkpt lat="44.4219403" lon="8.5285522"><ele>890.0</ele><time>2026-05-03T13:19:24.37Z</time></trkpt><trkpt lat="44.4220161" lon="8.5284789"><ele>890.0</ele><time>2026-05-03T13:19:25.369Z</time></trkpt><trkpt lat="44.4220945" lon="8.5284437"><ele>888.8</ele><time>2026-05-03T13:19:26.369Z</time></trkpt><trkpt lat="44.4221603" lon="8.5284189"><ele>887.6</ele><time>2026-05-03T13:19:27.369Z</time></trkpt><trkpt lat="44.4221988" lon="8.5282675"><ele>886.4000000000001</ele><time>2026-05-03T13:19:29.369Z</time></trkpt><trkpt lat="44.4221208" lon="8.5281315"><ele>885.2</ele><time>2026-05-03T13:19:31.369Z</time></trkpt><trkpt lat="44.4220525" lon="8.5280683"><ele>884.0</ele><time>2026-05-03T13:19:32.369Z</time></trkpt><trkpt lat="44.4219372" lon="8.5280782"><ele>883.8000000000001</ele><time>2026-05-03T13:19:33.37Z</time></trkpt><trkpt lat="44.4218335" lon="8.5280941"><ele>883.6000000000001</ele><time>2026-05-03T13:19:34.369Z</time></trkpt><trkpt lat="44.4217292" lon="8.5281148"><ele>883.4</ele><time>2026-05-03T13:19:35.369Z</time></trkpt><trkpt lat="44.421631" lon="8.5281393"><ele>883.2</ele><time>2026-05-03T13:19:36.37Z</time></trkpt><trkpt lat="44.4215519" lon="8.5281515"><ele>883.0</ele><time>2026-05-03T13:19:37.369Z</time></trkpt><trkpt lat="44.421483" lon="8.5281215"><ele>883.0</ele><time>2026-05-03T13:19:38.369Z</time></trkpt><trkpt lat="44.4214328" lon="8.5280496"><ele>883.0</ele><time>2026-05-03T13:19:39.369Z</time></trkpt><trkpt lat="44.4213939" lon="8.5279728"><ele>883.0</ele><time>2026-05-03T13:19:40.369Z</time></trkpt><trkpt lat="44.4214625" lon="8.5278704"><ele>883.0</ele><time>2026-05-03T13:19:41.369Z</time></trkpt><trkpt lat="44.4215305" lon="8.5277886"><ele>883.0</ele><time>2026-05-03T13:19:42.369Z</time></trkpt><trkpt lat="44.4216415" lon="8.527716"><ele>881.0</ele><time>2026-05-03T13:19:43.369Z</time></trkpt><trkpt lat="44.4217346" lon="8.527637"><ele>879.0</ele><time>2026-05-03T13:19:44.369Z</time></trkpt><trkpt lat="44.4218154" lon="8.5275563"><ele>877.0</ele><time>2026-05-03T13:19:45.37Z</time></trkpt><trkpt lat="44.4218633" lon="8.5274505"><ele>875.0</ele><time>2026-05-03T13:19:46.368Z</time></trkpt><trkpt lat="44.4218914" lon="8.5273253"><ele>873.0</ele><time>2026-05-03T13:19:47.369Z</time></trkpt><trkpt lat="44.4218779" lon="8.527189"><ele>872.5</ele><time>2026-05-03T13:19:48.369Z</time></trkpt><trkpt lat="44.4218444" lon="8.527053"><ele>872.0</ele><time>2026-05-03T13:19:49.37Z</time></trkpt><trkpt lat="44.4217783" lon="8.5269356"><ele>871.5</ele><time>2026-05-03T13:19:50.37Z</time></trkpt><trkpt lat="44.4216274" lon="8.5269544"><ele>871.0</ele><time>2026-05-03T13:19:51.369Z</time></trkpt><trkpt lat="44.4215181" lon="8.5269683"><ele>871.0</ele><time>2026-05-03T13:19:52.369Z</time></trkpt><trkpt lat="44.4213989" lon="8.5269971"><ele>871.0</ele><time>2026-05-03T13:19:53.369Z</time></trkpt><trkpt lat="44.4213197" lon="8.5271698"><ele>871.0</ele><time>2026-05-03T13:19:54.369Z</time></trkpt><trkpt lat="44.4212154" lon="8.5272914"><ele>871.0</ele><time>2026-05-03T13:19:55.37Z</time></trkpt><trkpt lat="44.4211047" lon="8.5274161"><ele>866.75</ele><time>2026-05-03T13:19:56.369Z</time></trkpt><trkpt lat="44.4209761" lon="8.5275312"><ele>862.5</ele><time>2026-05-03T13:19:57.37Z</time></trkpt><trkpt lat="44.4208429" lon="8.5275975"><ele>858.25</ele><time>2026-05-03T13:19:58.369Z</time></trkpt><trkpt lat="44.4207026" lon="8.5276617"><ele>854.0</ele><time>2026-05-03T13:19:59.369Z</time></trkpt><trkpt lat="44.4205646" lon="8.5277287"><ele>850.75</ele><time>2026-05-03T13:20:00.37Z</time></trkpt><trkpt lat="44.4204515" lon="8.5278117"><ele>847.5</ele><time>2026-05-03T13:20:01.369Z</time></trkpt><trkpt lat="44.4203525" lon="8.5279235"><ele>844.25</ele><time>2026-05-03T13:20:02.369Z</time></trkpt><trkpt lat="44.420275" lon="8.528072"><ele>841.0</ele><time>2026-05-03T13:20:03.369Z</time></trkpt><trkpt lat="44.4202125" lon="8.5282448"><ele>841.0</ele><time>2026-05-03T13:20:04.369Z</time></trkpt><trkpt lat="44.4201468" lon="8.5284253"><ele>841.0</ele><time>2026-05-03T13:20:05.369Z</time></trkpt><trkpt lat="44.4200745" lon="8.528612"><ele>841.0</ele><time>2026-05-03T13:20:06.369Z</time></trkpt><trkpt lat="44.4199984" lon="8.5287907"><ele>841.0</ele><time>2026-05-03T13:20:07.369Z</time></trkpt><trkpt lat="44.4199162" lon="8.5289656"><ele>842.0</ele><time>2026-05-03T13:20:08.369Z</time></trkpt><trkpt lat="44.4198234" lon="8.5291243"><ele>843.0</ele><time>2026-05-03T13:20:09.369Z</time></trkpt><trkpt lat="44.4197135" lon="8.5292599"><ele>844.0</ele><time>2026-05-03T13:20:10.369Z</time></trkpt><trkpt lat="44.4195892" lon="8.5293612"><ele>845.0</ele><time>2026-05-03T13:20:11.363Z</time></trkpt><trkpt lat="44.4194535" lon="8.5294305"><ele>841.25</ele><time>2026-05-03T13:20:12.369Z</time></trkpt><trkpt lat="44.4193275" lon="8.5294856"><ele>837.5</ele><time>2026-05-03T13:20:13.369Z</time></trkpt><trkpt lat="44.4192054" lon="8.5295529"><ele>833.75</ele><time>2026-05-03T13:20:14.369Z</time></trkpt><trkpt lat="44.4191167" lon="8.5296947"><ele>830.0</ele><time>2026-05-03T13:20:15.369Z</time></trkpt><trkpt lat="44.4190375" lon="8.5298659"><ele>830.0</ele><time>2026-05-03T13:20:16.369Z</time></trkpt><trkpt lat="44.4189791" lon="8.5300494"><ele>830.0</ele><time>2026-05-03T13:20:17.37Z</time></trkpt><trkpt lat="44.4189235" lon="8.530231"><ele>830.0</ele><time>2026-05-03T13:20:18.37Z</time></trkpt><trkpt lat="44.4188711" lon="8.5303936"><ele>830.0</ele><time>2026-05-03T13:20:19.369Z</time></trkpt><trkpt lat="44.4188138" lon="8.5305282"><ele>829.5</ele><time>2026-05-03T13:20:20.369Z</time></trkpt><trkpt lat="44.418736" lon="8.5306304"><ele>829.0</ele><time>2026-05-03T13:20:21.37Z</time></trkpt><trkpt lat="44.4186262" lon="8.5306919"><ele>828.5</ele><time>2026-05-03T13:20:22.37Z</time></trkpt><trkpt lat="44.418494" lon="8.5306977"><ele>828.0</ele><time>2026-05-03T13:20:23.369Z</time></trkpt><trkpt lat="44.4183586" lon="8.53067"><ele>828.0</ele><time>2026-05-03T13:20:24.369Z</time></trkpt><trkpt lat="44.4182232" lon="8.5305941"><ele>828.0</ele><time>2026-05-03T13:20:25.369Z</time></trkpt><trkpt lat="44.4181025" lon="8.5304929"><ele>828.0</ele><time>2026-05-03T13:20:26.369Z</time></trkpt><trkpt lat="44.4179994" lon="8.5303557"><ele>828.0</ele><time>2026-05-03T13:20:27.369Z</time></trkpt><trkpt lat="44.4179191" lon="8.5302131"><ele>823.0</ele><time>2026-05-03T13:20:28.37Z</time></trkpt><trkpt lat="44.4178561" lon="8.530075"><ele>818.0</ele><time>2026-05-03T13:20:29.37Z</time></trkpt><trkpt lat="44.4177858" lon="8.5299535"><ele>813.0</ele><time>2026-05-03T13:20:30.37Z</time></trkpt><trkpt lat="44.417689" lon="8.5298569"><ele>808.0</ele><time>2026-05-03T13:20:31.369Z</time></trkpt><trkpt lat="44.4175756" lon="8.5298026"><ele>808.0</ele><time>2026-05-03T13:20:32.369Z</time></trkpt><trkpt lat="44.4174489" lon="8.5297916"><ele>808.0</ele><time>2026-05-03T13:20:33.369Z</time></trkpt><trkpt lat="44.4173207" lon="8.5298201"><ele>808.0</ele><time>2026-05-03T13:20:34.369Z</time></trkpt><trkpt lat="44.4171928" lon="8.5298479"><ele>808.0</ele><time>2026-05-03T13:20:35.369Z</time></trkpt><trkpt lat="44.4170668" lon="8.5298464"><ele>808.5</ele><time>2026-05-03T13:20:36.369Z</time></trkpt><trkpt lat="44.416935" lon="8.529813"><ele>809.0</ele><time>2026-05-03T13:20:37.37Z</time></trkpt><trkpt lat="44.41681" lon="8.5297343"><ele>809.5</ele><time>2026-05-03T13:20:38.369Z</time></trkpt><trkpt lat="44.4166852" lon="8.5296207"><ele>810.0</ele><time>2026-05-03T13:20:39.369Z</time></trkpt><trkpt lat="44.4165542" lon="8.529483"><ele>804.6666666666667</ele><time>2026-05-03T13:20:40.369Z</time></trkpt><trkpt lat="44.4164282" lon="8.5293381"><ele>799.3333333333334</ele><time>2026-05-03T13:20:41.369Z</time></trkpt><trkpt lat="44.4163151" lon="8.5291827"><ele>794.0</ele><time>2026-05-03T13:20:42.369Z</time></trkpt><trkpt lat="44.41621" lon="8.5290222"><ele>794.0</ele><time>2026-05-03T13:20:43.369Z</time></trkpt><trkpt lat="44.4161119" lon="8.5288649"><ele>794.0</ele><time>2026-05-03T13:20:44.369Z</time></trkpt><trkpt lat="44.4160281" lon="8.5287163"><ele>794.0</ele><time>2026-05-03T13:20:45.369Z</time></trkpt><trkpt lat="44.4159386" lon="8.5285903"><ele>794.0</ele><time>2026-05-03T13:20:46.369Z</time></trkpt><trkpt lat="44.4158261" lon="8.5284967"><ele>785.3333333333334</ele><time>2026-05-03T13:20:47.37Z</time></trkpt><trkpt lat="44.4156898" lon="8.5284509"><ele>776.6666666666667</ele><time>2026-05-03T13:20:48.369Z</time></trkpt><trkpt lat="44.4155375" lon="8.5284673"><ele>768.0</ele><time>2026-05-03T13:20:49.369Z</time></trkpt><trkpt lat="44.4153792" lon="8.52851"><ele>765.6666666666666</ele><time>2026-05-03T13:20:50.369Z</time></trkpt><trkpt lat="44.4152212" lon="8.5285505"><ele>763.3333333333333</ele><time>2026-05-03T13:20:51.369Z</time></trkpt><trkpt lat="44.4150643" lon="8.5285699"><ele>761.0</ele><time>2026-05-03T13:20:52.369Z</time></trkpt><trkpt lat="44.4149107" lon="8.5285512"><ele>761.0</ele><time>2026-05-03T13:20:53.37Z</time></trkpt><trkpt lat="44.4147554" lon="8.5285311"><ele>761.0</ele><time>2026-05-03T13:20:54.369Z</time></trkpt><trkpt lat="44.414596" lon="8.5285402"><ele>761.0</ele><time>2026-05-03T13:20:55.369Z</time></trkpt><trkpt lat="44.4144288" lon="8.5285641"><ele>757.6666666666666</ele><time>2026-05-03T13:20:56.369Z</time></trkpt><trkpt lat="44.4142611" lon="8.5285911"><ele>754.3333333333334</ele><time>2026-05-03T13:20:57.37Z</time></trkpt><trkpt lat="44.4140934" lon="8.5286197"><ele>751.0</ele><time>2026-05-03T13:20:58.369Z</time></trkpt><trkpt lat="44.4139265" lon="8.5286679"><ele>756.6666666666667</ele><time>2026-05-03T13:20:59.37Z</time></trkpt><trkpt lat="44.4137655" lon="8.5287332"><ele>762.3333333333334</ele><time>2026-05-03T13:21:00.369Z</time></trkpt><trkpt lat="44.4136096" lon="8.5288144"><ele>768.0</ele><time>2026-05-03T13:21:01.369Z</time></trkpt><trkpt lat="44.4134554" lon="8.5288989"><ele>768.0</ele><time>2026-05-03T13:21:02.369Z</time></trkpt><trkpt lat="44.4133007" lon="8.5289727"><ele>768.0</ele><time>2026-05-03T13:21:03.369Z</time></trkpt><trkpt lat="44.4131475" lon="8.5290341"><ele>768.0</ele><time>2026-05-03T13:21:04.369Z</time></trkpt><trkpt lat="44.4129959" lon="8.5290953"><ele>762.0</ele><time>2026-05-03T13:21:05.369Z</time></trkpt><trkpt lat="44.4128457" lon="8.5291531"><ele>756.0</ele><time>2026-05-03T13:21:06.37Z</time></trkpt><trkpt lat="44.4126938" lon="8.5292043"><ele>750.0</ele><time>2026-05-03T13:21:07.369Z</time></trkpt><trkpt lat="44.412548" lon="8.5292428"><ele>750.0</ele><time>2026-05-03T13:21:08.37Z</time></trkpt><trkpt lat="44.4123947" lon="8.5292596"><ele>750.0</ele><time>2026-05-03T13:21:09.37Z</time></trkpt><trkpt lat="44.4122472" lon="8.5292453"><ele>750.0</ele><time>2026-05-03T13:21:10.37Z</time></trkpt><trkpt lat="44.4121079" lon="8.5291939"><ele>750.0</ele><time>2026-05-03T13:21:11.369Z</time></trkpt><trkpt lat="44.4119801" lon="8.5291062"><ele>749.75</ele><time>2026-05-03T13:21:12.37Z</time></trkpt><trkpt lat="44.4118622" lon="8.5289905"><ele>749.5</ele><time>2026-05-03T13:21:13.369Z</time></trkpt><trkpt lat="44.4117632" lon="8.5288602"><ele>749.25</ele><time>2026-05-03T13:21:14.369Z</time></trkpt><trkpt lat="44.4116789" lon="8.5287031"><ele>749.0</ele><time>2026-05-03T13:21:15.369Z</time></trkpt><trkpt lat="44.4116158" lon="8.52853"><ele>746.5</ele><time>2026-05-03T13:21:16.369Z</time></trkpt><trkpt lat="44.4115778" lon="8.5283493"><ele>744.0</ele><time>2026-05-03T13:21:17.369Z</time></trkpt><trkpt lat="44.4115734" lon="8.5281545"><ele>741.5</ele><time>2026-05-03T13:21:18.369Z</time></trkpt><trkpt lat="44.411585" lon="8.5279615"><ele>739.0</ele><time>2026-05-03T13:21:19.369Z</time></trkpt><trkpt lat="44.4116211" lon="8.5277727"><ele>736.75</ele><time>2026-05-03T13:21:20.369Z</time></trkpt><trkpt lat="44.4116795" lon="8.5275985"><ele>734.5</ele><time>2026-05-03T13:21:21.369Z</time></trkpt><trkpt lat="44.4117681" lon="8.52745"><ele>732.25</ele><time>2026-05-03T13:21:22.369Z</time></trkpt><trkpt lat="44.4118698" lon="8.5273153"><ele>730.0</ele><time>2026-05-03T13:21:23.369Z</time></trkpt><trkpt lat="44.4119897" lon="8.5272031"><ele>730.0</ele><time>2026-05-03T13:21:24.369Z</time></trkpt><trkpt lat="44.4121177" lon="8.5271208"><ele>730.0</ele><time>2026-05-03T13:21:25.37Z</time></trkpt><trkpt lat="44.4122582" lon="8.5270679"><ele>730.0</ele><time>2026-05-03T13:21:26.369Z</time></trkpt><trkpt lat="44.4124017" lon="8.5270219"><ele>730.0</ele><time>2026-05-03T13:21:27.369Z</time></trkpt><trkpt lat="44.4125526" lon="8.5269854"><ele>726.6666666666667</ele><time>2026-05-03T13:21:28.37Z</time></trkpt><trkpt lat="44.4127063" lon="8.5269643"><ele>723.3333333333334</ele><time>2026-05-03T13:21:29.37Z</time></trkpt><trkpt lat="44.4128549" lon="8.5269394"><ele>720.0</ele><time>2026-05-03T13:21:30.369Z</time></trkpt><trkpt lat="44.413009" lon="8.5269358"><ele>718.0</ele><time>2026-05-03T13:21:31.37Z</time></trkpt><trkpt lat="44.4131593" lon="8.5269407"><ele>716.0</ele><time>2026-05-03T13:21:32.37Z</time></trkpt><trkpt lat="44.4133127" lon="8.5269709"><ele>714.0</ele><time>2026-05-03T13:21:33.369Z</time></trkpt><trkpt lat="44.4134668" lon="8.5270212"><ele>716.0</ele><time>2026-05-03T13:21:34.369Z</time></trkpt><trkpt lat="44.4136159" lon="8.5270728"><ele>718.0</ele><time>2026-05-03T13:21:35.37Z</time></trkpt><trkpt lat="44.4137555" lon="8.5271309"><ele>720.0</ele><time>2026-05-03T13:21:36.369Z</time></trkpt><trkpt lat="44.4138905" lon="8.527171"><ele>722.0</ele><time>2026-05-03T13:21:37.369Z</time></trkpt><trkpt lat="44.414027" lon="8.5271959"><ele>722.0</ele><time>2026-05-03T13:21:38.369Z</time></trkpt><trkpt lat="44.4141587" lon="8.5271592"><ele>722.0</ele><time>2026-05-03T13:21:39.369Z</time></trkpt><trkpt lat="44.4142829" lon="8.5270932"><ele>722.0</ele><time>2026-05-03T13:21:40.369Z</time></trkpt><trkpt lat="44.4143911" lon="8.5269935"><ele>722.0</ele><time>2026-05-03T13:21:41.369Z</time></trkpt><trkpt lat="44.4144777" lon="8.5268613"><ele>715.0</ele><time>2026-05-03T13:21:42.37Z</time></trkpt><trkpt lat="44.4145338" lon="8.5266874"><ele>708.0</ele><time>2026-05-03T13:21:43.369Z</time></trkpt><trkpt lat="44.4145694" lon="8.526482"><ele>701.0</ele><time>2026-05-03T13:21:44.37Z</time></trkpt><trkpt lat="44.4146026" lon="8.5262533"><ele>698.3333333333333</ele><time>2026-05-03T13:21:45.369Z</time></trkpt><trkpt lat="44.4146413" lon="8.5260146"><ele>695.6666666666666</ele><time>2026-05-03T13:21:46.369Z</time></trkpt><trkpt lat="44.4146716" lon="8.5257652"><ele>693.0</ele><time>2026-05-03T13:21:47.369Z</time></trkpt><trkpt lat="44.414695" lon="8.5255197"><ele>691.0</ele><time>2026-05-03T13:21:48.37Z</time></trkpt><trkpt lat="44.4147101" lon="8.5252785"><ele>689.0</ele><time>2026-05-03T13:21:49.37Z</time></trkpt><trkpt lat="44.4147174" lon="8.525044"><ele>687.0</ele><time>2026-05-03T13:21:50.369Z</time></trkpt><trkpt lat="44.4147157" lon="8.5248128"><ele>687.0</ele><time>2026-05-03T13:21:51.37Z</time></trkpt><trkpt lat="44.4147099" lon="8.5245861"><ele>687.0</ele><time>2026-05-03T13:21:52.369Z</time></trkpt><trkpt lat="44.4146813" lon="8.5243656"><ele>687.0</ele><time>2026-05-03T13:21:53.37Z</time></trkpt><trkpt lat="44.4146553" lon="8.524148"><ele>686.3333333333334</ele><time>2026-05-03T13:21:54.369Z</time></trkpt><trkpt lat="44.4146262" lon="8.5239249"><ele>685.6666666666667</ele><time>2026-05-03T13:21:55.37Z</time></trkpt><trkpt lat="44.4145981" lon="8.5237042"><ele>685.0</ele><time>2026-05-03T13:21:56.369Z</time></trkpt><trkpt lat="44.4145737" lon="8.5234833"><ele>683.0</ele><time>2026-05-03T13:21:57.369Z</time></trkpt><trkpt lat="44.4145533" lon="8.5232618"><ele>681.0</ele><time>2026-05-03T13:21:58.369Z</time></trkpt><trkpt lat="44.4145293" lon="8.5230363"><ele>679.0</ele><time>2026-05-03T13:21:59.369Z</time></trkpt><trkpt lat="44.4145057" lon="8.5228157"><ele>676.3333333333334</ele><time>2026-05-03T13:22:00.369Z</time></trkpt><trkpt lat="44.4144808" lon="8.5225937"><ele>673.6666666666666</ele><time>2026-05-03T13:22:01.37Z</time></trkpt><trkpt lat="44.4144573" lon="8.5223692"><ele>671.0</ele><time>2026-05-03T13:22:02.369Z</time></trkpt><trkpt lat="44.4144319" lon="8.5221499"><ele>667.3333333333333</ele><time>2026-05-03T13:22:03.369Z</time></trkpt><trkpt lat="44.4143948" lon="8.5219359"><ele>663.6666666666666</ele><time>2026-05-03T13:22:04.369Z</time></trkpt><trkpt lat="44.4143435" lon="8.5217383"><ele>660.0</ele><time>2026-05-03T13:22:05.369Z</time></trkpt><trkpt lat="44.4142677" lon="8.5215537"><ele>660.0</ele><time>2026-05-03T13:22:06.369Z</time></trkpt><trkpt lat="44.4141742" lon="8.5213773"><ele>660.0</ele><time>2026-05-03T13:22:07.37Z</time></trkpt><trkpt lat="44.4140731" lon="8.5211873"><ele>660.0</ele><time>2026-05-03T13:22:08.369Z</time></trkpt><trkpt lat="44.4139662" lon="8.5210014"><ele>657.3333333333334</ele><time>2026-05-03T13:22:09.369Z</time></trkpt><trkpt lat="44.4138576" lon="8.5208142"><ele>654.6666666666667</ele><time>2026-05-03T13:22:10.369Z</time></trkpt><trkpt lat="44.41375" lon="8.5206223"><ele>652.0</ele><time>2026-05-03T13:22:11.369Z</time></trkpt><trkpt lat="44.4136463" lon="8.5204359"><ele>649.3333333333334</ele><time>2026-05-03T13:22:12.369Z</time></trkpt><trkpt lat="44.4135504" lon="8.5202415"><ele>646.6666666666666</ele><time>2026-05-03T13:22:13.37Z</time></trkpt><trkpt lat="44.4134574" lon="8.5200509"><ele>644.0</ele><time>2026-05-03T13:22:14.369Z</time></trkpt><trkpt lat="44.4133654" lon="8.5198639"><ele>644.0</ele><time>2026-05-03T13:22:15.37Z</time></trkpt><trkpt lat="44.4132863" lon="8.5196887"><ele>644.0</ele><time>2026-05-03T13:22:16.369Z</time></trkpt><trkpt lat="44.413218" lon="8.5195368"><ele>644.0</ele><time>2026-05-03T13:22:17.369Z</time></trkpt><trkpt lat="44.4131562" lon="8.5194185"><ele>644.0</ele><time>2026-05-03T13:22:18.37Z</time></trkpt><trkpt lat="44.413091" lon="8.5193046"><ele>644.5</ele><time>2026-05-03T13:22:19.369Z</time></trkpt><trkpt lat="44.4129987" lon="8.519299"><ele>645.0</ele><time>2026-05-03T13:22:20.369Z</time></trkpt><trkpt lat="44.4129179" lon="8.5193206"><ele>645.5</ele><time>2026-05-03T13:22:21.369Z</time></trkpt><trkpt lat="44.4128621" lon="8.5193961"><ele>646.0</ele><time>2026-05-03T13:22:22.37Z</time></trkpt><trkpt lat="44.4128468" lon="8.5195182"><ele>646.5</ele><time>2026-05-03T13:22:23.369Z</time></trkpt><trkpt lat="44.412863" lon="8.5196669"><ele>647.0</ele><time>2026-05-03T13:22:24.37Z</time></trkpt><trkpt lat="44.4128957" lon="8.5198377"><ele>646.6</ele><time>2026-05-03T13:22:25.369Z</time></trkpt><trkpt lat="44.412934" lon="8.5200109"><ele>646.2</ele><time>2026-05-03T13:22:26.37Z</time></trkpt><trkpt lat="44.4129722" lon="8.5201628"><ele>645.8</ele><time>2026-05-03T13:22:27.369Z</time></trkpt><trkpt lat="44.4130068" lon="8.5203105"><ele>645.4</ele><time>2026-05-03T13:22:28.37Z</time></trkpt><trkpt lat="44.41303" lon="8.5204198"><ele>645.0</ele><time>2026-05-03T13:22:29.369Z</time></trkpt><trkpt lat="44.4130295" lon="8.5205311"><ele>645.0</ele><time>2026-05-03T13:22:30.369Z</time></trkpt><trkpt lat="44.4129905" lon="8.520631"><ele>645.0</ele><time>2026-05-03T13:22:31.369Z</time></trkpt><trkpt lat="44.4129302" lon="8.5206948"><ele>645.0</ele><time>2026-05-03T13:22:32.369Z</time></trkpt><trkpt lat="44.4128471" lon="8.5206905"><ele>645.0</ele><time>2026-05-03T13:22:33.37Z</time></trkpt><trkpt lat="44.4127676" lon="8.5206307"><ele>645.0</ele><time>2026-05-03T13:22:34.37Z</time></trkpt><trkpt lat="44.4126696" lon="8.5205157"><ele>641.5</ele><time>2026-05-03T13:22:35.369Z</time></trkpt><trkpt lat="44.4125641" lon="8.5203896"><ele>638.0</ele><time>2026-05-03T13:22:36.37Z</time></trkpt><trkpt lat="44.412453" lon="8.5202549"><ele>634.5</ele><time>2026-05-03T13:22:37.37Z</time></trkpt><trkpt lat="44.4123385" lon="8.5201055"><ele>631.0</ele><time>2026-05-03T13:22:38.369Z</time></trkpt><trkpt lat="44.4122217" lon="8.5199562"><ele>629.3333333333334</ele><time>2026-05-03T13:22:39.369Z</time></trkpt><trkpt lat="44.4121058" lon="8.5198028"><ele>627.6666666666666</ele><time>2026-05-03T13:22:40.369Z</time></trkpt><trkpt lat="44.4119858" lon="8.5196538"><ele>626.0</ele><time>2026-05-03T13:22:41.369Z</time></trkpt><trkpt lat="44.4118609" lon="8.5195163"><ele>621.6666666666666</ele><time>2026-05-03T13:22:42.369Z</time></trkpt><trkpt lat="44.4117339" lon="8.5193812"><ele>617.3333333333334</ele><time>2026-05-03T13:22:43.369Z</time></trkpt><trkpt lat="44.4116096" lon="8.5192468"><ele>613.0</ele><time>2026-05-03T13:22:44.369Z</time></trkpt><trkpt lat="44.4114991" lon="8.51911"><ele>613.0</ele><time>2026-05-03T13:22:45.369Z</time></trkpt><trkpt lat="44.4113846" lon="8.5189915"><ele>613.0</ele><time>2026-05-03T13:22:46.369Z</time></trkpt><trkpt lat="44.4112705" lon="8.5189184"><ele>613.0</ele><time>2026-05-03T13:22:47.369Z</time></trkpt><trkpt lat="44.4111766" lon="8.5188426"><ele>613.0</ele><time>2026-05-03T13:22:48.369Z</time></trkpt><trkpt lat="44.4110944" lon="8.5188209"><ele>607.75</ele><time>2026-05-03T13:22:49.369Z</time></trkpt><trkpt lat="44.4109932" lon="8.5187948"><ele>602.5</ele><time>2026-05-03T13:22:50.369Z</time></trkpt><trkpt lat="44.4108911" lon="8.5188027"><ele>597.25</ele><time>2026-05-03T13:22:51.369Z</time></trkpt><trkpt lat="44.4108165" lon="8.5189942"><ele>592.0</ele><time>2026-05-03T13:22:52.369Z</time></trkpt><trkpt lat="44.4107414" lon="8.5191188"><ele>592.0</ele><time>2026-05-03T13:22:53.369Z</time></trkpt><trkpt lat="44.4106769" lon="8.5192702"><ele>592.0</ele><time>2026-05-03T13:22:54.37Z</time></trkpt><trkpt lat="44.4106088" lon="8.5194228"><ele>592.0</ele><time>2026-05-03T13:22:55.369Z</time></trkpt><trkpt lat="44.4105201" lon="8.5195527"><ele>592.0</ele><time>2026-05-03T13:22:56.37Z</time></trkpt><trkpt lat="44.4104084" lon="8.5196697"><ele>588.75</ele><time>2026-05-03T13:22:57.369Z</time></trkpt><trkpt lat="44.4102963" lon="8.5197841"><ele>585.5</ele><time>2026-05-03T13:22:58.369Z</time></trkpt><trkpt lat="44.4102061" lon="8.5199297"><ele>582.25</ele><time>2026-05-03T13:22:59.369Z</time></trkpt><trkpt lat="44.4101311" lon="8.5200754"><ele>579.0</ele><time>2026-05-03T13:23:00.369Z</time></trkpt><trkpt lat="44.4100357" lon="8.5201773"><ele>579.0</ele><time>2026-05-03T13:23:01.369Z</time></trkpt><trkpt lat="44.409946" lon="8.5202662"><ele>579.0</ele><time>2026-05-03T13:23:02.369Z</time></trkpt><trkpt lat="44.4098483" lon="8.5203349"><ele>579.0</ele><time>2026-05-03T13:23:03.369Z</time></trkpt><trkpt lat="44.4097644" lon="8.5204327"><ele>579.0</ele><time>2026-05-03T13:23:04.369Z</time></trkpt><trkpt lat="44.4096887" lon="8.5205287"><ele>579.0</ele><time>2026-05-03T13:23:05.369Z</time></trkpt><trkpt lat="44.4096198" lon="8.5206141"><ele>576.4285714285713</ele><time>2026-05-03T13:23:06.37Z</time></trkpt><trkpt lat="44.4095706" lon="8.5207106"><ele>573.8571428571429</ele><time>2026-05-03T13:23:07.37Z</time></trkpt><trkpt lat="44.4095286" lon="8.5208053"><ele>571.2857142857142</ele><time>2026-05-03T13:23:08.369Z</time></trkpt><trkpt lat="44.4094899" lon="8.5208891"><ele>568.7142857142857</ele><time>2026-05-03T13:23:09.369Z</time></trkpt><trkpt lat="44.4094466" lon="8.5209547"><ele>566.1428571428571</ele><time>2026-05-03T13:23:10.369Z</time></trkpt><trkpt lat="44.4093735" lon="8.5209986"><ele>563.5714285714286</ele><time>2026-05-03T13:23:11.369Z</time></trkpt><trkpt lat="44.4093318" lon="8.5210747"><ele>561.0</ele><time>2026-05-03T13:23:12.37Z</time></trkpt><trkpt lat="44.4093087" lon="8.5211718"><ele>561.8571428571429</ele><time>2026-05-03T13:23:13.369Z</time></trkpt><trkpt lat="44.4093014" lon="8.5212984"><ele>562.7142857142857</ele><time>2026-05-03T13:23:14.369Z</time></trkpt><trkpt lat="44.4092883" lon="8.5214172"><ele>563.5714285714286</ele><time>2026-05-03T13:23:15.369Z</time></trkpt><trkpt lat="44.4092749" lon="8.5215214"><ele>564.4285714285714</ele><time>2026-05-03T13:23:16.37Z</time></trkpt><trkpt lat="44.409256" lon="8.521611"><ele>565.2857142857142</ele><time>2026-05-03T13:23:17.369Z</time></trkpt><trkpt lat="44.4092323" lon="8.5216959"><ele>566.1428571428571</ele><time>2026-05-03T13:23:18.37Z</time></trkpt><trkpt lat="44.4092016" lon="8.5217765"><ele>567.0</ele><time>2026-05-03T13:23:19.369Z</time></trkpt><trkpt lat="44.4091612" lon="8.5218518"><ele>567.0</ele><time>2026-05-03T13:23:20.369Z</time></trkpt><trkpt lat="44.4091096" lon="8.5219199"><ele>567.0</ele><time>2026-05-03T13:23:21.369Z</time></trkpt><trkpt lat="44.4090597" lon="8.5219778"><ele>567.0</ele><time>2026-05-03T13:23:22.369Z</time></trkpt><trkpt lat="44.4089748" lon="8.522075"><ele>567.0</ele><time>2026-05-03T13:23:24.369Z</time></trkpt><trkpt lat="44.4089203" lon="8.522143"><ele>567.0</ele><time>2026-05-03T13:23:26.369Z</time></trkpt><trkpt lat="44.408856" lon="8.5222177"><ele>567.0</ele><time>2026-05-03T13:23:29.369Z</time></trkpt><trkpt lat="44.4087991" lon="8.5222627"><ele>565.5</ele><time>2026-05-03T13:23:32.369Z</time></trkpt><trkpt lat="44.4087146" lon="8.5222844"><ele>564.0</ele><time>2026-05-03T13:23:34.37Z</time></trkpt><trkpt lat="44.4085948" lon="8.5222648"><ele>562.5</ele><time>2026-05-03T13:23:36.369Z</time></trkpt><trkpt lat="44.4085251" lon="8.5222431"><ele>561.0</ele><time>2026-05-03T13:23:37.369Z</time></trkpt><trkpt lat="44.4084593" lon="8.522219"><ele>559.5</ele><time>2026-05-03T13:23:38.369Z</time></trkpt><trkpt lat="44.40839" lon="8.5221978"><ele>558.0</ele><time>2026-05-03T13:23:39.368Z</time></trkpt><trkpt lat="44.4083185" lon="8.5222287"><ele>558.0</ele><time>2026-05-03T13:23:40.369Z</time></trkpt><trkpt lat="44.408237" lon="8.5222878"><ele>558.0</ele><time>2026-05-03T13:23:41.369Z</time></trkpt><trkpt lat="44.4081592" lon="8.5223439"><ele>558.0</ele><time>2026-05-03T13:23:42.369Z</time></trkpt><trkpt lat="44.4080821" lon="8.5223949"><ele>558.0</ele><time>2026-05-03T13:23:43.369Z</time></trkpt><trkpt lat="44.4080074" lon="8.5224476"><ele>558.0</ele><time>2026-05-03T13:23:44.37Z</time></trkpt><trkpt lat="44.4079609" lon="8.5225189"><ele>558.0</ele><time>2026-05-03T13:23:45.369Z</time></trkpt><trkpt lat="44.407925" lon="8.5226375"><ele>551.1999999999999</ele><time>2026-05-03T13:23:46.369Z</time></trkpt><trkpt lat="44.4078855" lon="8.5227476"><ele>544.4</ele><time>2026-05-03T13:23:47.369Z</time></trkpt><trkpt lat="44.4078648" lon="8.5228735"><ele>537.5999999999999</ele><time>2026-05-03T13:23:48.369Z</time></trkpt><trkpt lat="44.4078472" lon="8.5230042"><ele>530.8</ele><time>2026-05-03T13:23:49.37Z</time></trkpt><trkpt lat="44.4078494" lon="8.5231324"><ele>524.0</ele><time>2026-05-03T13:23:50.369Z</time></trkpt><trkpt lat="44.4078385" lon="8.5232825"><ele>524.0</ele><time>2026-05-03T13:23:51.369Z</time></trkpt><trkpt lat="44.4078203" lon="8.5233932"><ele>524.0</ele><time>2026-05-03T13:23:52.369Z</time></trkpt><trkpt lat="44.4078336" lon="8.5235248"><ele>524.0</ele><time>2026-05-03T13:23:53.369Z</time></trkpt><trkpt lat="44.4078597" lon="8.5236559"><ele>524.0</ele><time>2026-05-03T13:23:54.369Z</time></trkpt><trkpt lat="44.4078794" lon="8.5238198"><ele>524.0</ele><time>2026-05-03T13:23:55.369Z</time></trkpt><trkpt lat="44.4078984" lon="8.5239702"><ele>523.6</ele><time>2026-05-03T13:23:56.369Z</time></trkpt><trkpt lat="44.407916" lon="8.5241242"><ele>523.2</ele><time>2026-05-03T13:23:57.369Z</time></trkpt><trkpt lat="44.4079197" lon="8.5242614"><ele>522.8000000000001</ele><time>2026-05-03T13:23:58.369Z</time></trkpt><trkpt lat="44.4079283" lon="8.5244048"><ele>522.4</ele><time>2026-05-03T13:23:59.369Z</time></trkpt><trkpt lat="44.4078792" lon="8.5245046"><ele>522.0</ele><time>2026-05-03T13:24:00.369Z</time></trkpt><trkpt lat="44.407856" lon="8.5246237"><ele>524.0</ele><time>2026-05-03T13:24:01.37Z</time></trkpt><trkpt lat="44.4077945" lon="8.5247417"><ele>526.0</ele><time>2026-05-03T13:24:02.369Z</time></trkpt><trkpt lat="44.4077327" lon="8.5248534"><ele>528.0</ele><time>2026-05-03T13:24:03.369Z</time></trkpt><trkpt lat="44.4076824" lon="8.5249561"><ele>530.0</ele><time>2026-05-03T13:24:04.369Z</time></trkpt><trkpt lat="44.4075843" lon="8.5250834"><ele>532.0</ele><time>2026-05-03T13:24:06.369Z</time></trkpt><trkpt lat="44.4075022" lon="8.5251069"><ele>532.0</ele><time>2026-05-03T13:24:07.37Z</time></trkpt><trkpt lat="44.4074033" lon="8.5251219"><ele>532.0</ele><time>2026-05-03T13:24:08.37Z</time></trkpt><trkpt lat="44.4072997" lon="8.5251414"><ele>532.0</ele><time>2026-05-03T13:24:09.369Z</time></trkpt><trkpt lat="44.4071954" lon="8.5251573"><ele>532.0</ele><time>2026-05-03T13:24:10.37Z</time></trkpt><trkpt lat="44.4070992" lon="8.5251812"><ele>532.0</ele><time>2026-05-03T13:24:11.37Z</time></trkpt><trkpt lat="44.4070162" lon="8.5252123"><ele>531.8000000000001</ele><time>2026-05-03T13:24:12.369Z</time></trkpt><trkpt lat="44.4069172" lon="8.5252349"><ele>531.6</ele><time>2026-05-03T13:24:13.369Z</time></trkpt><trkpt lat="44.4068413" lon="8.5252747"><ele>531.4000000000001</ele><time>2026-05-03T13:24:14.369Z</time></trkpt><trkpt lat="44.4067493" lon="8.5253593"><ele>531.2</ele><time>2026-05-03T13:24:15.37Z</time></trkpt><trkpt lat="44.4066728" lon="8.5254287"><ele>531.0</ele><time>2026-05-03T13:24:16.369Z</time></trkpt><trkpt lat="44.4066007" lon="8.5254794"><ele>531.0</ele><time>2026-05-03T13:24:17.369Z</time></trkpt><trkpt lat="44.4065077" lon="8.5254741"><ele>531.0</ele><time>2026-05-03T13:24:18.369Z</time></trkpt><trkpt lat="44.4064221" lon="8.5254715"><ele>531.0</ele><time>2026-05-03T13:24:19.369Z</time></trkpt><trkpt lat="44.4063568" lon="8.5254559"><ele>531.0</ele><time>2026-05-03T13:24:20.369Z</time></trkpt><trkpt lat="44.4062898" lon="8.5254418"><ele>531.0</ele><time>2026-05-03T13:24:21.37Z</time></trkpt><trkpt lat="44.4062294" lon="8.5253337"><ele>531.0</ele><time>2026-05-03T13:24:23.369Z</time></trkpt><trkpt lat="44.4062818" lon="8.525194"><ele>523.2857142857143</ele><time>2026-05-03T13:24:25.369Z</time></trkpt><trkpt lat="44.4062698" lon="8.5251072"><ele>515.5714285714287</ele><time>2026-05-03T13:24:26.369Z</time></trkpt><trkpt lat="44.4062226" lon="8.5250327"><ele>507.8571428571429</ele><time>2026-05-03T13:24:27.37Z</time></trkpt><trkpt lat="44.4061612" lon="8.5250027"><ele>500.1428571428571</ele><time>2026-05-03T13:24:28.37Z</time></trkpt><trkpt lat="44.4060967" lon="8.5250251"><ele>492.4285714285714</ele><time>2026-05-03T13:24:29.369Z</time></trkpt><trkpt lat="44.4060392" lon="8.5250663"><ele>484.71428571428567</ele><time>2026-05-03T13:24:30.369Z</time></trkpt><trkpt lat="44.4060575" lon="8.5252024"><ele>477.0</ele><time>2026-05-03T13:24:31.369Z</time></trkpt><trkpt lat="44.4060685" lon="8.5253254"><ele>479.1666666666667</ele><time>2026-05-03T13:24:32.369Z</time></trkpt><trkpt lat="44.4060775" lon="8.5254423"><ele>481.33333333333337</ele><time>2026-05-03T13:24:33.369Z</time></trkpt><trkpt lat="44.4060834" lon="8.5255549"><ele>483.5</ele><time>2026-05-03T13:24:34.37Z</time></trkpt><trkpt lat="44.4060565" lon="8.5256585"><ele>485.6666666666667</ele><time>2026-05-03T13:24:35.369Z</time></trkpt><trkpt lat="44.4060093" lon="8.5257573"><ele>487.83333333333337</ele><time>2026-05-03T13:24:36.37Z</time></trkpt><trkpt lat="44.4059578" lon="8.5258458"><ele>490.0</ele><time>2026-05-03T13:24:37.369Z</time></trkpt><trkpt lat="44.405915" lon="8.5259558"><ele>490.0</ele><time>2026-05-03T13:24:38.369Z</time></trkpt><trkpt lat="44.4058866" lon="8.5260838"><ele>490.0</ele><time>2026-05-03T13:24:39.369Z</time></trkpt><trkpt lat="44.4058642" lon="8.5262204"><ele>490.0</ele><time>2026-05-03T13:24:40.369Z</time></trkpt><trkpt lat="44.4058412" lon="8.5263508"><ele>490.0</ele><time>2026-05-03T13:24:41.369Z</time></trkpt><trkpt lat="44.4058143" lon="8.5264658"><ele>490.0</ele><time>2026-05-03T13:24:42.37Z</time></trkpt><trkpt lat="44.4057727" lon="8.5265759"><ele>493.2</ele><time>2026-05-03T13:24:43.37Z</time></trkpt><trkpt lat="44.4057146" lon="8.5266689"><ele>496.4</ele><time>2026-05-03T13:24:44.369Z</time></trkpt><trkpt lat="44.4056435" lon="8.526749"><ele>499.6</ele><time>2026-05-03T13:24:45.369Z</time></trkpt><trkpt lat="44.4055461" lon="8.5267873"><ele>502.8</ele><time>2026-05-03T13:24:46.37Z</time></trkpt><trkpt lat="44.4054537" lon="8.5268409"><ele>506.0</ele><time>2026-05-03T13:24:47.369Z</time></trkpt><trkpt lat="44.405363" lon="8.5268673"><ele>500.49999999999994</ele><time>2026-05-03T13:24:48.369Z</time></trkpt><trkpt lat="44.4052763" lon="8.5268897"><ele>495.0</ele><time>2026-05-03T13:24:49.369Z</time></trkpt><trkpt lat="44.4052026" lon="8.5269097"><ele>489.5</ele><time>2026-05-03T13:24:50.369Z</time></trkpt><trkpt lat="44.4051363" lon="8.5269409"><ele>484.0</ele><time>2026-05-03T13:24:51.369Z</time></trkpt><trkpt lat="44.4050793" lon="8.5270039"><ele>478.49999999999994</ele><time>2026-05-03T13:24:52.369Z</time></trkpt><trkpt lat="44.4050533" lon="8.5270984"><ele>473.0</ele><time>2026-05-03T13:24:53.369Z</time></trkpt><trkpt lat="44.4050412" lon="8.5272182"><ele>473.0</ele><time>2026-05-03T13:24:54.37Z</time></trkpt><trkpt lat="44.4050391" lon="8.5273673"><ele>473.0</ele><time>2026-05-03T13:24:55.369Z</time></trkpt><trkpt lat="44.4050378" lon="8.5275252"><ele>473.0</ele><time>2026-05-03T13:24:56.369Z</time></trkpt><trkpt lat="44.405036" lon="8.5277007"><ele>473.0</ele><time>2026-05-03T13:24:57.369Z</time></trkpt><trkpt lat="44.4050347" lon="8.5278712"><ele>472.5</ele><time>2026-05-03T13:24:58.37Z</time></trkpt><trkpt lat="44.4050426" lon="8.5280441"><ele>472.0</ele><time>2026-05-03T13:24:59.37Z</time></trkpt><trkpt lat="44.4050498" lon="8.5282061"><ele>471.5</ele><time>2026-05-03T13:25:00.369Z</time></trkpt><trkpt lat="44.4050455" lon="8.528366"><ele>471.0</ele><time>2026-05-03T13:25:01.37Z</time></trkpt><trkpt lat="44.4050409" lon="8.528522"><ele>471.0</ele><time>2026-05-03T13:25:02.369Z</time></trkpt><trkpt lat="44.4050245" lon="8.5286746"><ele>471.0</ele><time>2026-05-03T13:25:03.369Z</time></trkpt><trkpt lat="44.4049924" lon="8.5288175"><ele>471.0</ele><time>2026-05-03T13:25:04.37Z</time></trkpt><trkpt lat="44.4049595" lon="8.5289577"><ele>471.0</ele><time>2026-05-03T13:25:05.366Z</time></trkpt><trkpt lat="44.4049221" lon="8.5290809"><ele>471.0</ele><time>2026-05-03T13:25:06.369Z</time></trkpt><trkpt lat="44.4048729" lon="8.5291977"><ele>470.6</ele><time>2026-05-03T13:25:07.369Z</time></trkpt><trkpt lat="44.4048252" lon="8.5292894"><ele>470.20000000000005</ele><time>2026-05-03T13:25:08.369Z</time></trkpt><trkpt lat="44.4047866" lon="8.5293812"><ele>469.79999999999995</ele><time>2026-05-03T13:25:09.369Z</time></trkpt><trkpt lat="44.404803" lon="8.5295458"><ele>469.4</ele><time>2026-05-03T13:25:11.37Z</time></trkpt><trkpt lat="44.4048902" lon="8.529601"><ele>469.0</ele><time>2026-05-03T13:25:12.369Z</time></trkpt><trkpt lat="44.4049724" lon="8.529649"><ele>467.0</ele><time>2026-05-03T13:25:13.37Z</time></trkpt><trkpt lat="44.4050469" lon="8.5297211"><ele>465.0</ele><time>2026-05-03T13:25:14.369Z</time></trkpt><trkpt lat="44.4051179" lon="8.5298097"><ele>463.0</ele><time>2026-05-03T13:25:15.369Z</time></trkpt><trkpt lat="44.4051819" lon="8.5299104"><ele>461.0</ele><time>2026-05-03T13:25:16.37Z</time></trkpt><trkpt lat="44.4052385" lon="8.5300345"><ele>459.0</ele><time>2026-05-03T13:25:17.369Z</time></trkpt><trkpt lat="44.4052893" lon="8.530171"><ele>459.0</ele><time>2026-05-03T13:25:18.369Z</time></trkpt><trkpt lat="44.4053367" lon="8.530314"><ele>459.0</ele><time>2026-05-03T13:25:19.369Z</time></trkpt><trkpt lat="44.4053845" lon="8.5304496"><ele>459.0</ele><time>2026-05-03T13:25:20.37Z</time></trkpt><trkpt lat="44.4054343" lon="8.5306055"><ele>459.0</ele><time>2026-05-03T13:25:21.369Z</time></trkpt><trkpt lat="44.4054918" lon="8.5307872"><ele>457.25</ele><time>2026-05-03T13:25:22.37Z</time></trkpt><trkpt lat="44.4055547" lon="8.5309288"><ele>455.5</ele><time>2026-05-03T13:25:23.369Z</time></trkpt><trkpt lat="44.4056188" lon="8.5310709"><ele>453.75</ele><time>2026-05-03T13:25:24.37Z</time></trkpt><trkpt lat="44.4056817" lon="8.5312073"><ele>452.0</ele><time>2026-05-03T13:25:25.369Z</time></trkpt><trkpt lat="44.4057401" lon="8.531321"><ele>451.99999999999994</ele><time>2026-05-03T13:25:26.37Z</time></trkpt><trkpt lat="44.4057867" lon="8.5314274"><ele>452.0</ele><time>2026-05-03T13:25:27.369Z</time></trkpt><trkpt lat="44.4058199" lon="8.5315427"><ele>452.0</ele><time>2026-05-03T13:25:28.37Z</time></trkpt><trkpt lat="44.4058511" lon="8.5316567"><ele>452.0</ele><time>2026-05-03T13:25:29.369Z</time></trkpt><trkpt lat="44.4058818" lon="8.5317696"><ele>451.99999999999994</ele><time>2026-05-03T13:25:30.369Z</time></trkpt><trkpt lat="44.4059163" lon="8.5318855"><ele>452.0</ele><time>2026-05-03T13:25:31.369Z</time></trkpt><trkpt lat="44.4059516" lon="8.5320099"><ele>447.6</ele><time>2026-05-03T13:25:32.37Z</time></trkpt><trkpt lat="44.4060048" lon="8.5321224"><ele>443.20000000000005</ele><time>2026-05-03T13:25:33.369Z</time></trkpt><trkpt lat="44.4060514" lon="8.5322373"><ele>438.8</ele><time>2026-05-03T13:25:34.369Z</time></trkpt><trkpt lat="44.4060863" lon="8.5323569"><ele>434.4</ele><time>2026-05-03T13:25:35.369Z</time></trkpt><trkpt lat="44.4061114" lon="8.5324908"><ele>430.0</ele><time>2026-05-03T13:25:36.37Z</time></trkpt><trkpt lat="44.4061364" lon="8.5326314"><ele>430.0</ele><time>2026-05-03T13:25:37.369Z</time></trkpt><trkpt lat="44.4061679" lon="8.5327708"><ele>430.0</ele><time>2026-05-03T13:25:38.37Z</time></trkpt><trkpt lat="44.4062097" lon="8.5328949"><ele>430.0</ele><time>2026-05-03T13:25:39.37Z</time></trkpt><trkpt lat="44.4062491" lon="8.5330166"><ele>430.0</ele><time>2026-05-03T13:25:40.369Z</time></trkpt><trkpt lat="44.406274" lon="8.533121"><ele>430.0</ele><time>2026-05-03T13:25:41.37Z</time></trkpt><trkpt lat="44.4062665" lon="8.5332307"><ele>430.6666666666667</ele><time>2026-05-03T13:25:42.369Z</time></trkpt><trkpt lat="44.4062361" lon="8.5333264"><ele>431.33333333333337</ele><time>2026-05-03T13:25:43.369Z</time></trkpt><trkpt lat="44.4061803" lon="8.5333942"><ele>432.0</ele><time>2026-05-03T13:25:44.369Z</time></trkpt><trkpt lat="44.4060984" lon="8.5334141"><ele>432.66666666666663</ele><time>2026-05-03T13:25:45.369Z</time></trkpt><trkpt lat="44.4060091" lon="8.5333828"><ele>433.3333333333333</ele><time>2026-05-03T13:25:46.37Z</time></trkpt><trkpt lat="44.4059055" lon="8.5333113"><ele>434.0</ele><time>2026-05-03T13:25:47.369Z</time></trkpt><trkpt lat="44.4058062" lon="8.5332676"><ele>434.0</ele><time>2026-05-03T13:25:48.37Z</time></trkpt><trkpt lat="44.4057023" lon="8.5332282"><ele>434.0</ele><time>2026-05-03T13:25:49.369Z</time></trkpt><trkpt lat="44.4055941" lon="8.5332111"><ele>434.0</ele><time>2026-05-03T13:25:50.369Z</time></trkpt><trkpt lat="44.4054744" lon="8.533203"><ele>434.0</ele><time>2026-05-03T13:25:51.369Z</time></trkpt><trkpt lat="44.4053588" lon="8.5331945"><ele>432.79999999999995</ele><time>2026-05-03T13:25:52.369Z</time></trkpt><trkpt lat="44.4052433" lon="8.5331843"><ele>431.59999999999997</ele><time>2026-05-03T13:25:53.37Z</time></trkpt><trkpt lat="44.4051331" lon="8.5331676"><ele>430.4</ele><time>2026-05-03T13:25:54.369Z</time></trkpt><trkpt lat="44.4050245" lon="8.5331566"><ele>429.2</ele><time>2026-05-03T13:25:55.369Z</time></trkpt><trkpt lat="44.4049179" lon="8.5331293"><ele>428.0</ele><time>2026-05-03T13:25:56.37Z</time></trkpt><trkpt lat="44.4048137" lon="8.533092"><ele>427.99999999999994</ele><time>2026-05-03T13:25:57.369Z</time></trkpt><trkpt lat="44.404713" lon="8.5330559"><ele>428.0</ele><time>2026-05-03T13:25:58.37Z</time></trkpt><trkpt lat="44.4046241" lon="8.5330265"><ele>428.0</ele><time>2026-05-03T13:25:59.369Z</time></trkpt><trkpt lat="44.4045367" lon="8.5330259"><ele>428.0</ele><time>2026-05-03T13:26:00.369Z</time></trkpt><trkpt lat="44.4044646" lon="8.5330725"><ele>427.99999999999994</ele><time>2026-05-03T13:26:01.37Z</time></trkpt><trkpt lat="44.4044117" lon="8.5331651"><ele>428.0</ele><time>2026-05-03T13:26:02.369Z</time></trkpt><trkpt lat="44.404385" lon="8.5332916"><ele>424.2</ele><time>2026-05-03T13:26:03.37Z</time></trkpt><trkpt lat="44.4043495" lon="8.5334083"><ele>420.4</ele><time>2026-05-03T13:26:04.369Z</time></trkpt><trkpt lat="44.404291" lon="8.5335168"><ele>416.59999999999997</ele><time>2026-05-03T13:26:05.369Z</time></trkpt><trkpt lat="44.4042111" lon="8.533597"><ele>412.79999999999995</ele><time>2026-05-03T13:26:06.369Z</time></trkpt><trkpt lat="44.4041205" lon="8.5336359"><ele>409.0</ele><time>2026-05-03T13:26:07.369Z</time></trkpt><trkpt lat="44.404024" lon="8.5336453"><ele>409.00000000000006</ele><time>2026-05-03T13:26:08.369Z</time></trkpt><trkpt lat="44.4039293" lon="8.5336415"><ele>409.0</ele><time>2026-05-03T13:26:09.369Z</time></trkpt><trkpt lat="44.4038403" lon="8.5336448"><ele>409.0</ele><time>2026-05-03T13:26:10.37Z</time></trkpt><trkpt lat="44.4037628" lon="8.5336711"><ele>409.0</ele><time>2026-05-03T13:26:11.37Z</time></trkpt><trkpt lat="44.4037056" lon="8.5337183"><ele>409.00000000000006</ele><time>2026-05-03T13:26:12.369Z</time></trkpt><trkpt lat="44.4036713" lon="8.5337955"><ele>409.0</ele><time>2026-05-03T13:26:13.369Z</time></trkpt><trkpt lat="44.4036644" lon="8.5338935"><ele>408.6666666666667</ele><time>2026-05-03T13:26:14.369Z</time></trkpt><trkpt lat="44.4036716" lon="8.5340029"><ele>408.33333333333337</ele><time>2026-05-03T13:26:15.37Z</time></trkpt><trkpt lat="44.4036782" lon="8.5341049"><ele>408.0</ele><time>2026-05-03T13:26:16.37Z</time></trkpt><trkpt lat="44.4036794" lon="8.5341973"><ele>407.66666666666663</ele><time>2026-05-03T13:26:17.369Z</time></trkpt><trkpt lat="44.4036598" lon="8.534283"><ele>407.3333333333333</ele><time>2026-05-03T13:26:18.369Z</time></trkpt><trkpt lat="44.403622" lon="8.5343591"><ele>407.0</ele><time>2026-05-03T13:26:19.37Z</time></trkpt><trkpt lat="44.4035293" lon="8.5344332"><ele>406.99999999999994</ele><time>2026-05-03T13:26:21.37Z</time></trkpt><trkpt lat="44.4034655" lon="8.5344521"><ele>407.0</ele><time>2026-05-03T13:27:09.369Z</time></trkpt><trkpt lat="44.4034191" lon="8.5343756"><ele>407.0</ele><time>2026-05-03T13:27:11.37Z</time></trkpt><trkpt lat="44.4033569" lon="8.5343047"><ele>407.0</ele><time>2026-05-03T13:27:13.369Z</time></trkpt><trkpt lat="44.4032708" lon="8.5343402"><ele>406.99999999999994</ele><time>2026-05-03T13:27:15.37Z</time></trkpt><trkpt lat="44.4031789" lon="8.5342634"><ele>407.0</ele><time>2026-05-03T13:27:17.37Z</time></trkpt><trkpt lat="44.4031289" lon="8.5341937"><ele>406.99999999999994</ele><time>2026-05-03T13:27:18.369Z</time></trkpt><trkpt lat="44.4030729" lon="8.5341112"><ele>407.0</ele><time>2026-05-03T13:27:19.369Z</time></trkpt><trkpt lat="44.4030096" lon="8.5340357"><ele>407.0</ele><time>2026-05-03T13:27:20.369Z</time></trkpt><trkpt lat="44.4029442" lon="8.5339638"><ele>407.0</ele><time>2026-05-03T13:27:21.369Z</time></trkpt><trkpt lat="44.4028847" lon="8.533898"><ele>406.99999999999994</ele><time>2026-05-03T13:27:22.37Z</time></trkpt><trkpt lat="44.4028308" lon="8.5338302"><ele>407.0</ele><time>2026-05-03T13:27:23.37Z</time></trkpt><trkpt lat="44.4027982" lon="8.5337388"><ele>401.49999999999994</ele><time>2026-05-03T13:27:24.369Z</time></trkpt><trkpt lat="44.4027876" lon="8.53364"><ele>396.0</ele><time>2026-05-03T13:27:25.369Z</time></trkpt><trkpt lat="44.4027879" lon="8.5335345"><ele>390.5</ele><time>2026-05-03T13:27:26.369Z</time></trkpt><trkpt lat="44.4028335" lon="8.5334263"><ele>385.0</ele><time>2026-05-03T13:27:27.37Z</time></trkpt><trkpt lat="44.4028673" lon="8.5333283"><ele>379.5</ele><time>2026-05-03T13:27:28.369Z</time></trkpt><trkpt lat="44.4029194" lon="8.5332499"><ele>374.0</ele><time>2026-05-03T13:27:29.369Z</time></trkpt><trkpt lat="44.4029957" lon="8.5331903"><ele>378.2</ele><time>2026-05-03T13:27:30.37Z</time></trkpt><trkpt lat="44.4030824" lon="8.5331469"><ele>382.4</ele><time>2026-05-03T13:27:31.369Z</time></trkpt><trkpt lat="44.4031761" lon="8.5331303"><ele>386.6</ele><time>2026-05-03T13:27:32.369Z</time></trkpt><trkpt lat="44.403277" lon="8.5331512"><ele>390.8</ele><time>2026-05-03T13:27:33.369Z</time></trkpt><trkpt lat="44.4033775" lon="8.5331827"><ele>395.0</ele><time>2026-05-03T13:27:34.369Z</time></trkpt><trkpt lat="44.4034664" lon="8.533221"><ele>394.99999999999994</ele><time>2026-05-03T13:27:35.369Z</time></trkpt><trkpt lat="44.4035504" lon="8.533239"><ele>395.0</ele><time>2026-05-03T13:27:36.37Z</time></trkpt><trkpt lat="44.4036322" lon="8.5331965"><ele>395.0</ele><time>2026-05-03T13:27:37.37Z</time></trkpt><trkpt lat="44.4036996" lon="8.5331191"><ele>395.0</ele><time>2026-05-03T13:27:38.369Z</time></trkpt><trkpt lat="44.4037391" lon="8.5330306"><ele>394.99999999999994</ele><time>2026-05-03T13:27:39.37Z</time></trkpt><trkpt lat="44.4037399" lon="8.5329334"><ele>395.0</ele><time>2026-05-03T13:27:40.369Z</time></trkpt><trkpt lat="44.403659" lon="8.5328225"><ele>395.0</ele><time>2026-05-03T13:27:42.37Z</time></trkpt><trkpt lat="44.4035538" lon="8.5328848"><ele>395.0</ele><time>2026-05-03T13:27:43.369Z</time></trkpt><trkpt lat="44.4034741" lon="8.5329174"><ele>395.0</ele><time>2026-05-03T13:27:44.369Z</time></trkpt><trkpt lat="44.4033883" lon="8.5329207"><ele>395.0</ele><time>2026-05-03T13:27:45.369Z</time></trkpt><trkpt lat="44.4033055" lon="8.5328654"><ele>395.0</ele><time>2026-05-03T13:27:46.369Z</time></trkpt><trkpt lat="44.4032328" lon="8.532775"><ele>390.4</ele><time>2026-05-03T13:27:47.369Z</time></trkpt><trkpt lat="44.4031461" lon="8.5326876"><ele>385.8</ele><time>2026-05-03T13:27:48.369Z</time></trkpt><trkpt lat="44.4030489" lon="8.5326392"><ele>381.20000000000005</ele><time>2026-05-03T13:27:49.369Z</time></trkpt><trkpt lat="44.4029557" lon="8.5326163"><ele>376.6</ele><time>2026-05-03T13:27:50.369Z</time></trkpt><trkpt lat="44.4028732" lon="8.5326191"><ele>372.0</ele><time>2026-05-03T13:27:51.369Z</time></trkpt><trkpt lat="44.4027964" lon="8.5326416"><ele>372.3333333333333</ele><time>2026-05-03T13:27:52.37Z</time></trkpt><trkpt lat="44.4027189" lon="8.5326892"><ele>372.6666666666667</ele><time>2026-05-03T13:27:53.369Z</time></trkpt><trkpt lat="44.4026521" lon="8.5327661"><ele>373.0</ele><time>2026-05-03T13:27:54.369Z</time></trkpt><trkpt lat="44.4025981" lon="8.5328646"><ele>373.33333333333337</ele><time>2026-05-03T13:27:55.369Z</time></trkpt><trkpt lat="44.4025533" lon="8.5329836"><ele>373.6666666666667</ele><time>2026-05-03T13:27:56.369Z</time></trkpt><trkpt lat="44.4025164" lon="8.5330954"><ele>374.0</ele><time>2026-05-03T13:27:57.369Z</time></trkpt><trkpt lat="44.4024803" lon="8.5332185"><ele>374.0</ele><time>2026-05-03T13:27:58.369Z</time></trkpt><trkpt lat="44.4024388" lon="8.5333418"><ele>374.0</ele><time>2026-05-03T13:27:59.369Z</time></trkpt><trkpt lat="44.4024026" lon="8.5334606"><ele>374.0</ele><time>2026-05-03T13:28:00.369Z</time></trkpt><trkpt lat="44.4023668" lon="8.5335774"><ele>374.0</ele><time>2026-05-03T13:28:01.37Z</time></trkpt><trkpt lat="44.4023329" lon="8.533695"><ele>374.0</ele><time>2026-05-03T13:28:02.369Z</time></trkpt><trkpt lat="44.4022978" lon="8.5338109"><ele>374.79999999999995</ele><time>2026-05-03T13:28:03.369Z</time></trkpt><trkpt lat="44.4022581" lon="8.533915"><ele>375.59999999999997</ele><time>2026-05-03T13:28:04.37Z</time></trkpt><trkpt lat="44.4022" lon="8.5340006"><ele>376.4</ele><time>2026-05-03T13:28:05.369Z</time></trkpt><trkpt lat="44.4021304" lon="8.534081"><ele>377.2</ele><time>2026-05-03T13:28:06.369Z</time></trkpt><trkpt lat="44.4020514" lon="8.534161"><ele>378.0</ele><time>2026-05-03T13:28:07.369Z</time></trkpt><trkpt lat="44.4019771" lon="8.534246"><ele>371.4</ele><time>2026-05-03T13:28:08.369Z</time></trkpt><trkpt lat="44.4019161" lon="8.5343563"><ele>364.79999999999995</ele><time>2026-05-03T13:28:09.37Z</time></trkpt><trkpt lat="44.4018871" lon="8.5344935"><ele>358.2</ele><time>2026-05-03T13:28:10.37Z</time></trkpt><trkpt lat="44.401868" lon="8.5346224"><ele>351.6</ele><time>2026-05-03T13:28:11.369Z</time></trkpt><trkpt lat="44.4019256" lon="8.5347911"><ele>345.0</ele><time>2026-05-03T13:28:12.369Z</time></trkpt><trkpt lat="44.4019614" lon="8.5349635"><ele>344.75</ele><time>2026-05-03T13:28:13.37Z</time></trkpt><trkpt lat="44.4020061" lon="8.5351496"><ele>344.5</ele><time>2026-05-03T13:28:14.37Z</time></trkpt><trkpt lat="44.4020561" lon="8.5353393"><ele>344.25</ele><time>2026-05-03T13:28:15.369Z</time></trkpt><trkpt lat="44.4021047" lon="8.5355302"><ele>344.0</ele><time>2026-05-03T13:28:16.369Z</time></trkpt><trkpt lat="44.4021515" lon="8.5357186"><ele>344.25</ele><time>2026-05-03T13:28:17.369Z</time></trkpt><trkpt lat="44.4021966" lon="8.5359124"><ele>344.5</ele><time>2026-05-03T13:28:18.369Z</time></trkpt><trkpt lat="44.4022452" lon="8.536099"><ele>344.75</ele><time>2026-05-03T13:28:19.37Z</time></trkpt><trkpt lat="44.4022901" lon="8.536284"><ele>345.0</ele><time>2026-05-03T13:28:20.369Z</time></trkpt><trkpt lat="44.4023372" lon="8.5364661"><ele>345.0</ele><time>2026-05-03T13:28:21.369Z</time></trkpt><trkpt lat="44.4023819" lon="8.5366443"><ele>345.0</ele><time>2026-05-03T13:28:22.369Z</time></trkpt><trkpt lat="44.4024124" lon="8.5368188"><ele>345.0</ele><time>2026-05-03T13:28:23.369Z</time></trkpt><trkpt lat="44.4024135" lon="8.5369907"><ele>345.0</ele><time>2026-05-03T13:28:24.369Z</time></trkpt><trkpt lat="44.4023977" lon="8.5371591"><ele>344.2</ele><time>2026-05-03T13:28:25.369Z</time></trkpt><trkpt lat="44.4023711" lon="8.5373183"><ele>343.4</ele><time>2026-05-03T13:28:26.369Z</time></trkpt><trkpt lat="44.4023345" lon="8.5374548"><ele>342.6</ele><time>2026-05-03T13:28:27.369Z</time></trkpt><trkpt lat="44.4022699" lon="8.5375742"><ele>341.8</ele><time>2026-05-03T13:28:28.369Z</time></trkpt><trkpt lat="44.4021694" lon="8.537652"><ele>341.0</ele><time>2026-05-03T13:28:29.369Z</time></trkpt><trkpt lat="44.4020421" lon="8.5376878"><ele>336.25</ele><time>2026-05-03T13:28:30.369Z</time></trkpt><trkpt lat="44.4019019" lon="8.5377034"><ele>331.5</ele><time>2026-05-03T13:28:31.369Z</time></trkpt><trkpt lat="44.4017612" lon="8.5377106"><ele>326.75</ele><time>2026-05-03T13:28:32.369Z</time></trkpt><trkpt lat="44.4016194" lon="8.5377181"><ele>322.0</ele><time>2026-05-03T13:28:33.369Z</time></trkpt><trkpt lat="44.4015137" lon="8.5377291"><ele>322.0</ele><time>2026-05-03T13:28:34.369Z</time></trkpt><trkpt lat="44.4014077" lon="8.5377375"><ele>322.0</ele><time>2026-05-03T13:28:35.369Z</time></trkpt><trkpt lat="44.4012988" lon="8.5377728"><ele>322.0</ele><time>2026-05-03T13:28:36.369Z</time></trkpt><trkpt lat="44.401195" lon="8.537898"><ele>322.0</ele><time>2026-05-03T13:28:37.369Z</time></trkpt><trkpt lat="44.4010729" lon="8.5380135"><ele>322.25</ele><time>2026-05-03T13:28:38.369Z</time></trkpt><trkpt lat="44.4009475" lon="8.538127"><ele>322.5</ele><time>2026-05-03T13:28:39.37Z</time></trkpt><trkpt lat="44.4008216" lon="8.538229"><ele>322.75</ele><time>2026-05-03T13:28:40.369Z</time></trkpt><trkpt lat="44.4006884" lon="8.5383123"><ele>323.0</ele><time>2026-05-03T13:28:41.369Z</time></trkpt><trkpt lat="44.4005453" lon="8.5383724"><ele>317.75</ele><time>2026-05-03T13:28:42.369Z</time></trkpt><trkpt lat="44.4004004" lon="8.5384166"><ele>312.5</ele><time>2026-05-03T13:28:43.369Z</time></trkpt><trkpt lat="44.4002584" lon="8.5384619"><ele>307.25</ele><time>2026-05-03T13:28:44.369Z</time></trkpt><trkpt lat="44.4001197" lon="8.538511"><ele>302.0</ele><time>2026-05-03T13:28:45.369Z</time></trkpt><trkpt lat="44.3999862" lon="8.5385561"><ele>302.0</ele><time>2026-05-03T13:28:46.369Z</time></trkpt><trkpt lat="44.3998699" lon="8.5386178"><ele>302.0</ele><time>2026-05-03T13:28:47.369Z</time></trkpt><trkpt lat="44.3997687" lon="8.5387213"><ele>302.0</ele><time>2026-05-03T13:28:48.369Z</time></trkpt><trkpt lat="44.3996902" lon="8.5388812"><ele>302.0</ele><time>2026-05-03T13:28:49.369Z</time></trkpt><trkpt lat="44.3996218" lon="8.5390632"><ele>301.0</ele><time>2026-05-03T13:28:50.369Z</time></trkpt><trkpt lat="44.3995385" lon="8.5392322"><ele>300.0</ele><time>2026-05-03T13:28:51.37Z</time></trkpt><trkpt lat="44.3994414" lon="8.5393915"><ele>299.0</ele><time>2026-05-03T13:28:52.369Z</time></trkpt><trkpt lat="44.3993372" lon="8.5395367"><ele>298.0</ele><time>2026-05-03T13:28:53.369Z</time></trkpt><trkpt lat="44.399235" lon="8.5396753"><ele>298.0</ele><time>2026-05-03T13:28:54.369Z</time></trkpt><trkpt lat="44.3991387" lon="8.5398109"><ele>298.0</ele><time>2026-05-03T13:28:55.369Z</time></trkpt><trkpt lat="44.3990453" lon="8.5399337"><ele>298.0</ele><time>2026-05-03T13:28:56.37Z</time></trkpt><trkpt lat="44.3989648" lon="8.5400407"><ele>298.0</ele><time>2026-05-03T13:28:57.369Z</time></trkpt><trkpt lat="44.398911" lon="8.5401663"><ele>298.0</ele><time>2026-05-03T13:28:58.369Z</time></trkpt><trkpt lat="44.3988972" lon="8.5403168"><ele>298.0</ele><time>2026-05-03T13:28:59.369Z</time></trkpt><trkpt lat="44.3989242" lon="8.5404705"><ele>298.0</ele><time>2026-05-03T13:29:00.369Z</time></trkpt><trkpt lat="44.3989659" lon="8.5406179"><ele>298.0</ele><time>2026-05-03T13:29:01.369Z</time></trkpt><trkpt lat="44.3989812" lon="8.5407726"><ele>298.0</ele><time>2026-05-03T13:29:02.369Z</time></trkpt><trkpt lat="44.3989596" lon="8.5409467"><ele>298.25</ele><time>2026-05-03T13:29:03.369Z</time></trkpt><trkpt lat="44.3989174" lon="8.5411383"><ele>298.5</ele><time>2026-05-03T13:29:04.369Z</time></trkpt><trkpt lat="44.3988682" lon="8.5413212"><ele>298.75</ele><time>2026-05-03T13:29:05.369Z</time></trkpt><trkpt lat="44.3988177" lon="8.541498"><ele>299.0</ele><time>2026-05-03T13:29:06.37Z</time></trkpt><trkpt lat="44.3987486" lon="8.5416544"><ele>295.33333333333337</ele><time>2026-05-03T13:29:07.369Z</time></trkpt><trkpt lat="44.3986492" lon="8.5417962"><ele>291.6666666666667</ele><time>2026-05-03T13:29:08.369Z</time></trkpt><trkpt lat="44.3985317" lon="8.541931"><ele>288.0</ele><time>2026-05-03T13:29:09.369Z</time></trkpt><trkpt lat="44.3984109" lon="8.5420696"><ele>288.0</ele><time>2026-05-03T13:29:10.369Z</time></trkpt><trkpt lat="44.3982869" lon="8.5422067"><ele>288.0</ele><time>2026-05-03T13:29:11.369Z</time></trkpt><trkpt lat="44.3981651" lon="8.5423437"><ele>288.0</ele><time>2026-05-03T13:29:12.369Z</time></trkpt><trkpt lat="44.3980473" lon="8.5424835"><ele>286.0</ele><time>2026-05-03T13:29:13.369Z</time></trkpt><trkpt lat="44.3979458" lon="8.5426269"><ele>284.0</ele><time>2026-05-03T13:29:14.369Z</time></trkpt><trkpt lat="44.3978548" lon="8.5427729"><ele>282.0</ele><time>2026-05-03T13:29:15.369Z</time></trkpt><trkpt lat="44.397758" lon="8.5429069"><ele>280.0</ele><time>2026-05-03T13:29:16.369Z</time></trkpt><trkpt lat="44.3976533" lon="8.5430248"><ele>280.0</ele><time>2026-05-03T13:29:17.369Z</time></trkpt><trkpt lat="44.397544" lon="8.5431349"><ele>280.0</ele><time>2026-05-03T13:29:18.369Z</time></trkpt><trkpt lat="44.3974406" lon="8.5432469"><ele>280.0</ele><time>2026-05-03T13:29:19.369Z</time></trkpt><trkpt lat="44.3973489" lon="8.5433825"><ele>280.0</ele><time>2026-05-03T13:29:20.369Z</time></trkpt><trkpt lat="44.3972734" lon="8.5435456"><ele>282.25</ele><time>2026-05-03T13:29:21.369Z</time></trkpt><trkpt lat="44.3972134" lon="8.5437185"><ele>284.5</ele><time>2026-05-03T13:29:22.37Z</time></trkpt><trkpt lat="44.397163" lon="8.5439015"><ele>286.75</ele><time>2026-05-03T13:29:23.369Z</time></trkpt><trkpt lat="44.3971196" lon="8.5440898"><ele>289.0</ele><time>2026-05-03T13:29:24.37Z</time></trkpt><trkpt lat="44.3970847" lon="8.5442873"><ele>281.5</ele><time>2026-05-03T13:29:25.369Z</time></trkpt><trkpt lat="44.3970544" lon="8.54449"><ele>274.0</ele><time>2026-05-03T13:29:26.369Z</time></trkpt><trkpt lat="44.3970176" lon="8.5446941"><ele>266.5</ele><time>2026-05-03T13:29:27.369Z</time></trkpt><trkpt lat="44.396976" lon="8.5448965"><ele>259.0</ele><time>2026-05-03T13:29:28.369Z</time></trkpt><trkpt lat="44.396932" lon="8.5451044"><ele>258.5</ele><time>2026-05-03T13:29:29.369Z</time></trkpt><trkpt lat="44.3968894" lon="8.5453123"><ele>258.0</ele><time>2026-05-03T13:29:30.37Z</time></trkpt><trkpt lat="44.396848" lon="8.5455078"><ele>257.5</ele><time>2026-05-03T13:29:31.37Z</time></trkpt><trkpt lat="44.3968095" lon="8.5456932"><ele>257.0</ele><time>2026-05-03T13:29:32.369Z</time></trkpt><trkpt lat="44.3967754" lon="8.5458615"><ele>258.0</ele><time>2026-05-03T13:29:33.369Z</time></trkpt><trkpt lat="44.3967375" lon="8.5460079"><ele>259.0</ele><time>2026-05-03T13:29:34.369Z</time></trkpt><trkpt lat="44.3966712" lon="8.5461305"><ele>260.0</ele><time>2026-05-03T13:29:35.369Z</time></trkpt><trkpt lat="44.3965729" lon="8.5462062"><ele>261.0</ele><time>2026-05-03T13:29:36.369Z</time></trkpt><trkpt lat="44.3964457" lon="8.5462224"><ele>262.0</ele><time>2026-05-03T13:29:37.369Z</time></trkpt><trkpt lat="44.3963014" lon="8.5462092"><ele>263.0</ele><time>2026-05-03T13:29:38.37Z</time></trkpt><trkpt lat="44.3961459" lon="8.5462175"><ele>264.0</ele><time>2026-05-03T13:29:39.369Z</time></trkpt><trkpt lat="44.3959865" lon="8.5462458"><ele>264.0</ele><time>2026-05-03T13:29:40.369Z</time></trkpt><trkpt lat="44.3958247" lon="8.5462779"><ele>264.0</ele><time>2026-05-03T13:29:41.369Z</time></trkpt><trkpt lat="44.3956651" lon="8.5463113"><ele>264.0</ele><time>2026-05-03T13:29:42.369Z</time></trkpt><trkpt lat="44.3955065" lon="8.546342"><ele>258.75</ele><time>2026-05-03T13:29:43.369Z</time></trkpt><trkpt lat="44.3953579" lon="8.5463665"><ele>253.5</ele><time>2026-05-03T13:29:44.369Z</time></trkpt><trkpt lat="44.3952247" lon="8.5463864"><ele>248.25</ele><time>2026-05-03T13:29:45.369Z</time></trkpt><trkpt lat="44.3951018" lon="8.5464177"><ele>243.0</ele><time>2026-05-03T13:29:46.369Z</time></trkpt><trkpt lat="44.3949882" lon="8.546502"><ele>243.0</ele><time>2026-05-03T13:29:47.369Z</time></trkpt><trkpt lat="44.3948735" lon="8.5466352"><ele>243.0</ele><time>2026-05-03T13:29:48.369Z</time></trkpt><trkpt lat="44.3947585" lon="8.5467896"><ele>243.0</ele><time>2026-05-03T13:29:49.369Z</time></trkpt><trkpt lat="44.3946348" lon="8.5469444"><ele>240.66666666666669</ele><time>2026-05-03T13:29:50.369Z</time></trkpt><trkpt lat="44.3945054" lon="8.5471037"><ele>238.33333333333334</ele><time>2026-05-03T13:29:51.369Z</time></trkpt><trkpt lat="44.3943805" lon="8.5472565"><ele>236.0</ele><time>2026-05-03T13:29:52.369Z</time></trkpt><trkpt lat="44.394252" lon="8.5474106"><ele>236.0</ele><time>2026-05-03T13:29:53.37Z</time></trkpt><trkpt lat="44.3941323" lon="8.5475374"><ele>236.0</ele><time>2026-05-03T13:29:54.369Z</time></trkpt><trkpt lat="44.3940217" lon="8.5476559"><ele>236.0</ele><time>2026-05-03T13:29:55.369Z</time></trkpt><trkpt lat="44.3939201" lon="8.5477526"><ele>236.0</ele><time>2026-05-03T13:29:56.369Z</time></trkpt><trkpt lat="44.3938397" lon="8.5478393"><ele>234.00000000000003</ele><time>2026-05-03T13:29:57.369Z</time></trkpt><trkpt lat="44.3937614" lon="8.5478968"><ele>232.0</ele><time>2026-05-03T13:29:58.369Z</time></trkpt><trkpt lat="44.3936719" lon="8.5478992"><ele>230.0</ele><time>2026-05-03T13:29:59.37Z</time></trkpt><trkpt lat="44.3935924" lon="8.5478399"><ele>228.0</ele><time>2026-05-03T13:30:00.369Z</time></trkpt><trkpt lat="44.3935443" lon="8.54774"><ele>226.00000000000003</ele><time>2026-05-03T13:30:01.369Z</time></trkpt><trkpt lat="44.3935401" lon="8.5476207"><ele>224.0</ele><time>2026-05-03T13:30:02.37Z</time></trkpt><trkpt lat="44.3935821" lon="8.547499"><ele>223.25</ele><time>2026-05-03T13:30:03.369Z</time></trkpt><trkpt lat="44.3936509" lon="8.5473624"><ele>222.5</ele><time>2026-05-03T13:30:04.369Z</time></trkpt><trkpt lat="44.3937248" lon="8.547215"><ele>221.75</ele><time>2026-05-03T13:30:05.37Z</time></trkpt><trkpt lat="44.3938013" lon="8.5470543"><ele>221.0</ele><time>2026-05-03T13:30:06.369Z</time></trkpt><trkpt lat="44.393877" lon="8.5469018"><ele>221.0</ele><time>2026-05-03T13:30:07.369Z</time></trkpt><trkpt lat="44.393951" lon="8.546755"><ele>221.0</ele><time>2026-05-03T13:30:08.369Z</time></trkpt><trkpt lat="44.3940208" lon="8.5466102"><ele>221.0</ele><time>2026-05-03T13:30:09.37Z</time></trkpt><trkpt lat="44.3940869" lon="8.5464735"><ele>221.0</ele><time>2026-05-03T13:30:10.369Z</time></trkpt><trkpt lat="44.3941497" lon="8.5463425"><ele>218.60000000000002</ele><time>2026-05-03T13:30:11.37Z</time></trkpt><trkpt lat="44.3941936" lon="8.546197"><ele>216.20000000000002</ele><time>2026-05-03T13:30:12.37Z</time></trkpt><trkpt lat="44.3941965" lon="8.5460393"><ele>213.8</ele><time>2026-05-03T13:30:13.369Z</time></trkpt><trkpt lat="44.3941588" lon="8.5458962"><ele>211.39999999999998</ele><time>2026-05-03T13:30:14.37Z</time></trkpt><trkpt lat="44.3941159" lon="8.5457604"><ele>209.0</ele><time>2026-05-03T13:30:15.369Z</time></trkpt><trkpt lat="44.3940905" lon="8.5456367"><ele>209.0</ele><time>2026-05-03T13:30:16.369Z</time></trkpt><trkpt lat="44.3940908" lon="8.5455198"><ele>209.0</ele><time>2026-05-03T13:30:17.369Z</time></trkpt><trkpt lat="44.394134" lon="8.5454157"><ele>209.0</ele><time>2026-05-03T13:30:18.369Z</time></trkpt><trkpt lat="44.3942146" lon="8.5453211"><ele>209.0</ele><time>2026-05-03T13:30:19.369Z</time></trkpt><trkpt lat="44.3943077" lon="8.5452065"><ele>209.0</ele><time>2026-05-03T13:30:20.369Z</time></trkpt><trkpt lat="44.3943795" lon="8.5450477"><ele>206.5</ele><time>2026-05-03T13:30:21.369Z</time></trkpt><trkpt lat="44.3944214" lon="8.5448542"><ele>204.0</ele><time>2026-05-03T13:30:22.369Z</time></trkpt><trkpt lat="44.3944454" lon="8.5446861"><ele>201.5</ele><time>2026-05-03T13:30:23.369Z</time></trkpt><trkpt lat="44.394456" lon="8.5445402"><ele>199.0</ele><time>2026-05-03T13:30:24.37Z</time></trkpt><trkpt lat="44.3944415" lon="8.5444184"><ele>199.0</ele><time>2026-05-03T13:30:25.369Z</time></trkpt><trkpt lat="44.3943882" lon="8.5443217"><ele>199.0</ele><time>2026-05-03T13:30:26.369Z</time></trkpt><trkpt lat="44.3943092" lon="8.5442904"><ele>199.0</ele><time>2026-05-03T13:30:27.37Z</time></trkpt><trkpt lat="44.3942258" lon="8.5443266"><ele>199.0</ele><time>2026-05-03T13:30:28.369Z</time></trkpt><trkpt lat="44.3941579" lon="8.5444242"><ele>199.0</ele><time>2026-05-03T13:30:29.369Z</time></trkpt><trkpt lat="44.394081" lon="8.5445626"><ele>199.0</ele><time>2026-05-03T13:30:30.369Z</time></trkpt><trkpt lat="44.3939895" lon="8.5447141"><ele>199.0</ele><time>2026-05-03T13:30:31.369Z</time></trkpt><trkpt lat="44.39389" lon="8.5448784"><ele>199.0</ele><time>2026-05-03T13:30:32.37Z</time></trkpt><trkpt lat="44.3937914" lon="8.5450491"><ele>194.25</ele><time>2026-05-03T13:30:33.369Z</time></trkpt><trkpt lat="44.393706" lon="8.5452212"><ele>189.5</ele><time>2026-05-03T13:30:34.369Z</time></trkpt><trkpt lat="44.393629" lon="8.5453992"><ele>184.75</ele><time>2026-05-03T13:30:35.369Z</time></trkpt><trkpt lat="44.3935606" lon="8.5455774"><ele>180.0</ele><time>2026-05-03T13:30:36.369Z</time></trkpt><trkpt lat="44.3934946" lon="8.5457506"><ele>180.0</ele><time>2026-05-03T13:30:37.369Z</time></trkpt><trkpt lat="44.3934322" lon="8.5459092"><ele>180.0</ele><time>2026-05-03T13:30:38.369Z</time></trkpt><trkpt lat="44.393356" lon="8.546051"><ele>180.0</ele><time>2026-05-03T13:30:39.369Z</time></trkpt><trkpt lat="44.3932605" lon="8.5461633"><ele>180.0</ele><time>2026-05-03T13:30:40.369Z</time></trkpt><trkpt lat="44.3931497" lon="8.5462322"><ele>176.75</ele><time>2026-05-03T13:30:41.37Z</time></trkpt><trkpt lat="44.3930304" lon="8.5462887"><ele>173.5</ele><time>2026-05-03T13:30:42.37Z</time></trkpt><trkpt lat="44.3929159" lon="8.5463795"><ele>170.25</ele><time>2026-05-03T13:30:43.369Z</time></trkpt><trkpt lat="44.3928048" lon="8.5465005"><ele>167.0</ele><time>2026-05-03T13:30:44.369Z</time></trkpt><trkpt lat="44.3926991" lon="8.5466286"><ele>167.0</ele><time>2026-05-03T13:30:45.37Z</time></trkpt><trkpt lat="44.3925888" lon="8.5467407"><ele>167.0</ele><time>2026-05-03T13:30:46.37Z</time></trkpt><trkpt lat="44.3924629" lon="8.5468198"><ele>167.0</ele><time>2026-05-03T13:30:47.369Z</time></trkpt><trkpt lat="44.3923275" lon="8.5468617"><ele>167.0</ele><time>2026-05-03T13:30:48.369Z</time></trkpt><trkpt lat="44.3921956" lon="8.5469101"><ele>166.25</ele><time>2026-05-03T13:30:49.369Z</time></trkpt><trkpt lat="44.3920717" lon="8.5469882"><ele>165.5</ele><time>2026-05-03T13:30:50.369Z</time></trkpt><trkpt lat="44.3919786" lon="8.547106"><ele>164.75</ele><time>2026-05-03T13:30:51.369Z</time></trkpt><trkpt lat="44.3919094" lon="8.5472528"><ele>164.0</ele><time>2026-05-03T13:30:52.369Z</time></trkpt><trkpt lat="44.3918763" lon="8.5474401"><ele>163.66666666666666</ele><time>2026-05-03T13:30:53.369Z</time></trkpt><trkpt lat="44.391858" lon="8.5476566"><ele>163.33333333333334</ele><time>2026-05-03T13:30:54.369Z</time></trkpt><trkpt lat="44.3918254" lon="8.5478807"><ele>163.0</ele><time>2026-05-03T13:30:55.37Z</time></trkpt><trkpt lat="44.3917801" lon="8.5480954"><ele>162.75</ele><time>2026-05-03T13:30:56.37Z</time></trkpt><trkpt lat="44.3917359" lon="8.5483071"><ele>162.5</ele><time>2026-05-03T13:30:57.37Z</time></trkpt><trkpt lat="44.3917011" lon="8.548509"><ele>162.25</ele><time>2026-05-03T13:30:58.37Z</time></trkpt><trkpt lat="44.3916843" lon="8.5486986"><ele>162.0</ele><time>2026-05-03T13:30:59.369Z</time></trkpt><trkpt lat="44.3916654" lon="8.5488623"><ele>165.0</ele><time>2026-05-03T13:31:00.369Z</time></trkpt><trkpt lat="44.3916283" lon="8.5490136"><ele>168.0</ele><time>2026-05-03T13:31:01.37Z</time></trkpt><trkpt lat="44.3915613" lon="8.549159"><ele>171.0</ele><time>2026-05-03T13:31:02.369Z</time></trkpt><trkpt lat="44.3914643" lon="8.5492813"><ele>174.0</ele><time>2026-05-03T13:31:03.369Z</time></trkpt><trkpt lat="44.3913476" lon="8.5493867"><ele>172.25</ele><time>2026-05-03T13:31:04.37Z</time></trkpt><trkpt lat="44.3912318" lon="8.5494882"><ele>170.5</ele><time>2026-05-03T13:31:05.37Z</time></trkpt><trkpt lat="44.3911143" lon="8.5495772"><ele>168.75</ele><time>2026-05-03T13:31:06.369Z</time></trkpt><trkpt lat="44.3909888" lon="8.5496488"><ele>167.0</ele><time>2026-05-03T13:31:07.369Z</time></trkpt><trkpt lat="44.3908549" lon="8.5497014"><ele>167.0</ele><time>2026-05-03T13:31:08.369Z</time></trkpt><trkpt lat="44.3907067" lon="8.5497358"><ele>167.0</ele><time>2026-05-03T13:31:09.369Z</time></trkpt><trkpt lat="44.3905494" lon="8.549766"><ele>167.0</ele><time>2026-05-03T13:31:10.37Z</time></trkpt><trkpt lat="44.3903912" lon="8.5498008"><ele>163.25</ele><time>2026-05-03T13:31:11.369Z</time></trkpt><trkpt lat="44.3902376" lon="8.5498315"><ele>159.5</ele><time>2026-05-03T13:31:12.369Z</time></trkpt><trkpt lat="44.3900933" lon="8.5498599"><ele>155.75</ele><time>2026-05-03T13:31:13.37Z</time></trkpt><trkpt lat="44.389963" lon="8.5498843"><ele>152.0</ele><time>2026-05-03T13:31:14.369Z</time></trkpt><trkpt lat="44.3898414" lon="8.5498791"><ele>152.0</ele><time>2026-05-03T13:31:15.37Z</time></trkpt><trkpt lat="44.389716" lon="8.5498255"><ele>152.0</ele><time>2026-05-03T13:31:16.369Z</time></trkpt><trkpt lat="44.3896003" lon="8.5497247"><ele>152.0</ele><time>2026-05-03T13:31:17.369Z</time></trkpt><trkpt lat="44.3894857" lon="8.5495807"><ele>152.0</ele><time>2026-05-03T13:31:18.369Z</time></trkpt><trkpt lat="44.3893709" lon="8.5494328"><ele>145.66666666666666</ele><time>2026-05-03T13:31:19.37Z</time></trkpt><trkpt lat="44.3892545" lon="8.5492812"><ele>139.33333333333334</ele><time>2026-05-03T13:31:20.37Z</time></trkpt><trkpt lat="44.3891415" lon="8.5491355"><ele>133.0</ele><time>2026-05-03T13:31:21.37Z</time></trkpt><trkpt lat="44.389033" lon="8.5489901"><ele>133.0</ele><time>2026-05-03T13:31:22.369Z</time></trkpt><trkpt lat="44.3889328" lon="8.5488608"><ele>133.0</ele><time>2026-05-03T13:31:23.369Z</time></trkpt><trkpt lat="44.3888309" lon="8.5487401"><ele>133.0</ele><time>2026-05-03T13:31:24.37Z</time></trkpt><trkpt lat="44.3887344" lon="8.5486232"><ele>133.0</ele><time>2026-05-03T13:31:25.369Z</time></trkpt><trkpt lat="44.3886378" lon="8.5485211"><ele>133.0</ele><time>2026-05-03T13:31:26.369Z</time></trkpt><trkpt lat="44.3885321" lon="8.5484503"><ele>133.0</ele><time>2026-05-03T13:31:27.37Z</time></trkpt><trkpt lat="44.3884196" lon="8.5484029"><ele>133.0</ele><time>2026-05-03T13:31:28.37Z</time></trkpt><trkpt lat="44.3883077" lon="8.5483638"><ele>133.0</ele><time>2026-05-03T13:31:29.369Z</time></trkpt><trkpt lat="44.3881983" lon="8.5483313"><ele>133.0</ele><time>2026-05-03T13:31:30.369Z</time></trkpt><trkpt lat="44.388092" lon="8.5483003"><ele>133.0</ele><time>2026-05-03T13:31:31.37Z</time></trkpt><trkpt lat="44.3879955" lon="8.5482686"><ele>133.0</ele><time>2026-05-03T13:31:32.369Z</time></trkpt><trkpt lat="44.3879114" lon="8.5482448"><ele>133.0</ele><time>2026-05-03T13:31:33.369Z</time></trkpt><trkpt lat="44.3878406" lon="8.5482315"><ele>133.0</ele><time>2026-05-03T13:31:34.369Z</time></trkpt><trkpt lat="44.3877542" lon="8.548227"><ele>131.0</ele><time>2026-05-03T13:31:36.369Z</time></trkpt><trkpt lat="44.3877001" lon="8.5483625"><ele>129.0</ele><time>2026-05-03T13:31:40.369Z</time></trkpt><trkpt lat="44.3877121" lon="8.5484577"><ele>127.0</ele><time>2026-05-03T13:31:41.369Z</time></trkpt><trkpt lat="44.3877375" lon="8.5485641"><ele>125.0</ele><time>2026-05-03T13:31:42.37Z</time></trkpt><trkpt lat="44.3877746" lon="8.5486719"><ele>123.00000000000001</ele><time>2026-05-03T13:31:43.369Z</time></trkpt><trkpt lat="44.3878051" lon="8.548787"><ele>121.0</ele><time>2026-05-03T13:31:44.369Z</time></trkpt><trkpt lat="44.3878265" lon="8.5489083"><ele>120.00000000000001</ele><time>2026-05-03T13:31:45.37Z</time></trkpt><trkpt lat="44.3878228" lon="8.5490387"><ele>119.0</ele><time>2026-05-03T13:31:46.369Z</time></trkpt><trkpt lat="44.3878085" lon="8.5491563"><ele>118.0</ele><time>2026-05-03T13:31:47.369Z</time></trkpt><trkpt lat="44.3877699" lon="8.549262"><ele>117.0</ele><time>2026-05-03T13:31:48.37Z</time></trkpt><trkpt lat="44.3877226" lon="8.5493582"><ele>116.00000000000001</ele><time>2026-05-03T13:31:49.369Z</time></trkpt><trkpt lat="44.387659" lon="8.5494362"><ele>115.0</ele><time>2026-05-03T13:31:50.369Z</time></trkpt><trkpt lat="44.3875877" lon="8.5494992"><ele>115.0</ele><time>2026-05-03T13:31:51.37Z</time></trkpt><trkpt lat="44.3874862" lon="8.5495228"><ele>115.0</ele><time>2026-05-03T13:31:52.37Z</time></trkpt><trkpt lat="44.3873892" lon="8.5495511"><ele>115.0</ele><time>2026-05-03T13:31:53.37Z</time></trkpt><trkpt lat="44.3872846" lon="8.549587"><ele>115.0</ele><time>2026-05-03T13:31:54.369Z</time></trkpt><trkpt lat="44.3871756" lon="8.5496178"><ele>115.0</ele><time>2026-05-03T13:31:55.37Z</time></trkpt><trkpt lat="44.3870555" lon="8.5496589"><ele>117.0</ele><time>2026-05-03T13:31:56.37Z</time></trkpt><trkpt lat="44.3869308" lon="8.5496869"><ele>119.0</ele><time>2026-05-03T13:31:57.369Z</time></trkpt><trkpt lat="44.3868063" lon="8.5497099"><ele>121.0</ele><time>2026-05-03T13:31:58.37Z</time></trkpt><trkpt lat="44.3866797" lon="8.5497331"><ele>123.0</ele><time>2026-05-03T13:31:59.369Z</time></trkpt><trkpt lat="44.3865511" lon="8.5497604"><ele>123.0</ele><time>2026-05-03T13:32:00.369Z</time></trkpt><trkpt lat="44.3864244" lon="8.5497778"><ele>123.0</ele><time>2026-05-03T13:32:01.37Z</time></trkpt><trkpt lat="44.3862919" lon="8.5497771"><ele>123.0</ele><time>2026-05-03T13:32:02.369Z</time></trkpt><trkpt lat="44.3861605" lon="8.5497605"><ele>123.0</ele><time>2026-05-03T13:32:03.369Z</time></trkpt><trkpt lat="44.3860399" lon="8.549722"><ele>121.2</ele><time>2026-05-03T13:32:04.369Z</time></trkpt><trkpt lat="44.3859269" lon="8.54969"><ele>119.4</ele><time>2026-05-03T13:32:05.369Z</time></trkpt><trkpt lat="44.3858308" lon="8.5496706"><ele>117.60000000000001</ele><time>2026-05-03T13:32:06.369Z</time></trkpt><trkpt lat="44.3857245" lon="8.5497023"><ele>115.80000000000001</ele><time>2026-05-03T13:32:07.369Z</time></trkpt><trkpt lat="44.3856317" lon="8.5497918"><ele>114.0</ele><time>2026-05-03T13:32:08.369Z</time></trkpt><trkpt lat="44.3855371" lon="8.5499135"><ele>110.5</ele><time>2026-05-03T13:32:09.369Z</time></trkpt><trkpt lat="44.3854445" lon="8.5500534"><ele>107.0</ele><time>2026-05-03T13:32:10.369Z</time></trkpt><trkpt lat="44.3853599" lon="8.5502179"><ele>103.5</ele><time>2026-05-03T13:32:11.369Z</time></trkpt><trkpt lat="44.3852892" lon="8.5503999"><ele>100.0</ele><time>2026-05-03T13:32:12.369Z</time></trkpt><trkpt lat="44.3852248" lon="8.5505867"><ele>100.0</ele><time>2026-05-03T13:32:13.369Z</time></trkpt><trkpt lat="44.3851616" lon="8.5507803"><ele>100.0</ele><time>2026-05-03T13:32:14.37Z</time></trkpt><trkpt lat="44.3850986" lon="8.5509713"><ele>100.0</ele><time>2026-05-03T13:32:15.369Z</time></trkpt><trkpt lat="44.3850331" lon="8.5511586"><ele>100.33333333333334</ele><time>2026-05-03T13:32:16.37Z</time></trkpt><trkpt lat="44.3849727" lon="8.5513449"><ele>100.66666666666666</ele><time>2026-05-03T13:32:17.369Z</time></trkpt><trkpt lat="44.3849116" lon="8.5515397"><ele>101.0</ele><time>2026-05-03T13:32:18.369Z</time></trkpt><trkpt lat="44.3848455" lon="8.5517351"><ele>101.0</ele><time>2026-05-03T13:32:19.369Z</time></trkpt><trkpt lat="44.3847798" lon="8.5519314"><ele>101.0</ele><time>2026-05-03T13:32:20.37Z</time></trkpt><trkpt lat="44.3847136" lon="8.5521249"><ele>101.0</ele><time>2026-05-03T13:32:21.369Z</time></trkpt><trkpt lat="44.3846453" lon="8.5523286"><ele>99.0</ele><time>2026-05-03T13:32:22.37Z</time></trkpt><trkpt lat="44.3845752" lon="8.5525301"><ele>97.0</ele><time>2026-05-03T13:32:23.37Z</time></trkpt><trkpt lat="44.3845083" lon="8.5527329"><ele>95.0</ele><time>2026-05-03T13:32:24.37Z</time></trkpt><trkpt lat="44.3844402" lon="8.5529352"><ele>94.0</ele><time>2026-05-03T13:32:25.369Z</time></trkpt><trkpt lat="44.3843708" lon="8.5531367"><ele>93.0</ele><time>2026-05-03T13:32:26.369Z</time></trkpt><trkpt lat="44.3843022" lon="8.5533393"><ele>92.0</ele><time>2026-05-03T13:32:27.369Z</time></trkpt><trkpt lat="44.3842303" lon="8.5535552"><ele>91.66666666666667</ele><time>2026-05-03T13:32:28.369Z</time></trkpt><trkpt lat="44.3841562" lon="8.5537736"><ele>91.33333333333333</ele><time>2026-05-03T13:32:29.369Z</time></trkpt><trkpt lat="44.3840826" lon="8.5539799"><ele>91.0</ele><time>2026-05-03T13:32:30.369Z</time></trkpt><trkpt lat="44.3840016" lon="8.5541739"><ele>91.0</ele><time>2026-05-03T13:32:31.369Z</time></trkpt><trkpt lat="44.383894" lon="8.5543663"><ele>91.0</ele><time>2026-05-03T13:32:32.369Z</time></trkpt><trkpt lat="44.3837713" lon="8.554556"><ele>91.0</ele><time>2026-05-03T13:32:33.369Z</time></trkpt><trkpt lat="44.3836399" lon="8.5547358"><ele>90.33333333333333</ele><time>2026-05-03T13:32:34.369Z</time></trkpt><trkpt lat="44.383515" lon="8.5549154"><ele>89.66666666666667</ele><time>2026-05-03T13:32:35.369Z</time></trkpt><trkpt lat="44.383394" lon="8.5550968"><ele>89.0</ele><time>2026-05-03T13:32:36.369Z</time></trkpt><trkpt lat="44.3832794" lon="8.5552693"><ele>88.33333333333334</ele><time>2026-05-03T13:32:37.37Z</time></trkpt><trkpt lat="44.3831712" lon="8.5554411"><ele>87.66666666666667</ele><time>2026-05-03T13:32:38.369Z</time></trkpt><trkpt lat="44.3830658" lon="8.5556138"><ele>87.0</ele><time>2026-05-03T13:32:39.369Z</time></trkpt><trkpt lat="44.3829698" lon="8.5557917"><ele>87.0</ele><time>2026-05-03T13:32:40.369Z</time></trkpt><trkpt lat="44.3828708" lon="8.5559821"><ele>87.0</ele><time>2026-05-03T13:32:41.369Z</time></trkpt><trkpt lat="44.3827821" lon="8.556179"><ele>87.0</ele><time>2026-05-03T13:32:42.369Z</time></trkpt><trkpt lat="44.3827085" lon="8.5563805"><ele>86.33333333333333</ele><time>2026-05-03T13:32:43.369Z</time></trkpt><trkpt lat="44.3826433" lon="8.5565923"><ele>85.66666666666666</ele><time>2026-05-03T13:32:44.369Z</time></trkpt><trkpt lat="44.3825977" lon="8.5568032"><ele>85.0</ele><time>2026-05-03T13:32:45.369Z</time></trkpt><trkpt lat="44.3825575" lon="8.5570115"><ele>84.33333333333333</ele><time>2026-05-03T13:32:46.37Z</time></trkpt><trkpt lat="44.3825112" lon="8.5572148"><ele>83.66666666666667</ele><time>2026-05-03T13:32:47.369Z</time></trkpt><trkpt lat="44.3824667" lon="8.5574151"><ele>83.0</ele><time>2026-05-03T13:32:48.37Z</time></trkpt><trkpt lat="44.3824245" lon="8.5576177"><ele>83.0</ele><time>2026-05-03T13:32:49.369Z</time></trkpt><trkpt lat="44.3823834" lon="8.5578183"><ele>83.0</ele><time>2026-05-03T13:32:50.369Z</time></trkpt><trkpt lat="44.3823406" lon="8.558023"><ele>83.0</ele><time>2026-05-03T13:32:51.37Z</time></trkpt><trkpt lat="44.3823005" lon="8.5582341"><ele>82.33333333333334</ele><time>2026-05-03T13:32:52.369Z</time></trkpt><trkpt lat="44.3822529" lon="8.5584422"><ele>81.66666666666667</ele><time>2026-05-03T13:32:53.37Z</time></trkpt><trkpt lat="44.3822005" lon="8.5586383"><ele>81.0</ele><time>2026-05-03T13:32:54.37Z</time></trkpt><trkpt lat="44.3821311" lon="8.558818"><ele>81.0</ele><time>2026-05-03T13:32:55.369Z</time></trkpt><trkpt lat="44.3820429" lon="8.5589819"><ele>81.0</ele><time>2026-05-03T13:32:56.37Z</time></trkpt><trkpt lat="44.3819334" lon="8.5591463"><ele>81.0</ele><time>2026-05-03T13:32:57.369Z</time></trkpt><trkpt lat="44.3818246" lon="8.5593292"><ele>81.0</ele><time>2026-05-03T13:32:58.369Z</time></trkpt><trkpt lat="44.3816954" lon="8.5595024"><ele>81.0</ele><time>2026-05-03T13:32:59.369Z</time></trkpt><trkpt lat="44.3815672" lon="8.5596813"><ele>81.0</ele><time>2026-05-03T13:33:00.369Z</time></trkpt><trkpt lat="44.3814432" lon="8.5598531"><ele>80.33333333333333</ele><time>2026-05-03T13:33:01.369Z</time></trkpt><trkpt lat="44.3813305" lon="8.5600189"><ele>79.66666666666666</ele><time>2026-05-03T13:33:02.369Z</time></trkpt><trkpt lat="44.3812091" lon="8.5601665"><ele>79.0</ele><time>2026-05-03T13:33:03.369Z</time></trkpt><trkpt lat="44.3810876" lon="8.5603061"><ele>79.33333333333333</ele><time>2026-05-03T13:33:04.369Z</time></trkpt><trkpt lat="44.3809923" lon="8.5604627"><ele>79.66666666666667</ele><time>2026-05-03T13:33:05.369Z</time></trkpt><trkpt lat="44.3809178" lon="8.5606411"><ele>80.0</ele><time>2026-05-03T13:33:06.369Z</time></trkpt><trkpt lat="44.380841" lon="8.5608328"><ele>80.0</ele><time>2026-05-03T13:33:07.369Z</time></trkpt><trkpt lat="44.3807512" lon="8.561016"><ele>80.0</ele><time>2026-05-03T13:33:08.37Z</time></trkpt><trkpt lat="44.3806474" lon="8.5611837"><ele>80.0</ele><time>2026-05-03T13:33:09.369Z</time></trkpt><trkpt lat="44.3805224" lon="8.5613286"><ele>80.0</ele><time>2026-05-03T13:33:10.369Z</time></trkpt><trkpt lat="44.3803817" lon="8.5614526"><ele>80.0</ele><time>2026-05-03T13:33:11.369Z</time></trkpt><trkpt lat="44.3802428" lon="8.5615619"><ele>80.0</ele><time>2026-05-03T13:33:12.37Z</time></trkpt><trkpt lat="44.3801038" lon="8.5616568"><ele>80.0</ele><time>2026-05-03T13:33:13.37Z</time></trkpt><trkpt lat="44.379969" lon="8.5617525"><ele>80.0</ele><time>2026-05-03T13:33:14.37Z</time></trkpt><trkpt lat="44.3798403" lon="8.5618829"><ele>80.0</ele><time>2026-05-03T13:33:15.369Z</time></trkpt><trkpt lat="44.3797209" lon="8.5620305"><ele>78.75</ele><time>2026-05-03T13:33:16.37Z</time></trkpt><trkpt lat="44.3796087" lon="8.5621706"><ele>77.5</ele><time>2026-05-03T13:33:17.369Z</time></trkpt><trkpt lat="44.3795033" lon="8.5623019"><ele>76.25</ele><time>2026-05-03T13:33:18.37Z</time></trkpt><trkpt lat="44.379416" lon="8.5624325"><ele>75.0</ele><time>2026-05-03T13:33:19.369Z</time></trkpt><trkpt lat="44.3793337" lon="8.5625726"><ele>75.0</ele><time>2026-05-03T13:33:20.37Z</time></trkpt><trkpt lat="44.3793344" lon="8.5627764"><ele>75.0</ele><time>2026-05-03T13:33:21.37Z</time></trkpt><trkpt lat="44.3793138" lon="8.5629533"><ele>75.0</ele><time>2026-05-03T13:33:22.369Z</time></trkpt><trkpt lat="44.3792595" lon="8.5631292"><ele>75.0</ele><time>2026-05-03T13:33:23.369Z</time></trkpt><trkpt lat="44.3791845" lon="8.5633057"><ele>74.5</ele><time>2026-05-03T13:33:24.369Z</time></trkpt><trkpt lat="44.379111" lon="8.5634762"><ele>74.0</ele><time>2026-05-03T13:33:25.37Z</time></trkpt><trkpt lat="44.3790414" lon="8.5636348"><ele>73.5</ele><time>2026-05-03T13:33:26.369Z</time></trkpt><trkpt lat="44.3789608" lon="8.563776"><ele>73.0</ele><time>2026-05-03T13:33:27.369Z</time></trkpt><trkpt lat="44.3788663" lon="8.56389"><ele>74.0</ele><time>2026-05-03T13:33:28.369Z</time></trkpt><trkpt lat="44.3787483" lon="8.5639842"><ele>75.0</ele><time>2026-05-03T13:33:29.369Z</time></trkpt><trkpt lat="44.3786155" lon="8.5640518"><ele>76.0</ele><time>2026-05-03T13:33:30.37Z</time></trkpt><trkpt lat="44.3784744" lon="8.5640932"><ele>77.0</ele><time>2026-05-03T13:33:31.37Z</time></trkpt><trkpt lat="44.3783351" lon="8.5641388"><ele>77.0</ele><time>2026-05-03T13:33:32.369Z</time></trkpt><trkpt lat="44.3782035" lon="8.5641998"><ele>77.0</ele><time>2026-05-03T13:33:33.37Z</time></trkpt><trkpt lat="44.3780709" lon="8.5642675"><ele>77.0</ele><time>2026-05-03T13:33:34.369Z</time></trkpt><trkpt lat="44.3779562" lon="8.5644448"><ele>76.66666666666667</ele><time>2026-05-03T13:33:35.369Z</time></trkpt><trkpt lat="44.3778296" lon="8.5645805"><ele>76.33333333333333</ele><time>2026-05-03T13:33:36.369Z</time></trkpt><trkpt lat="44.3776976" lon="8.5647169"><ele>76.0</ele><time>2026-05-03T13:33:37.369Z</time></trkpt><trkpt lat="44.3775633" lon="8.5648402"><ele>76.0</ele><time>2026-05-03T13:33:38.369Z</time></trkpt><trkpt lat="44.3774267" lon="8.5649521"><ele>76.0</ele><time>2026-05-03T13:33:39.369Z</time></trkpt><trkpt lat="44.3772953" lon="8.5650587"><ele>76.0</ele><time>2026-05-03T13:33:40.369Z</time></trkpt><trkpt lat="44.3771691" lon="8.5651593"><ele>72.5</ele><time>2026-05-03T13:33:41.369Z</time></trkpt><trkpt lat="44.3770444" lon="8.5652431"><ele>69.0</ele><time>2026-05-03T13:33:42.37Z</time></trkpt><trkpt lat="44.3769077" lon="8.5652813"><ele>65.5</ele><time>2026-05-03T13:33:43.37Z</time></trkpt><trkpt lat="44.3767673" lon="8.5652838"><ele>62.0</ele><time>2026-05-03T13:33:44.369Z</time></trkpt><trkpt lat="44.3766383" lon="8.5652837"><ele>62.0</ele><time>2026-05-03T13:33:45.369Z</time></trkpt><trkpt lat="44.3765121" lon="8.5652825"><ele>62.0</ele><time>2026-05-03T13:33:46.37Z</time></trkpt><trkpt lat="44.3763951" lon="8.5652831"><ele>62.0</ele><time>2026-05-03T13:33:47.369Z</time></trkpt><trkpt lat="44.3762822" lon="8.5652812"><ele>62.0</ele><time>2026-05-03T13:33:48.369Z</time></trkpt><trkpt lat="44.3761758" lon="8.5653035"><ele>62.00000000000001</ele><time>2026-05-03T13:33:49.369Z</time></trkpt><trkpt lat="44.3760867" lon="8.5653576"><ele>62.0</ele><time>2026-05-03T13:33:50.37Z</time></trkpt><trkpt lat="44.3759982" lon="8.5654107"><ele>62.0</ele><time>2026-05-03T13:33:51.37Z</time></trkpt><trkpt lat="44.3759626" lon="8.5654953"><ele>62.0</ele><time>2026-05-03T13:33:52.369Z</time></trkpt><trkpt lat="44.3759174" lon="8.5655713"><ele>62.00000000000001</ele><time>2026-05-03T13:33:53.369Z</time></trkpt><trkpt lat="44.3758859" lon="8.5656666"><ele>62.0</ele><time>2026-05-03T13:33:54.37Z</time></trkpt><trkpt lat="44.3758597" lon="8.5657685"><ele>61.2</ele><time>2026-05-03T13:33:55.369Z</time></trkpt><trkpt lat="44.3758262" lon="8.5658836"><ele>60.400000000000006</ele><time>2026-05-03T13:33:56.369Z</time></trkpt><trkpt lat="44.3757977" lon="8.5660094"><ele>59.599999999999994</ele><time>2026-05-03T13:33:57.369Z</time></trkpt><trkpt lat="44.3757655" lon="8.5661494"><ele>58.8</ele><time>2026-05-03T13:33:58.369Z</time></trkpt><trkpt lat="44.3757366" lon="8.5662986"><ele>58.0</ele><time>2026-05-03T13:33:59.369Z</time></trkpt><trkpt lat="44.3757071" lon="8.5664524"><ele>58.0</ele><time>2026-05-03T13:34:00.369Z</time></trkpt><trkpt lat="44.3756809" lon="8.566613"><ele>58.0</ele><time>2026-05-03T13:34:01.37Z</time></trkpt><trkpt lat="44.3756571" lon="8.5667745"><ele>58.0</ele><time>2026-05-03T13:34:02.369Z</time></trkpt><trkpt lat="44.3756343" lon="8.5669287"><ele>58.0</ele><time>2026-05-03T13:34:03.369Z</time></trkpt><trkpt lat="44.3756056" lon="8.567084"><ele>59.0</ele><time>2026-05-03T13:34:04.369Z</time></trkpt><trkpt lat="44.3755752" lon="8.5672332"><ele>60.0</ele><time>2026-05-03T13:34:05.369Z</time></trkpt><trkpt lat="44.3755484" lon="8.567386"><ele>61.0</ele><time>2026-05-03T13:34:06.369Z</time></trkpt><trkpt lat="44.3755215" lon="8.5675329"><ele>62.0</ele><time>2026-05-03T13:34:07.369Z</time></trkpt><trkpt lat="44.3754801" lon="8.5676757"><ele>63.0</ele><time>2026-05-03T13:34:08.369Z</time></trkpt><trkpt lat="44.3754134" lon="8.5677974"><ele>64.6</ele><time>2026-05-03T13:34:09.369Z</time></trkpt><trkpt lat="44.3753197" lon="8.5678846"><ele>66.19999999999999</ele><time>2026-05-03T13:34:10.369Z</time></trkpt><trkpt lat="44.3752194" lon="8.567952"><ele>67.8</ele><time>2026-05-03T13:34:11.369Z</time></trkpt><trkpt lat="44.3751263" lon="8.5679983"><ele>69.39999999999999</ele><time>2026-05-03T13:34:12.369Z</time></trkpt><trkpt lat="44.3750199" lon="8.5680087"><ele>71.0</ele><time>2026-05-03T13:34:13.369Z</time></trkpt><trkpt lat="44.3749059" lon="8.567995"><ele>71.0</ele><time>2026-05-03T13:34:14.369Z</time></trkpt><trkpt lat="44.3747857" lon="8.5679795"><ele>71.0</ele><time>2026-05-03T13:34:15.369Z</time></trkpt><trkpt lat="44.3746599" lon="8.5679651"><ele>71.0</ele><time>2026-05-03T13:34:16.369Z</time></trkpt><trkpt lat="44.3745385" lon="8.5679532"><ele>71.0</ele><time>2026-05-03T13:34:17.369Z</time></trkpt><trkpt lat="44.3744157" lon="8.5679388"><ele>67.25</ele><time>2026-05-03T13:34:18.369Z</time></trkpt><trkpt lat="44.3742992" lon="8.5679246"><ele>63.5</ele><time>2026-05-03T13:34:19.369Z</time></trkpt><trkpt lat="44.3741799" lon="8.5679161"><ele>59.75</ele><time>2026-05-03T13:34:20.37Z</time></trkpt><trkpt lat="44.3740625" lon="8.5679256"><ele>56.0</ele><time>2026-05-03T13:34:21.369Z</time></trkpt><trkpt lat="44.3739497" lon="8.5679396"><ele>55.599999999999994</ele><time>2026-05-03T13:34:22.369Z</time></trkpt><trkpt lat="44.3738422" lon="8.5679736"><ele>55.199999999999996</ele><time>2026-05-03T13:34:23.369Z</time></trkpt><trkpt lat="44.3737434" lon="8.5680403"><ele>54.800000000000004</ele><time>2026-05-03T13:34:24.369Z</time></trkpt><trkpt lat="44.373656" lon="8.5681274"><ele>54.400000000000006</ele><time>2026-05-03T13:34:25.369Z</time></trkpt><trkpt lat="44.373584" lon="8.5682389"><ele>54.0</ele><time>2026-05-03T13:34:26.369Z</time></trkpt><trkpt lat="44.3735218" lon="8.5683593"><ele>54.0</ele><time>2026-05-03T13:34:27.369Z</time></trkpt><trkpt lat="44.3734758" lon="8.5684958"><ele>54.00000000000001</ele><time>2026-05-03T13:34:28.37Z</time></trkpt><trkpt lat="44.3734406" lon="8.5686357"><ele>54.00000000000001</ele><time>2026-05-03T13:34:29.369Z</time></trkpt><trkpt lat="44.3734189" lon="8.5687813"><ele>54.0</ele><time>2026-05-03T13:34:30.369Z</time></trkpt><trkpt lat="44.3733954" lon="8.5689263"><ele>54.0</ele><time>2026-05-03T13:34:31.369Z</time></trkpt><trkpt lat="44.3733687" lon="8.5690729"><ele>53.2</ele><time>2026-05-03T13:34:32.369Z</time></trkpt><trkpt lat="44.3733417" lon="8.569218"><ele>52.400000000000006</ele><time>2026-05-03T13:34:33.369Z</time></trkpt><trkpt lat="44.3733244" lon="8.5693672"><ele>51.6</ele><time>2026-05-03T13:34:34.37Z</time></trkpt><trkpt lat="44.3733052" lon="8.5695194"><ele>50.8</ele><time>2026-05-03T13:34:35.369Z</time></trkpt><trkpt lat="44.3732931" lon="8.5696653"><ele>50.0</ele><time>2026-05-03T13:34:36.369Z</time></trkpt><trkpt lat="44.3732951" lon="8.5698129"><ele>50.0</ele><time>2026-05-03T13:34:37.369Z</time></trkpt><trkpt lat="44.3732969" lon="8.5699589"><ele>50.0</ele><time>2026-05-03T13:34:38.369Z</time></trkpt><trkpt lat="44.3732969" lon="8.5701097"><ele>50.0</ele><time>2026-05-03T13:34:39.369Z</time></trkpt><trkpt lat="44.3733006" lon="8.5702534"><ele>50.0</ele><time>2026-05-03T13:34:40.369Z</time></trkpt><trkpt lat="44.3733041" lon="8.5703931"><ele>50.0</ele><time>2026-05-03T13:34:41.37Z</time></trkpt><trkpt lat="44.3733081" lon="8.5705403"><ele>50.2</ele><time>2026-05-03T13:34:42.37Z</time></trkpt><trkpt lat="44.3733049" lon="8.5706866"><ele>50.4</ele><time>2026-05-03T13:34:43.37Z</time></trkpt><trkpt lat="44.3733009" lon="8.5708329"><ele>50.599999999999994</ele><time>2026-05-03T13:34:44.369Z</time></trkpt><trkpt lat="44.3732979" lon="8.5709784"><ele>50.8</ele><time>2026-05-03T13:34:45.369Z</time></trkpt><trkpt lat="44.3732862" lon="8.5711234"><ele>51.0</ele><time>2026-05-03T13:34:46.369Z</time></trkpt><trkpt lat="44.3732646" lon="8.5712666"><ele>50.199999999999996</ele><time>2026-05-03T13:34:47.369Z</time></trkpt><trkpt lat="44.3732299" lon="8.5714088"><ele>49.4</ele><time>2026-05-03T13:34:48.369Z</time></trkpt><trkpt lat="44.3731865" lon="8.5715479"><ele>48.6</ele><time>2026-05-03T13:34:49.369Z</time></trkpt><trkpt lat="44.3731419" lon="8.571686"><ele>47.8</ele><time>2026-05-03T13:34:50.369Z</time></trkpt><trkpt lat="44.3730926" lon="8.5718297"><ele>47.0</ele><time>2026-05-03T13:34:51.369Z</time></trkpt><trkpt lat="44.3730353" lon="8.5719666"><ele>45.4</ele><time>2026-05-03T13:34:52.369Z</time></trkpt><trkpt lat="44.3729754" lon="8.572099"><ele>43.800000000000004</ele><time>2026-05-03T13:34:53.37Z</time></trkpt><trkpt lat="44.3729189" lon="8.5722343"><ele>42.2</ele><time>2026-05-03T13:34:54.369Z</time></trkpt><trkpt lat="44.3728607" lon="8.57237"><ele>40.6</ele><time>2026-05-03T13:34:55.369Z</time></trkpt><trkpt lat="44.3728065" lon="8.5725062"><ele>39.0</ele><time>2026-05-03T13:34:56.369Z</time></trkpt><trkpt lat="44.3727475" lon="8.5726396"><ele>39.0</ele><time>2026-05-03T13:34:57.369Z</time></trkpt><trkpt lat="44.372678" lon="8.5727786"><ele>39.0</ele><time>2026-05-03T13:34:58.369Z</time></trkpt><trkpt lat="44.3726061" lon="8.5729201"><ele>39.0</ele><time>2026-05-03T13:34:59.369Z</time></trkpt><trkpt lat="44.3725339" lon="8.5730667"><ele>39.0</ele><time>2026-05-03T13:35:00.369Z</time></trkpt><trkpt lat="44.3724576" lon="8.5732115"><ele>38.25</ele><time>2026-05-03T13:35:01.369Z</time></trkpt><trkpt lat="44.3723837" lon="8.5733515"><ele>37.5</ele><time>2026-05-03T13:35:02.369Z</time></trkpt><trkpt lat="44.3723098" lon="8.5734863"><ele>36.75</ele><time>2026-05-03T13:35:03.37Z</time></trkpt><trkpt lat="44.3722269" lon="8.5736095"><ele>36.0</ele><time>2026-05-03T13:35:04.369Z</time></trkpt><trkpt lat="44.3721342" lon="8.5737219"><ele>35.0</ele><time>2026-05-03T13:35:05.369Z</time></trkpt><trkpt lat="44.3720384" lon="8.5738146"><ele>34.0</ele><time>2026-05-03T13:35:06.369Z</time></trkpt><trkpt lat="44.3719324" lon="8.5738975"><ele>33.0</ele><time>2026-05-03T13:35:07.37Z</time></trkpt><trkpt lat="44.371702" lon="8.5740329"><ele>33.0</ele><time>2026-05-03T13:35:09.37Z</time></trkpt><trkpt lat="44.3715826" lon="8.5740909"><ele>33.0</ele><time>2026-05-03T13:35:10.369Z</time></trkpt><trkpt lat="44.3714672" lon="8.5741516"><ele>33.0</ele><time>2026-05-03T13:35:11.369Z</time></trkpt><trkpt lat="44.371354" lon="8.5742094"><ele>33.0</ele><time>2026-05-03T13:35:12.369Z</time></trkpt><trkpt lat="44.3712313" lon="8.5742536"><ele>31.75</ele><time>2026-05-03T13:35:13.369Z</time></trkpt><trkpt lat="44.3711113" lon="8.5742973"><ele>30.5</ele><time>2026-05-03T13:35:14.369Z</time></trkpt><trkpt lat="44.3709891" lon="8.5743381"><ele>29.25</ele><time>2026-05-03T13:35:15.369Z</time></trkpt><trkpt lat="44.3708632" lon="8.5743749"><ele>28.0</ele><time>2026-05-03T13:35:16.369Z</time></trkpt><trkpt lat="44.3707386" lon="8.5744104"><ele>28.0</ele><time>2026-05-03T13:35:17.369Z</time></trkpt><trkpt lat="44.3706121" lon="8.5744121"><ele>28.0</ele><time>2026-05-03T13:35:18.369Z</time></trkpt><trkpt lat="44.3704884" lon="8.5744008"><ele>28.0</ele><time>2026-05-03T13:35:19.369Z</time></trkpt><trkpt lat="44.3703624" lon="8.5743907"><ele>28.0</ele><time>2026-05-03T13:35:20.369Z</time></trkpt><trkpt lat="44.3702368" lon="8.5743822"><ele>27.75</ele><time>2026-05-03T13:35:21.37Z</time></trkpt><trkpt lat="44.3701139" lon="8.57437"><ele>27.5</ele><time>2026-05-03T13:35:22.37Z</time></trkpt><trkpt lat="44.3699943" lon="8.5743535"><ele>27.25</ele><time>2026-05-03T13:35:23.37Z</time></trkpt><trkpt lat="44.3698766" lon="8.5743335"><ele>27.0</ele><time>2026-05-03T13:35:24.37Z</time></trkpt><trkpt lat="44.3697651" lon="8.5742931"><ele>26.6</ele><time>2026-05-03T13:35:25.37Z</time></trkpt><trkpt lat="44.3696581" lon="8.5742379"><ele>26.200000000000003</ele><time>2026-05-03T13:35:26.369Z</time></trkpt><trkpt lat="44.3695534" lon="8.5741792"><ele>25.8</ele><time>2026-05-03T13:35:27.369Z</time></trkpt><trkpt lat="44.3694489" lon="8.5741205"><ele>25.4</ele><time>2026-05-03T13:35:28.369Z</time></trkpt><trkpt lat="44.3693499" lon="8.5740606"><ele>25.0</ele><time>2026-05-03T13:35:29.37Z</time></trkpt><trkpt lat="44.3692609" lon="8.5739894"><ele>25.0</ele><time>2026-05-03T13:35:30.369Z</time></trkpt><trkpt lat="44.3691873" lon="8.5739041"><ele>25.0</ele><time>2026-05-03T13:35:31.369Z</time></trkpt><trkpt lat="44.3691199" lon="8.5738028"><ele>25.0</ele><time>2026-05-03T13:35:32.369Z</time></trkpt><trkpt lat="44.3690464" lon="8.5736811"><ele>25.0</ele><time>2026-05-03T13:35:33.369Z</time></trkpt><trkpt lat="44.3689742" lon="8.5735527"><ele>25.0</ele><time>2026-05-03T13:35:34.369Z</time></trkpt><trkpt lat="44.3689146" lon="8.573419"><ele>25.166666666666668</ele><time>2026-05-03T13:35:35.369Z</time></trkpt><trkpt lat="44.3688547" lon="8.5732966"><ele>25.333333333333336</ele><time>2026-05-03T13:35:36.369Z</time></trkpt><trkpt lat="44.3687995" lon="8.5731822"><ele>25.5</ele><time>2026-05-03T13:35:37.369Z</time></trkpt><trkpt lat="44.3687507" lon="8.5730784"><ele>25.666666666666664</ele><time>2026-05-03T13:35:38.369Z</time></trkpt><trkpt lat="44.3686959" lon="8.572995"><ele>25.833333333333332</ele><time>2026-05-03T13:35:39.369Z</time></trkpt><trkpt lat="44.3686334" lon="8.5729409"><ele>26.0</ele><time>2026-05-03T13:35:40.369Z</time></trkpt><trkpt lat="44.3685693" lon="8.5729039"><ele>25.999999999999996</ele><time>2026-05-03T13:35:41.369Z</time></trkpt><trkpt lat="44.3685067" lon="8.5728813"><ele>26.0</ele><time>2026-05-03T13:35:42.369Z</time></trkpt><trkpt lat="44.3684371" lon="8.5728646"><ele>26.0</ele><time>2026-05-03T13:35:43.369Z</time></trkpt><trkpt lat="44.3683634" lon="8.5728358"><ele>26.0</ele><time>2026-05-03T13:35:44.369Z</time></trkpt><trkpt lat="44.3682856" lon="8.5728063"><ele>25.999999999999996</ele><time>2026-05-03T13:35:45.369Z</time></trkpt><trkpt lat="44.3682023" lon="8.5727753"><ele>26.0</ele><time>2026-05-03T13:35:46.369Z</time></trkpt><trkpt lat="44.3681212" lon="8.5727323"><ele>26.166666666666664</ele><time>2026-05-03T13:35:47.37Z</time></trkpt><trkpt lat="44.3680503" lon="8.5727028"><ele>26.333333333333332</ele><time>2026-05-03T13:35:48.369Z</time></trkpt><trkpt lat="44.367983" lon="8.5726624"><ele>26.5</ele><time>2026-05-03T13:35:49.369Z</time></trkpt><trkpt lat="44.3679143" lon="8.5726265"><ele>26.666666666666664</ele><time>2026-05-03T13:35:50.37Z</time></trkpt><trkpt lat="44.3678421" lon="8.5725824"><ele>26.833333333333332</ele><time>2026-05-03T13:35:51.369Z</time></trkpt><trkpt lat="44.3677639" lon="8.5725412"><ele>27.0</ele><time>2026-05-03T13:35:52.369Z</time></trkpt><trkpt lat="44.3676963" lon="8.5724801"><ele>26.666666666666668</ele><time>2026-05-03T13:35:53.369Z</time></trkpt><trkpt lat="44.367612" lon="8.5724628"><ele>26.333333333333336</ele><time>2026-05-03T13:35:54.37Z</time></trkpt><trkpt lat="44.3675257" lon="8.5724503"><ele>26.0</ele><time>2026-05-03T13:35:55.37Z</time></trkpt><trkpt lat="44.3674412" lon="8.5724328"><ele>25.666666666666668</ele><time>2026-05-03T13:35:56.369Z</time></trkpt><trkpt lat="44.3673571" lon="8.5724116"><ele>25.333333333333336</ele><time>2026-05-03T13:35:57.369Z</time></trkpt><trkpt lat="44.3672722" lon="8.5724069"><ele>25.0</ele><time>2026-05-03T13:35:58.37Z</time></trkpt><trkpt lat="44.36721" lon="8.5724367"><ele>23.666666666666668</ele><time>2026-05-03T13:35:59.369Z</time></trkpt><trkpt lat="44.3671473" lon="8.572455"><ele>22.333333333333336</ele><time>2026-05-03T13:36:00.369Z</time></trkpt><trkpt lat="44.3670777" lon="8.5724772"><ele>21.0</ele><time>2026-05-03T13:36:01.369Z</time></trkpt><trkpt lat="44.3670171" lon="8.5725092"><ele>19.666666666666668</ele><time>2026-05-03T13:36:02.369Z</time></trkpt><trkpt lat="44.3669521" lon="8.5725372"><ele>18.333333333333336</ele><time>2026-05-03T13:36:03.369Z</time></trkpt><trkpt lat="44.3668355" lon="8.5725728"><ele>17.0</ele><time>2026-05-03T13:36:05.37Z</time></trkpt><trkpt lat="44.3667277" lon="8.5726117"><ele>17.0</ele><time>2026-05-03T13:36:07.369Z</time></trkpt><trkpt lat="44.3666209" lon="8.5726726"><ele>17.0</ele><time>2026-05-03T13:36:09.369Z</time></trkpt><trkpt lat="44.3665764" lon="8.572737"><ele>17.0</ele><time>2026-05-03T13:36:10.37Z</time></trkpt><trkpt lat="44.3665471" lon="8.5728263"><ele>17.0</ele><time>2026-05-03T13:36:11.369Z</time></trkpt><trkpt lat="44.3665311" lon="8.5729211"><ele>17.0</ele><time>2026-05-03T13:36:12.369Z</time></trkpt><trkpt lat="44.3665123" lon="8.573022"><ele>17.0</ele><time>2026-05-03T13:36:13.369Z</time></trkpt><trkpt lat="44.3664944" lon="8.5731267"><ele>17.0</ele><time>2026-05-03T13:36:14.37Z</time></trkpt><trkpt lat="44.3664787" lon="8.5732371"><ele>17.0</ele><time>2026-05-03T13:36:15.369Z</time></trkpt><trkpt lat="44.3664582" lon="8.5733517"><ele>17.0</ele><time>2026-05-03T13:36:16.369Z</time></trkpt><trkpt lat="44.3664348" lon="8.5734714"><ele>17.0</ele><time>2026-05-03T13:36:17.369Z</time></trkpt><trkpt lat="44.3664082" lon="8.5735926"><ele>17.0</ele><time>2026-05-03T13:36:18.369Z</time></trkpt><trkpt lat="44.3663819" lon="8.5737151"><ele>17.0</ele><time>2026-05-03T13:36:19.369Z</time></trkpt><trkpt lat="44.3663553" lon="8.5738405"><ele>15.6</ele><time>2026-05-03T13:36:20.369Z</time></trkpt><trkpt lat="44.3663241" lon="8.5739591"><ele>14.2</ele><time>2026-05-03T13:36:21.37Z</time></trkpt><trkpt lat="44.3662882" lon="8.5740786"><ele>12.8</ele><time>2026-05-03T13:36:22.369Z</time></trkpt><trkpt lat="44.3662421" lon="8.5741918"><ele>11.4</ele><time>2026-05-03T13:36:23.369Z</time></trkpt><trkpt lat="44.3661865" lon="8.5742981"><ele>10.0</ele><time>2026-05-03T13:36:24.369Z</time></trkpt><trkpt lat="44.3661169" lon="8.5743895"><ele>10.0</ele><time>2026-05-03T13:36:25.369Z</time></trkpt><trkpt lat="44.36603" lon="8.5744627"><ele>10.0</ele><time>2026-05-03T13:36:26.369Z</time></trkpt><trkpt lat="44.3659283" lon="8.5745043"><ele>10.0</ele><time>2026-05-03T13:36:27.369Z</time></trkpt><trkpt lat="44.3658204" lon="8.5745236"><ele>10.0</ele><time>2026-05-03T13:36:28.369Z</time></trkpt><trkpt lat="44.3657146" lon="8.5745409"><ele>10.0</ele><time>2026-05-03T13:36:29.369Z</time></trkpt><trkpt lat="44.3656132" lon="8.574555"><ele>10.8</ele><time>2026-05-03T13:36:30.37Z</time></trkpt><trkpt lat="44.3655112" lon="8.57457"><ele>11.6</ele><time>2026-05-03T13:36:31.37Z</time></trkpt><trkpt lat="44.365403" lon="8.5745861"><ele>12.399999999999999</ele><time>2026-05-03T13:36:32.369Z</time></trkpt><trkpt lat="44.3652877" lon="8.5746015"><ele>13.2</ele><time>2026-05-03T13:36:33.369Z</time></trkpt><trkpt lat="44.3651717" lon="8.5746058"><ele>14.0</ele><time>2026-05-03T13:36:34.369Z</time></trkpt><trkpt lat="44.3650527" lon="8.5745998"><ele>14.0</ele><time>2026-05-03T13:36:35.369Z</time></trkpt><trkpt lat="44.3649381" lon="8.5745976"><ele>14.0</ele><time>2026-05-03T13:36:36.37Z</time></trkpt><trkpt lat="44.3648227" lon="8.5745892"><ele>14.0</ele><time>2026-05-03T13:36:37.369Z</time></trkpt><trkpt lat="44.3647096" lon="8.5745784"><ele>14.0</ele><time>2026-05-03T13:36:38.369Z</time></trkpt><trkpt lat="44.3646008" lon="8.5745641"><ele>14.6</ele><time>2026-05-03T13:36:39.369Z</time></trkpt><trkpt lat="44.3644949" lon="8.5745462"><ele>15.2</ele><time>2026-05-03T13:36:40.37Z</time></trkpt><trkpt lat="44.364394" lon="8.5745316"><ele>15.799999999999999</ele><time>2026-05-03T13:36:41.369Z</time></trkpt><trkpt lat="44.3643011" lon="8.5745243"><ele>16.4</ele><time>2026-05-03T13:36:42.369Z</time></trkpt><trkpt lat="44.3642064" lon="8.5745289"><ele>17.0</ele><time>2026-05-03T13:36:43.369Z</time></trkpt><trkpt lat="44.3641111" lon="8.5745306"><ele>17.0</ele><time>2026-05-03T13:36:44.369Z</time></trkpt><trkpt lat="44.3640053" lon="8.574548"><ele>17.0</ele><time>2026-05-03T13:36:45.369Z</time></trkpt><trkpt lat="44.3639024" lon="8.5745504"><ele>17.0</ele><time>2026-05-03T13:36:46.37Z</time></trkpt><trkpt lat="44.3637946" lon="8.574549"><ele>17.0</ele><time>2026-05-03T13:36:47.369Z</time></trkpt><trkpt lat="44.3636861" lon="8.5745565"><ele>17.0</ele><time>2026-05-03T13:36:48.369Z</time></trkpt><trkpt lat="44.363581" lon="8.5745548"><ele>16.6</ele><time>2026-05-03T13:36:49.369Z</time></trkpt><trkpt lat="44.3634739" lon="8.5745522"><ele>16.2</ele><time>2026-05-03T13:36:50.369Z</time></trkpt><trkpt lat="44.3633703" lon="8.5745642"><ele>15.8</ele><time>2026-05-03T13:36:51.369Z</time></trkpt><trkpt lat="44.3632686" lon="8.574576"><ele>15.4</ele><time>2026-05-03T13:36:52.369Z</time></trkpt><trkpt lat="44.3631633" lon="8.5745878"><ele>15.0</ele><time>2026-05-03T13:36:53.369Z</time></trkpt><trkpt lat="44.3630582" lon="8.5745993"><ele>13.6</ele><time>2026-05-03T13:36:54.369Z</time></trkpt><trkpt lat="44.3629549" lon="8.5746129"><ele>12.2</ele><time>2026-05-03T13:36:55.37Z</time></trkpt><trkpt lat="44.3628514" lon="8.5746296"><ele>10.8</ele><time>2026-05-03T13:36:56.369Z</time></trkpt><trkpt lat="44.3627521" lon="8.574643"><ele>9.4</ele><time>2026-05-03T13:36:57.37Z</time></trkpt><trkpt lat="44.362647" lon="8.5746474"><ele>8.0</ele><time>2026-05-03T13:36:58.369Z</time></trkpt><trkpt lat="44.3625466" lon="8.5746557"><ele>8.0</ele><time>2026-05-03T13:36:59.369Z</time></trkpt><trkpt lat="44.3624439" lon="8.5746679"><ele>8.0</ele><time>2026-05-03T13:37:00.369Z</time></trkpt><trkpt lat="44.3623405" lon="8.5746837"><ele>8.0</ele><time>2026-05-03T13:37:01.37Z</time></trkpt><trkpt lat="44.3622335" lon="8.5746946"><ele>8.0</ele><time>2026-05-03T13:37:02.37Z</time></trkpt><trkpt lat="44.3621262" lon="8.574712"><ele>8.0</ele><time>2026-05-03T13:37:03.369Z</time></trkpt><trkpt lat="44.3620191" lon="8.5747304"><ele>8.600000000000001</ele><time>2026-05-03T13:37:04.369Z</time></trkpt><trkpt lat="44.3619118" lon="8.5747528"><ele>9.200000000000001</ele><time>2026-05-03T13:37:05.369Z</time></trkpt><trkpt lat="44.3618067" lon="8.5747827"><ele>9.8</ele><time>2026-05-03T13:37:06.37Z</time></trkpt><trkpt lat="44.3617016" lon="8.574815"><ele>10.4</ele><time>2026-05-03T13:37:07.369Z</time></trkpt><trkpt lat="44.3615979" lon="8.5748568"><ele>11.0</ele><time>2026-05-03T13:37:08.369Z</time></trkpt><trkpt lat="44.3614975" lon="8.5749154"><ele>11.0</ele><time>2026-05-03T13:37:09.369Z</time></trkpt><trkpt lat="44.3613009" lon="8.5750493"><ele>11.0</ele><time>2026-05-03T13:37:11.369Z</time></trkpt><trkpt lat="44.3612048" lon="8.5751074"><ele>11.0</ele><time>2026-05-03T13:37:12.369Z</time></trkpt><trkpt lat="44.3611087" lon="8.575172"><ele>11.0</ele><time>2026-05-03T13:37:13.369Z</time></trkpt><trkpt lat="44.3610138" lon="8.5752322"><ele>11.0</ele><time>2026-05-03T13:37:14.37Z</time></trkpt><trkpt lat="44.3609253" lon="8.5752968"><ele>11.0</ele><time>2026-05-03T13:37:15.37Z</time></trkpt><trkpt lat="44.3608467" lon="8.5753589"><ele>11.0</ele><time>2026-05-03T13:37:16.369Z</time></trkpt><trkpt lat="44.3607766" lon="8.575422"><ele>11.0</ele><time>2026-05-03T13:37:17.369Z</time></trkpt><trkpt lat="44.3607145" lon="8.5754881"><ele>11.0</ele><time>2026-05-03T13:37:18.369Z</time></trkpt><trkpt lat="44.3606659" lon="8.5755584"><ele>11.0</ele><time>2026-05-03T13:37:19.369Z</time></trkpt><trkpt lat="44.3605929" lon="8.5756676"><ele>11.0</ele><time>2026-05-03T13:37:21.369Z</time></trkpt><trkpt lat="44.3605078" lon="8.5758077"><ele>11.0</ele><time>2026-05-03T13:37:23.37Z</time></trkpt><trkpt lat="44.3604642" lon="8.5758934"><ele>11.0</ele><time>2026-05-03T13:37:24.369Z</time></trkpt><trkpt lat="44.3604331" lon="8.5759959"><ele>11.0</ele><time>2026-05-03T13:37:25.37Z</time></trkpt><trkpt lat="44.3603936" lon="8.5760968"><ele>11.0</ele><time>2026-05-03T13:37:26.369Z</time></trkpt><trkpt lat="44.3603413" lon="8.5761867"><ele>10.666666666666666</ele><time>2026-05-03T13:37:27.37Z</time></trkpt><trkpt lat="44.3602793" lon="8.5762714"><ele>10.333333333333332</ele><time>2026-05-03T13:37:28.369Z</time></trkpt><trkpt lat="44.3602157" lon="8.5763549"><ele>10.0</ele><time>2026-05-03T13:37:29.369Z</time></trkpt><trkpt lat="44.3601495" lon="8.5764356"><ele>9.666666666666666</ele><time>2026-05-03T13:37:30.369Z</time></trkpt><trkpt lat="44.3600809" lon="8.5765161"><ele>9.333333333333334</ele><time>2026-05-03T13:37:31.369Z</time></trkpt><trkpt lat="44.3600161" lon="8.5765979"><ele>9.0</ele><time>2026-05-03T13:37:32.369Z</time></trkpt><trkpt lat="44.3599529" lon="8.5766793"><ele>9.000000000000002</ele><time>2026-05-03T13:37:33.37Z</time></trkpt><trkpt lat="44.359889" lon="8.5767536"><ele>9.0</ele><time>2026-05-03T13:37:34.37Z</time></trkpt><trkpt lat="44.3598306" lon="8.5768141"><ele>9.0</ele><time>2026-05-03T13:37:35.369Z</time></trkpt><trkpt lat="44.3597789" lon="8.5768708"><ele>9.0</ele><time>2026-05-03T13:37:36.37Z</time></trkpt><trkpt lat="44.3597178" lon="8.576947"><ele>9.0</ele><time>2026-05-03T13:37:38.369Z</time></trkpt><trkpt lat="44.3596737" lon="8.5770111"><ele>9.000000000000002</ele><time>2026-05-03T13:37:42.369Z</time></trkpt><trkpt lat="44.3596124" lon="8.5770829"><ele>9.0</ele><time>2026-05-03T13:37:51.369Z</time></trkpt><trkpt lat="44.3595517" lon="8.5771422"><ele>8.8</ele><time>2026-05-03T13:37:53.37Z</time></trkpt><trkpt lat="44.3594829" lon="8.5771995"><ele>8.600000000000001</ele><time>2026-05-03T13:37:55.369Z</time></trkpt><trkpt lat="44.3594072" lon="8.5772457"><ele>8.4</ele><time>2026-05-03T13:37:57.37Z</time></trkpt><trkpt lat="44.359323" lon="8.5771791"><ele>8.200000000000001</ele><time>2026-05-03T13:37:59.369Z</time></trkpt><trkpt lat="44.3592621" lon="8.5770708"><ele>8.0</ele><time>2026-05-03T13:38:01.369Z</time></trkpt><trkpt lat="44.3592282" lon="8.57694"><ele>8.0</ele><time>2026-05-03T13:38:03.369Z</time></trkpt><trkpt lat="44.3591966" lon="8.5767962"><ele>8.0</ele><time>2026-05-03T13:38:05.37Z</time></trkpt><trkpt lat="44.359169" lon="8.5766499"><ele>8.0</ele><time>2026-05-03T13:38:07.369Z</time></trkpt><trkpt lat="44.3591417" lon="8.5765002"><ele>8.0</ele><time>2026-05-03T13:38:09.369Z</time></trkpt><trkpt lat="44.3591222" lon="8.576344"><ele>8.0</ele><time>2026-05-03T13:38:11.37Z</time></trkpt><trkpt lat="44.3591021" lon="8.57621"><ele>8.0</ele><time>2026-05-03T13:38:13.369Z</time></trkpt><trkpt lat="44.3590783" lon="8.5761208"><ele>7.999999999999999</ele><time>2026-05-03T13:38:28.37Z</time></trkpt><trkpt lat="44.359138" lon="8.5761773"><ele>8.0</ele><time>2026-05-03T13:42:44.369Z</time></trkpt><trkpt lat="44.3591577" lon="8.5762814"><ele>8.0</ele><time>2026-05-03T13:42:50.37Z</time></trkpt><trkpt lat="44.3591662" lon="8.5763795"><ele>7.999999999999999</ele><time>2026-05-03T13:42:57.385Z</time></trkpt><trkpt lat="44.3592234" lon="8.5764399"><ele>8.0</ele><time>2026-05-03T13:43:05.369Z</time></trkpt><trkpt lat="44.3592405" lon="8.5765501"><ele>8.0</ele><time>2026-05-03T13:43:09.411Z</time></trkpt><trkpt lat="44.3592541" lon="8.5766563"><ele>8.0</ele><time>2026-05-03T13:43:18.369Z</time></trkpt><trkpt lat="44.3592564" lon="8.5767587"><ele>7.999999999999999</ele><time>2026-05-03T13:43:24.085Z</time></trkpt><trkpt lat="44.3592508" lon="8.5768621"><ele>8.0</ele><time>2026-05-03T13:43:35.369Z</time></trkpt><trkpt lat="44.3592459" lon="8.5769517"><ele>8.0</ele><time>2026-05-03T13:43:44.369Z</time></trkpt><trkpt lat="44.3591903" lon="8.5769955"><ele>7.999999999999999</ele><time>2026-05-03T13:43:48.389Z</time></trkpt><trkpt lat="44.3591217" lon="8.5770167"><ele>8.0</ele><time>2026-05-03T13:43:58.489Z</time></trkpt><trkpt lat="44.359127" lon="8.5771325"><ele>8.0</ele><time>2026-05-03T13:44:04.369Z</time></trkpt><trkpt lat="44.3591634" lon="8.5772049"><ele>7.428571428571428</ele><time>2026-05-03T13:44:07.37Z</time></trkpt><trkpt lat="44.359164" lon="8.5772934"><ele>6.857142857142856</ele><time>2026-05-03T13:44:16.369Z</time></trkpt><trkpt lat="44.3591472" lon="8.5773917"><ele>6.285714285714286</ele><time>2026-05-03T13:44:23.369Z</time></trkpt><trkpt lat="44.3591265" lon="8.5774869"><ele>5.7142857142857135</ele><time>2026-05-03T13:44:29.38Z</time></trkpt><trkpt lat="44.3590287" lon="8.5774303"><ele>5.142857142857142</ele><time>2026-05-03T13:44:32.338Z</time></trkpt><trkpt lat="44.3589648" lon="8.5774253"><ele>4.571428571428571</ele><time>2026-05-03T13:44:36.515Z</time></trkpt><trkpt lat="44.3589163" lon="8.5773629"><ele>4.0</ele><time>2026-05-03T13:44:54.369Z</time></trkpt><trkpt lat="44.3588527" lon="8.5773715"><ele>3.571428571428571</ele><time>2026-05-03T13:44:59.381Z</time></trkpt><trkpt lat="44.3587807" lon="8.5773624"><ele>3.1428571428571423</ele><time>2026-05-03T13:45:05.471Z</time></trkpt><trkpt lat="44.3587195" lon="8.5773887"><ele>2.714285714285714</ele><time>2026-05-03T13:45:11.366Z</time></trkpt><trkpt lat="44.358663" lon="8.5774527"><ele>2.2857142857142856</ele><time>2026-05-03T13:45:17.085Z</time></trkpt><trkpt lat="44.3586013" lon="8.5775038"><ele>1.857142857142857</ele><time>2026-05-03T13:45:23.392Z</time></trkpt><trkpt lat="44.3585469" lon="8.5775526"><ele>1.4285714285714284</ele><time>2026-05-03T13:45:53.369Z</time></trkpt><trkpt lat="44.3584841" lon="8.5775848"><ele>1.0</ele><time>2026-05-03T13:45:58.515Z</time></trkpt><trkpt lat="44.3584198" lon="8.5775901"><ele>1.0</ele><time>2026-05-03T13:46:05.369Z</time></trkpt></trkseg><trkseg><trkpt lat="44.35904" lon="8.575868"><ele>11.0</ele><time>2026-05-03T14:56:59.402Z</time></trkpt><trkpt lat="44.3590157" lon="8.5757469"><ele>11.0</ele><time>2026-05-03T14:57:00.402Z</time></trkpt><trkpt lat="44.3589986" lon="8.5756536"><ele>11.0</ele><time>2026-05-03T14:57:01.403Z</time></trkpt><trkpt lat="44.3589802" lon="8.5755617"><ele>11.0</ele><time>2026-05-03T14:57:02.402Z</time></trkpt><trkpt lat="44.3589601" lon="8.5754641"><ele>11.0</ele><time>2026-05-03T14:57:03.402Z</time></trkpt><trkpt lat="44.3589414" lon="8.5753579"><ele>11.0</ele><time>2026-05-03T14:57:04.402Z</time></trkpt><trkpt lat="44.3589223" lon="8.5752503"><ele>11.285714285714286</ele><time>2026-05-03T14:57:05.403Z</time></trkpt><trkpt lat="44.3589039" lon="8.5751424"><ele>11.571428571428571</ele><time>2026-05-03T14:57:06.402Z</time></trkpt><trkpt lat="44.3588859" lon="8.5750358"><ele>11.857142857142858</ele><time>2026-05-03T14:57:07.403Z</time></trkpt><trkpt lat="44.3588678" lon="8.5749369"><ele>12.142857142857142</ele><time>2026-05-03T14:57:08.402Z</time></trkpt><trkpt lat="44.3588514" lon="8.57484"><ele>12.428571428571429</ele><time>2026-05-03T14:57:09.402Z</time></trkpt><trkpt lat="44.3588314" lon="8.5747463"><ele>12.714285714285714</ele><time>2026-05-03T14:57:10.403Z</time></trkpt><trkpt lat="44.3588096" lon="8.5746559"><ele>13.0</ele><time>2026-05-03T14:57:11.402Z</time></trkpt><trkpt lat="44.3587918" lon="8.5745669"><ele>11.499999999999998</ele><time>2026-05-03T14:57:12.402Z</time></trkpt><trkpt lat="44.3587748" lon="8.57448"><ele>10.0</ele><time>2026-05-03T14:57:13.403Z</time></trkpt><trkpt lat="44.3587525" lon="8.5743164"><ele>8.5</ele><time>2026-05-03T14:57:15.402Z</time></trkpt><trkpt lat="44.3587245" lon="8.574185"><ele>7.0</ele><time>2026-05-03T14:57:17.403Z</time></trkpt><trkpt lat="44.3586939" lon="8.5740533"><ele>5.5</ele><time>2026-05-03T14:57:19.402Z</time></trkpt><trkpt lat="44.3586734" lon="8.573966"><ele>4.0</ele><time>2026-05-03T14:57:20.402Z</time></trkpt><trkpt lat="44.3586512" lon="8.5738399"><ele>4.0</ele><time>2026-05-03T14:57:21.402Z</time></trkpt><trkpt lat="44.3586226" lon="8.5736959"><ele>4.0</ele><time>2026-05-03T14:57:22.403Z</time></trkpt><trkpt lat="44.3585871" lon="8.5735608"><ele>4.0</ele><time>2026-05-03T14:57:23.403Z</time></trkpt><trkpt lat="44.3585484" lon="8.5734281"><ele>4.0</ele><time>2026-05-03T14:57:24.402Z</time></trkpt><trkpt lat="44.3585117" lon="8.5732988"><ele>4.0</ele><time>2026-05-03T14:57:25.403Z</time></trkpt><trkpt lat="44.3584741" lon="8.5731787"><ele>4.800000000000001</ele><time>2026-05-03T14:57:26.403Z</time></trkpt><trkpt lat="44.3584373" lon="8.5730563"><ele>5.6000000000000005</ele><time>2026-05-03T14:57:27.403Z</time></trkpt><trkpt lat="44.3583975" lon="8.5729199"><ele>6.4</ele><time>2026-05-03T14:57:28.403Z</time></trkpt><trkpt lat="44.3583513" lon="8.5727772"><ele>7.2</ele><time>2026-05-03T14:57:29.402Z</time></trkpt><trkpt lat="44.3583025" lon="8.5726356"><ele>8.0</ele><time>2026-05-03T14:57:30.402Z</time></trkpt><trkpt lat="44.3582513" lon="8.5724995"><ele>7.800000000000001</ele><time>2026-05-03T14:57:31.402Z</time></trkpt><trkpt lat="44.358201" lon="8.5723684"><ele>7.6000000000000005</ele><time>2026-05-03T14:57:32.402Z</time></trkpt><trkpt lat="44.3581516" lon="8.5722404"><ele>7.3999999999999995</ele><time>2026-05-03T14:57:33.402Z</time></trkpt><trkpt lat="44.3580993" lon="8.5721175"><ele>7.199999999999999</ele><time>2026-05-03T14:57:34.402Z</time></trkpt><trkpt lat="44.3580417" lon="8.5719904"><ele>7.0</ele><time>2026-05-03T14:57:35.402Z</time></trkpt><trkpt lat="44.357984" lon="8.5718571"><ele>7.0</ele><time>2026-05-03T14:57:36.403Z</time></trkpt><trkpt lat="44.3579237" lon="8.5717227"><ele>7.0</ele><time>2026-05-03T14:57:37.403Z</time></trkpt><trkpt lat="44.3578631" lon="8.5715782"><ele>7.0</ele><time>2026-05-03T14:57:38.403Z</time></trkpt><trkpt lat="44.357803" lon="8.5714344"><ele>7.0</ele><time>2026-05-03T14:57:39.402Z</time></trkpt><trkpt lat="44.3577415" lon="8.5712903"><ele>7.75</ele><time>2026-05-03T14:57:40.402Z</time></trkpt><trkpt lat="44.3576802" lon="8.5711484"><ele>8.5</ele><time>2026-05-03T14:57:41.402Z</time></trkpt><trkpt lat="44.3576205" lon="8.5710099"><ele>9.25</ele><time>2026-05-03T14:57:42.402Z</time></trkpt><trkpt lat="44.3575666" lon="8.5708799"><ele>10.0</ele><time>2026-05-03T14:57:43.403Z</time></trkpt><trkpt lat="44.3575093" lon="8.5707507"><ele>10.0</ele><time>2026-05-03T14:57:44.402Z</time></trkpt><trkpt lat="44.3574553" lon="8.5706264"><ele>10.0</ele><time>2026-05-03T14:57:45.403Z</time></trkpt><trkpt lat="44.3573962" lon="8.5704957"><ele>10.0</ele><time>2026-05-03T14:57:46.402Z</time></trkpt><trkpt lat="44.3573419" lon="8.5703646"><ele>10.0</ele><time>2026-05-03T14:57:47.402Z</time></trkpt><trkpt lat="44.3572865" lon="8.5702387"><ele>10.0</ele><time>2026-05-03T14:57:48.402Z</time></trkpt><trkpt lat="44.357232" lon="8.5701079"><ele>9.2</ele><time>2026-05-03T14:57:49.402Z</time></trkpt><trkpt lat="44.3571761" lon="8.5699775"><ele>8.4</ele><time>2026-05-03T14:57:50.402Z</time></trkpt><trkpt lat="44.3571186" lon="8.5698532"><ele>7.6</ele><time>2026-05-03T14:57:51.402Z</time></trkpt><trkpt lat="44.3570638" lon="8.5697281"><ele>6.8</ele><time>2026-05-03T14:57:52.403Z</time></trkpt><trkpt lat="44.3570133" lon="8.569602"><ele>6.0</ele><time>2026-05-03T14:57:53.402Z</time></trkpt><trkpt lat="44.3569592" lon="8.5694769"><ele>6.0</ele><time>2026-05-03T14:57:54.402Z</time></trkpt><trkpt lat="44.3569079" lon="8.5693609"><ele>6.0</ele><time>2026-05-03T14:57:55.402Z</time></trkpt><trkpt lat="44.3568553" lon="8.5692491"><ele>6.0</ele><time>2026-05-03T14:57:56.402Z</time></trkpt><trkpt lat="44.3568052" lon="8.569144"><ele>6.0</ele><time>2026-05-03T14:57:57.402Z</time></trkpt><trkpt lat="44.3567488" lon="8.569033"><ele>6.0</ele><time>2026-05-03T14:57:58.402Z</time></trkpt><trkpt lat="44.3566866" lon="8.5689111"><ele>6.0</ele><time>2026-05-03T14:57:59.402Z</time></trkpt><trkpt lat="44.3566242" lon="8.5687915"><ele>6.0</ele><time>2026-05-03T14:58:00.402Z</time></trkpt><trkpt lat="44.3565644" lon="8.5686689"><ele>6.0</ele><time>2026-05-03T14:58:01.402Z</time></trkpt><trkpt lat="44.3565044" lon="8.5685427"><ele>6.0</ele><time>2026-05-03T14:58:02.401Z</time></trkpt><trkpt lat="44.3564467" lon="8.5684176"><ele>6.0</ele><time>2026-05-03T14:58:03.402Z</time></trkpt><trkpt lat="44.3563893" lon="8.5682942"><ele>5.75</ele><time>2026-05-03T14:58:04.403Z</time></trkpt><trkpt lat="44.3563269" lon="8.5681734"><ele>5.5</ele><time>2026-05-03T14:58:05.402Z</time></trkpt><trkpt lat="44.3562625" lon="8.5680488"><ele>5.25</ele><time>2026-05-03T14:58:06.403Z</time></trkpt><trkpt lat="44.3561948" lon="8.5679186"><ele>5.0</ele><time>2026-05-03T14:58:07.403Z</time></trkpt><trkpt lat="44.3561268" lon="8.5677778"><ele>5.5</ele><time>2026-05-03T14:58:08.402Z</time></trkpt><trkpt lat="44.3560485" lon="8.567649"><ele>6.0</ele><time>2026-05-03T14:58:09.403Z</time></trkpt><trkpt lat="44.3559704" lon="8.5675236"><ele>6.5</ele><time>2026-05-03T14:58:10.402Z</time></trkpt><trkpt lat="44.3558877" lon="8.5673975"><ele>7.0</ele><time>2026-05-03T14:58:11.402Z</time></trkpt><trkpt lat="44.3558008" lon="8.5672758"><ele>7.0</ele><time>2026-05-03T14:58:12.402Z</time></trkpt><trkpt lat="44.3557138" lon="8.5671549"><ele>7.0</ele><time>2026-05-03T14:58:13.402Z</time></trkpt><trkpt lat="44.3556246" lon="8.5670371"><ele>7.0</ele><time>2026-05-03T14:58:14.402Z</time></trkpt><trkpt lat="44.3555328" lon="8.5669202"><ele>7.0</ele><time>2026-05-03T14:58:15.402Z</time></trkpt><trkpt lat="44.3554453" lon="8.5668013"><ele>6.5</ele><time>2026-05-03T14:58:16.402Z</time></trkpt><trkpt lat="44.3553573" lon="8.566681"><ele>6.0</ele><time>2026-05-03T14:58:17.402Z</time></trkpt><trkpt lat="44.355268" lon="8.5665674"><ele>5.5</ele><time>2026-05-03T14:58:18.403Z</time></trkpt><trkpt lat="44.355176" lon="8.566454"><ele>5.0</ele><time>2026-05-03T14:58:19.402Z</time></trkpt><trkpt lat="44.3550816" lon="8.5663399"><ele>5.0</ele><time>2026-05-03T14:58:20.402Z</time></trkpt><trkpt lat="44.3549875" lon="8.5662212"><ele>5.0</ele><time>2026-05-03T14:58:21.402Z</time></trkpt><trkpt lat="44.3548952" lon="8.5661036"><ele>5.0</ele><time>2026-05-03T14:58:22.402Z</time></trkpt><trkpt lat="44.3548073" lon="8.5659915"><ele>5.0</ele><time>2026-05-03T14:58:23.402Z</time></trkpt><trkpt lat="44.3547278" lon="8.5658933"><ele>5.0</ele><time>2026-05-03T14:58:24.402Z</time></trkpt><trkpt lat="44.3546487" lon="8.5657994"><ele>5.0</ele><time>2026-05-03T14:58:25.4Z</time></trkpt><trkpt lat="44.3545767" lon="8.5657134"><ele>5.0</ele><time>2026-05-03T14:58:26.403Z</time></trkpt><trkpt lat="44.3545037" lon="8.5656328"><ele>5.0</ele><time>2026-05-03T14:58:27.402Z</time></trkpt><trkpt lat="44.3544344" lon="8.5655525"><ele>5.0</ele><time>2026-05-03T14:58:28.402Z</time></trkpt><trkpt lat="44.3543584" lon="8.5654796"><ele>5.0</ele><time>2026-05-03T14:58:29.402Z</time></trkpt><trkpt lat="44.3542726" lon="8.5653955"><ele>5.0</ele><time>2026-05-03T14:58:30.402Z</time></trkpt><trkpt lat="44.3541885" lon="8.5653088"><ele>5.0</ele><time>2026-05-03T14:58:31.403Z</time></trkpt><trkpt lat="44.3541029" lon="8.5652266"><ele>5.0</ele><time>2026-05-03T14:58:32.403Z</time></trkpt><trkpt lat="44.3540097" lon="8.565156"><ele>5.0</ele><time>2026-05-03T14:58:33.402Z</time></trkpt><trkpt lat="44.3539124" lon="8.565097"><ele>5.2</ele><time>2026-05-03T14:58:34.402Z</time></trkpt><trkpt lat="44.3538187" lon="8.565045"><ele>5.4</ele><time>2026-05-03T14:58:35.402Z</time></trkpt><trkpt lat="44.3537351" lon="8.5649988"><ele>5.6</ele><time>2026-05-03T14:58:36.402Z</time></trkpt><trkpt lat="44.3536573" lon="8.5649625"><ele>5.8</ele><time>2026-05-03T14:58:37.402Z</time></trkpt><trkpt lat="44.3535707" lon="8.5649443"><ele>6.0</ele><time>2026-05-03T14:58:38.402Z</time></trkpt><trkpt lat="44.3534728" lon="8.5649407"><ele>6.0</ele><time>2026-05-03T14:58:39.402Z</time></trkpt><trkpt lat="44.3533715" lon="8.5649288"><ele>6.0</ele><time>2026-05-03T14:58:40.403Z</time></trkpt><trkpt lat="44.3532729" lon="8.5648994"><ele>6.0</ele><time>2026-05-03T14:58:41.402Z</time></trkpt><trkpt lat="44.3531713" lon="8.5648595"><ele>6.0</ele><time>2026-05-03T14:58:42.402Z</time></trkpt><trkpt lat="44.3530615" lon="8.5648288"><ele>6.0</ele><time>2026-05-03T14:58:43.402Z</time></trkpt><trkpt lat="44.3529499" lon="8.5648214"><ele>8.5</ele><time>2026-05-03T14:58:44.403Z</time></trkpt><trkpt lat="44.3528384" lon="8.564842"><ele>11.0</ele><time>2026-05-03T14:58:45.403Z</time></trkpt><trkpt lat="44.3527259" lon="8.5648877"><ele>13.5</ele><time>2026-05-03T14:58:46.402Z</time></trkpt><trkpt lat="44.3526112" lon="8.5649455"><ele>16.0</ele><time>2026-05-03T14:58:47.403Z</time></trkpt><trkpt lat="44.3524985" lon="8.5650191"><ele>16.0</ele><time>2026-05-03T14:58:48.402Z</time></trkpt><trkpt lat="44.3523838" lon="8.5650837"><ele>16.0</ele><time>2026-05-03T14:58:49.403Z</time></trkpt><trkpt lat="44.3522609" lon="8.565126"><ele>16.0</ele><time>2026-05-03T14:58:50.402Z</time></trkpt><trkpt lat="44.3521331" lon="8.5651444"><ele>16.0</ele><time>2026-05-03T14:58:51.402Z</time></trkpt><trkpt lat="44.3520014" lon="8.5651604"><ele>19.0</ele><time>2026-05-03T14:58:52.401Z</time></trkpt><trkpt lat="44.3518757" lon="8.5651906"><ele>22.0</ele><time>2026-05-03T14:58:53.403Z</time></trkpt><trkpt lat="44.3517602" lon="8.5652416"><ele>25.0</ele><time>2026-05-03T14:58:54.402Z</time></trkpt><trkpt lat="44.3516594" lon="8.5652893"><ele>28.0</ele><time>2026-05-03T14:58:55.402Z</time></trkpt><trkpt lat="44.3515596" lon="8.565291"><ele>28.0</ele><time>2026-05-03T14:58:56.402Z</time></trkpt><trkpt lat="44.3514538" lon="8.5652637"><ele>27.999999999999996</ele><time>2026-05-03T14:58:57.402Z</time></trkpt><trkpt lat="44.3513474" lon="8.5652456"><ele>27.999999999999996</ele><time>2026-05-03T14:58:58.402Z</time></trkpt><trkpt lat="44.3512422" lon="8.5652619"><ele>28.0</ele><time>2026-05-03T14:58:59.402Z</time></trkpt><trkpt lat="44.3511504" lon="8.5653409"><ele>28.0</ele><time>2026-05-03T14:59:00.402Z</time></trkpt><trkpt lat="44.3510777" lon="8.5654765"><ele>25.0</ele><time>2026-05-03T14:59:01.403Z</time></trkpt><trkpt lat="44.3510077" lon="8.5656196"><ele>22.0</ele><time>2026-05-03T14:59:02.402Z</time></trkpt><trkpt lat="44.3509247" lon="8.5657701"><ele>19.0</ele><time>2026-05-03T14:59:03.403Z</time></trkpt><trkpt lat="44.3508356" lon="8.5659189"><ele>16.0</ele><time>2026-05-03T14:59:04.403Z</time></trkpt><trkpt lat="44.3507411" lon="8.5660644"><ele>17.5</ele><time>2026-05-03T14:59:05.402Z</time></trkpt><trkpt lat="44.3506521" lon="8.5662108"><ele>19.0</ele><time>2026-05-03T14:59:06.402Z</time></trkpt><trkpt lat="44.3505583" lon="8.5663487"><ele>20.5</ele><time>2026-05-03T14:59:07.403Z</time></trkpt><trkpt lat="44.3504486" lon="8.5664626"><ele>22.0</ele><time>2026-05-03T14:59:08.403Z</time></trkpt><trkpt lat="44.3503258" lon="8.5665592"><ele>22.0</ele><time>2026-05-03T14:59:09.403Z</time></trkpt><trkpt lat="44.3502008" lon="8.5666526"><ele>22.0</ele><time>2026-05-03T14:59:10.402Z</time></trkpt><trkpt lat="44.3500763" lon="8.56673"><ele>22.0</ele><time>2026-05-03T14:59:11.403Z</time></trkpt><trkpt lat="44.3499502" lon="8.5667982"><ele>22.0</ele><time>2026-05-03T14:59:12.402Z</time></trkpt><trkpt lat="44.3498258" lon="8.5668592"><ele>21.75</ele><time>2026-05-03T14:59:13.403Z</time></trkpt><trkpt lat="44.349698" lon="8.5669063"><ele>21.5</ele><time>2026-05-03T14:59:14.403Z</time></trkpt><trkpt lat="44.3495652" lon="8.5669235"><ele>21.25</ele><time>2026-05-03T14:59:15.402Z</time></trkpt><trkpt lat="44.3494301" lon="8.5669045"><ele>21.0</ele><time>2026-05-03T14:59:16.403Z</time></trkpt><trkpt lat="44.3492993" lon="8.5668548"><ele>21.0</ele><time>2026-05-03T14:59:17.402Z</time></trkpt><trkpt lat="44.3491786" lon="8.5667821"><ele>21.0</ele><time>2026-05-03T14:59:18.402Z</time></trkpt><trkpt lat="44.3490715" lon="8.5667043"><ele>21.0</ele><time>2026-05-03T14:59:19.403Z</time></trkpt><trkpt lat="44.3489788" lon="8.5666102"><ele>21.0</ele><time>2026-05-03T14:59:20.403Z</time></trkpt><trkpt lat="44.3489163" lon="8.5664872"><ele>21.0</ele><time>2026-05-03T14:59:21.403Z</time></trkpt><trkpt lat="44.3488878" lon="8.5663496"><ele>21.0</ele><time>2026-05-03T14:59:22.402Z</time></trkpt><trkpt lat="44.3488829" lon="8.5662016"><ele>21.0</ele><time>2026-05-03T14:59:23.402Z</time></trkpt><trkpt lat="44.3488744" lon="8.5660395"><ele>21.0</ele><time>2026-05-03T14:59:24.402Z</time></trkpt><trkpt lat="44.348847" lon="8.5658709"><ele>21.0</ele><time>2026-05-03T14:59:25.402Z</time></trkpt><trkpt lat="44.348804" lon="8.5657079"><ele>17.75</ele><time>2026-05-03T14:59:26.403Z</time></trkpt><trkpt lat="44.3487593" lon="8.565546"><ele>14.5</ele><time>2026-05-03T14:59:27.402Z</time></trkpt><trkpt lat="44.3487181" lon="8.5653811"><ele>11.25</ele><time>2026-05-03T14:59:28.402Z</time></trkpt><trkpt lat="44.3486774" lon="8.5652218"><ele>8.0</ele><time>2026-05-03T14:59:29.402Z</time></trkpt><trkpt lat="44.3486405" lon="8.5650715"><ele>8.0</ele><time>2026-05-03T14:59:30.402Z</time></trkpt><trkpt lat="44.3486036" lon="8.5649254"><ele>8.0</ele><time>2026-05-03T14:59:31.4Z</time></trkpt><trkpt lat="44.3485472" lon="8.5647941"><ele>8.0</ele><time>2026-05-03T14:59:32.403Z</time></trkpt><trkpt lat="44.3484753" lon="8.5646759"><ele>8.0</ele><time>2026-05-03T14:59:33.402Z</time></trkpt><trkpt lat="44.3483836" lon="8.5645914"><ele>8.0</ele><time>2026-05-03T14:59:34.403Z</time></trkpt><trkpt lat="44.3482755" lon="8.5645381"><ele>10.5</ele><time>2026-05-03T14:59:35.402Z</time></trkpt><trkpt lat="44.3481628" lon="8.5645111"><ele>13.0</ele><time>2026-05-03T14:59:36.402Z</time></trkpt><trkpt lat="44.3480441" lon="8.5645097"><ele>15.5</ele><time>2026-05-03T14:59:37.402Z</time></trkpt><trkpt lat="44.3479229" lon="8.5645078"><ele>18.0</ele><time>2026-05-03T14:59:38.402Z</time></trkpt><trkpt lat="44.3478026" lon="8.5645011"><ele>20.75</ele><time>2026-05-03T14:59:39.403Z</time></trkpt><trkpt lat="44.3476861" lon="8.564493"><ele>23.5</ele><time>2026-05-03T14:59:40.403Z</time></trkpt><trkpt lat="44.3475718" lon="8.5644708"><ele>26.25</ele><time>2026-05-03T14:59:41.403Z</time></trkpt><trkpt lat="44.3474599" lon="8.5644304"><ele>29.0</ele><time>2026-05-03T14:59:42.398Z</time></trkpt><trkpt lat="44.3473461" lon="8.5643775"><ele>29.0</ele><time>2026-05-03T14:59:43.402Z</time></trkpt><trkpt lat="44.3472337" lon="8.5643269"><ele>29.0</ele><time>2026-05-03T14:59:44.402Z</time></trkpt><trkpt lat="44.3471223" lon="8.5642798"><ele>29.0</ele><time>2026-05-03T14:59:45.403Z</time></trkpt><trkpt lat="44.3470122" lon="8.5642282"><ele>29.0</ele><time>2026-05-03T14:59:46.402Z</time></trkpt><trkpt lat="44.346905" lon="8.5641905"><ele>26.999999999999996</ele><time>2026-05-03T14:59:47.402Z</time></trkpt><trkpt lat="44.3468104" lon="8.5641423"><ele>25.0</ele><time>2026-05-03T14:59:48.402Z</time></trkpt><trkpt lat="44.3467298" lon="8.5640897"><ele>23.0</ele><time>2026-05-03T14:59:49.402Z</time></trkpt><trkpt lat="44.3466581" lon="8.5640365"><ele>21.0</ele><time>2026-05-03T14:59:50.402Z</time></trkpt><trkpt lat="44.3466068" lon="8.5639752"><ele>19.0</ele><time>2026-05-03T14:59:51.403Z</time></trkpt><trkpt lat="44.3465773" lon="8.5638761"><ele>17.0</ele><time>2026-05-03T14:59:52.403Z</time></trkpt><trkpt lat="44.3465579" lon="8.5637605"><ele>17.8</ele><time>2026-05-03T14:59:53.403Z</time></trkpt><trkpt lat="44.3465429" lon="8.563637"><ele>18.6</ele><time>2026-05-03T14:59:54.403Z</time></trkpt><trkpt lat="44.3465312" lon="8.5635081"><ele>19.400000000000002</ele><time>2026-05-03T14:59:55.402Z</time></trkpt><trkpt lat="44.3465221" lon="8.5633768"><ele>20.2</ele><time>2026-05-03T14:59:56.403Z</time></trkpt><trkpt lat="44.3465392" lon="8.5632453"><ele>21.0</ele><time>2026-05-03T14:59:57.402Z</time></trkpt><trkpt lat="44.3465802" lon="8.5631287"><ele>21.0</ele><time>2026-05-03T14:59:58.402Z</time></trkpt><trkpt lat="44.3466332" lon="8.5630205"><ele>21.0</ele><time>2026-05-03T14:59:59.402Z</time></trkpt><trkpt lat="44.3466866" lon="8.5629105"><ele>21.0</ele><time>2026-05-03T15:00:00.402Z</time></trkpt><trkpt lat="44.3467384" lon="8.5628032"><ele>21.0</ele><time>2026-05-03T15:00:01.403Z</time></trkpt><trkpt lat="44.3467885" lon="8.5626913"><ele>21.0</ele><time>2026-05-03T15:00:02.402Z</time></trkpt><trkpt lat="44.3468202" lon="8.5625746"><ele>20.6</ele><time>2026-05-03T15:00:03.402Z</time></trkpt><trkpt lat="44.346814" lon="8.5624496"><ele>20.200000000000003</ele><time>2026-05-03T15:00:04.403Z</time></trkpt><trkpt lat="44.3467764" lon="8.5623457"><ele>19.799999999999997</ele><time>2026-05-03T15:00:05.403Z</time></trkpt><trkpt lat="44.3467151" lon="8.5622553"><ele>19.4</ele><time>2026-05-03T15:00:06.403Z</time></trkpt><trkpt lat="44.3466355" lon="8.5621755"><ele>19.0</ele><time>2026-05-03T15:00:07.402Z</time></trkpt><trkpt lat="44.3465528" lon="8.5620818"><ele>19.799999999999997</ele><time>2026-05-03T15:00:08.4Z</time></trkpt><trkpt lat="44.3464706" lon="8.5619792"><ele>20.599999999999998</ele><time>2026-05-03T15:00:09.402Z</time></trkpt><trkpt lat="44.3463988" lon="8.5618698"><ele>21.4</ele><time>2026-05-03T15:00:10.402Z</time></trkpt><trkpt lat="44.3463403" lon="8.5617459"><ele>22.2</ele><time>2026-05-03T15:00:11.402Z</time></trkpt><trkpt lat="44.3463007" lon="8.5616136"><ele>23.0</ele><time>2026-05-03T15:00:12.402Z</time></trkpt><trkpt lat="44.346269" lon="8.5614757"><ele>21.2</ele><time>2026-05-03T15:00:13.402Z</time></trkpt><trkpt lat="44.3462418" lon="8.5613323"><ele>19.4</ele><time>2026-05-03T15:00:14.403Z</time></trkpt><trkpt lat="44.3462135" lon="8.561187"><ele>17.599999999999998</ele><time>2026-05-03T15:00:15.402Z</time></trkpt><trkpt lat="44.3461884" lon="8.5610399"><ele>15.799999999999999</ele><time>2026-05-03T15:00:16.402Z</time></trkpt><trkpt lat="44.346165" lon="8.5608926"><ele>14.0</ele><time>2026-05-03T15:00:17.402Z</time></trkpt><trkpt lat="44.3461392" lon="8.5607407"><ele>14.0</ele><time>2026-05-03T15:00:18.402Z</time></trkpt><trkpt lat="44.3461129" lon="8.5605847"><ele>14.0</ele><time>2026-05-03T15:00:19.402Z</time></trkpt><trkpt lat="44.3460852" lon="8.5604232"><ele>14.0</ele><time>2026-05-03T15:00:20.402Z</time></trkpt><trkpt lat="44.3460574" lon="8.5602637"><ele>14.0</ele><time>2026-05-03T15:00:21.402Z</time></trkpt><trkpt lat="44.3460302" lon="8.5601018"><ele>14.0</ele><time>2026-05-03T15:00:22.402Z</time></trkpt><trkpt lat="44.3460043" lon="8.5599412"><ele>14.0</ele><time>2026-05-03T15:00:23.402Z</time></trkpt><trkpt lat="44.3459825" lon="8.559779"><ele>14.0</ele><time>2026-05-03T15:00:24.402Z</time></trkpt><trkpt lat="44.3459633" lon="8.5596116"><ele>14.0</ele><time>2026-05-03T15:00:25.403Z</time></trkpt><trkpt lat="44.3459449" lon="8.5594404"><ele>14.5</ele><time>2026-05-03T15:00:26.402Z</time></trkpt><trkpt lat="44.3459199" lon="8.5592567"><ele>15.0</ele><time>2026-05-03T15:00:27.403Z</time></trkpt><trkpt lat="44.3458942" lon="8.5590742"><ele>15.5</ele><time>2026-05-03T15:00:28.402Z</time></trkpt><trkpt lat="44.3458695" lon="8.5588841"><ele>16.0</ele><time>2026-05-03T15:00:29.399Z</time></trkpt><trkpt lat="44.3458379" lon="8.5586962"><ele>16.0</ele><time>2026-05-03T15:00:30.403Z</time></trkpt><trkpt lat="44.3457834" lon="8.5585187"><ele>16.0</ele><time>2026-05-03T15:00:31.403Z</time></trkpt><trkpt lat="44.3456984" lon="8.5583691"><ele>16.0</ele><time>2026-05-03T15:00:32.402Z</time></trkpt><trkpt lat="44.3455933" lon="8.5582427"><ele>16.0</ele><time>2026-05-03T15:00:33.402Z</time></trkpt><trkpt lat="44.3454746" lon="8.5581429"><ele>14.25</ele><time>2026-05-03T15:00:34.403Z</time></trkpt><trkpt lat="44.3453602" lon="8.558046"><ele>12.5</ele><time>2026-05-03T15:00:35.402Z</time></trkpt><trkpt lat="44.3452516" lon="8.5579554"><ele>10.75</ele><time>2026-05-03T15:00:36.402Z</time></trkpt><trkpt lat="44.3451558" lon="8.5578492"><ele>9.0</ele><time>2026-05-03T15:00:37.402Z</time></trkpt><trkpt lat="44.3450778" lon="8.5577237"><ele>9.0</ele><time>2026-05-03T15:00:38.403Z</time></trkpt><trkpt lat="44.345026" lon="8.55757"><ele>9.0</ele><time>2026-05-03T15:00:39.403Z</time></trkpt><trkpt lat="44.3449998" lon="8.5573905"><ele>9.0</ele><time>2026-05-03T15:00:40.402Z</time></trkpt><trkpt lat="44.3449836" lon="8.5571996"><ele>9.0</ele><time>2026-05-03T15:00:41.403Z</time></trkpt><trkpt lat="44.3449724" lon="8.5569961"><ele>10.0</ele><time>2026-05-03T15:00:42.402Z</time></trkpt><trkpt lat="44.3449702" lon="8.5567946"><ele>11.0</ele><time>2026-05-03T15:00:43.403Z</time></trkpt><trkpt lat="44.3449796" lon="8.5565901"><ele>12.0</ele><time>2026-05-03T15:00:44.402Z</time></trkpt><trkpt lat="44.344995" lon="8.5563899"><ele>13.0</ele><time>2026-05-03T15:00:45.402Z</time></trkpt><trkpt lat="44.3450122" lon="8.5561902"><ele>13.0</ele><time>2026-05-03T15:00:46.403Z</time></trkpt><trkpt lat="44.3450281" lon="8.5559899"><ele>13.0</ele><time>2026-05-03T15:00:47.403Z</time></trkpt><trkpt lat="44.3450401" lon="8.5557927"><ele>13.0</ele><time>2026-05-03T15:00:48.402Z</time></trkpt><trkpt lat="44.3450467" lon="8.5556072"><ele>13.0</ele><time>2026-05-03T15:00:49.403Z</time></trkpt><trkpt lat="44.3450494" lon="8.5554285"><ele>11.75</ele><time>2026-05-03T15:00:50.402Z</time></trkpt><trkpt lat="44.3450456" lon="8.5552593"><ele>10.5</ele><time>2026-05-03T15:00:51.403Z</time></trkpt><trkpt lat="44.345039" lon="8.5550977"><ele>9.25</ele><time>2026-05-03T15:00:52.402Z</time></trkpt><trkpt lat="44.3450298" lon="8.5549343"><ele>8.0</ele><time>2026-05-03T15:00:53.402Z</time></trkpt><trkpt lat="44.345023" lon="8.5547691"><ele>8.0</ele><time>2026-05-03T15:00:54.402Z</time></trkpt><trkpt lat="44.3450222" lon="8.5546006"><ele>8.0</ele><time>2026-05-03T15:00:55.402Z</time></trkpt><trkpt lat="44.3450303" lon="8.5544279"><ele>8.0</ele><time>2026-05-03T15:00:56.402Z</time></trkpt><trkpt lat="44.3450397" lon="8.5542401"><ele>8.0</ele><time>2026-05-03T15:00:57.402Z</time></trkpt><trkpt lat="44.3450471" lon="8.5540433"><ele>8.0</ele><time>2026-05-03T15:00:58.402Z</time></trkpt><trkpt lat="44.3450559" lon="8.5538405"><ele>8.0</ele><time>2026-05-03T15:00:59.402Z</time></trkpt><trkpt lat="44.3450655" lon="8.5536415"><ele>8.0</ele><time>2026-05-03T15:01:00.402Z</time></trkpt><trkpt lat="44.3450734" lon="8.5534411"><ele>8.0</ele><time>2026-05-03T15:01:01.402Z</time></trkpt><trkpt lat="44.3450816" lon="8.553242"><ele>8.0</ele><time>2026-05-03T15:01:02.402Z</time></trkpt><trkpt lat="44.3450825" lon="8.5530465"><ele>8.0</ele><time>2026-05-03T15:01:03.402Z</time></trkpt><trkpt lat="44.3450799" lon="8.5528498"><ele>8.0</ele><time>2026-05-03T15:01:04.403Z</time></trkpt><trkpt lat="44.3450713" lon="8.5526518"><ele>8.0</ele><time>2026-05-03T15:01:05.403Z</time></trkpt><trkpt lat="44.3450563" lon="8.5524568"><ele>8.0</ele><time>2026-05-03T15:01:06.402Z</time></trkpt><trkpt lat="44.3450321" lon="8.5522596"><ele>8.0</ele><time>2026-05-03T15:01:07.403Z</time></trkpt><trkpt lat="44.3449989" lon="8.5520658"><ele>8.0</ele><time>2026-05-03T15:01:08.402Z</time></trkpt><trkpt lat="44.3449596" lon="8.5518653"><ele>8.0</ele><time>2026-05-03T15:01:09.403Z</time></trkpt><trkpt lat="44.3449172" lon="8.5516708"><ele>8.25</ele><time>2026-05-03T15:01:10.402Z</time></trkpt><trkpt lat="44.3448679" lon="8.5514781"><ele>8.5</ele><time>2026-05-03T15:01:11.403Z</time></trkpt><trkpt lat="44.3448127" lon="8.5512912"><ele>8.75</ele><time>2026-05-03T15:01:12.402Z</time></trkpt><trkpt lat="44.344751" lon="8.551114"><ele>9.0</ele><time>2026-05-03T15:01:13.402Z</time></trkpt><trkpt lat="44.344687" lon="8.5509421"><ele>8.5</ele><time>2026-05-03T15:01:14.402Z</time></trkpt><trkpt lat="44.3446168" lon="8.5507765"><ele>8.0</ele><time>2026-05-03T15:01:15.402Z</time></trkpt><trkpt lat="44.3445404" lon="8.5506172"><ele>7.5</ele><time>2026-05-03T15:01:16.403Z</time></trkpt><trkpt lat="44.3444609" lon="8.5504678"><ele>7.0</ele><time>2026-05-03T15:01:17.402Z</time></trkpt><trkpt lat="44.3443795" lon="8.5503229"><ele>9.75</ele><time>2026-05-03T15:01:18.402Z</time></trkpt><trkpt lat="44.3442921" lon="8.5501791"><ele>12.5</ele><time>2026-05-03T15:01:19.402Z</time></trkpt><trkpt lat="44.3442024" lon="8.550034"><ele>15.25</ele><time>2026-05-03T15:01:20.402Z</time></trkpt><trkpt lat="44.3441102" lon="8.5498911"><ele>18.0</ele><time>2026-05-03T15:01:21.402Z</time></trkpt><trkpt lat="44.3440169" lon="8.5497409"><ele>18.0</ele><time>2026-05-03T15:01:22.402Z</time></trkpt><trkpt lat="44.3439198" lon="8.549596"><ele>18.0</ele><time>2026-05-03T15:01:23.402Z</time></trkpt><trkpt lat="44.3438177" lon="8.54945"><ele>18.0</ele><time>2026-05-03T15:01:24.402Z</time></trkpt><trkpt lat="44.3437118" lon="8.5493185"><ele>18.0</ele><time>2026-05-03T15:01:25.402Z</time></trkpt><trkpt lat="44.3436073" lon="8.5491923"><ele>17.25</ele><time>2026-05-03T15:01:26.402Z</time></trkpt><trkpt lat="44.3434969" lon="8.5490599"><ele>16.5</ele><time>2026-05-03T15:01:27.402Z</time></trkpt><trkpt lat="44.343389" lon="8.5489415"><ele>15.75</ele><time>2026-05-03T15:01:28.403Z</time></trkpt><trkpt lat="44.3432766" lon="8.5488195"><ele>15.0</ele><time>2026-05-03T15:01:29.402Z</time></trkpt><trkpt lat="44.3431658" lon="8.5486979"><ele>14.0</ele><time>2026-05-03T15:01:30.403Z</time></trkpt><trkpt lat="44.3430618" lon="8.5485746"><ele>13.0</ele><time>2026-05-03T15:01:31.402Z</time></trkpt><trkpt lat="44.3429721" lon="8.5484404"><ele>12.0</ele><time>2026-05-03T15:01:32.402Z</time></trkpt><trkpt lat="44.3429047" lon="8.5482913"><ele>11.0</ele><time>2026-05-03T15:01:33.402Z</time></trkpt><trkpt lat="44.3428511" lon="8.5481358"><ele>11.0</ele><time>2026-05-03T15:01:34.403Z</time></trkpt><trkpt lat="44.342812" lon="8.5479745"><ele>11.0</ele><time>2026-05-03T15:01:35.403Z</time></trkpt><trkpt lat="44.3427802" lon="8.547818"><ele>11.0</ele><time>2026-05-03T15:01:36.403Z</time></trkpt><trkpt lat="44.3427911" lon="8.5476393"><ele>11.0</ele><time>2026-05-03T15:01:37.402Z</time></trkpt><trkpt lat="44.3427693" lon="8.5474737"><ele>12.0</ele><time>2026-05-03T15:01:38.402Z</time></trkpt><trkpt lat="44.3427364" lon="8.5473026"><ele>13.0</ele><time>2026-05-03T15:01:39.402Z</time></trkpt><trkpt lat="44.3427106" lon="8.5471457"><ele>14.0</ele><time>2026-05-03T15:01:40.403Z</time></trkpt><trkpt lat="44.3427068" lon="8.5469942"><ele>15.0</ele><time>2026-05-03T15:01:41.402Z</time></trkpt><trkpt lat="44.3427287" lon="8.5468405"><ele>15.0</ele><time>2026-05-03T15:01:42.402Z</time></trkpt><trkpt lat="44.3427467" lon="8.5466824"><ele>15.0</ele><time>2026-05-03T15:01:43.403Z</time></trkpt><trkpt lat="44.3428162" lon="8.5465219"><ele>15.0</ele><time>2026-05-03T15:01:44.402Z</time></trkpt><trkpt lat="44.3428566" lon="8.5463605"><ele>15.0</ele><time>2026-05-03T15:01:45.399Z</time></trkpt><trkpt lat="44.3428875" lon="8.5462066"><ele>14.0</ele><time>2026-05-03T15:01:46.402Z</time></trkpt><trkpt lat="44.3428782" lon="8.5460445"><ele>13.0</ele><time>2026-05-03T15:01:47.403Z</time></trkpt><trkpt lat="44.3428509" lon="8.5458851"><ele>12.0</ele><time>2026-05-03T15:01:48.402Z</time></trkpt><trkpt lat="44.3428103" lon="8.5457397"><ele>11.0</ele><time>2026-05-03T15:01:49.402Z</time></trkpt><trkpt lat="44.3427536" lon="8.5455876"><ele>11.0</ele><time>2026-05-03T15:01:50.403Z</time></trkpt><trkpt lat="44.3426962" lon="8.5454342"><ele>11.0</ele><time>2026-05-03T15:01:51.403Z</time></trkpt><trkpt lat="44.3426304" lon="8.5452775"><ele>11.0</ele><time>2026-05-03T15:01:52.402Z</time></trkpt><trkpt lat="44.3425717" lon="8.5451158"><ele>11.0</ele><time>2026-05-03T15:01:53.402Z</time></trkpt><trkpt lat="44.3425148" lon="8.5449598"><ele>10.5</ele><time>2026-05-03T15:01:54.402Z</time></trkpt><trkpt lat="44.34246" lon="8.5448075"><ele>10.0</ele><time>2026-05-03T15:01:55.402Z</time></trkpt><trkpt lat="44.3424144" lon="8.5446564"><ele>9.5</ele><time>2026-05-03T15:01:56.403Z</time></trkpt><trkpt lat="44.3423404" lon="8.5445318"><ele>9.0</ele><time>2026-05-03T15:01:57.402Z</time></trkpt><trkpt lat="44.342274" lon="8.5444078"><ele>9.0</ele><time>2026-05-03T15:01:58.402Z</time></trkpt><trkpt lat="44.34222" lon="8.5442944"><ele>9.0</ele><time>2026-05-03T15:01:59.399Z</time></trkpt><trkpt lat="44.3421629" lon="8.5441879"><ele>9.0</ele><time>2026-05-03T15:02:00.402Z</time></trkpt><trkpt lat="44.342115" lon="8.5441001"><ele>9.0</ele><time>2026-05-03T15:02:01.403Z</time></trkpt><trkpt lat="44.3420659" lon="8.5440202"><ele>9.0</ele><time>2026-05-03T15:02:02.403Z</time></trkpt><trkpt lat="44.3420162" lon="8.5439293"><ele>9.0</ele><time>2026-05-03T15:02:03.402Z</time></trkpt><trkpt lat="44.3419728" lon="8.543843"><ele>9.166666666666666</ele><time>2026-05-03T15:02:04.402Z</time></trkpt><trkpt lat="44.3419291" lon="8.5437605"><ele>9.333333333333334</ele><time>2026-05-03T15:02:05.401Z</time></trkpt><trkpt lat="44.3418895" lon="8.5436894"><ele>9.5</ele><time>2026-05-03T15:02:06.402Z</time></trkpt><trkpt lat="44.3418441" lon="8.5436201"><ele>9.666666666666668</ele><time>2026-05-03T15:02:07.402Z</time></trkpt><trkpt lat="44.3417638" lon="8.5434976"><ele>9.833333333333334</ele><time>2026-05-03T15:02:09.402Z</time></trkpt><trkpt lat="44.3417077" lon="8.5434511"><ele>10.0</ele><time>2026-05-03T15:02:10.402Z</time></trkpt><trkpt lat="44.3416452" lon="8.5434143"><ele>10.0</ele><time>2026-05-03T15:02:11.403Z</time></trkpt><trkpt lat="44.34152" lon="8.5434092"><ele>10.0</ele><time>2026-05-03T15:02:13.403Z</time></trkpt><trkpt lat="44.3414573" lon="8.5434313"><ele>10.0</ele><time>2026-05-03T15:02:14.403Z</time></trkpt><trkpt lat="44.3413939" lon="8.5434507"><ele>10.0</ele><time>2026-05-03T15:02:15.402Z</time></trkpt><trkpt lat="44.3413275" lon="8.5434731"><ele>10.0</ele><time>2026-05-03T15:02:16.402Z</time></trkpt><trkpt lat="44.3412571" lon="8.5435019"><ele>10.0</ele><time>2026-05-03T15:02:17.403Z</time></trkpt><trkpt lat="44.3411869" lon="8.5435255"><ele>10.285714285714285</ele><time>2026-05-03T15:02:18.402Z</time></trkpt><trkpt lat="44.3411208" lon="8.5435488"><ele>10.571428571428571</ele><time>2026-05-03T15:02:19.403Z</time></trkpt><trkpt lat="44.3410576" lon="8.5435702"><ele>10.857142857142858</ele><time>2026-05-03T15:02:20.402Z</time></trkpt><trkpt lat="44.3409944" lon="8.5435829"><ele>11.142857142857142</ele><time>2026-05-03T15:02:21.403Z</time></trkpt><trkpt lat="44.3409296" lon="8.5435837"><ele>11.428571428571429</ele><time>2026-05-03T15:02:22.402Z</time></trkpt><trkpt lat="44.3408641" lon="8.543564"><ele>11.714285714285714</ele><time>2026-05-03T15:02:23.402Z</time></trkpt><trkpt lat="44.340801" lon="8.5435204"><ele>12.0</ele><time>2026-05-03T15:02:24.402Z</time></trkpt><trkpt lat="44.3407417" lon="8.5434591"><ele>12.0</ele><time>2026-05-03T15:02:25.402Z</time></trkpt><trkpt lat="44.3406892" lon="8.5434007"><ele>12.0</ele><time>2026-05-03T15:02:26.402Z</time></trkpt><trkpt lat="44.3405954" lon="8.5432824"><ele>12.0</ele><time>2026-05-03T15:02:28.402Z</time></trkpt><trkpt lat="44.3405437" lon="8.5432231"><ele>12.0</ele><time>2026-05-03T15:02:29.403Z</time></trkpt><trkpt lat="44.3404868" lon="8.5431664"><ele>12.0</ele><time>2026-05-03T15:02:30.403Z</time></trkpt><trkpt lat="44.340423" lon="8.5431079"><ele>12.0</ele><time>2026-05-03T15:02:31.403Z</time></trkpt><trkpt lat="44.340363" lon="8.5430413"><ele>12.5</ele><time>2026-05-03T15:02:32.402Z</time></trkpt><trkpt lat="44.3402994" lon="8.5429761"><ele>13.0</ele><time>2026-05-03T15:02:33.403Z</time></trkpt><trkpt lat="44.3402388" lon="8.5429143"><ele>13.5</ele><time>2026-05-03T15:02:34.403Z</time></trkpt><trkpt lat="44.3401768" lon="8.5428489"><ele>14.0</ele><time>2026-05-03T15:02:35.402Z</time></trkpt><trkpt lat="44.3401182" lon="8.5427962"><ele>14.5</ele><time>2026-05-03T15:02:36.403Z</time></trkpt><trkpt lat="44.3400615" lon="8.5427501"><ele>15.0</ele><time>2026-05-03T15:02:37.402Z</time></trkpt><trkpt lat="44.3399377" lon="8.5427355"><ele>15.0</ele><time>2026-05-03T15:02:39.402Z</time></trkpt><trkpt lat="44.3398782" lon="8.5427706"><ele>15.0</ele><time>2026-05-03T15:02:40.402Z</time></trkpt><trkpt lat="44.339825" lon="8.5428303"><ele>15.0</ele><time>2026-05-03T15:02:41.403Z</time></trkpt><trkpt lat="44.3397672" lon="8.5428955"><ele>15.0</ele><time>2026-05-03T15:02:42.403Z</time></trkpt><trkpt lat="44.3396985" lon="8.5429613"><ele>15.0</ele><time>2026-05-03T15:02:43.402Z</time></trkpt><trkpt lat="44.3396197" lon="8.5430153"><ele>15.0</ele><time>2026-05-03T15:02:44.402Z</time></trkpt><trkpt lat="44.3395346" lon="8.5430506"><ele>14.666666666666666</ele><time>2026-05-03T15:02:45.402Z</time></trkpt><trkpt lat="44.339449" lon="8.5430718"><ele>14.333333333333332</ele><time>2026-05-03T15:02:46.403Z</time></trkpt><trkpt lat="44.3393646" lon="8.5430739"><ele>14.0</ele><time>2026-05-03T15:02:47.403Z</time></trkpt><trkpt lat="44.3392774" lon="8.5430586"><ele>13.666666666666666</ele><time>2026-05-03T15:02:48.402Z</time></trkpt><trkpt lat="44.3391888" lon="8.5430269"><ele>13.333333333333332</ele><time>2026-05-03T15:02:49.402Z</time></trkpt><trkpt lat="44.3391044" lon="8.5429709"><ele>13.0</ele><time>2026-05-03T15:02:50.402Z</time></trkpt><trkpt lat="44.3390241" lon="8.5429014"><ele>13.8</ele><time>2026-05-03T15:02:51.399Z</time></trkpt><trkpt lat="44.3389412" lon="8.54283"><ele>14.600000000000001</ele><time>2026-05-03T15:02:52.402Z</time></trkpt><trkpt lat="44.3388602" lon="8.5427524"><ele>15.399999999999999</ele><time>2026-05-03T15:02:53.402Z</time></trkpt><trkpt lat="44.3387771" lon="8.5426666"><ele>16.2</ele><time>2026-05-03T15:02:54.402Z</time></trkpt><trkpt lat="44.3386887" lon="8.5425771"><ele>17.0</ele><time>2026-05-03T15:02:55.402Z</time></trkpt><trkpt lat="44.3386045" lon="8.5424936"><ele>17.0</ele><time>2026-05-03T15:02:56.403Z</time></trkpt><trkpt lat="44.3385132" lon="8.5424038"><ele>17.0</ele><time>2026-05-03T15:02:57.402Z</time></trkpt><trkpt lat="44.3384245" lon="8.5423108"><ele>17.0</ele><time>2026-05-03T15:02:58.402Z</time></trkpt><trkpt lat="44.3383347" lon="8.5422154"><ele>17.0</ele><time>2026-05-03T15:02:59.403Z</time></trkpt><trkpt lat="44.3382481" lon="8.5421158"><ele>17.0</ele><time>2026-05-03T15:03:00.402Z</time></trkpt><trkpt lat="44.3381582" lon="8.5420216"><ele>19.75</ele><time>2026-05-03T15:03:01.403Z</time></trkpt><trkpt lat="44.3380632" lon="8.5419349"><ele>22.5</ele><time>2026-05-03T15:03:02.402Z</time></trkpt><trkpt lat="44.3379611" lon="8.5418721"><ele>25.25</ele><time>2026-05-03T15:03:03.402Z</time></trkpt><trkpt lat="44.3378483" lon="8.5418385"><ele>28.0</ele><time>2026-05-03T15:03:04.403Z</time></trkpt><trkpt lat="44.3377308" lon="8.541834"><ele>28.0</ele><time>2026-05-03T15:03:05.4Z</time></trkpt><trkpt lat="44.3376165" lon="8.541858"><ele>28.0</ele><time>2026-05-03T15:03:06.399Z</time></trkpt><trkpt lat="44.3375057" lon="8.5419079"><ele>28.0</ele><time>2026-05-03T15:03:07.402Z</time></trkpt><trkpt lat="44.3374019" lon="8.5419783"><ele>28.0</ele><time>2026-05-03T15:03:08.402Z</time></trkpt><trkpt lat="44.3372945" lon="8.5420492"><ele>24.0</ele><time>2026-05-03T15:03:09.402Z</time></trkpt><trkpt lat="44.3371839" lon="8.5421169"><ele>20.0</ele><time>2026-05-03T15:03:10.402Z</time></trkpt><trkpt lat="44.3370622" lon="8.5421675"><ele>16.0</ele><time>2026-05-03T15:03:11.402Z</time></trkpt><trkpt lat="44.3369375" lon="8.5421954"><ele>12.0</ele><time>2026-05-03T15:03:12.402Z</time></trkpt><trkpt lat="44.3368058" lon="8.5422099"><ele>12.0</ele><time>2026-05-03T15:03:13.402Z</time></trkpt><trkpt lat="44.3366745" lon="8.5422241"><ele>12.0</ele><time>2026-05-03T15:03:14.402Z</time></trkpt><trkpt lat="44.3365523" lon="8.5422408"><ele>12.0</ele><time>2026-05-03T15:03:15.402Z</time></trkpt><trkpt lat="44.3364365" lon="8.5422405"><ele>12.0</ele><time>2026-05-03T15:03:16.403Z</time></trkpt><trkpt lat="44.336327" lon="8.5422075"><ele>12.6</ele><time>2026-05-03T15:03:17.403Z</time></trkpt><trkpt lat="44.3362302" lon="8.5421492"><ele>13.2</ele><time>2026-05-03T15:03:18.403Z</time></trkpt><trkpt lat="44.3361477" lon="8.5420629"><ele>13.8</ele><time>2026-05-03T15:03:19.402Z</time></trkpt><trkpt lat="44.3360798" lon="8.5419409"><ele>14.4</ele><time>2026-05-03T15:03:20.402Z</time></trkpt><trkpt lat="44.3360221" lon="8.5418016"><ele>15.0</ele><time>2026-05-03T15:03:21.402Z</time></trkpt><trkpt lat="44.3359661" lon="8.5416474"><ele>15.0</ele><time>2026-05-03T15:03:22.403Z</time></trkpt><trkpt lat="44.3359052" lon="8.5414798"><ele>15.0</ele><time>2026-05-03T15:03:23.402Z</time></trkpt><trkpt lat="44.3358486" lon="8.5412974"><ele>15.0</ele><time>2026-05-03T15:03:24.401Z</time></trkpt><trkpt lat="44.3357915" lon="8.5411083"><ele>15.0</ele><time>2026-05-03T15:03:25.403Z</time></trkpt><trkpt lat="44.3357372" lon="8.5409299"><ele>13.0</ele><time>2026-05-03T15:03:26.403Z</time></trkpt><trkpt lat="44.3356833" lon="8.5407487"><ele>11.0</ele><time>2026-05-03T15:03:27.402Z</time></trkpt><trkpt lat="44.3356348" lon="8.5405691"><ele>9.0</ele><time>2026-05-03T15:03:28.402Z</time></trkpt><trkpt lat="44.3355857" lon="8.5403895"><ele>7.0</ele><time>2026-05-03T15:03:29.402Z</time></trkpt><trkpt lat="44.335534" lon="8.540206"><ele>7.0</ele><time>2026-05-03T15:03:30.402Z</time></trkpt><trkpt lat="44.3354845" lon="8.5400162"><ele>7.0</ele><time>2026-05-03T15:03:31.402Z</time></trkpt><trkpt lat="44.3354383" lon="8.5398163"><ele>7.0</ele><time>2026-05-03T15:03:32.403Z</time></trkpt><trkpt lat="44.3353941" lon="8.5396134"><ele>7.0</ele><time>2026-05-03T15:03:33.402Z</time></trkpt><trkpt lat="44.3353503" lon="8.5393983"><ele>6.333333333333334</ele><time>2026-05-03T15:03:34.403Z</time></trkpt><trkpt lat="44.3352997" lon="8.5391764"><ele>5.666666666666667</ele><time>2026-05-03T15:03:35.403Z</time></trkpt><trkpt lat="44.3352413" lon="8.5389399"><ele>5.0</ele><time>2026-05-03T15:03:36.402Z</time></trkpt><trkpt lat="44.3351836" lon="8.5386928"><ele>5.0</ele><time>2026-05-03T15:03:37.402Z</time></trkpt><trkpt lat="44.3351287" lon="8.5384429"><ele>5.0</ele><time>2026-05-03T15:03:38.402Z</time></trkpt><trkpt lat="44.3350816" lon="8.5381934"><ele>5.0</ele><time>2026-05-03T15:03:39.402Z</time></trkpt><trkpt lat="44.3350389" lon="8.5379535"><ele>9.666666666666666</ele><time>2026-05-03T15:03:40.402Z</time></trkpt><trkpt lat="44.3349929" lon="8.5377187"><ele>14.333333333333332</ele><time>2026-05-03T15:03:41.402Z</time></trkpt><trkpt lat="44.3349452" lon="8.537489"><ele>19.0</ele><time>2026-05-03T15:03:42.402Z</time></trkpt><trkpt lat="44.3348985" lon="8.5372665"><ele>21.666666666666664</ele><time>2026-05-03T15:03:43.403Z</time></trkpt><trkpt lat="44.3348531" lon="8.5370498"><ele>24.333333333333332</ele><time>2026-05-03T15:03:44.402Z</time></trkpt><trkpt lat="44.3348105" lon="8.5368297"><ele>27.0</ele><time>2026-05-03T15:03:45.402Z</time></trkpt><trkpt lat="44.3347722" lon="8.5366093"><ele>27.0</ele><time>2026-05-03T15:03:46.402Z</time></trkpt><trkpt lat="44.3347327" lon="8.5363865"><ele>27.0</ele><time>2026-05-03T15:03:47.403Z</time></trkpt><trkpt lat="44.3346925" lon="8.536167"><ele>27.0</ele><time>2026-05-03T15:03:48.403Z</time></trkpt><trkpt lat="44.3346511" lon="8.5359418"><ele>22.333333333333332</ele><time>2026-05-03T15:03:49.403Z</time></trkpt><trkpt lat="44.3346169" lon="8.5357128"><ele>17.666666666666664</ele><time>2026-05-03T15:03:50.402Z</time></trkpt><trkpt lat="44.3345893" lon="8.5354843"><ele>13.0</ele><time>2026-05-03T15:03:51.403Z</time></trkpt><trkpt lat="44.3345613" lon="8.5352536"><ele>13.0</ele><time>2026-05-03T15:03:52.402Z</time></trkpt><trkpt lat="44.3345331" lon="8.535021"><ele>13.0</ele><time>2026-05-03T15:03:53.402Z</time></trkpt><trkpt lat="44.334509" lon="8.5347809"><ele>13.0</ele><time>2026-05-03T15:03:54.402Z</time></trkpt><trkpt lat="44.3344898" lon="8.5345465"><ele>13.333333333333332</ele><time>2026-05-03T15:03:55.402Z</time></trkpt><trkpt lat="44.3344699" lon="8.5343121"><ele>13.666666666666668</ele><time>2026-05-03T15:03:56.402Z</time></trkpt><trkpt lat="44.334444" lon="8.5340765"><ele>14.0</ele><time>2026-05-03T15:03:57.402Z</time></trkpt><trkpt lat="44.3344158" lon="8.5338431"><ele>12.333333333333334</ele><time>2026-05-03T15:03:58.402Z</time></trkpt><trkpt lat="44.334379" lon="8.5336094"><ele>10.666666666666668</ele><time>2026-05-03T15:03:59.402Z</time></trkpt><trkpt lat="44.3343333" lon="8.5333829"><ele>9.0</ele><time>2026-05-03T15:04:00.402Z</time></trkpt><trkpt lat="44.3342805" lon="8.5331613"><ele>9.0</ele><time>2026-05-03T15:04:01.399Z</time></trkpt><trkpt lat="44.334224" lon="8.5329503"><ele>9.0</ele><time>2026-05-03T15:04:02.402Z</time></trkpt><trkpt lat="44.3341621" lon="8.5327406"><ele>9.0</ele><time>2026-05-03T15:04:03.403Z</time></trkpt><trkpt lat="44.3340953" lon="8.5325296"><ele>11.666666666666668</ele><time>2026-05-03T15:04:04.402Z</time></trkpt><trkpt lat="44.3340324" lon="8.5323153"><ele>14.333333333333334</ele><time>2026-05-03T15:04:05.402Z</time></trkpt><trkpt lat="44.3339735" lon="8.5320958"><ele>17.0</ele><time>2026-05-03T15:04:06.402Z</time></trkpt><trkpt lat="44.3339156" lon="8.5318756"><ele>15.0</ele><time>2026-05-03T15:04:07.403Z</time></trkpt><trkpt lat="44.3338583" lon="8.5316516"><ele>13.0</ele><time>2026-05-03T15:04:08.403Z</time></trkpt><trkpt lat="44.3338059" lon="8.5314233"><ele>11.0</ele><time>2026-05-03T15:04:09.402Z</time></trkpt><trkpt lat="44.333752" lon="8.5311953"><ele>11.0</ele><time>2026-05-03T15:04:10.402Z</time></trkpt><trkpt lat="44.3336979" lon="8.5309623"><ele>11.0</ele><time>2026-05-03T15:04:11.402Z</time></trkpt><trkpt lat="44.3336458" lon="8.5307295"><ele>11.0</ele><time>2026-05-03T15:04:12.403Z</time></trkpt><trkpt lat="44.3335912" lon="8.5304973"><ele>12.0</ele><time>2026-05-03T15:04:13.403Z</time></trkpt><trkpt lat="44.3335397" lon="8.5302712"><ele>13.0</ele><time>2026-05-03T15:04:14.402Z</time></trkpt><trkpt lat="44.333485" lon="8.5300476"><ele>14.0</ele><time>2026-05-03T15:04:15.403Z</time></trkpt><trkpt lat="44.3334183" lon="8.5298298"><ele>14.0</ele><time>2026-05-03T15:04:16.402Z</time></trkpt><trkpt lat="44.3333463" lon="8.5296221"><ele>14.0</ele><time>2026-05-03T15:04:17.402Z</time></trkpt><trkpt lat="44.3332577" lon="8.5294254"><ele>14.0</ele><time>2026-05-03T15:04:18.402Z</time></trkpt><trkpt lat="44.3331626" lon="8.5292384"><ele>11.0</ele><time>2026-05-03T15:04:19.402Z</time></trkpt><trkpt lat="44.3330551" lon="8.5290625"><ele>8.0</ele><time>2026-05-03T15:04:20.402Z</time></trkpt><trkpt lat="44.3329405" lon="8.5288943"><ele>5.0</ele><time>2026-05-03T15:04:21.403Z</time></trkpt><trkpt lat="44.3328224" lon="8.5287387"><ele>7.25</ele><time>2026-05-03T15:04:22.403Z</time></trkpt><trkpt lat="44.3327107" lon="8.5285899"><ele>9.5</ele><time>2026-05-03T15:04:23.403Z</time></trkpt><trkpt lat="44.3326148" lon="8.528438"><ele>11.75</ele><time>2026-05-03T15:04:24.402Z</time></trkpt><trkpt lat="44.3325371" lon="8.5282866"><ele>14.0</ele><time>2026-05-03T15:04:25.403Z</time></trkpt><trkpt lat="44.3324859" lon="8.5281095"><ele>14.0</ele><time>2026-05-03T15:04:26.402Z</time></trkpt><trkpt lat="44.3324608" lon="8.5279044"><ele>14.0</ele><time>2026-05-03T15:04:27.402Z</time></trkpt><trkpt lat="44.3324457" lon="8.5276904"><ele>14.0</ele><time>2026-05-03T15:04:28.403Z</time></trkpt><trkpt lat="44.3324455" lon="8.5274629"><ele>15.333333333333334</ele><time>2026-05-03T15:04:29.403Z</time></trkpt><trkpt lat="44.332449" lon="8.5272341"><ele>16.666666666666668</ele><time>2026-05-03T15:04:30.403Z</time></trkpt><trkpt lat="44.3324489" lon="8.5270071"><ele>18.0</ele><time>2026-05-03T15:04:31.402Z</time></trkpt><trkpt lat="44.3324455" lon="8.5267957"><ele>18.5</ele><time>2026-05-03T15:04:32.403Z</time></trkpt><trkpt lat="44.3324428" lon="8.5265857"><ele>19.0</ele><time>2026-05-03T15:04:33.402Z</time></trkpt><trkpt lat="44.3324381" lon="8.5263794"><ele>19.5</ele><time>2026-05-03T15:04:34.402Z</time></trkpt><trkpt lat="44.33244" lon="8.5261754"><ele>20.0</ele><time>2026-05-03T15:04:35.402Z</time></trkpt><trkpt lat="44.3324405" lon="8.5259661"><ele>20.0</ele><time>2026-05-03T15:04:36.402Z</time></trkpt><trkpt lat="44.3324399" lon="8.5257592"><ele>20.0</ele><time>2026-05-03T15:04:37.402Z</time></trkpt><trkpt lat="44.3324366" lon="8.5255538"><ele>20.0</ele><time>2026-05-03T15:04:38.403Z</time></trkpt><trkpt lat="44.3324344" lon="8.5253483"><ele>20.0</ele><time>2026-05-03T15:04:39.402Z</time></trkpt><trkpt lat="44.332432" lon="8.5251403"><ele>21.5</ele><time>2026-05-03T15:04:40.402Z</time></trkpt><trkpt lat="44.3324297" lon="8.5249328"><ele>23.0</ele><time>2026-05-03T15:04:41.402Z</time></trkpt><trkpt lat="44.3324298" lon="8.5247315"><ele>24.5</ele><time>2026-05-03T15:04:42.403Z</time></trkpt><trkpt lat="44.332432" lon="8.5245143"><ele>26.0</ele><time>2026-05-03T15:04:43.402Z</time></trkpt><trkpt lat="44.332432" lon="8.5243056"><ele>29.75</ele><time>2026-05-03T15:04:44.402Z</time></trkpt><trkpt lat="44.332439" lon="8.5241138"><ele>33.5</ele><time>2026-05-03T15:04:45.403Z</time></trkpt><trkpt lat="44.3324389" lon="8.5239251"><ele>37.25</ele><time>2026-05-03T15:04:46.402Z</time></trkpt><trkpt lat="44.332442" lon="8.5237317"><ele>41.0</ele><time>2026-05-03T15:04:47.402Z</time></trkpt><trkpt lat="44.332446" lon="8.5235314"><ele>44.0</ele><time>2026-05-03T15:04:48.403Z</time></trkpt><trkpt lat="44.3324477" lon="8.5233358"><ele>47.0</ele><time>2026-05-03T15:04:49.402Z</time></trkpt><trkpt lat="44.3324492" lon="8.5231411"><ele>50.0</ele><time>2026-05-03T15:04:50.403Z</time></trkpt><trkpt lat="44.3324509" lon="8.522947"><ele>53.0</ele><time>2026-05-03T15:04:51.402Z</time></trkpt><trkpt lat="44.3324453" lon="8.522698"><ele>53.66666666666667</ele><time>2026-05-03T15:04:52.402Z</time></trkpt><trkpt lat="44.3324454" lon="8.5224844"><ele>54.33333333333333</ele><time>2026-05-03T15:04:53.402Z</time></trkpt><trkpt lat="44.3324427" lon="8.5222488"><ele>55.0</ele><time>2026-05-03T15:04:54.402Z</time></trkpt><trkpt lat="44.33242" lon="8.5220299"><ele>50.0</ele><time>2026-05-03T15:04:55.401Z</time></trkpt><trkpt lat="44.3324623" lon="8.5217752"><ele>45.0</ele><time>2026-05-03T15:04:56.402Z</time></trkpt><trkpt lat="44.3324508" lon="8.5215446"><ele>40.0</ele><time>2026-05-03T15:04:57.402Z</time></trkpt><trkpt lat="44.332432" lon="8.5213206"><ele>35.5</ele><time>2026-05-03T15:04:58.403Z</time></trkpt><trkpt lat="44.3324178" lon="8.521115"><ele>31.0</ele><time>2026-05-03T15:04:59.402Z</time></trkpt><trkpt lat="44.3323647" lon="8.5209535"><ele>26.5</ele><time>2026-05-03T15:05:00.402Z</time></trkpt><trkpt lat="44.3323844" lon="8.5207976"><ele>22.0</ele><time>2026-05-03T15:05:01.402Z</time></trkpt><trkpt lat="44.3323705" lon="8.5206452"><ele>22.0</ele><time>2026-05-03T15:05:02.403Z</time></trkpt><trkpt lat="44.3323787" lon="8.5204949"><ele>22.0</ele><time>2026-05-03T15:05:03.403Z</time></trkpt><trkpt lat="44.3323859" lon="8.5203699"><ele>22.0</ele><time>2026-05-03T15:05:04.402Z</time></trkpt><trkpt lat="44.332397" lon="8.5202614"><ele>22.0</ele><time>2026-05-03T15:05:05.402Z</time></trkpt><trkpt lat="44.3324262" lon="8.5201629"><ele>22.0</ele><time>2026-05-03T15:05:06.403Z</time></trkpt><trkpt lat="44.3324664" lon="8.5200832"><ele>22.0</ele><time>2026-05-03T15:05:07.402Z</time></trkpt><trkpt lat="44.3324926" lon="8.5200027"><ele>21.200000000000003</ele><time>2026-05-03T15:05:08.403Z</time></trkpt><trkpt lat="44.3324695" lon="8.5198511"><ele>20.400000000000002</ele><time>2026-05-03T15:05:10.403Z</time></trkpt><trkpt lat="44.3323833" lon="8.519747"><ele>19.6</ele><time>2026-05-03T15:05:12.403Z</time></trkpt><trkpt lat="44.3323397" lon="8.5196596"><ele>18.8</ele><time>2026-05-03T15:05:13.402Z</time></trkpt><trkpt lat="44.3323018" lon="8.5195581"><ele>18.0</ele><time>2026-05-03T15:05:14.402Z</time></trkpt><trkpt lat="44.3322666" lon="8.519451"><ele>17.166666666666668</ele><time>2026-05-03T15:05:15.403Z</time></trkpt><trkpt lat="44.3322304" lon="8.5193396"><ele>16.333333333333332</ele><time>2026-05-03T15:05:16.402Z</time></trkpt><trkpt lat="44.3321988" lon="8.5192201"><ele>15.5</ele><time>2026-05-03T15:05:17.402Z</time></trkpt><trkpt lat="44.3321673" lon="8.5191071"><ele>14.666666666666666</ele><time>2026-05-03T15:05:18.402Z</time></trkpt><trkpt lat="44.3321399" lon="8.5190082"><ele>13.833333333333332</ele><time>2026-05-03T15:05:19.403Z</time></trkpt><trkpt lat="44.3321125" lon="8.5189116"><ele>13.0</ele><time>2026-05-03T15:05:20.403Z</time></trkpt><trkpt lat="44.3320729" lon="8.5187487"><ele>12.4</ele><time>2026-05-03T15:05:22.402Z</time></trkpt><trkpt lat="44.3320364" lon="8.5186199"><ele>11.8</ele><time>2026-05-03T15:05:24.402Z</time></trkpt><trkpt lat="44.3320109" lon="8.5185272"><ele>11.2</ele><time>2026-05-03T15:05:27.403Z</time></trkpt><trkpt lat="44.331986" lon="8.5184277"><ele>10.6</ele><time>2026-05-03T15:05:32.402Z</time></trkpt><trkpt lat="44.3319451" lon="8.5182888"><ele>10.0</ele><time>2026-05-03T15:05:35.403Z</time></trkpt><trkpt lat="44.3319038" lon="8.5181473"><ele>10.0</ele><time>2026-05-03T15:05:37.402Z</time></trkpt><trkpt lat="44.3318595" lon="8.5179834"><ele>10.0</ele><time>2026-05-03T15:05:39.402Z</time></trkpt><trkpt lat="44.331839" lon="8.517898"><ele>10.0</ele><time>2026-05-03T15:05:40.402Z</time></trkpt><trkpt lat="44.3318148" lon="8.5178111"><ele>10.0</ele><time>2026-05-03T15:05:41.402Z</time></trkpt><trkpt lat="44.3317883" lon="8.5177248"><ele>10.0</ele><time>2026-05-03T15:05:42.402Z</time></trkpt><trkpt lat="44.3317595" lon="8.5176235"><ele>10.0</ele><time>2026-05-03T15:05:43.402Z</time></trkpt><trkpt lat="44.3317296" lon="8.5175186"><ele>10.666666666666668</ele><time>2026-05-03T15:05:44.402Z</time></trkpt><trkpt lat="44.3316994" lon="8.5174088"><ele>11.333333333333334</ele><time>2026-05-03T15:05:45.402Z</time></trkpt><trkpt lat="44.3316655" lon="8.5172992"><ele>12.0</ele><time>2026-05-03T15:05:46.402Z</time></trkpt><trkpt lat="44.3316357" lon="8.5171985"><ele>12.666666666666668</ele><time>2026-05-03T15:05:47.403Z</time></trkpt><trkpt lat="44.3316055" lon="8.5170991"><ele>13.333333333333334</ele><time>2026-05-03T15:05:48.402Z</time></trkpt><trkpt lat="44.3315736" lon="8.5169994"><ele>14.0</ele><time>2026-05-03T15:05:49.403Z</time></trkpt><trkpt lat="44.3315433" lon="8.5168948"><ele>14.166666666666668</ele><time>2026-05-03T15:05:50.402Z</time></trkpt><trkpt lat="44.3315093" lon="8.516788"><ele>14.333333333333334</ele><time>2026-05-03T15:05:51.402Z</time></trkpt><trkpt lat="44.3314801" lon="8.5166822"><ele>14.5</ele><time>2026-05-03T15:05:52.402Z</time></trkpt><trkpt lat="44.331449" lon="8.5165802"><ele>14.666666666666668</ele><time>2026-05-03T15:05:53.402Z</time></trkpt><trkpt lat="44.3314188" lon="8.516478"><ele>14.833333333333334</ele><time>2026-05-03T15:05:54.403Z</time></trkpt><trkpt lat="44.3313913" lon="8.516373"><ele>15.0</ele><time>2026-05-03T15:05:55.402Z</time></trkpt><trkpt lat="44.3313581" lon="8.516264"><ele>14.0</ele><time>2026-05-03T15:05:56.402Z</time></trkpt><trkpt lat="44.3313289" lon="8.5161597"><ele>13.0</ele><time>2026-05-03T15:05:57.402Z</time></trkpt><trkpt lat="44.3312975" lon="8.5160525"><ele>12.0</ele><time>2026-05-03T15:05:58.402Z</time></trkpt><trkpt lat="44.3312674" lon="8.5159486"><ele>11.0</ele><time>2026-05-03T15:05:59.402Z</time></trkpt><trkpt lat="44.3312328" lon="8.5158363"><ele>10.0</ele><time>2026-05-03T15:06:00.403Z</time></trkpt><trkpt lat="44.3312028" lon="8.5157315"><ele>9.0</ele><time>2026-05-03T15:06:01.403Z</time></trkpt><trkpt lat="44.3311776" lon="8.5156358"><ele>9.0</ele><time>2026-05-03T15:06:02.402Z</time></trkpt><trkpt lat="44.3311528" lon="8.5155389"><ele>9.0</ele><time>2026-05-03T15:06:03.398Z</time></trkpt><trkpt lat="44.3311025" lon="8.5153797"><ele>9.0</ele><time>2026-05-03T15:06:05.403Z</time></trkpt><trkpt lat="44.3310679" lon="8.5152496"><ele>9.0</ele><time>2026-05-03T15:06:07.402Z</time></trkpt><trkpt lat="44.3310281" lon="8.5151413"><ele>9.0</ele><time>2026-05-03T15:06:10.403Z</time></trkpt><trkpt lat="44.3310178" lon="8.5150459"><ele>9.0</ele><time>2026-05-03T15:06:18.402Z</time></trkpt><trkpt lat="44.3309917" lon="8.5149501"><ele>9.0</ele><time>2026-05-03T15:06:21.402Z</time></trkpt><trkpt lat="44.3309654" lon="8.5148648"><ele>9.0</ele><time>2026-05-03T15:06:22.402Z</time></trkpt><trkpt lat="44.3309346" lon="8.5147639"><ele>9.0</ele><time>2026-05-03T15:06:23.403Z</time></trkpt><trkpt lat="44.3309017" lon="8.5146473"><ele>9.0</ele><time>2026-05-03T15:06:24.402Z</time></trkpt><trkpt lat="44.3308616" lon="8.5145087"><ele>9.0</ele><time>2026-05-03T15:06:25.402Z</time></trkpt><trkpt lat="44.3308247" lon="8.5143676"><ele>9.2</ele><time>2026-05-03T15:06:26.402Z</time></trkpt><trkpt lat="44.3307848" lon="8.5142274"><ele>9.4</ele><time>2026-05-03T15:06:27.402Z</time></trkpt><trkpt lat="44.3307473" lon="8.5140959"><ele>9.6</ele><time>2026-05-03T15:06:28.402Z</time></trkpt><trkpt lat="44.330716" lon="8.5139787"><ele>9.8</ele><time>2026-05-03T15:06:29.403Z</time></trkpt><trkpt lat="44.3306858" lon="8.513872"><ele>10.0</ele><time>2026-05-03T15:06:30.402Z</time></trkpt><trkpt lat="44.3306507" lon="8.5137638"><ele>9.833333333333334</ele><time>2026-05-03T15:06:31.403Z</time></trkpt><trkpt lat="44.3306167" lon="8.5136536"><ele>9.666666666666668</ele><time>2026-05-03T15:06:32.403Z</time></trkpt><trkpt lat="44.3305882" lon="8.5135432"><ele>9.5</ele><time>2026-05-03T15:06:33.403Z</time></trkpt><trkpt lat="44.3305563" lon="8.5134359"><ele>9.333333333333334</ele><time>2026-05-03T15:06:34.402Z</time></trkpt><trkpt lat="44.3305303" lon="8.5133372"><ele>9.166666666666666</ele><time>2026-05-03T15:06:35.403Z</time></trkpt><trkpt lat="44.330509" lon="8.5132497"><ele>9.0</ele><time>2026-05-03T15:06:36.402Z</time></trkpt><trkpt lat="44.3305411" lon="8.5131618"><ele>9.0</ele><time>2026-05-03T15:06:37.402Z</time></trkpt><trkpt lat="44.3305657" lon="8.5129978"><ele>9.0</ele><time>2026-05-03T15:06:39.402Z</time></trkpt><trkpt lat="44.3304856" lon="8.5128496"><ele>9.0</ele><time>2026-05-03T15:06:41.402Z</time></trkpt><trkpt lat="44.3304174" lon="8.5127675"><ele>9.0</ele><time>2026-05-03T15:06:42.402Z</time></trkpt><trkpt lat="44.3303625" lon="8.5126626"><ele>9.0</ele><time>2026-05-03T15:06:43.403Z</time></trkpt><trkpt lat="44.3303169" lon="8.5125456"><ele>8.6</ele><time>2026-05-03T15:06:44.402Z</time></trkpt><trkpt lat="44.3302726" lon="8.5124132"><ele>8.2</ele><time>2026-05-03T15:06:45.402Z</time></trkpt><trkpt lat="44.3302351" lon="8.5122835"><ele>7.799999999999999</ele><time>2026-05-03T15:06:46.402Z</time></trkpt><trkpt lat="44.3301996" lon="8.5121442"><ele>7.3999999999999995</ele><time>2026-05-03T15:06:47.403Z</time></trkpt><trkpt lat="44.3301602" lon="8.5120044"><ele>7.0</ele><time>2026-05-03T15:06:48.402Z</time></trkpt><trkpt lat="44.3301181" lon="8.5118567"><ele>6.75</ele><time>2026-05-03T15:06:49.403Z</time></trkpt><trkpt lat="44.3300754" lon="8.5117049"><ele>6.5</ele><time>2026-05-03T15:06:50.402Z</time></trkpt><trkpt lat="44.3300308" lon="8.5115526"><ele>6.25</ele><time>2026-05-03T15:06:51.403Z</time></trkpt><trkpt lat="44.3299874" lon="8.5114002"><ele>6.0</ele><time>2026-05-03T15:06:52.402Z</time></trkpt><trkpt lat="44.3299388" lon="8.5112479"><ele>5.6</ele><time>2026-05-03T15:06:53.402Z</time></trkpt><trkpt lat="44.3298999" lon="8.5111034"><ele>5.199999999999999</ele><time>2026-05-03T15:06:54.402Z</time></trkpt><trkpt lat="44.3298607" lon="8.5109751"><ele>4.800000000000001</ele><time>2026-05-03T15:06:55.402Z</time></trkpt><trkpt lat="44.3298248" lon="8.5108499"><ele>4.4</ele><time>2026-05-03T15:06:56.402Z</time></trkpt><trkpt lat="44.3297944" lon="8.5107254"><ele>4.0</ele><time>2026-05-03T15:06:57.402Z</time></trkpt><trkpt lat="44.3297619" lon="8.5106113"><ele>3.9999999999999996</ele><time>2026-05-03T15:06:58.403Z</time></trkpt><trkpt lat="44.3297312" lon="8.5105073"><ele>4.0</ele><time>2026-05-03T15:06:59.402Z</time></trkpt><trkpt lat="44.3297035" lon="8.5104098"><ele>4.0</ele><time>2026-05-03T15:07:00.398Z</time></trkpt><trkpt lat="44.329654" lon="8.510267"><ele>4.0</ele><time>2026-05-03T15:07:02.402Z</time></trkpt><trkpt lat="44.3296191" lon="8.5101409"><ele>3.9999999999999996</ele><time>2026-05-03T15:07:04.402Z</time></trkpt><trkpt lat="44.3295982" lon="8.5100519"><ele>4.0</ele><time>2026-05-03T15:07:06.403Z</time></trkpt><trkpt lat="44.3295693" lon="8.509949"><ele>4.2</ele><time>2026-05-03T15:07:08.402Z</time></trkpt><trkpt lat="44.3295234" lon="8.5097979"><ele>4.4</ele><time>2026-05-03T15:07:10.402Z</time></trkpt><trkpt lat="44.3294905" lon="8.5096579"><ele>4.6</ele><time>2026-05-03T15:07:12.402Z</time></trkpt><trkpt lat="44.3294513" lon="8.5094995"><ele>4.8</ele><time>2026-05-03T15:07:14.402Z</time></trkpt><trkpt lat="44.3294208" lon="8.5094005"><ele>5.0</ele><time>2026-05-03T15:07:15.402Z</time></trkpt><trkpt lat="44.3293843" lon="8.5092855"><ele>4.4</ele><time>2026-05-03T15:07:16.402Z</time></trkpt><trkpt lat="44.3293454" lon="8.5091658"><ele>3.8</ele><time>2026-05-03T15:07:17.403Z</time></trkpt><trkpt lat="44.3293095" lon="8.5090463"><ele>3.2</ele><time>2026-05-03T15:07:18.403Z</time></trkpt><trkpt lat="44.329275" lon="8.5089284"><ele>2.6</ele><time>2026-05-03T15:07:19.402Z</time></trkpt><trkpt lat="44.3292396" lon="8.5088163"><ele>2.0</ele><time>2026-05-03T15:07:20.403Z</time></trkpt><trkpt lat="44.3292016" lon="8.5087003"><ele>1.9999999999999998</ele><time>2026-05-03T15:07:21.402Z</time></trkpt><trkpt lat="44.3291671" lon="8.5085819"><ele>2.0</ele><time>2026-05-03T15:07:22.402Z</time></trkpt><trkpt lat="44.329131" lon="8.5084563"><ele>2.0</ele><time>2026-05-03T15:07:23.402Z</time></trkpt><trkpt lat="44.3290964" lon="8.5083433"><ele>2.0</ele><time>2026-05-03T15:07:24.402Z</time></trkpt><trkpt lat="44.3290653" lon="8.5082398"><ele>1.9999999999999998</ele><time>2026-05-03T15:07:25.403Z</time></trkpt><trkpt lat="44.3290342" lon="8.5081468"><ele>2.0</ele><time>2026-05-03T15:07:26.402Z</time></trkpt><trkpt lat="44.3290086" lon="8.5080574"><ele>2.5</ele><time>2026-05-03T15:07:27.402Z</time></trkpt><trkpt lat="44.3289613" lon="8.5079021"><ele>3.0</ele><time>2026-05-03T15:07:29.403Z</time></trkpt><trkpt lat="44.3289124" lon="8.5077539"><ele>3.5</ele><time>2026-05-03T15:07:31.402Z</time></trkpt><trkpt lat="44.32887" lon="8.5076095"><ele>4.0</ele><time>2026-05-03T15:07:33.402Z</time></trkpt><trkpt lat="44.328829" lon="8.5074728"><ele>4.0</ele><time>2026-05-03T15:07:35.402Z</time></trkpt><trkpt lat="44.3287905" lon="8.5073324"><ele>4.0</ele><time>2026-05-03T15:07:37.403Z</time></trkpt><trkpt lat="44.3287456" lon="8.5071862"><ele>4.0</ele><time>2026-05-03T15:07:39.402Z</time></trkpt><trkpt lat="44.3286974" lon="8.5070424"><ele>4.0</ele><time>2026-05-03T15:07:41.403Z</time></trkpt><trkpt lat="44.3286475" lon="8.5068915"><ele>4.2</ele><time>2026-05-03T15:07:43.402Z</time></trkpt><trkpt lat="44.3285956" lon="8.5067433"><ele>4.4</ele><time>2026-05-03T15:07:45.402Z</time></trkpt><trkpt lat="44.3285679" lon="8.5066639"><ele>4.6</ele><time>2026-05-03T15:07:46.402Z</time></trkpt><trkpt lat="44.3285151" lon="8.5065197"><ele>4.8</ele><time>2026-05-03T15:07:48.402Z</time></trkpt><trkpt lat="44.3284691" lon="8.5063876"><ele>5.0</ele><time>2026-05-03T15:07:50.402Z</time></trkpt><trkpt lat="44.3284217" lon="8.5062414"><ele>5.2</ele><time>2026-05-03T15:07:52.403Z</time></trkpt><trkpt lat="44.3283782" lon="8.506114"><ele>5.4</ele><time>2026-05-03T15:07:54.402Z</time></trkpt><trkpt lat="44.32833" lon="8.5059735"><ele>5.6</ele><time>2026-05-03T15:07:56.402Z</time></trkpt><trkpt lat="44.3282714" lon="8.5058206"><ele>5.8</ele><time>2026-05-03T15:07:58.402Z</time></trkpt><trkpt lat="44.3282416" lon="8.5057365"><ele>6.0</ele><time>2026-05-03T15:07:59.402Z</time></trkpt><trkpt lat="44.3282038" lon="8.5056485"><ele>6.0</ele><time>2026-05-03T15:08:00.403Z</time></trkpt><trkpt lat="44.3281698" lon="8.505559"><ele>6.0</ele><time>2026-05-03T15:08:01.402Z</time></trkpt><trkpt lat="44.3281338" lon="8.5054649"><ele>6.0</ele><time>2026-05-03T15:08:02.402Z</time></trkpt><trkpt lat="44.3280978" lon="8.505376"><ele>6.0</ele><time>2026-05-03T15:08:03.402Z</time></trkpt><trkpt lat="44.3280605" lon="8.5052799"><ele>6.0</ele><time>2026-05-03T15:08:04.403Z</time></trkpt><trkpt lat="44.3280227" lon="8.5051856"><ele>6.0</ele><time>2026-05-03T15:08:05.402Z</time></trkpt><trkpt lat="44.3279844" lon="8.5050944"><ele>5.833333333333333</ele><time>2026-05-03T15:08:06.402Z</time></trkpt><trkpt lat="44.3279441" lon="8.5050025"><ele>5.666666666666667</ele><time>2026-05-03T15:08:07.402Z</time></trkpt><trkpt lat="44.3279052" lon="8.5049097"><ele>5.5</ele><time>2026-05-03T15:08:08.402Z</time></trkpt><trkpt lat="44.3278644" lon="8.504817"><ele>5.333333333333334</ele><time>2026-05-03T15:08:09.403Z</time></trkpt><trkpt lat="44.3278196" lon="8.504717"><ele>5.166666666666667</ele><time>2026-05-03T15:08:10.402Z</time></trkpt><trkpt lat="44.3277731" lon="8.5046144"><ele>5.0</ele><time>2026-05-03T15:08:11.402Z</time></trkpt><trkpt lat="44.3277309" lon="8.5045133"><ele>5.333333333333334</ele><time>2026-05-03T15:08:12.402Z</time></trkpt><trkpt lat="44.3276879" lon="8.5044106"><ele>5.666666666666667</ele><time>2026-05-03T15:08:13.402Z</time></trkpt><trkpt lat="44.3276437" lon="8.5043064"><ele>6.0</ele><time>2026-05-03T15:08:14.402Z</time></trkpt><trkpt lat="44.3275997" lon="8.5041989"><ele>6.333333333333334</ele><time>2026-05-03T15:08:15.402Z</time></trkpt><trkpt lat="44.3275553" lon="8.5040905"><ele>6.666666666666667</ele><time>2026-05-03T15:08:16.402Z</time></trkpt><trkpt lat="44.3275136" lon="8.5039834"><ele>7.0</ele><time>2026-05-03T15:08:17.402Z</time></trkpt><trkpt lat="44.3274705" lon="8.5038757"><ele>7.0</ele><time>2026-05-03T15:08:18.402Z</time></trkpt><trkpt lat="44.3274258" lon="8.503773"><ele>6.999999999999999</ele><time>2026-05-03T15:08:19.402Z</time></trkpt><trkpt lat="44.3273791" lon="8.5036626"><ele>6.999999999999999</ele><time>2026-05-03T15:08:20.403Z</time></trkpt><trkpt lat="44.3273321" lon="8.5035402"><ele>7.0</ele><time>2026-05-03T15:08:21.403Z</time></trkpt><trkpt lat="44.3272827" lon="8.5034134"><ele>7.0</ele><time>2026-05-03T15:08:22.403Z</time></trkpt><trkpt lat="44.3272329" lon="8.5032874"><ele>6.8</ele><time>2026-05-03T15:08:23.402Z</time></trkpt><trkpt lat="44.3271853" lon="8.5031606"><ele>6.6</ele><time>2026-05-03T15:08:24.403Z</time></trkpt><trkpt lat="44.3271365" lon="8.5030351"><ele>6.3999999999999995</ele><time>2026-05-03T15:08:25.402Z</time></trkpt><trkpt lat="44.3270868" lon="8.5029028"><ele>6.199999999999999</ele><time>2026-05-03T15:08:26.402Z</time></trkpt><trkpt lat="44.3270386" lon="8.5027725"><ele>6.0</ele><time>2026-05-03T15:08:27.403Z</time></trkpt><trkpt lat="44.3269925" lon="8.5026413"><ele>6.0</ele><time>2026-05-03T15:08:28.402Z</time></trkpt><trkpt lat="44.3269506" lon="8.5025072"><ele>6.0</ele><time>2026-05-03T15:08:29.402Z</time></trkpt><trkpt lat="44.3269085" lon="8.5023778"><ele>6.0</ele><time>2026-05-03T15:08:30.403Z</time></trkpt><trkpt lat="44.3268717" lon="8.5022472"><ele>6.0</ele><time>2026-05-03T15:08:31.402Z</time></trkpt><trkpt lat="44.3268336" lon="8.5021182"><ele>6.0</ele><time>2026-05-03T15:08:32.402Z</time></trkpt><trkpt lat="44.326797" lon="8.5019952"><ele>6.6</ele><time>2026-05-03T15:08:33.402Z</time></trkpt><trkpt lat="44.3267591" lon="8.5018782"><ele>7.199999999999999</ele><time>2026-05-03T15:08:34.402Z</time></trkpt><trkpt lat="44.3267254" lon="8.5017865"><ele>7.800000000000001</ele><time>2026-05-03T15:08:35.402Z</time></trkpt><trkpt lat="44.3266816" lon="8.5016657"><ele>8.4</ele><time>2026-05-03T15:08:37.402Z</time></trkpt><trkpt lat="44.3266371" lon="8.5015547"><ele>9.0</ele><time>2026-05-03T15:08:39.402Z</time></trkpt><trkpt lat="44.3265743" lon="8.5014224"><ele>9.0</ele><time>2026-05-03T15:08:41.402Z</time></trkpt><trkpt lat="44.3265336" lon="8.5013437"><ele>9.0</ele><time>2026-05-03T15:08:42.403Z</time></trkpt><trkpt lat="44.3264911" lon="8.5012621"><ele>9.0</ele><time>2026-05-03T15:08:43.402Z</time></trkpt><trkpt lat="44.326437" lon="8.501176"><ele>9.0</ele><time>2026-05-03T15:08:44.402Z</time></trkpt><trkpt lat="44.3263838" lon="8.5010884"><ele>9.0</ele><time>2026-05-03T15:08:45.402Z</time></trkpt><trkpt lat="44.3263309" lon="8.5010078"><ele>9.0</ele><time>2026-05-03T15:08:46.402Z</time></trkpt><trkpt lat="44.3262802" lon="8.5009313"><ele>8.666666666666666</ele><time>2026-05-03T15:08:47.403Z</time></trkpt><trkpt lat="44.3262289" lon="8.5008584"><ele>8.333333333333334</ele><time>2026-05-03T15:08:48.402Z</time></trkpt><trkpt lat="44.3261747" lon="8.5007831"><ele>8.0</ele><time>2026-05-03T15:08:49.402Z</time></trkpt><trkpt lat="44.3261235" lon="8.5007143"><ele>7.666666666666667</ele><time>2026-05-03T15:08:50.402Z</time></trkpt><trkpt lat="44.3260702" lon="8.5006451"><ele>7.333333333333334</ele><time>2026-05-03T15:08:51.402Z</time></trkpt><trkpt lat="44.3260048" lon="8.5005658"><ele>7.0</ele><time>2026-05-03T15:08:52.402Z</time></trkpt><trkpt lat="44.325934" lon="8.5004813"><ele>7.199999999999999</ele><time>2026-05-03T15:08:53.403Z</time></trkpt><trkpt lat="44.3258725" lon="8.5004052"><ele>7.3999999999999995</ele><time>2026-05-03T15:08:54.402Z</time></trkpt><trkpt lat="44.3258113" lon="8.5003377"><ele>7.6000000000000005</ele><time>2026-05-03T15:08:55.403Z</time></trkpt><trkpt lat="44.3257394" lon="8.5002607"><ele>7.800000000000001</ele><time>2026-05-03T15:08:56.402Z</time></trkpt><trkpt lat="44.3256619" lon="8.5001739"><ele>8.0</ele><time>2026-05-03T15:08:57.402Z</time></trkpt><trkpt lat="44.3255718" lon="8.5000863"><ele>7.25</ele><time>2026-05-03T15:08:58.403Z</time></trkpt><trkpt lat="44.3254654" lon="8.4999899"><ele>6.5</ele><time>2026-05-03T15:08:59.402Z</time></trkpt><trkpt lat="44.3253487" lon="8.4998971"><ele>5.75</ele><time>2026-05-03T15:09:00.403Z</time></trkpt><trkpt lat="44.3252239" lon="8.4998065"><ele>5.0</ele><time>2026-05-03T15:09:01.402Z</time></trkpt><trkpt lat="44.3250957" lon="8.4997171"><ele>5.0</ele><time>2026-05-03T15:09:02.402Z</time></trkpt><trkpt lat="44.3249629" lon="8.4996293"><ele>5.0</ele><time>2026-05-03T15:09:03.402Z</time></trkpt><trkpt lat="44.3248307" lon="8.4995458"><ele>5.0</ele><time>2026-05-03T15:09:04.402Z</time></trkpt><trkpt lat="44.3247001" lon="8.499469"><ele>5.0</ele><time>2026-05-03T15:09:05.402Z</time></trkpt><trkpt lat="44.3245743" lon="8.4993888"><ele>8.75</ele><time>2026-05-03T15:09:06.403Z</time></trkpt><trkpt lat="44.3244531" lon="8.4993082"><ele>12.5</ele><time>2026-05-03T15:09:07.403Z</time></trkpt><trkpt lat="44.3243316" lon="8.4992359"><ele>16.25</ele><time>2026-05-03T15:09:08.403Z</time></trkpt><trkpt lat="44.3242038" lon="8.4991586"><ele>20.0</ele><time>2026-05-03T15:09:09.402Z</time></trkpt><trkpt lat="44.3240723" lon="8.4990785"><ele>20.0</ele><time>2026-05-03T15:09:10.403Z</time></trkpt><trkpt lat="44.3239389" lon="8.4989995"><ele>20.0</ele><time>2026-05-03T15:09:11.402Z</time></trkpt><trkpt lat="44.3238063" lon="8.4989157"><ele>20.0</ele><time>2026-05-03T15:09:12.403Z</time></trkpt><trkpt lat="44.3236778" lon="8.4988308"><ele>20.0</ele><time>2026-05-03T15:09:13.403Z</time></trkpt><trkpt lat="44.3235493" lon="8.498749"><ele>18.0</ele><time>2026-05-03T15:09:14.402Z</time></trkpt><trkpt lat="44.3234219" lon="8.4986729"><ele>16.0</ele><time>2026-05-03T15:09:15.403Z</time></trkpt><trkpt lat="44.3232968" lon="8.4986077"><ele>14.0</ele><time>2026-05-03T15:09:16.402Z</time></trkpt><trkpt lat="44.3231758" lon="8.4985535"><ele>12.0</ele><time>2026-05-03T15:09:17.402Z</time></trkpt><trkpt lat="44.323056" lon="8.4985043"><ele>12.0</ele><time>2026-05-03T15:09:18.403Z</time></trkpt><trkpt lat="44.3229376" lon="8.4984546"><ele>12.0</ele><time>2026-05-03T15:09:19.402Z</time></trkpt><trkpt lat="44.3228157" lon="8.4983947"><ele>12.0</ele><time>2026-05-03T15:09:20.402Z</time></trkpt><trkpt lat="44.3226944" lon="8.4983225"><ele>12.0</ele><time>2026-05-03T15:09:21.402Z</time></trkpt><trkpt lat="44.322578" lon="8.498236"><ele>12.0</ele><time>2026-05-03T15:09:22.402Z</time></trkpt><trkpt lat="44.3224689" lon="8.4981296"><ele>12.0</ele><time>2026-05-03T15:09:23.403Z</time></trkpt><trkpt lat="44.3223694" lon="8.4980122"><ele>12.0</ele><time>2026-05-03T15:09:24.403Z</time></trkpt><trkpt lat="44.3222835" lon="8.4978885"><ele>12.0</ele><time>2026-05-03T15:09:25.402Z</time></trkpt><trkpt lat="44.322206" lon="8.4977633"><ele>11.25</ele><time>2026-05-03T15:09:26.402Z</time></trkpt><trkpt lat="44.3221268" lon="8.4976399"><ele>10.5</ele><time>2026-05-03T15:09:27.402Z</time></trkpt><trkpt lat="44.3220496" lon="8.4975175"><ele>9.75</ele><time>2026-05-03T15:09:28.402Z</time></trkpt><trkpt lat="44.3219723" lon="8.4973925"><ele>9.0</ele><time>2026-05-03T15:09:29.402Z</time></trkpt><trkpt lat="44.3218971" lon="8.4972719"><ele>9.0</ele><time>2026-05-03T15:09:30.402Z</time></trkpt><trkpt lat="44.3218236" lon="8.4971524"><ele>9.0</ele><time>2026-05-03T15:09:31.403Z</time></trkpt><trkpt lat="44.3217534" lon="8.4970314"><ele>9.0</ele><time>2026-05-03T15:09:32.403Z</time></trkpt><trkpt lat="44.3216875" lon="8.4969051"><ele>9.0</ele><time>2026-05-03T15:09:33.402Z</time></trkpt><trkpt lat="44.3216248" lon="8.4967723"><ele>9.0</ele><time>2026-05-03T15:09:34.402Z</time></trkpt><trkpt lat="44.3215671" lon="8.496637"><ele>9.0</ele><time>2026-05-03T15:09:35.402Z</time></trkpt><trkpt lat="44.3215109" lon="8.4965004"><ele>9.0</ele><time>2026-05-03T15:09:36.402Z</time></trkpt><trkpt lat="44.3214542" lon="8.4963689"><ele>9.0</ele><time>2026-05-03T15:09:37.402Z</time></trkpt><trkpt lat="44.3213982" lon="8.4962363"><ele>9.0</ele><time>2026-05-03T15:09:38.402Z</time></trkpt><trkpt lat="44.3213392" lon="8.4961052"><ele>9.0</ele><time>2026-05-03T15:09:39.402Z</time></trkpt><trkpt lat="44.3212759" lon="8.4959755"><ele>9.0</ele><time>2026-05-03T15:09:40.402Z</time></trkpt><trkpt lat="44.3212058" lon="8.495853"><ele>9.0</ele><time>2026-05-03T15:09:41.402Z</time></trkpt><trkpt lat="44.3211359" lon="8.4957339"><ele>9.0</ele><time>2026-05-03T15:09:42.402Z</time></trkpt><trkpt lat="44.3210668" lon="8.4956195"><ele>9.0</ele><time>2026-05-03T15:09:43.402Z</time></trkpt><trkpt lat="44.321001" lon="8.4955053"><ele>10.0</ele><time>2026-05-03T15:09:44.402Z</time></trkpt><trkpt lat="44.320923" lon="8.495415"><ele>11.0</ele><time>2026-05-03T15:09:45.403Z</time></trkpt><trkpt lat="44.3208386" lon="8.4953454"><ele>11.999999999999998</ele><time>2026-05-03T15:09:46.402Z</time></trkpt><trkpt lat="44.3207447" lon="8.4952903"><ele>13.0</ele><time>2026-05-03T15:09:47.403Z</time></trkpt><trkpt lat="44.3206457" lon="8.4952416"><ele>14.0</ele><time>2026-05-03T15:09:48.402Z</time></trkpt><trkpt lat="44.3205466" lon="8.4951933"><ele>14.0</ele><time>2026-05-03T15:09:49.403Z</time></trkpt><trkpt lat="44.3204471" lon="8.4951472"><ele>13.999999999999998</ele><time>2026-05-03T15:09:50.402Z</time></trkpt><trkpt lat="44.3203473" lon="8.4950972"><ele>13.999999999999998</ele><time>2026-05-03T15:09:51.402Z</time></trkpt><trkpt lat="44.3202468" lon="8.4950529"><ele>14.0</ele><time>2026-05-03T15:09:52.402Z</time></trkpt><trkpt lat="44.320147" lon="8.4950065"><ele>14.0</ele><time>2026-05-03T15:09:53.402Z</time></trkpt><trkpt lat="44.320048" lon="8.4949535"><ele>14.0</ele><time>2026-05-03T15:09:54.402Z</time></trkpt><trkpt lat="44.3199512" lon="8.4948845"><ele>13.999999999999998</ele><time>2026-05-03T15:09:55.402Z</time></trkpt><trkpt lat="44.3198553" lon="8.4948014"><ele>13.999999999999998</ele><time>2026-05-03T15:09:56.403Z</time></trkpt><trkpt lat="44.319769" lon="8.4947035"><ele>14.0</ele><time>2026-05-03T15:09:57.402Z</time></trkpt><trkpt lat="44.3196904" lon="8.4945884"><ele>14.0</ele><time>2026-05-03T15:09:58.402Z</time></trkpt><trkpt lat="44.3196146" lon="8.4944679"><ele>14.5</ele><time>2026-05-03T15:09:59.402Z</time></trkpt><trkpt lat="44.3195413" lon="8.4943483"><ele>15.0</ele><time>2026-05-03T15:10:00.402Z</time></trkpt><trkpt lat="44.3194604" lon="8.4942267"><ele>15.5</ele><time>2026-05-03T15:10:01.402Z</time></trkpt><trkpt lat="44.3193815" lon="8.4941152"><ele>16.0</ele><time>2026-05-03T15:10:02.403Z</time></trkpt><trkpt lat="44.3193035" lon="8.4940023"><ele>16.0</ele><time>2026-05-03T15:10:03.403Z</time></trkpt><trkpt lat="44.3192209" lon="8.4938986"><ele>16.0</ele><time>2026-05-03T15:10:04.402Z</time></trkpt><trkpt lat="44.319133" lon="8.4938081"><ele>16.0</ele><time>2026-05-03T15:10:05.403Z</time></trkpt><trkpt lat="44.3190376" lon="8.4937172"><ele>16.0</ele><time>2026-05-03T15:10:06.402Z</time></trkpt><trkpt lat="44.3189402" lon="8.493628"><ele>17.75</ele><time>2026-05-03T15:10:07.402Z</time></trkpt><trkpt lat="44.31884" lon="8.4935405"><ele>19.5</ele><time>2026-05-03T15:10:08.402Z</time></trkpt><trkpt lat="44.3187385" lon="8.4934487"><ele>21.25</ele><time>2026-05-03T15:10:09.402Z</time></trkpt><trkpt lat="44.3186358" lon="8.4933585"><ele>23.0</ele><time>2026-05-03T15:10:10.402Z</time></trkpt><trkpt lat="44.3185417" lon="8.4932576"><ele>23.0</ele><time>2026-05-03T15:10:11.403Z</time></trkpt><trkpt lat="44.318447" lon="8.4931648"><ele>23.0</ele><time>2026-05-03T15:10:12.403Z</time></trkpt><trkpt lat="44.3183546" lon="8.4930703"><ele>23.0</ele><time>2026-05-03T15:10:13.402Z</time></trkpt><trkpt lat="44.3182613" lon="8.4929767"><ele>23.0</ele><time>2026-05-03T15:10:14.402Z</time></trkpt><trkpt lat="44.3181679" lon="8.492883"><ele>21.25</ele><time>2026-05-03T15:10:15.402Z</time></trkpt><trkpt lat="44.3180621" lon="8.4927774"><ele>19.5</ele><time>2026-05-03T15:10:16.402Z</time></trkpt><trkpt lat="44.3179146" lon="8.492707"><ele>17.75</ele><time>2026-05-03T15:10:17.402Z</time></trkpt><trkpt lat="44.3178132" lon="8.4925931"><ele>16.0</ele><time>2026-05-03T15:10:18.403Z</time></trkpt><trkpt lat="44.3176747" lon="8.492489"><ele>16.0</ele><time>2026-05-03T15:10:19.402Z</time></trkpt><trkpt lat="44.3175548" lon="8.4923725"><ele>16.0</ele><time>2026-05-03T15:10:20.402Z</time></trkpt><trkpt lat="44.3174638" lon="8.4922568"><ele>16.0</ele><time>2026-05-03T15:10:21.402Z</time></trkpt><trkpt lat="44.317362" lon="8.4921513"><ele>16.0</ele><time>2026-05-03T15:10:22.402Z</time></trkpt><trkpt lat="44.3172634" lon="8.492043"><ele>14.5</ele><time>2026-05-03T15:10:23.402Z</time></trkpt><trkpt lat="44.3171634" lon="8.4919278"><ele>13.0</ele><time>2026-05-03T15:10:24.403Z</time></trkpt><trkpt lat="44.3170631" lon="8.4918182"><ele>11.5</ele><time>2026-05-03T15:10:25.403Z</time></trkpt><trkpt lat="44.3169629" lon="8.4917026"><ele>10.0</ele><time>2026-05-03T15:10:26.402Z</time></trkpt><trkpt lat="44.3168624" lon="8.4915882"><ele>10.0</ele><time>2026-05-03T15:10:27.402Z</time></trkpt><trkpt lat="44.3167566" lon="8.4914702"><ele>10.0</ele><time>2026-05-03T15:10:28.402Z</time></trkpt><trkpt lat="44.3166501" lon="8.4913597"><ele>10.0</ele><time>2026-05-03T15:10:29.402Z</time></trkpt><trkpt lat="44.3165421" lon="8.4912442"><ele>10.0</ele><time>2026-05-03T15:10:30.402Z</time></trkpt><trkpt lat="44.3164363" lon="8.4911271"><ele>10.5</ele><time>2026-05-03T15:10:31.402Z</time></trkpt><trkpt lat="44.3163298" lon="8.4910104"><ele>11.0</ele><time>2026-05-03T15:10:32.402Z</time></trkpt><trkpt lat="44.3162243" lon="8.4908942"><ele>11.5</ele><time>2026-05-03T15:10:33.402Z</time></trkpt><trkpt lat="44.3161175" lon="8.4907861"><ele>12.0</ele><time>2026-05-03T15:10:34.403Z</time></trkpt><trkpt lat="44.3160039" lon="8.4906809"><ele>12.0</ele><time>2026-05-03T15:10:35.399Z</time></trkpt><trkpt lat="44.315885" lon="8.4905844"><ele>12.0</ele><time>2026-05-03T15:10:36.402Z</time></trkpt><trkpt lat="44.3157636" lon="8.4905022"><ele>12.0</ele><time>2026-05-03T15:10:37.402Z</time></trkpt><trkpt lat="44.3156345" lon="8.4904334"><ele>12.0</ele><time>2026-05-03T15:10:38.402Z</time></trkpt><trkpt lat="44.3155052" lon="8.4903674"><ele>12.75</ele><time>2026-05-03T15:10:39.403Z</time></trkpt><trkpt lat="44.3153782" lon="8.4902999"><ele>13.5</ele><time>2026-05-03T15:10:40.402Z</time></trkpt><trkpt lat="44.3152554" lon="8.4902191"><ele>14.25</ele><time>2026-05-03T15:10:41.402Z</time></trkpt><trkpt lat="44.315143" lon="8.4901176"><ele>15.0</ele><time>2026-05-03T15:10:42.403Z</time></trkpt><trkpt lat="44.3150342" lon="8.4900038"><ele>15.0</ele><time>2026-05-03T15:10:43.398Z</time></trkpt><trkpt lat="44.3149442" lon="8.489871"><ele>15.0</ele><time>2026-05-03T15:10:44.403Z</time></trkpt><trkpt lat="44.314865" lon="8.4897167"><ele>15.0</ele><time>2026-05-03T15:10:45.402Z</time></trkpt><trkpt lat="44.314798" lon="8.4895511"><ele>15.0</ele><time>2026-05-03T15:10:46.402Z</time></trkpt><trkpt lat="44.3147351" lon="8.4893929"><ele>12.0</ele><time>2026-05-03T15:10:47.402Z</time></trkpt><trkpt lat="44.3146741" lon="8.489242"><ele>9.0</ele><time>2026-05-03T15:10:48.403Z</time></trkpt><trkpt lat="44.3146092" lon="8.4891039"><ele>6.0</ele><time>2026-05-03T15:10:49.401Z</time></trkpt><trkpt lat="44.3145397" lon="8.4889806"><ele>3.0</ele><time>2026-05-03T15:10:50.402Z</time></trkpt><trkpt lat="44.3144662" lon="8.4888629"><ele>3.5999999999999996</ele><time>2026-05-03T15:10:51.402Z</time></trkpt><trkpt lat="44.3143937" lon="8.4887492"><ele>4.199999999999999</ele><time>2026-05-03T15:10:52.402Z</time></trkpt><trkpt lat="44.3143189" lon="8.4886416"><ele>4.8</ele><time>2026-05-03T15:10:53.402Z</time></trkpt><trkpt lat="44.3142472" lon="8.4885395"><ele>5.3999999999999995</ele><time>2026-05-03T15:10:54.402Z</time></trkpt><trkpt lat="44.314174" lon="8.4884428"><ele>6.0</ele><time>2026-05-03T15:10:55.403Z</time></trkpt><trkpt lat="44.3141" lon="8.4883401"><ele>6.0</ele><time>2026-05-03T15:10:56.402Z</time></trkpt><trkpt lat="44.314026" lon="8.4882341"><ele>6.0</ele><time>2026-05-03T15:10:57.402Z</time></trkpt><trkpt lat="44.313952" lon="8.4881288"><ele>6.0</ele><time>2026-05-03T15:10:58.402Z</time></trkpt><trkpt lat="44.3138747" lon="8.4880273"><ele>6.0</ele><time>2026-05-03T15:10:59.402Z</time></trkpt><trkpt lat="44.3138008" lon="8.487929"><ele>6.0</ele><time>2026-05-03T15:11:00.403Z</time></trkpt><trkpt lat="44.3137162" lon="8.4878424"><ele>11.2</ele><time>2026-05-03T15:11:01.402Z</time></trkpt><trkpt lat="44.3136205" lon="8.487771"><ele>16.4</ele><time>2026-05-03T15:11:02.403Z</time></trkpt><trkpt lat="44.3135197" lon="8.4877155"><ele>21.6</ele><time>2026-05-03T15:11:03.402Z</time></trkpt><trkpt lat="44.3134136" lon="8.4876786"><ele>26.8</ele><time>2026-05-03T15:11:04.402Z</time></trkpt><trkpt lat="44.3133037" lon="8.4876581"><ele>32.0</ele><time>2026-05-03T15:11:05.402Z</time></trkpt><trkpt lat="44.3131936" lon="8.4876577"><ele>32.0</ele><time>2026-05-03T15:11:06.402Z</time></trkpt><trkpt lat="44.3130872" lon="8.4876635"><ele>32.0</ele><time>2026-05-03T15:11:07.403Z</time></trkpt><trkpt lat="44.312982" lon="8.4876715"><ele>32.0</ele><time>2026-05-03T15:11:08.402Z</time></trkpt><trkpt lat="44.3128786" lon="8.4876732"><ele>32.0</ele><time>2026-05-03T15:11:09.402Z</time></trkpt><trkpt lat="44.3127767" lon="8.4876747"><ele>32.0</ele><time>2026-05-03T15:11:10.402Z</time></trkpt><trkpt lat="44.3126759" lon="8.4876775"><ele>29.6</ele><time>2026-05-03T15:11:11.402Z</time></trkpt><trkpt lat="44.3125696" lon="8.4876692"><ele>27.200000000000003</ele><time>2026-05-03T15:11:12.402Z</time></trkpt><trkpt lat="44.3124669" lon="8.4876355"><ele>24.8</ele><time>2026-05-03T15:11:13.403Z</time></trkpt><trkpt lat="44.312368" lon="8.4875718"><ele>22.4</ele><time>2026-05-03T15:11:14.402Z</time></trkpt><trkpt lat="44.312276" lon="8.487491"><ele>20.0</ele><time>2026-05-03T15:11:15.403Z</time></trkpt><trkpt lat="44.3121969" lon="8.4873998"><ele>17.8</ele><time>2026-05-03T15:11:16.403Z</time></trkpt><trkpt lat="44.3121332" lon="8.4872914"><ele>15.6</ele><time>2026-05-03T15:11:17.402Z</time></trkpt><trkpt lat="44.3120758" lon="8.4871834"><ele>13.4</ele><time>2026-05-03T15:11:18.402Z</time></trkpt><trkpt lat="44.3120164" lon="8.4870763"><ele>11.2</ele><time>2026-05-03T15:11:19.403Z</time></trkpt><trkpt lat="44.3119528" lon="8.4869722"><ele>9.0</ele><time>2026-05-03T15:11:20.402Z</time></trkpt><trkpt lat="44.3118878" lon="8.4868681"><ele>9.0</ele><time>2026-05-03T15:11:21.403Z</time></trkpt><trkpt lat="44.3118241" lon="8.4867625"><ele>9.0</ele><time>2026-05-03T15:11:22.402Z</time></trkpt><trkpt lat="44.3117588" lon="8.4866627"><ele>9.0</ele><time>2026-05-03T15:11:23.403Z</time></trkpt><trkpt lat="44.3116901" lon="8.4865631"><ele>9.0</ele><time>2026-05-03T15:11:24.402Z</time></trkpt><trkpt lat="44.3116189" lon="8.4864681"><ele>9.0</ele><time>2026-05-03T15:11:25.403Z</time></trkpt><trkpt lat="44.3115355" lon="8.4863733"><ele>9.0</ele><time>2026-05-03T15:11:26.403Z</time></trkpt><trkpt lat="44.3114358" lon="8.4862678"><ele>9.0</ele><time>2026-05-03T15:11:27.402Z</time></trkpt><trkpt lat="44.3113255" lon="8.4861464"><ele>9.0</ele><time>2026-05-03T15:11:28.402Z</time></trkpt><trkpt lat="44.3112129" lon="8.4860283"><ele>9.0</ele><time>2026-05-03T15:11:29.403Z</time></trkpt><trkpt lat="44.3110964" lon="8.4859197"><ele>9.0</ele><time>2026-05-03T15:11:30.403Z</time></trkpt><trkpt lat="44.3109774" lon="8.4858124"><ele>9.0</ele><time>2026-05-03T15:11:31.403Z</time></trkpt><trkpt lat="44.3108593" lon="8.4857104"><ele>9.0</ele><time>2026-05-03T15:11:32.402Z</time></trkpt><trkpt lat="44.3107491" lon="8.4856175"><ele>9.0</ele><time>2026-05-03T15:11:33.403Z</time></trkpt><trkpt lat="44.3106475" lon="8.4855309"><ele>8.6</ele><time>2026-05-03T15:11:34.403Z</time></trkpt><trkpt lat="44.3105513" lon="8.485443"><ele>8.2</ele><time>2026-05-03T15:11:35.402Z</time></trkpt><trkpt lat="44.3104578" lon="8.4853695"><ele>7.799999999999999</ele><time>2026-05-03T15:11:36.402Z</time></trkpt><trkpt lat="44.3103737" lon="8.4852984"><ele>7.3999999999999995</ele><time>2026-05-03T15:11:37.403Z</time></trkpt><trkpt lat="44.310302" lon="8.4852311"><ele>7.0</ele><time>2026-05-03T15:11:38.402Z</time></trkpt><trkpt lat="44.310242" lon="8.485166"><ele>7.000000000000001</ele><time>2026-05-03T15:11:39.402Z</time></trkpt><trkpt lat="44.3101897" lon="8.4851096"><ele>7.0</ele><time>2026-05-03T15:11:40.402Z</time></trkpt><trkpt lat="44.310139" lon="8.4850367"><ele>7.0</ele><time>2026-05-03T15:11:41.402Z</time></trkpt><trkpt lat="44.3100906" lon="8.4849711"><ele>7.0</ele><time>2026-05-03T15:11:42.402Z</time></trkpt><trkpt lat="44.3100001" lon="8.484866"><ele>7.000000000000001</ele><time>2026-05-03T15:11:44.402Z</time></trkpt><trkpt lat="44.3099449" lon="8.4848089"><ele>7.0</ele><time>2026-05-03T15:11:46.402Z</time></trkpt><trkpt lat="44.3098668" lon="8.4847523"><ele>7.000000000000001</ele><time>2026-05-03T15:11:48.401Z</time></trkpt><trkpt lat="44.309795" lon="8.4847259"><ele>7.0</ele><time>2026-05-03T15:11:50.402Z</time></trkpt><trkpt lat="44.3097292" lon="8.4847326"><ele>7.0</ele><time>2026-05-03T15:11:52.402Z</time></trkpt><trkpt lat="44.3096378" lon="8.4847726"><ele>7.0</ele><time>2026-05-03T15:11:55.402Z</time></trkpt><trkpt lat="44.309545" lon="8.4847847"><ele>7.000000000000001</ele><time>2026-05-03T15:11:57.403Z</time></trkpt><trkpt lat="44.3094499" lon="8.4847738"><ele>7.0</ele><time>2026-05-03T15:11:59.402Z</time></trkpt><trkpt lat="44.3093462" lon="8.4847447"><ele>6.6</ele><time>2026-05-03T15:12:01.402Z</time></trkpt><trkpt lat="44.3092181" lon="8.4847"><ele>6.199999999999999</ele><time>2026-05-03T15:12:03.402Z</time></trkpt><trkpt lat="44.3091552" lon="8.4846638"><ele>5.8</ele><time>2026-05-03T15:12:04.402Z</time></trkpt><trkpt lat="44.3090907" lon="8.484638"><ele>5.4</ele><time>2026-05-03T15:12:05.402Z</time></trkpt><trkpt lat="44.3089727" lon="8.4845965"><ele>5.0</ele><time>2026-05-03T15:12:07.403Z</time></trkpt><trkpt lat="44.3088476" lon="8.4845609"><ele>6.666666666666667</ele><time>2026-05-03T15:12:09.402Z</time></trkpt><trkpt lat="44.3087802" lon="8.4845515"><ele>8.333333333333334</ele><time>2026-05-03T15:12:10.402Z</time></trkpt><trkpt lat="44.3087165" lon="8.4845413"><ele>10.0</ele><time>2026-05-03T15:12:11.402Z</time></trkpt><trkpt lat="44.3086515" lon="8.4845399"><ele>11.666666666666666</ele><time>2026-05-03T15:12:12.402Z</time></trkpt><trkpt lat="44.3085852" lon="8.4845377"><ele>13.333333333333334</ele><time>2026-05-03T15:12:13.402Z</time></trkpt><trkpt lat="44.3084681" lon="8.4845434"><ele>15.0</ele><time>2026-05-03T15:12:15.402Z</time></trkpt><trkpt lat="44.3083553" lon="8.4845621"><ele>15.0</ele><time>2026-05-03T15:12:17.403Z</time></trkpt><trkpt lat="44.3082891" lon="8.4845825"><ele>15.0</ele><time>2026-05-03T15:12:18.402Z</time></trkpt><trkpt lat="44.308218" lon="8.4846075"><ele>15.0</ele><time>2026-05-03T15:12:19.402Z</time></trkpt><trkpt lat="44.3081481" lon="8.4846404"><ele>15.0</ele><time>2026-05-03T15:12:20.403Z</time></trkpt><trkpt lat="44.3080806" lon="8.4846762"><ele>15.0</ele><time>2026-05-03T15:12:21.402Z</time></trkpt><trkpt lat="44.3080121" lon="8.4847156"><ele>15.0</ele><time>2026-05-03T15:12:22.403Z</time></trkpt><trkpt lat="44.3079452" lon="8.4847568"><ele>15.0</ele><time>2026-05-03T15:12:23.402Z</time></trkpt><trkpt lat="44.3078839" lon="8.4847982"><ele>13.666666666666666</ele><time>2026-05-03T15:12:24.402Z</time></trkpt><trkpt lat="44.3078277" lon="8.4848475"><ele>12.333333333333334</ele><time>2026-05-03T15:12:25.402Z</time></trkpt><trkpt lat="44.3077548" lon="8.4848999"><ele>11.0</ele><time>2026-05-03T15:12:26.402Z</time></trkpt><trkpt lat="44.307676" lon="8.484956"><ele>9.666666666666668</ele><time>2026-05-03T15:12:27.403Z</time></trkpt><trkpt lat="44.3075932" lon="8.4850033"><ele>8.333333333333334</ele><time>2026-05-03T15:12:28.402Z</time></trkpt><trkpt lat="44.3075131" lon="8.4850623"><ele>7.0</ele><time>2026-05-03T15:12:29.402Z</time></trkpt><trkpt lat="44.3074314" lon="8.4851106"><ele>7.000000000000001</ele><time>2026-05-03T15:12:30.402Z</time></trkpt><trkpt lat="44.3073503" lon="8.4851322"><ele>7.0</ele><time>2026-05-03T15:12:31.402Z</time></trkpt><trkpt lat="44.3072687" lon="8.4851345"><ele>7.0</ele><time>2026-05-03T15:12:32.402Z</time></trkpt><trkpt lat="44.3071852" lon="8.4851312"><ele>7.0</ele><time>2026-05-03T15:12:33.403Z</time></trkpt><trkpt lat="44.3071023" lon="8.4850559"><ele>7.000000000000001</ele><time>2026-05-03T15:12:34.402Z</time></trkpt><trkpt lat="44.3070376" lon="8.4849742"><ele>7.0</ele><time>2026-05-03T15:12:35.402Z</time></trkpt><trkpt lat="44.3069904" lon="8.4848628"><ele>7.199999999999999</ele><time>2026-05-03T15:12:36.403Z</time></trkpt><trkpt lat="44.3069496" lon="8.4847459"><ele>7.3999999999999995</ele><time>2026-05-03T15:12:37.402Z</time></trkpt><trkpt lat="44.3069158" lon="8.4846185"><ele>7.6000000000000005</ele><time>2026-05-03T15:12:38.402Z</time></trkpt><trkpt lat="44.306886" lon="8.4844886"><ele>7.800000000000001</ele><time>2026-05-03T15:12:39.403Z</time></trkpt><trkpt lat="44.3068574" lon="8.4843613"><ele>8.0</ele><time>2026-05-03T15:12:40.403Z</time></trkpt><trkpt lat="44.3068316" lon="8.4842264"><ele>8.200000000000001</ele><time>2026-05-03T15:12:41.402Z</time></trkpt><trkpt lat="44.3068046" lon="8.4840926"><ele>8.4</ele><time>2026-05-03T15:12:42.403Z</time></trkpt><trkpt lat="44.3067812" lon="8.4839634"><ele>8.600000000000001</ele><time>2026-05-03T15:12:43.403Z</time></trkpt><trkpt lat="44.3067596" lon="8.483835"><ele>8.8</ele><time>2026-05-03T15:12:44.402Z</time></trkpt><trkpt lat="44.3067401" lon="8.4837069"><ele>9.0</ele><time>2026-05-03T15:12:45.403Z</time></trkpt><trkpt lat="44.3067186" lon="8.4835851"><ele>9.5</ele><time>2026-05-03T15:12:46.402Z</time></trkpt><trkpt lat="44.3066977" lon="8.4834685"><ele>10.0</ele><time>2026-05-03T15:12:47.402Z</time></trkpt><trkpt lat="44.3066804" lon="8.4833592"><ele>10.5</ele><time>2026-05-03T15:12:48.402Z</time></trkpt><trkpt lat="44.3066655" lon="8.4832601"><ele>11.0</ele><time>2026-05-03T15:12:49.402Z</time></trkpt><trkpt lat="44.3066476" lon="8.4831624"><ele>11.5</ele><time>2026-05-03T15:12:50.403Z</time></trkpt><trkpt lat="44.3066288" lon="8.4830607"><ele>12.0</ele><time>2026-05-03T15:12:51.402Z</time></trkpt><trkpt lat="44.3066098" lon="8.4829458"><ele>11.4</ele><time>2026-05-03T15:12:52.403Z</time></trkpt><trkpt lat="44.3065929" lon="8.4828338"><ele>10.799999999999999</ele><time>2026-05-03T15:12:53.402Z</time></trkpt><trkpt lat="44.3065698" lon="8.4827146"><ele>10.2</ele><time>2026-05-03T15:12:54.402Z</time></trkpt><trkpt lat="44.3065466" lon="8.4825872"><ele>9.6</ele><time>2026-05-03T15:12:55.402Z</time></trkpt><trkpt lat="44.3065175" lon="8.482458"><ele>9.0</ele><time>2026-05-03T15:12:56.403Z</time></trkpt><trkpt lat="44.3064931" lon="8.4823325"><ele>9.0</ele><time>2026-05-03T15:12:57.402Z</time></trkpt><trkpt lat="44.3064705" lon="8.4822106"><ele>9.0</ele><time>2026-05-03T15:12:58.402Z</time></trkpt><trkpt lat="44.3064494" lon="8.4820938"><ele>9.0</ele><time>2026-05-03T15:12:59.403Z</time></trkpt><trkpt lat="44.3064311" lon="8.4819819"><ele>9.0</ele><time>2026-05-03T15:13:00.402Z</time></trkpt><trkpt lat="44.3064124" lon="8.4818747"><ele>9.0</ele><time>2026-05-03T15:13:01.402Z</time></trkpt><trkpt lat="44.3063957" lon="8.4817767"><ele>9.0</ele><time>2026-05-03T15:13:02.402Z</time></trkpt><trkpt lat="44.3063822" lon="8.4816898"><ele>9.5</ele><time>2026-05-03T15:13:03.402Z</time></trkpt><trkpt lat="44.3063475" lon="8.4815463"><ele>10.0</ele><time>2026-05-03T15:13:05.402Z</time></trkpt><trkpt lat="44.3063299" lon="8.4814611"><ele>10.5</ele><time>2026-05-03T15:13:09.402Z</time></trkpt><trkpt lat="44.3063078" lon="8.4813505"><ele>11.0</ele><time>2026-05-03T15:13:16.402Z</time></trkpt><trkpt lat="44.3062923" lon="8.4812627"><ele>11.5</ele><time>2026-05-03T15:13:19.402Z</time></trkpt><trkpt lat="44.3062453" lon="8.4811527"><ele>12.0</ele><time>2026-05-03T15:13:22.401Z</time></trkpt><trkpt lat="44.3062099" lon="8.4810512"><ele>12.166666666666666</ele><time>2026-05-03T15:13:24.402Z</time></trkpt><trkpt lat="44.3061904" lon="8.4809511"><ele>12.333333333333332</ele><time>2026-05-03T15:13:26.396Z</time></trkpt><trkpt lat="44.3061758" lon="8.4808269"><ele>12.5</ele><time>2026-05-03T15:13:29.402Z</time></trkpt><trkpt lat="44.3061698" lon="8.4807218"><ele>12.666666666666666</ele><time>2026-05-03T15:13:32.402Z</time></trkpt><trkpt lat="44.3061543" lon="8.4805823"><ele>12.833333333333332</ele><time>2026-05-03T15:13:35.402Z</time></trkpt><trkpt lat="44.3061384" lon="8.4804838"><ele>13.0</ele><time>2026-05-03T15:13:37.402Z</time></trkpt><trkpt lat="44.3061218" lon="8.480346"><ele>13.0</ele><time>2026-05-03T15:13:39.403Z</time></trkpt><trkpt lat="44.3060965" lon="8.4801935"><ele>13.0</ele><time>2026-05-03T15:13:41.403Z</time></trkpt><trkpt lat="44.3060694" lon="8.4800246"><ele>13.0</ele><time>2026-05-03T15:13:43.402Z</time></trkpt><trkpt lat="44.3060586" lon="8.4799307"><ele>13.0</ele><time>2026-05-03T15:13:44.402Z</time></trkpt><trkpt lat="44.3060367" lon="8.4798135"><ele>13.0</ele><time>2026-05-03T15:13:45.402Z</time></trkpt><trkpt lat="44.3060154" lon="8.4796924"><ele>13.0</ele><time>2026-05-03T15:13:46.402Z</time></trkpt><trkpt lat="44.3059968" lon="8.4795695"><ele>13.0</ele><time>2026-05-03T15:13:47.403Z</time></trkpt><trkpt lat="44.3059804" lon="8.4794408"><ele>13.0</ele><time>2026-05-03T15:13:48.402Z</time></trkpt><trkpt lat="44.3059671" lon="8.479304"><ele>13.0</ele><time>2026-05-03T15:13:49.402Z</time></trkpt><trkpt lat="44.3059491" lon="8.4791672"><ele>13.0</ele><time>2026-05-03T15:13:50.402Z</time></trkpt><trkpt lat="44.3059257" lon="8.4790367"><ele>13.0</ele><time>2026-05-03T15:13:51.402Z</time></trkpt><trkpt lat="44.3059069" lon="8.478906"><ele>13.0</ele><time>2026-05-03T15:13:52.402Z</time></trkpt><trkpt lat="44.305877" lon="8.4787833"><ele>13.0</ele><time>2026-05-03T15:13:53.402Z</time></trkpt><trkpt lat="44.3058429" lon="8.4786591"><ele>13.0</ele><time>2026-05-03T15:13:54.402Z</time></trkpt><trkpt lat="44.3058092" lon="8.4785326"><ele>13.0</ele><time>2026-05-03T15:13:55.402Z</time></trkpt><trkpt lat="44.3058008" lon="8.4783977"><ele>13.25</ele><time>2026-05-03T15:13:56.402Z</time></trkpt><trkpt lat="44.3057617" lon="8.4782731"><ele>13.5</ele><time>2026-05-03T15:13:57.402Z</time></trkpt><trkpt lat="44.3056265" lon="8.4781724"><ele>13.75</ele><time>2026-05-03T15:13:58.402Z</time></trkpt><trkpt lat="44.3055537" lon="8.4780618"><ele>14.0</ele><time>2026-05-03T15:13:59.402Z</time></trkpt><trkpt lat="44.3054681" lon="8.4779523"><ele>13.0</ele><time>2026-05-03T15:14:00.402Z</time></trkpt><trkpt lat="44.3053895" lon="8.4778364"><ele>12.0</ele><time>2026-05-03T15:14:01.402Z</time></trkpt><trkpt lat="44.3053074" lon="8.4777153"><ele>11.0</ele><time>2026-05-03T15:14:02.402Z</time></trkpt><trkpt lat="44.3052263" lon="8.4775923"><ele>10.0</ele><time>2026-05-03T15:14:03.402Z</time></trkpt><trkpt lat="44.3051513" lon="8.4774599"><ele>10.0</ele><time>2026-05-03T15:14:04.403Z</time></trkpt><trkpt lat="44.3050905" lon="8.4773158"><ele>10.0</ele><time>2026-05-03T15:14:05.403Z</time></trkpt><trkpt lat="44.305043" lon="8.4771674"><ele>10.0</ele><time>2026-05-03T15:14:06.402Z</time></trkpt><trkpt lat="44.3049928" lon="8.477024"><ele>10.0</ele><time>2026-05-03T15:14:07.402Z</time></trkpt><trkpt lat="44.3049633" lon="8.4768992"><ele>10.0</ele><time>2026-05-03T15:14:08.403Z</time></trkpt><trkpt lat="44.3049315" lon="8.476783"><ele>10.0</ele><time>2026-05-03T15:14:09.402Z</time></trkpt><trkpt lat="44.3048991" lon="8.476674"><ele>10.0</ele><time>2026-05-03T15:14:10.402Z</time></trkpt><trkpt lat="44.3048693" lon="8.4765734"><ele>10.0</ele><time>2026-05-03T15:14:11.403Z</time></trkpt><trkpt lat="44.304843" lon="8.4764717"><ele>10.0</ele><time>2026-05-03T15:14:12.403Z</time></trkpt><trkpt lat="44.304826" lon="8.4763652"><ele>10.0</ele><time>2026-05-03T15:14:13.403Z</time></trkpt><trkpt lat="44.3048076" lon="8.4762607"><ele>10.0</ele><time>2026-05-03T15:14:14.402Z</time></trkpt><trkpt lat="44.304796" lon="8.4761664"><ele>10.8</ele><time>2026-05-03T15:14:15.402Z</time></trkpt><trkpt lat="44.3047685" lon="8.4760008"><ele>11.6</ele><time>2026-05-03T15:14:17.402Z</time></trkpt><trkpt lat="44.3047951" lon="8.4758472"><ele>12.399999999999999</ele><time>2026-05-03T15:14:19.402Z</time></trkpt><trkpt lat="44.3048515" lon="8.4757958"><ele>13.2</ele><time>2026-05-03T15:14:20.402Z</time></trkpt><trkpt lat="44.3049095" lon="8.4757447"><ele>14.0</ele><time>2026-05-03T15:14:21.402Z</time></trkpt><trkpt lat="44.3049906" lon="8.4757001"><ele>14.0</ele><time>2026-05-03T15:14:22.402Z</time></trkpt><trkpt lat="44.3051051" lon="8.4756746"><ele>13.999999999999998</ele><time>2026-05-03T15:14:23.403Z</time></trkpt><trkpt lat="44.305202" lon="8.4756282"><ele>13.999999999999998</ele><time>2026-05-03T15:14:24.402Z</time></trkpt><trkpt lat="44.3053098" lon="8.4755941"><ele>14.0</ele><time>2026-05-03T15:14:25.397Z</time></trkpt><trkpt lat="44.3054153" lon="8.475572"><ele>14.0</ele><time>2026-05-03T15:14:26.402Z</time></trkpt><trkpt lat="44.3055141" lon="8.4755279"><ele>14.2</ele><time>2026-05-03T15:14:27.402Z</time></trkpt><trkpt lat="44.3056207" lon="8.4754898"><ele>14.399999999999999</ele><time>2026-05-03T15:14:28.402Z</time></trkpt><trkpt lat="44.3057317" lon="8.4754518"><ele>14.6</ele><time>2026-05-03T15:14:29.402Z</time></trkpt><trkpt lat="44.3058377" lon="8.4754224"><ele>14.8</ele><time>2026-05-03T15:14:30.402Z</time></trkpt><trkpt lat="44.3059498" lon="8.4753945"><ele>15.0</ele><time>2026-05-03T15:14:31.403Z</time></trkpt><trkpt lat="44.3060565" lon="8.4753643"><ele>15.0</ele><time>2026-05-03T15:14:32.403Z</time></trkpt><trkpt lat="44.3061673" lon="8.4753268"><ele>15.0</ele><time>2026-05-03T15:14:33.402Z</time></trkpt><trkpt lat="44.3062826" lon="8.4752942"><ele>15.0</ele><time>2026-05-03T15:14:34.403Z</time></trkpt><trkpt lat="44.3064011" lon="8.4752541"><ele>15.0</ele><time>2026-05-03T15:14:35.402Z</time></trkpt><trkpt lat="44.3065219" lon="8.4752264"><ele>13.5</ele><time>2026-05-03T15:14:36.402Z</time></trkpt><trkpt lat="44.3066455" lon="8.4751954"><ele>12.0</ele><time>2026-05-03T15:14:37.402Z</time></trkpt><trkpt lat="44.306765" lon="8.4751534"><ele>10.5</ele><time>2026-05-03T15:14:38.402Z</time></trkpt><trkpt lat="44.3068821" lon="8.4751169"><ele>9.0</ele><time>2026-05-03T15:14:39.402Z</time></trkpt><trkpt lat="44.3070059" lon="8.4750881"><ele>9.0</ele><time>2026-05-03T15:14:40.402Z</time></trkpt><trkpt lat="44.3071208" lon="8.4750518"><ele>9.0</ele><time>2026-05-03T15:14:41.403Z</time></trkpt><trkpt lat="44.3072336" lon="8.4750199"><ele>9.0</ele><time>2026-05-03T15:14:42.402Z</time></trkpt><trkpt lat="44.3073476" lon="8.4749842"><ele>9.0</ele><time>2026-05-03T15:14:43.402Z</time></trkpt><trkpt lat="44.307463" lon="8.4749551"><ele>9.5</ele><time>2026-05-03T15:14:44.402Z</time></trkpt><trkpt lat="44.3075794" lon="8.4749217"><ele>10.0</ele><time>2026-05-03T15:14:45.402Z</time></trkpt><trkpt lat="44.3076957" lon="8.4748874"><ele>10.5</ele><time>2026-05-03T15:14:46.402Z</time></trkpt><trkpt lat="44.3078129" lon="8.4748624"><ele>11.0</ele><time>2026-05-03T15:14:47.403Z</time></trkpt><trkpt lat="44.3079219" lon="8.4748236"><ele>11.0</ele><time>2026-05-03T15:14:48.402Z</time></trkpt><trkpt lat="44.3080355" lon="8.4747829"><ele>11.0</ele><time>2026-05-03T15:14:49.402Z</time></trkpt><trkpt lat="44.3081413" lon="8.4747511"><ele>11.0</ele><time>2026-05-03T15:14:50.402Z</time></trkpt><trkpt lat="44.3082451" lon="8.47472"><ele>11.0</ele><time>2026-05-03T15:14:51.403Z</time></trkpt><trkpt lat="44.3083441" lon="8.4746883"><ele>11.0</ele><time>2026-05-03T15:14:52.402Z</time></trkpt><trkpt lat="44.3084483" lon="8.4746518"><ele>10.833333333333332</ele><time>2026-05-03T15:14:53.402Z</time></trkpt><trkpt lat="44.3085473" lon="8.4746145"><ele>10.666666666666666</ele><time>2026-05-03T15:14:54.402Z</time></trkpt><trkpt lat="44.3086385" lon="8.4745831"><ele>10.5</ele><time>2026-05-03T15:14:55.403Z</time></trkpt><trkpt lat="44.3087228" lon="8.4745537"><ele>10.333333333333334</ele><time>2026-05-03T15:14:56.402Z</time></trkpt><trkpt lat="44.3087945" lon="8.4745243"><ele>10.166666666666668</ele><time>2026-05-03T15:14:57.402Z</time></trkpt><trkpt lat="44.3088626" lon="8.4744967"><ele>10.0</ele><time>2026-05-03T15:14:58.403Z</time></trkpt><trkpt lat="44.3089346" lon="8.4744735"><ele>11.333333333333334</ele><time>2026-05-03T15:14:59.402Z</time></trkpt><trkpt lat="44.3089957" lon="8.4744456"><ele>12.666666666666668</ele><time>2026-05-03T15:15:02.402Z</time></trkpt><trkpt lat="44.3090963" lon="8.4743996"><ele>14.0</ele><time>2026-05-03T15:16:14.402Z</time></trkpt><trkpt lat="44.3092033" lon="8.4743677"><ele>15.333333333333334</ele><time>2026-05-03T15:16:16.402Z</time></trkpt><trkpt lat="44.3092865" lon="8.4743573"><ele>16.666666666666668</ele><time>2026-05-03T15:16:17.403Z</time></trkpt><trkpt lat="44.3093571" lon="8.4743438"><ele>18.0</ele><time>2026-05-03T15:16:18.402Z</time></trkpt><trkpt lat="44.3094409" lon="8.4743207"><ele>18.0</ele><time>2026-05-03T15:16:19.403Z</time></trkpt><trkpt lat="44.3095319" lon="8.474295"><ele>18.0</ele><time>2026-05-03T15:16:20.403Z</time></trkpt><trkpt lat="44.3096257" lon="8.4742704"><ele>18.0</ele><time>2026-05-03T15:16:21.402Z</time></trkpt><trkpt lat="44.3097296" lon="8.4742426"><ele>18.0</ele><time>2026-05-03T15:16:22.402Z</time></trkpt><trkpt lat="44.3098266" lon="8.4741999"><ele>18.0</ele><time>2026-05-03T15:16:23.402Z</time></trkpt><trkpt lat="44.3099315" lon="8.4741667"><ele>16.8</ele><time>2026-05-03T15:16:24.402Z</time></trkpt><trkpt lat="44.3100372" lon="8.4741328"><ele>15.600000000000001</ele><time>2026-05-03T15:16:25.402Z</time></trkpt><trkpt lat="44.3101428" lon="8.4741033"><ele>14.399999999999999</ele><time>2026-05-03T15:16:26.402Z</time></trkpt><trkpt lat="44.3102547" lon="8.4740807"><ele>13.2</ele><time>2026-05-03T15:16:27.402Z</time></trkpt><trkpt lat="44.3103623" lon="8.4740533"><ele>12.0</ele><time>2026-05-03T15:16:28.402Z</time></trkpt><trkpt lat="44.3104772" lon="8.4740214"><ele>11.75</ele><time>2026-05-03T15:16:29.403Z</time></trkpt><trkpt lat="44.3105853" lon="8.4739814"><ele>11.5</ele><time>2026-05-03T15:16:30.402Z</time></trkpt><trkpt lat="44.3107017" lon="8.4739491"><ele>11.25</ele><time>2026-05-03T15:16:31.402Z</time></trkpt><trkpt lat="44.3108109" lon="8.4738977"><ele>11.0</ele><time>2026-05-03T15:16:32.402Z</time></trkpt><trkpt lat="44.3109205" lon="8.4738594"><ele>11.0</ele><time>2026-05-03T15:16:33.402Z</time></trkpt><trkpt lat="44.3110344" lon="8.4738151"><ele>11.0</ele><time>2026-05-03T15:16:34.402Z</time></trkpt><trkpt lat="44.3111453" lon="8.473777"><ele>11.0</ele><time>2026-05-03T15:16:35.403Z</time></trkpt><trkpt lat="44.3112546" lon="8.4737406"><ele>11.0</ele><time>2026-05-03T15:16:36.402Z</time></trkpt><trkpt lat="44.3113645" lon="8.473702"><ele>11.0</ele><time>2026-05-03T15:16:37.403Z</time></trkpt><trkpt lat="44.3114747" lon="8.4736664"><ele>11.0</ele><time>2026-05-03T15:16:38.402Z</time></trkpt><trkpt lat="44.3115852" lon="8.4736189"><ele>11.0</ele><time>2026-05-03T15:16:39.402Z</time></trkpt><trkpt lat="44.3117038" lon="8.4735763"><ele>11.0</ele><time>2026-05-03T15:16:40.402Z</time></trkpt><trkpt lat="44.3118213" lon="8.4735304"><ele>11.0</ele><time>2026-05-03T15:16:41.402Z</time></trkpt><trkpt lat="44.311941" lon="8.4734878"><ele>11.0</ele><time>2026-05-03T15:16:42.403Z</time></trkpt><trkpt lat="44.3120655" lon="8.4734507"><ele>11.0</ele><time>2026-05-03T15:16:43.402Z</time></trkpt><trkpt lat="44.3121908" lon="8.4734076"><ele>11.0</ele><time>2026-05-03T15:16:44.402Z</time></trkpt><trkpt lat="44.3123136" lon="8.4733669"><ele>11.25</ele><time>2026-05-03T15:16:45.402Z</time></trkpt><trkpt lat="44.3124429" lon="8.4733212"><ele>11.5</ele><time>2026-05-03T15:16:46.403Z</time></trkpt><trkpt lat="44.3125712" lon="8.4732737"><ele>11.75</ele><time>2026-05-03T15:16:47.402Z</time></trkpt><trkpt lat="44.3126926" lon="8.4732153"><ele>12.0</ele><time>2026-05-03T15:16:48.403Z</time></trkpt><trkpt lat="44.3128089" lon="8.473151"><ele>12.0</ele><time>2026-05-03T15:16:49.403Z</time></trkpt><trkpt lat="44.3129164" lon="8.4730808"><ele>12.0</ele><time>2026-05-03T15:16:50.403Z</time></trkpt><trkpt lat="44.3130267" lon="8.4730112"><ele>12.0</ele><time>2026-05-03T15:16:51.402Z</time></trkpt><trkpt lat="44.3131398" lon="8.472944"><ele>12.0</ele><time>2026-05-03T15:16:52.402Z</time></trkpt><trkpt lat="44.3132487" lon="8.4728764"><ele>13.2</ele><time>2026-05-03T15:16:53.402Z</time></trkpt><trkpt lat="44.3133483" lon="8.4728107"><ele>14.399999999999999</ele><time>2026-05-03T15:16:54.399Z</time></trkpt><trkpt lat="44.3134465" lon="8.4727565"><ele>15.600000000000001</ele><time>2026-05-03T15:16:55.403Z</time></trkpt><trkpt lat="44.313535" lon="8.4727063"><ele>16.8</ele><time>2026-05-03T15:16:56.403Z</time></trkpt><trkpt lat="44.3136179" lon="8.4726547"><ele>18.0</ele><time>2026-05-03T15:16:57.403Z</time></trkpt><trkpt lat="44.3136903" lon="8.4726148"><ele>18.0</ele><time>2026-05-03T15:16:58.402Z</time></trkpt><trkpt lat="44.3137617" lon="8.472577"><ele>18.0</ele><time>2026-05-03T15:16:59.402Z</time></trkpt><trkpt lat="44.3138588" lon="8.4725162"><ele>18.0</ele><time>2026-05-03T15:17:01.403Z</time></trkpt><trkpt lat="44.3139312" lon="8.4724513"><ele>18.0</ele><time>2026-05-03T15:17:04.403Z</time></trkpt><trkpt lat="44.3140242" lon="8.4724111"><ele>18.0</ele><time>2026-05-03T15:17:05.402Z</time></trkpt><trkpt lat="44.3141099" lon="8.4723774"><ele>17.0</ele><time>2026-05-03T15:17:06.403Z</time></trkpt><trkpt lat="44.3142192" lon="8.4723323"><ele>16.0</ele><time>2026-05-03T15:17:07.402Z</time></trkpt><trkpt lat="44.3143249" lon="8.4722813"><ele>15.0</ele><time>2026-05-03T15:17:08.402Z</time></trkpt><trkpt lat="44.3144402" lon="8.4722195"><ele>14.0</ele><time>2026-05-03T15:17:09.403Z</time></trkpt><trkpt lat="44.3145579" lon="8.4721419"><ele>13.75</ele><time>2026-05-03T15:17:10.403Z</time></trkpt><trkpt lat="44.3146871" lon="8.4720659"><ele>13.5</ele><time>2026-05-03T15:17:11.402Z</time></trkpt><trkpt lat="44.3148242" lon="8.4719847"><ele>13.25</ele><time>2026-05-03T15:17:12.402Z</time></trkpt><trkpt lat="44.3149607" lon="8.4718969"><ele>13.0</ele><time>2026-05-03T15:17:13.402Z</time></trkpt><trkpt lat="44.3151011" lon="8.4718094"><ele>14.333333333333332</ele><time>2026-05-03T15:17:14.402Z</time></trkpt><trkpt lat="44.3152456" lon="8.4717205"><ele>15.666666666666668</ele><time>2026-05-03T15:17:15.402Z</time></trkpt><trkpt lat="44.3153884" lon="8.4716314"><ele>17.0</ele><time>2026-05-03T15:17:16.402Z</time></trkpt><trkpt lat="44.3155314" lon="8.4715388"><ele>17.0</ele><time>2026-05-03T15:17:17.398Z</time></trkpt><trkpt lat="44.315671" lon="8.4714404"><ele>17.0</ele><time>2026-05-03T15:17:18.403Z</time></trkpt><trkpt lat="44.3158025" lon="8.4713392"><ele>17.0</ele><time>2026-05-03T15:17:19.402Z</time></trkpt><trkpt lat="44.315937" lon="8.4712348"><ele>19.666666666666668</ele><time>2026-05-03T15:17:20.402Z</time></trkpt><trkpt lat="44.3160692" lon="8.47113"><ele>22.333333333333336</ele><time>2026-05-03T15:17:21.402Z</time></trkpt><trkpt lat="44.3162036" lon="8.4710242"><ele>25.0</ele><time>2026-05-03T15:17:22.402Z</time></trkpt><trkpt lat="44.3163308" lon="8.4709118"><ele>23.333333333333336</ele><time>2026-05-03T15:17:23.403Z</time></trkpt><trkpt lat="44.3164684" lon="8.470798"><ele>21.666666666666668</ele><time>2026-05-03T15:17:24.402Z</time></trkpt><trkpt lat="44.3165999" lon="8.4706937"><ele>20.0</ele><time>2026-05-03T15:17:25.402Z</time></trkpt><trkpt lat="44.3167341" lon="8.4705795"><ele>20.0</ele><time>2026-05-03T15:17:26.402Z</time></trkpt><trkpt lat="44.3168655" lon="8.4704715"><ele>20.0</ele><time>2026-05-03T15:17:27.402Z</time></trkpt><trkpt lat="44.3169986" lon="8.4703676"><ele>20.0</ele><time>2026-05-03T15:17:28.402Z</time></trkpt><trkpt lat="44.3171286" lon="8.4702575"><ele>19.333333333333336</ele><time>2026-05-03T15:17:29.403Z</time></trkpt><trkpt lat="44.3172624" lon="8.4701461"><ele>18.666666666666668</ele><time>2026-05-03T15:17:30.403Z</time></trkpt><trkpt lat="44.3173918" lon="8.4700376"><ele>18.0</ele><time>2026-05-03T15:17:31.403Z</time></trkpt><trkpt lat="44.3175312" lon="8.4699192"><ele>18.0</ele><time>2026-05-03T15:17:32.403Z</time></trkpt><trkpt lat="44.3176662" lon="8.4698096"><ele>18.0</ele><time>2026-05-03T15:17:33.403Z</time></trkpt><trkpt lat="44.3177841" lon="8.4697083"><ele>18.0</ele><time>2026-05-03T15:17:34.403Z</time></trkpt><trkpt lat="44.3179124" lon="8.4696066"><ele>18.0</ele><time>2026-05-03T15:17:35.403Z</time></trkpt><trkpt lat="44.3180375" lon="8.4695024"><ele>17.75</ele><time>2026-05-03T15:17:36.403Z</time></trkpt><trkpt lat="44.3181658" lon="8.469395"><ele>17.5</ele><time>2026-05-03T15:17:37.402Z</time></trkpt><trkpt lat="44.3182951" lon="8.4692932"><ele>17.25</ele><time>2026-05-03T15:17:38.402Z</time></trkpt><trkpt lat="44.3184236" lon="8.4691891"><ele>17.0</ele><time>2026-05-03T15:17:39.402Z</time></trkpt><trkpt lat="44.3185519" lon="8.4690876"><ele>17.0</ele><time>2026-05-03T15:17:40.403Z</time></trkpt><trkpt lat="44.3186791" lon="8.4689878"><ele>17.0</ele><time>2026-05-03T15:17:41.402Z</time></trkpt><trkpt lat="44.3188004" lon="8.4688807"><ele>17.0</ele><time>2026-05-03T15:17:42.402Z</time></trkpt><trkpt lat="44.3189227" lon="8.4687788"><ele>17.0</ele><time>2026-05-03T15:17:43.402Z</time></trkpt><trkpt lat="44.3190457" lon="8.4686742"><ele>17.25</ele><time>2026-05-03T15:17:44.402Z</time></trkpt><trkpt lat="44.3191668" lon="8.4685686"><ele>17.5</ele><time>2026-05-03T15:17:45.403Z</time></trkpt><trkpt lat="44.3192934" lon="8.4684656"><ele>17.75</ele><time>2026-05-03T15:17:46.403Z</time></trkpt><trkpt lat="44.3194144" lon="8.4683636"><ele>18.0</ele><time>2026-05-03T15:17:47.402Z</time></trkpt><trkpt lat="44.3195349" lon="8.4682577"><ele>18.0</ele><time>2026-05-03T15:17:48.402Z</time></trkpt><trkpt lat="44.3196586" lon="8.4681532"><ele>18.0</ele><time>2026-05-03T15:17:49.402Z</time></trkpt><trkpt lat="44.3197802" lon="8.4680485"><ele>18.0</ele><time>2026-05-03T15:17:50.402Z</time></trkpt><trkpt lat="44.3199019" lon="8.4679442"><ele>18.0</ele><time>2026-05-03T15:17:51.402Z</time></trkpt><trkpt lat="44.3200192" lon="8.467845"><ele>18.75</ele><time>2026-05-03T15:17:52.402Z</time></trkpt><trkpt lat="44.3201297" lon="8.4677522"><ele>19.5</ele><time>2026-05-03T15:17:53.403Z</time></trkpt><trkpt lat="44.3202306" lon="8.4676657"><ele>20.25</ele><time>2026-05-03T15:17:54.402Z</time></trkpt><trkpt lat="44.3203187" lon="8.4675803"><ele>21.0</ele><time>2026-05-03T15:17:55.402Z</time></trkpt><trkpt lat="44.3204014" lon="8.4674979"><ele>21.0</ele><time>2026-05-03T15:17:56.403Z</time></trkpt><trkpt lat="44.3204688" lon="8.4674231"><ele>21.0</ele><time>2026-05-03T15:17:57.403Z</time></trkpt><trkpt lat="44.3205264" lon="8.467364"><ele>21.0</ele><time>2026-05-03T15:17:58.402Z</time></trkpt><trkpt lat="44.3205785" lon="8.4673067"><ele>21.0</ele><time>2026-05-03T15:17:59.402Z</time></trkpt><trkpt lat="44.3206418" lon="8.4672407"><ele>21.0</ele><time>2026-05-03T15:18:12.402Z</time></trkpt><trkpt lat="44.3206972" lon="8.4671774"><ele>21.0</ele><time>2026-05-03T15:18:13.403Z</time></trkpt><trkpt lat="44.3207341" lon="8.4671054"><ele>21.0</ele><time>2026-05-03T15:18:14.402Z</time></trkpt><trkpt lat="44.3207205" lon="8.4669892"><ele>21.8</ele><time>2026-05-03T15:18:15.402Z</time></trkpt><trkpt lat="44.320691" lon="8.4668631"><ele>22.6</ele><time>2026-05-03T15:18:16.403Z</time></trkpt><trkpt lat="44.3206768" lon="8.4667287"><ele>23.4</ele><time>2026-05-03T15:18:17.402Z</time></trkpt><trkpt lat="44.3206836" lon="8.4665898"><ele>24.2</ele><time>2026-05-03T15:18:18.403Z</time></trkpt><trkpt lat="44.3207029" lon="8.4664361"><ele>25.0</ele><time>2026-05-03T15:18:19.402Z</time></trkpt><trkpt lat="44.3207245" lon="8.4662644"><ele>25.0</ele><time>2026-05-03T15:18:20.403Z</time></trkpt><trkpt lat="44.3207459" lon="8.4660833"><ele>25.0</ele><time>2026-05-03T15:18:21.403Z</time></trkpt><trkpt lat="44.3207695" lon="8.4659069"><ele>25.0</ele><time>2026-05-03T15:18:22.402Z</time></trkpt><trkpt lat="44.3207902" lon="8.4657411"><ele>25.0</ele><time>2026-05-03T15:18:23.402Z</time></trkpt><trkpt lat="44.3208095" lon="8.465595"><ele>25.000000000000004</ele><time>2026-05-03T15:18:24.402Z</time></trkpt><trkpt lat="44.3208348" lon="8.4654736"><ele>25.0</ele><time>2026-05-03T15:18:25.402Z</time></trkpt><trkpt lat="44.3208788" lon="8.4653737"><ele>25.0</ele><time>2026-05-03T15:18:26.402Z</time></trkpt><trkpt lat="44.3209313" lon="8.4652893"><ele>25.0</ele><time>2026-05-03T15:18:27.402Z</time></trkpt><trkpt lat="44.320971" lon="8.4652155"><ele>25.000000000000004</ele><time>2026-05-03T15:18:28.403Z</time></trkpt><trkpt lat="44.3209942" lon="8.4650775"><ele>25.0</ele><time>2026-05-03T15:18:30.402Z</time></trkpt><trkpt lat="44.3209972" lon="8.4649675"><ele>24.833333333333336</ele><time>2026-05-03T15:18:32.402Z</time></trkpt><trkpt lat="44.3210036" lon="8.4648663"><ele>24.666666666666668</ele><time>2026-05-03T15:20:44.403Z</time></trkpt><trkpt lat="44.3210544" lon="8.4647839"><ele>24.5</ele><time>2026-05-03T15:20:46.402Z</time></trkpt><trkpt lat="44.3210584" lon="8.4646823"><ele>24.333333333333336</ele><time>2026-05-03T15:26:39.402Z</time></trkpt><trkpt lat="44.3210172" lon="8.4645719"><ele>24.166666666666668</ele><time>2026-05-03T15:27:24.393Z</time></trkpt><trkpt lat="44.321007" lon="8.4644458"><ele>24.0</ele><time>2026-05-03T15:27:26.403Z</time></trkpt><trkpt lat="44.320998" lon="8.4643498"><ele>24.6</ele><time>2026-05-03T15:27:28.399Z</time></trkpt><trkpt lat="44.3209872" lon="8.4642251"><ele>25.2</ele><time>2026-05-03T15:27:34.402Z</time></trkpt><trkpt lat="44.3210061" lon="8.4640459"><ele>25.800000000000004</ele><time>2026-05-03T15:27:36.402Z</time></trkpt><trkpt lat="44.3210169" lon="8.4639322"><ele>26.400000000000002</ele><time>2026-05-03T15:27:37.403Z</time></trkpt><trkpt lat="44.3210304" lon="8.4638124"><ele>27.0</ele><time>2026-05-03T15:27:38.403Z</time></trkpt><trkpt lat="44.3210454" lon="8.4636922"><ele>28.6</ele><time>2026-05-03T15:27:39.403Z</time></trkpt><trkpt lat="44.3210609" lon="8.4635678"><ele>30.200000000000003</ele><time>2026-05-03T15:27:40.403Z</time></trkpt><trkpt lat="44.321077" lon="8.4634336"><ele>31.8</ele><time>2026-05-03T15:27:41.403Z</time></trkpt><trkpt lat="44.3210895" lon="8.463294"><ele>33.4</ele><time>2026-05-03T15:27:42.397Z</time></trkpt><trkpt lat="44.3211057" lon="8.4631553"><ele>35.0</ele><time>2026-05-03T15:27:43.402Z</time></trkpt><trkpt lat="44.3211241" lon="8.4630144"><ele>35.4</ele><time>2026-05-03T15:27:44.402Z</time></trkpt><trkpt lat="44.3211421" lon="8.4628643"><ele>35.8</ele><time>2026-05-03T15:27:45.402Z</time></trkpt><trkpt lat="44.3211589" lon="8.4627166"><ele>36.2</ele><time>2026-05-03T15:27:46.402Z</time></trkpt><trkpt lat="44.3211775" lon="8.4625694"><ele>36.6</ele><time>2026-05-03T15:27:47.402Z</time></trkpt><trkpt lat="44.3211946" lon="8.4624226"><ele>37.0</ele><time>2026-05-03T15:27:48.402Z</time></trkpt><trkpt lat="44.3212144" lon="8.4622748"><ele>37.0</ele><time>2026-05-03T15:27:49.402Z</time></trkpt><trkpt lat="44.3212625" lon="8.462134"><ele>37.0</ele><time>2026-05-03T15:27:50.402Z</time></trkpt><trkpt lat="44.3213391" lon="8.4620126"><ele>37.0</ele><time>2026-05-03T15:27:51.402Z</time></trkpt><trkpt lat="44.3214269" lon="8.4619075"><ele>37.0</ele><time>2026-05-03T15:27:52.402Z</time></trkpt><trkpt lat="44.3215316" lon="8.4618163"><ele>38.5</ele><time>2026-05-03T15:27:53.402Z</time></trkpt><trkpt lat="44.3216381" lon="8.4617323"><ele>40.0</ele><time>2026-05-03T15:27:54.403Z</time></trkpt><trkpt lat="44.3217429" lon="8.4616461"><ele>41.5</ele><time>2026-05-03T15:27:55.402Z</time></trkpt><trkpt lat="44.3218481" lon="8.4615655"><ele>43.0</ele><time>2026-05-03T15:27:56.403Z</time></trkpt><trkpt lat="44.3219536" lon="8.4614842"><ele>43.0</ele><time>2026-05-03T15:27:57.402Z</time></trkpt><trkpt lat="44.3220544" lon="8.4614041"><ele>43.0</ele><time>2026-05-03T15:27:58.402Z</time></trkpt><trkpt lat="44.3221504" lon="8.4613227"><ele>43.0</ele><time>2026-05-03T15:27:59.401Z</time></trkpt><trkpt lat="44.3222418" lon="8.4612568"><ele>43.0</ele><time>2026-05-03T15:28:00.403Z</time></trkpt><trkpt lat="44.3223261" lon="8.4611917"><ele>43.0</ele><time>2026-05-03T15:28:01.402Z</time></trkpt><trkpt lat="44.3224064" lon="8.4611296"><ele>42.199999999999996</ele><time>2026-05-03T15:28:02.402Z</time></trkpt><trkpt lat="44.3224886" lon="8.461063"><ele>41.4</ele><time>2026-05-03T15:28:03.402Z</time></trkpt><trkpt lat="44.3225714" lon="8.4609882"><ele>40.599999999999994</ele><time>2026-05-03T15:28:04.402Z</time></trkpt><trkpt lat="44.3226393" lon="8.4609021"><ele>39.8</ele><time>2026-05-03T15:28:05.403Z</time></trkpt><trkpt lat="44.3226836" lon="8.4607917"><ele>39.0</ele><time>2026-05-03T15:28:06.402Z</time></trkpt><trkpt lat="44.3227038" lon="8.4606625"><ele>39.0</ele><time>2026-05-03T15:28:07.403Z</time></trkpt><trkpt lat="44.3227278" lon="8.4605192"><ele>39.0</ele><time>2026-05-03T15:28:08.403Z</time></trkpt><trkpt lat="44.3226611" lon="8.4603864"><ele>39.0</ele><time>2026-05-03T15:28:09.402Z</time></trkpt><trkpt lat="44.322625" lon="8.4602531"><ele>39.0</ele><time>2026-05-03T15:28:10.402Z</time></trkpt><trkpt lat="44.3225891" lon="8.4601113"><ele>39.0</ele><time>2026-05-03T15:28:11.402Z</time></trkpt><trkpt lat="44.3225595" lon="8.459964"><ele>39.75</ele><time>2026-05-03T15:28:12.402Z</time></trkpt><trkpt lat="44.3226124" lon="8.4598001"><ele>40.5</ele><time>2026-05-03T15:28:13.402Z</time></trkpt><trkpt lat="44.3226542" lon="8.4596592"><ele>41.25</ele><time>2026-05-03T15:28:14.402Z</time></trkpt><trkpt lat="44.322695" lon="8.4595191"><ele>42.0</ele><time>2026-05-03T15:28:15.402Z</time></trkpt><trkpt lat="44.3227502" lon="8.4593936"><ele>44.25</ele><time>2026-05-03T15:28:16.402Z</time></trkpt><trkpt lat="44.3228176" lon="8.4592731"><ele>46.5</ele><time>2026-05-03T15:28:17.403Z</time></trkpt><trkpt lat="44.3229091" lon="8.4591859"><ele>48.75</ele><time>2026-05-03T15:28:18.402Z</time></trkpt><trkpt lat="44.3230198" lon="8.4591235"><ele>51.0</ele><time>2026-05-03T15:28:19.403Z</time></trkpt><trkpt lat="44.3231341" lon="8.4590829"><ele>51.0</ele><time>2026-05-03T15:28:20.402Z</time></trkpt><trkpt lat="44.3232538" lon="8.4590666"><ele>51.0</ele><time>2026-05-03T15:28:21.402Z</time></trkpt><trkpt lat="44.323374" lon="8.4590466"><ele>51.0</ele><time>2026-05-03T15:28:22.402Z</time></trkpt><trkpt lat="44.3234906" lon="8.4590287"><ele>51.0</ele><time>2026-05-03T15:28:23.402Z</time></trkpt><trkpt lat="44.3236047" lon="8.459014"><ele>51.0</ele><time>2026-05-03T15:28:24.402Z</time></trkpt><trkpt lat="44.323714" lon="8.4589985"><ele>51.0</ele><time>2026-05-03T15:28:25.403Z</time></trkpt><trkpt lat="44.3238184" lon="8.4589856"><ele>51.0</ele><time>2026-05-03T15:28:26.402Z</time></trkpt><trkpt lat="44.3239202" lon="8.4589735"><ele>51.0</ele><time>2026-05-03T15:28:27.402Z</time></trkpt><trkpt lat="44.3240236" lon="8.4589614"><ele>51.0</ele><time>2026-05-03T15:28:28.403Z</time></trkpt><trkpt lat="44.3241264" lon="8.4589493"><ele>52.8</ele><time>2026-05-03T15:28:29.403Z</time></trkpt><trkpt lat="44.3242244" lon="8.458938"><ele>54.599999999999994</ele><time>2026-05-03T15:28:30.402Z</time></trkpt><trkpt lat="44.3243196" lon="8.4589247"><ele>56.4</ele><time>2026-05-03T15:28:31.402Z</time></trkpt><trkpt lat="44.3244104" lon="8.4588825"><ele>58.2</ele><time>2026-05-03T15:28:32.402Z</time></trkpt><trkpt lat="44.32449" lon="8.4588049"><ele>60.0</ele><time>2026-05-03T15:28:33.403Z</time></trkpt><trkpt lat="44.3245551" lon="8.4586964"><ele>61.0</ele><time>2026-05-03T15:28:34.403Z</time></trkpt><trkpt lat="44.3246091" lon="8.4585607"><ele>62.0</ele><time>2026-05-03T15:28:35.402Z</time></trkpt><trkpt lat="44.3246577" lon="8.4584052"><ele>63.0</ele><time>2026-05-03T15:28:36.397Z</time></trkpt><trkpt lat="44.3247096" lon="8.4582469"><ele>64.0</ele><time>2026-05-03T15:28:37.402Z</time></trkpt><trkpt lat="44.3247563" lon="8.4580855"><ele>65.75</ele><time>2026-05-03T15:28:38.403Z</time></trkpt><trkpt lat="44.3248084" lon="8.4579251"><ele>67.5</ele><time>2026-05-03T15:28:39.4Z</time></trkpt><trkpt lat="44.3248584" lon="8.4577713"><ele>69.25</ele><time>2026-05-03T15:28:40.4Z</time></trkpt><trkpt lat="44.3249152" lon="8.4576255"><ele>71.0</ele><time>2026-05-03T15:28:41.402Z</time></trkpt><trkpt lat="44.3249845" lon="8.4574912"><ele>71.0</ele><time>2026-05-03T15:28:42.402Z</time></trkpt><trkpt lat="44.325065" lon="8.4573703"><ele>71.0</ele><time>2026-05-03T15:28:43.402Z</time></trkpt><trkpt lat="44.3251398" lon="8.4572452"><ele>71.0</ele><time>2026-05-03T15:28:44.402Z</time></trkpt><trkpt lat="44.3251954" lon="8.4571038"><ele>71.0</ele><time>2026-05-03T15:28:45.403Z</time></trkpt><trkpt lat="44.325238" lon="8.456949"><ele>73.25</ele><time>2026-05-03T15:28:46.402Z</time></trkpt><trkpt lat="44.3252575" lon="8.4567792"><ele>75.5</ele><time>2026-05-03T15:28:47.402Z</time></trkpt><trkpt lat="44.3252807" lon="8.4566153"><ele>77.75</ele><time>2026-05-03T15:28:48.402Z</time></trkpt><trkpt lat="44.3252978" lon="8.4564473"><ele>80.0</ele><time>2026-05-03T15:28:49.403Z</time></trkpt><trkpt lat="44.3253204" lon="8.4562817"><ele>82.75</ele><time>2026-05-03T15:28:50.402Z</time></trkpt><trkpt lat="44.3253499" lon="8.4561168"><ele>85.5</ele><time>2026-05-03T15:28:51.402Z</time></trkpt><trkpt lat="44.325389" lon="8.4559499"><ele>88.25</ele><time>2026-05-03T15:28:52.403Z</time></trkpt><trkpt lat="44.3254464" lon="8.4557756"><ele>91.0</ele><time>2026-05-03T15:28:53.403Z</time></trkpt><trkpt lat="44.3255196" lon="8.4555932"><ele>88.33333333333333</ele><time>2026-05-03T15:28:54.398Z</time></trkpt><trkpt lat="44.3256032" lon="8.4554073"><ele>85.66666666666667</ele><time>2026-05-03T15:28:55.401Z</time></trkpt><trkpt lat="44.325685" lon="8.4552156"><ele>83.0</ele><time>2026-05-03T15:28:56.4Z</time></trkpt><trkpt lat="44.3257676" lon="8.4550319"><ele>83.0</ele><time>2026-05-03T15:28:57.403Z</time></trkpt><trkpt lat="44.3258438" lon="8.4548589"><ele>83.0</ele><time>2026-05-03T15:28:58.403Z</time></trkpt><trkpt lat="44.32592" lon="8.4546933"><ele>83.0</ele><time>2026-05-03T15:28:59.402Z</time></trkpt><trkpt lat="44.3259946" lon="8.4545273"><ele>83.0</ele><time>2026-05-03T15:29:00.402Z</time></trkpt><trkpt lat="44.3260656" lon="8.4543531"><ele>83.75</ele><time>2026-05-03T15:29:01.402Z</time></trkpt><trkpt lat="44.3261252" lon="8.4541692"><ele>84.5</ele><time>2026-05-03T15:29:02.403Z</time></trkpt><trkpt lat="44.3261646" lon="8.4539736"><ele>85.25</ele><time>2026-05-03T15:29:03.402Z</time></trkpt><trkpt lat="44.3262018" lon="8.4537738"><ele>86.0</ele><time>2026-05-03T15:29:04.402Z</time></trkpt><trkpt lat="44.3262318" lon="8.4535736"><ele>89.0</ele><time>2026-05-03T15:29:05.402Z</time></trkpt><trkpt lat="44.326262" lon="8.4533704"><ele>92.0</ele><time>2026-05-03T15:29:06.402Z</time></trkpt><trkpt lat="44.3262924" lon="8.4531643"><ele>95.0</ele><time>2026-05-03T15:29:07.402Z</time></trkpt><trkpt lat="44.3263218" lon="8.4529378"><ele>94.33333333333334</ele><time>2026-05-03T15:29:08.402Z</time></trkpt><trkpt lat="44.3263531" lon="8.4527125"><ele>93.66666666666667</ele><time>2026-05-03T15:29:09.402Z</time></trkpt><trkpt lat="44.326388" lon="8.4524901"><ele>93.0</ele><time>2026-05-03T15:29:10.402Z</time></trkpt><trkpt lat="44.3264178" lon="8.4522676"><ele>92.0</ele><time>2026-05-03T15:29:11.403Z</time></trkpt><trkpt lat="44.3264494" lon="8.4520438"><ele>91.0</ele><time>2026-05-03T15:29:12.403Z</time></trkpt><trkpt lat="44.32648" lon="8.4518297"><ele>90.0</ele><time>2026-05-03T15:29:13.402Z</time></trkpt><trkpt lat="44.3265074" lon="8.4516261"><ele>90.0</ele><time>2026-05-03T15:29:14.402Z</time></trkpt><trkpt lat="44.3265341" lon="8.4514331"><ele>90.0</ele><time>2026-05-03T15:29:15.402Z</time></trkpt><trkpt lat="44.3265595" lon="8.4512507"><ele>90.0</ele><time>2026-05-03T15:29:16.398Z</time></trkpt><trkpt lat="44.3265806" lon="8.4510707"><ele>90.0</ele><time>2026-05-03T15:29:17.403Z</time></trkpt><trkpt lat="44.3265891" lon="8.45089"><ele>90.5</ele><time>2026-05-03T15:29:18.402Z</time></trkpt><trkpt lat="44.3265813" lon="8.4507169"><ele>91.0</ele><time>2026-05-03T15:29:19.402Z</time></trkpt><trkpt lat="44.3265534" lon="8.4505532"><ele>91.5</ele><time>2026-05-03T15:29:20.402Z</time></trkpt><trkpt lat="44.3265124" lon="8.4503985"><ele>92.0</ele><time>2026-05-03T15:29:21.402Z</time></trkpt><trkpt lat="44.3264604" lon="8.4502485"><ele>93.0</ele><time>2026-05-03T15:29:22.402Z</time></trkpt><trkpt lat="44.326412" lon="8.4500894"><ele>94.0</ele><time>2026-05-03T15:29:23.402Z</time></trkpt><trkpt lat="44.3263734" lon="8.4499348"><ele>95.0</ele><time>2026-05-03T15:29:24.402Z</time></trkpt><trkpt lat="44.326362" lon="8.4497676"><ele>96.0</ele><time>2026-05-03T15:29:25.402Z</time></trkpt><trkpt lat="44.3263533" lon="8.4496088"><ele>96.5</ele><time>2026-05-03T15:29:26.402Z</time></trkpt><trkpt lat="44.326433" lon="8.4494365"><ele>97.0</ele><time>2026-05-03T15:29:27.402Z</time></trkpt><trkpt lat="44.3264858" lon="8.4492747"><ele>97.5</ele><time>2026-05-03T15:29:28.403Z</time></trkpt><trkpt lat="44.3265401" lon="8.4491144"><ele>98.0</ele><time>2026-05-03T15:29:29.398Z</time></trkpt><trkpt lat="44.3265952" lon="8.4489524"><ele>98.0</ele><time>2026-05-03T15:29:30.402Z</time></trkpt><trkpt lat="44.3266549" lon="8.4487975"><ele>98.0</ele><time>2026-05-03T15:29:31.402Z</time></trkpt><trkpt lat="44.3267114" lon="8.4486539"><ele>98.0</ele><time>2026-05-03T15:29:32.402Z</time></trkpt><trkpt lat="44.32677" lon="8.4485159"><ele>98.0</ele><time>2026-05-03T15:29:33.403Z</time></trkpt><trkpt lat="44.3268231" lon="8.4483855"><ele>98.0</ele><time>2026-05-03T15:29:34.402Z</time></trkpt><trkpt lat="44.326875" lon="8.4482486"><ele>98.0</ele><time>2026-05-03T15:29:35.402Z</time></trkpt><trkpt lat="44.3269266" lon="8.4481022"><ele>98.0</ele><time>2026-05-03T15:29:36.402Z</time></trkpt><trkpt lat="44.3269716" lon="8.4479492"><ele>98.0</ele><time>2026-05-03T15:29:37.403Z</time></trkpt><trkpt lat="44.3269962" lon="8.4477866"><ele>99.5</ele><time>2026-05-03T15:29:38.402Z</time></trkpt><trkpt lat="44.3270084" lon="8.4476147"><ele>101.0</ele><time>2026-05-03T15:29:39.403Z</time></trkpt><trkpt lat="44.3270057" lon="8.4474494"><ele>102.5</ele><time>2026-05-03T15:29:40.403Z</time></trkpt><trkpt lat="44.3269989" lon="8.4472672"><ele>104.0</ele><time>2026-05-03T15:29:41.402Z</time></trkpt><trkpt lat="44.3269895" lon="8.4470806"><ele>105.5</ele><time>2026-05-03T15:29:42.402Z</time></trkpt><trkpt lat="44.3269856" lon="8.4468907"><ele>107.0</ele><time>2026-05-03T15:29:43.403Z</time></trkpt><trkpt lat="44.3269813" lon="8.4467034"><ele>108.5</ele><time>2026-05-03T15:29:44.403Z</time></trkpt><trkpt lat="44.3269794" lon="8.4465174"><ele>110.0</ele><time>2026-05-03T15:29:45.402Z</time></trkpt><trkpt lat="44.3269938" lon="8.4463338"><ele>112.25</ele><time>2026-05-03T15:29:46.402Z</time></trkpt><trkpt lat="44.3270172" lon="8.4461599"><ele>114.5</ele><time>2026-05-03T15:29:47.402Z</time></trkpt><trkpt lat="44.3270543" lon="8.4459893"><ele>116.75</ele><time>2026-05-03T15:29:48.402Z</time></trkpt><trkpt lat="44.3270995" lon="8.4458241"><ele>119.0</ele><time>2026-05-03T15:29:49.402Z</time></trkpt><trkpt lat="44.3271511" lon="8.4456603"><ele>119.0</ele><time>2026-05-03T15:29:50.402Z</time></trkpt><trkpt lat="44.3271992" lon="8.4455034"><ele>119.0</ele><time>2026-05-03T15:29:51.402Z</time></trkpt><trkpt lat="44.3272459" lon="8.4453436"><ele>119.0</ele><time>2026-05-03T15:29:52.403Z</time></trkpt><trkpt lat="44.3272924" lon="8.4451869"><ele>119.0</ele><time>2026-05-03T15:29:53.402Z</time></trkpt><trkpt lat="44.3273416" lon="8.4450348"><ele>118.6</ele><time>2026-05-03T15:29:54.402Z</time></trkpt><trkpt lat="44.3273811" lon="8.4448883"><ele>118.2</ele><time>2026-05-03T15:29:55.402Z</time></trkpt><trkpt lat="44.3273937" lon="8.444738"><ele>117.79999999999998</ele><time>2026-05-03T15:29:56.402Z</time></trkpt><trkpt lat="44.3273847" lon="8.4445921"><ele>117.39999999999999</ele><time>2026-05-03T15:29:57.402Z</time></trkpt><trkpt lat="44.3273602" lon="8.4444444"><ele>117.0</ele><time>2026-05-03T15:29:58.403Z</time></trkpt><trkpt lat="44.3273292" lon="8.4442977"><ele>117.75</ele><time>2026-05-03T15:29:59.402Z</time></trkpt><trkpt lat="44.3272988" lon="8.444141"><ele>118.5</ele><time>2026-05-03T15:30:00.403Z</time></trkpt><trkpt lat="44.3272685" lon="8.4439808"><ele>119.25</ele><time>2026-05-03T15:30:01.402Z</time></trkpt><trkpt lat="44.3272383" lon="8.4438205"><ele>120.0</ele><time>2026-05-03T15:30:02.402Z</time></trkpt><trkpt lat="44.3272069" lon="8.4436674"><ele>120.0</ele><time>2026-05-03T15:30:03.402Z</time></trkpt><trkpt lat="44.3271561" lon="8.4435272"><ele>120.0</ele><time>2026-05-03T15:30:04.403Z</time></trkpt><trkpt lat="44.3270797" lon="8.4434237"><ele>120.0</ele><time>2026-05-03T15:30:05.402Z</time></trkpt><trkpt lat="44.3269829" lon="8.4433464"><ele>120.0</ele><time>2026-05-03T15:30:06.402Z</time></trkpt><trkpt lat="44.3268786" lon="8.4432815"><ele>120.0</ele><time>2026-05-03T15:30:07.403Z</time></trkpt><trkpt lat="44.3267718" lon="8.4432304"><ele>120.0</ele><time>2026-05-03T15:30:08.403Z</time></trkpt><trkpt lat="44.326668" lon="8.4431523"><ele>120.0</ele><time>2026-05-03T15:30:09.402Z</time></trkpt><trkpt lat="44.326586" lon="8.4430337"><ele>120.0</ele><time>2026-05-03T15:30:10.402Z</time></trkpt><trkpt lat="44.3265397" lon="8.4428895"><ele>120.0</ele><time>2026-05-03T15:30:11.403Z</time></trkpt><trkpt lat="44.3265442" lon="8.4427378"><ele>121.25</ele><time>2026-05-03T15:30:12.4Z</time></trkpt><trkpt lat="44.3265836" lon="8.4425844"><ele>122.5</ele><time>2026-05-03T15:30:13.402Z</time></trkpt><trkpt lat="44.3266304" lon="8.4424265"><ele>123.75</ele><time>2026-05-03T15:30:14.402Z</time></trkpt><trkpt lat="44.3266667" lon="8.4422566"><ele>125.0</ele><time>2026-05-03T15:30:15.402Z</time></trkpt><trkpt lat="44.3266801" lon="8.442081"><ele>125.0</ele><time>2026-05-03T15:30:16.402Z</time></trkpt><trkpt lat="44.3266712" lon="8.4419054"><ele>125.0</ele><time>2026-05-03T15:30:17.402Z</time></trkpt><trkpt lat="44.3266387" lon="8.441731"><ele>125.0</ele><time>2026-05-03T15:30:18.403Z</time></trkpt><trkpt lat="44.3265873" lon="8.4415617"><ele>125.0</ele><time>2026-05-03T15:30:19.403Z</time></trkpt><trkpt lat="44.3265328" lon="8.4413963"><ele>126.0</ele><time>2026-05-03T15:30:20.402Z</time></trkpt><trkpt lat="44.3264768" lon="8.441227"><ele>127.0</ele><time>2026-05-03T15:30:21.402Z</time></trkpt><trkpt lat="44.3264181" lon="8.4410598"><ele>128.0</ele><time>2026-05-03T15:30:22.403Z</time></trkpt><trkpt lat="44.3263595" lon="8.4408886"><ele>129.0</ele><time>2026-05-03T15:30:23.402Z</time></trkpt><trkpt lat="44.3263031" lon="8.4407147"><ele>130.75</ele><time>2026-05-03T15:30:24.402Z</time></trkpt><trkpt lat="44.326246" lon="8.4405406"><ele>132.5</ele><time>2026-05-03T15:30:25.399Z</time></trkpt><trkpt lat="44.3261937" lon="8.4403677"><ele>134.25</ele><time>2026-05-03T15:30:26.402Z</time></trkpt><trkpt lat="44.3261416" lon="8.4401931"><ele>136.0</ele><time>2026-05-03T15:30:27.403Z</time></trkpt><trkpt lat="44.3260955" lon="8.4400183"><ele>136.0</ele><time>2026-05-03T15:30:28.402Z</time></trkpt><trkpt lat="44.3260523" lon="8.4398405"><ele>136.0</ele><time>2026-05-03T15:30:29.396Z</time></trkpt><trkpt lat="44.326012" lon="8.4396584"><ele>136.0</ele><time>2026-05-03T15:30:30.402Z</time></trkpt><trkpt lat="44.3259663" lon="8.4394839"><ele>136.0</ele><time>2026-05-03T15:30:31.403Z</time></trkpt><trkpt lat="44.3259274" lon="8.4393009"><ele>136.5</ele><time>2026-05-03T15:30:32.402Z</time></trkpt><trkpt lat="44.3258903" lon="8.4391306"><ele>137.0</ele><time>2026-05-03T15:30:33.402Z</time></trkpt><trkpt lat="44.3258533" lon="8.4389564"><ele>137.5</ele><time>2026-05-03T15:30:34.402Z</time></trkpt><trkpt lat="44.3258201" lon="8.4387823"><ele>138.0</ele><time>2026-05-03T15:30:35.403Z</time></trkpt><trkpt lat="44.3257851" lon="8.4386227"><ele>138.4</ele><time>2026-05-03T15:30:36.403Z</time></trkpt><trkpt lat="44.3257509" lon="8.4384773"><ele>138.8</ele><time>2026-05-03T15:30:37.402Z</time></trkpt><trkpt lat="44.3257153" lon="8.43834"><ele>139.2</ele><time>2026-05-03T15:30:38.403Z</time></trkpt><trkpt lat="44.325678" lon="8.4381973"><ele>139.6</ele><time>2026-05-03T15:30:39.399Z</time></trkpt><trkpt lat="44.3256438" lon="8.4380454"><ele>140.0</ele><time>2026-05-03T15:30:40.402Z</time></trkpt><trkpt lat="44.3256121" lon="8.4378894"><ele>140.0</ele><time>2026-05-03T15:30:41.402Z</time></trkpt><trkpt lat="44.3255748" lon="8.4377269"><ele>140.0</ele><time>2026-05-03T15:30:42.402Z</time></trkpt><trkpt lat="44.3255383" lon="8.4375584"><ele>140.0</ele><time>2026-05-03T15:30:43.402Z</time></trkpt><trkpt lat="44.3254982" lon="8.4373973"><ele>140.0</ele><time>2026-05-03T15:30:44.403Z</time></trkpt><trkpt lat="44.3254491" lon="8.4372418"><ele>138.5</ele><time>2026-05-03T15:30:45.402Z</time></trkpt><trkpt lat="44.3253748" lon="8.4371056"><ele>137.0</ele><time>2026-05-03T15:30:46.402Z</time></trkpt><trkpt lat="44.3252908" lon="8.4369962"><ele>135.5</ele><time>2026-05-03T15:30:47.403Z</time></trkpt><trkpt lat="44.3252004" lon="8.4369012"><ele>134.0</ele><time>2026-05-03T15:30:48.402Z</time></trkpt><trkpt lat="44.325107" lon="8.4368111"><ele>134.0</ele><time>2026-05-03T15:30:49.403Z</time></trkpt><trkpt lat="44.3250209" lon="8.4367074"><ele>134.0</ele><time>2026-05-03T15:30:50.402Z</time></trkpt><trkpt lat="44.3249645" lon="8.4365727"><ele>134.0</ele><time>2026-05-03T15:30:51.403Z</time></trkpt><trkpt lat="44.3249473" lon="8.4364153"><ele>134.0</ele><time>2026-05-03T15:30:52.397Z</time></trkpt><trkpt lat="44.3249702" lon="8.4362615"><ele>134.0</ele><time>2026-05-03T15:30:53.403Z</time></trkpt><trkpt lat="44.3250206" lon="8.4361095"><ele>134.0</ele><time>2026-05-03T15:30:54.403Z</time></trkpt><trkpt lat="44.3250758" lon="8.4359629"><ele>134.0</ele><time>2026-05-03T15:30:55.402Z</time></trkpt><trkpt lat="44.3251275" lon="8.4358123"><ele>134.0</ele><time>2026-05-03T15:30:56.403Z</time></trkpt><trkpt lat="44.3251779" lon="8.4356585"><ele>134.0</ele><time>2026-05-03T15:30:57.403Z</time></trkpt><trkpt lat="44.3252137" lon="8.4355015"><ele>134.0</ele><time>2026-05-03T15:30:58.402Z</time></trkpt><trkpt lat="44.325233" lon="8.4353305"><ele>134.0</ele><time>2026-05-03T15:30:59.403Z</time></trkpt><trkpt lat="44.3252198" lon="8.435166"><ele>134.0</ele><time>2026-05-03T15:31:00.402Z</time></trkpt><trkpt lat="44.3251811" lon="8.4350142"><ele>135.0</ele><time>2026-05-03T15:31:01.403Z</time></trkpt><trkpt lat="44.3251152" lon="8.4348694"><ele>136.0</ele><time>2026-05-03T15:31:02.403Z</time></trkpt><trkpt lat="44.3250327" lon="8.4347345"><ele>137.0</ele><time>2026-05-03T15:31:03.402Z</time></trkpt><trkpt lat="44.3249487" lon="8.4346021"><ele>138.0</ele><time>2026-05-03T15:31:04.402Z</time></trkpt><trkpt lat="44.3248592" lon="8.434475"><ele>140.25</ele><time>2026-05-03T15:31:05.402Z</time></trkpt><trkpt lat="44.3247715" lon="8.4343496"><ele>142.5</ele><time>2026-05-03T15:31:06.403Z</time></trkpt><trkpt lat="44.3246809" lon="8.4342237"><ele>144.75</ele><time>2026-05-03T15:31:07.403Z</time></trkpt><trkpt lat="44.3245895" lon="8.4341079"><ele>147.0</ele><time>2026-05-03T15:31:08.402Z</time></trkpt><trkpt lat="44.3245093" lon="8.4339851"><ele>147.25</ele><time>2026-05-03T15:31:09.402Z</time></trkpt><trkpt lat="44.3244607" lon="8.4338347"><ele>147.5</ele><time>2026-05-03T15:31:10.402Z</time></trkpt><trkpt lat="44.3244512" lon="8.4336602"><ele>147.75</ele><time>2026-05-03T15:31:11.402Z</time></trkpt><trkpt lat="44.3244589" lon="8.4334937"><ele>148.0</ele><time>2026-05-03T15:31:12.403Z</time></trkpt><trkpt lat="44.3245042" lon="8.4333277"><ele>147.5</ele><time>2026-05-03T15:31:13.402Z</time></trkpt><trkpt lat="44.324576" lon="8.4331656"><ele>147.0</ele><time>2026-05-03T15:31:14.402Z</time></trkpt><trkpt lat="44.32466" lon="8.4330102"><ele>146.5</ele><time>2026-05-03T15:31:15.402Z</time></trkpt><trkpt lat="44.32475" lon="8.4328621"><ele>146.0</ele><time>2026-05-03T15:31:16.403Z</time></trkpt><trkpt lat="44.3248403" lon="8.4327257"><ele>144.75</ele><time>2026-05-03T15:31:17.402Z</time></trkpt><trkpt lat="44.3249314" lon="8.4325902"><ele>143.5</ele><time>2026-05-03T15:31:18.402Z</time></trkpt><trkpt lat="44.3250188" lon="8.4324519"><ele>142.25</ele><time>2026-05-03T15:31:19.402Z</time></trkpt><trkpt lat="44.3250963" lon="8.4323195"><ele>141.0</ele><time>2026-05-03T15:31:20.403Z</time></trkpt><trkpt lat="44.3251625" lon="8.4321694"><ele>141.75</ele><time>2026-05-03T15:31:21.403Z</time></trkpt><trkpt lat="44.325212" lon="8.4320051"><ele>142.5</ele><time>2026-05-03T15:31:22.403Z</time></trkpt><trkpt lat="44.3252512" lon="8.4318265"><ele>143.25</ele><time>2026-05-03T15:31:23.402Z</time></trkpt><trkpt lat="44.325289" lon="8.431645"><ele>144.0</ele><time>2026-05-03T15:31:24.403Z</time></trkpt><trkpt lat="44.3253258" lon="8.4314537"><ele>143.75</ele><time>2026-05-03T15:31:25.395Z</time></trkpt><trkpt lat="44.3253629" lon="8.431264"><ele>143.5</ele><time>2026-05-03T15:31:26.402Z</time></trkpt><trkpt lat="44.3254009" lon="8.4310797"><ele>143.25</ele><time>2026-05-03T15:31:27.402Z</time></trkpt><trkpt lat="44.325431" lon="8.4308916"><ele>143.0</ele><time>2026-05-03T15:31:28.402Z</time></trkpt><trkpt lat="44.3254472" lon="8.4306993"><ele>143.0</ele><time>2026-05-03T15:31:29.403Z</time></trkpt><trkpt lat="44.3254369" lon="8.4305134"><ele>143.0</ele><time>2026-05-03T15:31:30.402Z</time></trkpt><trkpt lat="44.3253956" lon="8.4303413"><ele>143.0</ele><time>2026-05-03T15:31:31.403Z</time></trkpt><trkpt lat="44.325328" lon="8.4301875"><ele>143.0</ele><time>2026-05-03T15:31:32.403Z</time></trkpt><trkpt lat="44.3252409" lon="8.4300498"><ele>143.0</ele><time>2026-05-03T15:31:33.403Z</time></trkpt><trkpt lat="44.3251387" lon="8.4299243"><ele>143.0</ele><time>2026-05-03T15:31:34.402Z</time></trkpt><trkpt lat="44.3250237" lon="8.4298166"><ele>143.0</ele><time>2026-05-03T15:31:35.402Z</time></trkpt><trkpt lat="44.3249" lon="8.4297279"><ele>143.0</ele><time>2026-05-03T15:31:36.402Z</time></trkpt><trkpt lat="44.3247688" lon="8.4296578"><ele>143.5</ele><time>2026-05-03T15:31:37.402Z</time></trkpt><trkpt lat="44.3246373" lon="8.4295942"><ele>144.0</ele><time>2026-05-03T15:31:38.402Z</time></trkpt><trkpt lat="44.3245036" lon="8.4295268"><ele>144.5</ele><time>2026-05-03T15:31:39.402Z</time></trkpt><trkpt lat="44.3243753" lon="8.4294411"><ele>145.0</ele><time>2026-05-03T15:31:40.402Z</time></trkpt><trkpt lat="44.3242475" lon="8.4293376"><ele>145.0</ele><time>2026-05-03T15:31:41.402Z</time></trkpt><trkpt lat="44.3241303" lon="8.4292073"><ele>145.0</ele><time>2026-05-03T15:31:42.402Z</time></trkpt><trkpt lat="44.3240239" lon="8.4290605"><ele>145.0</ele><time>2026-05-03T15:31:43.403Z</time></trkpt><trkpt lat="44.3239257" lon="8.4289039"><ele>145.0</ele><time>2026-05-03T15:31:44.403Z</time></trkpt><trkpt lat="44.3238303" lon="8.4287526"><ele>147.0</ele><time>2026-05-03T15:31:45.402Z</time></trkpt><trkpt lat="44.3237401" lon="8.4286039"><ele>149.0</ele><time>2026-05-03T15:31:46.394Z</time></trkpt><trkpt lat="44.3236573" lon="8.4284505"><ele>151.0</ele><time>2026-05-03T15:31:47.402Z</time></trkpt><trkpt lat="44.3235847" lon="8.4282833"><ele>153.0</ele><time>2026-05-03T15:31:48.402Z</time></trkpt><trkpt lat="44.3235304" lon="8.4281103"><ele>153.25</ele><time>2026-05-03T15:31:49.402Z</time></trkpt><trkpt lat="44.3234882" lon="8.4279323"><ele>153.5</ele><time>2026-05-03T15:31:50.402Z</time></trkpt><trkpt lat="44.3234488" lon="8.4277583"><ele>153.75</ele><time>2026-05-03T15:31:51.402Z</time></trkpt><trkpt lat="44.3234158" lon="8.4275858"><ele>154.0</ele><time>2026-05-03T15:31:52.402Z</time></trkpt><trkpt lat="44.3234078" lon="8.4274144"><ele>154.0</ele><time>2026-05-03T15:31:53.402Z</time></trkpt><trkpt lat="44.3234309" lon="8.4272525"><ele>154.0</ele><time>2026-05-03T15:31:54.403Z</time></trkpt><trkpt lat="44.3234861" lon="8.4270892"><ele>154.0</ele><time>2026-05-03T15:31:55.403Z</time></trkpt><trkpt lat="44.3235711" lon="8.4269277"><ele>154.0</ele><time>2026-05-03T15:31:56.403Z</time></trkpt><trkpt lat="44.3236703" lon="8.4267721"><ele>155.33333333333334</ele><time>2026-05-03T15:31:57.402Z</time></trkpt><trkpt lat="44.3237681" lon="8.4266119"><ele>156.66666666666666</ele><time>2026-05-03T15:31:58.403Z</time></trkpt><trkpt lat="44.3238674" lon="8.426451"><ele>158.0</ele><time>2026-05-03T15:31:59.4Z</time></trkpt><trkpt lat="44.3239651" lon="8.4262898"><ele>158.0</ele><time>2026-05-03T15:32:00.402Z</time></trkpt><trkpt lat="44.3240613" lon="8.4261344"><ele>158.0</ele><time>2026-05-03T15:32:01.402Z</time></trkpt><trkpt lat="44.3241532" lon="8.4259794"><ele>158.0</ele><time>2026-05-03T15:32:02.402Z</time></trkpt><trkpt lat="44.3242378" lon="8.425821"><ele>158.0</ele><time>2026-05-03T15:32:03.4Z</time></trkpt><trkpt lat="44.3243134" lon="8.4256523"><ele>158.25</ele><time>2026-05-03T15:32:04.403Z</time></trkpt><trkpt lat="44.3243661" lon="8.4254707"><ele>158.5</ele><time>2026-05-03T15:32:05.398Z</time></trkpt><trkpt lat="44.3243988" lon="8.4252715"><ele>158.75</ele><time>2026-05-03T15:32:06.402Z</time></trkpt><trkpt lat="44.3244156" lon="8.4250636"><ele>159.0</ele><time>2026-05-03T15:32:07.403Z</time></trkpt><trkpt lat="44.3244304" lon="8.4248533"><ele>159.0</ele><time>2026-05-03T15:32:08.402Z</time></trkpt><trkpt lat="44.3244443" lon="8.4246466"><ele>159.0</ele><time>2026-05-03T15:32:09.403Z</time></trkpt><trkpt lat="44.3244608" lon="8.4244443"><ele>159.0</ele><time>2026-05-03T15:32:10.402Z</time></trkpt><trkpt lat="44.3244768" lon="8.4242417"><ele>159.0</ele><time>2026-05-03T15:32:11.403Z</time></trkpt><trkpt lat="44.3244995" lon="8.4240427"><ele>159.0</ele><time>2026-05-03T15:32:12.403Z</time></trkpt><trkpt lat="44.3245238" lon="8.4238514"><ele>159.0</ele><time>2026-05-03T15:32:13.402Z</time></trkpt><trkpt lat="44.3245692" lon="8.423663"><ele>159.0</ele><time>2026-05-03T15:32:14.402Z</time></trkpt><trkpt lat="44.324633" lon="8.4234818"><ele>159.0</ele><time>2026-05-03T15:32:15.402Z</time></trkpt><trkpt lat="44.3247128" lon="8.423301"><ele>159.75</ele><time>2026-05-03T15:32:16.403Z</time></trkpt><trkpt lat="44.3247866" lon="8.4231211"><ele>160.5</ele><time>2026-05-03T15:32:17.402Z</time></trkpt><trkpt lat="44.3248604" lon="8.4229378"><ele>161.25</ele><time>2026-05-03T15:32:18.403Z</time></trkpt><trkpt lat="44.3249314" lon="8.4227578"><ele>162.0</ele><time>2026-05-03T15:32:19.402Z</time></trkpt><trkpt lat="44.3250064" lon="8.4225735"><ele>162.0</ele><time>2026-05-03T15:32:20.403Z</time></trkpt><trkpt lat="44.3250821" lon="8.4223944"><ele>162.0</ele><time>2026-05-03T15:32:21.402Z</time></trkpt><trkpt lat="44.325153" lon="8.422214"><ele>162.0</ele><time>2026-05-03T15:32:22.402Z</time></trkpt><trkpt lat="44.3252179" lon="8.4220314"><ele>162.0</ele><time>2026-05-03T15:32:23.402Z</time></trkpt><trkpt lat="44.3252742" lon="8.4218473"><ele>162.75</ele><time>2026-05-03T15:32:24.402Z</time></trkpt><trkpt lat="44.3253208" lon="8.4216613"><ele>163.5</ele><time>2026-05-03T15:32:25.399Z</time></trkpt><trkpt lat="44.3253701" lon="8.4214657"><ele>164.25</ele><time>2026-05-03T15:32:26.402Z</time></trkpt><trkpt lat="44.3254195" lon="8.4212746"><ele>165.0</ele><time>2026-05-03T15:32:27.398Z</time></trkpt><trkpt lat="44.3254728" lon="8.4210821"><ele>166.25</ele><time>2026-05-03T15:32:28.402Z</time></trkpt><trkpt lat="44.3255221" lon="8.4208926"><ele>167.5</ele><time>2026-05-03T15:32:29.398Z</time></trkpt><trkpt lat="44.3255635" lon="8.4207096"><ele>168.75</ele><time>2026-05-03T15:32:30.402Z</time></trkpt><trkpt lat="44.3256002" lon="8.4205272"><ele>170.0</ele><time>2026-05-03T15:32:31.403Z</time></trkpt><trkpt lat="44.3256222" lon="8.4203384"><ele>174.25</ele><time>2026-05-03T15:32:32.402Z</time></trkpt><trkpt lat="44.3256225" lon="8.4201455"><ele>178.5</ele><time>2026-05-03T15:32:33.402Z</time></trkpt><trkpt lat="44.3256123" lon="8.419958"><ele>182.75</ele><time>2026-05-03T15:32:34.402Z</time></trkpt><trkpt lat="44.3256007" lon="8.419775"><ele>187.0</ele><time>2026-05-03T15:32:35.402Z</time></trkpt><trkpt lat="44.32559" lon="8.4195952"><ele>188.25</ele><time>2026-05-03T15:32:36.402Z</time></trkpt><trkpt lat="44.3255786" lon="8.4194169"><ele>189.5</ele><time>2026-05-03T15:32:37.402Z</time></trkpt><trkpt lat="44.3255471" lon="8.4192511"><ele>190.75</ele><time>2026-05-03T15:32:38.402Z</time></trkpt><trkpt lat="44.3254879" lon="8.4191004"><ele>192.0</ele><time>2026-05-03T15:32:39.403Z</time></trkpt><trkpt lat="44.3254188" lon="8.4189594"><ele>187.25</ele><time>2026-05-03T15:32:40.402Z</time></trkpt><trkpt lat="44.3253459" lon="8.4188133"><ele>182.5</ele><time>2026-05-03T15:32:41.402Z</time></trkpt><trkpt lat="44.3252846" lon="8.4186682"><ele>177.75</ele><time>2026-05-03T15:32:42.402Z</time></trkpt><trkpt lat="44.3252396" lon="8.4185077"><ele>173.0</ele><time>2026-05-03T15:32:43.4Z</time></trkpt><trkpt lat="44.3252149" lon="8.4183396"><ele>173.0</ele><time>2026-05-03T15:32:44.402Z</time></trkpt><trkpt lat="44.3251955" lon="8.418172"><ele>173.0</ele><time>2026-05-03T15:32:45.403Z</time></trkpt><trkpt lat="44.3251753" lon="8.4180128"><ele>173.0</ele><time>2026-05-03T15:32:46.402Z</time></trkpt><trkpt lat="44.3251701" lon="8.4178572"><ele>173.0</ele><time>2026-05-03T15:32:47.402Z</time></trkpt><trkpt lat="44.3251964" lon="8.4177169"><ele>173.60000000000002</ele><time>2026-05-03T15:32:48.403Z</time></trkpt><trkpt lat="44.3252634" lon="8.4175949"><ele>174.20000000000002</ele><time>2026-05-03T15:32:49.402Z</time></trkpt><trkpt lat="44.325357" lon="8.4175082"><ele>174.8</ele><time>2026-05-03T15:32:50.402Z</time></trkpt><trkpt lat="44.3254535" lon="8.4174451"><ele>175.4</ele><time>2026-05-03T15:32:51.402Z</time></trkpt><trkpt lat="44.3255532" lon="8.4173827"><ele>176.0</ele><time>2026-05-03T15:32:52.402Z</time></trkpt><trkpt lat="44.3256444" lon="8.4173002"><ele>178.0</ele><time>2026-05-03T15:32:53.403Z</time></trkpt><trkpt lat="44.3257225" lon="8.4171977"><ele>180.0</ele><time>2026-05-03T15:32:54.402Z</time></trkpt><trkpt lat="44.325786" lon="8.4170789"><ele>182.0</ele><time>2026-05-03T15:32:55.403Z</time></trkpt><trkpt lat="44.3258252" lon="8.4169307"><ele>184.0</ele><time>2026-05-03T15:32:56.403Z</time></trkpt><trkpt lat="44.3258508" lon="8.4167658"><ele>186.0</ele><time>2026-05-03T15:32:57.403Z</time></trkpt><trkpt lat="44.3258797" lon="8.4166026"><ele>186.0</ele><time>2026-05-03T15:32:58.402Z</time></trkpt><trkpt lat="44.3259161" lon="8.4164316"><ele>186.0</ele><time>2026-05-03T15:32:59.402Z</time></trkpt><trkpt lat="44.3259473" lon="8.4162578"><ele>186.0</ele><time>2026-05-03T15:33:00.402Z</time></trkpt><trkpt lat="44.3259775" lon="8.4160839"><ele>186.0</ele><time>2026-05-03T15:33:01.399Z</time></trkpt><trkpt lat="44.3260065" lon="8.4159166"><ele>184.75</ele><time>2026-05-03T15:33:02.402Z</time></trkpt><trkpt lat="44.326033" lon="8.4157577"><ele>183.5</ele><time>2026-05-03T15:33:03.402Z</time></trkpt><trkpt lat="44.3260606" lon="8.4156018"><ele>182.25</ele><time>2026-05-03T15:33:04.403Z</time></trkpt><trkpt lat="44.3260881" lon="8.4154417"><ele>181.0</ele><time>2026-05-03T15:33:05.403Z</time></trkpt><trkpt lat="44.3261134" lon="8.4152868"><ele>180.75</ele><time>2026-05-03T15:33:06.402Z</time></trkpt><trkpt lat="44.3261367" lon="8.415128"><ele>180.5</ele><time>2026-05-03T15:33:07.402Z</time></trkpt><trkpt lat="44.3261622" lon="8.41497"><ele>180.25</ele><time>2026-05-03T15:33:08.399Z</time></trkpt><trkpt lat="44.3261853" lon="8.4148102"><ele>180.0</ele><time>2026-05-03T15:33:09.402Z</time></trkpt><trkpt lat="44.3262111" lon="8.4146495"><ele>181.75</ele><time>2026-05-03T15:33:10.402Z</time></trkpt><trkpt lat="44.3262378" lon="8.4144895"><ele>183.5</ele><time>2026-05-03T15:33:11.403Z</time></trkpt><trkpt lat="44.3262681" lon="8.4143276"><ele>185.25</ele><time>2026-05-03T15:33:12.402Z</time></trkpt><trkpt lat="44.326303" lon="8.4141707"><ele>187.0</ele><time>2026-05-03T15:33:13.403Z</time></trkpt><trkpt lat="44.3263469" lon="8.4140169"><ele>187.5</ele><time>2026-05-03T15:33:14.402Z</time></trkpt><trkpt lat="44.3264103" lon="8.4138736"><ele>188.0</ele><time>2026-05-03T15:33:15.402Z</time></trkpt><trkpt lat="44.3265008" lon="8.4137575"><ele>188.5</ele><time>2026-05-03T15:33:16.402Z</time></trkpt><trkpt lat="44.3266071" lon="8.4136561"><ele>189.0</ele><time>2026-05-03T15:33:17.402Z</time></trkpt><trkpt lat="44.3267176" lon="8.413551"><ele>189.0</ele><time>2026-05-03T15:33:18.402Z</time></trkpt><trkpt lat="44.3268182" lon="8.4134255"><ele>189.0</ele><time>2026-05-03T15:33:19.403Z</time></trkpt><trkpt lat="44.3268976" lon="8.4132839"><ele>189.0</ele><time>2026-05-03T15:33:20.402Z</time></trkpt><trkpt lat="44.3269558" lon="8.4131375"><ele>189.0</ele><time>2026-05-03T15:33:21.402Z</time></trkpt><trkpt lat="44.3269975" lon="8.4129897"><ele>188.75</ele><time>2026-05-03T15:33:22.403Z</time></trkpt><trkpt lat="44.3270425" lon="8.4128481"><ele>188.5</ele><time>2026-05-03T15:33:23.402Z</time></trkpt><trkpt lat="44.3271156" lon="8.4127288"><ele>188.25</ele><time>2026-05-03T15:33:24.402Z</time></trkpt><trkpt lat="44.3272171" lon="8.4126458"><ele>188.0</ele><time>2026-05-03T15:33:25.402Z</time></trkpt><trkpt lat="44.3273309" lon="8.4125823"><ele>189.75</ele><time>2026-05-03T15:33:26.402Z</time></trkpt><trkpt lat="44.3274421" lon="8.4125166"><ele>191.5</ele><time>2026-05-03T15:33:27.402Z</time></trkpt><trkpt lat="44.3275471" lon="8.4124311"><ele>193.25</ele><time>2026-05-03T15:33:28.397Z</time></trkpt><trkpt lat="44.327647" lon="8.4123391"><ele>195.0</ele><time>2026-05-03T15:33:29.402Z</time></trkpt><trkpt lat="44.3277436" lon="8.4122366"><ele>194.0</ele><time>2026-05-03T15:33:30.402Z</time></trkpt><trkpt lat="44.3278403" lon="8.4121355"><ele>193.0</ele><time>2026-05-03T15:33:31.403Z</time></trkpt><trkpt lat="44.3279363" lon="8.4120364"><ele>192.0</ele><time>2026-05-03T15:33:32.402Z</time></trkpt><trkpt lat="44.3280355" lon="8.411933"><ele>191.0</ele><time>2026-05-03T15:33:33.403Z</time></trkpt><trkpt lat="44.3281345" lon="8.4118297"><ele>193.0</ele><time>2026-05-03T15:33:34.402Z</time></trkpt><trkpt lat="44.32824" lon="8.4117346"><ele>195.0</ele><time>2026-05-03T15:33:35.397Z</time></trkpt><trkpt lat="44.3283507" lon="8.4116583"><ele>197.0</ele><time>2026-05-03T15:33:36.403Z</time></trkpt><trkpt lat="44.3284711" lon="8.4116051"><ele>199.0</ele><time>2026-05-03T15:33:37.398Z</time></trkpt><trkpt lat="44.3285922" lon="8.4115565"><ele>199.0</ele><time>2026-05-03T15:33:38.402Z</time></trkpt><trkpt lat="44.3287032" lon="8.4114884"><ele>199.0</ele><time>2026-05-03T15:33:39.395Z</time></trkpt><trkpt lat="44.3288077" lon="8.4114078"><ele>199.0</ele><time>2026-05-03T15:33:40.403Z</time></trkpt><trkpt lat="44.3288858" lon="8.4112979"><ele>199.0</ele><time>2026-05-03T15:33:41.402Z</time></trkpt><trkpt lat="44.3289331" lon="8.4111611"><ele>199.0</ele><time>2026-05-03T15:33:42.402Z</time></trkpt><trkpt lat="44.3289391" lon="8.4110156"><ele>199.0</ele><time>2026-05-03T15:33:43.402Z</time></trkpt><trkpt lat="44.328903" lon="8.4108729"><ele>199.0</ele><time>2026-05-03T15:33:44.402Z</time></trkpt><trkpt lat="44.328844" lon="8.4107403"><ele>199.0</ele><time>2026-05-03T15:33:45.402Z</time></trkpt><trkpt lat="44.3287741" lon="8.4106123"><ele>199.0</ele><time>2026-05-03T15:33:46.402Z</time></trkpt><trkpt lat="44.3287006" lon="8.4104838"><ele>201.39999999999998</ele><time>2026-05-03T15:33:47.402Z</time></trkpt><trkpt lat="44.3286341" lon="8.4103501"><ele>203.8</ele><time>2026-05-03T15:33:48.402Z</time></trkpt><trkpt lat="44.3285705" lon="8.4102187"><ele>206.2</ele><time>2026-05-03T15:33:49.403Z</time></trkpt><trkpt lat="44.3285128" lon="8.410099"><ele>208.60000000000002</ele><time>2026-05-03T15:33:50.402Z</time></trkpt><trkpt lat="44.3284644" lon="8.4099729"><ele>211.0</ele><time>2026-05-03T15:33:51.402Z</time></trkpt><trkpt lat="44.3284569" lon="8.4098312"><ele>211.0</ele><time>2026-05-03T15:33:52.4Z</time></trkpt><trkpt lat="44.328478" lon="8.4096875"><ele>211.0</ele><time>2026-05-03T15:33:53.401Z</time></trkpt><trkpt lat="44.3285134" lon="8.4095412"><ele>211.0</ele><time>2026-05-03T15:33:54.402Z</time></trkpt><trkpt lat="44.3285496" lon="8.4094005"><ele>211.0</ele><time>2026-05-03T15:33:55.402Z</time></trkpt><trkpt lat="44.3285891" lon="8.4092588"><ele>211.0</ele><time>2026-05-03T15:33:56.402Z</time></trkpt><trkpt lat="44.32862" lon="8.409108"><ele>211.8</ele><time>2026-05-03T15:33:57.395Z</time></trkpt><trkpt lat="44.3286303" lon="8.4089504"><ele>212.60000000000002</ele><time>2026-05-03T15:33:58.402Z</time></trkpt><trkpt lat="44.3286261" lon="8.4087992"><ele>213.4</ele><time>2026-05-03T15:33:59.402Z</time></trkpt><trkpt lat="44.3286197" lon="8.4086476"><ele>214.2</ele><time>2026-05-03T15:34:00.402Z</time></trkpt><trkpt lat="44.3286172" lon="8.4084949"><ele>215.0</ele><time>2026-05-03T15:34:01.403Z</time></trkpt><trkpt lat="44.3286251" lon="8.4083393"><ele>215.5</ele><time>2026-05-03T15:34:02.402Z</time></trkpt><trkpt lat="44.3286648" lon="8.4081805"><ele>216.0</ele><time>2026-05-03T15:34:03.402Z</time></trkpt><trkpt lat="44.3287286" lon="8.4080469"><ele>216.5</ele><time>2026-05-03T15:34:04.402Z</time></trkpt><trkpt lat="44.3288133" lon="8.4079331"><ele>217.0</ele><time>2026-05-03T15:34:05.403Z</time></trkpt><trkpt lat="44.3289077" lon="8.4078322"><ele>219.5</ele><time>2026-05-03T15:34:06.402Z</time></trkpt><trkpt lat="44.3290092" lon="8.4077389"><ele>222.0</ele><time>2026-05-03T15:34:07.402Z</time></trkpt><trkpt lat="44.3291045" lon="8.4076179"><ele>224.5</ele><time>2026-05-03T15:34:08.402Z</time></trkpt><trkpt lat="44.3291831" lon="8.4074629"><ele>227.0</ele><time>2026-05-03T15:34:09.402Z</time></trkpt><trkpt lat="44.3292473" lon="8.4073049"><ele>228.75</ele><time>2026-05-03T15:34:10.402Z</time></trkpt><trkpt lat="44.3292912" lon="8.407144"><ele>230.5</ele><time>2026-05-03T15:34:11.403Z</time></trkpt><trkpt lat="44.3293188" lon="8.4069808"><ele>232.25</ele><time>2026-05-03T15:34:12.402Z</time></trkpt><trkpt lat="44.3293613" lon="8.4068302"><ele>234.0</ele><time>2026-05-03T15:34:13.402Z</time></trkpt><trkpt lat="44.3294236" lon="8.4067022"><ele>234.0</ele><time>2026-05-03T15:34:14.403Z</time></trkpt><trkpt lat="44.3295097" lon="8.4066231"><ele>233.99999999999997</ele><time>2026-05-03T15:34:15.403Z</time></trkpt><trkpt lat="44.3296087" lon="8.4066091"><ele>233.99999999999997</ele><time>2026-05-03T15:34:16.402Z</time></trkpt><trkpt lat="44.3297141" lon="8.4066346"><ele>234.0</ele><time>2026-05-03T15:34:17.403Z</time></trkpt><trkpt lat="44.3298282" lon="8.4066611"><ele>234.0</ele><time>2026-05-03T15:34:18.402Z</time></trkpt><trkpt lat="44.3299451" lon="8.406683"><ele>234.79999999999998</ele><time>2026-05-03T15:34:19.394Z</time></trkpt><trkpt lat="44.330055" lon="8.4066761"><ele>235.59999999999997</ele><time>2026-05-03T15:34:20.403Z</time></trkpt><trkpt lat="44.3301565" lon="8.4066201"><ele>236.4</ele><time>2026-05-03T15:34:21.402Z</time></trkpt><trkpt lat="44.3302332" lon="8.4065186"><ele>237.2</ele><time>2026-05-03T15:34:22.402Z</time></trkpt><trkpt lat="44.3302909" lon="8.4063857"><ele>238.0</ele><time>2026-05-03T15:34:23.402Z</time></trkpt><trkpt lat="44.3303554" lon="8.4062471"><ele>238.0</ele><time>2026-05-03T15:34:24.402Z</time></trkpt><trkpt lat="44.3304202" lon="8.4060952"><ele>238.0</ele><time>2026-05-03T15:34:25.402Z</time></trkpt><trkpt lat="44.3304917" lon="8.4059366"><ele>238.0</ele><time>2026-05-03T15:34:26.402Z</time></trkpt><trkpt lat="44.3305661" lon="8.4057703"><ele>238.0</ele><time>2026-05-03T15:34:27.403Z</time></trkpt><trkpt lat="44.3306418" lon="8.4056015"><ele>236.75</ele><time>2026-05-03T15:34:28.402Z</time></trkpt><trkpt lat="44.3307196" lon="8.4054275"><ele>235.5</ele><time>2026-05-03T15:34:29.403Z</time></trkpt><trkpt lat="44.3308013" lon="8.4052567"><ele>234.25</ele><time>2026-05-03T15:34:30.402Z</time></trkpt><trkpt lat="44.3308817" lon="8.4050815"><ele>233.0</ele><time>2026-05-03T15:34:31.402Z</time></trkpt><trkpt lat="44.3309626" lon="8.4048984"><ele>233.0</ele><time>2026-05-03T15:34:32.402Z</time></trkpt><trkpt lat="44.3310394" lon="8.4047192"><ele>233.0</ele><time>2026-05-03T15:34:33.402Z</time></trkpt><trkpt lat="44.3311193" lon="8.4045419"><ele>233.0</ele><time>2026-05-03T15:34:34.403Z</time></trkpt><trkpt lat="44.331203" lon="8.4043643"><ele>233.33333333333334</ele><time>2026-05-03T15:34:35.402Z</time></trkpt><trkpt lat="44.3312805" lon="8.4041837"><ele>233.66666666666669</ele><time>2026-05-03T15:34:36.396Z</time></trkpt><trkpt lat="44.331366" lon="8.4040091"><ele>234.0</ele><time>2026-05-03T15:34:37.402Z</time></trkpt><trkpt lat="44.3314448" lon="8.403828"><ele>234.0</ele><time>2026-05-03T15:34:38.402Z</time></trkpt><trkpt lat="44.3315245" lon="8.4036467"><ele>234.0</ele><time>2026-05-03T15:34:39.402Z</time></trkpt><trkpt lat="44.3316068" lon="8.4034605"><ele>234.0</ele><time>2026-05-03T15:34:40.402Z</time></trkpt><trkpt lat="44.3316899" lon="8.4032706"><ele>234.0</ele><time>2026-05-03T15:34:41.402Z</time></trkpt><trkpt lat="44.3317703" lon="8.4030847"><ele>234.0</ele><time>2026-05-03T15:34:42.402Z</time></trkpt><trkpt lat="44.3318479" lon="8.4028999"><ele>234.0</ele><time>2026-05-03T15:34:43.402Z</time></trkpt><trkpt lat="44.3319073" lon="8.4027089"><ele>236.0</ele><time>2026-05-03T15:34:44.402Z</time></trkpt><trkpt lat="44.3319469" lon="8.4025035"><ele>238.0</ele><time>2026-05-03T15:34:45.403Z</time></trkpt><trkpt lat="44.3319605" lon="8.4022953"><ele>240.0</ele><time>2026-05-03T15:34:46.402Z</time></trkpt><trkpt lat="44.3319458" lon="8.4020877"><ele>240.5</ele><time>2026-05-03T15:34:47.4Z</time></trkpt><trkpt lat="44.3319007" lon="8.4018909"><ele>241.0</ele><time>2026-05-03T15:34:48.403Z</time></trkpt><trkpt lat="44.3318319" lon="8.4017115"><ele>241.5</ele><time>2026-05-03T15:34:49.402Z</time></trkpt><trkpt lat="44.3317452" lon="8.401545"><ele>242.0</ele><time>2026-05-03T15:34:50.403Z</time></trkpt><trkpt lat="44.3316542" lon="8.4013831"><ele>245.25</ele><time>2026-05-03T15:34:51.403Z</time></trkpt><trkpt lat="44.3315599" lon="8.4012244"><ele>248.5</ele><time>2026-05-03T15:34:52.402Z</time></trkpt><trkpt lat="44.3314657" lon="8.4010612"><ele>251.75</ele><time>2026-05-03T15:34:53.402Z</time></trkpt><trkpt lat="44.3313699" lon="8.4009016"><ele>255.0</ele><time>2026-05-03T15:34:54.402Z</time></trkpt><trkpt lat="44.3312745" lon="8.4007282"><ele>255.5</ele><time>2026-05-03T15:34:55.402Z</time></trkpt><trkpt lat="44.3311784" lon="8.4005717"><ele>256.0</ele><time>2026-05-03T15:34:56.402Z</time></trkpt><trkpt lat="44.3310803" lon="8.4004124"><ele>256.5</ele><time>2026-05-03T15:34:57.403Z</time></trkpt><trkpt lat="44.3309899" lon="8.4002601"><ele>257.0</ele><time>2026-05-03T15:34:58.402Z</time></trkpt><trkpt lat="44.3309015" lon="8.4001118"><ele>256.75</ele><time>2026-05-03T15:34:59.402Z</time></trkpt><trkpt lat="44.3308337" lon="8.3999476"><ele>256.5</ele><time>2026-05-03T15:35:00.402Z</time></trkpt><trkpt lat="44.330791" lon="8.3997556"><ele>256.25</ele><time>2026-05-03T15:35:01.402Z</time></trkpt><trkpt lat="44.330767" lon="8.39956"><ele>256.0</ele><time>2026-05-03T15:35:02.402Z</time></trkpt><trkpt lat="44.3307518" lon="8.3993623"><ele>256.0</ele><time>2026-05-03T15:35:03.403Z</time></trkpt><trkpt lat="44.3307439" lon="8.3991654"><ele>256.0</ele><time>2026-05-03T15:35:04.402Z</time></trkpt><trkpt lat="44.3307452" lon="8.3989717"><ele>256.0</ele><time>2026-05-03T15:35:05.402Z</time></trkpt><trkpt lat="44.3307624" lon="8.3987808"><ele>256.0</ele><time>2026-05-03T15:35:06.402Z</time></trkpt><trkpt lat="44.3307894" lon="8.3985942"><ele>257.0</ele><time>2026-05-03T15:35:07.403Z</time></trkpt><trkpt lat="44.3308173" lon="8.3984059"><ele>258.0</ele><time>2026-05-03T15:35:08.402Z</time></trkpt><trkpt lat="44.3308555" lon="8.3982348"><ele>259.0</ele><time>2026-05-03T15:35:09.402Z</time></trkpt><trkpt lat="44.3309187" lon="8.3980897"><ele>260.0</ele><time>2026-05-03T15:35:10.402Z</time></trkpt><trkpt lat="44.3310114" lon="8.3979688"><ele>261.5</ele><time>2026-05-03T15:35:11.402Z</time></trkpt><trkpt lat="44.3311141" lon="8.3978888"><ele>263.0</ele><time>2026-05-03T15:35:12.4Z</time></trkpt><trkpt lat="44.3312094" lon="8.3978008"><ele>264.5</ele><time>2026-05-03T15:35:13.403Z</time></trkpt><trkpt lat="44.3312943" lon="8.3976844"><ele>266.0</ele><time>2026-05-03T15:35:14.402Z</time></trkpt><trkpt lat="44.3313637" lon="8.3975524"><ele>266.75</ele><time>2026-05-03T15:35:15.403Z</time></trkpt><trkpt lat="44.3314122" lon="8.3974029"><ele>267.5</ele><time>2026-05-03T15:35:16.403Z</time></trkpt><trkpt lat="44.3314451" lon="8.3972447"><ele>268.25</ele><time>2026-05-03T15:35:17.402Z</time></trkpt><trkpt lat="44.3314709" lon="8.3970811"><ele>269.0</ele><time>2026-05-03T15:35:18.402Z</time></trkpt><trkpt lat="44.3314789" lon="8.3969262"><ele>268.8</ele><time>2026-05-03T15:35:19.402Z</time></trkpt><trkpt lat="44.3314623" lon="8.3967785"><ele>268.59999999999997</ele><time>2026-05-03T15:35:20.401Z</time></trkpt><trkpt lat="44.331418" lon="8.3966311"><ele>268.4</ele><time>2026-05-03T15:35:21.402Z</time></trkpt><trkpt lat="44.3313538" lon="8.3964993"><ele>268.2</ele><time>2026-05-03T15:35:22.402Z</time></trkpt><trkpt lat="44.3312705" lon="8.3963953"><ele>268.0</ele><time>2026-05-03T15:35:23.403Z</time></trkpt><trkpt lat="44.3311739" lon="8.3963164"><ele>269.0</ele><time>2026-05-03T15:35:24.402Z</time></trkpt><trkpt lat="44.3310736" lon="8.3962492"><ele>270.0</ele><time>2026-05-03T15:35:25.402Z</time></trkpt><trkpt lat="44.3309817" lon="8.3961597"><ele>271.0</ele><time>2026-05-03T15:35:26.402Z</time></trkpt><trkpt lat="44.3309045" lon="8.3960433"><ele>272.0</ele><time>2026-05-03T15:35:27.402Z</time></trkpt><trkpt lat="44.3308494" lon="8.3959095"><ele>273.0</ele><time>2026-05-03T15:35:28.402Z</time></trkpt><trkpt lat="44.3308143" lon="8.3957736"><ele>273.0</ele><time>2026-05-03T15:35:29.402Z</time></trkpt><trkpt lat="44.3307998" lon="8.3956279"><ele>273.0</ele><time>2026-05-03T15:35:30.402Z</time></trkpt><trkpt lat="44.3307983" lon="8.3954736"><ele>273.0</ele><time>2026-05-03T15:35:31.4Z</time></trkpt><trkpt lat="44.3308152" lon="8.3953164"><ele>273.0</ele><time>2026-05-03T15:35:32.402Z</time></trkpt><trkpt lat="44.3308519" lon="8.3951572"><ele>273.0</ele><time>2026-05-03T15:35:33.403Z</time></trkpt><trkpt lat="44.3309097" lon="8.3950017"><ele>274.25</ele><time>2026-05-03T15:35:34.403Z</time></trkpt><trkpt lat="44.3309754" lon="8.3948444"><ele>275.5</ele><time>2026-05-03T15:35:35.403Z</time></trkpt><trkpt lat="44.3310481" lon="8.3946858"><ele>276.75</ele><time>2026-05-03T15:35:36.403Z</time></trkpt><trkpt lat="44.3311212" lon="8.3945304"><ele>278.0</ele><time>2026-05-03T15:35:37.402Z</time></trkpt><trkpt lat="44.3311948" lon="8.3943695"><ele>279.33333333333337</ele><time>2026-05-03T15:35:38.403Z</time></trkpt><trkpt lat="44.3312529" lon="8.3941979"><ele>280.6666666666667</ele><time>2026-05-03T15:35:39.402Z</time></trkpt><trkpt lat="44.3313098" lon="8.3939967"><ele>282.0</ele><time>2026-05-03T15:35:40.403Z</time></trkpt><trkpt lat="44.3313607" lon="8.3937694"><ele>282.0</ele><time>2026-05-03T15:35:41.395Z</time></trkpt><trkpt lat="44.3314146" lon="8.3935189"><ele>282.0</ele><time>2026-05-03T15:35:42.403Z</time></trkpt><trkpt lat="44.331468" lon="8.3932458"><ele>282.0</ele><time>2026-05-03T15:35:43.402Z</time></trkpt><trkpt lat="44.3315251" lon="8.3929609"><ele>282.0</ele><time>2026-05-03T15:35:44.402Z</time></trkpt><trkpt lat="44.3315776" lon="8.3926534"><ele>282.0</ele><time>2026-05-03T15:35:45.403Z</time></trkpt><trkpt lat="44.3316342" lon="8.392343"><ele>284.0</ele><time>2026-05-03T15:35:46.403Z</time></trkpt><trkpt lat="44.3316929" lon="8.3920192"><ele>286.0</ele><time>2026-05-03T15:35:47.402Z</time></trkpt><trkpt lat="44.3317586" lon="8.3916888"><ele>286.0</ele><time>2026-05-03T15:35:48.402Z</time></trkpt><trkpt lat="44.3318347" lon="8.3913485"><ele>286.0</ele><time>2026-05-03T15:35:49.402Z</time></trkpt><trkpt lat="44.331907" lon="8.3910157"><ele>286.3333333333333</ele><time>2026-05-03T15:35:50.402Z</time></trkpt><trkpt lat="44.3319705" lon="8.3907036"><ele>286.6666666666667</ele><time>2026-05-03T15:35:51.402Z</time></trkpt><trkpt lat="44.3320306" lon="8.3904117"><ele>287.0</ele><time>2026-05-03T15:35:52.403Z</time></trkpt><trkpt lat="44.3320874" lon="8.3901353"><ele>288.33333333333337</ele><time>2026-05-03T15:35:53.403Z</time></trkpt><trkpt lat="44.332139" lon="8.3898658"><ele>289.6666666666667</ele><time>2026-05-03T15:35:54.403Z</time></trkpt><trkpt lat="44.3321809" lon="8.3895915"><ele>291.0</ele><time>2026-05-03T15:35:55.402Z</time></trkpt><trkpt lat="44.3322208" lon="8.3893085"><ele>295.6666666666667</ele><time>2026-05-03T15:35:56.402Z</time></trkpt><trkpt lat="44.3322618" lon="8.3890184"><ele>300.33333333333337</ele><time>2026-05-03T15:35:57.402Z</time></trkpt><trkpt lat="44.3322972" lon="8.3887144"><ele>305.0</ele><time>2026-05-03T15:35:58.399Z</time></trkpt><trkpt lat="44.3323252" lon="8.3883978"><ele>308.5</ele><time>2026-05-03T15:35:59.402Z</time></trkpt><trkpt lat="44.3323537" lon="8.3880759"><ele>312.0</ele><time>2026-05-03T15:36:00.402Z</time></trkpt><trkpt lat="44.3323784" lon="8.387766"><ele>313.3333333333333</ele><time>2026-05-03T15:36:01.403Z</time></trkpt><trkpt lat="44.332406" lon="8.3874653"><ele>314.66666666666663</ele><time>2026-05-03T15:36:02.403Z</time></trkpt><trkpt lat="44.332436" lon="8.3871744"><ele>316.0</ele><time>2026-05-03T15:36:03.401Z</time></trkpt><trkpt lat="44.3324538" lon="8.3868926"><ele>316.66666666666663</ele><time>2026-05-03T15:36:04.402Z</time></trkpt><trkpt lat="44.3324644" lon="8.3866237"><ele>317.3333333333333</ele><time>2026-05-03T15:36:05.402Z</time></trkpt><trkpt lat="44.3324682" lon="8.3863895"><ele>318.0</ele><time>2026-05-03T15:36:06.402Z</time></trkpt><trkpt lat="44.3324736" lon="8.3861658"><ele>318.75</ele><time>2026-05-03T15:36:07.402Z</time></trkpt><trkpt lat="44.3324735" lon="8.3859599"><ele>319.5</ele><time>2026-05-03T15:36:08.402Z</time></trkpt><trkpt lat="44.3324725" lon="8.385758"><ele>320.25</ele><time>2026-05-03T15:36:09.402Z</time></trkpt><trkpt lat="44.3324632" lon="8.385569"><ele>321.0</ele><time>2026-05-03T15:36:10.402Z</time></trkpt><trkpt lat="44.3324399" lon="8.385376"><ele>323.5</ele><time>2026-05-03T15:36:11.402Z</time></trkpt><trkpt lat="44.3324036" lon="8.3851963"><ele>326.0</ele><time>2026-05-03T15:36:12.403Z</time></trkpt><trkpt lat="44.3323578" lon="8.3850279"><ele>328.5</ele><time>2026-05-03T15:36:13.402Z</time></trkpt><trkpt lat="44.3323013" lon="8.3848711"><ele>331.0</ele><time>2026-05-03T15:36:14.402Z</time></trkpt><trkpt lat="44.3322461" lon="8.3847174"><ele>328.5</ele><time>2026-05-03T15:36:15.402Z</time></trkpt><trkpt lat="44.3321909" lon="8.3845695"><ele>326.0</ele><time>2026-05-03T15:36:16.402Z</time></trkpt><trkpt lat="44.3321437" lon="8.3844109"><ele>323.5</ele><time>2026-05-03T15:36:17.402Z</time></trkpt><trkpt lat="44.3321038" lon="8.3842418"><ele>321.0</ele><time>2026-05-03T15:36:18.402Z</time></trkpt><trkpt lat="44.332069" lon="8.3840737"><ele>321.0</ele><time>2026-05-03T15:36:19.403Z</time></trkpt><trkpt lat="44.3320431" lon="8.3839065"><ele>321.0</ele><time>2026-05-03T15:36:20.402Z</time></trkpt><trkpt lat="44.3320211" lon="8.38375"><ele>321.0</ele><time>2026-05-03T15:36:21.402Z</time></trkpt><trkpt lat="44.3320123" lon="8.3835958"><ele>321.0</ele><time>2026-05-03T15:36:22.402Z</time></trkpt><trkpt lat="44.3320156" lon="8.383438"><ele>321.0</ele><time>2026-05-03T15:36:23.402Z</time></trkpt><trkpt lat="44.3320303" lon="8.3832751"><ele>321.0</ele><time>2026-05-03T15:36:24.402Z</time></trkpt><trkpt lat="44.3320685" lon="8.3831207"><ele>321.0</ele><time>2026-05-03T15:36:25.402Z</time></trkpt><trkpt lat="44.3321036" lon="8.382967"><ele>321.0</ele><time>2026-05-03T15:36:26.402Z</time></trkpt><trkpt lat="44.3321612" lon="8.3828342"><ele>320.8</ele><time>2026-05-03T15:36:27.403Z</time></trkpt><trkpt lat="44.3321969" lon="8.3826852"><ele>320.6</ele><time>2026-05-03T15:36:28.402Z</time></trkpt><trkpt lat="44.3322128" lon="8.3825309"><ele>320.4</ele><time>2026-05-03T15:36:29.403Z</time></trkpt><trkpt lat="44.3322058" lon="8.3823771"><ele>320.2</ele><time>2026-05-03T15:36:30.402Z</time></trkpt><trkpt lat="44.3321953" lon="8.3822195"><ele>320.0</ele><time>2026-05-03T15:36:31.402Z</time></trkpt><trkpt lat="44.3321931" lon="8.3820712"><ele>322.6</ele><time>2026-05-03T15:36:32.402Z</time></trkpt><trkpt lat="44.3322097" lon="8.3819327"><ele>325.2</ele><time>2026-05-03T15:36:33.402Z</time></trkpt><trkpt lat="44.3322506" lon="8.3818166"><ele>327.79999999999995</ele><time>2026-05-03T15:36:34.4Z</time></trkpt><trkpt lat="44.3323273" lon="8.3817207"><ele>330.4</ele><time>2026-05-03T15:36:35.402Z</time></trkpt><trkpt lat="44.3324237" lon="8.3816626"><ele>333.0</ele><time>2026-05-03T15:36:36.402Z</time></trkpt><trkpt lat="44.3325306" lon="8.3816355"><ele>334.79999999999995</ele><time>2026-05-03T15:36:37.402Z</time></trkpt><trkpt lat="44.3326382" lon="8.3816214"><ele>336.6</ele><time>2026-05-03T15:36:38.402Z</time></trkpt><trkpt lat="44.3327475" lon="8.3816253"><ele>338.4</ele><time>2026-05-03T15:36:39.402Z</time></trkpt><trkpt lat="44.3328594" lon="8.3816221"><ele>340.20000000000005</ele><time>2026-05-03T15:36:40.403Z</time></trkpt><trkpt lat="44.3329703" lon="8.3815846"><ele>342.0</ele><time>2026-05-03T15:36:41.403Z</time></trkpt><trkpt lat="44.3330728" lon="8.3815167"><ele>341.75</ele><time>2026-05-03T15:36:42.399Z</time></trkpt><trkpt lat="44.3331586" lon="8.3814191"><ele>341.5</ele><time>2026-05-03T15:36:43.402Z</time></trkpt><trkpt lat="44.3332277" lon="8.3812941"><ele>341.25</ele><time>2026-05-03T15:36:44.403Z</time></trkpt><trkpt lat="44.3332888" lon="8.3811551"><ele>341.0</ele><time>2026-05-03T15:36:45.402Z</time></trkpt><trkpt lat="44.3333478" lon="8.3810065"><ele>341.0</ele><time>2026-05-03T15:36:46.402Z</time></trkpt><trkpt lat="44.3334045" lon="8.3808569"><ele>341.0</ele><time>2026-05-03T15:36:47.402Z</time></trkpt><trkpt lat="44.3334608" lon="8.3807061"><ele>341.0</ele><time>2026-05-03T15:36:48.402Z</time></trkpt><trkpt lat="44.3335131" lon="8.3805461"><ele>341.0</ele><time>2026-05-03T15:36:49.402Z</time></trkpt><trkpt lat="44.3335665" lon="8.380381"><ele>337.75</ele><time>2026-05-03T15:36:50.402Z</time></trkpt><trkpt lat="44.333624" lon="8.3802165"><ele>334.5</ele><time>2026-05-03T15:36:51.402Z</time></trkpt><trkpt lat="44.3336815" lon="8.3800535"><ele>331.25</ele><time>2026-05-03T15:36:52.402Z</time></trkpt><trkpt lat="44.3337526" lon="8.3799073"><ele>328.0</ele><time>2026-05-03T15:36:53.402Z</time></trkpt><trkpt lat="44.3338459" lon="8.379791"><ele>330.25</ele><time>2026-05-03T15:36:54.401Z</time></trkpt><trkpt lat="44.3339597" lon="8.3797159"><ele>332.5</ele><time>2026-05-03T15:36:55.402Z</time></trkpt><trkpt lat="44.3340791" lon="8.3796536"><ele>334.75</ele><time>2026-05-03T15:36:56.402Z</time></trkpt><trkpt lat="44.3341883" lon="8.3795804"><ele>337.0</ele><time>2026-05-03T15:36:57.402Z</time></trkpt><trkpt lat="44.3342934" lon="8.3794812"><ele>337.0</ele><time>2026-05-03T15:36:58.403Z</time></trkpt><trkpt lat="44.3343866" lon="8.3793608"><ele>337.0</ele><time>2026-05-03T15:36:59.402Z</time></trkpt><trkpt lat="44.3344621" lon="8.3792173"><ele>337.0</ele><time>2026-05-03T15:37:00.402Z</time></trkpt><trkpt lat="44.3345272" lon="8.3790664"><ele>337.0</ele><time>2026-05-03T15:37:01.396Z</time></trkpt><trkpt lat="44.334584" lon="8.3789124"><ele>334.0</ele><time>2026-05-03T15:37:02.403Z</time></trkpt><trkpt lat="44.3346405" lon="8.3787582"><ele>331.0</ele><time>2026-05-03T15:37:03.402Z</time></trkpt><trkpt lat="44.3346816" lon="8.378593"><ele>328.0</ele><time>2026-05-03T15:37:04.402Z</time></trkpt><trkpt lat="44.3346915" lon="8.378423"><ele>325.0</ele><time>2026-05-03T15:37:05.402Z</time></trkpt><trkpt lat="44.3346793" lon="8.3782531"><ele>325.0</ele><time>2026-05-03T15:37:06.398Z</time></trkpt><trkpt lat="44.3346589" lon="8.3780841"><ele>325.0</ele><time>2026-05-03T15:37:07.403Z</time></trkpt><trkpt lat="44.3346429" lon="8.3779151"><ele>325.0</ele><time>2026-05-03T15:37:08.403Z</time></trkpt><trkpt lat="44.3346254" lon="8.3777494"><ele>325.0</ele><time>2026-05-03T15:37:09.402Z</time></trkpt><trkpt lat="44.3346097" lon="8.3775841"><ele>327.0</ele><time>2026-05-03T15:37:10.403Z</time></trkpt><trkpt lat="44.3345911" lon="8.3774186"><ele>329.0</ele><time>2026-05-03T15:37:11.402Z</time></trkpt><trkpt lat="44.3345815" lon="8.3772518"><ele>331.0</ele><time>2026-05-03T15:37:12.402Z</time></trkpt><trkpt lat="44.3345715" lon="8.3770886"><ele>333.0</ele><time>2026-05-03T15:37:13.402Z</time></trkpt><trkpt lat="44.3345642" lon="8.3769273"><ele>334.5</ele><time>2026-05-03T15:37:14.402Z</time></trkpt><trkpt lat="44.3345904" lon="8.3767472"><ele>336.0</ele><time>2026-05-03T15:37:15.403Z</time></trkpt><trkpt lat="44.3346081" lon="8.3765664"><ele>337.5</ele><time>2026-05-03T15:37:16.403Z</time></trkpt><trkpt lat="44.3346884" lon="8.3763995"><ele>339.0</ele><time>2026-05-03T15:37:17.402Z</time></trkpt><trkpt lat="44.3347404" lon="8.3762254"><ele>341.75</ele><time>2026-05-03T15:37:18.402Z</time></trkpt><trkpt lat="44.3347869" lon="8.376064"><ele>344.5</ele><time>2026-05-03T15:37:19.402Z</time></trkpt><trkpt lat="44.334825" lon="8.375891"><ele>347.25</ele><time>2026-05-03T15:37:20.402Z</time></trkpt><trkpt lat="44.3348578" lon="8.3757174"><ele>350.0</ele><time>2026-05-03T15:37:21.402Z</time></trkpt><trkpt lat="44.3348925" lon="8.3755476"><ele>350.0</ele><time>2026-05-03T15:37:22.402Z</time></trkpt><trkpt lat="44.3349245" lon="8.3753759"><ele>350.0</ele><time>2026-05-03T15:37:23.397Z</time></trkpt><trkpt lat="44.3349503" lon="8.3752042"><ele>350.0</ele><time>2026-05-03T15:37:24.402Z</time></trkpt><trkpt lat="44.3349649" lon="8.3750329"><ele>350.0</ele><time>2026-05-03T15:37:25.402Z</time></trkpt><trkpt lat="44.3349613" lon="8.3748694"><ele>350.0</ele><time>2026-05-03T15:37:26.399Z</time></trkpt><trkpt lat="44.33495" lon="8.3747118"><ele>350.0</ele><time>2026-05-03T15:37:27.402Z</time></trkpt><trkpt lat="44.3349525" lon="8.3745598"><ele>350.0</ele><time>2026-05-03T15:37:28.403Z</time></trkpt><trkpt lat="44.3349865" lon="8.3744124"><ele>350.0</ele><time>2026-05-03T15:37:29.403Z</time></trkpt><trkpt lat="44.3350563" lon="8.3742859"><ele>350.0</ele><time>2026-05-03T15:37:30.402Z</time></trkpt><trkpt lat="44.3351464" lon="8.3742038"><ele>350.2</ele><time>2026-05-03T15:37:31.396Z</time></trkpt><trkpt lat="44.3352493" lon="8.3741686"><ele>350.4</ele><time>2026-05-03T15:37:32.403Z</time></trkpt><trkpt lat="44.33535" lon="8.374169"><ele>350.6</ele><time>2026-05-03T15:37:33.402Z</time></trkpt><trkpt lat="44.3354565" lon="8.3741727"><ele>350.8</ele><time>2026-05-03T15:37:34.403Z</time></trkpt><trkpt lat="44.3355651" lon="8.374148"><ele>351.0</ele><time>2026-05-03T15:37:35.402Z</time></trkpt><trkpt lat="44.335667" lon="8.3740674"><ele>349.5</ele><time>2026-05-03T15:37:36.403Z</time></trkpt><trkpt lat="44.3357455" lon="8.3739495"><ele>348.0</ele><time>2026-05-03T15:37:37.403Z</time></trkpt><trkpt lat="44.3358025" lon="8.3738168"><ele>346.5</ele><time>2026-05-03T15:37:38.402Z</time></trkpt><trkpt lat="44.3358394" lon="8.3736674"><ele>345.0</ele><time>2026-05-03T15:37:39.402Z</time></trkpt><trkpt lat="44.3358565" lon="8.3735049"><ele>345.0</ele><time>2026-05-03T15:37:40.402Z</time></trkpt><trkpt lat="44.3358675" lon="8.37333"><ele>345.0</ele><time>2026-05-03T15:37:41.393Z</time></trkpt><trkpt lat="44.3358828" lon="8.373154"><ele>345.0</ele><time>2026-05-03T15:37:42.402Z</time></trkpt><trkpt lat="44.3358984" lon="8.372971"><ele>345.0</ele><time>2026-05-03T15:37:43.401Z</time></trkpt><trkpt lat="44.3359159" lon="8.3727839"><ele>343.75</ele><time>2026-05-03T15:37:44.402Z</time></trkpt><trkpt lat="44.3359379" lon="8.3726009"><ele>342.5</ele><time>2026-05-03T15:37:45.402Z</time></trkpt><trkpt lat="44.3359589" lon="8.3724177"><ele>341.25</ele><time>2026-05-03T15:37:46.403Z</time></trkpt><trkpt lat="44.3359837" lon="8.3722382"><ele>340.0</ele><time>2026-05-03T15:37:47.402Z</time></trkpt><trkpt lat="44.3360105" lon="8.3720674"><ele>339.0</ele><time>2026-05-03T15:37:48.403Z</time></trkpt><trkpt lat="44.3360462" lon="8.3719015"><ele>338.0</ele><time>2026-05-03T15:37:49.402Z</time></trkpt><trkpt lat="44.3360846" lon="8.3717392"><ele>337.0</ele><time>2026-05-03T15:37:50.403Z</time></trkpt><trkpt lat="44.3361307" lon="8.3715858"><ele>336.0</ele><time>2026-05-03T15:37:51.402Z</time></trkpt><trkpt lat="44.3361739" lon="8.3714254"><ele>337.0</ele><time>2026-05-03T15:37:52.402Z</time></trkpt><trkpt lat="44.3362258" lon="8.3712743"><ele>338.0</ele><time>2026-05-03T15:37:53.403Z</time></trkpt><trkpt lat="44.3362798" lon="8.3711316"><ele>339.0</ele><time>2026-05-03T15:37:54.402Z</time></trkpt><trkpt lat="44.3363392" lon="8.370995"><ele>340.0</ele><time>2026-05-03T15:37:55.402Z</time></trkpt><trkpt lat="44.3364019" lon="8.3708628"><ele>340.0</ele><time>2026-05-03T15:37:56.402Z</time></trkpt><trkpt lat="44.3364667" lon="8.3707277"><ele>340.0</ele><time>2026-05-03T15:37:57.402Z</time></trkpt><trkpt lat="44.3365346" lon="8.3705955"><ele>340.0</ele><time>2026-05-03T15:37:58.402Z</time></trkpt><trkpt lat="44.3366005" lon="8.3704651"><ele>340.0</ele><time>2026-05-03T15:37:59.397Z</time></trkpt><trkpt lat="44.3366683" lon="8.3703363"><ele>341.5</ele><time>2026-05-03T15:38:00.402Z</time></trkpt><trkpt lat="44.3367259" lon="8.3701971"><ele>343.0</ele><time>2026-05-03T15:38:01.403Z</time></trkpt><trkpt lat="44.3367658" lon="8.3700419"><ele>344.5</ele><time>2026-05-03T15:38:02.402Z</time></trkpt><trkpt lat="44.3367901" lon="8.3698857"><ele>346.0</ele><time>2026-05-03T15:38:03.403Z</time></trkpt><trkpt lat="44.3367922" lon="8.3697234"><ele>347.25</ele><time>2026-05-03T15:38:04.398Z</time></trkpt><trkpt lat="44.3367756" lon="8.3695626"><ele>348.5</ele><time>2026-05-03T15:38:05.402Z</time></trkpt><trkpt lat="44.3367357" lon="8.3694004"><ele>349.75</ele><time>2026-05-03T15:38:06.402Z</time></trkpt><trkpt lat="44.3366778" lon="8.3692527"><ele>351.0</ele><time>2026-05-03T15:38:07.402Z</time></trkpt><trkpt lat="44.3366093" lon="8.3691115"><ele>351.0</ele><time>2026-05-03T15:38:08.402Z</time></trkpt><trkpt lat="44.3365355" lon="8.3689745"><ele>351.0</ele><time>2026-05-03T15:38:09.402Z</time></trkpt><trkpt lat="44.3364426" lon="8.3688531"><ele>351.0</ele><time>2026-05-03T15:38:10.402Z</time></trkpt><trkpt lat="44.3363346" lon="8.3687612"><ele>351.0</ele><time>2026-05-03T15:38:11.402Z</time></trkpt><trkpt lat="44.3362203" lon="8.3686801"><ele>353.0</ele><time>2026-05-03T15:38:12.402Z</time></trkpt><trkpt lat="44.3361076" lon="8.3686012"><ele>355.0</ele><time>2026-05-03T15:38:13.403Z</time></trkpt><trkpt lat="44.3360004" lon="8.368521"><ele>357.0</ele><time>2026-05-03T15:38:14.402Z</time></trkpt><trkpt lat="44.3358942" lon="8.3684351"><ele>359.0</ele><time>2026-05-03T15:38:15.403Z</time></trkpt><trkpt lat="44.3357985" lon="8.3683408"><ele>359.0</ele><time>2026-05-03T15:38:16.403Z</time></trkpt><trkpt lat="44.3357102" lon="8.3682379"><ele>359.0</ele><time>2026-05-03T15:38:17.403Z</time></trkpt><trkpt lat="44.335628" lon="8.3681193"><ele>359.0</ele><time>2026-05-03T15:38:18.403Z</time></trkpt><trkpt lat="44.3355489" lon="8.3679915"><ele>359.0</ele><time>2026-05-03T15:38:19.402Z</time></trkpt><trkpt lat="44.3354821" lon="8.3678509"><ele>357.0</ele><time>2026-05-03T15:38:20.402Z</time></trkpt><trkpt lat="44.3354302" lon="8.3676925"><ele>355.0</ele><time>2026-05-03T15:38:21.403Z</time></trkpt><trkpt lat="44.3353956" lon="8.3675141"><ele>353.0</ele><time>2026-05-03T15:38:22.399Z</time></trkpt><trkpt lat="44.3353779" lon="8.3673352"><ele>351.0</ele><time>2026-05-03T15:38:23.403Z</time></trkpt><trkpt lat="44.3353741" lon="8.3671556"><ele>351.0</ele><time>2026-05-03T15:38:24.402Z</time></trkpt><trkpt lat="44.3353751" lon="8.3669763"><ele>351.0</ele><time>2026-05-03T15:38:25.395Z</time></trkpt><trkpt lat="44.3353781" lon="8.3668042"><ele>351.0</ele><time>2026-05-03T15:38:26.402Z</time></trkpt><trkpt lat="44.3353764" lon="8.3666248"><ele>351.0</ele><time>2026-05-03T15:38:27.396Z</time></trkpt><trkpt lat="44.3353754" lon="8.3664499"><ele>355.25</ele><time>2026-05-03T15:38:28.402Z</time></trkpt><trkpt lat="44.3353706" lon="8.3662729"><ele>359.5</ele><time>2026-05-03T15:38:29.403Z</time></trkpt><trkpt lat="44.3353501" lon="8.3660991"><ele>363.75</ele><time>2026-05-03T15:38:30.402Z</time></trkpt><trkpt lat="44.3353011" lon="8.3659334"><ele>368.0</ele><time>2026-05-03T15:38:31.402Z</time></trkpt><trkpt lat="44.3352303" lon="8.3657906"><ele>368.0</ele><time>2026-05-03T15:38:32.403Z</time></trkpt><trkpt lat="44.3351582" lon="8.3656581"><ele>368.0</ele><time>2026-05-03T15:38:33.4Z</time></trkpt><trkpt lat="44.3350964" lon="8.3655152"><ele>368.0</ele><time>2026-05-03T15:38:34.402Z</time></trkpt><trkpt lat="44.335058" lon="8.3653591"><ele>368.0</ele><time>2026-05-03T15:38:35.402Z</time></trkpt><trkpt lat="44.3350383" lon="8.3652056"><ele>367.59999999999997</ele><time>2026-05-03T15:38:36.402Z</time></trkpt><trkpt lat="44.3350308" lon="8.3650587"><ele>367.2</ele><time>2026-05-03T15:38:37.396Z</time></trkpt><trkpt lat="44.3350447" lon="8.3649128"><ele>366.8</ele><time>2026-05-03T15:38:38.393Z</time></trkpt><trkpt lat="44.3350744" lon="8.3647738"><ele>366.4</ele><time>2026-05-03T15:38:39.403Z</time></trkpt><trkpt lat="44.3351118" lon="8.3646298"><ele>366.0</ele><time>2026-05-03T15:38:40.403Z</time></trkpt><trkpt lat="44.3351495" lon="8.3644844"><ele>366.0</ele><time>2026-05-03T15:38:41.402Z</time></trkpt><trkpt lat="44.3351907" lon="8.3643366"><ele>366.0</ele><time>2026-05-03T15:38:42.402Z</time></trkpt><trkpt lat="44.3352293" lon="8.3641917"><ele>366.0</ele><time>2026-05-03T15:38:43.402Z</time></trkpt><trkpt lat="44.3352699" lon="8.3640376"><ele>366.0</ele><time>2026-05-03T15:38:44.402Z</time></trkpt><trkpt lat="44.3352957" lon="8.3638756"><ele>367.5</ele><time>2026-05-03T15:38:45.402Z</time></trkpt><trkpt lat="44.3352985" lon="8.363702"><ele>369.0</ele><time>2026-05-03T15:38:46.402Z</time></trkpt><trkpt lat="44.3352752" lon="8.363515"><ele>370.5</ele><time>2026-05-03T15:38:47.402Z</time></trkpt><trkpt lat="44.3352342" lon="8.3633155"><ele>372.0</ele><time>2026-05-03T15:38:48.402Z</time></trkpt><trkpt lat="44.3351807" lon="8.363105"><ele>375.6666666666667</ele><time>2026-05-03T15:38:49.402Z</time></trkpt><trkpt lat="44.3351198" lon="8.3628622"><ele>379.33333333333337</ele><time>2026-05-03T15:38:50.403Z</time></trkpt><trkpt lat="44.3350625" lon="8.3626069"><ele>383.0</ele><time>2026-05-03T15:38:51.403Z</time></trkpt><trkpt lat="44.3350091" lon="8.3623548"><ele>389.0</ele><time>2026-05-03T15:38:52.402Z</time></trkpt><trkpt lat="44.3349524" lon="8.3621108"><ele>395.0</ele><time>2026-05-03T15:38:53.402Z</time></trkpt><trkpt lat="44.3348941" lon="8.3618704"><ele>401.0</ele><time>2026-05-03T15:38:54.403Z</time></trkpt><trkpt lat="44.3348363" lon="8.3616409"><ele>401.0</ele><time>2026-05-03T15:38:55.402Z</time></trkpt><trkpt lat="44.3347763" lon="8.3614121"><ele>401.0</ele><time>2026-05-03T15:38:56.4Z</time></trkpt><trkpt lat="44.3347201" lon="8.3611959"><ele>401.0</ele><time>2026-05-03T15:38:57.402Z</time></trkpt><trkpt lat="44.3346765" lon="8.3609796"><ele>395.3333333333333</ele><time>2026-05-03T15:38:58.402Z</time></trkpt><trkpt lat="44.3346539" lon="8.3607578"><ele>389.66666666666663</ele><time>2026-05-03T15:38:59.403Z</time></trkpt><trkpt lat="44.3346517" lon="8.3605388"><ele>384.0</ele><time>2026-05-03T15:39:00.402Z</time></trkpt><trkpt lat="44.3346664" lon="8.3603198"><ele>379.6666666666667</ele><time>2026-05-03T15:39:01.403Z</time></trkpt><trkpt lat="44.3346893" lon="8.3601065"><ele>375.33333333333337</ele><time>2026-05-03T15:39:02.402Z</time></trkpt><trkpt lat="44.3347267" lon="8.3598986"><ele>371.0</ele><time>2026-05-03T15:39:03.402Z</time></trkpt><trkpt lat="44.3347747" lon="8.3597012"><ele>381.33333333333337</ele><time>2026-05-03T15:39:04.401Z</time></trkpt><trkpt lat="44.3348242" lon="8.3595013"><ele>391.6666666666667</ele><time>2026-05-03T15:39:05.402Z</time></trkpt><trkpt lat="44.3348734" lon="8.3592951"><ele>402.0</ele><time>2026-05-03T15:39:06.403Z</time></trkpt><trkpt lat="44.3349266" lon="8.359079"><ele>401.0</ele><time>2026-05-03T15:39:07.402Z</time></trkpt><trkpt lat="44.3349818" lon="8.3588566"><ele>400.0</ele><time>2026-05-03T15:39:08.402Z</time></trkpt><trkpt lat="44.3350345" lon="8.3586371"><ele>399.0</ele><time>2026-05-03T15:39:09.402Z</time></trkpt><trkpt lat="44.3350901" lon="8.3584199"><ele>399.0</ele><time>2026-05-03T15:39:10.402Z</time></trkpt><trkpt lat="44.3351413" lon="8.3582076"><ele>399.0</ele><time>2026-05-03T15:39:11.402Z</time></trkpt><trkpt lat="44.3351858" lon="8.3580105"><ele>399.0</ele><time>2026-05-03T15:39:12.402Z</time></trkpt><trkpt lat="44.3352265" lon="8.3578392"><ele>399.0</ele><time>2026-05-03T15:39:13.402Z</time></trkpt><trkpt lat="44.3352656" lon="8.3576794"><ele>400.0</ele><time>2026-05-03T15:39:14.402Z</time></trkpt><trkpt lat="44.3353068" lon="8.3575253"><ele>401.0</ele><time>2026-05-03T15:39:15.403Z</time></trkpt><trkpt lat="44.3353495" lon="8.3573576"><ele>402.0</ele><time>2026-05-03T15:39:16.402Z</time></trkpt><trkpt lat="44.3353899" lon="8.3571837"><ele>403.0</ele><time>2026-05-03T15:39:17.402Z</time></trkpt><trkpt lat="44.3354319" lon="8.3569943"><ele>406.33333333333337</ele><time>2026-05-03T15:39:18.402Z</time></trkpt><trkpt lat="44.3354825" lon="8.3567866"><ele>409.66666666666663</ele><time>2026-05-03T15:39:19.403Z</time></trkpt><trkpt lat="44.3355467" lon="8.3565561"><ele>413.0</ele><time>2026-05-03T15:39:20.402Z</time></trkpt><trkpt lat="44.335621" lon="8.3563056"><ele>401.3333333333333</ele><time>2026-05-03T15:39:21.402Z</time></trkpt><trkpt lat="44.3357006" lon="8.3560624"><ele>389.66666666666663</ele><time>2026-05-03T15:39:22.403Z</time></trkpt><trkpt lat="44.3357832" lon="8.3558147"><ele>378.0</ele><time>2026-05-03T15:39:23.403Z</time></trkpt><trkpt lat="44.3358738" lon="8.3555546"><ele>375.0</ele><time>2026-05-03T15:39:24.402Z</time></trkpt><trkpt lat="44.3359704" lon="8.3552757"><ele>372.0</ele><time>2026-05-03T15:39:25.402Z</time></trkpt><trkpt lat="44.3360783" lon="8.3549851"><ele>375.5</ele><time>2026-05-03T15:39:26.402Z</time></trkpt><trkpt lat="44.3362028" lon="8.3546885"><ele>379.0</ele><time>2026-05-03T15:39:27.403Z</time></trkpt><trkpt lat="44.3363403" lon="8.3543819"><ele>385.5</ele><time>2026-05-03T15:39:28.402Z</time></trkpt><trkpt lat="44.3364895" lon="8.354075"><ele>392.0</ele><time>2026-05-03T15:39:29.402Z</time></trkpt><trkpt lat="44.336642" lon="8.3537726"><ele>397.0</ele><time>2026-05-03T15:39:30.402Z</time></trkpt><trkpt lat="44.3367969" lon="8.3534657"><ele>402.0</ele><time>2026-05-03T15:39:31.402Z</time></trkpt><trkpt lat="44.336954" lon="8.3531708"><ele>408.0</ele><time>2026-05-03T15:39:32.403Z</time></trkpt><trkpt lat="44.3371178" lon="8.3528861"><ele>414.0</ele><time>2026-05-03T15:39:33.402Z</time></trkpt><trkpt lat="44.3372853" lon="8.3526143"><ele>415.5</ele><time>2026-05-03T15:39:34.403Z</time></trkpt><trkpt lat="44.3374511" lon="8.352355"><ele>417.0</ele><time>2026-05-03T15:39:35.402Z</time></trkpt><trkpt lat="44.3376163" lon="8.3521039"><ele>421.5</ele><time>2026-05-03T15:39:36.403Z</time></trkpt><trkpt lat="44.3377823" lon="8.3518682"><ele>426.0</ele><time>2026-05-03T15:39:37.403Z</time></trkpt><trkpt lat="44.3379495" lon="8.3516417"><ele>425.0</ele><time>2026-05-03T15:39:38.403Z</time></trkpt><trkpt lat="44.3381161" lon="8.3514169"><ele>424.0</ele><time>2026-05-03T15:39:39.402Z</time></trkpt><trkpt lat="44.3382832" lon="8.3512015"><ele>424.0</ele><time>2026-05-03T15:39:40.403Z</time></trkpt><trkpt lat="44.3384415" lon="8.3509904"><ele>424.0</ele><time>2026-05-03T15:39:41.4Z</time></trkpt><trkpt lat="44.3385999" lon="8.3507829"><ele>424.0</ele><time>2026-05-03T15:39:42.403Z</time></trkpt><trkpt lat="44.3387556" lon="8.350578"><ele>429.6666666666667</ele><time>2026-05-03T15:39:43.402Z</time></trkpt><trkpt lat="44.3389037" lon="8.3503789"><ele>435.33333333333337</ele><time>2026-05-03T15:39:44.403Z</time></trkpt><trkpt lat="44.3390475" lon="8.350183"><ele>441.0</ele><time>2026-05-03T15:39:45.402Z</time></trkpt><trkpt lat="44.3391892" lon="8.3499909"><ele>441.0</ele><time>2026-05-03T15:39:46.402Z</time></trkpt><trkpt lat="44.3393309" lon="8.3498006"><ele>441.0</ele><time>2026-05-03T15:39:47.403Z</time></trkpt><trkpt lat="44.3415635" lon="8.3263678"><ele>426.0</ele><time>2026-05-03T15:41:35.379Z</time></trkpt><trkpt lat="44.3415883" lon="8.3261932"><ele>411.0</ele><time>2026-05-03T15:41:36.373Z</time></trkpt><trkpt lat="44.3416075" lon="8.326021"><ele>396.0</ele><time>2026-05-03T15:41:37.383Z</time></trkpt><trkpt lat="44.3416383" lon="8.3258609"><ele>381.0</ele><time>2026-05-03T15:41:38.375Z</time></trkpt><trkpt lat="44.3416748" lon="8.3257032"><ele>380.75</ele><time>2026-05-03T15:41:39.382Z</time></trkpt><trkpt lat="44.3417168" lon="8.3255495"><ele>380.5</ele><time>2026-05-03T15:41:40.392Z</time></trkpt><trkpt lat="44.3417663" lon="8.3254044"><ele>380.25</ele><time>2026-05-03T15:41:41.392Z</time></trkpt><trkpt lat="44.3418355" lon="8.3252807"><ele>380.0</ele><time>2026-05-03T15:41:42.393Z</time></trkpt><trkpt lat="44.3419284" lon="8.3251826"><ele>380.0</ele><time>2026-05-03T15:41:43.393Z</time></trkpt><trkpt lat="44.3420271" lon="8.3251038"><ele>380.0</ele><time>2026-05-03T15:41:44.393Z</time></trkpt><trkpt lat="44.3421309" lon="8.3250586"><ele>380.0</ele><time>2026-05-03T15:41:45.393Z</time></trkpt><trkpt lat="44.3422236" lon="8.3250352"><ele>380.0</ele><time>2026-05-03T15:41:46.393Z</time></trkpt><trkpt lat="44.3423" lon="8.3250244"><ele>380.0</ele><time>2026-05-03T15:41:47.393Z</time></trkpt><trkpt lat="44.3424114" lon="8.3250099"><ele>379.6</ele><time>2026-05-03T15:41:49.392Z</time></trkpt><trkpt lat="44.3425398" lon="8.3249787"><ele>379.2</ele><time>2026-05-03T15:41:51.392Z</time></trkpt><trkpt lat="44.3426232" lon="8.3249572"><ele>378.79999999999995</ele><time>2026-05-03T15:41:52.392Z</time></trkpt><trkpt lat="44.3427189" lon="8.3249352"><ele>378.4</ele><time>2026-05-03T15:41:53.392Z</time></trkpt><trkpt lat="44.3428138" lon="8.3249029"><ele>378.0</ele><time>2026-05-03T15:41:54.393Z</time></trkpt><trkpt lat="44.3429137" lon="8.3248618"><ele>378.0</ele><time>2026-05-03T15:41:55.392Z</time></trkpt><trkpt lat="44.3430201" lon="8.3248202"><ele>378.0</ele><time>2026-05-03T15:41:56.393Z</time></trkpt><trkpt lat="44.3431272" lon="8.324775"><ele>378.0</ele><time>2026-05-03T15:41:57.392Z</time></trkpt><trkpt lat="44.343236" lon="8.3247256"><ele>378.0</ele><time>2026-05-03T15:41:58.392Z</time></trkpt><trkpt lat="44.3433434" lon="8.3246788"><ele>378.0</ele><time>2026-05-03T15:41:59.392Z</time></trkpt><trkpt lat="44.3434457" lon="8.3246237"><ele>377.79999999999995</ele><time>2026-05-03T15:42:00.393Z</time></trkpt><trkpt lat="44.3435431" lon="8.3245459"><ele>377.6</ele><time>2026-05-03T15:42:01.392Z</time></trkpt><trkpt lat="44.3436241" lon="8.3244557"><ele>377.4</ele><time>2026-05-03T15:42:02.393Z</time></trkpt><trkpt lat="44.3436884" lon="8.3243438"><ele>377.20000000000005</ele><time>2026-05-03T15:42:03.393Z</time></trkpt><trkpt lat="44.3437231" lon="8.3242222"><ele>377.0</ele><time>2026-05-03T15:42:04.392Z</time></trkpt><trkpt lat="44.343732" lon="8.3240959"><ele>377.0</ele><time>2026-05-03T15:42:05.392Z</time></trkpt><trkpt lat="44.343715" lon="8.3239825"><ele>377.0</ele><time>2026-05-03T15:42:06.392Z</time></trkpt><trkpt lat="44.3436778" lon="8.3238844"><ele>377.0</ele><time>2026-05-03T15:42:07.392Z</time></trkpt><trkpt lat="44.3436299" lon="8.3237876"><ele>377.0</ele><time>2026-05-03T15:42:08.393Z</time></trkpt><trkpt lat="44.343583" lon="8.3236889"><ele>377.0</ele><time>2026-05-03T15:42:09.392Z</time></trkpt><trkpt lat="44.3435425" lon="8.3235989"><ele>377.0</ele><time>2026-05-03T15:42:10.392Z</time></trkpt><trkpt lat="44.3435195" lon="8.3235045"><ele>377.6</ele><time>2026-05-03T15:42:11.392Z</time></trkpt><trkpt lat="44.3435123" lon="8.3233894"><ele>378.20000000000005</ele><time>2026-05-03T15:42:12.392Z</time></trkpt><trkpt lat="44.3435357" lon="8.3232608"><ele>378.8</ele><time>2026-05-03T15:42:13.392Z</time></trkpt><trkpt lat="44.3435822" lon="8.3231446"><ele>379.4</ele><time>2026-05-03T15:42:14.392Z</time></trkpt><trkpt lat="44.3436586" lon="8.3230361"><ele>380.0</ele><time>2026-05-03T15:42:15.392Z</time></trkpt><trkpt lat="44.3437505" lon="8.322935"><ele>380.25</ele><time>2026-05-03T15:42:16.392Z</time></trkpt><trkpt lat="44.3438432" lon="8.322836"><ele>380.5</ele><time>2026-05-03T15:42:17.392Z</time></trkpt><trkpt lat="44.3439401" lon="8.322731"><ele>380.75</ele><time>2026-05-03T15:42:18.392Z</time></trkpt><trkpt lat="44.3440462" lon="8.3226255"><ele>381.0</ele><time>2026-05-03T15:42:19.392Z</time></trkpt><trkpt lat="44.3441586" lon="8.3225211"><ele>381.0</ele><time>2026-05-03T15:42:20.393Z</time></trkpt><trkpt lat="44.3442717" lon="8.3224124"><ele>381.0</ele><time>2026-05-03T15:42:21.392Z</time></trkpt><trkpt lat="44.3443829" lon="8.3223045"><ele>381.0</ele><time>2026-05-03T15:42:22.393Z</time></trkpt><trkpt lat="44.344497" lon="8.3221921"><ele>381.0</ele><time>2026-05-03T15:42:23.393Z</time></trkpt><trkpt lat="44.3446134" lon="8.3220821"><ele>382.0</ele><time>2026-05-03T15:42:24.392Z</time></trkpt><trkpt lat="44.344732" lon="8.3219676"><ele>383.0</ele><time>2026-05-03T15:42:25.392Z</time></trkpt><trkpt lat="44.344845" lon="8.3218526"><ele>384.0</ele><time>2026-05-03T15:42:26.392Z</time></trkpt><trkpt lat="44.3449538" lon="8.3217422"><ele>385.0</ele><time>2026-05-03T15:42:27.393Z</time></trkpt><trkpt lat="44.3450578" lon="8.3216335"><ele>385.0</ele><time>2026-05-03T15:42:28.392Z</time></trkpt><trkpt lat="44.3451533" lon="8.3215309"><ele>385.0</ele><time>2026-05-03T15:42:29.392Z</time></trkpt><trkpt lat="44.3452373" lon="8.3214304"><ele>385.0</ele><time>2026-05-03T15:42:30.392Z</time></trkpt><trkpt lat="44.3453105" lon="8.3213281"><ele>385.0</ele><time>2026-05-03T15:42:31.392Z</time></trkpt><trkpt lat="44.3453778" lon="8.3212221"><ele>385.0</ele><time>2026-05-03T15:42:32.392Z</time></trkpt><trkpt lat="44.3454368" lon="8.3211172"><ele>384.50000000000006</ele><time>2026-05-03T15:42:33.392Z</time></trkpt><trkpt lat="44.3454898" lon="8.3210239"><ele>384.0</ele><time>2026-05-03T15:42:34.392Z</time></trkpt><trkpt lat="44.3455505" lon="8.3209564"><ele>383.5</ele><time>2026-05-03T15:42:35.392Z</time></trkpt><trkpt lat="44.3456215" lon="8.3209157"><ele>383.0</ele><time>2026-05-03T15:42:36.392Z</time></trkpt><trkpt lat="44.3456909" lon="8.3208813"><ele>382.5</ele><time>2026-05-03T15:42:37.392Z</time></trkpt><trkpt lat="44.3457413" lon="8.3208104"><ele>382.0</ele><time>2026-05-03T15:42:38.393Z</time></trkpt><trkpt lat="44.3457624" lon="8.3207151"><ele>382.0</ele><time>2026-05-03T15:42:39.392Z</time></trkpt><trkpt lat="44.3457394" lon="8.3206127"><ele>382.0</ele><time>2026-05-03T15:42:40.393Z</time></trkpt><trkpt lat="44.3456779" lon="8.3205023"><ele>382.0</ele><time>2026-05-03T15:42:41.392Z</time></trkpt><trkpt lat="44.3456083" lon="8.3203669"><ele>382.0</ele><time>2026-05-03T15:42:42.393Z</time></trkpt><trkpt lat="44.345537" lon="8.3201996"><ele>382.0</ele><time>2026-05-03T15:42:43.393Z</time></trkpt><trkpt lat="44.3454633" lon="8.3200193"><ele>389.3333333333333</ele><time>2026-05-03T15:42:44.392Z</time></trkpt><trkpt lat="44.3453935" lon="8.3198194"><ele>396.66666666666663</ele><time>2026-05-03T15:42:45.392Z</time></trkpt><trkpt lat="44.3453401" lon="8.3195973"><ele>404.0</ele><time>2026-05-03T15:42:46.393Z</time></trkpt><trkpt lat="44.3453165" lon="8.3193579"><ele>404.0</ele><time>2026-05-03T15:42:47.392Z</time></trkpt><trkpt lat="44.3453208" lon="8.3191076"><ele>404.0</ele><time>2026-05-03T15:42:48.392Z</time></trkpt><trkpt lat="44.3453531" lon="8.3188451"><ele>404.0</ele><time>2026-05-03T15:42:49.392Z</time></trkpt><trkpt lat="44.3453969" lon="8.3185688"><ele>404.0</ele><time>2026-05-03T15:42:50.392Z</time></trkpt><trkpt lat="44.3454382" lon="8.3182734"><ele>404.0</ele><time>2026-05-03T15:42:51.392Z</time></trkpt><trkpt lat="44.3454812" lon="8.3179622"><ele>404.0</ele><time>2026-05-03T15:42:52.392Z</time></trkpt><trkpt lat="44.3455358" lon="8.3176478"><ele>392.0</ele><time>2026-05-03T15:42:53.393Z</time></trkpt><trkpt lat="44.3455945" lon="8.3173384"><ele>380.0</ele><time>2026-05-03T15:42:54.393Z</time></trkpt><trkpt lat="44.3456491" lon="8.3170312"><ele>379.33333333333337</ele><time>2026-05-03T15:42:55.392Z</time></trkpt><trkpt lat="44.3456997" lon="8.3167266"><ele>378.6666666666667</ele><time>2026-05-03T15:42:56.392Z</time></trkpt><trkpt lat="44.3457491" lon="8.3164272"><ele>378.0</ele><time>2026-05-03T15:42:57.392Z</time></trkpt><trkpt lat="44.345795" lon="8.3161395"><ele>379.6666666666667</ele><time>2026-05-03T15:42:58.393Z</time></trkpt><trkpt lat="44.3458404" lon="8.3158564"><ele>381.33333333333337</ele><time>2026-05-03T15:42:59.392Z</time></trkpt><trkpt lat="44.3458859" lon="8.3155845"><ele>383.0</ele><time>2026-05-03T15:43:00.392Z</time></trkpt><trkpt lat="44.345938" lon="8.3153171"><ele>383.6666666666667</ele><time>2026-05-03T15:43:01.392Z</time></trkpt><trkpt lat="44.346001" lon="8.3150599"><ele>384.33333333333337</ele><time>2026-05-03T15:43:02.393Z</time></trkpt><trkpt lat="44.3460801" lon="8.3148127"><ele>385.0</ele><time>2026-05-03T15:43:03.392Z</time></trkpt><trkpt lat="44.3461743" lon="8.3145717"><ele>386.33333333333337</ele><time>2026-05-03T15:43:04.392Z</time></trkpt><trkpt lat="44.3462768" lon="8.3143318"><ele>387.66666666666663</ele><time>2026-05-03T15:43:05.393Z</time></trkpt><trkpt lat="44.3463883" lon="8.3140987"><ele>389.0</ele><time>2026-05-03T15:43:06.393Z</time></trkpt><trkpt lat="44.3464982" lon="8.3138604"><ele>386.3333333333333</ele><time>2026-05-03T15:43:07.392Z</time></trkpt><trkpt lat="44.3466018" lon="8.3136108"><ele>383.66666666666663</ele><time>2026-05-03T15:43:08.392Z</time></trkpt><trkpt lat="44.3466937" lon="8.3133551"><ele>381.0</ele><time>2026-05-03T15:43:09.392Z</time></trkpt><trkpt lat="44.3467716" lon="8.3130892"><ele>383.0</ele><time>2026-05-03T15:43:10.392Z</time></trkpt><trkpt lat="44.3468345" lon="8.3128112"><ele>385.0</ele><time>2026-05-03T15:43:11.393Z</time></trkpt><trkpt lat="44.3468788" lon="8.3125297"><ele>387.0</ele><time>2026-05-03T15:43:12.393Z</time></trkpt><trkpt lat="44.3469019" lon="8.3122453"><ele>386.0</ele><time>2026-05-03T15:43:13.392Z</time></trkpt><trkpt lat="44.3469126" lon="8.3119674"><ele>385.0</ele><time>2026-05-03T15:43:14.392Z</time></trkpt><trkpt lat="44.3469175" lon="8.3116939"><ele>384.0</ele><time>2026-05-03T15:43:15.392Z</time></trkpt><trkpt lat="44.3469185" lon="8.3114363"><ele>385.66666666666663</ele><time>2026-05-03T15:43:16.393Z</time></trkpt><trkpt lat="44.3469188" lon="8.311183"><ele>387.3333333333333</ele><time>2026-05-03T15:43:17.393Z</time></trkpt><trkpt lat="44.3469176" lon="8.3109403"><ele>389.0</ele><time>2026-05-03T15:43:18.393Z</time></trkpt><trkpt lat="44.3469153" lon="8.3107007"><ele>389.66666666666663</ele><time>2026-05-03T15:43:19.392Z</time></trkpt><trkpt lat="44.3469125" lon="8.310464"><ele>390.33333333333337</ele><time>2026-05-03T15:43:20.393Z</time></trkpt><trkpt lat="44.3469077" lon="8.310233"><ele>391.0</ele><time>2026-05-03T15:43:21.392Z</time></trkpt><trkpt lat="44.3469219" lon="8.3100091"><ele>391.0</ele><time>2026-05-03T15:43:22.392Z</time></trkpt><trkpt lat="44.3469618" lon="8.3097882"><ele>391.0</ele><time>2026-05-03T15:43:23.392Z</time></trkpt><trkpt lat="44.3470147" lon="8.3095783"><ele>391.0</ele><time>2026-05-03T15:43:24.392Z</time></trkpt><trkpt lat="44.3470841" lon="8.3093788"><ele>391.0</ele><time>2026-05-03T15:43:25.392Z</time></trkpt><trkpt lat="44.3471821" lon="8.3091913"><ele>391.0</ele><time>2026-05-03T15:43:26.392Z</time></trkpt><trkpt lat="44.3472885" lon="8.3090119"><ele>391.0</ele><time>2026-05-03T15:43:27.392Z</time></trkpt><trkpt lat="44.3473843" lon="8.3088295"><ele>392.33333333333337</ele><time>2026-05-03T15:43:28.392Z</time></trkpt><trkpt lat="44.3474522" lon="8.3086298"><ele>393.66666666666663</ele><time>2026-05-03T15:43:29.392Z</time></trkpt><trkpt lat="44.3474843" lon="8.3084154"><ele>395.0</ele><time>2026-05-03T15:43:30.392Z</time></trkpt><trkpt lat="44.3474835" lon="8.3081934"><ele>396.3333333333333</ele><time>2026-05-03T15:43:31.392Z</time></trkpt><trkpt lat="44.347453" lon="8.3079716"><ele>397.66666666666663</ele><time>2026-05-03T15:43:32.392Z</time></trkpt><trkpt lat="44.3473931" lon="8.3077614"><ele>399.0</ele><time>2026-05-03T15:43:33.393Z</time></trkpt><trkpt lat="44.3473125" lon="8.3075617"><ele>399.0</ele><time>2026-05-03T15:43:34.392Z</time></trkpt><trkpt lat="44.3472236" lon="8.3073635"><ele>399.0</ele><time>2026-05-03T15:43:35.393Z</time></trkpt><trkpt lat="44.3471441" lon="8.3071679"><ele>399.0</ele><time>2026-05-03T15:43:36.393Z</time></trkpt><trkpt lat="44.3470826" lon="8.3069613"><ele>399.0</ele><time>2026-05-03T15:43:37.392Z</time></trkpt><trkpt lat="44.3470435" lon="8.3067444"><ele>399.0</ele><time>2026-05-03T15:43:38.392Z</time></trkpt><trkpt lat="44.3470158" lon="8.3065121"><ele>399.0</ele><time>2026-05-03T15:43:39.393Z</time></trkpt><trkpt lat="44.3469902" lon="8.3062823"><ele>399.0</ele><time>2026-05-03T15:43:40.392Z</time></trkpt><trkpt lat="44.3469675" lon="8.3060563"><ele>399.0</ele><time>2026-05-03T15:43:41.393Z</time></trkpt><trkpt lat="44.3469433" lon="8.3058325"><ele>399.0</ele><time>2026-05-03T15:43:42.392Z</time></trkpt><trkpt lat="44.3469168" lon="8.3056115"><ele>400.0</ele><time>2026-05-03T15:43:43.392Z</time></trkpt><trkpt lat="44.3468958" lon="8.3053985"><ele>401.0</ele><time>2026-05-03T15:43:44.392Z</time></trkpt><trkpt lat="44.3468789" lon="8.3051893"><ele>402.0</ele><time>2026-05-03T15:43:45.393Z</time></trkpt><trkpt lat="44.3468648" lon="8.3049904"><ele>403.0</ele><time>2026-05-03T15:43:46.393Z</time></trkpt><trkpt lat="44.3468544" lon="8.3047924"><ele>403.25</ele><time>2026-05-03T15:43:47.392Z</time></trkpt><trkpt lat="44.3468546" lon="8.3045928"><ele>403.5</ele><time>2026-05-03T15:43:48.392Z</time></trkpt><trkpt lat="44.3468764" lon="8.3043893"><ele>403.75</ele><time>2026-05-03T15:43:49.392Z</time></trkpt><trkpt lat="44.3469111" lon="8.3041807"><ele>404.0</ele><time>2026-05-03T15:43:50.392Z</time></trkpt><trkpt lat="44.3469432" lon="8.3039772"><ele>404.66666666666663</ele><time>2026-05-03T15:43:51.392Z</time></trkpt><trkpt lat="44.3469896" lon="8.3037613"><ele>405.33333333333337</ele><time>2026-05-03T15:43:52.392Z</time></trkpt><trkpt lat="44.3470505" lon="8.3035518"><ele>406.0</ele><time>2026-05-03T15:43:53.392Z</time></trkpt><trkpt lat="44.3471029" lon="8.3033481"><ele>406.0</ele><time>2026-05-03T15:43:54.392Z</time></trkpt><trkpt lat="44.3471506" lon="8.3031636"><ele>406.0</ele><time>2026-05-03T15:43:55.392Z</time></trkpt><trkpt lat="44.3471937" lon="8.3029853"><ele>406.0</ele><time>2026-05-03T15:43:56.392Z</time></trkpt><trkpt lat="44.3472319" lon="8.3028059"><ele>406.0</ele><time>2026-05-03T15:43:57.392Z</time></trkpt><trkpt lat="44.3472699" lon="8.3026269"><ele>404.0</ele><time>2026-05-03T15:43:58.392Z</time></trkpt><trkpt lat="44.3473203" lon="8.302444"><ele>402.0</ele><time>2026-05-03T15:43:59.392Z</time></trkpt><trkpt lat="44.3473812" lon="8.302264"><ele>400.0</ele><time>2026-05-03T15:44:00.392Z</time></trkpt><trkpt lat="44.3474408" lon="8.3020747"><ele>398.0</ele><time>2026-05-03T15:44:01.392Z</time></trkpt><trkpt lat="44.3474932" lon="8.3018829"><ele>397.5</ele><time>2026-05-03T15:44:02.392Z</time></trkpt><trkpt lat="44.3475506" lon="8.3016934"><ele>397.0</ele><time>2026-05-03T15:44:03.392Z</time></trkpt><trkpt lat="44.3476022" lon="8.3014996"><ele>396.5</ele><time>2026-05-03T15:44:04.393Z</time></trkpt><trkpt lat="44.3476577" lon="8.3013083"><ele>396.0</ele><time>2026-05-03T15:44:05.392Z</time></trkpt><trkpt lat="44.3477174" lon="8.3011173"><ele>395.25</ele><time>2026-05-03T15:44:06.393Z</time></trkpt><trkpt lat="44.3477768" lon="8.3009285"><ele>394.5</ele><time>2026-05-03T15:44:07.392Z</time></trkpt><trkpt lat="44.3478544" lon="8.3007628"><ele>393.75</ele><time>2026-05-03T15:44:08.392Z</time></trkpt><trkpt lat="44.3479397" lon="8.3005981"><ele>393.0</ele><time>2026-05-03T15:44:09.392Z</time></trkpt><trkpt lat="44.3480378" lon="8.3004339"><ele>390.66666666666663</ele><time>2026-05-03T15:44:10.392Z</time></trkpt><trkpt lat="44.3481454" lon="8.3002756"><ele>388.3333333333333</ele><time>2026-05-03T15:44:11.392Z</time></trkpt><trkpt lat="44.3482645" lon="8.3001254"><ele>386.0</ele><time>2026-05-03T15:44:12.392Z</time></trkpt><trkpt lat="44.3483962" lon="8.2999917"><ele>386.0</ele><time>2026-05-03T15:44:13.392Z</time></trkpt><trkpt lat="44.3485323" lon="8.2998668"><ele>386.0</ele><time>2026-05-03T15:44:14.393Z</time></trkpt><trkpt lat="44.3486678" lon="8.2997318"><ele>386.0</ele><time>2026-05-03T15:44:15.393Z</time></trkpt><trkpt lat="44.3488016" lon="8.2996033"><ele>385.0</ele><time>2026-05-03T15:44:16.393Z</time></trkpt><trkpt lat="44.3489313" lon="8.299467"><ele>384.0</ele><time>2026-05-03T15:44:17.392Z</time></trkpt><trkpt lat="44.3490571" lon="8.2993214"><ele>383.0</ele><time>2026-05-03T15:44:18.392Z</time></trkpt><trkpt lat="44.3491741" lon="8.2991735"><ele>383.0</ele><time>2026-05-03T15:44:19.392Z</time></trkpt><trkpt lat="44.3492844" lon="8.2990255"><ele>383.0</ele><time>2026-05-03T15:44:20.392Z</time></trkpt><trkpt lat="44.349394" lon="8.2988796"><ele>383.0</ele><time>2026-05-03T15:44:21.393Z</time></trkpt><trkpt lat="44.3495015" lon="8.2987385"><ele>382.0</ele><time>2026-05-03T15:44:22.392Z</time></trkpt><trkpt lat="44.3496056" lon="8.2985998"><ele>381.0</ele><time>2026-05-03T15:44:23.393Z</time></trkpt><trkpt lat="44.349711" lon="8.298462"><ele>380.0</ele><time>2026-05-03T15:44:24.392Z</time></trkpt><trkpt lat="44.3498115" lon="8.2983298"><ele>379.0</ele><time>2026-05-03T15:44:25.392Z</time></trkpt><trkpt lat="44.3499106" lon="8.2981965"><ele>377.25</ele><time>2026-05-03T15:44:26.392Z</time></trkpt><trkpt lat="44.3500088" lon="8.2980673"><ele>375.5</ele><time>2026-05-03T15:44:27.392Z</time></trkpt><trkpt lat="44.3501048" lon="8.2979425"><ele>373.75</ele><time>2026-05-03T15:44:28.392Z</time></trkpt><trkpt lat="44.3501985" lon="8.2978224"><ele>372.0</ele><time>2026-05-03T15:44:29.392Z</time></trkpt><trkpt lat="44.3502893" lon="8.2977006"><ele>372.0</ele><time>2026-05-03T15:44:30.393Z</time></trkpt><trkpt lat="44.350384" lon="8.2975713"><ele>372.0</ele><time>2026-05-03T15:44:31.393Z</time></trkpt><trkpt lat="44.3504831" lon="8.2974465"><ele>372.0</ele><time>2026-05-03T15:44:32.392Z</time></trkpt><trkpt lat="44.3505843" lon="8.2973211"><ele>372.0</ele><time>2026-05-03T15:44:33.392Z</time></trkpt><trkpt lat="44.3506859" lon="8.2971853"><ele>371.25</ele><time>2026-05-03T15:44:34.392Z</time></trkpt><trkpt lat="44.3507813" lon="8.2970393"><ele>370.5</ele><time>2026-05-03T15:44:35.392Z</time></trkpt><trkpt lat="44.3508725" lon="8.2968834"><ele>369.75</ele><time>2026-05-03T15:44:36.392Z</time></trkpt><trkpt lat="44.3509548" lon="8.2967222"><ele>369.0</ele><time>2026-05-03T15:44:37.393Z</time></trkpt><trkpt lat="44.3510241" lon="8.2965521"><ele>368.25</ele><time>2026-05-03T15:44:38.392Z</time></trkpt><trkpt lat="44.3510911" lon="8.2963801"><ele>367.5</ele><time>2026-05-03T15:44:39.392Z</time></trkpt><trkpt lat="44.3511612" lon="8.2962116"><ele>366.75</ele><time>2026-05-03T15:44:40.392Z</time></trkpt><trkpt lat="44.3512445" lon="8.2960518"><ele>366.0</ele><time>2026-05-03T15:44:41.393Z</time></trkpt><trkpt lat="44.3513397" lon="8.2958904"><ele>365.75</ele><time>2026-05-03T15:44:42.393Z</time></trkpt><trkpt lat="44.3514399" lon="8.295741"><ele>365.5</ele><time>2026-05-03T15:44:43.392Z</time></trkpt><trkpt lat="44.3515333" lon="8.2955951"><ele>365.25</ele><time>2026-05-03T15:44:44.393Z</time></trkpt><trkpt lat="44.3516219" lon="8.2954591"><ele>365.0</ele><time>2026-05-03T15:44:45.392Z</time></trkpt><trkpt lat="44.3517096" lon="8.2953335"><ele>365.0</ele><time>2026-05-03T15:44:46.392Z</time></trkpt><trkpt lat="44.351793" lon="8.2952076"><ele>365.0</ele><time>2026-05-03T15:44:47.392Z</time></trkpt><trkpt lat="44.351872" lon="8.2950839"><ele>365.0</ele><time>2026-05-03T15:44:48.393Z</time></trkpt><trkpt lat="44.3519509" lon="8.2949676"><ele>365.0</ele><time>2026-05-03T15:44:49.392Z</time></trkpt><trkpt lat="44.3520291" lon="8.2948514"><ele>364.75</ele><time>2026-05-03T15:44:50.392Z</time></trkpt><trkpt lat="44.3521134" lon="8.2947332"><ele>364.5</ele><time>2026-05-03T15:44:51.393Z</time></trkpt><trkpt lat="44.3522043" lon="8.294612"><ele>364.25</ele><time>2026-05-03T15:44:52.392Z</time></trkpt><trkpt lat="44.3522987" lon="8.2944874"><ele>364.0</ele><time>2026-05-03T15:44:53.392Z</time></trkpt><trkpt lat="44.3523955" lon="8.2943571"><ele>364.0</ele><time>2026-05-03T15:44:54.392Z</time></trkpt><trkpt lat="44.352491" lon="8.294215"><ele>364.0</ele><time>2026-05-03T15:44:55.392Z</time></trkpt><trkpt lat="44.3525903" lon="8.2940732"><ele>364.0</ele><time>2026-05-03T15:44:56.392Z</time></trkpt><trkpt lat="44.3526888" lon="8.2939302"><ele>364.0</ele><time>2026-05-03T15:44:57.392Z</time></trkpt><trkpt lat="44.3527926" lon="8.2937807"><ele>363.75</ele><time>2026-05-03T15:44:58.393Z</time></trkpt><trkpt lat="44.3528929" lon="8.2936416"><ele>363.5</ele><time>2026-05-03T15:44:59.393Z</time></trkpt><trkpt lat="44.3529964" lon="8.293512"><ele>363.25</ele><time>2026-05-03T15:45:00.393Z</time></trkpt><trkpt lat="44.3531039" lon="8.2933907"><ele>363.0</ele><time>2026-05-03T15:45:01.393Z</time></trkpt><trkpt lat="44.3532148" lon="8.293282"><ele>363.0</ele><time>2026-05-03T15:45:02.392Z</time></trkpt><trkpt lat="44.3533227" lon="8.2931802"><ele>363.0</ele><time>2026-05-03T15:45:03.392Z</time></trkpt><trkpt lat="44.353441" lon="8.293096"><ele>363.0</ele><time>2026-05-03T15:45:04.392Z</time></trkpt><trkpt lat="44.3535606" lon="8.293008"><ele>363.0</ele><time>2026-05-03T15:45:05.393Z</time></trkpt><trkpt lat="44.3536817" lon="8.2929335"><ele>363.0</ele><time>2026-05-03T15:45:06.392Z</time></trkpt><trkpt lat="44.3538026" lon="8.292865"><ele>363.0</ele><time>2026-05-03T15:45:07.392Z</time></trkpt><trkpt lat="44.3539255" lon="8.2927971"><ele>363.0</ele><time>2026-05-03T15:45:08.392Z</time></trkpt><trkpt lat="44.3540504" lon="8.2927329"><ele>363.0</ele><time>2026-05-03T15:45:09.392Z</time></trkpt><trkpt lat="44.3541793" lon="8.2926661"><ele>363.0</ele><time>2026-05-03T15:45:10.393Z</time></trkpt><trkpt lat="44.3543084" lon="8.2926037"><ele>363.0</ele><time>2026-05-03T15:45:11.393Z</time></trkpt><trkpt lat="44.3544415" lon="8.292541"><ele>363.0</ele><time>2026-05-03T15:45:12.392Z</time></trkpt><trkpt lat="44.3545687" lon="8.2924785"><ele>363.0</ele><time>2026-05-03T15:45:13.393Z</time></trkpt><trkpt lat="44.3546918" lon="8.2924153"><ele>362.75</ele><time>2026-05-03T15:45:14.392Z</time></trkpt><trkpt lat="44.354813" lon="8.2923599"><ele>362.5</ele><time>2026-05-03T15:45:15.393Z</time></trkpt><trkpt lat="44.3549282" lon="8.2923006"><ele>362.25</ele><time>2026-05-03T15:45:16.392Z</time></trkpt><trkpt lat="44.3550371" lon="8.2922505"><ele>362.0</ele><time>2026-05-03T15:45:17.392Z</time></trkpt><trkpt lat="44.3551404" lon="8.2921999"><ele>362.0</ele><time>2026-05-03T15:45:18.392Z</time></trkpt><trkpt lat="44.3552441" lon="8.292148"><ele>362.0</ele><time>2026-05-03T15:45:19.392Z</time></trkpt><trkpt lat="44.355351" lon="8.2920963"><ele>362.0</ele><time>2026-05-03T15:45:20.392Z</time></trkpt><trkpt lat="44.3554652" lon="8.2920459"><ele>362.0</ele><time>2026-05-03T15:45:21.392Z</time></trkpt><trkpt lat="44.3555821" lon="8.2919959"><ele>361.75</ele><time>2026-05-03T15:45:22.392Z</time></trkpt><trkpt lat="44.3556972" lon="8.2919412"><ele>361.5</ele><time>2026-05-03T15:45:23.393Z</time></trkpt><trkpt lat="44.3558178" lon="8.2918897"><ele>361.25</ele><time>2026-05-03T15:45:24.392Z</time></trkpt><trkpt lat="44.3559422" lon="8.2918431"><ele>361.0</ele><time>2026-05-03T15:45:25.392Z</time></trkpt><trkpt lat="44.356073" lon="8.2918264"><ele>361.0</ele><time>2026-05-03T15:45:26.392Z</time></trkpt><trkpt lat="44.3562065" lon="8.2918215"><ele>361.0</ele><time>2026-05-03T15:45:27.393Z</time></trkpt><trkpt lat="44.3563353" lon="8.2918318"><ele>361.0</ele><time>2026-05-03T15:45:28.392Z</time></trkpt><trkpt lat="44.3564669" lon="8.2918636"><ele>361.0</ele><time>2026-05-03T15:45:29.393Z</time></trkpt><trkpt lat="44.3566042" lon="8.2919061"><ele>360.75</ele><time>2026-05-03T15:45:30.393Z</time></trkpt><trkpt lat="44.3567444" lon="8.2919509"><ele>360.5</ele><time>2026-05-03T15:45:31.392Z</time></trkpt><trkpt lat="44.35689" lon="8.2919928"><ele>360.25</ele><time>2026-05-03T15:45:32.392Z</time></trkpt><trkpt lat="44.3570327" lon="8.2920268"><ele>360.0</ele><time>2026-05-03T15:45:33.392Z</time></trkpt><trkpt lat="44.3571673" lon="8.2920529"><ele>358.75</ele><time>2026-05-03T15:45:34.392Z</time></trkpt><trkpt lat="44.3573044" lon="8.2920624"><ele>357.5</ele><time>2026-05-03T15:45:35.393Z</time></trkpt><trkpt lat="44.3574465" lon="8.2920675"><ele>356.25</ele><time>2026-05-03T15:45:36.392Z</time></trkpt><trkpt lat="44.3575904" lon="8.2920729"><ele>355.0</ele><time>2026-05-03T15:45:37.392Z</time></trkpt><trkpt lat="44.3577424" lon="8.2920768"><ele>355.0</ele><time>2026-05-03T15:45:38.392Z</time></trkpt><trkpt lat="44.3578993" lon="8.2920771"><ele>355.0</ele><time>2026-05-03T15:45:39.393Z</time></trkpt><trkpt lat="44.3580567" lon="8.2920769"><ele>355.0</ele><time>2026-05-03T15:45:40.392Z</time></trkpt><trkpt lat="44.3582156" lon="8.29208"><ele>354.0</ele><time>2026-05-03T15:45:41.392Z</time></trkpt><trkpt lat="44.3583772" lon="8.2920809"><ele>353.0</ele><time>2026-05-03T15:45:42.393Z</time></trkpt><trkpt lat="44.3585393" lon="8.2920786"><ele>352.0</ele><time>2026-05-03T15:45:43.392Z</time></trkpt><trkpt lat="44.3587006" lon="8.2920845"><ele>352.0</ele><time>2026-05-03T15:45:44.392Z</time></trkpt><trkpt lat="44.3588526" lon="8.2920891"><ele>352.0</ele><time>2026-05-03T15:45:45.392Z</time></trkpt><trkpt lat="44.3589964" lon="8.2920883"><ele>352.0</ele><time>2026-05-03T15:45:46.393Z</time></trkpt><trkpt lat="44.3591357" lon="8.29209"><ele>352.0</ele><time>2026-05-03T15:45:47.392Z</time></trkpt><trkpt lat="44.3592673" lon="8.2920882"><ele>352.0</ele><time>2026-05-03T15:45:48.392Z</time></trkpt><trkpt lat="44.3593873" lon="8.2920854"><ele>352.0</ele><time>2026-05-03T15:45:49.392Z</time></trkpt><trkpt lat="44.3594948" lon="8.2920811"><ele>352.0</ele><time>2026-05-03T15:45:50.392Z</time></trkpt><trkpt lat="44.3596045" lon="8.2920776"><ele>352.0</ele><time>2026-05-03T15:45:51.393Z</time></trkpt><trkpt lat="44.3597106" lon="8.2920746"><ele>352.0</ele><time>2026-05-03T15:45:52.393Z</time></trkpt><trkpt lat="44.3598192" lon="8.2920738"><ele>351.40000000000003</ele><time>2026-05-03T15:45:53.392Z</time></trkpt><trkpt lat="44.3599317" lon="8.2920782"><ele>350.8</ele><time>2026-05-03T15:45:54.393Z</time></trkpt><trkpt lat="44.3600465" lon="8.2920789"><ele>350.2</ele><time>2026-05-03T15:45:55.392Z</time></trkpt><trkpt lat="44.3601544" lon="8.2920772"><ele>349.6</ele><time>2026-05-03T15:45:56.392Z</time></trkpt><trkpt lat="44.3602642" lon="8.292082"><ele>349.0</ele><time>2026-05-03T15:45:57.392Z</time></trkpt><trkpt lat="44.360372" lon="8.2920834"><ele>349.0</ele><time>2026-05-03T15:45:58.393Z</time></trkpt><trkpt lat="44.3604773" lon="8.2920845"><ele>349.0</ele><time>2026-05-03T15:45:59.392Z</time></trkpt><trkpt lat="44.3605853" lon="8.2920891"><ele>349.0</ele><time>2026-05-03T15:46:00.392Z</time></trkpt><trkpt lat="44.3606963" lon="8.2920971"><ele>349.0</ele><time>2026-05-03T15:46:01.392Z</time></trkpt><trkpt lat="44.3608066" lon="8.2920961"><ele>349.0</ele><time>2026-05-03T15:46:02.392Z</time></trkpt><trkpt lat="44.3609066" lon="8.2920699"><ele>348.79999999999995</ele><time>2026-05-03T15:46:03.392Z</time></trkpt><trkpt lat="44.3609984" lon="8.2920174"><ele>348.59999999999997</ele><time>2026-05-03T15:46:04.392Z</time></trkpt><trkpt lat="44.361084" lon="8.2919428"><ele>348.4</ele><time>2026-05-03T15:46:05.392Z</time></trkpt><trkpt lat="44.3611641" lon="8.2918462"><ele>348.2</ele><time>2026-05-03T15:46:06.392Z</time></trkpt><trkpt lat="44.3612387" lon="8.2917379"><ele>348.0</ele><time>2026-05-03T15:46:07.393Z</time></trkpt><trkpt lat="44.361311" lon="8.2916264"><ele>348.0</ele><time>2026-05-03T15:46:08.392Z</time></trkpt><trkpt lat="44.3613869" lon="8.2915173"><ele>348.0</ele><time>2026-05-03T15:46:09.393Z</time></trkpt><trkpt lat="44.3614604" lon="8.2914089"><ele>348.0</ele><time>2026-05-03T15:46:10.392Z</time></trkpt><trkpt lat="44.3615317" lon="8.2912985"><ele>348.0</ele><time>2026-05-03T15:46:11.393Z</time></trkpt><trkpt lat="44.361598" lon="8.2911881"><ele>348.0</ele><time>2026-05-03T15:46:12.392Z</time></trkpt><trkpt lat="44.3616667" lon="8.2910777"><ele>348.0</ele><time>2026-05-03T15:46:13.392Z</time></trkpt><trkpt lat="44.3617332" lon="8.2909725"><ele>348.0</ele><time>2026-05-03T15:46:14.392Z</time></trkpt><trkpt lat="44.3617995" lon="8.2908747"><ele>348.0</ele><time>2026-05-03T15:46:15.392Z</time></trkpt><trkpt lat="44.3618724" lon="8.290786"><ele>348.0</ele><time>2026-05-03T15:46:16.393Z</time></trkpt><trkpt lat="44.3619569" lon="8.2907141"><ele>348.0</ele><time>2026-05-03T15:46:17.393Z</time></trkpt><trkpt lat="44.3620528" lon="8.2906613"><ele>348.0</ele><time>2026-05-03T15:46:18.392Z</time></trkpt><trkpt lat="44.3621559" lon="8.2906227"><ele>348.0</ele><time>2026-05-03T15:46:19.392Z</time></trkpt><trkpt lat="44.3622638" lon="8.2906025"><ele>348.0</ele><time>2026-05-03T15:46:20.392Z</time></trkpt><trkpt lat="44.3623681" lon="8.2905919"><ele>348.0</ele><time>2026-05-03T15:46:21.393Z</time></trkpt><trkpt lat="44.3624731" lon="8.2905812"><ele>348.0</ele><time>2026-05-03T15:46:22.393Z</time></trkpt><trkpt lat="44.3625668" lon="8.2905752"><ele>347.8333333333333</ele><time>2026-05-03T15:46:23.393Z</time></trkpt><trkpt lat="44.3626529" lon="8.2905689"><ele>347.6666666666667</ele><time>2026-05-03T15:46:24.392Z</time></trkpt><trkpt lat="44.362729" lon="8.2905589"><ele>347.5</ele><time>2026-05-03T15:46:25.392Z</time></trkpt><trkpt lat="44.3628006" lon="8.2905498"><ele>347.33333333333337</ele><time>2026-05-03T15:46:26.392Z</time></trkpt><trkpt lat="44.3628675" lon="8.2905378"><ele>347.1666666666667</ele><time>2026-05-03T15:46:27.392Z</time></trkpt><trkpt lat="44.3629314" lon="8.2905267"><ele>347.0</ele><time>2026-05-03T15:46:28.392Z</time></trkpt><trkpt lat="44.3630503" lon="8.2904916"><ele>347.33333333333337</ele><time>2026-05-03T15:46:30.392Z</time></trkpt><trkpt lat="44.363115" lon="8.2904775"><ele>347.6666666666667</ele><time>2026-05-03T15:46:31.392Z</time></trkpt><trkpt lat="44.3632232" lon="8.2904317"><ele>348.0</ele><time>2026-05-03T15:46:33.392Z</time></trkpt><trkpt lat="44.3632288" lon="8.2902902"><ele>348.3333333333333</ele><time>2026-05-03T15:46:35.392Z</time></trkpt><trkpt lat="44.3631816" lon="8.2902116"><ele>348.66666666666663</ele><time>2026-05-03T15:46:36.393Z</time></trkpt><trkpt lat="44.3631336" lon="8.2901301"><ele>349.0</ele><time>2026-05-03T15:46:37.392Z</time></trkpt><trkpt lat="44.3630766" lon="8.2900375"><ele>348.6</ele><time>2026-05-03T15:46:38.392Z</time></trkpt><trkpt lat="44.3630123" lon="8.2899362"><ele>348.2</ele><time>2026-05-03T15:46:39.392Z</time></trkpt><trkpt lat="44.3629533" lon="8.2898284"><ele>347.8</ele><time>2026-05-03T15:46:40.392Z</time></trkpt><trkpt lat="44.3628938" lon="8.2897232"><ele>347.40000000000003</ele><time>2026-05-03T15:46:41.392Z</time></trkpt><trkpt lat="44.3628347" lon="8.2896211"><ele>347.0</ele><time>2026-05-03T15:46:42.393Z</time></trkpt><trkpt lat="44.3627748" lon="8.2895176"><ele>347.6</ele><time>2026-05-03T15:46:43.393Z</time></trkpt><trkpt lat="44.3627336" lon="8.2893835"><ele>348.20000000000005</ele><time>2026-05-03T15:46:44.392Z</time></trkpt><trkpt lat="44.3626964" lon="8.2892469"><ele>348.8</ele><time>2026-05-03T15:46:45.393Z</time></trkpt><trkpt lat="44.3626639" lon="8.2890854"><ele>349.4</ele><time>2026-05-03T15:46:46.392Z</time></trkpt><trkpt lat="44.3626456" lon="8.2889239"><ele>350.0</ele><time>2026-05-03T15:46:47.393Z</time></trkpt><trkpt lat="44.3626515" lon="8.2887528"><ele>350.0</ele><time>2026-05-03T15:46:48.393Z</time></trkpt><trkpt lat="44.3626719" lon="8.2885789"><ele>350.0</ele><time>2026-05-03T15:46:49.393Z</time></trkpt><trkpt lat="44.3626921" lon="8.2883942"><ele>350.0</ele><time>2026-05-03T15:46:50.392Z</time></trkpt><trkpt lat="44.3627163" lon="8.2882101"><ele>350.0</ele><time>2026-05-03T15:46:51.392Z</time></trkpt><trkpt lat="44.3627392" lon="8.2880295"><ele>350.75</ele><time>2026-05-03T15:46:52.392Z</time></trkpt><trkpt lat="44.3627664" lon="8.2878448"><ele>351.5</ele><time>2026-05-03T15:46:53.393Z</time></trkpt><trkpt lat="44.3627927" lon="8.2876645"><ele>352.25</ele><time>2026-05-03T15:46:54.392Z</time></trkpt><trkpt lat="44.3628111" lon="8.2874934"><ele>353.0</ele><time>2026-05-03T15:46:55.392Z</time></trkpt><trkpt lat="44.3628299" lon="8.2873336"><ele>353.75</ele><time>2026-05-03T15:46:56.393Z</time></trkpt><trkpt lat="44.3628489" lon="8.2871756"><ele>354.5</ele><time>2026-05-03T15:46:57.393Z</time></trkpt><trkpt lat="44.3628696" lon="8.2870181"><ele>355.25</ele><time>2026-05-03T15:46:58.392Z</time></trkpt><trkpt lat="44.3628901" lon="8.2868638"><ele>356.0</ele><time>2026-05-03T15:46:59.393Z</time></trkpt><trkpt lat="44.3629084" lon="8.2867126"><ele>356.0</ele><time>2026-05-03T15:47:00.392Z</time></trkpt><trkpt lat="44.3629263" lon="8.286559"><ele>356.0</ele><time>2026-05-03T15:47:01.393Z</time></trkpt><trkpt lat="44.3629416" lon="8.2864178"><ele>356.0</ele><time>2026-05-03T15:47:02.392Z</time></trkpt><trkpt lat="44.3629515" lon="8.2862929"><ele>356.0</ele><time>2026-05-03T15:47:03.392Z</time></trkpt><trkpt lat="44.3629567" lon="8.286178"><ele>356.0</ele><time>2026-05-03T15:47:04.393Z</time></trkpt><trkpt lat="44.3629613" lon="8.2860687"><ele>356.1666666666667</ele><time>2026-05-03T15:47:05.392Z</time></trkpt><trkpt lat="44.3629679" lon="8.2859785"><ele>356.33333333333337</ele><time>2026-05-03T15:47:06.392Z</time></trkpt><trkpt lat="44.3629734" lon="8.2858895"><ele>356.5</ele><time>2026-05-03T15:47:07.392Z</time></trkpt><trkpt lat="44.3629886" lon="8.2857821"><ele>356.6666666666667</ele><time>2026-05-03T15:47:08.392Z</time></trkpt><trkpt lat="44.3630122" lon="8.2856442"><ele>356.8333333333333</ele><time>2026-05-03T15:47:09.393Z</time></trkpt><trkpt lat="44.3630511" lon="8.2854781"><ele>357.0</ele><time>2026-05-03T15:47:10.393Z</time></trkpt><trkpt lat="44.3630965" lon="8.2852924"><ele>357.3333333333333</ele><time>2026-05-03T15:47:11.392Z</time></trkpt><trkpt lat="44.3631333" lon="8.2850885"><ele>357.66666666666663</ele><time>2026-05-03T15:47:12.392Z</time></trkpt><trkpt lat="44.3631632" lon="8.2848664"><ele>358.0</ele><time>2026-05-03T15:47:13.392Z</time></trkpt><trkpt lat="44.3631905" lon="8.2846279"><ele>358.0</ele><time>2026-05-03T15:47:14.392Z</time></trkpt><trkpt lat="44.3632204" lon="8.284368"><ele>358.0</ele><time>2026-05-03T15:47:15.392Z</time></trkpt><trkpt lat="44.3632568" lon="8.2841052"><ele>358.0</ele><time>2026-05-03T15:47:16.392Z</time></trkpt><trkpt lat="44.3632965" lon="8.2838335"><ele>358.0</ele><time>2026-05-03T15:47:17.392Z</time></trkpt><trkpt lat="44.3633325" lon="8.2835503"><ele>358.0</ele><time>2026-05-03T15:47:18.393Z</time></trkpt><trkpt lat="44.3633686" lon="8.2832519"><ele>358.0</ele><time>2026-05-03T15:47:19.392Z</time></trkpt><trkpt lat="44.3634086" lon="8.2829418"><ele>359.5</ele><time>2026-05-03T15:47:20.392Z</time></trkpt><trkpt lat="44.3634525" lon="8.2826213"><ele>361.0</ele><time>2026-05-03T15:47:21.393Z</time></trkpt><trkpt lat="44.3634962" lon="8.2823022"><ele>361.0</ele><time>2026-05-03T15:47:22.392Z</time></trkpt><trkpt lat="44.3635358" lon="8.2819921"><ele>361.0</ele><time>2026-05-03T15:47:23.392Z</time></trkpt><trkpt lat="44.3635766" lon="8.2816785"><ele>362.0</ele><time>2026-05-03T15:47:24.392Z</time></trkpt><trkpt lat="44.3636188" lon="8.281362"><ele>363.0</ele><time>2026-05-03T15:47:25.393Z</time></trkpt><trkpt lat="44.3636648" lon="8.2810467"><ele>363.0</ele><time>2026-05-03T15:47:26.392Z</time></trkpt><trkpt lat="44.3637087" lon="8.2807376"><ele>363.0</ele><time>2026-05-03T15:47:27.392Z</time></trkpt><trkpt lat="44.3637497" lon="8.2804302"><ele>363.0</ele><time>2026-05-03T15:47:28.392Z</time></trkpt><trkpt lat="44.3637919" lon="8.2801308"><ele>363.6666666666667</ele><time>2026-05-03T15:47:29.392Z</time></trkpt><trkpt lat="44.3638291" lon="8.2798334"><ele>364.33333333333337</ele><time>2026-05-03T15:47:30.392Z</time></trkpt><trkpt lat="44.3638603" lon="8.2795345"><ele>365.0</ele><time>2026-05-03T15:47:31.393Z</time></trkpt><trkpt lat="44.3638825" lon="8.2792339"><ele>366.6666666666667</ele><time>2026-05-03T15:47:32.392Z</time></trkpt><trkpt lat="44.3638907" lon="8.2789392"><ele>368.3333333333333</ele><time>2026-05-03T15:47:33.393Z</time></trkpt><trkpt lat="44.3638881" lon="8.278656"><ele>370.0</ele><time>2026-05-03T15:47:34.393Z</time></trkpt><trkpt lat="44.363876" lon="8.2783892"><ele>369.66666666666663</ele><time>2026-05-03T15:47:35.393Z</time></trkpt><trkpt lat="44.3638589" lon="8.27814"><ele>369.3333333333333</ele><time>2026-05-03T15:47:36.392Z</time></trkpt><trkpt lat="44.3638421" lon="8.277906"><ele>369.0</ele><time>2026-05-03T15:47:37.393Z</time></trkpt><trkpt lat="44.3638289" lon="8.2776647"><ele>369.0</ele><time>2026-05-03T15:47:38.392Z</time></trkpt><trkpt lat="44.3638182" lon="8.2774105"><ele>369.0</ele><time>2026-05-03T15:47:39.393Z</time></trkpt><trkpt lat="44.3638029" lon="8.2771481"><ele>369.0</ele><time>2026-05-03T15:47:40.392Z</time></trkpt><trkpt lat="44.3637887" lon="8.2768816"><ele>368.6666666666667</ele><time>2026-05-03T15:47:41.392Z</time></trkpt><trkpt lat="44.3637737" lon="8.2766137"><ele>368.33333333333337</ele><time>2026-05-03T15:47:42.393Z</time></trkpt><trkpt lat="44.3637581" lon="8.2763474"><ele>368.0</ele><time>2026-05-03T15:47:43.392Z</time></trkpt><trkpt lat="44.363745" lon="8.2760858"><ele>369.0</ele><time>2026-05-03T15:47:44.393Z</time></trkpt><trkpt lat="44.3637354" lon="8.2758343"><ele>370.0</ele><time>2026-05-03T15:47:45.393Z</time></trkpt><trkpt lat="44.3637451" lon="8.2755851"><ele>371.0</ele><time>2026-05-03T15:47:46.393Z</time></trkpt><trkpt lat="44.363788" lon="8.275335"><ele>372.6666666666667</ele><time>2026-05-03T15:47:47.393Z</time></trkpt><trkpt lat="44.3638502" lon="8.2750844"><ele>374.3333333333333</ele><time>2026-05-03T15:47:48.392Z</time></trkpt><trkpt lat="44.3639093" lon="8.2748338"><ele>376.0</ele><time>2026-05-03T15:47:49.392Z</time></trkpt><trkpt lat="44.3639624" lon="8.2745818"><ele>377.66666666666663</ele><time>2026-05-03T15:47:50.393Z</time></trkpt><trkpt lat="44.3640145" lon="8.2743291"><ele>379.3333333333333</ele><time>2026-05-03T15:47:51.393Z</time></trkpt><trkpt lat="44.3640682" lon="8.2740874"><ele>381.0</ele><time>2026-05-03T15:47:52.392Z</time></trkpt><trkpt lat="44.3641164" lon="8.2738592"><ele>381.0</ele><time>2026-05-03T15:47:53.392Z</time></trkpt><trkpt lat="44.3641646" lon="8.2736352"><ele>381.0</ele><time>2026-05-03T15:47:54.392Z</time></trkpt><trkpt lat="44.3642106" lon="8.2734138"><ele>381.0</ele><time>2026-05-03T15:47:55.392Z</time></trkpt><trkpt lat="44.364258" lon="8.2731926"><ele>381.6666666666667</ele><time>2026-05-03T15:47:56.392Z</time></trkpt><trkpt lat="44.3643069" lon="8.2729753"><ele>382.33333333333337</ele><time>2026-05-03T15:47:57.392Z</time></trkpt><trkpt lat="44.3643575" lon="8.2727582"><ele>383.0</ele><time>2026-05-03T15:47:58.392Z</time></trkpt><trkpt lat="44.3644062" lon="8.272535"><ele>383.0</ele><time>2026-05-03T15:47:59.392Z</time></trkpt><trkpt lat="44.3644554" lon="8.2723098"><ele>383.0</ele><time>2026-05-03T15:48:00.393Z</time></trkpt><trkpt lat="44.3645023" lon="8.272087"><ele>383.0</ele><time>2026-05-03T15:48:01.392Z</time></trkpt><trkpt lat="44.3645533" lon="8.2718682"><ele>383.0</ele><time>2026-05-03T15:48:02.392Z</time></trkpt><trkpt lat="44.3646035" lon="8.2716425"><ele>383.0</ele><time>2026-05-03T15:48:03.393Z</time></trkpt><trkpt lat="44.364652" lon="8.2714217"><ele>383.0</ele><time>2026-05-03T15:48:04.392Z</time></trkpt><trkpt lat="44.3646995" lon="8.2711958"><ele>384.0</ele><time>2026-05-03T15:48:05.392Z</time></trkpt><trkpt lat="44.3647478" lon="8.270974"><ele>385.0</ele><time>2026-05-03T15:48:06.392Z</time></trkpt><trkpt lat="44.3647945" lon="8.2707554"><ele>386.0</ele><time>2026-05-03T15:48:07.392Z</time></trkpt><trkpt lat="44.3648422" lon="8.2705448"><ele>386.0</ele><time>2026-05-03T15:48:08.392Z</time></trkpt><trkpt lat="44.3648878" lon="8.2703367"><ele>386.0</ele><time>2026-05-03T15:48:09.392Z</time></trkpt><trkpt lat="44.3649348" lon="8.2701297"><ele>386.0</ele><time>2026-05-03T15:48:10.392Z</time></trkpt><trkpt lat="44.3649799" lon="8.2699194"><ele>386.0</ele><time>2026-05-03T15:48:11.393Z</time></trkpt><trkpt lat="44.3650259" lon="8.2697116"><ele>386.0</ele><time>2026-05-03T15:48:12.392Z</time></trkpt><trkpt lat="44.3650734" lon="8.2695046"><ele>386.0</ele><time>2026-05-03T15:48:13.393Z</time></trkpt><trkpt lat="44.3651203" lon="8.2692988"><ele>386.0</ele><time>2026-05-03T15:48:14.392Z</time></trkpt><trkpt lat="44.3651665" lon="8.2690892"><ele>386.0</ele><time>2026-05-03T15:48:15.392Z</time></trkpt><trkpt lat="44.3652098" lon="8.2688866"><ele>386.0</ele><time>2026-05-03T15:48:16.392Z</time></trkpt><trkpt lat="44.3652549" lon="8.2686906"><ele>385.75</ele><time>2026-05-03T15:48:17.392Z</time></trkpt><trkpt lat="44.3652969" lon="8.2685021"><ele>385.5</ele><time>2026-05-03T15:48:18.392Z</time></trkpt><trkpt lat="44.3653394" lon="8.268321"><ele>385.25</ele><time>2026-05-03T15:48:19.392Z</time></trkpt><trkpt lat="44.3653759" lon="8.2681489"><ele>385.0</ele><time>2026-05-03T15:48:20.392Z</time></trkpt><trkpt lat="44.3654112" lon="8.2679879"><ele>385.6</ele><time>2026-05-03T15:48:21.392Z</time></trkpt><trkpt lat="44.3654465" lon="8.267836"><ele>386.2</ele><time>2026-05-03T15:48:22.392Z</time></trkpt><trkpt lat="44.3654801" lon="8.2676972"><ele>386.79999999999995</ele><time>2026-05-03T15:48:23.393Z</time></trkpt><trkpt lat="44.3655118" lon="8.2675635"><ele>387.4</ele><time>2026-05-03T15:48:24.392Z</time></trkpt><trkpt lat="44.3655405" lon="8.2674327"><ele>388.0</ele><time>2026-05-03T15:48:25.393Z</time></trkpt><trkpt lat="44.3655695" lon="8.2672918"><ele>389.4</ele><time>2026-05-03T15:48:26.392Z</time></trkpt><trkpt lat="44.3655996" lon="8.267151"><ele>390.79999999999995</ele><time>2026-05-03T15:48:27.392Z</time></trkpt><trkpt lat="44.3656334" lon="8.2670113"><ele>392.2</ele><time>2026-05-03T15:48:28.392Z</time></trkpt><trkpt lat="44.3656614" lon="8.2668736"><ele>393.6</ele><time>2026-05-03T15:48:29.393Z</time></trkpt><trkpt lat="44.3656871" lon="8.2667406"><ele>395.0</ele><time>2026-05-03T15:48:30.392Z</time></trkpt><trkpt lat="44.365717" lon="8.2666074"><ele>395.0</ele><time>2026-05-03T15:48:31.392Z</time></trkpt><trkpt lat="44.3657507" lon="8.2664669"><ele>395.0</ele><time>2026-05-03T15:48:32.392Z</time></trkpt><trkpt lat="44.3657863" lon="8.266318"><ele>395.0</ele><time>2026-05-03T15:48:33.392Z</time></trkpt><trkpt lat="44.3658215" lon="8.2661749"><ele>395.0</ele><time>2026-05-03T15:48:34.392Z</time></trkpt><trkpt lat="44.3658546" lon="8.2660238"><ele>395.0</ele><time>2026-05-03T15:48:35.393Z</time></trkpt><trkpt lat="44.3658885" lon="8.2658688"><ele>394.75</ele><time>2026-05-03T15:48:36.393Z</time></trkpt><trkpt lat="44.3659174" lon="8.2657115"><ele>394.5</ele><time>2026-05-03T15:48:37.392Z</time></trkpt><trkpt lat="44.3659505" lon="8.2655554"><ele>394.25</ele><time>2026-05-03T15:48:38.392Z</time></trkpt><trkpt lat="44.3659876" lon="8.2654001"><ele>394.0</ele><time>2026-05-03T15:48:39.392Z</time></trkpt><trkpt lat="44.3660185" lon="8.2652451"><ele>394.0</ele><time>2026-05-03T15:48:40.393Z</time></trkpt><trkpt lat="44.3660539" lon="8.265088"><ele>394.0</ele><time>2026-05-03T15:48:41.392Z</time></trkpt><trkpt lat="44.3660902" lon="8.2649332"><ele>394.0</ele><time>2026-05-03T15:48:42.392Z</time></trkpt><trkpt lat="44.3661272" lon="8.2647802"><ele>394.0</ele><time>2026-05-03T15:48:43.392Z</time></trkpt><trkpt lat="44.3661632" lon="8.264628"><ele>394.79999999999995</ele><time>2026-05-03T15:48:44.392Z</time></trkpt><trkpt lat="44.3661952" lon="8.2644791"><ele>395.59999999999997</ele><time>2026-05-03T15:48:45.393Z</time></trkpt><trkpt lat="44.3662299" lon="8.2643333"><ele>396.4</ele><time>2026-05-03T15:48:46.393Z</time></trkpt><trkpt lat="44.3662611" lon="8.2641884"><ele>397.2</ele><time>2026-05-03T15:48:47.393Z</time></trkpt><trkpt lat="44.366293" lon="8.2640531"><ele>398.0</ele><time>2026-05-03T15:48:48.393Z</time></trkpt><trkpt lat="44.3663247" lon="8.2639166"><ele>398.59999999999997</ele><time>2026-05-03T15:48:49.392Z</time></trkpt><trkpt lat="44.3663531" lon="8.263774"><ele>399.2</ele><time>2026-05-03T15:48:50.392Z</time></trkpt><trkpt lat="44.3663777" lon="8.2636377"><ele>399.8</ele><time>2026-05-03T15:48:51.392Z</time></trkpt><trkpt lat="44.3664056" lon="8.2635005"><ele>400.4</ele><time>2026-05-03T15:48:52.392Z</time></trkpt><trkpt lat="44.3664396" lon="8.2633417"><ele>401.0</ele><time>2026-05-03T15:48:53.392Z</time></trkpt><trkpt lat="44.3664721" lon="8.2631522"><ele>401.0</ele><time>2026-05-03T15:48:54.393Z</time></trkpt><trkpt lat="44.366507" lon="8.2629553"><ele>401.0</ele><time>2026-05-03T15:48:55.393Z</time></trkpt><trkpt lat="44.3665464" lon="8.2627306"><ele>401.0</ele><time>2026-05-03T15:48:56.392Z</time></trkpt><trkpt lat="44.3665975" lon="8.2624845"><ele>403.3333333333333</ele><time>2026-05-03T15:48:57.392Z</time></trkpt><trkpt lat="44.3666547" lon="8.2622137"><ele>405.66666666666663</ele><time>2026-05-03T15:48:58.393Z</time></trkpt><trkpt lat="44.3667022" lon="8.2619322"><ele>408.0</ele><time>2026-05-03T15:48:59.392Z</time></trkpt><trkpt lat="44.3667461" lon="8.2616514"><ele>407.0</ele><time>2026-05-03T15:49:00.393Z</time></trkpt><trkpt lat="44.3667883" lon="8.2613614"><ele>406.0</ele><time>2026-05-03T15:49:01.392Z</time></trkpt><trkpt lat="44.3668332" lon="8.2610712"><ele>405.0</ele><time>2026-05-03T15:49:02.392Z</time></trkpt><trkpt lat="44.3668769" lon="8.260784"><ele>405.66666666666663</ele><time>2026-05-03T15:49:03.392Z</time></trkpt><trkpt lat="44.366921" lon="8.2604984"><ele>406.3333333333333</ele><time>2026-05-03T15:49:04.392Z</time></trkpt><trkpt lat="44.366967" lon="8.2602144"><ele>407.0</ele><time>2026-05-03T15:49:05.392Z</time></trkpt><trkpt lat="44.3670118" lon="8.2599351"><ele>407.66666666666663</ele><time>2026-05-03T15:49:06.393Z</time></trkpt><trkpt lat="44.367056" lon="8.2596585"><ele>408.33333333333337</ele><time>2026-05-03T15:49:07.393Z</time></trkpt><trkpt lat="44.3670981" lon="8.25939"><ele>409.0</ele><time>2026-05-03T15:49:08.392Z</time></trkpt><trkpt lat="44.367141" lon="8.2591345"><ele>410.6666666666667</ele><time>2026-05-03T15:49:09.392Z</time></trkpt><trkpt lat="44.36718" lon="8.2588995"><ele>412.33333333333337</ele><time>2026-05-03T15:49:10.393Z</time></trkpt><trkpt lat="44.3672105" lon="8.2586735"><ele>414.0</ele><time>2026-05-03T15:49:11.392Z</time></trkpt><trkpt lat="44.3672095" lon="8.2584546"><ele>414.0</ele><time>2026-05-03T15:49:12.392Z</time></trkpt><trkpt lat="44.3671744" lon="8.2582335"><ele>414.0</ele><time>2026-05-03T15:49:13.392Z</time></trkpt><trkpt lat="44.3671086" lon="8.2580124"><ele>414.0</ele><time>2026-05-03T15:49:14.392Z</time></trkpt><trkpt lat="44.3670311" lon="8.2577904"><ele>415.66666666666663</ele><time>2026-05-03T15:49:15.393Z</time></trkpt><trkpt lat="44.3669397" lon="8.2575889"><ele>417.3333333333333</ele><time>2026-05-03T15:49:16.392Z</time></trkpt><trkpt lat="44.3668256" lon="8.2574245"><ele>419.0</ele><time>2026-05-03T15:49:17.393Z</time></trkpt><trkpt lat="44.3667005" lon="8.2572914"><ele>421.25</ele><time>2026-05-03T15:49:18.392Z</time></trkpt><trkpt lat="44.36659" lon="8.2571723"><ele>423.5</ele><time>2026-05-03T15:49:19.392Z</time></trkpt><trkpt lat="44.3665027" lon="8.2570218"><ele>425.75</ele><time>2026-05-03T15:49:20.392Z</time></trkpt><trkpt lat="44.3664474" lon="8.256843"><ele>428.0</ele><time>2026-05-03T15:49:21.393Z</time></trkpt><trkpt lat="44.3664182" lon="8.2566374"><ele>428.0</ele><time>2026-05-03T15:49:22.392Z</time></trkpt><trkpt lat="44.3663924" lon="8.2564195"><ele>428.0</ele><time>2026-05-03T15:49:23.389Z</time></trkpt><trkpt lat="44.3663587" lon="8.256197"><ele>428.0</ele><time>2026-05-03T15:49:24.392Z</time></trkpt><trkpt lat="44.3663247" lon="8.2559757"><ele>428.0</ele><time>2026-05-03T15:49:25.393Z</time></trkpt><trkpt lat="44.3662947" lon="8.2557666"><ele>428.0</ele><time>2026-05-03T15:49:26.393Z</time></trkpt><trkpt lat="44.3662656" lon="8.2555561"><ele>428.0</ele><time>2026-05-03T15:49:27.392Z</time></trkpt><trkpt lat="44.3662364" lon="8.2553574"><ele>427.5</ele><time>2026-05-03T15:49:28.393Z</time></trkpt><trkpt lat="44.3661935" lon="8.2551678"><ele>427.0</ele><time>2026-05-03T15:49:29.393Z</time></trkpt><trkpt lat="44.3661293" lon="8.2549861"><ele>426.5</ele><time>2026-05-03T15:49:30.392Z</time></trkpt><trkpt lat="44.3660502" lon="8.2548066"><ele>426.0</ele><time>2026-05-03T15:49:31.392Z</time></trkpt><trkpt lat="44.3659615" lon="8.2546302"><ele>428.0</ele><time>2026-05-03T15:49:32.392Z</time></trkpt><trkpt lat="44.3658692" lon="8.2544565"><ele>430.0</ele><time>2026-05-03T15:49:33.393Z</time></trkpt><trkpt lat="44.3657796" lon="8.2542883"><ele>432.0</ele><time>2026-05-03T15:49:34.392Z</time></trkpt><trkpt lat="44.365696" lon="8.2541239"><ele>434.0</ele><time>2026-05-03T15:49:35.393Z</time></trkpt><trkpt lat="44.3656155" lon="8.2539631"><ele>432.25</ele><time>2026-05-03T15:49:36.392Z</time></trkpt><trkpt lat="44.365539" lon="8.2537971"><ele>430.5</ele><time>2026-05-03T15:49:37.393Z</time></trkpt><trkpt lat="44.3654681" lon="8.2536265"><ele>428.75</ele><time>2026-05-03T15:49:38.392Z</time></trkpt><trkpt lat="44.3653954" lon="8.253451"><ele>427.0</ele><time>2026-05-03T15:49:39.392Z</time></trkpt><trkpt lat="44.36533" lon="8.2532651"><ele>427.5</ele><time>2026-05-03T15:49:40.392Z</time></trkpt><trkpt lat="44.3652743" lon="8.2530718"><ele>428.0</ele><time>2026-05-03T15:49:41.392Z</time></trkpt><trkpt lat="44.3652213" lon="8.2528773"><ele>428.5</ele><time>2026-05-03T15:49:42.392Z</time></trkpt><trkpt lat="44.3651698" lon="8.2526792"><ele>429.0</ele><time>2026-05-03T15:49:43.392Z</time></trkpt><trkpt lat="44.3651252" lon="8.2524581"><ele>430.33333333333337</ele><time>2026-05-03T15:49:44.392Z</time></trkpt><trkpt lat="44.3650822" lon="8.2522042"><ele>431.6666666666667</ele><time>2026-05-03T15:49:45.392Z</time></trkpt><trkpt lat="44.3650433" lon="8.2519285"><ele>433.0</ele><time>2026-05-03T15:49:46.392Z</time></trkpt><trkpt lat="44.3650046" lon="8.2516305"><ele>434.33333333333337</ele><time>2026-05-03T15:49:47.393Z</time></trkpt><trkpt lat="44.3649676" lon="8.251324"><ele>435.66666666666663</ele><time>2026-05-03T15:49:48.392Z</time></trkpt><trkpt lat="44.3649274" lon="8.2510231"><ele>437.0</ele><time>2026-05-03T15:49:49.393Z</time></trkpt><trkpt lat="44.3648858" lon="8.250722"><ele>438.3333333333333</ele><time>2026-05-03T15:49:50.392Z</time></trkpt><trkpt lat="44.3648462" lon="8.2504207"><ele>439.66666666666663</ele><time>2026-05-03T15:49:51.392Z</time></trkpt><trkpt lat="44.3648011" lon="8.2501142"><ele>441.0</ele><time>2026-05-03T15:49:52.392Z</time></trkpt><trkpt lat="44.3647579" lon="8.2498068"><ele>440.0</ele><time>2026-05-03T15:49:53.392Z</time></trkpt><trkpt lat="44.3647145" lon="8.2494998"><ele>439.0</ele><time>2026-05-03T15:49:54.392Z</time></trkpt><trkpt lat="44.3646723" lon="8.2491941"><ele>438.0</ele><time>2026-05-03T15:49:55.392Z</time></trkpt><trkpt lat="44.364629" lon="8.248894"><ele>437.33333333333337</ele><time>2026-05-03T15:49:56.393Z</time></trkpt><trkpt lat="44.364585" lon="8.2485921"><ele>436.6666666666667</ele><time>2026-05-03T15:49:57.392Z</time></trkpt><trkpt lat="44.3645446" lon="8.2482899"><ele>436.0</ele><time>2026-05-03T15:49:58.393Z</time></trkpt><trkpt lat="44.3645016" lon="8.2479971"><ele>437.6666666666667</ele><time>2026-05-03T15:49:59.392Z</time></trkpt><trkpt lat="44.364461" lon="8.2477054"><ele>439.33333333333337</ele><time>2026-05-03T15:50:00.392Z</time></trkpt><trkpt lat="44.3644191" lon="8.2474178"><ele>441.0</ele><time>2026-05-03T15:50:01.392Z</time></trkpt><trkpt lat="44.364382" lon="8.2471353"><ele>441.66666666666663</ele><time>2026-05-03T15:50:02.392Z</time></trkpt><trkpt lat="44.3643448" lon="8.2468575"><ele>442.3333333333333</ele><time>2026-05-03T15:50:03.392Z</time></trkpt><trkpt lat="44.3643065" lon="8.2465827"><ele>443.0</ele><time>2026-05-03T15:50:04.393Z</time></trkpt><trkpt lat="44.3642711" lon="8.2463071"><ele>444.0</ele><time>2026-05-03T15:50:05.392Z</time></trkpt><trkpt lat="44.3642311" lon="8.2460364"><ele>445.0</ele><time>2026-05-03T15:50:06.393Z</time></trkpt><trkpt lat="44.3641951" lon="8.2457652"><ele>446.0</ele><time>2026-05-03T15:50:07.392Z</time></trkpt><trkpt lat="44.3641575" lon="8.2454943"><ele>447.66666666666663</ele><time>2026-05-03T15:50:08.392Z</time></trkpt><trkpt lat="44.3641181" lon="8.2452296"><ele>449.33333333333337</ele><time>2026-05-03T15:50:09.393Z</time></trkpt><trkpt lat="44.3640811" lon="8.2449636"><ele>451.0</ele><time>2026-05-03T15:50:10.393Z</time></trkpt><trkpt lat="44.36404" lon="8.2447021"><ele>452.33333333333337</ele><time>2026-05-03T15:50:11.392Z</time></trkpt><trkpt lat="44.364001" lon="8.244443"><ele>453.66666666666663</ele><time>2026-05-03T15:50:12.392Z</time></trkpt><trkpt lat="44.3639537" lon="8.2441872"><ele>455.0</ele><time>2026-05-03T15:50:13.392Z</time></trkpt><trkpt lat="44.3638989" lon="8.2439233"><ele>454.0</ele><time>2026-05-03T15:50:14.392Z</time></trkpt><trkpt lat="44.3638249" lon="8.2436705"><ele>453.0</ele><time>2026-05-03T15:50:15.392Z</time></trkpt><trkpt lat="44.3637398" lon="8.2434121"><ele>452.0</ele><time>2026-05-03T15:50:16.392Z</time></trkpt><trkpt lat="44.3636393" lon="8.2431652"><ele>454.66666666666663</ele><time>2026-05-03T15:50:17.392Z</time></trkpt><trkpt lat="44.3635251" lon="8.242928"><ele>457.33333333333337</ele><time>2026-05-03T15:50:18.393Z</time></trkpt><trkpt lat="44.363402" lon="8.2426988"><ele>460.0</ele><time>2026-05-03T15:50:19.392Z</time></trkpt><trkpt lat="44.3632705" lon="8.2424766"><ele>460.6666666666667</ele><time>2026-05-03T15:50:20.393Z</time></trkpt><trkpt lat="44.3631298" lon="8.2422678"><ele>461.33333333333337</ele><time>2026-05-03T15:50:21.393Z</time></trkpt><trkpt lat="44.362985" lon="8.2420706"><ele>462.0</ele><time>2026-05-03T15:50:22.393Z</time></trkpt><trkpt lat="44.3628458" lon="8.2418772"><ele>462.0</ele><time>2026-05-03T15:50:23.393Z</time></trkpt><trkpt lat="44.3627215" lon="8.2416878"><ele>462.0</ele><time>2026-05-03T15:50:24.392Z</time></trkpt><trkpt lat="44.3626055" lon="8.2415245"><ele>462.0</ele><time>2026-05-03T15:50:25.392Z</time></trkpt><trkpt lat="44.3625003" lon="8.2413828"><ele>463.25</ele><time>2026-05-03T15:50:26.392Z</time></trkpt><trkpt lat="44.3624058" lon="8.2412529"><ele>464.5</ele><time>2026-05-03T15:50:27.392Z</time></trkpt><trkpt lat="44.3623264" lon="8.2411195"><ele>465.75</ele><time>2026-05-03T15:50:28.393Z</time></trkpt><trkpt lat="44.362279" lon="8.2409646"><ele>467.0</ele><time>2026-05-03T15:50:29.392Z</time></trkpt><trkpt lat="44.362278" lon="8.2407933"><ele>466.5</ele><time>2026-05-03T15:50:30.393Z</time></trkpt><trkpt lat="44.3623098" lon="8.2406093"><ele>466.0</ele><time>2026-05-03T15:50:31.393Z</time></trkpt><trkpt lat="44.3623434" lon="8.2404199"><ele>465.5</ele><time>2026-05-03T15:50:32.392Z</time></trkpt><trkpt lat="44.3623669" lon="8.2402394"><ele>465.0</ele><time>2026-05-03T15:50:33.392Z</time></trkpt><trkpt lat="44.3623869" lon="8.2400782"><ele>465.0</ele><time>2026-05-03T15:50:34.393Z</time></trkpt><trkpt lat="44.3624097" lon="8.2399519"><ele>465.0</ele><time>2026-05-03T15:50:35.392Z</time></trkpt><trkpt lat="44.3624471" lon="8.2398472"><ele>465.0</ele><time>2026-05-03T15:50:36.393Z</time></trkpt><trkpt lat="44.3624987" lon="8.2397513"><ele>465.0</ele><time>2026-05-03T15:50:37.392Z</time></trkpt><trkpt lat="44.3625356" lon="8.2396412"><ele>465.0</ele><time>2026-05-03T15:50:38.392Z</time></trkpt><trkpt lat="44.3625322" lon="8.2395066"><ele>465.0</ele><time>2026-05-03T15:50:39.392Z</time></trkpt><trkpt lat="44.3625115" lon="8.2393548"><ele>464.75</ele><time>2026-05-03T15:50:40.392Z</time></trkpt><trkpt lat="44.3625229" lon="8.239182"><ele>464.5</ele><time>2026-05-03T15:50:41.392Z</time></trkpt><trkpt lat="44.3625615" lon="8.2389918"><ele>464.25</ele><time>2026-05-03T15:50:42.392Z</time></trkpt><trkpt lat="44.3625989" lon="8.2387949"><ele>464.0</ele><time>2026-05-03T15:50:43.393Z</time></trkpt><trkpt lat="44.36263" lon="8.2385864"><ele>464.0</ele><time>2026-05-03T15:50:44.393Z</time></trkpt><trkpt lat="44.3626598" lon="8.2383564"><ele>464.0</ele><time>2026-05-03T15:50:45.393Z</time></trkpt><trkpt lat="44.3626766" lon="8.2381125"><ele>464.0</ele><time>2026-05-03T15:50:46.392Z</time></trkpt><trkpt lat="44.3626688" lon="8.2378608"><ele>464.3333333333333</ele><time>2026-05-03T15:50:47.392Z</time></trkpt><trkpt lat="44.3626338" lon="8.2376026"><ele>464.66666666666663</ele><time>2026-05-03T15:50:48.392Z</time></trkpt><trkpt lat="44.362578" lon="8.2373487"><ele>465.0</ele><time>2026-05-03T15:50:49.392Z</time></trkpt><trkpt lat="44.3625182" lon="8.2371033"><ele>466.66666666666663</ele><time>2026-05-03T15:50:50.393Z</time></trkpt><trkpt lat="44.3624638" lon="8.2368533"><ele>468.3333333333333</ele><time>2026-05-03T15:50:51.392Z</time></trkpt><trkpt lat="44.3624123" lon="8.2365856"><ele>470.0</ele><time>2026-05-03T15:50:52.392Z</time></trkpt><trkpt lat="44.3623563" lon="8.2363109"><ele>470.66666666666663</ele><time>2026-05-03T15:50:53.392Z</time></trkpt><trkpt lat="44.362297" lon="8.2360319"><ele>471.33333333333337</ele><time>2026-05-03T15:50:54.393Z</time></trkpt><trkpt lat="44.3622406" lon="8.2357509"><ele>472.0</ele><time>2026-05-03T15:50:55.392Z</time></trkpt><trkpt lat="44.3621842" lon="8.2354756"><ele>472.0</ele><time>2026-05-03T15:50:56.392Z</time></trkpt><trkpt lat="44.3621285" lon="8.2352028"><ele>472.0</ele><time>2026-05-03T15:50:57.392Z</time></trkpt><trkpt lat="44.3620709" lon="8.2349332"><ele>472.0</ele><time>2026-05-03T15:50:58.392Z</time></trkpt><trkpt lat="44.3620115" lon="8.234671"><ele>474.33333333333337</ele><time>2026-05-03T15:50:59.392Z</time></trkpt><trkpt lat="44.3619513" lon="8.234414"><ele>476.66666666666663</ele><time>2026-05-03T15:51:00.392Z</time></trkpt><trkpt lat="44.3618811" lon="8.234163"><ele>479.0</ele><time>2026-05-03T15:51:01.392Z</time></trkpt><trkpt lat="44.3617844" lon="8.2339204"><ele>481.0</ele><time>2026-05-03T15:51:02.393Z</time></trkpt><trkpt lat="44.361658" lon="8.2336956"><ele>483.0</ele><time>2026-05-03T15:51:03.393Z</time></trkpt><trkpt lat="44.3615169" lon="8.2334783"><ele>485.0</ele><time>2026-05-03T15:51:04.392Z</time></trkpt><trkpt lat="44.36137" lon="8.2332594"><ele>488.66666666666663</ele><time>2026-05-03T15:51:05.392Z</time></trkpt><trkpt lat="44.3612263" lon="8.2330304"><ele>492.33333333333337</ele><time>2026-05-03T15:51:06.392Z</time></trkpt><trkpt lat="44.3610842" lon="8.2327944"><ele>496.0</ele><time>2026-05-03T15:51:07.393Z</time></trkpt><trkpt lat="44.3609436" lon="8.2325642"><ele>496.0</ele><time>2026-05-03T15:51:08.392Z</time></trkpt><trkpt lat="44.3608137" lon="8.2323348"><ele>496.0</ele><time>2026-05-03T15:51:09.392Z</time></trkpt><trkpt lat="44.3606976" lon="8.2320913"><ele>496.0</ele><time>2026-05-03T15:51:10.392Z</time></trkpt><trkpt lat="44.3605902" lon="8.2318384"><ele>496.6666666666667</ele><time>2026-05-03T15:51:11.393Z</time></trkpt><trkpt lat="44.3604826" lon="8.2315865"><ele>497.33333333333337</ele><time>2026-05-03T15:51:12.392Z</time></trkpt><trkpt lat="44.360372" lon="8.231335"><ele>498.0</ele><time>2026-05-03T15:51:13.392Z</time></trkpt><trkpt lat="44.3602629" lon="8.2310848"><ele>500.66666666666663</ele><time>2026-05-03T15:51:14.393Z</time></trkpt><trkpt lat="44.3601542" lon="8.2308309"><ele>503.3333333333333</ele><time>2026-05-03T15:51:15.392Z</time></trkpt><trkpt lat="44.3600436" lon="8.2305779"><ele>506.0</ele><time>2026-05-03T15:51:16.392Z</time></trkpt><trkpt lat="44.3599344" lon="8.2303282"><ele>508.3333333333333</ele><time>2026-05-03T15:51:17.392Z</time></trkpt><trkpt lat="44.3598261" lon="8.2300779"><ele>510.66666666666663</ele><time>2026-05-03T15:51:18.393Z</time></trkpt><trkpt lat="44.3597166" lon="8.2298269"><ele>513.0</ele><time>2026-05-03T15:51:19.392Z</time></trkpt><trkpt lat="44.3596076" lon="8.2295755"><ele>513.3333333333334</ele><time>2026-05-03T15:51:20.393Z</time></trkpt><trkpt lat="44.3594968" lon="8.2293239"><ele>513.6666666666667</ele><time>2026-05-03T15:51:21.393Z</time></trkpt><trkpt lat="44.359382" lon="8.2290784"><ele>514.0</ele><time>2026-05-03T15:51:22.393Z</time></trkpt><trkpt lat="44.3592609" lon="8.2288396"><ele>516.6666666666667</ele><time>2026-05-03T15:51:23.392Z</time></trkpt><trkpt lat="44.3591382" lon="8.2286003"><ele>519.3333333333334</ele><time>2026-05-03T15:51:24.392Z</time></trkpt><trkpt lat="44.3590099" lon="8.2283628"><ele>522.0</ele><time>2026-05-03T15:51:25.392Z</time></trkpt><trkpt lat="44.3588777" lon="8.228134"><ele>524.0</ele><time>2026-05-03T15:51:26.392Z</time></trkpt><trkpt lat="44.3587408" lon="8.2279138"><ele>526.0</ele><time>2026-05-03T15:51:27.392Z</time></trkpt><trkpt lat="44.3586047" lon="8.2276969"><ele>528.0</ele><time>2026-05-03T15:51:28.392Z</time></trkpt><trkpt lat="44.3584706" lon="8.227485"><ele>529.3333333333334</ele><time>2026-05-03T15:51:29.392Z</time></trkpt><trkpt lat="44.3583453" lon="8.2272858"><ele>530.6666666666667</ele><time>2026-05-03T15:51:30.392Z</time></trkpt><trkpt lat="44.3582331" lon="8.2271041"><ele>532.0</ele><time>2026-05-03T15:51:31.392Z</time></trkpt><trkpt lat="44.3581388" lon="8.2269187"><ele>532.0</ele><time>2026-05-03T15:51:32.393Z</time></trkpt><trkpt lat="44.3580692" lon="8.2266982"><ele>532.0</ele><time>2026-05-03T15:51:33.392Z</time></trkpt><trkpt lat="44.3580188" lon="8.2264576"><ele>532.0</ele><time>2026-05-03T15:51:34.393Z</time></trkpt><trkpt lat="44.3579841" lon="8.2262039"><ele>530.0</ele><time>2026-05-03T15:51:35.392Z</time></trkpt><trkpt lat="44.3579547" lon="8.2259391"><ele>528.0</ele><time>2026-05-03T15:51:36.392Z</time></trkpt><trkpt lat="44.3579212" lon="8.2256685"><ele>526.0</ele><time>2026-05-03T15:51:37.392Z</time></trkpt><trkpt lat="44.3578835" lon="8.2253958"><ele>524.6666666666667</ele><time>2026-05-03T15:51:38.392Z</time></trkpt><trkpt lat="44.3578453" lon="8.2251291"><ele>523.3333333333334</ele><time>2026-05-03T15:51:39.392Z</time></trkpt><trkpt lat="44.3578067" lon="8.2248657"><ele>522.0</ele><time>2026-05-03T15:51:40.392Z</time></trkpt><trkpt lat="44.3577628" lon="8.2246078"><ele>520.0</ele><time>2026-05-03T15:51:41.392Z</time></trkpt><trkpt lat="44.3577099" lon="8.2243573"><ele>518.0</ele><time>2026-05-03T15:51:42.392Z</time></trkpt><trkpt lat="44.3576538" lon="8.2241087"><ele>516.0</ele><time>2026-05-03T15:51:43.393Z</time></trkpt><trkpt lat="44.3575956" lon="8.2238618"><ele>515.0</ele><time>2026-05-03T15:51:44.392Z</time></trkpt><trkpt lat="44.3575397" lon="8.2236119"><ele>514.0</ele><time>2026-05-03T15:51:45.392Z</time></trkpt><trkpt lat="44.3574823" lon="8.2233686"><ele>513.0</ele><time>2026-05-03T15:51:46.392Z</time></trkpt><trkpt lat="44.3574236" lon="8.223127"><ele>511.66666666666663</ele><time>2026-05-03T15:51:47.392Z</time></trkpt><trkpt lat="44.3573664" lon="8.2228863"><ele>510.3333333333333</ele><time>2026-05-03T15:51:48.392Z</time></trkpt><trkpt lat="44.3573191" lon="8.2226431"><ele>509.0</ele><time>2026-05-03T15:51:49.392Z</time></trkpt><trkpt lat="44.3572911" lon="8.2223918"><ele>506.0</ele><time>2026-05-03T15:51:50.392Z</time></trkpt><trkpt lat="44.3572857" lon="8.222137"><ele>503.0</ele><time>2026-05-03T15:51:51.392Z</time></trkpt><trkpt lat="44.357285" lon="8.2218882"><ele>500.0</ele><time>2026-05-03T15:51:52.392Z</time></trkpt><trkpt lat="44.3572875" lon="8.2216532"><ele>496.3333333333333</ele><time>2026-05-03T15:51:53.392Z</time></trkpt><trkpt lat="44.357305" lon="8.2214203"><ele>492.66666666666663</ele><time>2026-05-03T15:51:54.393Z</time></trkpt><trkpt lat="44.3573424" lon="8.2211963"><ele>489.0</ele><time>2026-05-03T15:51:55.392Z</time></trkpt><trkpt lat="44.3573915" lon="8.2210099"><ele>489.0</ele><time>2026-05-03T15:51:56.392Z</time></trkpt><trkpt lat="44.3574572" lon="8.2208689"><ele>489.0</ele><time>2026-05-03T15:51:57.393Z</time></trkpt><trkpt lat="44.3575628" lon="8.2207552"><ele>489.0</ele><time>2026-05-03T15:51:58.392Z</time></trkpt><trkpt lat="44.3577028" lon="8.2207018"><ele>489.0</ele><time>2026-05-03T15:51:59.392Z</time></trkpt><trkpt lat="44.3578603" lon="8.2206738"><ele>487.0</ele><time>2026-05-03T15:52:00.393Z</time></trkpt><trkpt lat="44.3580241" lon="8.220643"><ele>485.0</ele><time>2026-05-03T15:52:01.393Z</time></trkpt><trkpt lat="44.3581775" lon="8.2206154"><ele>483.0</ele><time>2026-05-03T15:52:02.393Z</time></trkpt><trkpt lat="44.3583215" lon="8.2205857"><ele>482.25</ele><time>2026-05-03T15:52:03.392Z</time></trkpt><trkpt lat="44.3584564" lon="8.2205488"><ele>481.5</ele><time>2026-05-03T15:52:04.393Z</time></trkpt><trkpt lat="44.3585821" lon="8.2204708"><ele>480.75</ele><time>2026-05-03T15:52:05.392Z</time></trkpt><trkpt lat="44.3586863" lon="8.220344"><ele>480.0</ele><time>2026-05-03T15:52:06.393Z</time></trkpt><trkpt lat="44.3587547" lon="8.2201673"><ele>480.0</ele><time>2026-05-03T15:52:07.392Z</time></trkpt><trkpt lat="44.3587851" lon="8.2199606"><ele>480.0</ele><time>2026-05-03T15:52:08.392Z</time></trkpt><trkpt lat="44.3587943" lon="8.2197251"><ele>480.0</ele><time>2026-05-03T15:52:09.392Z</time></trkpt><trkpt lat="44.3587977" lon="8.2194739"><ele>478.66666666666663</ele><time>2026-05-03T15:52:10.392Z</time></trkpt><trkpt lat="44.3588074" lon="8.2192154"><ele>477.3333333333333</ele><time>2026-05-03T15:52:11.392Z</time></trkpt><trkpt lat="44.3588288" lon="8.2189573"><ele>476.0</ele><time>2026-05-03T15:52:12.393Z</time></trkpt><trkpt lat="44.3588563" lon="8.218704"><ele>476.0</ele><time>2026-05-03T15:52:13.393Z</time></trkpt><trkpt lat="44.3588836" lon="8.2184605"><ele>476.0</ele><time>2026-05-03T15:52:14.392Z</time></trkpt><trkpt lat="44.3589163" lon="8.2182316"><ele>476.0</ele><time>2026-05-03T15:52:15.392Z</time></trkpt><trkpt lat="44.3589704" lon="8.2180095"><ele>472.66666666666663</ele><time>2026-05-03T15:52:16.393Z</time></trkpt><trkpt lat="44.3590442" lon="8.2177971"><ele>469.33333333333337</ele><time>2026-05-03T15:52:17.392Z</time></trkpt><trkpt lat="44.3591214" lon="8.2176059"><ele>466.0</ele><time>2026-05-03T15:52:18.393Z</time></trkpt><trkpt lat="44.3591931" lon="8.2174139"><ele>466.33333333333337</ele><time>2026-05-03T15:52:19.392Z</time></trkpt><trkpt lat="44.3592473" lon="8.2172041"><ele>466.66666666666663</ele><time>2026-05-03T15:52:20.393Z</time></trkpt><trkpt lat="44.3592646" lon="8.2169799"><ele>467.0</ele><time>2026-05-03T15:52:21.393Z</time></trkpt><trkpt lat="44.3592441" lon="8.216756"><ele>467.0</ele><time>2026-05-03T15:52:22.392Z</time></trkpt><trkpt lat="44.3591946" lon="8.2165328"><ele>467.0</ele><time>2026-05-03T15:52:23.392Z</time></trkpt><trkpt lat="44.3591271" lon="8.2163164"><ele>467.0</ele><time>2026-05-03T15:52:24.392Z</time></trkpt><trkpt lat="44.3590596" lon="8.2161116"><ele>466.75</ele><time>2026-05-03T15:52:25.392Z</time></trkpt><trkpt lat="44.3590003" lon="8.2159156"><ele>466.5</ele><time>2026-05-03T15:52:26.392Z</time></trkpt><trkpt lat="44.3589556" lon="8.2157378"><ele>466.25</ele><time>2026-05-03T15:52:27.392Z</time></trkpt><trkpt lat="44.3589461" lon="8.2155586"><ele>466.0</ele><time>2026-05-03T15:52:28.392Z</time></trkpt><trkpt lat="44.3589775" lon="8.2153772"><ele>465.25</ele><time>2026-05-03T15:52:29.392Z</time></trkpt><trkpt lat="44.3590437" lon="8.2152112"><ele>464.5</ele><time>2026-05-03T15:52:30.392Z</time></trkpt><trkpt lat="44.3591379" lon="8.2150695"><ele>463.75</ele><time>2026-05-03T15:52:31.392Z</time></trkpt><trkpt lat="44.3592553" lon="8.2149389"><ele>463.0</ele><time>2026-05-03T15:52:32.392Z</time></trkpt><trkpt lat="44.3593888" lon="8.2148071"><ele>463.0</ele><time>2026-05-03T15:52:33.392Z</time></trkpt><trkpt lat="44.3595294" lon="8.2146789"><ele>463.0</ele><time>2026-05-03T15:52:34.393Z</time></trkpt><trkpt lat="44.3596755" lon="8.2145511"><ele>463.0</ele><time>2026-05-03T15:52:35.393Z</time></trkpt><trkpt lat="44.3598227" lon="8.2144213"><ele>459.0</ele><time>2026-05-03T15:52:36.393Z</time></trkpt><trkpt lat="44.3599631" lon="8.2142978"><ele>455.0</ele><time>2026-05-03T15:52:37.393Z</time></trkpt><trkpt lat="44.3601023" lon="8.214165"><ele>451.0</ele><time>2026-05-03T15:52:38.392Z</time></trkpt><trkpt lat="44.3602278" lon="8.2140165"><ele>452.6666666666667</ele><time>2026-05-03T15:52:39.392Z</time></trkpt><trkpt lat="44.3603386" lon="8.213848"><ele>454.33333333333337</ele><time>2026-05-03T15:52:40.392Z</time></trkpt><trkpt lat="44.3604332" lon="8.2136641"><ele>456.0</ele><time>2026-05-03T15:52:41.393Z</time></trkpt><trkpt lat="44.3605149" lon="8.2134708"><ele>454.25</ele><time>2026-05-03T15:52:42.392Z</time></trkpt><trkpt lat="44.3605793" lon="8.2132758"><ele>452.5</ele><time>2026-05-03T15:52:43.392Z</time></trkpt><trkpt lat="44.3606246" lon="8.2130814"><ele>450.75</ele><time>2026-05-03T15:52:44.392Z</time></trkpt><trkpt lat="44.3606582" lon="8.2128864"><ele>449.0</ele><time>2026-05-03T15:52:45.393Z</time></trkpt><trkpt lat="44.3606828" lon="8.2127006"><ele>448.25</ele><time>2026-05-03T15:52:46.392Z</time></trkpt><trkpt lat="44.3606983" lon="8.2125263"><ele>447.5</ele><time>2026-05-03T15:52:47.392Z</time></trkpt><trkpt lat="44.3607142" lon="8.2123662"><ele>446.75</ele><time>2026-05-03T15:52:48.393Z</time></trkpt><trkpt lat="44.360728" lon="8.2122144"><ele>446.0</ele><time>2026-05-03T15:52:49.393Z</time></trkpt><trkpt lat="44.3607425" lon="8.2120739"><ele>446.0</ele><time>2026-05-03T15:52:50.393Z</time></trkpt><trkpt lat="44.3607571" lon="8.2119314"><ele>446.0</ele><time>2026-05-03T15:52:51.392Z</time></trkpt><trkpt lat="44.3607693" lon="8.2117835"><ele>446.0</ele><time>2026-05-03T15:52:52.393Z</time></trkpt><trkpt lat="44.3607537" lon="8.2116337"><ele>446.0</ele><time>2026-05-03T15:52:53.393Z</time></trkpt><trkpt lat="44.3607004" lon="8.2114937"><ele>446.0</ele><time>2026-05-03T15:52:54.392Z</time></trkpt><trkpt lat="44.360619" lon="8.2113773"><ele>450.0</ele><time>2026-05-03T15:52:55.392Z</time></trkpt><trkpt lat="44.3605193" lon="8.211289"><ele>454.0</ele><time>2026-05-03T15:52:56.393Z</time></trkpt><trkpt lat="44.360414" lon="8.2112158"><ele>458.0</ele><time>2026-05-03T15:52:57.392Z</time></trkpt><trkpt lat="44.3603131" lon="8.2111314"><ele>462.0</ele><time>2026-05-03T15:52:58.392Z</time></trkpt><trkpt lat="44.3602074" lon="8.2110439"><ele>462.0</ele><time>2026-05-03T15:52:59.392Z</time></trkpt><trkpt lat="44.3600999" lon="8.2109541"><ele>462.0</ele><time>2026-05-03T15:53:00.393Z</time></trkpt><trkpt lat="44.3597726" lon="8.2098458"><ele>461.0</ele><time>2026-05-03T15:53:08.381Z</time></trkpt><trkpt lat="44.3596886" lon="8.2097317"><ele>460.00000000000006</ele><time>2026-05-03T15:53:09.389Z</time></trkpt><trkpt lat="44.3596157" lon="8.209634"><ele>459.00000000000006</ele><time>2026-05-03T15:53:10.369Z</time></trkpt><trkpt lat="44.359558" lon="8.2095046"><ele>458.0</ele><time>2026-05-03T15:53:11.391Z</time></trkpt><trkpt lat="44.3595138" lon="8.2093672"><ele>457.0</ele><time>2026-05-03T15:53:12.389Z</time></trkpt><trkpt lat="44.3594785" lon="8.2092129"><ele>457.0</ele><time>2026-05-03T15:53:13.373Z</time></trkpt><trkpt lat="44.3594541" lon="8.209045"><ele>457.0</ele><time>2026-05-03T15:53:14.374Z</time></trkpt><trkpt lat="44.359444" lon="8.2088662"><ele>457.0</ele><time>2026-05-03T15:53:15.374Z</time></trkpt><trkpt lat="44.3594408" lon="8.2086896"><ele>457.0</ele><time>2026-05-03T15:53:16.373Z</time></trkpt><trkpt lat="44.3594507" lon="8.2085066"><ele>453.75</ele><time>2026-05-03T15:53:17.373Z</time></trkpt><trkpt lat="44.3594737" lon="8.208333"><ele>450.5</ele><time>2026-05-03T15:53:18.373Z</time></trkpt><trkpt lat="44.3595123" lon="8.2081567"><ele>447.25</ele><time>2026-05-03T15:53:19.373Z</time></trkpt><trkpt lat="44.3595638" lon="8.2079832"><ele>444.0</ele><time>2026-05-03T15:53:20.374Z</time></trkpt><trkpt lat="44.3596146" lon="8.2078066"><ele>442.5</ele><time>2026-05-03T15:53:21.373Z</time></trkpt><trkpt lat="44.3596709" lon="8.2076237"><ele>441.0</ele><time>2026-05-03T15:53:22.373Z</time></trkpt><trkpt lat="44.3597294" lon="8.2074423"><ele>439.5</ele><time>2026-05-03T15:53:23.373Z</time></trkpt><trkpt lat="44.3597901" lon="8.2072631"><ele>438.0</ele><time>2026-05-03T15:53:24.373Z</time></trkpt><trkpt lat="44.3598636" lon="8.207091"><ele>442.0</ele><time>2026-05-03T15:53:25.373Z</time></trkpt><trkpt lat="44.359943" lon="8.2069238"><ele>446.0</ele><time>2026-05-03T15:53:26.373Z</time></trkpt><trkpt lat="44.3600326" lon="8.2067576"><ele>450.0</ele><time>2026-05-03T15:53:27.373Z</time></trkpt><trkpt lat="44.3601282" lon="8.2065912"><ele>454.0</ele><time>2026-05-03T15:53:28.374Z</time></trkpt><trkpt lat="44.3602303" lon="8.2064499"><ele>447.33333333333337</ele><time>2026-05-03T15:53:29.373Z</time></trkpt><trkpt lat="44.3603255" lon="8.206315"><ele>440.66666666666663</ele><time>2026-05-03T15:53:30.374Z</time></trkpt><trkpt lat="44.3604223" lon="8.206181"><ele>434.0</ele><time>2026-05-03T15:53:31.373Z</time></trkpt><trkpt lat="44.3631362" lon="8.20335"><ele>437.66666666666663</ele><time>2026-05-03T15:53:49.375Z</time></trkpt><trkpt lat="44.3632856" lon="8.2031592"><ele>441.33333333333337</ele><time>2026-05-03T15:53:50.379Z</time></trkpt><trkpt lat="44.3634341" lon="8.2029607"><ele>445.0</ele><time>2026-05-03T15:53:51.388Z</time></trkpt><trkpt lat="44.3635632" lon="8.2027624"><ele>445.0</ele><time>2026-05-03T15:53:52.372Z</time></trkpt><trkpt lat="44.3636946" lon="8.2025633"><ele>445.0</ele><time>2026-05-03T15:53:53.382Z</time></trkpt><trkpt lat="44.3638339" lon="8.2023527"><ele>445.0</ele><time>2026-05-03T15:53:54.376Z</time></trkpt><trkpt lat="44.3641553" lon="8.2016915"><ele>442.5</ele><time>2026-05-03T15:53:57.391Z</time></trkpt><trkpt lat="44.3641998" lon="8.2015303"><ele>440.0</ele><time>2026-05-03T15:53:58.373Z</time></trkpt><trkpt lat="44.3642778" lon="8.2013494"><ele>437.5</ele><time>2026-05-03T15:53:59.373Z</time></trkpt><trkpt lat="44.3643557" lon="8.2011378"><ele>435.0</ele><time>2026-05-03T15:54:00.386Z</time></trkpt><trkpt lat="44.3643993" lon="8.2009303"><ele>435.0</ele><time>2026-05-03T15:54:01.387Z</time></trkpt><trkpt lat="44.3644593" lon="8.2007201"><ele>435.0</ele><time>2026-05-03T15:54:02.388Z</time></trkpt><trkpt lat="44.3645241" lon="8.2005298"><ele>435.0</ele><time>2026-05-03T15:54:03.388Z</time></trkpt><trkpt lat="44.3645825" lon="8.2003386"><ele>435.0</ele><time>2026-05-03T15:54:04.388Z</time></trkpt><trkpt lat="44.3646456" lon="8.2001637"><ele>435.0</ele><time>2026-05-03T15:54:05.388Z</time></trkpt><trkpt lat="44.3647009" lon="8.1999868"><ele>435.0</ele><time>2026-05-03T15:54:06.388Z</time></trkpt><trkpt lat="44.3647583" lon="8.1998113"><ele>435.0</ele><time>2026-05-03T15:54:07.388Z</time></trkpt><trkpt lat="44.3648182" lon="8.1996405"><ele>435.0</ele><time>2026-05-03T15:54:08.388Z</time></trkpt><trkpt lat="44.3648776" lon="8.1994676"><ele>435.0</ele><time>2026-05-03T15:54:09.389Z</time></trkpt><trkpt lat="44.3649441" lon="8.1993043"><ele>435.0</ele><time>2026-05-03T15:54:10.388Z</time></trkpt><trkpt lat="44.3650213" lon="8.1991481"><ele>435.0</ele><time>2026-05-03T15:54:11.388Z</time></trkpt><trkpt lat="44.365112" lon="8.1989976"><ele>436.75</ele><time>2026-05-03T15:54:12.388Z</time></trkpt><trkpt lat="44.365207" lon="8.1988486"><ele>438.5</ele><time>2026-05-03T15:54:13.388Z</time></trkpt><trkpt lat="44.365313" lon="8.1987196"><ele>440.25</ele><time>2026-05-03T15:54:14.388Z</time></trkpt><trkpt lat="44.3654125" lon="8.1985803"><ele>442.0</ele><time>2026-05-03T15:54:15.388Z</time></trkpt><trkpt lat="44.3655039" lon="8.1984329"><ele>440.75</ele><time>2026-05-03T15:54:16.389Z</time></trkpt><trkpt lat="44.3655758" lon="8.1982778"><ele>439.5</ele><time>2026-05-03T15:54:17.389Z</time></trkpt><trkpt lat="44.3656261" lon="8.1981072"><ele>438.25</ele><time>2026-05-03T15:54:18.388Z</time></trkpt><trkpt lat="44.3656605" lon="8.1979321"><ele>437.0</ele><time>2026-05-03T15:54:19.388Z</time></trkpt><trkpt lat="44.3656892" lon="8.1977534"><ele>437.0</ele><time>2026-05-03T15:54:20.389Z</time></trkpt><trkpt lat="44.3657139" lon="8.1975682"><ele>437.0</ele><time>2026-05-03T15:54:21.388Z</time></trkpt><trkpt lat="44.3657347" lon="8.1973805"><ele>437.0</ele><time>2026-05-03T15:54:22.388Z</time></trkpt><trkpt lat="44.3657546" lon="8.197203"><ele>437.0</ele><time>2026-05-03T15:54:23.388Z</time></trkpt><trkpt lat="44.3657714" lon="8.1970289"><ele>436.75</ele><time>2026-05-03T15:54:24.389Z</time></trkpt><trkpt lat="44.3657769" lon="8.1968468"><ele>436.5</ele><time>2026-05-03T15:54:25.388Z</time></trkpt><trkpt lat="44.3657632" lon="8.1966667"><ele>436.25</ele><time>2026-05-03T15:54:26.389Z</time></trkpt><trkpt lat="44.3657341" lon="8.1964854"><ele>436.0</ele><time>2026-05-03T15:54:27.388Z</time></trkpt><trkpt lat="44.3656967" lon="8.196311"><ele>434.75</ele><time>2026-05-03T15:54:28.388Z</time></trkpt><trkpt lat="44.3656565" lon="8.1961315"><ele>433.5</ele><time>2026-05-03T15:54:29.388Z</time></trkpt><trkpt lat="44.3656085" lon="8.1959548"><ele>432.25</ele><time>2026-05-03T15:54:30.388Z</time></trkpt><trkpt lat="44.3655535" lon="8.1957799"><ele>431.0</ele><time>2026-05-03T15:54:31.389Z</time></trkpt><trkpt lat="44.3654917" lon="8.1956086"><ele>434.0</ele><time>2026-05-03T15:54:32.388Z</time></trkpt><trkpt lat="44.3654179" lon="8.1954386"><ele>437.0</ele><time>2026-05-03T15:54:33.388Z</time></trkpt><trkpt lat="44.3653335" lon="8.1952678"><ele>440.0</ele><time>2026-05-03T15:54:34.388Z</time></trkpt><trkpt lat="44.3652451" lon="8.1950987"><ele>443.0</ele><time>2026-05-03T15:54:35.388Z</time></trkpt><trkpt lat="44.3651552" lon="8.1949293"><ele>441.3333333333333</ele><time>2026-05-03T15:54:36.388Z</time></trkpt><trkpt lat="44.365062" lon="8.1947636"><ele>439.66666666666663</ele><time>2026-05-03T15:54:37.388Z</time></trkpt><trkpt lat="44.3649678" lon="8.1945979"><ele>438.0</ele><time>2026-05-03T15:54:38.388Z</time></trkpt><trkpt lat="44.3648704" lon="8.1944376"><ele>438.0</ele><time>2026-05-03T15:54:39.388Z</time></trkpt><trkpt lat="44.3647712" lon="8.1942843"><ele>438.0</ele><time>2026-05-03T15:54:40.389Z</time></trkpt><trkpt lat="44.3646701" lon="8.1941274"><ele>438.0</ele><time>2026-05-03T15:54:41.388Z</time></trkpt><trkpt lat="44.3645733" lon="8.1939736"><ele>438.0</ele><time>2026-05-03T15:54:42.389Z</time></trkpt><trkpt lat="44.3644823" lon="8.193817"><ele>438.25</ele><time>2026-05-03T15:54:43.389Z</time></trkpt><trkpt lat="44.3643923" lon="8.1936629"><ele>438.5</ele><time>2026-05-03T15:54:44.388Z</time></trkpt><trkpt lat="44.3642928" lon="8.1935267"><ele>438.75</ele><time>2026-05-03T15:54:45.388Z</time></trkpt><trkpt lat="44.3641781" lon="8.1934115"><ele>439.0</ele><time>2026-05-03T15:54:46.388Z</time></trkpt><trkpt lat="44.3640497" lon="8.1933312"><ele>439.0</ele><time>2026-05-03T15:54:47.388Z</time></trkpt><trkpt lat="44.3639162" lon="8.1932752"><ele>439.0</ele><time>2026-05-03T15:54:48.389Z</time></trkpt><trkpt lat="44.3637769" lon="8.1932258"><ele>439.0</ele><time>2026-05-03T15:54:49.388Z</time></trkpt><trkpt lat="44.3636385" lon="8.1931806"><ele>439.0</ele><time>2026-05-03T15:54:50.389Z</time></trkpt><trkpt lat="44.3634999" lon="8.1931378"><ele>439.5</ele><time>2026-05-03T15:54:51.388Z</time></trkpt><trkpt lat="44.3633654" lon="8.193101"><ele>440.0</ele><time>2026-05-03T15:54:52.389Z</time></trkpt><trkpt lat="44.3632353" lon="8.1930762"><ele>440.5</ele><time>2026-05-03T15:54:53.388Z</time></trkpt><trkpt lat="44.3631031" lon="8.193067"><ele>441.0</ele><time>2026-05-03T15:54:54.388Z</time></trkpt><trkpt lat="44.3629765" lon="8.1930664"><ele>439.75</ele><time>2026-05-03T15:54:55.389Z</time></trkpt><trkpt lat="44.3628504" lon="8.1930704"><ele>438.5</ele><time>2026-05-03T15:54:56.388Z</time></trkpt><trkpt lat="44.3627228" lon="8.1930818"><ele>437.25</ele><time>2026-05-03T15:54:57.389Z</time></trkpt><trkpt lat="44.3625939" lon="8.1930973"><ele>436.0</ele><time>2026-05-03T15:54:58.389Z</time></trkpt><trkpt lat="44.3624672" lon="8.193108"><ele>436.0</ele><time>2026-05-03T15:54:59.389Z</time></trkpt><trkpt lat="44.3623396" lon="8.1931194"><ele>436.0</ele><time>2026-05-03T15:55:00.388Z</time></trkpt><trkpt lat="44.362219" lon="8.1931327"><ele>436.0</ele><time>2026-05-03T15:55:01.388Z</time></trkpt><trkpt lat="44.362103" lon="8.1931367"><ele>436.0</ele><time>2026-05-03T15:55:02.388Z</time></trkpt><trkpt lat="44.361995" lon="8.1931209"><ele>436.8</ele><time>2026-05-03T15:55:03.388Z</time></trkpt><trkpt lat="44.3618975" lon="8.1930746"><ele>437.6</ele><time>2026-05-03T15:55:04.388Z</time></trkpt><trkpt lat="44.3618123" lon="8.1930064"><ele>438.4</ele><time>2026-05-03T15:55:05.389Z</time></trkpt><trkpt lat="44.3617384" lon="8.1929287"><ele>439.2</ele><time>2026-05-03T15:55:06.388Z</time></trkpt><trkpt lat="44.3616774" lon="8.1928283"><ele>440.0</ele><time>2026-05-03T15:55:07.388Z</time></trkpt><trkpt lat="44.3616298" lon="8.1927062"><ele>440.0</ele><time>2026-05-03T15:55:08.388Z</time></trkpt><trkpt lat="44.3616074" lon="8.1925676"><ele>440.0</ele><time>2026-05-03T15:55:09.389Z</time></trkpt><trkpt lat="44.3616011" lon="8.1924356"><ele>440.0</ele><time>2026-05-03T15:55:10.389Z</time></trkpt><trkpt lat="44.3616101" lon="8.1923104"><ele>440.0</ele><time>2026-05-03T15:55:11.388Z</time></trkpt><trkpt lat="44.3616316" lon="8.192191"><ele>440.0</ele><time>2026-05-03T15:55:12.389Z</time></trkpt><trkpt lat="44.3616563" lon="8.1920685"><ele>440.8333333333333</ele><time>2026-05-03T15:55:13.389Z</time></trkpt><trkpt lat="44.3616845" lon="8.191951"><ele>441.66666666666663</ele><time>2026-05-03T15:55:14.388Z</time></trkpt><trkpt lat="44.3617093" lon="8.1918383"><ele>442.5</ele><time>2026-05-03T15:55:15.388Z</time></trkpt><trkpt lat="44.3617349" lon="8.1917308"><ele>443.33333333333337</ele><time>2026-05-03T15:55:16.388Z</time></trkpt><trkpt lat="44.3617576" lon="8.1916272"><ele>444.1666666666667</ele><time>2026-05-03T15:55:17.388Z</time></trkpt><trkpt lat="44.3617781" lon="8.1915271"><ele>445.0</ele><time>2026-05-03T15:55:18.388Z</time></trkpt><trkpt lat="44.3617981" lon="8.1914304"><ele>446.50000000000006</ele><time>2026-05-03T15:55:19.388Z</time></trkpt><trkpt lat="44.3618107" lon="8.1913344"><ele>448.0</ele><time>2026-05-03T15:55:20.389Z</time></trkpt><trkpt lat="44.3618079" lon="8.1912297"><ele>449.5</ele><time>2026-05-03T15:55:21.388Z</time></trkpt><trkpt lat="44.3617882" lon="8.1911331"><ele>451.0</ele><time>2026-05-03T15:55:22.388Z</time></trkpt><trkpt lat="44.3617491" lon="8.1910399"><ele>452.50000000000006</ele><time>2026-05-03T15:55:23.388Z</time></trkpt><trkpt lat="44.3616962" lon="8.1909547"><ele>454.0</ele><time>2026-05-03T15:55:24.389Z</time></trkpt><trkpt lat="44.3616415" lon="8.1908772"><ele>454.00000000000006</ele><time>2026-05-03T15:55:25.388Z</time></trkpt><trkpt lat="44.3615857" lon="8.1907983"><ele>454.0</ele><time>2026-05-03T15:55:26.388Z</time></trkpt><trkpt lat="44.3615267" lon="8.190732"><ele>454.0</ele><time>2026-05-03T15:55:27.388Z</time></trkpt><trkpt lat="44.3614621" lon="8.1906688"><ele>454.0</ele><time>2026-05-03T15:55:28.389Z</time></trkpt><trkpt lat="44.3613912" lon="8.1906229"><ele>454.00000000000006</ele><time>2026-05-03T15:55:29.388Z</time></trkpt><trkpt lat="44.3613242" lon="8.1905941"><ele>454.0</ele><time>2026-05-03T15:55:30.388Z</time></trkpt><trkpt lat="44.3612512" lon="8.1906624"><ele>453.50000000000006</ele><time>2026-05-03T15:55:31.388Z</time></trkpt><trkpt lat="44.3611825" lon="8.1907098"><ele>453.0</ele><time>2026-05-03T15:55:32.388Z</time></trkpt><trkpt lat="44.3611013" lon="8.1907532"><ele>452.5</ele><time>2026-05-03T15:55:33.388Z</time></trkpt><trkpt lat="44.3610117" lon="8.1907682"><ele>452.0</ele><time>2026-05-03T15:55:34.388Z</time></trkpt><trkpt lat="44.3609233" lon="8.1907241"><ele>451.50000000000006</ele><time>2026-05-03T15:55:35.389Z</time></trkpt><trkpt lat="44.3608455" lon="8.1906532"><ele>451.0</ele><time>2026-05-03T15:55:36.388Z</time></trkpt><trkpt lat="44.3607856" lon="8.1905529"><ele>452.8</ele><time>2026-05-03T15:55:37.388Z</time></trkpt><trkpt lat="44.3607565" lon="8.1904399"><ele>454.6</ele><time>2026-05-03T15:55:38.389Z</time></trkpt><trkpt lat="44.3607481" lon="8.1903099"><ele>456.4</ele><time>2026-05-03T15:55:39.389Z</time></trkpt><trkpt lat="44.3607546" lon="8.1901774"><ele>458.2</ele><time>2026-05-03T15:55:40.388Z</time></trkpt><trkpt lat="44.3607587" lon="8.1900551"><ele>460.0</ele><time>2026-05-03T15:55:41.389Z</time></trkpt><trkpt lat="44.3607572" lon="8.1899278"><ele>461.6</ele><time>2026-05-03T15:55:42.388Z</time></trkpt><trkpt lat="44.3607421" lon="8.1897944"><ele>463.2</ele><time>2026-05-03T15:55:43.388Z</time></trkpt><trkpt lat="44.3607069" lon="8.189653"><ele>464.79999999999995</ele><time>2026-05-03T15:55:44.388Z</time></trkpt><trkpt lat="44.3606749" lon="8.1895125"><ele>466.4</ele><time>2026-05-03T15:55:45.389Z</time></trkpt><trkpt lat="44.3606535" lon="8.189362"><ele>468.0</ele><time>2026-05-03T15:55:46.388Z</time></trkpt><trkpt lat="44.3606363" lon="8.1892065"><ele>468.0</ele><time>2026-05-03T15:55:47.388Z</time></trkpt><trkpt lat="44.3606258" lon="8.1890517"><ele>467.99999999999994</ele><time>2026-05-03T15:55:48.389Z</time></trkpt><trkpt lat="44.3606185" lon="8.1888949"><ele>467.99999999999994</ele><time>2026-05-03T15:55:49.388Z</time></trkpt><trkpt lat="44.3606092" lon="8.1887418"><ele>468.0</ele><time>2026-05-03T15:55:50.389Z</time></trkpt><trkpt lat="44.3605885" lon="8.188591"><ele>468.0</ele><time>2026-05-03T15:55:51.388Z</time></trkpt><trkpt lat="44.3605726" lon="8.1884402"><ele>468.79999999999995</ele><time>2026-05-03T15:55:52.388Z</time></trkpt><trkpt lat="44.3605782" lon="8.1882952"><ele>469.59999999999997</ele><time>2026-05-03T15:55:53.389Z</time></trkpt><trkpt lat="44.3606091" lon="8.1881676"><ele>470.40000000000003</ele><time>2026-05-03T15:55:54.388Z</time></trkpt><trkpt lat="44.3606619" lon="8.1880592"><ele>471.20000000000005</ele><time>2026-05-03T15:55:55.388Z</time></trkpt><trkpt lat="44.3607291" lon="8.1879553"><ele>472.0</ele><time>2026-05-03T15:55:56.388Z</time></trkpt><trkpt lat="44.3607991" lon="8.1878537"><ele>472.0</ele><time>2026-05-03T15:55:57.388Z</time></trkpt><trkpt lat="44.3608646" lon="8.187736"><ele>472.00000000000006</ele><time>2026-05-03T15:55:58.389Z</time></trkpt><trkpt lat="44.3609203" lon="8.1876041"><ele>472.00000000000006</ele><time>2026-05-03T15:55:59.388Z</time></trkpt><trkpt lat="44.3609681" lon="8.1874576"><ele>472.0</ele><time>2026-05-03T15:56:00.388Z</time></trkpt><trkpt lat="44.3609989" lon="8.1873041"><ele>472.0</ele><time>2026-05-03T15:56:01.388Z</time></trkpt><trkpt lat="44.3610225" lon="8.1871502"><ele>472.75</ele><time>2026-05-03T15:56:02.388Z</time></trkpt><trkpt lat="44.3610373" lon="8.1869908"><ele>473.5</ele><time>2026-05-03T15:56:03.389Z</time></trkpt><trkpt lat="44.3610456" lon="8.1868341"><ele>474.25</ele><time>2026-05-03T15:56:04.388Z</time></trkpt><trkpt lat="44.3610489" lon="8.1866754"><ele>475.0</ele><time>2026-05-03T15:56:05.389Z</time></trkpt><trkpt lat="44.361042" lon="8.1865139"><ele>477.75</ele><time>2026-05-03T15:56:06.388Z</time></trkpt><trkpt lat="44.3610209" lon="8.1863597"><ele>480.5</ele><time>2026-05-03T15:56:07.388Z</time></trkpt><trkpt lat="44.3609798" lon="8.1862103"><ele>483.25</ele><time>2026-05-03T15:56:08.389Z</time></trkpt><trkpt lat="44.3609216" lon="8.1860751"><ele>486.0</ele><time>2026-05-03T15:56:09.388Z</time></trkpt><trkpt lat="44.3608436" lon="8.1859607"><ele>486.0</ele><time>2026-05-03T15:56:10.388Z</time></trkpt><trkpt lat="44.3607624" lon="8.1858656"><ele>486.0</ele><time>2026-05-03T15:56:11.388Z</time></trkpt><trkpt lat="44.3606837" lon="8.1857676"><ele>486.0</ele><time>2026-05-03T15:56:12.389Z</time></trkpt><trkpt lat="44.3606158" lon="8.185651"><ele>486.0</ele><time>2026-05-03T15:56:13.388Z</time></trkpt><trkpt lat="44.3605637" lon="8.1855301"><ele>486.0</ele><time>2026-05-03T15:56:14.388Z</time></trkpt><trkpt lat="44.3605225" lon="8.1853984"><ele>485.20000000000005</ele><time>2026-05-03T15:56:15.388Z</time></trkpt><trkpt lat="44.3604819" lon="8.1852644"><ele>484.40000000000003</ele><time>2026-05-03T15:56:16.388Z</time></trkpt><trkpt lat="44.3604403" lon="8.1851197"><ele>483.6</ele><time>2026-05-03T15:56:17.388Z</time></trkpt><trkpt lat="44.3603983" lon="8.1849785"><ele>482.8</ele><time>2026-05-03T15:56:18.388Z</time></trkpt><trkpt lat="44.3603569" lon="8.1848405"><ele>482.0</ele><time>2026-05-03T15:56:19.389Z</time></trkpt><trkpt lat="44.3603255" lon="8.1847043"><ele>482.0</ele><time>2026-05-03T15:56:20.388Z</time></trkpt><trkpt lat="44.3603069" lon="8.1845686"><ele>482.00000000000006</ele><time>2026-05-03T15:56:21.389Z</time></trkpt><trkpt lat="44.3603099" lon="8.1844324"><ele>482.00000000000006</ele><time>2026-05-03T15:56:22.388Z</time></trkpt><trkpt lat="44.3603354" lon="8.1842885"><ele>482.0</ele><time>2026-05-03T15:56:23.388Z</time></trkpt><trkpt lat="44.3603753" lon="8.1841303"><ele>482.0</ele><time>2026-05-03T15:56:24.388Z</time></trkpt><trkpt lat="44.3604203" lon="8.1839566"><ele>481.0</ele><time>2026-05-03T15:56:25.389Z</time></trkpt><trkpt lat="44.3604633" lon="8.1838127"><ele>480.00000000000006</ele><time>2026-05-03T15:56:26.388Z</time></trkpt><trkpt lat="44.3605047" lon="8.1836769"><ele>479.00000000000006</ele><time>2026-05-03T15:56:27.389Z</time></trkpt><trkpt lat="44.3605464" lon="8.1835345"><ele>478.0</ele><time>2026-05-03T15:56:28.388Z</time></trkpt><trkpt lat="44.3605847" lon="8.1833882"><ele>477.0</ele><time>2026-05-03T15:56:29.388Z</time></trkpt><trkpt lat="44.3606159" lon="8.183243"><ele>485.5</ele><time>2026-05-03T15:56:30.388Z</time></trkpt><trkpt lat="44.3606511" lon="8.1830893"><ele>494.0</ele><time>2026-05-03T15:56:31.388Z</time></trkpt><trkpt lat="44.3606772" lon="8.1829315"><ele>502.5</ele><time>2026-05-03T15:56:32.388Z</time></trkpt><trkpt lat="44.3607002" lon="8.1827726"><ele>511.0</ele><time>2026-05-03T15:56:33.389Z</time></trkpt><trkpt lat="44.3607181" lon="8.1826153"><ele>511.0</ele><time>2026-05-03T15:56:34.389Z</time></trkpt><trkpt lat="44.3607272" lon="8.1824433"><ele>511.0</ele><time>2026-05-03T15:56:35.388Z</time></trkpt><trkpt lat="44.3607392" lon="8.1822452"><ele>511.0</ele><time>2026-05-03T15:56:36.388Z</time></trkpt><trkpt lat="44.3607515" lon="8.1820513"><ele>511.0</ele><time>2026-05-03T15:56:37.388Z</time></trkpt><trkpt lat="44.36076" lon="8.1818483"><ele>512.0</ele><time>2026-05-03T15:56:38.389Z</time></trkpt><trkpt lat="44.3607648" lon="8.1816296"><ele>513.0</ele><time>2026-05-03T15:56:39.388Z</time></trkpt><trkpt lat="44.3607719" lon="8.1814105"><ele>514.0</ele><time>2026-05-03T15:56:40.389Z</time></trkpt><trkpt lat="44.3607683" lon="8.1812001"><ele>516.5</ele><time>2026-05-03T15:56:41.388Z</time></trkpt><trkpt lat="44.3607455" lon="8.1810137"><ele>519.0</ele><time>2026-05-03T15:56:42.388Z</time></trkpt><trkpt lat="44.3607041" lon="8.1808492"><ele>521.5</ele><time>2026-05-03T15:56:43.389Z</time></trkpt><trkpt lat="44.3606598" lon="8.1807052"><ele>524.0</ele><time>2026-05-03T15:56:44.388Z</time></trkpt><trkpt lat="44.3606125" lon="8.1805597"><ele>526.0</ele><time>2026-05-03T15:56:45.388Z</time></trkpt><trkpt lat="44.3605749" lon="8.1804123"><ele>528.0</ele><time>2026-05-03T15:56:46.388Z</time></trkpt><trkpt lat="44.3605489" lon="8.1802557"><ele>530.0</ele><time>2026-05-03T15:56:47.388Z</time></trkpt><trkpt lat="44.360539" lon="8.1800985"><ele>532.0</ele><time>2026-05-03T15:56:48.389Z</time></trkpt><trkpt lat="44.3605314" lon="8.179939"><ele>525.0</ele><time>2026-05-03T15:56:49.388Z</time></trkpt><trkpt lat="44.3605229" lon="8.1797875"><ele>518.0</ele><time>2026-05-03T15:56:50.388Z</time></trkpt><trkpt lat="44.3605185" lon="8.1796351"><ele>511.00000000000006</ele><time>2026-05-03T15:56:51.388Z</time></trkpt><trkpt lat="44.3605214" lon="8.1794861"><ele>504.0</ele><time>2026-05-03T15:56:52.388Z</time></trkpt><trkpt lat="44.360528" lon="8.1793398"><ele>497.0</ele><time>2026-05-03T15:56:53.388Z</time></trkpt><trkpt lat="44.3605305" lon="8.1791903"><ele>497.0</ele><time>2026-05-03T15:56:54.388Z</time></trkpt><trkpt lat="44.3605272" lon="8.1790461"><ele>497.00000000000006</ele><time>2026-05-03T15:56:55.389Z</time></trkpt><trkpt lat="44.3605264" lon="8.1789023"><ele>497.00000000000006</ele><time>2026-05-03T15:56:56.389Z</time></trkpt><trkpt lat="44.3605287" lon="8.178757"><ele>497.0</ele><time>2026-05-03T15:56:57.388Z</time></trkpt><trkpt lat="44.3605293" lon="8.1786147"><ele>497.0</ele><time>2026-05-03T15:56:58.389Z</time></trkpt><trkpt lat="44.3605303" lon="8.1784727"><ele>498.0</ele><time>2026-05-03T15:56:59.388Z</time></trkpt><trkpt lat="44.3605303" lon="8.1783341"><ele>499.00000000000006</ele><time>2026-05-03T15:57:00.388Z</time></trkpt><trkpt lat="44.3605281" lon="8.1782026"><ele>500.00000000000006</ele><time>2026-05-03T15:57:01.389Z</time></trkpt><trkpt lat="44.3605152" lon="8.1780734"><ele>501.0</ele><time>2026-05-03T15:57:02.389Z</time></trkpt><trkpt lat="44.3604913" lon="8.1779491"><ele>502.0</ele><time>2026-05-03T15:57:03.388Z</time></trkpt><trkpt lat="44.3604551" lon="8.1778281"><ele>502.40000000000003</ele><time>2026-05-03T15:57:04.389Z</time></trkpt><trkpt lat="44.3604205" lon="8.1777018"><ele>502.80000000000007</ele><time>2026-05-03T15:57:05.389Z</time></trkpt><trkpt lat="44.3603966" lon="8.1775695"><ele>503.2</ele><time>2026-05-03T15:57:06.389Z</time></trkpt><trkpt lat="44.3603869" lon="8.1774386"><ele>503.6</ele><time>2026-05-03T15:57:07.388Z</time></trkpt><trkpt lat="44.3603945" lon="8.1773072"><ele>504.0</ele><time>2026-05-03T15:57:08.389Z</time></trkpt><trkpt lat="44.360409" lon="8.1771804"><ele>504.6</ele><time>2026-05-03T15:57:09.388Z</time></trkpt><trkpt lat="44.3604248" lon="8.1770539"><ele>505.2</ele><time>2026-05-03T15:57:10.388Z</time></trkpt><trkpt lat="44.3604465" lon="8.1769329"><ele>505.80000000000007</ele><time>2026-05-03T15:57:11.389Z</time></trkpt><trkpt lat="44.3604734" lon="8.1768155"><ele>506.40000000000003</ele><time>2026-05-03T15:57:12.388Z</time></trkpt><trkpt lat="44.3605081" lon="8.1766919"><ele>507.0</ele><time>2026-05-03T15:57:13.388Z</time></trkpt><trkpt lat="44.3605462" lon="8.1765699"><ele>515.5</ele><time>2026-05-03T15:57:14.389Z</time></trkpt><trkpt lat="44.3605783" lon="8.1764211"><ele>524.0</ele><time>2026-05-03T15:57:15.388Z</time></trkpt><trkpt lat="44.3606118" lon="8.1762437"><ele>532.5</ele><time>2026-05-03T15:57:16.388Z</time></trkpt><trkpt lat="44.3606425" lon="8.1760561"><ele>541.0</ele><time>2026-05-03T15:57:17.389Z</time></trkpt><trkpt lat="44.3606696" lon="8.1758529"><ele>539.3333333333334</ele><time>2026-05-03T15:57:18.388Z</time></trkpt><trkpt lat="44.3607094" lon="8.1756544"><ele>537.6666666666666</ele><time>2026-05-03T15:57:19.388Z</time></trkpt><trkpt lat="44.360781" lon="8.175455"><ele>536.0</ele><time>2026-05-03T15:57:20.388Z</time></trkpt><trkpt lat="44.3608552" lon="8.175255"><ele>536.0</ele><time>2026-05-03T15:57:21.388Z</time></trkpt><trkpt lat="44.3609564" lon="8.1750589"><ele>536.0</ele><time>2026-05-03T15:57:22.389Z</time></trkpt><trkpt lat="44.3610477" lon="8.1748525"><ele>536.0</ele><time>2026-05-03T15:57:23.389Z</time></trkpt><trkpt lat="44.3611358" lon="8.1746562"><ele>532.3333333333333</ele><time>2026-05-03T15:57:24.389Z</time></trkpt><trkpt lat="44.3612279" lon="8.1744754"><ele>528.6666666666666</ele><time>2026-05-03T15:57:25.389Z</time></trkpt><trkpt lat="44.3613231" lon="8.1743073"><ele>525.0</ele><time>2026-05-03T15:57:26.388Z</time></trkpt><trkpt lat="44.361418" lon="8.1741555"><ele>528.25</ele><time>2026-05-03T15:57:27.389Z</time></trkpt><trkpt lat="44.3615152" lon="8.1740128"><ele>531.5</ele><time>2026-05-03T15:57:28.388Z</time></trkpt><trkpt lat="44.3616172" lon="8.1738849"><ele>534.75</ele><time>2026-05-03T15:57:29.388Z</time></trkpt><trkpt lat="44.3617326" lon="8.1737622"><ele>538.0</ele><time>2026-05-03T15:57:30.388Z</time></trkpt><trkpt lat="44.3618683" lon="8.1736466"><ele>538.0</ele><time>2026-05-03T15:57:31.389Z</time></trkpt><trkpt lat="44.3620153" lon="8.1735287"><ele>538.0</ele><time>2026-05-03T15:57:32.388Z</time></trkpt><trkpt lat="44.3621778" lon="8.1734083"><ele>538.0</ele><time>2026-05-03T15:57:33.388Z</time></trkpt><trkpt lat="44.3623511" lon="8.1732837"><ele>543.0</ele><time>2026-05-03T15:57:34.388Z</time></trkpt><trkpt lat="44.3625219" lon="8.1731614"><ele>548.0</ele><time>2026-05-03T15:57:35.389Z</time></trkpt><trkpt lat="44.3626938" lon="8.1730263"><ele>553.0</ele><time>2026-05-03T15:57:36.388Z</time></trkpt><trkpt lat="44.3628628" lon="8.1728814"><ele>553.0</ele><time>2026-05-03T15:57:37.389Z</time></trkpt><trkpt lat="44.3630273" lon="8.1727213"><ele>553.0</ele><time>2026-05-03T15:57:38.388Z</time></trkpt><trkpt lat="44.3631872" lon="8.1725447"><ele>553.0</ele><time>2026-05-03T15:57:39.388Z</time></trkpt><trkpt lat="44.3633422" lon="8.1723542"><ele>558.3333333333334</ele><time>2026-05-03T15:57:40.388Z</time></trkpt><trkpt lat="44.36349" lon="8.1721498"><ele>563.6666666666666</ele><time>2026-05-03T15:57:41.388Z</time></trkpt><trkpt lat="44.3636285" lon="8.1719231"><ele>569.0</ele><time>2026-05-03T15:57:42.388Z</time></trkpt><trkpt lat="44.3637585" lon="8.1716775"><ele>571.6666666666666</ele><time>2026-05-03T15:57:43.388Z</time></trkpt><trkpt lat="44.3638748" lon="8.1714175"><ele>574.3333333333334</ele><time>2026-05-03T15:57:44.388Z</time></trkpt><trkpt lat="44.3639836" lon="8.1711468"><ele>577.0</ele><time>2026-05-03T15:57:45.388Z</time></trkpt><trkpt lat="44.364083" lon="8.1708579"><ele>583.0</ele><time>2026-05-03T15:57:46.388Z</time></trkpt><trkpt lat="44.3641703" lon="8.1705554"><ele>589.0</ele><time>2026-05-03T15:57:47.388Z</time></trkpt><trkpt lat="44.3642377" lon="8.1702443"><ele>589.0</ele><time>2026-05-03T15:57:48.389Z</time></trkpt><trkpt lat="44.3642903" lon="8.169924"><ele>589.0</ele><time>2026-05-03T15:57:49.389Z</time></trkpt><trkpt lat="44.3643276" lon="8.1695961"><ele>592.0</ele><time>2026-05-03T15:57:50.389Z</time></trkpt><trkpt lat="44.3643451" lon="8.1692643"><ele>595.0</ele><time>2026-05-03T15:57:51.388Z</time></trkpt><trkpt lat="44.3643444" lon="8.1689282"><ele>595.0</ele><time>2026-05-03T15:57:52.389Z</time></trkpt><trkpt lat="44.3643288" lon="8.1685864"><ele>595.0</ele><time>2026-05-03T15:57:53.388Z</time></trkpt><trkpt lat="44.3643069" lon="8.1682417"><ele>598.5</ele><time>2026-05-03T15:57:54.389Z</time></trkpt><trkpt lat="44.364285" lon="8.16791"><ele>602.0</ele><time>2026-05-03T15:57:55.388Z</time></trkpt><trkpt lat="44.3642626" lon="8.1675786"><ele>605.5</ele><time>2026-05-03T15:57:56.388Z</time></trkpt><trkpt lat="44.3642401" lon="8.1672514"><ele>609.0</ele><time>2026-05-03T15:57:57.389Z</time></trkpt><trkpt lat="44.3642166" lon="8.1669267"><ele>609.0</ele><time>2026-05-03T15:57:58.388Z</time></trkpt><trkpt lat="44.3641918" lon="8.1665966"><ele>609.0</ele><time>2026-05-03T15:57:59.389Z</time></trkpt><trkpt lat="44.3641698" lon="8.1662704"><ele>611.0</ele><time>2026-05-03T15:58:00.388Z</time></trkpt><trkpt lat="44.3641468" lon="8.1659412"><ele>613.0</ele><time>2026-05-03T15:58:01.389Z</time></trkpt><trkpt lat="44.3641252" lon="8.1656241"><ele>615.3333333333334</ele><time>2026-05-03T15:58:02.388Z</time></trkpt><trkpt lat="44.3641012" lon="8.1653157"><ele>617.6666666666666</ele><time>2026-05-03T15:58:03.388Z</time></trkpt><trkpt lat="44.3640789" lon="8.1650102"><ele>620.0</ele><time>2026-05-03T15:58:04.388Z</time></trkpt><trkpt lat="44.3640556" lon="8.1647092"><ele>620.6666666666666</ele><time>2026-05-03T15:58:05.388Z</time></trkpt><trkpt lat="44.3640339" lon="8.164413"><ele>621.3333333333334</ele><time>2026-05-03T15:58:06.388Z</time></trkpt><trkpt lat="44.364013" lon="8.1641211"><ele>622.0</ele><time>2026-05-03T15:58:07.389Z</time></trkpt><trkpt lat="44.3639922" lon="8.1638345"><ele>624.6666666666667</ele><time>2026-05-03T15:58:08.388Z</time></trkpt><trkpt lat="44.3639701" lon="8.1635544"><ele>627.3333333333334</ele><time>2026-05-03T15:58:09.389Z</time></trkpt><trkpt lat="44.3639498" lon="8.1632767"><ele>630.0</ele><time>2026-05-03T15:58:10.388Z</time></trkpt><trkpt lat="44.3639341" lon="8.1629978"><ele>628.0</ele><time>2026-05-03T15:58:11.388Z</time></trkpt><trkpt lat="44.3639177" lon="8.1627196"><ele>626.0</ele><time>2026-05-03T15:58:12.389Z</time></trkpt><trkpt lat="44.3638979" lon="8.1624594"><ele>624.0</ele><time>2026-05-03T15:58:13.388Z</time></trkpt><trkpt lat="44.3686181" lon="8.152288"><ele>624.0</ele><time>2026-05-03T15:59:01.381Z</time></trkpt><trkpt lat="44.3687894" lon="8.1521713"><ele>624.0</ele><time>2026-05-03T15:59:02.376Z</time></trkpt><trkpt lat="44.3689685" lon="8.1520494"><ele>624.0</ele><time>2026-05-03T15:59:03.372Z</time></trkpt><trkpt lat="44.3691505" lon="8.1519286"><ele>626.6666666666666</ele><time>2026-05-03T15:59:04.391Z</time></trkpt><trkpt lat="44.3693336" lon="8.1518095"><ele>629.3333333333333</ele><time>2026-05-03T15:59:05.382Z</time></trkpt><trkpt lat="44.3695187" lon="8.151685"><ele>632.0</ele><time>2026-05-03T15:59:06.383Z</time></trkpt><trkpt lat="44.3697021" lon="8.1515506"><ele>635.3333333333333</ele><time>2026-05-03T15:59:07.383Z</time></trkpt><trkpt lat="44.3698897" lon="8.1514147"><ele>638.6666666666666</ele><time>2026-05-03T15:59:08.384Z</time></trkpt><trkpt lat="44.3700837" lon="8.1512856"><ele>642.0</ele><time>2026-05-03T15:59:09.383Z</time></trkpt><trkpt lat="44.3702952" lon="8.1511524"><ele>642.0</ele><time>2026-05-03T15:59:10.383Z</time></trkpt><trkpt lat="44.3704967" lon="8.151018"><ele>642.0</ele><time>2026-05-03T15:59:11.383Z</time></trkpt><trkpt lat="44.3707088" lon="8.1508829"><ele>649.5</ele><time>2026-05-03T15:59:12.383Z</time></trkpt><trkpt lat="44.3709186" lon="8.1507469"><ele>657.0</ele><time>2026-05-03T15:59:13.383Z</time></trkpt><trkpt lat="44.3711229" lon="8.1506122"><ele>660.6666666666666</ele><time>2026-05-03T15:59:14.383Z</time></trkpt><trkpt lat="44.3713202" lon="8.1504829"><ele>664.3333333333333</ele><time>2026-05-03T15:59:15.383Z</time></trkpt><trkpt lat="44.3715159" lon="8.1503543"><ele>668.0</ele><time>2026-05-03T15:59:16.383Z</time></trkpt><trkpt lat="44.3717142" lon="8.1502243"><ele>668.0</ele><time>2026-05-03T15:59:17.384Z</time></trkpt><trkpt lat="44.3719136" lon="8.150094"><ele>668.0</ele><time>2026-05-03T15:59:18.383Z</time></trkpt><trkpt lat="44.3721114" lon="8.1499599"><ele>668.0</ele><time>2026-05-03T15:59:19.383Z</time></trkpt><trkpt lat="44.372311" lon="8.1498268"><ele>669.5</ele><time>2026-05-03T15:59:20.383Z</time></trkpt><trkpt lat="44.3725137" lon="8.1496926"><ele>671.0</ele><time>2026-05-03T15:59:21.383Z</time></trkpt><trkpt lat="44.3727184" lon="8.1495603"><ele>671.0</ele><time>2026-05-03T15:59:22.383Z</time></trkpt><trkpt lat="44.3729226" lon="8.1494262"><ele>671.0</ele><time>2026-05-03T15:59:23.384Z</time></trkpt><trkpt lat="44.3731292" lon="8.149291"><ele>670.5</ele><time>2026-05-03T15:59:24.383Z</time></trkpt><trkpt lat="44.3733345" lon="8.1491539"><ele>670.0</ele><time>2026-05-03T15:59:25.383Z</time></trkpt><trkpt lat="44.3735394" lon="8.1490161"><ele>672.5</ele><time>2026-05-03T15:59:26.383Z</time></trkpt><trkpt lat="44.3737459" lon="8.1488752"><ele>675.0</ele><time>2026-05-03T15:59:27.383Z</time></trkpt><trkpt lat="44.3739483" lon="8.1487292"><ele>675.0</ele><time>2026-05-03T15:59:28.383Z</time></trkpt><trkpt lat="44.3741485" lon="8.1485681"><ele>675.0</ele><time>2026-05-03T15:59:29.384Z</time></trkpt><trkpt lat="44.3743439" lon="8.1483878"><ele>676.0</ele><time>2026-05-03T15:59:30.384Z</time></trkpt><trkpt lat="44.3745302" lon="8.1481864"><ele>677.0</ele><time>2026-05-03T15:59:31.383Z</time></trkpt><trkpt lat="44.3747092" lon="8.1479691"><ele>677.0</ele><time>2026-05-03T15:59:32.383Z</time></trkpt><trkpt lat="44.3748822" lon="8.1477412"><ele>677.0</ele><time>2026-05-03T15:59:33.383Z</time></trkpt><trkpt lat="44.3750434" lon="8.1474933"><ele>677.0</ele><time>2026-05-03T15:59:34.383Z</time></trkpt><trkpt lat="44.3751921" lon="8.1472257"><ele>677.0</ele><time>2026-05-03T15:59:35.383Z</time></trkpt><trkpt lat="44.3753281" lon="8.1469411"><ele>677.0</ele><time>2026-05-03T15:59:36.384Z</time></trkpt><trkpt lat="44.375454" lon="8.1466459"><ele>677.0</ele><time>2026-05-03T15:59:37.383Z</time></trkpt><trkpt lat="44.3755654" lon="8.1463403"><ele>687.0</ele><time>2026-05-03T15:59:38.383Z</time></trkpt><trkpt lat="44.375661" lon="8.1460216"><ele>697.0</ele><time>2026-05-03T15:59:39.384Z</time></trkpt><trkpt lat="44.3757388" lon="8.1456914"><ele>697.5</ele><time>2026-05-03T15:59:40.383Z</time></trkpt><trkpt lat="44.3758015" lon="8.145351"><ele>698.0</ele><time>2026-05-03T15:59:41.383Z</time></trkpt><trkpt lat="44.3758468" lon="8.1450083"><ele>700.5</ele><time>2026-05-03T15:59:42.383Z</time></trkpt><trkpt lat="44.3758758" lon="8.1446592"><ele>703.0</ele><time>2026-05-03T15:59:43.383Z</time></trkpt><trkpt lat="44.3758866" lon="8.1443075"><ele>702.5</ele><time>2026-05-03T15:59:44.383Z</time></trkpt><trkpt lat="44.3758788" lon="8.1439541"><ele>702.0</ele><time>2026-05-03T15:59:45.383Z</time></trkpt><trkpt lat="44.3758522" lon="8.1436025"><ele>702.0</ele><time>2026-05-03T15:59:46.383Z</time></trkpt><trkpt lat="44.3758056" lon="8.143262"><ele>702.0</ele><time>2026-05-03T15:59:47.383Z</time></trkpt><trkpt lat="44.3757465" lon="8.1429329"><ele>707.5</ele><time>2026-05-03T15:59:48.383Z</time></trkpt><trkpt lat="44.3756783" lon="8.14262"><ele>713.0</ele><time>2026-05-03T15:59:49.383Z</time></trkpt><trkpt lat="44.3755981" lon="8.1423207"><ele>712.6666666666666</ele><time>2026-05-03T15:59:50.383Z</time></trkpt><trkpt lat="44.3755078" lon="8.1420331"><ele>712.3333333333334</ele><time>2026-05-03T15:59:51.383Z</time></trkpt><trkpt lat="44.3754095" lon="8.1417554"><ele>712.0</ele><time>2026-05-03T15:59:52.383Z</time></trkpt><trkpt lat="44.3753069" lon="8.1414912"><ele>716.3333333333334</ele><time>2026-05-03T15:59:53.384Z</time></trkpt><trkpt lat="44.375209" lon="8.1412459"><ele>720.6666666666666</ele><time>2026-05-03T15:59:54.384Z</time></trkpt><trkpt lat="44.3751242" lon="8.1410174"><ele>725.0</ele><time>2026-05-03T15:59:55.384Z</time></trkpt><trkpt lat="44.3750519" lon="8.1408062"><ele>726.5</ele><time>2026-05-03T15:59:56.383Z</time></trkpt><trkpt lat="44.3749918" lon="8.1406073"><ele>728.0</ele><time>2026-05-03T15:59:57.384Z</time></trkpt><trkpt lat="44.374945" lon="8.1404212"><ele>729.5</ele><time>2026-05-03T15:59:58.383Z</time></trkpt><trkpt lat="44.3749135" lon="8.1402496"><ele>731.0</ele><time>2026-05-03T15:59:59.384Z</time></trkpt><trkpt lat="44.3749076" lon="8.1400913"><ele>731.0</ele><time>2026-05-03T16:00:00.383Z</time></trkpt><trkpt lat="44.3749323" lon="8.1399454"><ele>731.0</ele><time>2026-05-03T16:00:01.383Z</time></trkpt><trkpt lat="44.3749882" lon="8.139816"><ele>731.0</ele><time>2026-05-03T16:00:02.383Z</time></trkpt><trkpt lat="44.3750564" lon="8.139689"><ele>731.0</ele><time>2026-05-03T16:00:03.383Z</time></trkpt><trkpt lat="44.3751224" lon="8.139552"><ele>731.0</ele><time>2026-05-03T16:00:04.383Z</time></trkpt><trkpt lat="44.375197" lon="8.1394235"><ele>730.0</ele><time>2026-05-03T16:00:05.383Z</time></trkpt><trkpt lat="44.3753151" lon="8.1393579"><ele>729.0</ele><time>2026-05-03T16:00:06.383Z</time></trkpt><trkpt lat="44.3754546" lon="8.1393345"><ele>728.0</ele><time>2026-05-03T16:00:07.383Z</time></trkpt><trkpt lat="44.3756013" lon="8.139335"><ele>727.0</ele><time>2026-05-03T16:00:08.384Z</time></trkpt><trkpt lat="44.3757508" lon="8.1393486"><ele>725.3333333333334</ele><time>2026-05-03T16:00:09.383Z</time></trkpt><trkpt lat="44.3759031" lon="8.1393879"><ele>723.6666666666666</ele><time>2026-05-03T16:00:10.383Z</time></trkpt><trkpt lat="44.3760508" lon="8.1394586"><ele>722.0</ele><time>2026-05-03T16:00:11.383Z</time></trkpt><trkpt lat="44.3761898" lon="8.1395523"><ele>722.0</ele><time>2026-05-03T16:00:12.383Z</time></trkpt><trkpt lat="44.3763317" lon="8.1396477"><ele>722.0</ele><time>2026-05-03T16:00:13.384Z</time></trkpt><trkpt lat="44.3764748" lon="8.1397377"><ele>722.0</ele><time>2026-05-03T16:00:14.384Z</time></trkpt><trkpt lat="44.3766131" lon="8.1398256"><ele>721.25</ele><time>2026-05-03T16:00:15.384Z</time></trkpt><trkpt lat="44.3767499" lon="8.139907"><ele>720.5</ele><time>2026-05-03T16:00:16.383Z</time></trkpt><trkpt lat="44.3768911" lon="8.1399602"><ele>719.75</ele><time>2026-05-03T16:00:17.383Z</time></trkpt><trkpt lat="44.3770437" lon="8.139971"><ele>719.0</ele><time>2026-05-03T16:00:18.383Z</time></trkpt><trkpt lat="44.3771918" lon="8.1399365"><ele>717.25</ele><time>2026-05-03T16:00:19.383Z</time></trkpt><trkpt lat="44.377322" lon="8.1398565"><ele>715.5</ele><time>2026-05-03T16:00:20.383Z</time></trkpt><trkpt lat="44.3774233" lon="8.1397202"><ele>713.75</ele><time>2026-05-03T16:00:21.383Z</time></trkpt><trkpt lat="44.3774905" lon="8.1395309"><ele>712.0</ele><time>2026-05-03T16:00:22.384Z</time></trkpt><trkpt lat="44.3775284" lon="8.1393043"><ele>712.0</ele><time>2026-05-03T16:00:23.383Z</time></trkpt><trkpt lat="44.3775522" lon="8.1390621"><ele>712.0</ele><time>2026-05-03T16:00:24.384Z</time></trkpt><trkpt lat="44.3775745" lon="8.1388295"><ele>712.0</ele><time>2026-05-03T16:00:25.384Z</time></trkpt><trkpt lat="44.3776114" lon="8.1386155"><ele>709.0</ele><time>2026-05-03T16:00:26.383Z</time></trkpt><trkpt lat="44.3776831" lon="8.1384125"><ele>706.0</ele><time>2026-05-03T16:00:27.383Z</time></trkpt><trkpt lat="44.3777929" lon="8.1382272"><ele>703.0</ele><time>2026-05-03T16:00:28.383Z</time></trkpt><trkpt lat="44.3779282" lon="8.1380583"><ele>700.3333333333334</ele><time>2026-05-03T16:00:29.383Z</time></trkpt><trkpt lat="44.3780802" lon="8.1379088"><ele>697.6666666666666</ele><time>2026-05-03T16:00:30.383Z</time></trkpt><trkpt lat="44.3782484" lon="8.1377779"><ele>695.0</ele><time>2026-05-03T16:00:31.383Z</time></trkpt><trkpt lat="44.3784224" lon="8.1376517"><ele>695.0</ele><time>2026-05-03T16:00:32.383Z</time></trkpt><trkpt lat="44.3785889" lon="8.1375171"><ele>695.0</ele><time>2026-05-03T16:00:33.383Z</time></trkpt><trkpt lat="44.3787485" lon="8.1373565"><ele>695.0</ele><time>2026-05-03T16:00:34.384Z</time></trkpt><trkpt lat="44.3788942" lon="8.1371684"><ele>693.6666666666666</ele><time>2026-05-03T16:00:35.383Z</time></trkpt><trkpt lat="44.3790193" lon="8.1369531"><ele>692.3333333333334</ele><time>2026-05-03T16:00:36.384Z</time></trkpt><trkpt lat="44.3791255" lon="8.1367228"><ele>691.0</ele><time>2026-05-03T16:00:37.383Z</time></trkpt><trkpt lat="44.3792129" lon="8.1364791"><ele>687.6666666666667</ele><time>2026-05-03T16:00:38.383Z</time></trkpt><trkpt lat="44.3792796" lon="8.1362258"><ele>684.3333333333334</ele><time>2026-05-03T16:00:39.383Z</time></trkpt><trkpt lat="44.3793172" lon="8.1359603"><ele>681.0</ele><time>2026-05-03T16:00:40.384Z</time></trkpt><trkpt lat="44.3793259" lon="8.1356861"><ele>680.6666666666666</ele><time>2026-05-03T16:00:41.383Z</time></trkpt><trkpt lat="44.3793112" lon="8.1354097"><ele>680.3333333333333</ele><time>2026-05-03T16:00:42.383Z</time></trkpt><trkpt lat="44.3792786" lon="8.1351308"><ele>680.0</ele><time>2026-05-03T16:00:43.383Z</time></trkpt><trkpt lat="44.3792323" lon="8.1348533"><ele>678.3333333333333</ele><time>2026-05-03T16:00:44.384Z</time></trkpt><trkpt lat="44.3791857" lon="8.134578"><ele>676.6666666666666</ele><time>2026-05-03T16:00:45.384Z</time></trkpt><trkpt lat="44.3791543" lon="8.1343075"><ele>675.0</ele><time>2026-05-03T16:00:46.383Z</time></trkpt><trkpt lat="44.3791531" lon="8.1340326"><ele>672.3333333333334</ele><time>2026-05-03T16:00:47.383Z</time></trkpt><trkpt lat="44.3791868" lon="8.1337564"><ele>669.6666666666667</ele><time>2026-05-03T16:00:48.383Z</time></trkpt><trkpt lat="44.3792453" lon="8.1334878"><ele>667.0</ele><time>2026-05-03T16:00:49.383Z</time></trkpt><trkpt lat="44.3793157" lon="8.133238"><ele>663.0</ele><time>2026-05-03T16:00:50.383Z</time></trkpt><trkpt lat="44.3793831" lon="8.1330082"><ele>659.0</ele><time>2026-05-03T16:00:51.383Z</time></trkpt><trkpt lat="44.3794393" lon="8.1328001"><ele>655.0</ele><time>2026-05-03T16:00:52.383Z</time></trkpt><trkpt lat="44.3794756" lon="8.1326181"><ele>655.0</ele><time>2026-05-03T16:00:53.383Z</time></trkpt><trkpt lat="44.3794785" lon="8.1324479"><ele>655.0</ele><time>2026-05-03T16:00:54.384Z</time></trkpt><trkpt lat="44.3794337" lon="8.13228"><ele>655.0</ele><time>2026-05-03T16:00:55.383Z</time></trkpt><trkpt lat="44.3793423" lon="8.132149"><ele>655.0</ele><time>2026-05-03T16:00:56.383Z</time></trkpt><trkpt lat="44.3792219" lon="8.132078"><ele>651.0</ele><time>2026-05-03T16:00:57.383Z</time></trkpt><trkpt lat="44.3790922" lon="8.1320748"><ele>647.0</ele><time>2026-05-03T16:00:58.383Z</time></trkpt><trkpt lat="44.378971" lon="8.1321403"><ele>643.0</ele><time>2026-05-03T16:00:59.383Z</time></trkpt><trkpt lat="44.3788755" lon="8.1322624"><ele>639.0</ele><time>2026-05-03T16:01:00.383Z</time></trkpt><trkpt lat="44.3788138" lon="8.1324322"><ele>639.0</ele><time>2026-05-03T16:01:01.383Z</time></trkpt><trkpt lat="44.3787834" lon="8.1326382"><ele>639.0</ele><time>2026-05-03T16:01:02.383Z</time></trkpt><trkpt lat="44.3787649" lon="8.1328664"><ele>639.0</ele><time>2026-05-03T16:01:03.383Z</time></trkpt><trkpt lat="44.3787415" lon="8.1330966"><ele>641.3333333333334</ele><time>2026-05-03T16:01:04.383Z</time></trkpt><trkpt lat="44.3787116" lon="8.1333235"><ele>643.6666666666667</ele><time>2026-05-03T16:01:05.383Z</time></trkpt><trkpt lat="44.3786799" lon="8.133552"><ele>646.0</ele><time>2026-05-03T16:01:06.383Z</time></trkpt><trkpt lat="44.3786515" lon="8.1337811"><ele>646.0</ele><time>2026-05-03T16:01:07.384Z</time></trkpt><trkpt lat="44.3786268" lon="8.1339959"><ele>646.0</ele><time>2026-05-03T16:01:08.384Z</time></trkpt><trkpt lat="44.3786027" lon="8.1341911"><ele>646.0</ele><time>2026-05-03T16:01:09.383Z</time></trkpt><trkpt lat="44.3785744" lon="8.134367"><ele>646.0</ele><time>2026-05-03T16:01:10.384Z</time></trkpt><trkpt lat="44.3785271" lon="8.1345259"><ele>647.25</ele><time>2026-05-03T16:01:11.383Z</time></trkpt><trkpt lat="44.3784482" lon="8.1346569"><ele>648.5</ele><time>2026-05-03T16:01:12.383Z</time></trkpt><trkpt lat="44.378344" lon="8.134742"><ele>649.75</ele><time>2026-05-03T16:01:13.383Z</time></trkpt><trkpt lat="44.3782319" lon="8.1348011"><ele>651.0</ele><time>2026-05-03T16:01:14.384Z</time></trkpt><trkpt lat="44.3781058" lon="8.1347483"><ele>649.25</ele><time>2026-05-03T16:01:15.383Z</time></trkpt><trkpt lat="44.377995" lon="8.1346487"><ele>647.5</ele><time>2026-05-03T16:01:16.384Z</time></trkpt><trkpt lat="44.377914" lon="8.1345059"><ele>645.75</ele><time>2026-05-03T16:01:17.383Z</time></trkpt><trkpt lat="44.3778735" lon="8.1343227"><ele>644.0</ele><time>2026-05-03T16:01:18.383Z</time></trkpt><trkpt lat="44.3778745" lon="8.1341172"><ele>639.3333333333333</ele><time>2026-05-03T16:01:19.383Z</time></trkpt><trkpt lat="44.3779002" lon="8.1338889"><ele>634.6666666666666</ele><time>2026-05-03T16:01:20.383Z</time></trkpt><trkpt lat="44.3779301" lon="8.1336506"><ele>630.0</ele><time>2026-05-03T16:01:21.383Z</time></trkpt><trkpt lat="44.3779584" lon="8.1334085"><ele>633.0</ele><time>2026-05-03T16:01:22.383Z</time></trkpt><trkpt lat="44.3779865" lon="8.1331684"><ele>636.0</ele><time>2026-05-03T16:01:23.383Z</time></trkpt><trkpt lat="44.3780134" lon="8.1329366"><ele>639.0</ele><time>2026-05-03T16:01:24.383Z</time></trkpt><trkpt lat="44.378037" lon="8.1327218"><ele>639.0</ele><time>2026-05-03T16:01:25.383Z</time></trkpt><trkpt lat="44.3780679" lon="8.1325193"><ele>639.0</ele><time>2026-05-03T16:01:26.383Z</time></trkpt><trkpt lat="44.3781279" lon="8.132327"><ele>639.0</ele><time>2026-05-03T16:01:27.383Z</time></trkpt><trkpt lat="44.3782324" lon="8.1321556"><ele>634.3333333333334</ele><time>2026-05-03T16:01:28.383Z</time></trkpt><trkpt lat="44.3783737" lon="8.1320071"><ele>629.6666666666667</ele><time>2026-05-03T16:01:29.383Z</time></trkpt><trkpt lat="44.3785226" lon="8.1318627"><ele>625.0</ele><time>2026-05-03T16:01:30.383Z</time></trkpt><trkpt lat="44.3786615" lon="8.1317157"><ele>625.0</ele><time>2026-05-03T16:01:31.383Z</time></trkpt><trkpt lat="44.3787893" lon="8.1315784"><ele>625.0</ele><time>2026-05-03T16:01:32.384Z</time></trkpt><trkpt lat="44.3789125" lon="8.1314563"><ele>625.0</ele><time>2026-05-03T16:01:33.383Z</time></trkpt><trkpt lat="44.3790496" lon="8.1313649"><ele>623.0</ele><time>2026-05-03T16:01:34.384Z</time></trkpt><trkpt lat="44.3792058" lon="8.1313112"><ele>621.0</ele><time>2026-05-03T16:01:35.383Z</time></trkpt><trkpt lat="44.3793614" lon="8.1312851"><ele>619.0</ele><time>2026-05-03T16:01:36.384Z</time></trkpt><trkpt lat="44.3795026" lon="8.1312692"><ele>619.0</ele><time>2026-05-03T16:01:37.383Z</time></trkpt><trkpt lat="44.3796275" lon="8.1312402"><ele>619.0</ele><time>2026-05-03T16:01:38.384Z</time></trkpt><trkpt lat="44.3797355" lon="8.1311554"><ele>619.0</ele><time>2026-05-03T16:01:39.383Z</time></trkpt><trkpt lat="44.3798332" lon="8.1310037"><ele>619.0</ele><time>2026-05-03T16:01:40.384Z</time></trkpt><trkpt lat="44.3799123" lon="8.1307941"><ele>617.6666666666667</ele><time>2026-05-03T16:01:41.383Z</time></trkpt><trkpt lat="44.3799794" lon="8.130552"><ele>616.3333333333334</ele><time>2026-05-03T16:01:42.383Z</time></trkpt><trkpt lat="44.380048" lon="8.1303036"><ele>615.0</ele><time>2026-05-03T16:01:43.383Z</time></trkpt><trkpt lat="44.3801199" lon="8.1300524"><ele>610.6666666666666</ele><time>2026-05-03T16:01:44.383Z</time></trkpt><trkpt lat="44.3801928" lon="8.129798"><ele>606.3333333333333</ele><time>2026-05-03T16:01:45.383Z</time></trkpt><trkpt lat="44.3802632" lon="8.1295463"><ele>602.0</ele><time>2026-05-03T16:01:46.384Z</time></trkpt><trkpt lat="44.3803347" lon="8.1292969"><ele>603.0</ele><time>2026-05-03T16:01:47.383Z</time></trkpt><trkpt lat="44.3804117" lon="8.1290498"><ele>604.0</ele><time>2026-05-03T16:01:48.383Z</time></trkpt><trkpt lat="44.3805016" lon="8.128808"><ele>605.0</ele><time>2026-05-03T16:01:49.383Z</time></trkpt><trkpt lat="44.3806116" lon="8.1285784"><ele>605.0</ele><time>2026-05-03T16:01:50.383Z</time></trkpt><trkpt lat="44.3807298" lon="8.1283501"><ele>605.0</ele><time>2026-05-03T16:01:51.384Z</time></trkpt><trkpt lat="44.3808534" lon="8.128117"><ele>605.0</ele><time>2026-05-03T16:01:52.383Z</time></trkpt><trkpt lat="44.3809799" lon="8.1278813"><ele>601.6666666666666</ele><time>2026-05-03T16:01:53.383Z</time></trkpt><trkpt lat="44.3811067" lon="8.1276462"><ele>598.3333333333334</ele><time>2026-05-03T16:01:54.383Z</time></trkpt><trkpt lat="44.381236" lon="8.1274117"><ele>595.0</ele><time>2026-05-03T16:01:55.384Z</time></trkpt><trkpt lat="44.3813664" lon="8.1271693"><ele>595.0</ele><time>2026-05-03T16:01:56.384Z</time></trkpt><trkpt lat="44.3814972" lon="8.1269288"><ele>595.0</ele><time>2026-05-03T16:01:57.383Z</time></trkpt><trkpt lat="44.3816252" lon="8.1266861"><ele>595.0</ele><time>2026-05-03T16:01:58.384Z</time></trkpt><trkpt lat="44.3817519" lon="8.1264356"><ele>590.6666666666667</ele><time>2026-05-03T16:01:59.383Z</time></trkpt><trkpt lat="44.3818769" lon="8.1261858"><ele>586.3333333333334</ele><time>2026-05-03T16:02:00.383Z</time></trkpt><trkpt lat="44.3819974" lon="8.1259396"><ele>582.0</ele><time>2026-05-03T16:02:01.384Z</time></trkpt><trkpt lat="44.3821154" lon="8.1256943"><ele>584.0</ele><time>2026-05-03T16:02:02.383Z</time></trkpt><trkpt lat="44.3822284" lon="8.1254565"><ele>586.0</ele><time>2026-05-03T16:02:03.383Z</time></trkpt><trkpt lat="44.3823336" lon="8.125217"><ele>588.0</ele><time>2026-05-03T16:02:04.383Z</time></trkpt><trkpt lat="44.3824269" lon="8.1249738"><ele>583.3333333333334</ele><time>2026-05-03T16:02:05.383Z</time></trkpt><trkpt lat="44.3825129" lon="8.1247245"><ele>578.6666666666667</ele><time>2026-05-03T16:02:06.383Z</time></trkpt><trkpt lat="44.3826038" lon="8.1244755"><ele>574.0</ele><time>2026-05-03T16:02:07.383Z</time></trkpt><trkpt lat="44.3826864" lon="8.1242227"><ele>572.6666666666667</ele><time>2026-05-03T16:02:08.383Z</time></trkpt><trkpt lat="44.3827538" lon="8.1239582"><ele>571.3333333333334</ele><time>2026-05-03T16:02:09.383Z</time></trkpt><trkpt lat="44.3828119" lon="8.1236862"><ele>570.0</ele><time>2026-05-03T16:02:10.384Z</time></trkpt><trkpt lat="44.3828666" lon="8.1234166"><ele>569.0</ele><time>2026-05-03T16:02:11.384Z</time></trkpt><trkpt lat="44.382925" lon="8.1231462"><ele>568.0</ele><time>2026-05-03T16:02:12.384Z</time></trkpt><trkpt lat="44.3829875" lon="8.122884"><ele>567.0</ele><time>2026-05-03T16:02:13.384Z</time></trkpt><trkpt lat="44.3830608" lon="8.1226348"><ele>565.0</ele><time>2026-05-03T16:02:14.383Z</time></trkpt><trkpt lat="44.3831408" lon="8.1223944"><ele>563.0</ele><time>2026-05-03T16:02:15.383Z</time></trkpt><trkpt lat="44.383222" lon="8.1221751"><ele>561.0</ele><time>2026-05-03T16:02:16.383Z</time></trkpt><trkpt lat="44.3833117" lon="8.1219735"><ele>561.0</ele><time>2026-05-03T16:02:17.383Z</time></trkpt><trkpt lat="44.3834257" lon="8.1217918"><ele>561.0</ele><time>2026-05-03T16:02:18.383Z</time></trkpt><trkpt lat="44.383561" lon="8.1216218"><ele>561.0</ele><time>2026-05-03T16:02:19.383Z</time></trkpt><trkpt lat="44.3837031" lon="8.1214482"><ele>559.6666666666666</ele><time>2026-05-03T16:02:20.383Z</time></trkpt><trkpt lat="44.3838483" lon="8.1212708"><ele>558.3333333333333</ele><time>2026-05-03T16:02:21.383Z</time></trkpt><trkpt lat="44.3839911" lon="8.1210876"><ele>557.0</ele><time>2026-05-03T16:02:22.383Z</time></trkpt><trkpt lat="44.3841306" lon="8.1208969"><ele>553.6666666666666</ele><time>2026-05-03T16:02:23.383Z</time></trkpt><trkpt lat="44.3842617" lon="8.120697"><ele>550.3333333333334</ele><time>2026-05-03T16:02:24.383Z</time></trkpt><trkpt lat="44.384386" lon="8.1204867"><ele>547.0</ele><time>2026-05-03T16:02:25.384Z</time></trkpt><trkpt lat="44.384506" lon="8.1202703"><ele>547.0</ele><time>2026-05-03T16:02:26.384Z</time></trkpt><trkpt lat="44.3846123" lon="8.1200369"><ele>547.0</ele><time>2026-05-03T16:02:27.384Z</time></trkpt><trkpt lat="44.3847055" lon="8.1197861"><ele>547.0</ele><time>2026-05-03T16:02:28.384Z</time></trkpt><trkpt lat="44.3847886" lon="8.1195154"><ele>546.6666666666667</ele><time>2026-05-03T16:02:29.383Z</time></trkpt><trkpt lat="44.3848551" lon="8.1192376"><ele>546.3333333333334</ele><time>2026-05-03T16:02:30.383Z</time></trkpt><trkpt lat="44.3849061" lon="8.1189456"><ele>546.0</ele><time>2026-05-03T16:02:31.383Z</time></trkpt><trkpt lat="44.3849375" lon="8.1186428"><ele>546.6666666666666</ele><time>2026-05-03T16:02:32.383Z</time></trkpt><trkpt lat="44.3849434" lon="8.1183365"><ele>547.3333333333333</ele><time>2026-05-03T16:02:33.384Z</time></trkpt><trkpt lat="44.3849267" lon="8.1180236"><ele>548.0</ele><time>2026-05-03T16:02:34.384Z</time></trkpt><trkpt lat="44.3849017" lon="8.1177057"><ele>552.5</ele><time>2026-05-03T16:02:35.383Z</time></trkpt><trkpt lat="44.3848692" lon="8.1173897"><ele>557.0</ele><time>2026-05-03T16:02:36.383Z</time></trkpt><trkpt lat="44.3848252" lon="8.1170737"><ele>557.0</ele><time>2026-05-03T16:02:37.384Z</time></trkpt><trkpt lat="44.3847653" lon="8.1167585"><ele>557.0</ele><time>2026-05-03T16:02:38.384Z</time></trkpt><trkpt lat="44.384698" lon="8.1164572"><ele>550.0</ele><time>2026-05-03T16:02:39.383Z</time></trkpt><trkpt lat="44.3846285" lon="8.1161703"><ele>543.0</ele><time>2026-05-03T16:02:40.383Z</time></trkpt><trkpt lat="44.3845587" lon="8.1159088"><ele>536.0</ele><time>2026-05-03T16:02:41.383Z</time></trkpt><trkpt lat="44.3844745" lon="8.1156741"><ele>536.0</ele><time>2026-05-03T16:02:42.383Z</time></trkpt><trkpt lat="44.3843608" lon="8.1154791"><ele>536.0</ele><time>2026-05-03T16:02:43.383Z</time></trkpt><trkpt lat="44.3842146" lon="8.115332"><ele>536.0</ele><time>2026-05-03T16:02:44.383Z</time></trkpt><trkpt lat="44.3840551" lon="8.1152373"><ele>536.0</ele><time>2026-05-03T16:02:45.384Z</time></trkpt><trkpt lat="44.3839074" lon="8.1151636"><ele>536.0</ele><time>2026-05-03T16:02:46.384Z</time></trkpt><trkpt lat="44.3837714" lon="8.1150703"><ele>536.0</ele><time>2026-05-03T16:02:47.383Z</time></trkpt><trkpt lat="44.3836508" lon="8.1149317"><ele>531.3333333333333</ele><time>2026-05-03T16:02:48.383Z</time></trkpt><trkpt lat="44.3835539" lon="8.1147655"><ele>526.6666666666666</ele><time>2026-05-03T16:02:49.383Z</time></trkpt><trkpt lat="44.3834826" lon="8.1145751"><ele>522.0</ele><time>2026-05-03T16:02:50.383Z</time></trkpt><trkpt lat="44.3834493" lon="8.114351"><ele>522.0</ele><time>2026-05-03T16:02:51.383Z</time></trkpt><trkpt lat="44.3834508" lon="8.1141122"><ele>522.0</ele><time>2026-05-03T16:02:52.383Z</time></trkpt><trkpt lat="44.3834931" lon="8.1138656"><ele>522.0</ele><time>2026-05-03T16:02:53.383Z</time></trkpt><trkpt lat="44.3835541" lon="8.1136135"><ele>522.3333333333334</ele><time>2026-05-03T16:02:54.383Z</time></trkpt><trkpt lat="44.3836134" lon="8.1133521"><ele>522.6666666666667</ele><time>2026-05-03T16:02:55.383Z</time></trkpt><trkpt lat="44.3836669" lon="8.1130879"><ele>523.0</ele><time>2026-05-03T16:02:56.384Z</time></trkpt><trkpt lat="44.3837118" lon="8.1128224"><ele>523.0</ele><time>2026-05-03T16:02:57.383Z</time></trkpt><trkpt lat="44.3837502" lon="8.1125716"><ele>523.0</ele><time>2026-05-03T16:02:58.384Z</time></trkpt><trkpt lat="44.3837884" lon="8.1123224"><ele>523.0</ele><time>2026-05-03T16:02:59.384Z</time></trkpt><trkpt lat="44.3837983" lon="8.1120715"><ele>523.0</ele><time>2026-05-03T16:03:00.383Z</time></trkpt><trkpt lat="44.3837671" lon="8.1118186"><ele>523.0</ele><time>2026-05-03T16:03:01.383Z</time></trkpt><trkpt lat="44.3837089" lon="8.1115711"><ele>523.0</ele><time>2026-05-03T16:03:02.383Z</time></trkpt><trkpt lat="44.3836256" lon="8.1113442"><ele>523.0</ele><time>2026-05-03T16:03:03.383Z</time></trkpt><trkpt lat="44.3835189" lon="8.1111297"><ele>523.0</ele><time>2026-05-03T16:03:04.383Z</time></trkpt><trkpt lat="44.3834011" lon="8.1109391"><ele>523.0</ele><time>2026-05-03T16:03:05.383Z</time></trkpt><trkpt lat="44.3832913" lon="8.110754"><ele>525.3333333333334</ele><time>2026-05-03T16:03:06.383Z</time></trkpt><trkpt lat="44.3832103" lon="8.1105441"><ele>527.6666666666666</ele><time>2026-05-03T16:03:07.383Z</time></trkpt><trkpt lat="44.3831677" lon="8.1103082"><ele>530.0</ele><time>2026-05-03T16:03:08.383Z</time></trkpt><trkpt lat="44.3831432" lon="8.1100409"><ele>533.0</ele><time>2026-05-03T16:03:09.384Z</time></trkpt><trkpt lat="44.3831154" lon="8.1097639"><ele>536.0</ele><time>2026-05-03T16:03:10.383Z</time></trkpt><trkpt lat="44.3830777" lon="8.1094804"><ele>539.0</ele><time>2026-05-03T16:03:11.383Z</time></trkpt><trkpt lat="44.3830173" lon="8.1091958"><ele>529.3333333333333</ele><time>2026-05-03T16:03:12.383Z</time></trkpt><trkpt lat="44.3829351" lon="8.1089286"><ele>519.6666666666666</ele><time>2026-05-03T16:03:13.383Z</time></trkpt><trkpt lat="44.3828453" lon="8.1086671"><ele>510.0</ele><time>2026-05-03T16:03:14.384Z</time></trkpt><trkpt lat="44.3827539" lon="8.1084082"><ele>514.6666666666666</ele><time>2026-05-03T16:03:15.383Z</time></trkpt><trkpt lat="44.3826638" lon="8.1081509"><ele>519.3333333333333</ele><time>2026-05-03T16:03:16.383Z</time></trkpt><trkpt lat="44.3825589" lon="8.1079142"><ele>524.0</ele><time>2026-05-03T16:03:17.384Z</time></trkpt><trkpt lat="44.382436" lon="8.1077114"><ele>524.0</ele><time>2026-05-03T16:03:18.383Z</time></trkpt><trkpt lat="44.3823015" lon="8.1075229"><ele>524.0</ele><time>2026-05-03T16:03:19.383Z</time></trkpt><trkpt lat="44.3821663" lon="8.1073324"><ele>524.0</ele><time>2026-05-03T16:03:20.383Z</time></trkpt><trkpt lat="44.3820303" lon="8.1071415"><ele>520.6666666666666</ele><time>2026-05-03T16:03:21.383Z</time></trkpt><trkpt lat="44.3818917" lon="8.1069567"><ele>517.3333333333334</ele><time>2026-05-03T16:03:22.383Z</time></trkpt><trkpt lat="44.3817564" lon="8.1067693"><ele>514.0</ele><time>2026-05-03T16:03:23.383Z</time></trkpt><trkpt lat="44.3816227" lon="8.1065757"><ele>511.33333333333337</ele><time>2026-05-03T16:03:24.383Z</time></trkpt><trkpt lat="44.3814958" lon="8.1063799"><ele>508.66666666666663</ele><time>2026-05-03T16:03:25.383Z</time></trkpt><trkpt lat="44.3813784" lon="8.1061911"><ele>506.0</ele><time>2026-05-03T16:03:26.383Z</time></trkpt><trkpt lat="44.3812673" lon="8.1060075"><ele>506.0</ele><time>2026-05-03T16:03:27.383Z</time></trkpt><trkpt lat="44.381155" lon="8.1058292"><ele>506.0</ele><time>2026-05-03T16:03:28.384Z</time></trkpt><trkpt lat="44.381046" lon="8.1056556"><ele>506.0</ele><time>2026-05-03T16:03:29.384Z</time></trkpt><trkpt lat="44.3809381" lon="8.1054877"><ele>508.3333333333333</ele><time>2026-05-03T16:03:30.384Z</time></trkpt><trkpt lat="44.380851" lon="8.1053019"><ele>510.66666666666663</ele><time>2026-05-03T16:03:31.384Z</time></trkpt><trkpt lat="44.3807977" lon="8.1050872"><ele>513.0</ele><time>2026-05-03T16:03:32.384Z</time></trkpt><trkpt lat="44.3807691" lon="8.1048506"><ele>516.0</ele><time>2026-05-03T16:03:33.384Z</time></trkpt><trkpt lat="44.3807384" lon="8.1046088"><ele>519.0</ele><time>2026-05-03T16:03:34.383Z</time></trkpt><trkpt lat="44.380682" lon="8.1043668"><ele>522.0</ele><time>2026-05-03T16:03:35.384Z</time></trkpt><trkpt lat="44.3806064" lon="8.1041272"><ele>529.3333333333334</ele><time>2026-05-03T16:03:36.383Z</time></trkpt><trkpt lat="44.3805246" lon="8.1038826"><ele>536.6666666666667</ele><time>2026-05-03T16:03:37.383Z</time></trkpt><trkpt lat="44.3804388" lon="8.1036444"><ele>544.0</ele><time>2026-05-03T16:03:38.384Z</time></trkpt><trkpt lat="44.3803381" lon="8.1034145"><ele>533.6666666666667</ele><time>2026-05-03T16:03:39.383Z</time></trkpt><trkpt lat="44.3802213" lon="8.1031965"><ele>523.3333333333334</ele><time>2026-05-03T16:03:40.383Z</time></trkpt><trkpt lat="44.3800865" lon="8.1029927"><ele>513.0</ele><time>2026-05-03T16:03:41.383Z</time></trkpt><trkpt lat="44.3799365" lon="8.102806"><ele>513.0</ele><time>2026-05-03T16:03:42.384Z</time></trkpt><trkpt lat="44.3797754" lon="8.1026303"><ele>513.0</ele><time>2026-05-03T16:03:43.383Z</time></trkpt><trkpt lat="44.3796127" lon="8.102463"><ele>513.0</ele><time>2026-05-03T16:03:44.383Z</time></trkpt><trkpt lat="44.3794593" lon="8.1022981"><ele>510.33333333333337</ele><time>2026-05-03T16:03:45.383Z</time></trkpt><trkpt lat="44.3793062" lon="8.10214"><ele>507.6666666666667</ele><time>2026-05-03T16:03:46.383Z</time></trkpt><trkpt lat="44.3791595" lon="8.1019872"><ele>505.0</ele><time>2026-05-03T16:03:47.383Z</time></trkpt><trkpt lat="44.3790158" lon="8.1018428"><ele>505.0</ele><time>2026-05-03T16:03:48.383Z</time></trkpt><trkpt lat="44.3788786" lon="8.1017014"><ele>505.0</ele><time>2026-05-03T16:03:49.383Z</time></trkpt><trkpt lat="44.3787464" lon="8.1015619"><ele>505.0</ele><time>2026-05-03T16:03:50.383Z</time></trkpt><trkpt lat="44.3786156" lon="8.101427"><ele>501.33333333333337</ele><time>2026-05-03T16:03:51.384Z</time></trkpt><trkpt lat="44.3784915" lon="8.1012847"><ele>497.66666666666663</ele><time>2026-05-03T16:03:52.384Z</time></trkpt><trkpt lat="44.3783828" lon="8.101135"><ele>494.0</ele><time>2026-05-03T16:03:53.384Z</time></trkpt><trkpt lat="44.3782867" lon="8.1009665"><ele>494.0</ele><time>2026-05-03T16:03:54.383Z</time></trkpt><trkpt lat="44.3781941" lon="8.1007956"><ele>494.0</ele><time>2026-05-03T16:03:55.383Z</time></trkpt><trkpt lat="44.3781021" lon="8.1006314"><ele>494.0</ele><time>2026-05-03T16:03:56.383Z</time></trkpt><trkpt lat="44.3779986" lon="8.1004768"><ele>493.0</ele><time>2026-05-03T16:03:57.383Z</time></trkpt><trkpt lat="44.3778841" lon="8.1003371"><ele>492.0</ele><time>2026-05-03T16:03:58.383Z</time></trkpt><trkpt lat="44.3777558" lon="8.1002152"><ele>491.0</ele><time>2026-05-03T16:03:59.383Z</time></trkpt><trkpt lat="44.3776273" lon="8.1000963"><ele>491.0</ele><time>2026-05-03T16:04:00.384Z</time></trkpt><trkpt lat="44.3774977" lon="8.0999703"><ele>491.0</ele><time>2026-05-03T16:04:01.383Z</time></trkpt><trkpt lat="44.3773633" lon="8.099845"><ele>491.0</ele><time>2026-05-03T16:04:02.383Z</time></trkpt><trkpt lat="44.3772264" lon="8.0997251"><ele>490.66666666666663</ele><time>2026-05-03T16:04:03.383Z</time></trkpt><trkpt lat="44.3770913" lon="8.0996011"><ele>490.33333333333337</ele><time>2026-05-03T16:04:04.384Z</time></trkpt><trkpt lat="44.3769561" lon="8.0994786"><ele>490.0</ele><time>2026-05-03T16:04:05.383Z</time></trkpt><trkpt lat="44.3768212" lon="8.0993495"><ele>490.0</ele><time>2026-05-03T16:04:06.383Z</time></trkpt><trkpt lat="44.3766789" lon="8.0992232"><ele>490.0</ele><time>2026-05-03T16:04:07.384Z</time></trkpt><trkpt lat="44.3765354" lon="8.0991007"><ele>490.0</ele><time>2026-05-03T16:04:08.384Z</time></trkpt><trkpt lat="44.3763868" lon="8.0989817"><ele>486.33333333333337</ele><time>2026-05-03T16:04:09.384Z</time></trkpt><trkpt lat="44.3762362" lon="8.0988603"><ele>482.66666666666663</ele><time>2026-05-03T16:04:10.384Z</time></trkpt><trkpt lat="44.3760817" lon="8.0987418"><ele>479.0</ele><time>2026-05-03T16:04:11.383Z</time></trkpt><trkpt lat="44.3759218" lon="8.098624"><ele>479.0</ele><time>2026-05-03T16:04:12.383Z</time></trkpt><trkpt lat="44.3757635" lon="8.0985091"><ele>479.0</ele><time>2026-05-03T16:04:13.383Z</time></trkpt><trkpt lat="44.3756054" lon="8.0983901"><ele>479.0</ele><time>2026-05-03T16:04:14.383Z</time></trkpt><trkpt lat="44.3754496" lon="8.0982721"><ele>478.66666666666663</ele><time>2026-05-03T16:04:15.384Z</time></trkpt><trkpt lat="44.3752966" lon="8.0981588"><ele>478.33333333333337</ele><time>2026-05-03T16:04:16.383Z</time></trkpt><trkpt lat="44.3751485" lon="8.0980535"><ele>478.0</ele><time>2026-05-03T16:04:17.383Z</time></trkpt><trkpt lat="44.3750071" lon="8.0979519"><ele>478.0</ele><time>2026-05-03T16:04:18.384Z</time></trkpt><trkpt lat="44.3748791" lon="8.0978427"><ele>478.0</ele><time>2026-05-03T16:04:19.383Z</time></trkpt><trkpt lat="44.3747439" lon="8.0977503"><ele>478.0</ele><time>2026-05-03T16:04:20.383Z</time></trkpt><trkpt lat="44.374625" lon="8.09766"><ele>478.0</ele><time>2026-05-03T16:04:21.383Z</time></trkpt><trkpt lat="44.3745148" lon="8.0975601"><ele>478.25</ele><time>2026-05-03T16:04:22.383Z</time></trkpt><trkpt lat="44.3744223" lon="8.0974508"><ele>478.5</ele><time>2026-05-03T16:04:23.383Z</time></trkpt><trkpt lat="44.3743383" lon="8.0973335"><ele>478.75</ele><time>2026-05-03T16:04:24.384Z</time></trkpt><trkpt lat="44.3742637" lon="8.0972147"><ele>479.0</ele><time>2026-05-03T16:04:25.383Z</time></trkpt><trkpt lat="44.3742074" lon="8.0970885"><ele>478.4</ele><time>2026-05-03T16:04:26.383Z</time></trkpt><trkpt lat="44.3741669" lon="8.0969494"><ele>477.79999999999995</ele><time>2026-05-03T16:04:27.383Z</time></trkpt><trkpt lat="44.3741407" lon="8.0968056"><ele>477.20000000000005</ele><time>2026-05-03T16:04:28.383Z</time></trkpt><trkpt lat="44.3741093" lon="8.0966621"><ele>476.6</ele><time>2026-05-03T16:04:29.383Z</time></trkpt><trkpt lat="44.3740591" lon="8.0965361"><ele>476.0</ele><time>2026-05-03T16:04:30.383Z</time></trkpt><trkpt lat="44.3740053" lon="8.096406"><ele>476.0</ele><time>2026-05-03T16:04:31.383Z</time></trkpt><trkpt lat="44.373964" lon="8.0962533"><ele>476.0</ele><time>2026-05-03T16:04:32.383Z</time></trkpt><trkpt lat="44.3739431" lon="8.0960756"><ele>476.0</ele><time>2026-05-03T16:04:33.383Z</time></trkpt><trkpt lat="44.3739382" lon="8.0958799"><ele>476.0</ele><time>2026-05-03T16:04:34.383Z</time></trkpt><trkpt lat="44.3739453" lon="8.0956806"><ele>477.0</ele><time>2026-05-03T16:04:35.384Z</time></trkpt><trkpt lat="44.3739627" lon="8.0954727"><ele>478.0</ele><time>2026-05-03T16:04:36.383Z</time></trkpt><trkpt lat="44.3739848" lon="8.09527"><ele>479.0</ele><time>2026-05-03T16:04:37.383Z</time></trkpt><trkpt lat="44.3740176" lon="8.0950678"><ele>480.0</ele><time>2026-05-03T16:04:38.383Z</time></trkpt><trkpt lat="44.3740529" lon="8.0948615"><ele>480.25</ele><time>2026-05-03T16:04:39.384Z</time></trkpt><trkpt lat="44.3740889" lon="8.0946605"><ele>480.5</ele><time>2026-05-03T16:04:40.383Z</time></trkpt><trkpt lat="44.3741251" lon="8.0944582"><ele>480.75</ele><time>2026-05-03T16:04:41.384Z</time></trkpt><trkpt lat="44.3741643" lon="8.094254"><ele>481.0</ele><time>2026-05-03T16:04:42.383Z</time></trkpt><trkpt lat="44.3742034" lon="8.0940523"><ele>481.33333333333337</ele><time>2026-05-03T16:04:43.383Z</time></trkpt><trkpt lat="44.3742469" lon="8.093847"><ele>481.66666666666663</ele><time>2026-05-03T16:04:44.383Z</time></trkpt><trkpt lat="44.3742927" lon="8.09365"><ele>482.0</ele><time>2026-05-03T16:04:45.384Z</time></trkpt><trkpt lat="44.3743413" lon="8.0934484"><ele>482.66666666666663</ele><time>2026-05-03T16:04:46.383Z</time></trkpt><trkpt lat="44.3743856" lon="8.0932454"><ele>483.33333333333337</ele><time>2026-05-03T16:04:47.383Z</time></trkpt><trkpt lat="44.3744305" lon="8.0930375"><ele>484.0</ele><time>2026-05-03T16:04:48.383Z</time></trkpt><trkpt lat="44.3744752" lon="8.0928245"><ele>484.0</ele><time>2026-05-03T16:04:49.383Z</time></trkpt><trkpt lat="44.3745179" lon="8.0926096"><ele>484.0</ele><time>2026-05-03T16:04:50.383Z</time></trkpt><trkpt lat="44.3745638" lon="8.0923899"><ele>484.0</ele><time>2026-05-03T16:04:51.383Z</time></trkpt><trkpt lat="44.3746119" lon="8.0921641"><ele>483.6666666666667</ele><time>2026-05-03T16:04:52.383Z</time></trkpt><trkpt lat="44.3746627" lon="8.0919297"><ele>483.33333333333337</ele><time>2026-05-03T16:04:53.383Z</time></trkpt><trkpt lat="44.3747126" lon="8.0916914"><ele>483.0</ele><time>2026-05-03T16:04:54.383Z</time></trkpt><trkpt lat="44.3747638" lon="8.0914422"><ele>479.0</ele><time>2026-05-03T16:04:55.384Z</time></trkpt><trkpt lat="44.3748214" lon="8.0911753"><ele>475.0</ele><time>2026-05-03T16:04:56.383Z</time></trkpt><trkpt lat="44.3748784" lon="8.0909017"><ele>471.0</ele><time>2026-05-03T16:04:57.383Z</time></trkpt><trkpt lat="44.3749366" lon="8.0906161"><ele>471.0</ele><time>2026-05-03T16:04:58.384Z</time></trkpt><trkpt lat="44.3749976" lon="8.0903234"><ele>471.0</ele><time>2026-05-03T16:04:59.384Z</time></trkpt><trkpt lat="44.3750588" lon="8.090025"><ele>471.0</ele><time>2026-05-03T16:05:00.384Z</time></trkpt><trkpt lat="44.3751194" lon="8.0897221"><ele>471.0</ele><time>2026-05-03T16:05:01.384Z</time></trkpt><trkpt lat="44.3751821" lon="8.0894227"><ele>471.0</ele><time>2026-05-03T16:05:02.383Z</time></trkpt><trkpt lat="44.3752405" lon="8.0891272"><ele>471.0</ele><time>2026-05-03T16:05:03.383Z</time></trkpt><trkpt lat="44.3753005" lon="8.0888426"><ele>469.66666666666663</ele><time>2026-05-03T16:05:04.383Z</time></trkpt><trkpt lat="44.3753625" lon="8.0885669"><ele>468.3333333333333</ele><time>2026-05-03T16:05:05.383Z</time></trkpt><trkpt lat="44.3754199" lon="8.0883059"><ele>467.0</ele><time>2026-05-03T16:05:06.383Z</time></trkpt><trkpt lat="44.3754701" lon="8.0880677"><ele>467.25</ele><time>2026-05-03T16:05:07.383Z</time></trkpt><trkpt lat="44.3755136" lon="8.0878533"><ele>467.5</ele><time>2026-05-03T16:05:08.384Z</time></trkpt><trkpt lat="44.3755524" lon="8.0876587"><ele>467.75</ele><time>2026-05-03T16:05:09.383Z</time></trkpt><trkpt lat="44.3755902" lon="8.0874678"><ele>468.0</ele><time>2026-05-03T16:05:10.384Z</time></trkpt><trkpt lat="44.3756224" lon="8.0872889"><ele>468.0</ele><time>2026-05-03T16:05:11.383Z</time></trkpt><trkpt lat="44.3756536" lon="8.0871292"><ele>467.99999999999994</ele><time>2026-05-03T16:05:12.383Z</time></trkpt><trkpt lat="44.3756764" lon="8.0869926"><ele>467.99999999999994</ele><time>2026-05-03T16:05:13.383Z</time></trkpt><trkpt lat="44.3756964" lon="8.0868743"><ele>468.0</ele><time>2026-05-03T16:05:14.384Z</time></trkpt><trkpt lat="44.3757148" lon="8.0867635"><ele>468.0</ele><time>2026-05-03T16:05:15.384Z</time></trkpt><trkpt lat="44.3757466" lon="8.0866558"><ele>468.0</ele><time>2026-05-03T16:05:16.384Z</time></trkpt><trkpt lat="44.3757823" lon="8.086552"><ele>468.0</ele><time>2026-05-03T16:05:17.384Z</time></trkpt><trkpt lat="44.3758013" lon="8.0864417"><ele>468.0</ele><time>2026-05-03T16:05:18.383Z</time></trkpt><trkpt lat="44.3757948" lon="8.0863273"><ele>468.0</ele><time>2026-05-03T16:05:19.383Z</time></trkpt><trkpt lat="44.3757716" lon="8.08621"><ele>468.0</ele><time>2026-05-03T16:05:20.383Z</time></trkpt><trkpt lat="44.3757595" lon="8.0860736"><ele>468.0</ele><time>2026-05-03T16:05:21.383Z</time></trkpt><trkpt lat="44.3757515" lon="8.0859255"><ele>468.0</ele><time>2026-05-03T16:05:22.383Z</time></trkpt><trkpt lat="44.3757371" lon="8.0857699"><ele>468.0</ele><time>2026-05-03T16:05:23.383Z</time></trkpt><trkpt lat="44.3757101" lon="8.0855992"><ele>468.0</ele><time>2026-05-03T16:05:24.383Z</time></trkpt><trkpt lat="44.3756675" lon="8.0854104"><ele>468.0</ele><time>2026-05-03T16:05:25.383Z</time></trkpt><trkpt lat="44.3756109" lon="8.0851922"><ele>468.66666666666663</ele><time>2026-05-03T16:05:26.384Z</time></trkpt><trkpt lat="44.375541" lon="8.0849481"><ele>469.3333333333333</ele><time>2026-05-03T16:05:27.383Z</time></trkpt><trkpt lat="44.375458" lon="8.0846761"><ele>470.0</ele><time>2026-05-03T16:05:28.384Z</time></trkpt><trkpt lat="44.3753675" lon="8.0843782"><ele>469.5</ele><time>2026-05-03T16:05:29.383Z</time></trkpt><trkpt lat="44.3752738" lon="8.0840676"><ele>469.0</ele><time>2026-05-03T16:05:30.383Z</time></trkpt><trkpt lat="44.375175" lon="8.0837466"><ele>469.0</ele><time>2026-05-03T16:05:31.383Z</time></trkpt><trkpt lat="44.3750791" lon="8.0834115"><ele>469.0</ele><time>2026-05-03T16:05:32.383Z</time></trkpt><trkpt lat="44.3749884" lon="8.0830965"><ele>469.0</ele><time>2026-05-03T16:05:33.383Z</time></trkpt><trkpt lat="44.3748989" lon="8.0827999"><ele>469.0</ele><time>2026-05-03T16:05:34.383Z</time></trkpt><trkpt lat="44.3748143" lon="8.0825221"><ele>469.0</ele><time>2026-05-03T16:05:35.383Z</time></trkpt><trkpt lat="44.3747251" lon="8.0822433"><ele>467.0</ele><time>2026-05-03T16:05:36.383Z</time></trkpt><trkpt lat="44.3746317" lon="8.0819526"><ele>465.0</ele><time>2026-05-03T16:05:37.383Z</time></trkpt><trkpt lat="44.3745381" lon="8.0816442"><ele>466.0</ele><time>2026-05-03T16:05:38.383Z</time></trkpt><trkpt lat="44.3744478" lon="8.0813289"><ele>467.0</ele><time>2026-05-03T16:05:39.384Z</time></trkpt><trkpt lat="44.3743631" lon="8.081017"><ele>467.66666666666663</ele><time>2026-05-03T16:05:40.383Z</time></trkpt><trkpt lat="44.3742826" lon="8.0807245"><ele>468.33333333333337</ele><time>2026-05-03T16:05:41.383Z</time></trkpt><trkpt lat="44.374205" lon="8.0804421"><ele>469.0</ele><time>2026-05-03T16:05:42.383Z</time></trkpt><trkpt lat="44.3741266" lon="8.080179"><ele>468.33333333333337</ele><time>2026-05-03T16:05:43.383Z</time></trkpt><trkpt lat="44.3740638" lon="8.0799142"><ele>467.66666666666663</ele><time>2026-05-03T16:05:44.383Z</time></trkpt><trkpt lat="44.3740243" lon="8.0796388"><ele>467.0</ele><time>2026-05-03T16:05:45.383Z</time></trkpt><trkpt lat="44.3740114" lon="8.0793562"><ele>466.66666666666663</ele><time>2026-05-03T16:05:46.384Z</time></trkpt><trkpt lat="44.3740047" lon="8.0790589"><ele>466.33333333333337</ele><time>2026-05-03T16:05:47.383Z</time></trkpt><trkpt lat="44.373999" lon="8.0787589"><ele>466.0</ele><time>2026-05-03T16:05:48.383Z</time></trkpt><trkpt lat="44.3739968" lon="8.078464"><ele>465.6666666666667</ele><time>2026-05-03T16:05:49.384Z</time></trkpt><trkpt lat="44.3739917" lon="8.0781717"><ele>465.33333333333337</ele><time>2026-05-03T16:05:50.383Z</time></trkpt><trkpt lat="44.3739802" lon="8.0778856"><ele>465.0</ele><time>2026-05-03T16:05:51.383Z</time></trkpt><trkpt lat="44.3739531" lon="8.0776035"><ele>465.66666666666663</ele><time>2026-05-03T16:05:52.383Z</time></trkpt><trkpt lat="44.3738993" lon="8.0773244"><ele>466.3333333333333</ele><time>2026-05-03T16:05:53.384Z</time></trkpt><trkpt lat="44.373824" lon="8.0770517"><ele>467.0</ele><time>2026-05-03T16:05:54.383Z</time></trkpt><trkpt lat="44.373735" lon="8.0767788"><ele>464.3333333333333</ele><time>2026-05-03T16:05:55.383Z</time></trkpt><trkpt lat="44.3736441" lon="8.0765023"><ele>461.66666666666663</ele><time>2026-05-03T16:05:56.384Z</time></trkpt><trkpt lat="44.3735528" lon="8.0762265"><ele>459.0</ele><time>2026-05-03T16:05:57.383Z</time></trkpt><trkpt lat="44.3734631" lon="8.0759508"><ele>459.66666666666663</ele><time>2026-05-03T16:05:58.383Z</time></trkpt><trkpt lat="44.3733752" lon="8.0756742"><ele>460.3333333333333</ele><time>2026-05-03T16:05:59.383Z</time></trkpt><trkpt lat="44.3732888" lon="8.0754084"><ele>461.0</ele><time>2026-05-03T16:06:00.383Z</time></trkpt><trkpt lat="44.3732049" lon="8.0751456"><ele>461.0</ele><time>2026-05-03T16:06:01.383Z</time></trkpt><trkpt lat="44.3731212" lon="8.0748948"><ele>461.0</ele><time>2026-05-03T16:06:02.383Z</time></trkpt><trkpt lat="44.3730392" lon="8.0746524"><ele>461.0</ele><time>2026-05-03T16:06:03.383Z</time></trkpt><trkpt lat="44.3729633" lon="8.0744201"><ele>459.0</ele><time>2026-05-03T16:06:04.384Z</time></trkpt><trkpt lat="44.3728897" lon="8.0741927"><ele>457.0</ele><time>2026-05-03T16:06:05.383Z</time></trkpt><trkpt lat="44.3728347" lon="8.0739663"><ele>455.0</ele><time>2026-05-03T16:06:06.383Z</time></trkpt><trkpt lat="44.372804" lon="8.0737313"><ele>455.0</ele><time>2026-05-03T16:06:07.383Z</time></trkpt><trkpt lat="44.372797" lon="8.0734829"><ele>455.0</ele><time>2026-05-03T16:06:08.383Z</time></trkpt><trkpt lat="44.3728077" lon="8.073239"><ele>455.0</ele><time>2026-05-03T16:06:09.384Z</time></trkpt><trkpt lat="44.3728352" lon="8.0729988"><ele>454.0</ele><time>2026-05-03T16:06:10.383Z</time></trkpt><trkpt lat="44.3728866" lon="8.072772"><ele>453.0</ele><time>2026-05-03T16:06:11.384Z</time></trkpt><trkpt lat="44.372971" lon="8.0725612"><ele>452.0</ele><time>2026-05-03T16:06:12.383Z</time></trkpt><trkpt lat="44.3730929" lon="8.0723651"><ele>451.0</ele><time>2026-05-03T16:06:13.383Z</time></trkpt><trkpt lat="44.3732288" lon="8.0721754"><ele>450.0</ele><time>2026-05-03T16:06:14.383Z</time></trkpt><trkpt lat="44.3733793" lon="8.0719898"><ele>449.0</ele><time>2026-05-03T16:06:15.383Z</time></trkpt><trkpt lat="44.3735355" lon="8.0718005"><ele>449.0</ele><time>2026-05-03T16:06:16.383Z</time></trkpt><trkpt lat="44.3736954" lon="8.0716079"><ele>449.0</ele><time>2026-05-03T16:06:17.384Z</time></trkpt><trkpt lat="44.3738619" lon="8.0714147"><ele>449.0</ele><time>2026-05-03T16:06:18.383Z</time></trkpt><trkpt lat="44.374033" lon="8.0712138"><ele>448.5</ele><time>2026-05-03T16:06:19.383Z</time></trkpt><trkpt lat="44.3742081" lon="8.0710139"><ele>448.0</ele><time>2026-05-03T16:06:20.383Z</time></trkpt><trkpt lat="44.3743796" lon="8.0708125"><ele>448.33333333333337</ele><time>2026-05-03T16:06:21.383Z</time></trkpt><trkpt lat="44.3745505" lon="8.0706173"><ele>448.66666666666663</ele><time>2026-05-03T16:06:22.384Z</time></trkpt><trkpt lat="44.37472" lon="8.0704227"><ele>449.0</ele><time>2026-05-03T16:06:23.384Z</time></trkpt><trkpt lat="44.3748851" lon="8.0702296"><ele>449.3333333333333</ele><time>2026-05-03T16:06:24.384Z</time></trkpt><trkpt lat="44.3750409" lon="8.0700439"><ele>449.66666666666663</ele><time>2026-05-03T16:06:25.383Z</time></trkpt><trkpt lat="44.3751808" lon="8.0698493"><ele>450.0</ele><time>2026-05-03T16:06:26.383Z</time></trkpt><trkpt lat="44.375306" lon="8.0696415"><ele>450.0</ele><time>2026-05-03T16:06:27.383Z</time></trkpt><trkpt lat="44.3754155" lon="8.0694264"><ele>450.0</ele><time>2026-05-03T16:06:28.384Z</time></trkpt><trkpt lat="44.3755122" lon="8.0692014"><ele>450.0</ele><time>2026-05-03T16:06:29.383Z</time></trkpt><trkpt lat="44.3755937" lon="8.0689716"><ele>450.66666666666663</ele><time>2026-05-03T16:06:30.383Z</time></trkpt><trkpt lat="44.3756587" lon="8.0687467"><ele>451.3333333333333</ele><time>2026-05-03T16:06:31.383Z</time></trkpt><trkpt lat="44.3757087" lon="8.0685262"><ele>452.0</ele><time>2026-05-03T16:06:32.383Z</time></trkpt><trkpt lat="44.3757462" lon="8.0683176"><ele>453.25</ele><time>2026-05-03T16:06:33.383Z</time></trkpt><trkpt lat="44.3757721" lon="8.0681149"><ele>454.5</ele><time>2026-05-03T16:06:34.383Z</time></trkpt><trkpt lat="44.3757852" lon="8.0679284"><ele>455.75</ele><time>2026-05-03T16:06:35.383Z</time></trkpt><trkpt lat="44.3757971" lon="8.0677584"><ele>457.0</ele><time>2026-05-03T16:06:36.383Z</time></trkpt><trkpt lat="44.3758149" lon="8.0675975"><ele>457.00000000000006</ele><time>2026-05-03T16:06:37.383Z</time></trkpt><trkpt lat="44.3758396" lon="8.0674548"><ele>457.0</ele><time>2026-05-03T16:06:38.384Z</time></trkpt><trkpt lat="44.375876" lon="8.0673348"><ele>457.0</ele><time>2026-05-03T16:06:39.383Z</time></trkpt><trkpt lat="44.375902" lon="8.0672256"><ele>457.0</ele><time>2026-05-03T16:06:40.383Z</time></trkpt><trkpt lat="44.3758942" lon="8.0671165"><ele>457.00000000000006</ele><time>2026-05-03T16:06:41.383Z</time></trkpt><trkpt lat="44.3758546" lon="8.0670222"><ele>457.0</ele><time>2026-05-03T16:06:42.384Z</time></trkpt><trkpt lat="44.3757993" lon="8.0669188"><ele>458.25</ele><time>2026-05-03T16:06:43.383Z</time></trkpt><trkpt lat="44.3757568" lon="8.0667592"><ele>459.5</ele><time>2026-05-03T16:06:44.383Z</time></trkpt><trkpt lat="44.3757187" lon="8.0665722"><ele>460.75</ele><time>2026-05-03T16:06:45.383Z</time></trkpt><trkpt lat="44.3756827" lon="8.0663738"><ele>462.0</ele><time>2026-05-03T16:06:46.383Z</time></trkpt><trkpt lat="44.3756488" lon="8.0661502"><ele>462.0</ele><time>2026-05-03T16:06:47.383Z</time></trkpt><trkpt lat="44.375615" lon="8.0659127"><ele>462.0</ele><time>2026-05-03T16:06:48.383Z</time></trkpt><trkpt lat="44.3755781" lon="8.0656727"><ele>462.0</ele><time>2026-05-03T16:06:49.384Z</time></trkpt><trkpt lat="44.37554" lon="8.0654352"><ele>458.0</ele><time>2026-05-03T16:06:50.383Z</time></trkpt><trkpt lat="44.3755071" lon="8.0652089"><ele>454.0</ele><time>2026-05-03T16:06:51.383Z</time></trkpt><trkpt lat="44.3754757" lon="8.0649867"><ele>450.0</ele><time>2026-05-03T16:06:52.383Z</time></trkpt><trkpt lat="44.3754473" lon="8.0647696"><ele>446.33333333333337</ele><time>2026-05-03T16:06:53.383Z</time></trkpt><trkpt lat="44.3754149" lon="8.0645481"><ele>442.6666666666667</ele><time>2026-05-03T16:06:54.383Z</time></trkpt><trkpt lat="44.375385" lon="8.0643199"><ele>439.0</ele><time>2026-05-03T16:06:55.383Z</time></trkpt><trkpt lat="44.3753569" lon="8.0640836"><ele>435.33333333333337</ele><time>2026-05-03T16:06:56.383Z</time></trkpt><trkpt lat="44.3753306" lon="8.0638383"><ele>431.66666666666663</ele><time>2026-05-03T16:06:57.383Z</time></trkpt><trkpt lat="44.3753004" lon="8.0635849"><ele>428.0</ele><time>2026-05-03T16:06:58.383Z</time></trkpt><trkpt lat="44.3752722" lon="8.0633147"><ele>429.0</ele><time>2026-05-03T16:06:59.383Z</time></trkpt><trkpt lat="44.375246" lon="8.063035"><ele>430.0</ele><time>2026-05-03T16:07:00.384Z</time></trkpt><trkpt lat="44.3752302" lon="8.0627456"><ele>431.0</ele><time>2026-05-03T16:07:01.384Z</time></trkpt><trkpt lat="44.3752175" lon="8.0624503"><ele>433.3333333333333</ele><time>2026-05-03T16:07:02.383Z</time></trkpt><trkpt lat="44.375209" lon="8.0621438"><ele>435.66666666666663</ele><time>2026-05-03T16:07:03.383Z</time></trkpt><trkpt lat="44.3752004" lon="8.0618293"><ele>438.0</ele><time>2026-05-03T16:07:04.383Z</time></trkpt><trkpt lat="44.3751953" lon="8.0615027"><ele>438.5</ele><time>2026-05-03T16:07:05.383Z</time></trkpt><trkpt lat="44.3751915" lon="8.0611665"><ele>439.0</ele><time>2026-05-03T16:07:06.383Z</time></trkpt><trkpt lat="44.375186" lon="8.0608306"><ele>439.5</ele><time>2026-05-03T16:07:07.384Z</time></trkpt><trkpt lat="44.3751829" lon="8.0604959"><ele>440.0</ele><time>2026-05-03T16:07:08.383Z</time></trkpt><trkpt lat="44.3751787" lon="8.0601573"><ele>440.5</ele><time>2026-05-03T16:07:09.384Z</time></trkpt><trkpt lat="44.3751726" lon="8.059824"><ele>441.0</ele><time>2026-05-03T16:07:10.383Z</time></trkpt><trkpt lat="44.37517" lon="8.0594897"><ele>441.0</ele><time>2026-05-03T16:07:11.383Z</time></trkpt><trkpt lat="44.3751657" lon="8.0591542"><ele>441.0</ele><time>2026-05-03T16:07:12.383Z</time></trkpt><trkpt lat="44.375159" lon="8.0588224"><ele>440.0</ele><time>2026-05-03T16:07:13.383Z</time></trkpt><trkpt lat="44.3751535" lon="8.0584889"><ele>439.0</ele><time>2026-05-03T16:07:14.383Z</time></trkpt><trkpt lat="44.3751497" lon="8.0581544"><ele>439.0</ele><time>2026-05-03T16:07:15.383Z</time></trkpt><trkpt lat="44.3751477" lon="8.0578175"><ele>439.0</ele><time>2026-05-03T16:07:16.384Z</time></trkpt><trkpt lat="44.3751463" lon="8.0574776"><ele>438.5</ele><time>2026-05-03T16:07:17.384Z</time></trkpt><trkpt lat="44.3751443" lon="8.0571373"><ele>438.0</ele><time>2026-05-03T16:07:18.384Z</time></trkpt><trkpt lat="44.3751394" lon="8.0567956"><ele>437.5</ele><time>2026-05-03T16:07:19.384Z</time></trkpt><trkpt lat="44.3751331" lon="8.0564555"><ele>437.0</ele><time>2026-05-03T16:07:20.383Z</time></trkpt><trkpt lat="44.3751265" lon="8.0561143"><ele>435.5</ele><time>2026-05-03T16:07:21.383Z</time></trkpt><trkpt lat="44.3751228" lon="8.0557728"><ele>434.0</ele><time>2026-05-03T16:07:22.383Z</time></trkpt><trkpt lat="44.3751195" lon="8.0554327"><ele>434.0</ele><time>2026-05-03T16:07:23.384Z</time></trkpt><trkpt lat="44.3751158" lon="8.0550869"><ele>434.0</ele><time>2026-05-03T16:07:24.383Z</time></trkpt><trkpt lat="44.3751133" lon="8.0547383"><ele>434.5</ele><time>2026-05-03T16:07:25.383Z</time></trkpt><trkpt lat="44.3751064" lon="8.0543961"><ele>435.0</ele><time>2026-05-03T16:07:26.383Z</time></trkpt><trkpt lat="44.3750995" lon="8.0540542"><ele>436.0</ele><time>2026-05-03T16:07:27.384Z</time></trkpt><trkpt lat="44.3750932" lon="8.0537114"><ele>437.0</ele><time>2026-05-03T16:07:28.383Z</time></trkpt><trkpt lat="44.3750924" lon="8.0533675"><ele>437.5</ele><time>2026-05-03T16:07:29.383Z</time></trkpt><trkpt lat="44.3750903" lon="8.0530258"><ele>438.0</ele><time>2026-05-03T16:07:30.384Z</time></trkpt><trkpt lat="44.3750886" lon="8.0526862"><ele>437.5</ele><time>2026-05-03T16:07:31.383Z</time></trkpt><trkpt lat="44.3750847" lon="8.052355"><ele>437.0</ele><time>2026-05-03T16:07:32.382Z</time></trkpt><trkpt lat="44.37508" lon="8.0520385"><ele>437.0</ele><time>2026-05-03T16:07:33.383Z</time></trkpt><trkpt lat="44.3750755" lon="8.0517321"><ele>437.0</ele><time>2026-05-03T16:07:34.383Z</time></trkpt><trkpt lat="44.3750688" lon="8.0514424"><ele>437.0</ele><time>2026-05-03T16:07:35.383Z</time></trkpt><trkpt lat="44.3750654" lon="8.0511635"><ele>436.66666666666663</ele><time>2026-05-03T16:07:36.383Z</time></trkpt><trkpt lat="44.3750631" lon="8.0508947"><ele>436.33333333333337</ele><time>2026-05-03T16:07:37.383Z</time></trkpt><trkpt lat="44.3750601" lon="8.0506359"><ele>436.0</ele><time>2026-05-03T16:07:38.383Z</time></trkpt><trkpt lat="44.3750566" lon="8.050385"><ele>436.6666666666667</ele><time>2026-05-03T16:07:39.383Z</time></trkpt><trkpt lat="44.3750598" lon="8.050141"><ele>437.33333333333337</ele><time>2026-05-03T16:07:40.383Z</time></trkpt><trkpt lat="44.375074" lon="8.0498983"><ele>438.0</ele><time>2026-05-03T16:07:41.383Z</time></trkpt><trkpt lat="44.3751046" lon="8.0496586"><ele>438.33333333333337</ele><time>2026-05-03T16:07:42.383Z</time></trkpt><trkpt lat="44.3751516" lon="8.0494246"><ele>438.6666666666667</ele><time>2026-05-03T16:07:43.383Z</time></trkpt><trkpt lat="44.3752106" lon="8.0491939"><ele>439.0</ele><time>2026-05-03T16:07:44.383Z</time></trkpt><trkpt lat="44.3752745" lon="8.0489673"><ele>439.33333333333337</ele><time>2026-05-03T16:07:45.383Z</time></trkpt><trkpt lat="44.3753385" lon="8.0487451"><ele>439.66666666666663</ele><time>2026-05-03T16:07:46.383Z</time></trkpt><trkpt lat="44.3754004" lon="8.0485379"><ele>440.0</ele><time>2026-05-03T16:07:47.384Z</time></trkpt><trkpt lat="44.3754575" lon="8.0483387"><ele>440.66666666666663</ele><time>2026-05-03T16:07:48.383Z</time></trkpt><trkpt lat="44.3755126" lon="8.0481379"><ele>441.33333333333337</ele><time>2026-05-03T16:07:49.383Z</time></trkpt><trkpt lat="44.3755679" lon="8.0479396"><ele>442.0</ele><time>2026-05-03T16:07:50.383Z</time></trkpt><trkpt lat="44.3756226" lon="8.0477422"><ele>441.0</ele><time>2026-05-03T16:07:51.383Z</time></trkpt><trkpt lat="44.3756782" lon="8.0475416"><ele>440.0</ele><time>2026-05-03T16:07:52.383Z</time></trkpt><trkpt lat="44.375734" lon="8.0473474"><ele>439.0</ele><time>2026-05-03T16:07:53.383Z</time></trkpt><trkpt lat="44.3757915" lon="8.0471547"><ele>439.0</ele><time>2026-05-03T16:07:54.383Z</time></trkpt><trkpt lat="44.3758492" lon="8.046959"><ele>439.0</ele><time>2026-05-03T16:07:55.384Z</time></trkpt><trkpt lat="44.3759076" lon="8.0467605"><ele>439.0</ele><time>2026-05-03T16:07:56.383Z</time></trkpt><trkpt lat="44.3759667" lon="8.0465582"><ele>439.6666666666667</ele><time>2026-05-03T16:07:57.383Z</time></trkpt><trkpt lat="44.3760249" lon="8.0463585"><ele>440.33333333333337</ele><time>2026-05-03T16:07:58.383Z</time></trkpt><trkpt lat="44.3760813" lon="8.0461565"><ele>441.0</ele><time>2026-05-03T16:07:59.383Z</time></trkpt><trkpt lat="44.3761377" lon="8.0459532"><ele>441.33333333333337</ele><time>2026-05-03T16:08:00.384Z</time></trkpt><trkpt lat="44.3761928" lon="8.0457513"><ele>441.6666666666667</ele><time>2026-05-03T16:08:01.383Z</time></trkpt><trkpt lat="44.3762507" lon="8.0455553"><ele>442.0</ele><time>2026-05-03T16:08:02.384Z</time></trkpt><trkpt lat="44.3763051" lon="8.0453558"><ele>441.75</ele><time>2026-05-03T16:08:03.383Z</time></trkpt><trkpt lat="44.3763629" lon="8.0451613"><ele>441.5</ele><time>2026-05-03T16:08:04.383Z</time></trkpt><trkpt lat="44.3764222" lon="8.0449673"><ele>441.25</ele><time>2026-05-03T16:08:05.383Z</time></trkpt><trkpt lat="44.3764755" lon="8.0447774"><ele>441.0</ele><time>2026-05-03T16:08:06.383Z</time></trkpt><trkpt lat="44.3765297" lon="8.0445892"><ele>441.0</ele><time>2026-05-03T16:08:07.384Z</time></trkpt><trkpt lat="44.3765831" lon="8.0444002"><ele>441.0</ele><time>2026-05-03T16:08:08.384Z</time></trkpt><trkpt lat="44.3766382" lon="8.0442165"><ele>441.0</ele><time>2026-05-03T16:08:09.383Z</time></trkpt><trkpt lat="44.3766924" lon="8.0440357"><ele>441.0</ele><time>2026-05-03T16:08:10.383Z</time></trkpt><trkpt lat="44.3767468" lon="8.0438521"><ele>441.0</ele><time>2026-05-03T16:08:11.383Z</time></trkpt><trkpt lat="44.3768006" lon="8.0436679"><ele>441.0</ele><time>2026-05-03T16:08:12.383Z</time></trkpt><trkpt lat="44.3768527" lon="8.0434822"><ele>441.0</ele><time>2026-05-03T16:08:13.384Z</time></trkpt><trkpt lat="44.3769067" lon="8.0432875"><ele>441.0</ele><time>2026-05-03T16:08:14.384Z</time></trkpt><trkpt lat="44.3769632" lon="8.0430975"><ele>441.0</ele><time>2026-05-03T16:08:15.384Z</time></trkpt><trkpt lat="44.3770205" lon="8.042902"><ele>441.0</ele><time>2026-05-03T16:08:16.383Z</time></trkpt><trkpt lat="44.3770781" lon="8.0427082"><ele>441.0</ele><time>2026-05-03T16:08:17.383Z</time></trkpt><trkpt lat="44.3771311" lon="8.0425264"><ele>441.0</ele><time>2026-05-03T16:08:18.383Z</time></trkpt><trkpt lat="44.3771805" lon="8.0423521"><ele>440.6</ele><time>2026-05-03T16:08:19.383Z</time></trkpt><trkpt lat="44.3772244" lon="8.0421908"><ele>440.20000000000005</ele><time>2026-05-03T16:08:20.383Z</time></trkpt><trkpt lat="44.377264" lon="8.0420432"><ele>439.79999999999995</ele><time>2026-05-03T16:08:21.384Z</time></trkpt><trkpt lat="44.3773" lon="8.0419192"><ele>439.4</ele><time>2026-05-03T16:08:22.383Z</time></trkpt><trkpt lat="44.3773322" lon="8.0418094"><ele>439.0</ele><time>2026-05-03T16:08:23.384Z</time></trkpt><trkpt lat="44.3773626" lon="8.0417117"><ele>438.85714285714283</ele><time>2026-05-03T16:08:24.383Z</time></trkpt><trkpt lat="44.3773984" lon="8.0416201"><ele>438.71428571428567</ele><time>2026-05-03T16:08:25.384Z</time></trkpt><trkpt lat="44.3774368" lon="8.0415367"><ele>438.57142857142856</ele><time>2026-05-03T16:08:26.383Z</time></trkpt><trkpt lat="44.3774824" lon="8.0414573"><ele>438.42857142857144</ele><time>2026-05-03T16:08:27.383Z</time></trkpt><trkpt lat="44.3775267" lon="8.0413818"><ele>438.2857142857143</ele><time>2026-05-03T16:08:28.384Z</time></trkpt><trkpt lat="44.377568" lon="8.0413042"><ele>438.14285714285717</ele><time>2026-05-03T16:08:29.383Z</time></trkpt><trkpt lat="44.3775915" lon="8.0412223"><ele>438.0</ele><time>2026-05-03T16:08:30.383Z</time></trkpt><trkpt lat="44.3775875" lon="8.0410482"><ele>438.0</ele><time>2026-05-03T16:08:32.384Z</time></trkpt><trkpt lat="44.3775546" lon="8.0409519"><ele>437.99999999999994</ele><time>2026-05-03T16:08:33.383Z</time></trkpt><trkpt lat="44.3775102" lon="8.0408429"><ele>437.99999999999994</ele><time>2026-05-03T16:08:34.383Z</time></trkpt><trkpt lat="44.3774578" lon="8.0407046"><ele>438.0</ele><time>2026-05-03T16:08:35.383Z</time></trkpt><trkpt lat="44.377413" lon="8.0405541"><ele>438.0</ele><time>2026-05-03T16:08:36.384Z</time></trkpt><trkpt lat="44.3773669" lon="8.0403881"><ele>438.0</ele><time>2026-05-03T16:08:37.383Z</time></trkpt><trkpt lat="44.3773204" lon="8.0402079"><ele>438.0</ele><time>2026-05-03T16:08:38.384Z</time></trkpt><trkpt lat="44.3772743" lon="8.0400213"><ele>438.0</ele><time>2026-05-03T16:08:39.383Z</time></trkpt><trkpt lat="44.3772248" lon="8.0398207"><ele>438.0</ele><time>2026-05-03T16:08:40.383Z</time></trkpt><trkpt lat="44.3771742" lon="8.0396142"><ele>437.0</ele><time>2026-05-03T16:08:41.383Z</time></trkpt><trkpt lat="44.3771213" lon="8.0394017"><ele>436.0</ele><time>2026-05-03T16:08:42.384Z</time></trkpt><trkpt lat="44.3770693" lon="8.0391885"><ele>435.0</ele><time>2026-05-03T16:08:43.383Z</time></trkpt><trkpt lat="44.3770144" lon="8.0389733"><ele>434.0</ele><time>2026-05-03T16:08:44.383Z</time></trkpt><trkpt lat="44.3769606" lon="8.0387589"><ele>433.0</ele><time>2026-05-03T16:08:45.383Z</time></trkpt><trkpt lat="44.3769048" lon="8.0385426"><ele>432.0</ele><time>2026-05-03T16:08:46.384Z</time></trkpt><trkpt lat="44.3768551" lon="8.0383304"><ele>431.33333333333337</ele><time>2026-05-03T16:08:47.383Z</time></trkpt><trkpt lat="44.3768066" lon="8.0381246"><ele>430.6666666666667</ele><time>2026-05-03T16:08:48.383Z</time></trkpt><trkpt lat="44.3767693" lon="8.0379124"><ele>430.0</ele><time>2026-05-03T16:08:49.383Z</time></trkpt><trkpt lat="44.3767484" lon="8.0376941"><ele>430.0</ele><time>2026-05-03T16:08:50.383Z</time></trkpt><trkpt lat="44.3767448" lon="8.0374721"><ele>430.0</ele><time>2026-05-03T16:08:51.383Z</time></trkpt><trkpt lat="44.3767554" lon="8.0372414"><ele>430.0</ele><time>2026-05-03T16:08:52.383Z</time></trkpt><trkpt lat="44.3767809" lon="8.0370188"><ele>428.6666666666667</ele><time>2026-05-03T16:08:53.383Z</time></trkpt><trkpt lat="44.3768258" lon="8.0367993"><ele>427.33333333333337</ele><time>2026-05-03T16:08:54.383Z</time></trkpt><trkpt lat="44.3768912" lon="8.0365929"><ele>426.0</ele><time>2026-05-03T16:08:55.383Z</time></trkpt><trkpt lat="44.3769678" lon="8.0363828"><ele>424.33333333333337</ele><time>2026-05-03T16:08:56.384Z</time></trkpt><trkpt lat="44.3770458" lon="8.0361693"><ele>422.6666666666667</ele><time>2026-05-03T16:08:57.383Z</time></trkpt><trkpt lat="44.3771301" lon="8.0359484"><ele>421.0</ele><time>2026-05-03T16:08:58.383Z</time></trkpt><trkpt lat="44.3772131" lon="8.0357252"><ele>421.0</ele><time>2026-05-03T16:08:59.383Z</time></trkpt><trkpt lat="44.3772976" lon="8.0354957"><ele>421.0</ele><time>2026-05-03T16:09:00.383Z</time></trkpt><trkpt lat="44.377385" lon="8.0352688"><ele>421.0</ele><time>2026-05-03T16:09:01.383Z</time></trkpt><trkpt lat="44.3774749" lon="8.0350395"><ele>420.0</ele><time>2026-05-03T16:09:02.383Z</time></trkpt><trkpt lat="44.3775621" lon="8.0348156"><ele>419.0</ele><time>2026-05-03T16:09:03.383Z</time></trkpt><trkpt lat="44.3776492" lon="8.0345971"><ele>418.0</ele><time>2026-05-03T16:09:04.384Z</time></trkpt><trkpt lat="44.3777343" lon="8.0343791"><ele>418.0</ele><time>2026-05-03T16:09:05.384Z</time></trkpt><trkpt lat="44.3778178" lon="8.034163"><ele>418.0</ele><time>2026-05-03T16:09:06.384Z</time></trkpt><trkpt lat="44.3779007" lon="8.0339526"><ele>418.0</ele><time>2026-05-03T16:09:07.383Z</time></trkpt><trkpt lat="44.3779816" lon="8.0337441"><ele>418.0</ele><time>2026-05-03T16:09:08.383Z</time></trkpt><trkpt lat="44.378062" lon="8.033537"><ele>418.0</ele><time>2026-05-03T16:09:09.384Z</time></trkpt><trkpt lat="44.3781408" lon="8.0333337"><ele>418.0</ele><time>2026-05-03T16:09:10.383Z</time></trkpt><trkpt lat="44.3782198" lon="8.0331271"><ele>418.0</ele><time>2026-05-03T16:09:11.383Z</time></trkpt><trkpt lat="44.3782988" lon="8.03292"><ele>418.0</ele><time>2026-05-03T16:09:12.384Z</time></trkpt><trkpt lat="44.3783793" lon="8.0327074"><ele>418.0</ele><time>2026-05-03T16:09:13.384Z</time></trkpt><trkpt lat="44.3784627" lon="8.0324931"><ele>417.33333333333337</ele><time>2026-05-03T16:09:14.383Z</time></trkpt><trkpt lat="44.378544" lon="8.0322791"><ele>416.66666666666663</ele><time>2026-05-03T16:09:15.383Z</time></trkpt><trkpt lat="44.3786234" lon="8.0320677"><ele>416.0</ele><time>2026-05-03T16:09:16.383Z</time></trkpt><trkpt lat="44.3787045" lon="8.0318642"><ele>416.0</ele><time>2026-05-03T16:09:17.383Z</time></trkpt><trkpt lat="44.3787827" lon="8.0316659"><ele>416.0</ele><time>2026-05-03T16:09:18.383Z</time></trkpt><trkpt lat="44.3788586" lon="8.0314733"><ele>416.0</ele><time>2026-05-03T16:09:19.383Z</time></trkpt><trkpt lat="44.3789429" lon="8.0312937"><ele>414.25</ele><time>2026-05-03T16:09:20.383Z</time></trkpt><trkpt lat="44.3790475" lon="8.0311384"><ele>412.5</ele><time>2026-05-03T16:09:21.383Z</time></trkpt><trkpt lat="44.3791643" lon="8.0310144"><ele>410.75</ele><time>2026-05-03T16:09:22.384Z</time></trkpt><trkpt lat="44.3792923" lon="8.030921"><ele>409.0</ele><time>2026-05-03T16:09:23.383Z</time></trkpt><trkpt lat="44.3794227" lon="8.030844"><ele>408.25</ele><time>2026-05-03T16:09:24.383Z</time></trkpt><trkpt lat="44.3795571" lon="8.030785"><ele>407.5</ele><time>2026-05-03T16:09:25.384Z</time></trkpt><trkpt lat="44.3797021" lon="8.0307384"><ele>406.75</ele><time>2026-05-03T16:09:26.384Z</time></trkpt><trkpt lat="44.3798482" lon="8.0307134"><ele>406.0</ele><time>2026-05-03T16:09:27.383Z</time></trkpt><trkpt lat="44.3799927" lon="8.0307008"><ele>404.0</ele><time>2026-05-03T16:09:28.383Z</time></trkpt><trkpt lat="44.380137" lon="8.0307007"><ele>402.0</ele><time>2026-05-03T16:09:29.384Z</time></trkpt><trkpt lat="44.3802819" lon="8.0307095"><ele>400.0</ele><time>2026-05-03T16:09:30.384Z</time></trkpt><trkpt lat="44.3804146" lon="8.0307273"><ele>398.0</ele><time>2026-05-03T16:09:31.383Z</time></trkpt><trkpt lat="44.3805297" lon="8.0307525"><ele>397.0</ele><time>2026-05-03T16:09:32.384Z</time></trkpt><trkpt lat="44.3806355" lon="8.0307828"><ele>396.0</ele><time>2026-05-03T16:09:33.383Z</time></trkpt><trkpt lat="44.3807329" lon="8.0308534"><ele>395.0</ele><time>2026-05-03T16:09:34.383Z</time></trkpt><trkpt lat="44.3808204" lon="8.0309655"><ele>394.0</ele><time>2026-05-03T16:09:35.383Z</time></trkpt><trkpt lat="44.3809008" lon="8.0311117"><ele>394.0</ele><time>2026-05-03T16:09:36.383Z</time></trkpt><trkpt lat="44.3809774" lon="8.0312677"><ele>394.0</ele><time>2026-05-03T16:09:37.384Z</time></trkpt><trkpt lat="44.3810549" lon="8.0314287"><ele>394.0</ele><time>2026-05-03T16:09:38.383Z</time></trkpt><trkpt lat="44.3811316" lon="8.0315982"><ele>394.0</ele><time>2026-05-03T16:09:39.384Z</time></trkpt><trkpt lat="44.381213" lon="8.0317675"><ele>390.75</ele><time>2026-05-03T16:09:40.383Z</time></trkpt><trkpt lat="44.3812921" lon="8.0319296"><ele>387.5</ele><time>2026-05-03T16:09:41.384Z</time></trkpt><trkpt lat="44.3813668" lon="8.0320901"><ele>384.25</ele><time>2026-05-03T16:09:42.383Z</time></trkpt><trkpt lat="44.3814413" lon="8.0322475"><ele>381.0</ele><time>2026-05-03T16:09:43.383Z</time></trkpt><trkpt lat="44.3815168" lon="8.0324036"><ele>383.75</ele><time>2026-05-03T16:09:44.384Z</time></trkpt><trkpt lat="44.3815913" lon="8.0325553"><ele>386.5</ele><time>2026-05-03T16:09:45.383Z</time></trkpt><trkpt lat="44.3816624" lon="8.0327055"><ele>389.25</ele><time>2026-05-03T16:09:46.383Z</time></trkpt><trkpt lat="44.3817296" lon="8.0328523"><ele>392.0</ele><time>2026-05-03T16:09:47.383Z</time></trkpt><trkpt lat="44.381807" lon="8.0329771"><ele>392.0</ele><time>2026-05-03T16:09:48.383Z</time></trkpt><trkpt lat="44.3819023" lon="8.0330677"><ele>392.0</ele><time>2026-05-03T16:09:49.383Z</time></trkpt><trkpt lat="44.3820087" lon="8.0331058"><ele>392.0</ele><time>2026-05-03T16:09:50.383Z</time></trkpt><trkpt lat="44.3821238" lon="8.0330922"><ele>392.0</ele><time>2026-05-03T16:09:51.383Z</time></trkpt><trkpt lat="44.3822145" lon="8.033027"><ele>392.0</ele><time>2026-05-03T16:09:52.383Z</time></trkpt><trkpt lat="44.3822866" lon="8.0329219"><ele>389.6</ele><time>2026-05-03T16:09:53.384Z</time></trkpt><trkpt lat="44.3823227" lon="8.0327987"><ele>387.20000000000005</ele><time>2026-05-03T16:09:54.383Z</time></trkpt><trkpt lat="44.3823349" lon="8.0326623"><ele>384.8</ele><time>2026-05-03T16:09:55.384Z</time></trkpt><trkpt lat="44.3823277" lon="8.0325073"><ele>382.4</ele><time>2026-05-03T16:09:56.383Z</time></trkpt><trkpt lat="44.3823199" lon="8.0323479"><ele>380.0</ele><time>2026-05-03T16:09:57.383Z</time></trkpt><trkpt lat="44.3823138" lon="8.0321921"><ele>379.5</ele><time>2026-05-03T16:09:58.384Z</time></trkpt><trkpt lat="44.3823105" lon="8.0320481"><ele>379.0</ele><time>2026-05-03T16:09:59.383Z</time></trkpt><trkpt lat="44.3823147" lon="8.0319235"><ele>378.5</ele><time>2026-05-03T16:10:00.383Z</time></trkpt><trkpt lat="44.3823332" lon="8.0318069"><ele>378.0</ele><time>2026-05-03T16:10:01.384Z</time></trkpt><trkpt lat="44.3823674" lon="8.0317068"><ele>377.5</ele><time>2026-05-03T16:10:02.383Z</time></trkpt><trkpt lat="44.3824039" lon="8.0316098"><ele>377.0</ele><time>2026-05-03T16:10:03.383Z</time></trkpt><trkpt lat="44.3824288" lon="8.0315096"><ele>376.83333333333337</ele><time>2026-05-03T16:10:04.383Z</time></trkpt><trkpt lat="44.382431" lon="8.0314051"><ele>376.6666666666667</ele><time>2026-05-03T16:10:05.383Z</time></trkpt><trkpt lat="44.382423" lon="8.0312924"><ele>376.5</ele><time>2026-05-03T16:10:06.383Z</time></trkpt><trkpt lat="44.382423" lon="8.0311689"><ele>376.3333333333333</ele><time>2026-05-03T16:10:07.383Z</time></trkpt><trkpt lat="44.3824426" lon="8.031041"><ele>376.16666666666663</ele><time>2026-05-03T16:10:08.383Z</time></trkpt><trkpt lat="44.3824691" lon="8.030904"><ele>376.0</ele><time>2026-05-03T16:10:09.383Z</time></trkpt><trkpt lat="44.3824948" lon="8.0307671"><ele>375.8</ele><time>2026-05-03T16:10:10.383Z</time></trkpt><trkpt lat="44.3825206" lon="8.0306318"><ele>375.6</ele><time>2026-05-03T16:10:11.383Z</time></trkpt><trkpt lat="44.3825489" lon="8.0304932"><ele>375.4</ele><time>2026-05-03T16:10:12.384Z</time></trkpt><trkpt lat="44.3825763" lon="8.0303478"><ele>375.2</ele><time>2026-05-03T16:10:13.384Z</time></trkpt><trkpt lat="44.382601" lon="8.0301997"><ele>375.0</ele><time>2026-05-03T16:10:14.383Z</time></trkpt><trkpt lat="44.3826256" lon="8.0300513"><ele>375.75</ele><time>2026-05-03T16:10:15.383Z</time></trkpt><trkpt lat="44.3826517" lon="8.0298993"><ele>376.5</ele><time>2026-05-03T16:10:16.383Z</time></trkpt><trkpt lat="44.382677" lon="8.0297463"><ele>377.25</ele><time>2026-05-03T16:10:17.384Z</time></trkpt><trkpt lat="44.3827086" lon="8.0295873"><ele>378.0</ele><time>2026-05-03T16:10:18.384Z</time></trkpt><trkpt lat="44.3827386" lon="8.0294246"><ele>378.0</ele><time>2026-05-03T16:10:19.383Z</time></trkpt><trkpt lat="44.3827707" lon="8.0292585"><ele>378.0</ele><time>2026-05-03T16:10:20.383Z</time></trkpt><trkpt lat="44.3828049" lon="8.0290894"><ele>378.0</ele><time>2026-05-03T16:10:21.384Z</time></trkpt><trkpt lat="44.382837" lon="8.0289148"><ele>378.0</ele><time>2026-05-03T16:10:22.383Z</time></trkpt><trkpt lat="44.3828679" lon="8.0287556"><ele>378.25</ele><time>2026-05-03T16:10:23.383Z</time></trkpt><trkpt lat="44.3828988" lon="8.0285946"><ele>378.5</ele><time>2026-05-03T16:10:24.383Z</time></trkpt><trkpt lat="44.3829255" lon="8.0284395"><ele>378.75</ele><time>2026-05-03T16:10:25.383Z</time></trkpt><trkpt lat="44.3829558" lon="8.0282828"><ele>379.0</ele><time>2026-05-03T16:10:26.383Z</time></trkpt><trkpt lat="44.3829863" lon="8.0281311"><ele>379.25</ele><time>2026-05-03T16:10:27.383Z</time></trkpt><trkpt lat="44.3830179" lon="8.0279695"><ele>379.5</ele><time>2026-05-03T16:10:28.383Z</time></trkpt><trkpt lat="44.3830483" lon="8.0278069"><ele>379.75</ele><time>2026-05-03T16:10:29.383Z</time></trkpt><trkpt lat="44.3830765" lon="8.0276392"><ele>380.0</ele><time>2026-05-03T16:10:30.383Z</time></trkpt><trkpt lat="44.3831072" lon="8.0274613"><ele>380.0</ele><time>2026-05-03T16:10:31.384Z</time></trkpt><trkpt lat="44.3831411" lon="8.0272763"><ele>380.0</ele><time>2026-05-03T16:10:32.384Z</time></trkpt><trkpt lat="44.3831762" lon="8.0270951"><ele>380.0</ele><time>2026-05-03T16:10:33.384Z</time></trkpt><trkpt lat="44.3832109" lon="8.0269108"><ele>380.0</ele><time>2026-05-03T16:10:34.384Z</time></trkpt><trkpt lat="44.3832475" lon="8.026721"><ele>380.0</ele><time>2026-05-03T16:10:35.383Z</time></trkpt><trkpt lat="44.3832818" lon="8.0265397"><ele>380.0</ele><time>2026-05-03T16:10:36.383Z</time></trkpt><trkpt lat="44.383319" lon="8.0263617"><ele>380.0</ele><time>2026-05-03T16:10:37.383Z</time></trkpt><trkpt lat="44.3833622" lon="8.0261885"><ele>380.0</ele><time>2026-05-03T16:10:38.383Z</time></trkpt><trkpt lat="44.383426" lon="8.0260346"><ele>380.0</ele><time>2026-05-03T16:10:39.383Z</time></trkpt><trkpt lat="44.3835076" lon="8.0259013"><ele>380.0</ele><time>2026-05-03T16:10:40.383Z</time></trkpt><trkpt lat="44.3836068" lon="8.025795"><ele>380.0</ele><time>2026-05-03T16:10:41.384Z</time></trkpt><trkpt lat="44.3837192" lon="8.0257179"><ele>380.0</ele><time>2026-05-03T16:10:42.384Z</time></trkpt><trkpt lat="44.3838429" lon="8.02567"><ele>386.0</ele><time>2026-05-03T16:10:43.383Z</time></trkpt><trkpt lat="44.3839751" lon="8.0256604"><ele>392.0</ele><time>2026-05-03T16:10:44.383Z</time></trkpt><trkpt lat="44.3841076" lon="8.0256836"><ele>398.0</ele><time>2026-05-03T16:10:45.383Z</time></trkpt><trkpt lat="44.3842395" lon="8.0257389"><ele>404.0</ele><time>2026-05-03T16:10:46.383Z</time></trkpt><trkpt lat="44.3843691" lon="8.0258048"><ele>403.25</ele><time>2026-05-03T16:10:47.383Z</time></trkpt><trkpt lat="44.3845011" lon="8.0258719"><ele>402.5</ele><time>2026-05-03T16:10:48.383Z</time></trkpt><trkpt lat="44.384628" lon="8.0259562"><ele>401.75</ele><time>2026-05-03T16:10:49.384Z</time></trkpt><trkpt lat="44.3847471" lon="8.0260488"><ele>401.0</ele><time>2026-05-03T16:10:50.383Z</time></trkpt><trkpt lat="44.3848579" lon="8.0261541"><ele>401.0</ele><time>2026-05-03T16:10:51.383Z</time></trkpt><trkpt lat="44.3849553" lon="8.0262707"><ele>401.0</ele><time>2026-05-03T16:10:52.384Z</time></trkpt><trkpt lat="44.3850462" lon="8.0263918"><ele>401.0</ele><time>2026-05-03T16:10:53.383Z</time></trkpt><trkpt lat="44.3851308" lon="8.0265133"><ele>401.0</ele><time>2026-05-03T16:10:54.383Z</time></trkpt><trkpt lat="44.3852017" lon="8.0266347"><ele>398.8333333333333</ele><time>2026-05-03T16:10:55.383Z</time></trkpt><trkpt lat="44.3852521" lon="8.0267568"><ele>396.66666666666663</ele><time>2026-05-03T16:10:56.383Z</time></trkpt><trkpt lat="44.3852863" lon="8.026879"><ele>394.5</ele><time>2026-05-03T16:10:57.383Z</time></trkpt><trkpt lat="44.3853223" lon="8.0269879"><ele>392.33333333333337</ele><time>2026-05-03T16:10:58.383Z</time></trkpt><trkpt lat="44.3853597" lon="8.0270761"><ele>390.1666666666667</ele><time>2026-05-03T16:10:59.383Z</time></trkpt><trkpt lat="44.385404" lon="8.0271403"><ele>388.0</ele><time>2026-05-03T16:11:00.383Z</time></trkpt><trkpt lat="44.3854927" lon="8.0272399"><ele>390.2</ele><time>2026-05-03T16:11:02.383Z</time></trkpt><trkpt lat="44.3855435" lon="8.0273031"><ele>392.4</ele><time>2026-05-03T16:11:03.383Z</time></trkpt><trkpt lat="44.3855896" lon="8.0273635"><ele>394.59999999999997</ele><time>2026-05-03T16:11:04.383Z</time></trkpt><trkpt lat="44.3856984" lon="8.0274222"><ele>396.79999999999995</ele><time>2026-05-03T16:11:06.383Z</time></trkpt><trkpt lat="44.3857828" lon="8.0273574"><ele>399.0</ele><time>2026-05-03T16:11:08.383Z</time></trkpt><trkpt lat="44.3857879" lon="8.0272042"><ele>399.0</ele><time>2026-05-03T16:11:10.383Z</time></trkpt><trkpt lat="44.3857726" lon="8.0270389"><ele>399.0</ele><time>2026-05-03T16:11:12.383Z</time></trkpt><trkpt lat="44.3857634" lon="8.0268752"><ele>399.0</ele><time>2026-05-03T16:11:14.384Z</time></trkpt><trkpt lat="44.3857689" lon="8.0267168"><ele>399.0</ele><time>2026-05-03T16:11:16.384Z</time></trkpt><trkpt lat="44.3857736" lon="8.0266287"><ele>399.0</ele><time>2026-05-03T16:11:17.383Z</time></trkpt><trkpt lat="44.3857805" lon="8.0265326"><ele>400.6</ele><time>2026-05-03T16:11:18.383Z</time></trkpt><trkpt lat="44.3857865" lon="8.0264292"><ele>402.2</ele><time>2026-05-03T16:11:19.384Z</time></trkpt><trkpt lat="44.3857986" lon="8.0263076"><ele>403.8</ele><time>2026-05-03T16:11:20.383Z</time></trkpt><trkpt lat="44.385817" lon="8.0261767"><ele>405.40000000000003</ele><time>2026-05-03T16:11:21.383Z</time></trkpt><trkpt lat="44.3858356" lon="8.0260404"><ele>407.0</ele><time>2026-05-03T16:11:22.383Z</time></trkpt><trkpt lat="44.3858536" lon="8.025895"><ele>407.8</ele><time>2026-05-03T16:11:23.383Z</time></trkpt><trkpt lat="44.385867" lon="8.0257527"><ele>408.6</ele><time>2026-05-03T16:11:24.383Z</time></trkpt><trkpt lat="44.3858805" lon="8.0256088"><ele>409.40000000000003</ele><time>2026-05-03T16:11:25.383Z</time></trkpt><trkpt lat="44.3858977" lon="8.0254556"><ele>410.20000000000005</ele><time>2026-05-03T16:11:26.383Z</time></trkpt><trkpt lat="44.3859149" lon="8.0252967"><ele>411.0</ele><time>2026-05-03T16:11:27.383Z</time></trkpt><trkpt lat="44.3859314" lon="8.0251321"><ele>411.5</ele><time>2026-05-03T16:11:28.383Z</time></trkpt><trkpt lat="44.3859474" lon="8.0249672"><ele>412.0</ele><time>2026-05-03T16:11:29.383Z</time></trkpt><trkpt lat="44.3859584" lon="8.0247895"><ele>412.5</ele><time>2026-05-03T16:11:30.383Z</time></trkpt><trkpt lat="44.3859742" lon="8.0246059"><ele>413.0</ele><time>2026-05-03T16:11:31.384Z</time></trkpt><trkpt lat="44.3859916" lon="8.0244204"><ele>413.0</ele><time>2026-05-03T16:11:32.383Z</time></trkpt><trkpt lat="44.3860088" lon="8.0242303"><ele>413.0</ele><time>2026-05-03T16:11:33.383Z</time></trkpt><trkpt lat="44.3860239" lon="8.0240432"><ele>413.0</ele><time>2026-05-03T16:11:34.384Z</time></trkpt><trkpt lat="44.3860411" lon="8.0238647"><ele>413.0</ele><time>2026-05-03T16:11:35.383Z</time></trkpt><trkpt lat="44.3860604" lon="8.0236903"><ele>413.2</ele><time>2026-05-03T16:11:36.383Z</time></trkpt><trkpt lat="44.3860779" lon="8.023533"><ele>413.4</ele><time>2026-05-03T16:11:37.383Z</time></trkpt><trkpt lat="44.3860952" lon="8.0233851"><ele>413.59999999999997</ele><time>2026-05-03T16:11:38.383Z</time></trkpt><trkpt lat="44.3861142" lon="8.0232406"><ele>413.79999999999995</ele><time>2026-05-03T16:11:39.384Z</time></trkpt><trkpt lat="44.3861299" lon="8.0230966"><ele>414.0</ele><time>2026-05-03T16:11:40.383Z</time></trkpt><trkpt lat="44.386144" lon="8.022945"><ele>414.25</ele><time>2026-05-03T16:11:41.383Z</time></trkpt><trkpt lat="44.3861581" lon="8.0227885"><ele>414.5</ele><time>2026-05-03T16:11:42.384Z</time></trkpt><trkpt lat="44.3861736" lon="8.0226367"><ele>414.75</ele><time>2026-05-03T16:11:43.383Z</time></trkpt><trkpt lat="44.3861856" lon="8.0224747"><ele>415.0</ele><time>2026-05-03T16:11:44.383Z</time></trkpt><trkpt lat="44.3862006" lon="8.0223095"><ele>415.0</ele><time>2026-05-03T16:11:45.383Z</time></trkpt><trkpt lat="44.3862136" lon="8.0221463"><ele>415.0</ele><time>2026-05-03T16:11:46.383Z</time></trkpt><trkpt lat="44.3862284" lon="8.0219858"><ele>415.0</ele><time>2026-05-03T16:11:47.383Z</time></trkpt><trkpt lat="44.3862421" lon="8.0218221"><ele>415.0</ele><time>2026-05-03T16:11:48.383Z</time></trkpt><trkpt lat="44.3862546" lon="8.0216528"><ele>414.75</ele><time>2026-05-03T16:11:49.383Z</time></trkpt><trkpt lat="44.386271" lon="8.0214796"><ele>414.5</ele><time>2026-05-03T16:11:50.383Z</time></trkpt><trkpt lat="44.3862914" lon="8.0213048"><ele>414.25</ele><time>2026-05-03T16:11:51.383Z</time></trkpt><trkpt lat="44.386311" lon="8.0211221"><ele>414.0</ele><time>2026-05-03T16:11:52.383Z</time></trkpt><trkpt lat="44.3863282" lon="8.0209344"><ele>414.0</ele><time>2026-05-03T16:11:53.383Z</time></trkpt><trkpt lat="44.3863469" lon="8.0207453"><ele>414.0</ele><time>2026-05-03T16:11:54.383Z</time></trkpt><trkpt lat="44.3863651" lon="8.0205477"><ele>414.0</ele><time>2026-05-03T16:11:55.384Z</time></trkpt><trkpt lat="44.3863869" lon="8.0203446"><ele>414.0</ele><time>2026-05-03T16:11:56.384Z</time></trkpt><trkpt lat="44.3864088" lon="8.0201398"><ele>414.0</ele><time>2026-05-03T16:11:57.383Z</time></trkpt><trkpt lat="44.3864296" lon="8.01993"><ele>414.0</ele><time>2026-05-03T16:11:58.384Z</time></trkpt><trkpt lat="44.3864507" lon="8.0197195"><ele>414.0</ele><time>2026-05-03T16:11:59.383Z</time></trkpt><trkpt lat="44.38647" lon="8.0195208"><ele>414.0</ele><time>2026-05-03T16:12:00.384Z</time></trkpt><trkpt lat="44.3864871" lon="8.0193301"><ele>414.0</ele><time>2026-05-03T16:12:01.384Z</time></trkpt><trkpt lat="44.3865019" lon="8.0191511"><ele>414.0</ele><time>2026-05-03T16:12:02.383Z</time></trkpt><trkpt lat="44.386515" lon="8.0189878"><ele>414.0</ele><time>2026-05-03T16:12:03.383Z</time></trkpt><trkpt lat="44.3865279" lon="8.0188538"><ele>414.0</ele><time>2026-05-03T16:12:04.383Z</time></trkpt><trkpt lat="44.3865374" lon="8.0187295"><ele>414.0</ele><time>2026-05-03T16:12:05.383Z</time></trkpt><trkpt lat="44.3865493" lon="8.0185985"><ele>414.0</ele><time>2026-05-03T16:12:06.383Z</time></trkpt><trkpt lat="44.386563" lon="8.0184647"><ele>414.0</ele><time>2026-05-03T16:12:07.383Z</time></trkpt><trkpt lat="44.3865759" lon="8.0183213"><ele>414.0</ele><time>2026-05-03T16:12:08.384Z</time></trkpt><trkpt lat="44.3865911" lon="8.0181627"><ele>414.0</ele><time>2026-05-03T16:12:09.383Z</time></trkpt><trkpt lat="44.3866099" lon="8.0179928"><ele>414.0</ele><time>2026-05-03T16:12:10.383Z</time></trkpt><trkpt lat="44.3866296" lon="8.017803"><ele>414.0</ele><time>2026-05-03T16:12:11.384Z</time></trkpt><trkpt lat="44.3866504" lon="8.0176003"><ele>414.0</ele><time>2026-05-03T16:12:12.383Z</time></trkpt><trkpt lat="44.3866729" lon="8.0173869"><ele>414.0</ele><time>2026-05-03T16:12:13.383Z</time></trkpt><trkpt lat="44.3866903" lon="8.0171693"><ele>414.0</ele><time>2026-05-03T16:12:14.383Z</time></trkpt><trkpt lat="44.3867112" lon="8.0169444"><ele>414.0</ele><time>2026-05-03T16:12:15.383Z</time></trkpt><trkpt lat="44.3867333" lon="8.0167216"><ele>414.0</ele><time>2026-05-03T16:12:16.383Z</time></trkpt><trkpt lat="44.3867561" lon="8.0164887"><ele>414.0</ele><time>2026-05-03T16:12:17.383Z</time></trkpt><trkpt lat="44.3867787" lon="8.0162496"><ele>414.0</ele><time>2026-05-03T16:12:18.383Z</time></trkpt><trkpt lat="44.3868009" lon="8.0160026"><ele>414.0</ele><time>2026-05-03T16:12:19.383Z</time></trkpt><trkpt lat="44.3868228" lon="8.0157446"><ele>414.0</ele><time>2026-05-03T16:12:20.383Z</time></trkpt><trkpt lat="44.386848" lon="8.015483"><ele>414.0</ele><time>2026-05-03T16:12:21.383Z</time></trkpt><trkpt lat="44.3868745" lon="8.015208"><ele>414.0</ele><time>2026-05-03T16:12:22.384Z</time></trkpt><trkpt lat="44.386901" lon="8.0149303"><ele>413.66666666666663</ele><time>2026-05-03T16:12:23.384Z</time></trkpt><trkpt lat="44.3869282" lon="8.0146464"><ele>413.3333333333333</ele><time>2026-05-03T16:12:24.383Z</time></trkpt><trkpt lat="44.3869531" lon="8.0143639"><ele>413.0</ele><time>2026-05-03T16:12:25.383Z</time></trkpt><trkpt lat="44.3869801" lon="8.0140797"><ele>413.0</ele><time>2026-05-03T16:12:26.384Z</time></trkpt><trkpt lat="44.3870064" lon="8.013801"><ele>413.0</ele><time>2026-05-03T16:12:27.384Z</time></trkpt><trkpt lat="44.3870373" lon="8.0135196"><ele>413.0</ele><time>2026-05-03T16:12:28.383Z</time></trkpt><trkpt lat="44.3870645" lon="8.013247"><ele>413.0</ele><time>2026-05-03T16:12:29.383Z</time></trkpt><trkpt lat="44.3870892" lon="8.0129742"><ele>413.0</ele><time>2026-05-03T16:12:30.383Z</time></trkpt><trkpt lat="44.387117" lon="8.0127037"><ele>413.0</ele><time>2026-05-03T16:12:31.383Z</time></trkpt><trkpt lat="44.3871413" lon="8.0124369"><ele>413.0</ele><time>2026-05-03T16:12:32.384Z</time></trkpt><trkpt lat="44.3871669" lon="8.012176"><ele>413.0</ele><time>2026-05-03T16:12:33.383Z</time></trkpt><trkpt lat="44.3871909" lon="8.0119163"><ele>413.0</ele><time>2026-05-03T16:12:34.383Z</time></trkpt><trkpt lat="44.3872151" lon="8.011658"><ele>412.66666666666663</ele><time>2026-05-03T16:12:35.384Z</time></trkpt><trkpt lat="44.3872508" lon="8.0114056"><ele>412.33333333333337</ele><time>2026-05-03T16:12:36.384Z</time></trkpt><trkpt lat="44.3873076" lon="8.0111624"><ele>412.0</ele><time>2026-05-03T16:12:37.383Z</time></trkpt><trkpt lat="44.3873794" lon="8.0109333"><ele>415.0</ele><time>2026-05-03T16:12:38.384Z</time></trkpt><trkpt lat="44.3874658" lon="8.0107118"><ele>418.0</ele><time>2026-05-03T16:12:39.383Z</time></trkpt><trkpt lat="44.3875737" lon="8.0105073"><ele>421.0</ele><time>2026-05-03T16:12:40.384Z</time></trkpt><trkpt lat="44.3876956" lon="8.0103174"><ele>421.0</ele><time>2026-05-03T16:12:41.383Z</time></trkpt><trkpt lat="44.38783" lon="8.0101409"><ele>421.0</ele><time>2026-05-03T16:12:42.383Z</time></trkpt><trkpt lat="44.3879753" lon="8.0099768"><ele>421.0</ele><time>2026-05-03T16:12:43.383Z</time></trkpt><trkpt lat="44.3881277" lon="8.009822"><ele>422.0</ele><time>2026-05-03T16:12:44.383Z</time></trkpt><trkpt lat="44.3882827" lon="8.0096672"><ele>423.0</ele><time>2026-05-03T16:12:45.383Z</time></trkpt><trkpt lat="44.3884372" lon="8.009507"><ele>424.0</ele><time>2026-05-03T16:12:46.384Z</time></trkpt><trkpt lat="44.3885879" lon="8.0093515"><ele>424.0</ele><time>2026-05-03T16:12:47.383Z</time></trkpt><trkpt lat="44.3887344" lon="8.0091983"><ele>424.0</ele><time>2026-05-03T16:12:48.384Z</time></trkpt><trkpt lat="44.3888772" lon="8.0090355"><ele>424.0</ele><time>2026-05-03T16:12:49.383Z</time></trkpt><trkpt lat="44.3890166" lon="8.0088674"><ele>424.33333333333337</ele><time>2026-05-03T16:12:50.383Z</time></trkpt><trkpt lat="44.3891564" lon="8.0086945"><ele>424.66666666666663</ele><time>2026-05-03T16:12:51.383Z</time></trkpt><trkpt lat="44.3892951" lon="8.0085124"><ele>425.0</ele><time>2026-05-03T16:12:52.383Z</time></trkpt><trkpt lat="44.3894291" lon="8.0083342"><ele>425.0</ele><time>2026-05-03T16:12:53.384Z</time></trkpt><trkpt lat="44.389567" lon="8.0081515"><ele>425.0</ele><time>2026-05-03T16:12:54.383Z</time></trkpt><trkpt lat="44.3897044" lon="8.0079672"><ele>425.0</ele><time>2026-05-03T16:12:55.383Z</time></trkpt><trkpt lat="44.3898432" lon="8.0077773"><ele>425.0</ele><time>2026-05-03T16:12:56.383Z</time></trkpt><trkpt lat="44.3899839" lon="8.0075909"><ele>425.0</ele><time>2026-05-03T16:12:57.383Z</time></trkpt><trkpt lat="44.3901254" lon="8.0074099"><ele>425.0</ele><time>2026-05-03T16:12:58.384Z</time></trkpt><trkpt lat="44.3902703" lon="8.0072235"><ele>425.0</ele><time>2026-05-03T16:12:59.383Z</time></trkpt><trkpt lat="44.390415" lon="8.0070394"><ele>425.0</ele><time>2026-05-03T16:13:00.383Z</time></trkpt><trkpt lat="44.390561" lon="8.0068571"><ele>425.0</ele><time>2026-05-03T16:13:01.384Z</time></trkpt><trkpt lat="44.390706" lon="8.0066753"><ele>425.0</ele><time>2026-05-03T16:13:02.383Z</time></trkpt><trkpt lat="44.3908486" lon="8.0064915"><ele>425.0</ele><time>2026-05-03T16:13:03.383Z</time></trkpt><trkpt lat="44.3909937" lon="8.0063046"><ele>425.0</ele><time>2026-05-03T16:13:04.383Z</time></trkpt><trkpt lat="44.3911399" lon="8.0061129"><ele>425.0</ele><time>2026-05-03T16:13:05.383Z</time></trkpt><trkpt lat="44.391283" lon="8.0059161"><ele>425.0</ele><time>2026-05-03T16:13:06.383Z</time></trkpt><trkpt lat="44.391425" lon="8.0057189"><ele>425.0</ele><time>2026-05-03T16:13:07.383Z</time></trkpt><trkpt lat="44.3915575" lon="8.0055121"><ele>425.0</ele><time>2026-05-03T16:13:08.384Z</time></trkpt><trkpt lat="44.3916758" lon="8.0052945"><ele>425.0</ele><time>2026-05-03T16:13:09.383Z</time></trkpt><trkpt lat="44.3917781" lon="8.0050696"><ele>425.0</ele><time>2026-05-03T16:13:10.383Z</time></trkpt><trkpt lat="44.3918575" lon="8.004846"><ele>425.0</ele><time>2026-05-03T16:13:11.383Z</time></trkpt><trkpt lat="44.3919247" lon="8.0046403"><ele>425.0</ele><time>2026-05-03T16:13:12.383Z</time></trkpt><trkpt lat="44.3919865" lon="8.0044673"><ele>425.0</ele><time>2026-05-03T16:13:13.383Z</time></trkpt><trkpt lat="44.3920303" lon="8.004345"><ele>425.0</ele><time>2026-05-03T16:13:14.383Z</time></trkpt><trkpt lat="44.3920629" lon="8.0042464"><ele>424.6</ele><time>2026-05-03T16:13:15.384Z</time></trkpt><trkpt lat="44.3921015" lon="8.0041367"><ele>424.2</ele><time>2026-05-03T16:13:16.383Z</time></trkpt><trkpt lat="44.3921394" lon="8.0040306"><ele>423.79999999999995</ele><time>2026-05-03T16:13:17.383Z</time></trkpt><trkpt lat="44.3921829" lon="8.0039032"><ele>423.4</ele><time>2026-05-03T16:13:18.384Z</time></trkpt><trkpt lat="44.392231" lon="8.0037683"><ele>423.0</ele><time>2026-05-03T16:13:19.383Z</time></trkpt><trkpt lat="44.3922846" lon="8.0036154"><ele>422.75</ele><time>2026-05-03T16:13:20.384Z</time></trkpt><trkpt lat="44.3923414" lon="8.0034466"><ele>422.5</ele><time>2026-05-03T16:13:21.384Z</time></trkpt><trkpt lat="44.3924002" lon="8.0032593"><ele>422.25</ele><time>2026-05-03T16:13:22.383Z</time></trkpt><trkpt lat="44.3924607" lon="8.003061"><ele>422.0</ele><time>2026-05-03T16:13:23.384Z</time></trkpt><trkpt lat="44.3925235" lon="8.0028481"><ele>421.3333333333333</ele><time>2026-05-03T16:13:24.383Z</time></trkpt><trkpt lat="44.3925836" lon="8.0026267"><ele>420.66666666666663</ele><time>2026-05-03T16:13:25.383Z</time></trkpt><trkpt lat="44.3926397" lon="8.002393"><ele>420.0</ele><time>2026-05-03T16:13:26.384Z</time></trkpt><trkpt lat="44.3926867" lon="8.0021457"><ele>419.66666666666663</ele><time>2026-05-03T16:13:27.383Z</time></trkpt><trkpt lat="44.3927316" lon="8.0018856"><ele>419.3333333333333</ele><time>2026-05-03T16:13:28.383Z</time></trkpt><trkpt lat="44.3927792" lon="8.0016147"><ele>419.0</ele><time>2026-05-03T16:13:29.384Z</time></trkpt><trkpt lat="44.3928284" lon="8.0013376"><ele>419.0</ele><time>2026-05-03T16:13:30.383Z</time></trkpt><trkpt lat="44.3928793" lon="8.001056"><ele>419.0</ele><time>2026-05-03T16:13:31.384Z</time></trkpt><trkpt lat="44.3929268" lon="8.0007704"><ele>419.0</ele><time>2026-05-03T16:13:32.383Z</time></trkpt><trkpt lat="44.3929779" lon="8.0004794"><ele>418.66666666666663</ele><time>2026-05-03T16:13:33.383Z</time></trkpt><trkpt lat="44.3930323" lon="8.0001906"><ele>418.33333333333337</ele><time>2026-05-03T16:13:34.384Z</time></trkpt><trkpt lat="44.3930866" lon="7.9999053"><ele>418.0</ele><time>2026-05-03T16:13:35.383Z</time></trkpt><trkpt lat="44.3931401" lon="7.9996204"><ele>418.0</ele><time>2026-05-03T16:13:36.383Z</time></trkpt><trkpt lat="44.3932017" lon="7.9993477"><ele>418.0</ele><time>2026-05-03T16:13:37.383Z</time></trkpt><trkpt lat="44.3932743" lon="7.9990866"><ele>418.0</ele><time>2026-05-03T16:13:38.383Z</time></trkpt><trkpt lat="44.393364" lon="7.9988377"><ele>418.0</ele><time>2026-05-03T16:13:39.383Z</time></trkpt><trkpt lat="44.3934633" lon="7.9985971"><ele>418.0</ele><time>2026-05-03T16:13:40.384Z</time></trkpt><trkpt lat="44.3935621" lon="7.9983552"><ele>418.0</ele><time>2026-05-03T16:13:41.383Z</time></trkpt><trkpt lat="44.3936606" lon="7.9981141"><ele>418.33333333333337</ele><time>2026-05-03T16:13:42.383Z</time></trkpt><trkpt lat="44.393763" lon="7.9978721"><ele>418.66666666666663</ele><time>2026-05-03T16:13:43.383Z</time></trkpt><trkpt lat="44.3938633" lon="7.9976248"><ele>419.0</ele><time>2026-05-03T16:13:44.383Z</time></trkpt><trkpt lat="44.3939616" lon="7.9973689"><ele>419.0</ele><time>2026-05-03T16:13:45.384Z</time></trkpt><trkpt lat="44.3940577" lon="7.9971093"><ele>419.0</ele><time>2026-05-03T16:13:46.383Z</time></trkpt><trkpt lat="44.3941507" lon="7.9968469"><ele>419.0</ele><time>2026-05-03T16:13:47.384Z</time></trkpt><trkpt lat="44.3942451" lon="7.9965818"><ele>419.3333333333333</ele><time>2026-05-03T16:13:48.384Z</time></trkpt><trkpt lat="44.3943417" lon="7.9963163"><ele>419.66666666666663</ele><time>2026-05-03T16:13:49.383Z</time></trkpt><trkpt lat="44.3944397" lon="7.996044"><ele>420.0</ele><time>2026-05-03T16:13:50.383Z</time></trkpt><trkpt lat="44.3945384" lon="7.9957753"><ele>420.0</ele><time>2026-05-03T16:13:51.384Z</time></trkpt><trkpt lat="44.3946378" lon="7.9955028"><ele>420.0</ele><time>2026-05-03T16:13:52.384Z</time></trkpt><trkpt lat="44.3947352" lon="7.995226"><ele>420.0</ele><time>2026-05-03T16:13:53.383Z</time></trkpt><trkpt lat="44.394835" lon="7.9949494"><ele>419.0</ele><time>2026-05-03T16:13:54.383Z</time></trkpt><trkpt lat="44.3949341" lon="7.9946703"><ele>418.0</ele><time>2026-05-03T16:13:55.383Z</time></trkpt><trkpt lat="44.3950359" lon="7.9943861"><ele>418.0</ele><time>2026-05-03T16:13:56.383Z</time></trkpt><trkpt lat="44.3951435" lon="7.9940954"><ele>418.0</ele><time>2026-05-03T16:13:57.383Z</time></trkpt><trkpt lat="44.3952482" lon="7.9938057"><ele>418.0</ele><time>2026-05-03T16:13:58.383Z</time></trkpt><trkpt lat="44.3953492" lon="7.9935225"><ele>418.0</ele><time>2026-05-03T16:13:59.383Z</time></trkpt><trkpt lat="44.3954499" lon="7.9932447"><ele>418.0</ele><time>2026-05-03T16:14:00.383Z</time></trkpt><trkpt lat="44.3955489" lon="7.9929684"><ele>417.6666666666667</ele><time>2026-05-03T16:14:01.383Z</time></trkpt><trkpt lat="44.3956483" lon="7.9926927"><ele>417.33333333333337</ele><time>2026-05-03T16:14:02.384Z</time></trkpt><trkpt lat="44.3957495" lon="7.9924277"><ele>417.0</ele><time>2026-05-03T16:14:03.383Z</time></trkpt><trkpt lat="44.3958504" lon="7.9921732"><ele>417.66666666666663</ele><time>2026-05-03T16:14:04.383Z</time></trkpt><trkpt lat="44.395956" lon="7.9919395"><ele>418.3333333333333</ele><time>2026-05-03T16:14:05.384Z</time></trkpt><trkpt lat="44.3960655" lon="7.9917239"><ele>419.0</ele><time>2026-05-03T16:14:06.384Z</time></trkpt><trkpt lat="44.3961804" lon="7.9915139"><ele>419.0</ele><time>2026-05-03T16:14:07.383Z</time></trkpt><trkpt lat="44.3962973" lon="7.9913076"><ele>419.0</ele><time>2026-05-03T16:14:08.383Z</time></trkpt><trkpt lat="44.3964184" lon="7.9910982"><ele>419.0</ele><time>2026-05-03T16:14:09.383Z</time></trkpt><trkpt lat="44.3965333" lon="7.9908901"><ele>418.66666666666663</ele><time>2026-05-03T16:14:10.384Z</time></trkpt><trkpt lat="44.3966441" lon="7.9906801"><ele>418.33333333333337</ele><time>2026-05-03T16:14:11.383Z</time></trkpt><trkpt lat="44.3967538" lon="7.9904672"><ele>418.0</ele><time>2026-05-03T16:14:12.383Z</time></trkpt><trkpt lat="44.3968606" lon="7.9902523"><ele>418.0</ele><time>2026-05-03T16:14:13.383Z</time></trkpt><trkpt lat="44.3969565" lon="7.9900322"><ele>418.0</ele><time>2026-05-03T16:14:14.383Z</time></trkpt><trkpt lat="44.3970402" lon="7.9898008"><ele>418.0</ele><time>2026-05-03T16:14:15.383Z</time></trkpt><trkpt lat="44.397108" lon="7.9895541"><ele>417.33333333333337</ele><time>2026-05-03T16:14:16.383Z</time></trkpt><trkpt lat="44.3971647" lon="7.9892886"><ele>416.66666666666663</ele><time>2026-05-03T16:14:17.383Z</time></trkpt><trkpt lat="44.3972127" lon="7.9890128"><ele>416.0</ele><time>2026-05-03T16:14:18.383Z</time></trkpt><trkpt lat="44.3972623" lon="7.9887348"><ele>416.0</ele><time>2026-05-03T16:14:19.383Z</time></trkpt><trkpt lat="44.3973138" lon="7.9884581"><ele>416.0</ele><time>2026-05-03T16:14:20.383Z</time></trkpt><trkpt lat="44.3973619" lon="7.9881849"><ele>416.0</ele><time>2026-05-03T16:14:21.384Z</time></trkpt><trkpt lat="44.3974082" lon="7.9879166"><ele>415.66666666666663</ele><time>2026-05-03T16:14:22.383Z</time></trkpt><trkpt lat="44.3974585" lon="7.9876506"><ele>415.33333333333337</ele><time>2026-05-03T16:14:23.384Z</time></trkpt><trkpt lat="44.3975072" lon="7.9873832"><ele>415.0</ele><time>2026-05-03T16:14:24.384Z</time></trkpt><trkpt lat="44.3975537" lon="7.9871218"><ele>415.6666666666667</ele><time>2026-05-03T16:14:25.384Z</time></trkpt><trkpt lat="44.3976011" lon="7.9868624"><ele>416.33333333333337</ele><time>2026-05-03T16:14:26.384Z</time></trkpt><trkpt lat="44.3976484" lon="7.9866036"><ele>417.0</ele><time>2026-05-03T16:14:27.384Z</time></trkpt><trkpt lat="44.3976961" lon="7.9863485"><ele>418.0</ele><time>2026-05-03T16:14:28.383Z</time></trkpt><trkpt lat="44.3977413" lon="7.9861018"><ele>419.0</ele><time>2026-05-03T16:14:29.384Z</time></trkpt><trkpt lat="44.3977884" lon="7.9858517"><ele>420.0</ele><time>2026-05-03T16:14:30.383Z</time></trkpt><trkpt lat="44.3978347" lon="7.9856"><ele>420.0</ele><time>2026-05-03T16:14:31.383Z</time></trkpt><trkpt lat="44.3978803" lon="7.9853501"><ele>420.0</ele><time>2026-05-03T16:14:32.383Z</time></trkpt><trkpt lat="44.3979256" lon="7.9850976"><ele>420.0</ele><time>2026-05-03T16:14:33.383Z</time></trkpt><trkpt lat="44.3979713" lon="7.9848484"><ele>419.0</ele><time>2026-05-03T16:14:34.384Z</time></trkpt><trkpt lat="44.3980153" lon="7.9845987"><ele>418.0</ele><time>2026-05-03T16:14:35.383Z</time></trkpt><trkpt lat="44.3980567" lon="7.9843446"><ele>417.0</ele><time>2026-05-03T16:14:36.383Z</time></trkpt><trkpt lat="44.398092" lon="7.9840955"><ele>417.0</ele><time>2026-05-03T16:14:37.383Z</time></trkpt><trkpt lat="44.3981216" lon="7.9838399"><ele>417.0</ele><time>2026-05-03T16:14:38.383Z</time></trkpt><trkpt lat="44.3981404" lon="7.9835821"><ele>417.0</ele><time>2026-05-03T16:14:39.384Z</time></trkpt><trkpt lat="44.3981538" lon="7.9833154"><ele>417.0</ele><time>2026-05-03T16:14:40.383Z</time></trkpt><trkpt lat="44.3981678" lon="7.9830408"><ele>417.0</ele><time>2026-05-03T16:14:41.383Z</time></trkpt><trkpt lat="44.3981818" lon="7.9827663"><ele>417.0</ele><time>2026-05-03T16:14:42.383Z</time></trkpt><trkpt lat="44.3981981" lon="7.9824831"><ele>417.0</ele><time>2026-05-03T16:14:43.383Z</time></trkpt><trkpt lat="44.3982158" lon="7.9821929"><ele>417.0</ele><time>2026-05-03T16:14:44.383Z</time></trkpt><trkpt lat="44.3982313" lon="7.9818995"><ele>417.0</ele><time>2026-05-03T16:14:45.384Z</time></trkpt><trkpt lat="44.3982437" lon="7.9816108"><ele>417.33333333333337</ele><time>2026-05-03T16:14:46.384Z</time></trkpt><trkpt lat="44.3982575" lon="7.981326"><ele>417.6666666666667</ele><time>2026-05-03T16:14:47.384Z</time></trkpt><trkpt lat="44.3982733" lon="7.9810405"><ele>418.0</ele><time>2026-05-03T16:14:48.383Z</time></trkpt><trkpt lat="44.3982877" lon="7.9807594"><ele>418.0</ele><time>2026-05-03T16:14:49.384Z</time></trkpt><trkpt lat="44.3983025" lon="7.9804827"><ele>418.0</ele><time>2026-05-03T16:14:50.383Z</time></trkpt><trkpt lat="44.3983157" lon="7.9802122"><ele>418.0</ele><time>2026-05-03T16:14:51.383Z</time></trkpt><trkpt lat="44.3983282" lon="7.9799544"><ele>419.33333333333337</ele><time>2026-05-03T16:14:52.383Z</time></trkpt><trkpt lat="44.3983405" lon="7.9797054"><ele>420.66666666666663</ele><time>2026-05-03T16:14:53.383Z</time></trkpt><trkpt lat="44.3983517" lon="7.9794683"><ele>422.0</ele><time>2026-05-03T16:14:54.383Z</time></trkpt><trkpt lat="44.3983601" lon="7.9792411"><ele>423.3333333333333</ele><time>2026-05-03T16:14:55.383Z</time></trkpt><trkpt lat="44.3983661" lon="7.9790163"><ele>424.66666666666663</ele><time>2026-05-03T16:14:56.383Z</time></trkpt><trkpt lat="44.3983737" lon="7.9787987"><ele>426.0</ele><time>2026-05-03T16:14:57.383Z</time></trkpt><trkpt lat="44.3983944" lon="7.9785805"><ele>426.0</ele><time>2026-05-03T16:14:58.383Z</time></trkpt><trkpt lat="44.3984359" lon="7.9783711"><ele>426.0</ele><time>2026-05-03T16:14:59.383Z</time></trkpt><trkpt lat="44.3985121" lon="7.9781735"><ele>426.0</ele><time>2026-05-03T16:15:00.383Z</time></trkpt><trkpt lat="44.3986166" lon="7.9779924"><ele>425.33333333333337</ele><time>2026-05-03T16:15:01.383Z</time></trkpt><trkpt lat="44.3987438" lon="7.9778362"><ele>424.6666666666667</ele><time>2026-05-03T16:15:02.383Z</time></trkpt><trkpt lat="44.3988841" lon="7.9777096"><ele>424.0</ele><time>2026-05-03T16:15:03.384Z</time></trkpt><trkpt lat="44.3990259" lon="7.9776066"><ele>424.33333333333337</ele><time>2026-05-03T16:15:04.384Z</time></trkpt><trkpt lat="44.3991676" lon="7.9775054"><ele>424.66666666666663</ele><time>2026-05-03T16:15:05.383Z</time></trkpt><trkpt lat="44.3993132" lon="7.9774042"><ele>425.0</ele><time>2026-05-03T16:15:06.383Z</time></trkpt><trkpt lat="44.3994624" lon="7.9773055"><ele>425.0</ele><time>2026-05-03T16:15:07.384Z</time></trkpt><trkpt lat="44.3996091" lon="7.9772033"><ele>425.0</ele><time>2026-05-03T16:15:08.383Z</time></trkpt><trkpt lat="44.3997539" lon="7.9771053"><ele>425.0</ele><time>2026-05-03T16:15:09.383Z</time></trkpt><trkpt lat="44.3998933" lon="7.977004"><ele>424.75</ele><time>2026-05-03T16:15:10.383Z</time></trkpt><trkpt lat="44.4000288" lon="7.9769096"><ele>424.5</ele><time>2026-05-03T16:15:11.384Z</time></trkpt><trkpt lat="44.4001597" lon="7.9768161"><ele>424.25</ele><time>2026-05-03T16:15:12.383Z</time></trkpt><trkpt lat="44.4002821" lon="7.9767247"><ele>424.0</ele><time>2026-05-03T16:15:13.384Z</time></trkpt><trkpt lat="44.4003893" lon="7.9766168"><ele>424.0</ele><time>2026-05-03T16:15:14.383Z</time></trkpt><trkpt lat="44.4004864" lon="7.9764789"><ele>424.0</ele><time>2026-05-03T16:15:15.384Z</time></trkpt><trkpt lat="44.4005664" lon="7.9763111"><ele>424.0</ele><time>2026-05-03T16:15:16.383Z</time></trkpt><trkpt lat="44.4006269" lon="7.9761262"><ele>424.0</ele><time>2026-05-03T16:15:17.383Z</time></trkpt><trkpt lat="44.4006786" lon="7.9759311"><ele>423.0</ele><time>2026-05-03T16:15:18.383Z</time></trkpt><trkpt lat="44.4007275" lon="7.9757376"><ele>422.0</ele><time>2026-05-03T16:15:19.383Z</time></trkpt><trkpt lat="44.4007816" lon="7.9755491"><ele>421.0</ele><time>2026-05-03T16:15:20.383Z</time></trkpt><trkpt lat="44.4008389" lon="7.9753577"><ele>420.0</ele><time>2026-05-03T16:15:21.383Z</time></trkpt><trkpt lat="44.4008925" lon="7.9751659"><ele>420.5</ele><time>2026-05-03T16:15:22.383Z</time></trkpt><trkpt lat="44.4009399" lon="7.9749775"><ele>421.0</ele><time>2026-05-03T16:15:23.383Z</time></trkpt><trkpt lat="44.4009805" lon="7.9748001"><ele>421.5</ele><time>2026-05-03T16:15:24.383Z</time></trkpt><trkpt lat="44.4010129" lon="7.9746372"><ele>422.0</ele><time>2026-05-03T16:15:25.383Z</time></trkpt><trkpt lat="44.4010412" lon="7.974502"><ele>422.0</ele><time>2026-05-03T16:15:26.384Z</time></trkpt><trkpt lat="44.4010569" lon="7.9743786"><ele>422.0</ele><time>2026-05-03T16:15:27.383Z</time></trkpt><trkpt lat="44.4010787" lon="7.9742807"><ele>422.0</ele><time>2026-05-03T16:15:28.384Z</time></trkpt><trkpt lat="44.4011219" lon="7.9741224"><ele>422.0</ele><time>2026-05-03T16:15:30.383Z</time></trkpt><trkpt lat="44.4011704" lon="7.9740579"><ele>422.0</ele><time>2026-05-03T16:15:33.383Z</time></trkpt><trkpt lat="44.4012368" lon="7.973921"><ele>422.40000000000003</ele><time>2026-05-03T16:15:35.383Z</time></trkpt><trkpt lat="44.4012435" lon="7.9738119"><ele>422.8</ele><time>2026-05-03T16:15:36.383Z</time></trkpt><trkpt lat="44.4012164" lon="7.973683"><ele>423.2</ele><time>2026-05-03T16:15:37.383Z</time></trkpt><trkpt lat="44.4011739" lon="7.9735456"><ele>423.6</ele><time>2026-05-03T16:15:38.384Z</time></trkpt><trkpt lat="44.4011603" lon="7.9733697"><ele>424.0</ele><time>2026-05-03T16:15:39.384Z</time></trkpt><trkpt lat="44.4011652" lon="7.9731743"><ele>424.0</ele><time>2026-05-03T16:15:40.383Z</time></trkpt><trkpt lat="44.4011898" lon="7.9729705"><ele>424.0</ele><time>2026-05-03T16:15:41.383Z</time></trkpt><trkpt lat="44.401221" lon="7.9727651"><ele>424.0</ele><time>2026-05-03T16:15:42.383Z</time></trkpt><trkpt lat="44.4012591" lon="7.9725595"><ele>424.0</ele><time>2026-05-03T16:15:43.383Z</time></trkpt><trkpt lat="44.401295" lon="7.9723605"><ele>423.25</ele><time>2026-05-03T16:15:44.383Z</time></trkpt><trkpt lat="44.4013289" lon="7.9721681"><ele>422.5</ele><time>2026-05-03T16:15:45.383Z</time></trkpt><trkpt lat="44.4013643" lon="7.9719805"><ele>421.75</ele><time>2026-05-03T16:15:46.384Z</time></trkpt><trkpt lat="44.4013975" lon="7.9717958"><ele>421.0</ele><time>2026-05-03T16:15:47.383Z</time></trkpt><trkpt lat="44.4014301" lon="7.9716112"><ele>419.25</ele><time>2026-05-03T16:15:48.384Z</time></trkpt><trkpt lat="44.4014656" lon="7.971422"><ele>417.5</ele><time>2026-05-03T16:15:49.383Z</time></trkpt><trkpt lat="44.4015009" lon="7.9712324"><ele>415.75</ele><time>2026-05-03T16:15:50.383Z</time></trkpt><trkpt lat="44.401539" lon="7.9710342"><ele>414.0</ele><time>2026-05-03T16:15:51.384Z</time></trkpt><trkpt lat="44.4015772" lon="7.9708305"><ele>413.66666666666663</ele><time>2026-05-03T16:15:52.384Z</time></trkpt><trkpt lat="44.4016114" lon="7.9706233"><ele>413.3333333333333</ele><time>2026-05-03T16:15:53.384Z</time></trkpt><trkpt lat="44.4016478" lon="7.9704093"><ele>413.0</ele><time>2026-05-03T16:15:54.383Z</time></trkpt><trkpt lat="44.401687" lon="7.9701925"><ele>412.0</ele><time>2026-05-03T16:15:55.383Z</time></trkpt><trkpt lat="44.401727" lon="7.9699768"><ele>411.0</ele><time>2026-05-03T16:15:56.383Z</time></trkpt><trkpt lat="44.4017696" lon="7.9697569"><ele>410.0</ele><time>2026-05-03T16:15:57.383Z</time></trkpt><trkpt lat="44.401808" lon="7.9695369"><ele>410.0</ele><time>2026-05-03T16:15:58.384Z</time></trkpt><trkpt lat="44.4018315" lon="7.9693081"><ele>410.0</ele><time>2026-05-03T16:15:59.384Z</time></trkpt><trkpt lat="44.4018338" lon="7.9690815"><ele>410.0</ele><time>2026-05-03T16:16:00.383Z</time></trkpt><trkpt lat="44.4018136" lon="7.9688546"><ele>409.66666666666663</ele><time>2026-05-03T16:16:01.383Z</time></trkpt><trkpt lat="44.4017746" lon="7.9686335"><ele>409.33333333333337</ele><time>2026-05-03T16:16:02.383Z</time></trkpt><trkpt lat="44.4017213" lon="7.9684188"><ele>409.0</ele><time>2026-05-03T16:16:03.383Z</time></trkpt><trkpt lat="44.4016508" lon="7.9682081"><ele>410.33333333333337</ele><time>2026-05-03T16:16:04.384Z</time></trkpt><trkpt lat="44.4015821" lon="7.9679968"><ele>411.66666666666663</ele><time>2026-05-03T16:16:05.383Z</time></trkpt><trkpt lat="44.4015129" lon="7.9677876"><ele>413.0</ele><time>2026-05-03T16:16:06.383Z</time></trkpt><trkpt lat="44.4014459" lon="7.9675846"><ele>413.66666666666663</ele><time>2026-05-03T16:16:07.383Z</time></trkpt><trkpt lat="44.4013815" lon="7.9673751"><ele>414.33333333333337</ele><time>2026-05-03T16:16:08.384Z</time></trkpt><trkpt lat="44.4013184" lon="7.9671679"><ele>415.0</ele><time>2026-05-03T16:16:09.383Z</time></trkpt><trkpt lat="44.4012541" lon="7.9669617"><ele>416.33333333333337</ele><time>2026-05-03T16:16:10.383Z</time></trkpt><trkpt lat="44.4011747" lon="7.966713"><ele>417.66666666666663</ele><time>2026-05-03T16:16:11.384Z</time></trkpt><trkpt lat="44.4010988" lon="7.9664617"><ele>419.0</ele><time>2026-05-03T16:16:12.383Z</time></trkpt><trkpt lat="44.4010545" lon="7.9662606"><ele>419.0</ele><time>2026-05-03T16:16:13.384Z</time></trkpt><trkpt lat="44.4009336" lon="7.9660513"><ele>419.0</ele><time>2026-05-03T16:16:14.384Z</time></trkpt><trkpt lat="44.4008335" lon="7.9658826"><ele>419.0</ele><time>2026-05-03T16:16:15.384Z</time></trkpt><trkpt lat="44.4007955" lon="7.9657128"><ele>415.0</ele><time>2026-05-03T16:16:16.383Z</time></trkpt><trkpt lat="44.4008482" lon="7.9654947"><ele>411.0</ele><time>2026-05-03T16:16:17.383Z</time></trkpt><trkpt lat="44.4008612" lon="7.9652574"><ele>407.0</ele><time>2026-05-03T16:16:18.383Z</time></trkpt><trkpt lat="44.4008917" lon="7.965028"><ele>401.0</ele><time>2026-05-03T16:16:19.383Z</time></trkpt><trkpt lat="44.4009264" lon="7.9647961"><ele>395.0</ele><time>2026-05-03T16:16:20.383Z</time></trkpt><trkpt lat="44.4009626" lon="7.9645714"><ele>389.0</ele><time>2026-05-03T16:16:21.383Z</time></trkpt><trkpt lat="44.4009966" lon="7.9643504"><ele>385.0</ele><time>2026-05-03T16:16:22.384Z</time></trkpt><trkpt lat="44.4010307" lon="7.9641222"><ele>381.0</ele><time>2026-05-03T16:16:23.383Z</time></trkpt><trkpt lat="44.4010653" lon="7.9638954"><ele>377.0</ele><time>2026-05-03T16:16:24.384Z</time></trkpt><trkpt lat="44.4011032" lon="7.9636665"><ele>377.0</ele><time>2026-05-03T16:16:25.384Z</time></trkpt><trkpt lat="44.4011403" lon="7.963441"><ele>377.0</ele><time>2026-05-03T16:16:26.384Z</time></trkpt><trkpt lat="44.4011704" lon="7.9632231"><ele>377.0</ele><time>2026-05-03T16:16:27.384Z</time></trkpt><trkpt lat="44.4012003" lon="7.9630149"><ele>375.75</ele><time>2026-05-03T16:16:28.383Z</time></trkpt><trkpt lat="44.401227" lon="7.962825"><ele>374.5</ele><time>2026-05-03T16:16:29.383Z</time></trkpt><trkpt lat="44.4012603" lon="7.9626328"><ele>373.25</ele><time>2026-05-03T16:16:30.383Z</time></trkpt><trkpt lat="44.4013108" lon="7.9624418"><ele>372.0</ele><time>2026-05-03T16:16:31.383Z</time></trkpt><trkpt lat="44.401394" lon="7.9622664"><ele>372.0</ele><time>2026-05-03T16:16:32.383Z</time></trkpt><trkpt lat="44.4014913" lon="7.9621166"><ele>372.0</ele><time>2026-05-03T16:16:33.383Z</time></trkpt><trkpt lat="44.4016094" lon="7.9619926"><ele>372.0</ele><time>2026-05-03T16:16:34.383Z</time></trkpt><trkpt lat="44.4017508" lon="7.9618951"><ele>372.0</ele><time>2026-05-03T16:16:35.384Z</time></trkpt><trkpt lat="44.4019168" lon="7.9618183"><ele>372.0</ele><time>2026-05-03T16:16:36.383Z</time></trkpt><trkpt lat="44.4020931" lon="7.9617583"><ele>372.0</ele><time>2026-05-03T16:16:37.383Z</time></trkpt><trkpt lat="44.4022586" lon="7.9617011"><ele>367.6666666666667</ele><time>2026-05-03T16:16:38.384Z</time></trkpt><trkpt lat="44.402417" lon="7.9616429"><ele>363.33333333333337</ele><time>2026-05-03T16:16:39.383Z</time></trkpt><trkpt lat="44.4025687" lon="7.9615942"><ele>359.0</ele><time>2026-05-03T16:16:40.383Z</time></trkpt><trkpt lat="44.4027044" lon="7.9615462"><ele>359.0</ele><time>2026-05-03T16:16:41.383Z</time></trkpt><trkpt lat="44.4028311" lon="7.9615038"><ele>359.0</ele><time>2026-05-03T16:16:42.383Z</time></trkpt><trkpt lat="44.402955" lon="7.9614607"><ele>359.0</ele><time>2026-05-03T16:16:43.383Z</time></trkpt><trkpt lat="44.403075" lon="7.9614179"><ele>359.0</ele><time>2026-05-03T16:16:44.383Z</time></trkpt><trkpt lat="44.4031999" lon="7.9613702"><ele>359.5</ele><time>2026-05-03T16:16:45.383Z</time></trkpt><trkpt lat="44.4033383" lon="7.9613256"><ele>360.0</ele><time>2026-05-03T16:16:46.383Z</time></trkpt><trkpt lat="44.4034859" lon="7.9612784"><ele>360.5</ele><time>2026-05-03T16:16:47.384Z</time></trkpt><trkpt lat="44.4036245" lon="7.9611923"><ele>361.0</ele><time>2026-05-03T16:16:48.383Z</time></trkpt><trkpt lat="44.4037512" lon="7.9610512"><ele>360.66666666666663</ele><time>2026-05-03T16:16:49.384Z</time></trkpt><trkpt lat="44.4038604" lon="7.9608718"><ele>360.3333333333333</ele><time>2026-05-03T16:16:50.383Z</time></trkpt><trkpt lat="44.4039423" lon="7.9606605"><ele>360.0</ele><time>2026-05-03T16:16:51.383Z</time></trkpt><trkpt lat="44.4039871" lon="7.9604307"><ele>360.0</ele><time>2026-05-03T16:16:52.383Z</time></trkpt><trkpt lat="44.403992" lon="7.960182"><ele>360.0</ele><time>2026-05-03T16:16:53.383Z</time></trkpt><trkpt lat="44.4039616" lon="7.9599389"><ele>360.0</ele><time>2026-05-03T16:16:54.383Z</time></trkpt><trkpt lat="44.403891" lon="7.9597156"><ele>363.6666666666667</ele><time>2026-05-03T16:16:55.383Z</time></trkpt><trkpt lat="44.4037834" lon="7.9595208"><ele>367.33333333333337</ele><time>2026-05-03T16:16:56.383Z</time></trkpt><trkpt lat="44.4036461" lon="7.9593677"><ele>371.0</ele><time>2026-05-03T16:16:57.383Z</time></trkpt><trkpt lat="44.4034879" lon="7.9592739"><ele>371.0</ele><time>2026-05-03T16:16:58.384Z</time></trkpt><trkpt lat="44.4033126" lon="7.9592359"><ele>371.0</ele><time>2026-05-03T16:16:59.383Z</time></trkpt><trkpt lat="44.4031289" lon="7.9592455"><ele>371.0</ele><time>2026-05-03T16:17:00.384Z</time></trkpt><trkpt lat="44.4029443" lon="7.9592593"><ele>373.33333333333337</ele><time>2026-05-03T16:17:01.383Z</time></trkpt><trkpt lat="44.402764" lon="7.9592632"><ele>375.6666666666667</ele><time>2026-05-03T16:17:02.384Z</time></trkpt><trkpt lat="44.4025918" lon="7.959256"><ele>378.0</ele><time>2026-05-03T16:17:03.383Z</time></trkpt><trkpt lat="44.4024205" lon="7.959223"><ele>382.33333333333337</ele><time>2026-05-03T16:17:04.384Z</time></trkpt><trkpt lat="44.4022504" lon="7.9591626"><ele>386.6666666666667</ele><time>2026-05-03T16:17:05.384Z</time></trkpt><trkpt lat="44.4020778" lon="7.9590926"><ele>391.0</ele><time>2026-05-03T16:17:06.384Z</time></trkpt><trkpt lat="44.4019078" lon="7.959023"><ele>392.6666666666667</ele><time>2026-05-03T16:17:07.383Z</time></trkpt><trkpt lat="44.4017418" lon="7.9589528"><ele>394.33333333333337</ele><time>2026-05-03T16:17:08.384Z</time></trkpt><trkpt lat="44.4015822" lon="7.9588887"><ele>396.0</ele><time>2026-05-03T16:17:09.383Z</time></trkpt><trkpt lat="44.4014286" lon="7.9588177"><ele>396.33333333333337</ele><time>2026-05-03T16:17:10.384Z</time></trkpt><trkpt lat="44.4012818" lon="7.9587468"><ele>396.6666666666667</ele><time>2026-05-03T16:17:11.384Z</time></trkpt><trkpt lat="44.4011368" lon="7.958667"><ele>397.0</ele><time>2026-05-03T16:17:12.383Z</time></trkpt><trkpt lat="44.4009993" lon="7.9585639"><ele>397.0</ele><time>2026-05-03T16:17:13.383Z</time></trkpt><trkpt lat="44.4008707" lon="7.9584339"><ele>397.0</ele><time>2026-05-03T16:17:14.383Z</time></trkpt><trkpt lat="44.4007387" lon="7.9583019"><ele>397.0</ele><time>2026-05-03T16:17:15.384Z</time></trkpt><trkpt lat="44.4006127" lon="7.9581724"><ele>398.5</ele><time>2026-05-03T16:17:16.384Z</time></trkpt><trkpt lat="44.4004923" lon="7.958053"><ele>400.0</ele><time>2026-05-03T16:17:17.383Z</time></trkpt><trkpt lat="44.4003808" lon="7.9579454"><ele>401.5</ele><time>2026-05-03T16:17:18.383Z</time></trkpt><trkpt lat="44.400266" lon="7.9578311"><ele>403.0</ele><time>2026-05-03T16:17:19.384Z</time></trkpt><trkpt lat="44.400144" lon="7.9577076"><ele>403.0</ele><time>2026-05-03T16:17:20.383Z</time></trkpt><trkpt lat="44.4000084" lon="7.9575741"><ele>403.0</ele><time>2026-05-03T16:17:21.383Z</time></trkpt><trkpt lat="44.3998652" lon="7.9574259"><ele>403.0</ele><time>2026-05-03T16:17:22.383Z</time></trkpt><trkpt lat="44.3997155" lon="7.9572672"><ele>404.6666666666667</ele><time>2026-05-03T16:17:23.384Z</time></trkpt><trkpt lat="44.3995657" lon="7.9571149"><ele>406.33333333333337</ele><time>2026-05-03T16:17:24.384Z</time></trkpt><trkpt lat="44.3994124" lon="7.9569562"><ele>408.0</ele><time>2026-05-03T16:17:25.383Z</time></trkpt><trkpt lat="44.3992556" lon="7.9567999"><ele>408.0</ele><time>2026-05-03T16:17:26.384Z</time></trkpt><trkpt lat="44.3990954" lon="7.9566371"><ele>408.0</ele><time>2026-05-03T16:17:27.384Z</time></trkpt><trkpt lat="44.3989314" lon="7.9564726"><ele>408.0</ele><time>2026-05-03T16:17:28.383Z</time></trkpt><trkpt lat="44.3987657" lon="7.9563084"><ele>408.0</ele><time>2026-05-03T16:17:29.383Z</time></trkpt><trkpt lat="44.3985942" lon="7.9561333"><ele>408.0</ele><time>2026-05-03T16:17:30.383Z</time></trkpt><trkpt lat="44.3984158" lon="7.9559468"><ele>408.0</ele><time>2026-05-03T16:17:31.384Z</time></trkpt><trkpt lat="44.3982297" lon="7.9557504"><ele>408.0</ele><time>2026-05-03T16:17:32.383Z</time></trkpt><trkpt lat="44.3980425" lon="7.955554"><ele>408.0</ele><time>2026-05-03T16:17:33.383Z</time></trkpt><trkpt lat="44.397857" lon="7.9553657"><ele>408.0</ele><time>2026-05-03T16:17:34.383Z</time></trkpt><trkpt lat="44.397677" lon="7.9551768"><ele>408.0</ele><time>2026-05-03T16:17:35.383Z</time></trkpt><trkpt lat="44.3974949" lon="7.9549898"><ele>408.33333333333337</ele><time>2026-05-03T16:17:36.383Z</time></trkpt><trkpt lat="44.3973135" lon="7.9548018"><ele>408.6666666666667</ele><time>2026-05-03T16:17:37.384Z</time></trkpt><trkpt lat="44.3971355" lon="7.9546139"><ele>409.0</ele><time>2026-05-03T16:17:38.384Z</time></trkpt><trkpt lat="44.3969537" lon="7.9544305"><ele>409.33333333333337</ele><time>2026-05-03T16:17:39.383Z</time></trkpt><trkpt lat="44.3967739" lon="7.9542479"><ele>409.66666666666663</ele><time>2026-05-03T16:17:40.383Z</time></trkpt><trkpt lat="44.3965972" lon="7.9540666"><ele>410.0</ele><time>2026-05-03T16:17:41.383Z</time></trkpt><trkpt lat="44.3964207" lon="7.9538882"><ele>410.3333333333333</ele><time>2026-05-03T16:17:42.383Z</time></trkpt><trkpt lat="44.3962475" lon="7.9537141"><ele>410.66666666666663</ele><time>2026-05-03T16:17:43.383Z</time></trkpt><trkpt lat="44.3960788" lon="7.9535402"><ele>411.0</ele><time>2026-05-03T16:17:44.383Z</time></trkpt><trkpt lat="44.395912" lon="7.953367"><ele>411.0</ele><time>2026-05-03T16:17:45.383Z</time></trkpt><trkpt lat="44.3957459" lon="7.9531904"><ele>411.0</ele><time>2026-05-03T16:17:46.383Z</time></trkpt><trkpt lat="44.3955789" lon="7.9530208"><ele>411.0</ele><time>2026-05-03T16:17:47.383Z</time></trkpt><trkpt lat="44.3954148" lon="7.9528479"><ele>411.0</ele><time>2026-05-03T16:17:48.383Z</time></trkpt><trkpt lat="44.3952497" lon="7.9526797"><ele>411.0</ele><time>2026-05-03T16:17:49.383Z</time></trkpt><trkpt lat="44.3950906" lon="7.9525105"><ele>411.0</ele><time>2026-05-03T16:17:50.384Z</time></trkpt><trkpt lat="44.394929" lon="7.9523463"><ele>411.0</ele><time>2026-05-03T16:17:51.383Z</time></trkpt><trkpt lat="44.3947681" lon="7.9521861"><ele>411.0</ele><time>2026-05-03T16:17:52.383Z</time></trkpt><trkpt lat="44.394606" lon="7.9520277"><ele>411.0</ele><time>2026-05-03T16:17:53.384Z</time></trkpt><trkpt lat="44.3944478" lon="7.9518672"><ele>411.0</ele><time>2026-05-03T16:17:54.383Z</time></trkpt><trkpt lat="44.3942902" lon="7.9517104"><ele>411.0</ele><time>2026-05-03T16:17:55.383Z</time></trkpt><trkpt lat="44.3941322" lon="7.9515537"><ele>411.0</ele><time>2026-05-03T16:17:56.383Z</time></trkpt><trkpt lat="44.3939769" lon="7.9513945"><ele>411.66666666666663</ele><time>2026-05-03T16:17:57.384Z</time></trkpt><trkpt lat="44.3938241" lon="7.9512355"><ele>412.3333333333333</ele><time>2026-05-03T16:17:58.383Z</time></trkpt><trkpt lat="44.3936762" lon="7.9510817"><ele>413.0</ele><time>2026-05-03T16:17:59.384Z</time></trkpt><trkpt lat="44.3935284" lon="7.9509306"><ele>413.0</ele><time>2026-05-03T16:18:00.383Z</time></trkpt><trkpt lat="44.3933858" lon="7.9507817"><ele>413.0</ele><time>2026-05-03T16:18:01.384Z</time></trkpt><trkpt lat="44.3932453" lon="7.9506358"><ele>413.0</ele><time>2026-05-03T16:18:02.384Z</time></trkpt><trkpt lat="44.3931078" lon="7.9504933"><ele>413.0</ele><time>2026-05-03T16:18:03.384Z</time></trkpt><trkpt lat="44.3929695" lon="7.9503503"><ele>413.0</ele><time>2026-05-03T16:18:04.383Z</time></trkpt><trkpt lat="44.3928293" lon="7.9502097"><ele>413.0</ele><time>2026-05-03T16:18:05.383Z</time></trkpt><trkpt lat="44.3926892" lon="7.9500695"><ele>413.0</ele><time>2026-05-03T16:18:06.383Z</time></trkpt><trkpt lat="44.3925487" lon="7.9499261"><ele>413.0</ele><time>2026-05-03T16:18:07.383Z</time></trkpt><trkpt lat="44.3924087" lon="7.9497763"><ele>413.0</ele><time>2026-05-03T16:18:08.383Z</time></trkpt><trkpt lat="44.3922653" lon="7.9496308"><ele>413.66666666666663</ele><time>2026-05-03T16:18:09.384Z</time></trkpt><trkpt lat="44.3921215" lon="7.9494882"><ele>414.33333333333337</ele><time>2026-05-03T16:18:10.383Z</time></trkpt><trkpt lat="44.3919808" lon="7.9493495"><ele>415.0</ele><time>2026-05-03T16:18:11.383Z</time></trkpt><trkpt lat="44.3918409" lon="7.9492087"><ele>415.0</ele><time>2026-05-03T16:18:12.383Z</time></trkpt><trkpt lat="44.3917062" lon="7.9490675"><ele>415.0</ele><time>2026-05-03T16:18:13.383Z</time></trkpt><trkpt lat="44.3915729" lon="7.9489287"><ele>415.0</ele><time>2026-05-03T16:18:14.383Z</time></trkpt><trkpt lat="44.3914366" lon="7.9487978"><ele>416.0</ele><time>2026-05-03T16:18:15.384Z</time></trkpt><trkpt lat="44.391302" lon="7.9486688"><ele>417.0</ele><time>2026-05-03T16:18:16.383Z</time></trkpt><trkpt lat="44.3911706" lon="7.9485306"><ele>418.0</ele><time>2026-05-03T16:18:17.383Z</time></trkpt><trkpt lat="44.3910447" lon="7.9483978"><ele>418.0</ele><time>2026-05-03T16:18:18.383Z</time></trkpt><trkpt lat="44.3909188" lon="7.9482675"><ele>418.0</ele><time>2026-05-03T16:18:19.383Z</time></trkpt><trkpt lat="44.3907923" lon="7.9481333"><ele>418.0</ele><time>2026-05-03T16:18:20.384Z</time></trkpt><trkpt lat="44.3906721" lon="7.9479987"><ele>418.0</ele><time>2026-05-03T16:18:21.383Z</time></trkpt><trkpt lat="44.3905532" lon="7.9478596"><ele>418.0</ele><time>2026-05-03T16:18:22.383Z</time></trkpt><trkpt lat="44.3904348" lon="7.9477125"><ele>418.0</ele><time>2026-05-03T16:18:23.383Z</time></trkpt><trkpt lat="44.3903213" lon="7.9475502"><ele>419.0</ele><time>2026-05-03T16:18:24.384Z</time></trkpt><trkpt lat="44.3902171" lon="7.9473715"><ele>420.0</ele><time>2026-05-03T16:18:25.383Z</time></trkpt><trkpt lat="44.3901163" lon="7.9471886"><ele>421.0</ele><time>2026-05-03T16:18:26.384Z</time></trkpt><trkpt lat="44.3900242" lon="7.9470017"><ele>421.0</ele><time>2026-05-03T16:18:27.383Z</time></trkpt><trkpt lat="44.3899302" lon="7.9468161"><ele>421.0</ele><time>2026-05-03T16:18:28.384Z</time></trkpt><trkpt lat="44.3898368" lon="7.9466354"><ele>421.0</ele><time>2026-05-03T16:18:29.384Z</time></trkpt><trkpt lat="44.3897457" lon="7.9464571"><ele>422.6666666666667</ele><time>2026-05-03T16:18:30.383Z</time></trkpt><trkpt lat="44.3896534" lon="7.9462816"><ele>424.33333333333337</ele><time>2026-05-03T16:18:31.383Z</time></trkpt><trkpt lat="44.3895636" lon="7.9461051"><ele>426.0</ele><time>2026-05-03T16:18:32.383Z</time></trkpt><trkpt lat="44.3894748" lon="7.9459332"><ele>424.66666666666663</ele><time>2026-05-03T16:18:33.383Z</time></trkpt><trkpt lat="44.3893884" lon="7.9457525"><ele>423.3333333333333</ele><time>2026-05-03T16:18:34.384Z</time></trkpt><trkpt lat="44.3893005" lon="7.9455824"><ele>422.0</ele><time>2026-05-03T16:18:35.383Z</time></trkpt><trkpt lat="44.3892115" lon="7.9454084"><ele>422.0</ele><time>2026-05-03T16:18:36.383Z</time></trkpt><trkpt lat="44.389124" lon="7.9452385"><ele>422.0</ele><time>2026-05-03T16:18:37.384Z</time></trkpt><trkpt lat="44.3890369" lon="7.9450767"><ele>422.0</ele><time>2026-05-03T16:18:38.383Z</time></trkpt><trkpt lat="44.3889502" lon="7.9449146"><ele>422.0</ele><time>2026-05-03T16:18:39.383Z</time></trkpt><trkpt lat="44.3888683" lon="7.9447486"><ele>422.25</ele><time>2026-05-03T16:18:40.384Z</time></trkpt><trkpt lat="44.3887842" lon="7.9445887"><ele>422.5</ele><time>2026-05-03T16:18:41.384Z</time></trkpt><trkpt lat="44.388703" lon="7.9444275"><ele>422.75</ele><time>2026-05-03T16:18:42.384Z</time></trkpt><trkpt lat="44.3886205" lon="7.9442673"><ele>423.0</ele><time>2026-05-03T16:18:43.384Z</time></trkpt><trkpt lat="44.3885362" lon="7.9441076"><ele>423.0</ele><time>2026-05-03T16:18:44.383Z</time></trkpt><trkpt lat="44.3884535" lon="7.9439486"><ele>423.0</ele><time>2026-05-03T16:18:45.383Z</time></trkpt><trkpt lat="44.3883722" lon="7.9437862"><ele>423.0</ele><time>2026-05-03T16:18:46.383Z</time></trkpt><trkpt lat="44.3882907" lon="7.9436276"><ele>423.0</ele><time>2026-05-03T16:18:47.384Z</time></trkpt><trkpt lat="44.3882129" lon="7.9434662"><ele>423.25</ele><time>2026-05-03T16:18:48.383Z</time></trkpt><trkpt lat="44.3881332" lon="7.9433021"><ele>423.5</ele><time>2026-05-03T16:18:49.383Z</time></trkpt><trkpt lat="44.388054" lon="7.9431439"><ele>423.75</ele><time>2026-05-03T16:18:50.384Z</time></trkpt><trkpt lat="44.387974" lon="7.9429831"><ele>424.0</ele><time>2026-05-03T16:18:51.383Z</time></trkpt><trkpt lat="44.3878977" lon="7.9428289"><ele>424.0</ele><time>2026-05-03T16:18:52.383Z</time></trkpt><trkpt lat="44.3878237" lon="7.9426771"><ele>424.0</ele><time>2026-05-03T16:18:53.384Z</time></trkpt><trkpt lat="44.3877528" lon="7.9425275"><ele>424.0</ele><time>2026-05-03T16:18:54.384Z</time></trkpt><trkpt lat="44.3876775" lon="7.9423773"><ele>424.0</ele><time>2026-05-03T16:18:55.383Z</time></trkpt><trkpt lat="44.3876043" lon="7.9422321"><ele>423.75</ele><time>2026-05-03T16:18:56.383Z</time></trkpt><trkpt lat="44.3875291" lon="7.9420851"><ele>423.5</ele><time>2026-05-03T16:18:57.383Z</time></trkpt><trkpt lat="44.3874529" lon="7.941935"><ele>423.25</ele><time>2026-05-03T16:18:58.383Z</time></trkpt><trkpt lat="44.3873726" lon="7.9417742"><ele>423.0</ele><time>2026-05-03T16:18:59.383Z</time></trkpt><trkpt lat="44.3872912" lon="7.941615"><ele>423.0</ele><time>2026-05-03T16:19:00.383Z</time></trkpt><trkpt lat="44.3872042" lon="7.9414463"><ele>423.0</ele><time>2026-05-03T16:19:01.383Z</time></trkpt><trkpt lat="44.3871142" lon="7.9412768"><ele>423.0</ele><time>2026-05-03T16:19:02.383Z</time></trkpt><trkpt lat="44.3870229" lon="7.9411011"><ele>423.0</ele><time>2026-05-03T16:19:03.383Z</time></trkpt><trkpt lat="44.3869338" lon="7.9409147"><ele>423.0</ele><time>2026-05-03T16:19:04.383Z</time></trkpt><trkpt lat="44.386842" lon="7.9407282"><ele>423.0</ele><time>2026-05-03T16:19:05.383Z</time></trkpt><trkpt lat="44.3867451" lon="7.9405368"><ele>422.66666666666663</ele><time>2026-05-03T16:19:06.384Z</time></trkpt><trkpt lat="44.3866476" lon="7.9403429"><ele>422.3333333333333</ele><time>2026-05-03T16:19:07.383Z</time></trkpt><trkpt lat="44.3865511" lon="7.9401506"><ele>422.0</ele><time>2026-05-03T16:19:08.383Z</time></trkpt><trkpt lat="44.3864519" lon="7.9399577"><ele>421.66666666666663</ele><time>2026-05-03T16:19:09.383Z</time></trkpt><trkpt lat="44.3863547" lon="7.9397577"><ele>421.33333333333337</ele><time>2026-05-03T16:19:10.383Z</time></trkpt><trkpt lat="44.386256" lon="7.9395614"><ele>421.0</ele><time>2026-05-03T16:19:11.383Z</time></trkpt><trkpt lat="44.386159" lon="7.9393625"><ele>421.6666666666667</ele><time>2026-05-03T16:19:12.383Z</time></trkpt><trkpt lat="44.3860614" lon="7.9391684"><ele>422.33333333333337</ele><time>2026-05-03T16:19:13.383Z</time></trkpt><trkpt lat="44.385963" lon="7.9389748"><ele>423.0</ele><time>2026-05-03T16:19:14.384Z</time></trkpt><trkpt lat="44.3858639" lon="7.938778"><ele>423.0</ele><time>2026-05-03T16:19:15.383Z</time></trkpt><trkpt lat="44.3857662" lon="7.9385836"><ele>423.0</ele><time>2026-05-03T16:19:16.383Z</time></trkpt><trkpt lat="44.3856674" lon="7.9383905"><ele>423.0</ele><time>2026-05-03T16:19:17.384Z</time></trkpt><trkpt lat="44.385565" lon="7.9381999"><ele>423.33333333333337</ele><time>2026-05-03T16:19:18.383Z</time></trkpt><trkpt lat="44.3854655" lon="7.9380103"><ele>423.6666666666667</ele><time>2026-05-03T16:19:19.384Z</time></trkpt><trkpt lat="44.3853695" lon="7.9378154"><ele>424.0</ele><time>2026-05-03T16:19:20.384Z</time></trkpt><trkpt lat="44.3852736" lon="7.9376196"><ele>424.0</ele><time>2026-05-03T16:19:21.384Z</time></trkpt><trkpt lat="44.3851768" lon="7.9374234"><ele>424.0</ele><time>2026-05-03T16:19:22.381Z</time></trkpt><trkpt lat="44.3850775" lon="7.9372327"><ele>424.0</ele><time>2026-05-03T16:19:23.383Z</time></trkpt><trkpt lat="44.3849794" lon="7.9370368"><ele>424.0</ele><time>2026-05-03T16:19:24.383Z</time></trkpt><trkpt lat="44.3848785" lon="7.9368426"><ele>424.0</ele><time>2026-05-03T16:19:25.384Z</time></trkpt><trkpt lat="44.3847789" lon="7.9366449"><ele>424.0</ele><time>2026-05-03T16:19:26.383Z</time></trkpt><trkpt lat="44.3846805" lon="7.9364475"><ele>425.0</ele><time>2026-05-03T16:19:27.383Z</time></trkpt><trkpt lat="44.384583" lon="7.9362526"><ele>426.0</ele><time>2026-05-03T16:19:28.383Z</time></trkpt><trkpt lat="44.3844821" lon="7.9360524"><ele>427.0</ele><time>2026-05-03T16:19:29.384Z</time></trkpt><trkpt lat="44.3843813" lon="7.9358532"><ele>427.33333333333337</ele><time>2026-05-03T16:19:30.383Z</time></trkpt><trkpt lat="44.3842797" lon="7.9356498"><ele>427.66666666666663</ele><time>2026-05-03T16:19:31.383Z</time></trkpt><trkpt lat="44.3841771" lon="7.9354469"><ele>428.0</ele><time>2026-05-03T16:19:32.383Z</time></trkpt><trkpt lat="44.384074" lon="7.9352384"><ele>428.3333333333333</ele><time>2026-05-03T16:19:33.383Z</time></trkpt><trkpt lat="44.3839696" lon="7.9350227"><ele>428.66666666666663</ele><time>2026-05-03T16:19:34.384Z</time></trkpt><trkpt lat="44.3838658" lon="7.9348145"><ele>429.0</ele><time>2026-05-03T16:19:35.383Z</time></trkpt><trkpt lat="44.3837593" lon="7.9346106"><ele>429.0</ele><time>2026-05-03T16:19:36.384Z</time></trkpt><trkpt lat="44.3836505" lon="7.9344034"><ele>429.0</ele><time>2026-05-03T16:19:37.383Z</time></trkpt><trkpt lat="44.3835414" lon="7.9341993"><ele>429.0</ele><time>2026-05-03T16:19:38.383Z</time></trkpt><trkpt lat="44.3834346" lon="7.9339919"><ele>429.0</ele><time>2026-05-03T16:19:39.383Z</time></trkpt><trkpt lat="44.3833252" lon="7.9337819"><ele>429.0</ele><time>2026-05-03T16:19:40.383Z</time></trkpt><trkpt lat="44.3832132" lon="7.9335718"><ele>429.0</ele><time>2026-05-03T16:19:41.383Z</time></trkpt><trkpt lat="44.3831031" lon="7.933358"><ele>430.0</ele><time>2026-05-03T16:19:42.384Z</time></trkpt><trkpt lat="44.3829946" lon="7.9331414"><ele>431.0</ele><time>2026-05-03T16:19:43.384Z</time></trkpt><trkpt lat="44.3828868" lon="7.9329245"><ele>432.0</ele><time>2026-05-03T16:19:44.384Z</time></trkpt><trkpt lat="44.3827742" lon="7.932713"><ele>430.66666666666663</ele><time>2026-05-03T16:19:45.383Z</time></trkpt><trkpt lat="44.3826624" lon="7.9324953"><ele>429.3333333333333</ele><time>2026-05-03T16:19:46.383Z</time></trkpt><trkpt lat="44.3825528" lon="7.9322779"><ele>428.0</ele><time>2026-05-03T16:19:47.383Z</time></trkpt><trkpt lat="44.3824449" lon="7.932059"><ele>428.0</ele><time>2026-05-03T16:19:48.384Z</time></trkpt><trkpt lat="44.3823351" lon="7.9318428"><ele>428.0</ele><time>2026-05-03T16:19:49.383Z</time></trkpt><trkpt lat="44.3822281" lon="7.9316269"><ele>428.0</ele><time>2026-05-03T16:19:50.383Z</time></trkpt><trkpt lat="44.382119" lon="7.9314078"><ele>428.3333333333333</ele><time>2026-05-03T16:19:51.383Z</time></trkpt><trkpt lat="44.3820095" lon="7.931189"><ele>428.66666666666663</ele><time>2026-05-03T16:19:52.384Z</time></trkpt><trkpt lat="44.3818988" lon="7.9309733"><ele>429.0</ele><time>2026-05-03T16:19:53.383Z</time></trkpt><trkpt lat="44.3817843" lon="7.930758"><ele>429.0</ele><time>2026-05-03T16:19:54.383Z</time></trkpt><trkpt lat="44.3816741" lon="7.9305458"><ele>429.0</ele><time>2026-05-03T16:19:55.384Z</time></trkpt><trkpt lat="44.3815683" lon="7.9303377"><ele>429.0</ele><time>2026-05-03T16:19:56.384Z</time></trkpt><trkpt lat="44.3814658" lon="7.9301324"><ele>428.66666666666663</ele><time>2026-05-03T16:19:57.383Z</time></trkpt><trkpt lat="44.3813633" lon="7.9299273"><ele>428.3333333333333</ele><time>2026-05-03T16:19:58.383Z</time></trkpt><trkpt lat="44.3812605" lon="7.9297229"><ele>428.0</ele><time>2026-05-03T16:19:59.383Z</time></trkpt><trkpt lat="44.3811554" lon="7.9295228"><ele>428.66666666666663</ele><time>2026-05-03T16:20:00.383Z</time></trkpt><trkpt lat="44.3810488" lon="7.9293183"><ele>429.33333333333337</ele><time>2026-05-03T16:20:01.383Z</time></trkpt><trkpt lat="44.3809418" lon="7.9291114"><ele>430.0</ele><time>2026-05-03T16:20:02.383Z</time></trkpt><trkpt lat="44.3808322" lon="7.9289026"><ele>430.0</ele><time>2026-05-03T16:20:03.383Z</time></trkpt><trkpt lat="44.3807153" lon="7.9286946"><ele>430.0</ele><time>2026-05-03T16:20:04.384Z</time></trkpt><trkpt lat="44.3805966" lon="7.9284798"><ele>430.0</ele><time>2026-05-03T16:20:05.383Z</time></trkpt><trkpt lat="44.380477" lon="7.9282674"><ele>431.33333333333337</ele><time>2026-05-03T16:20:06.383Z</time></trkpt><trkpt lat="44.3803556" lon="7.9280451"><ele>432.66666666666663</ele><time>2026-05-03T16:20:07.383Z</time></trkpt><trkpt lat="44.3802286" lon="7.9278203"><ele>434.0</ele><time>2026-05-03T16:20:08.383Z</time></trkpt><trkpt lat="44.3801012" lon="7.9275923"><ele>433.0</ele><time>2026-05-03T16:20:09.383Z</time></trkpt><trkpt lat="44.3799749" lon="7.9273583"><ele>432.0</ele><time>2026-05-03T16:20:10.384Z</time></trkpt><trkpt lat="44.3798443" lon="7.927126"><ele>431.0</ele><time>2026-05-03T16:20:11.383Z</time></trkpt><trkpt lat="44.3797128" lon="7.9268942"><ele>431.66666666666663</ele><time>2026-05-03T16:20:12.383Z</time></trkpt><trkpt lat="44.3795792" lon="7.9266617"><ele>432.33333333333337</ele><time>2026-05-03T16:20:13.383Z</time></trkpt><trkpt lat="44.379444" lon="7.926426"><ele>433.0</ele><time>2026-05-03T16:20:14.383Z</time></trkpt><trkpt lat="44.3793113" lon="7.9261889"><ele>433.0</ele><time>2026-05-03T16:20:15.383Z</time></trkpt><trkpt lat="44.3791791" lon="7.925951"><ele>433.0</ele><time>2026-05-03T16:20:16.384Z</time></trkpt><trkpt lat="44.3790427" lon="7.9257208"><ele>433.0</ele><time>2026-05-03T16:20:17.383Z</time></trkpt><trkpt lat="44.3789119" lon="7.9254864"><ele>433.6666666666667</ele><time>2026-05-03T16:20:18.383Z</time></trkpt><trkpt lat="44.3787815" lon="7.9252597"><ele>434.33333333333337</ele><time>2026-05-03T16:20:19.383Z</time></trkpt><trkpt lat="44.378655" lon="7.9250362"><ele>435.0</ele><time>2026-05-03T16:20:20.383Z</time></trkpt><trkpt lat="44.3785342" lon="7.9248233"><ele>435.0</ele><time>2026-05-03T16:20:21.383Z</time></trkpt><trkpt lat="44.3784158" lon="7.9246139"><ele>435.0</ele><time>2026-05-03T16:20:22.383Z</time></trkpt><trkpt lat="44.3783006" lon="7.9244066"><ele>435.0</ele><time>2026-05-03T16:20:23.383Z</time></trkpt><trkpt lat="44.3781874" lon="7.9242041"><ele>435.33333333333337</ele><time>2026-05-03T16:20:24.383Z</time></trkpt><trkpt lat="44.3780762" lon="7.9240107"><ele>435.6666666666667</ele><time>2026-05-03T16:20:25.383Z</time></trkpt><trkpt lat="44.3779672" lon="7.9238172"><ele>436.0</ele><time>2026-05-03T16:20:26.383Z</time></trkpt><trkpt lat="44.3778577" lon="7.923628"><ele>436.0</ele><time>2026-05-03T16:20:27.383Z</time></trkpt><trkpt lat="44.3777513" lon="7.923438"><ele>436.0</ele><time>2026-05-03T16:20:28.384Z</time></trkpt><trkpt lat="44.3776455" lon="7.9232486"><ele>436.0</ele><time>2026-05-03T16:20:29.383Z</time></trkpt><trkpt lat="44.3775377" lon="7.9230625"><ele>436.0</ele><time>2026-05-03T16:20:30.384Z</time></trkpt><trkpt lat="44.3774328" lon="7.9228788"><ele>436.0</ele><time>2026-05-03T16:20:31.383Z</time></trkpt><trkpt lat="44.3773274" lon="7.922692"><ele>436.0</ele><time>2026-05-03T16:20:32.383Z</time></trkpt><trkpt lat="44.3772255" lon="7.9225099"><ele>437.33333333333337</ele><time>2026-05-03T16:20:33.383Z</time></trkpt><trkpt lat="44.3771217" lon="7.922323"><ele>438.66666666666663</ele><time>2026-05-03T16:20:34.384Z</time></trkpt><trkpt lat="44.3770171" lon="7.9221344"><ele>440.0</ele><time>2026-05-03T16:20:35.383Z</time></trkpt><trkpt lat="44.3769107" lon="7.9219401"><ele>440.0</ele><time>2026-05-03T16:20:36.383Z</time></trkpt><trkpt lat="44.3768017" lon="7.9217454"><ele>440.0</ele><time>2026-05-03T16:20:37.383Z</time></trkpt><trkpt lat="44.3766919" lon="7.92155"><ele>440.0</ele><time>2026-05-03T16:20:38.383Z</time></trkpt><trkpt lat="44.3765796" lon="7.9213535"><ele>439.66666666666663</ele><time>2026-05-03T16:20:39.384Z</time></trkpt><trkpt lat="44.3764628" lon="7.9211515"><ele>439.33333333333337</ele><time>2026-05-03T16:20:40.384Z</time></trkpt><trkpt lat="44.3763444" lon="7.9209497"><ele>439.0</ele><time>2026-05-03T16:20:41.383Z</time></trkpt><trkpt lat="44.3762269" lon="7.9207448"><ele>437.6666666666667</ele><time>2026-05-03T16:20:42.383Z</time></trkpt><trkpt lat="44.3761131" lon="7.9205455"><ele>436.33333333333337</ele><time>2026-05-03T16:20:43.383Z</time></trkpt><trkpt lat="44.3760006" lon="7.9203498"><ele>435.0</ele><time>2026-05-03T16:20:44.383Z</time></trkpt><trkpt lat="44.3758886" lon="7.9201512"><ele>434.0</ele><time>2026-05-03T16:20:45.383Z</time></trkpt><trkpt lat="44.3757783" lon="7.9199541"><ele>433.0</ele><time>2026-05-03T16:20:46.383Z</time></trkpt><trkpt lat="44.3756684" lon="7.9197596"><ele>432.0</ele><time>2026-05-03T16:20:47.384Z</time></trkpt><trkpt lat="44.3755565" lon="7.9195627"><ele>432.33333333333337</ele><time>2026-05-03T16:20:48.383Z</time></trkpt><trkpt lat="44.3754451" lon="7.9193671"><ele>432.6666666666667</ele><time>2026-05-03T16:20:49.383Z</time></trkpt><trkpt lat="44.375338" lon="7.9191714"><ele>433.0</ele><time>2026-05-03T16:20:50.383Z</time></trkpt><trkpt lat="44.3752302" lon="7.9189742"><ele>433.0</ele><time>2026-05-03T16:20:51.383Z</time></trkpt><trkpt lat="44.3751294" lon="7.9187776"><ele>433.0</ele><time>2026-05-03T16:20:52.383Z</time></trkpt><trkpt lat="44.3750294" lon="7.9185793"><ele>433.0</ele><time>2026-05-03T16:20:53.383Z</time></trkpt><trkpt lat="44.374932" lon="7.9183882"><ele>434.6666666666667</ele><time>2026-05-03T16:20:54.384Z</time></trkpt><trkpt lat="44.3748354" lon="7.9181969"><ele>436.33333333333337</ele><time>2026-05-03T16:20:55.384Z</time></trkpt><trkpt lat="44.3747461" lon="7.9180052"><ele>438.0</ele><time>2026-05-03T16:20:56.383Z</time></trkpt><trkpt lat="44.3746619" lon="7.9178181"><ele>438.0</ele><time>2026-05-03T16:20:57.383Z</time></trkpt><trkpt lat="44.3745756" lon="7.9176275"><ele>438.0</ele><time>2026-05-03T16:20:58.383Z</time></trkpt><trkpt lat="44.3744912" lon="7.9174535"><ele>438.0</ele><time>2026-05-03T16:20:59.383Z</time></trkpt><trkpt lat="44.3744115" lon="7.9172837"><ele>437.5</ele><time>2026-05-03T16:21:00.383Z</time></trkpt><trkpt lat="44.3743359" lon="7.9171153"><ele>437.0</ele><time>2026-05-03T16:21:01.383Z</time></trkpt><trkpt lat="44.3742639" lon="7.9169426"><ele>436.5</ele><time>2026-05-03T16:21:02.383Z</time></trkpt><trkpt lat="44.3741917" lon="7.9167593"><ele>436.0</ele><time>2026-05-03T16:21:03.383Z</time></trkpt><trkpt lat="44.3741225" lon="7.9165697"><ele>434.0</ele><time>2026-05-03T16:21:04.383Z</time></trkpt><trkpt lat="44.3740568" lon="7.9163748"><ele>432.0</ele><time>2026-05-03T16:21:05.383Z</time></trkpt><trkpt lat="44.3739967" lon="7.9161714"><ele>430.0</ele><time>2026-05-03T16:21:06.384Z</time></trkpt><trkpt lat="44.3739412" lon="7.9159578"><ele>431.0</ele><time>2026-05-03T16:21:07.383Z</time></trkpt><trkpt lat="44.373886" lon="7.9157324"><ele>432.0</ele><time>2026-05-03T16:21:08.383Z</time></trkpt><trkpt lat="44.3738326" lon="7.9154985"><ele>433.0</ele><time>2026-05-03T16:21:09.383Z</time></trkpt><trkpt lat="44.3737837" lon="7.9152479"><ele>432.33333333333337</ele><time>2026-05-03T16:21:10.384Z</time></trkpt><trkpt lat="44.3737309" lon="7.9149931"><ele>431.66666666666663</ele><time>2026-05-03T16:21:11.383Z</time></trkpt><trkpt lat="44.3736732" lon="7.9147329"><ele>431.0</ele><time>2026-05-03T16:21:12.383Z</time></trkpt><trkpt lat="44.3736191" lon="7.9144647"><ele>430.0</ele><time>2026-05-03T16:21:13.383Z</time></trkpt><trkpt lat="44.3735614" lon="7.9141931"><ele>429.0</ele><time>2026-05-03T16:21:14.383Z</time></trkpt><trkpt lat="44.3735051" lon="7.9139206"><ele>428.0</ele><time>2026-05-03T16:21:15.383Z</time></trkpt><trkpt lat="44.3734473" lon="7.9136487"><ele>426.66666666666663</ele><time>2026-05-03T16:21:16.384Z</time></trkpt><trkpt lat="44.3733889" lon="7.9133748"><ele>425.33333333333337</ele><time>2026-05-03T16:21:17.383Z</time></trkpt><trkpt lat="44.3733327" lon="7.9131092"><ele>424.0</ele><time>2026-05-03T16:21:18.384Z</time></trkpt><trkpt lat="44.3732775" lon="7.9128514"><ele>424.0</ele><time>2026-05-03T16:21:19.383Z</time></trkpt><trkpt lat="44.3732202" lon="7.9126001"><ele>424.0</ele><time>2026-05-03T16:21:20.383Z</time></trkpt><trkpt lat="44.3731636" lon="7.9123476"><ele>424.0</ele><time>2026-05-03T16:21:21.384Z</time></trkpt><trkpt lat="44.3731058" lon="7.9120875"><ele>423.33333333333337</ele><time>2026-05-03T16:21:22.383Z</time></trkpt><trkpt lat="44.3730445" lon="7.911818"><ele>422.66666666666663</ele><time>2026-05-03T16:21:23.383Z</time></trkpt><trkpt lat="44.3729727" lon="7.9115304"><ele>422.0</ele><time>2026-05-03T16:21:24.383Z</time></trkpt><trkpt lat="44.3729003" lon="7.9112219"><ele>420.5</ele><time>2026-05-03T16:21:25.384Z</time></trkpt><trkpt lat="44.372829" lon="7.9108939"><ele>419.0</ele><time>2026-05-03T16:21:26.384Z</time></trkpt><trkpt lat="44.3727576" lon="7.9105518"><ele>419.0</ele><time>2026-05-03T16:21:27.384Z</time></trkpt><trkpt lat="44.3726892" lon="7.9101965"><ele>419.0</ele><time>2026-05-03T16:21:28.383Z</time></trkpt><trkpt lat="44.372619" lon="7.9098427"><ele>419.5</ele><time>2026-05-03T16:21:29.383Z</time></trkpt><trkpt lat="44.3725451" lon="7.9095012"><ele>420.0</ele><time>2026-05-03T16:21:30.384Z</time></trkpt><trkpt lat="44.3724713" lon="7.909163"><ele>422.0</ele><time>2026-05-03T16:21:31.384Z</time></trkpt><trkpt lat="44.3723992" lon="7.9088325"><ele>424.0</ele><time>2026-05-03T16:21:32.383Z</time></trkpt><trkpt lat="44.3723274" lon="7.9085081"><ele>427.5</ele><time>2026-05-03T16:21:33.384Z</time></trkpt><trkpt lat="44.3722579" lon="7.9081946"><ele>431.0</ele><time>2026-05-03T16:21:34.383Z</time></trkpt><trkpt lat="44.3721904" lon="7.9078839"><ele>432.5</ele><time>2026-05-03T16:21:35.383Z</time></trkpt><trkpt lat="44.3721214" lon="7.9075801"><ele>434.0</ele><time>2026-05-03T16:21:36.383Z</time></trkpt><trkpt lat="44.3720694" lon="7.9072777"><ele>434.0</ele><time>2026-05-03T16:21:37.383Z</time></trkpt><trkpt lat="44.3720383" lon="7.9069837"><ele>434.0</ele><time>2026-05-03T16:21:38.383Z</time></trkpt><trkpt lat="44.3720262" lon="7.9067089"><ele>434.0</ele><time>2026-05-03T16:21:39.384Z</time></trkpt><trkpt lat="44.3720378" lon="7.9064312"><ele>434.66666666666663</ele><time>2026-05-03T16:21:40.384Z</time></trkpt><trkpt lat="44.3720725" lon="7.9061524"><ele>435.33333333333337</ele><time>2026-05-03T16:21:41.383Z</time></trkpt><trkpt lat="44.3721282" lon="7.905875"><ele>436.0</ele><time>2026-05-03T16:21:42.383Z</time></trkpt><trkpt lat="44.3722063" lon="7.905594"><ele>437.6666666666667</ele><time>2026-05-03T16:21:43.383Z</time></trkpt><trkpt lat="44.3722979" lon="7.905318"><ele>439.33333333333337</ele><time>2026-05-03T16:21:44.383Z</time></trkpt><trkpt lat="44.3723945" lon="7.9050384"><ele>441.0</ele><time>2026-05-03T16:21:45.383Z</time></trkpt><trkpt lat="44.372495" lon="7.9047491"><ele>441.33333333333337</ele><time>2026-05-03T16:21:46.384Z</time></trkpt><trkpt lat="44.3725931" lon="7.9044678"><ele>441.6666666666667</ele><time>2026-05-03T16:21:47.383Z</time></trkpt><trkpt lat="44.3726857" lon="7.9041904"><ele>442.0</ele><time>2026-05-03T16:21:48.383Z</time></trkpt><trkpt lat="44.3727737" lon="7.9039183"><ele>442.0</ele><time>2026-05-03T16:21:49.384Z</time></trkpt><trkpt lat="44.3728473" lon="7.9036529"><ele>442.0</ele><time>2026-05-03T16:21:50.383Z</time></trkpt><trkpt lat="44.3728999" lon="7.9033927"><ele>442.0</ele><time>2026-05-03T16:21:51.384Z</time></trkpt><trkpt lat="44.372939" lon="7.9031484"><ele>441.6666666666667</ele><time>2026-05-03T16:21:52.384Z</time></trkpt><trkpt lat="44.3729615" lon="7.9029142"><ele>441.33333333333337</ele><time>2026-05-03T16:21:53.383Z</time></trkpt><trkpt lat="44.3729722" lon="7.9026957"><ele>441.0</ele><time>2026-05-03T16:21:54.383Z</time></trkpt><trkpt lat="44.372972" lon="7.9024983"><ele>441.4</ele><time>2026-05-03T16:21:55.383Z</time></trkpt><trkpt lat="44.3729703" lon="7.9023296"><ele>441.8</ele><time>2026-05-03T16:21:56.384Z</time></trkpt><trkpt lat="44.3729628" lon="7.9021915"><ele>442.19999999999993</ele><time>2026-05-03T16:21:57.384Z</time></trkpt><trkpt lat="44.3729528" lon="7.9020887"><ele>442.59999999999997</ele><time>2026-05-03T16:21:58.383Z</time></trkpt><trkpt lat="44.3729385" lon="7.9019732"><ele>443.0</ele><time>2026-05-03T16:22:00.384Z</time></trkpt><trkpt lat="44.3729241" lon="7.901864"><ele>443.59999999999997</ele><time>2026-05-03T16:22:03.384Z</time></trkpt><trkpt lat="44.3729165" lon="7.9016821"><ele>444.19999999999993</ele><time>2026-05-03T16:22:05.384Z</time></trkpt><trkpt lat="44.3729287" lon="7.901573"><ele>444.8</ele><time>2026-05-03T16:22:06.383Z</time></trkpt><trkpt lat="44.3729424" lon="7.901464"><ele>445.4</ele><time>2026-05-03T16:22:07.384Z</time></trkpt><trkpt lat="44.3729576" lon="7.9013478"><ele>446.0</ele><time>2026-05-03T16:22:08.383Z</time></trkpt><trkpt lat="44.372975" lon="7.9012183"><ele>446.0</ele><time>2026-05-03T16:22:09.383Z</time></trkpt><trkpt lat="44.3729942" lon="7.9010731"><ele>446.0</ele><time>2026-05-03T16:22:10.383Z</time></trkpt><trkpt lat="44.3730191" lon="7.9009178"><ele>446.0</ele><time>2026-05-03T16:22:11.383Z</time></trkpt><trkpt lat="44.3730466" lon="7.9007629"><ele>446.0</ele><time>2026-05-03T16:22:12.383Z</time></trkpt><trkpt lat="44.3730821" lon="7.900605"><ele>449.5</ele><time>2026-05-03T16:22:13.383Z</time></trkpt><trkpt lat="44.3731247" lon="7.9004487"><ele>453.0</ele><time>2026-05-03T16:22:14.383Z</time></trkpt><trkpt lat="44.3731759" lon="7.9002889"><ele>456.5</ele><time>2026-05-03T16:22:15.384Z</time></trkpt><trkpt lat="44.3732315" lon="7.9001315"><ele>460.0</ele><time>2026-05-03T16:22:16.384Z</time></trkpt><trkpt lat="44.3732945" lon="7.8999581"><ele>460.0</ele><time>2026-05-03T16:22:17.383Z</time></trkpt><trkpt lat="44.3733623" lon="7.8997706"><ele>460.0</ele><time>2026-05-03T16:22:18.383Z</time></trkpt><trkpt lat="44.3734302" lon="7.8995796"><ele>460.0</ele><time>2026-05-03T16:22:19.383Z</time></trkpt><trkpt lat="44.3734988" lon="7.8993899"><ele>458.0</ele><time>2026-05-03T16:22:20.383Z</time></trkpt><trkpt lat="44.3735654" lon="7.899194"><ele>456.0</ele><time>2026-05-03T16:22:21.384Z</time></trkpt><trkpt lat="44.3736348" lon="7.8989947"><ele>454.0</ele><time>2026-05-03T16:22:22.383Z</time></trkpt><trkpt lat="44.3737057" lon="7.8987948"><ele>454.0</ele><time>2026-05-03T16:22:23.383Z</time></trkpt><trkpt lat="44.3737776" lon="7.898593"><ele>454.0</ele><time>2026-05-03T16:22:24.383Z</time></trkpt><trkpt lat="44.373851" lon="7.8983923"><ele>454.0</ele><time>2026-05-03T16:22:25.384Z</time></trkpt><trkpt lat="44.373924" lon="7.8981843"><ele>457.6666666666667</ele><time>2026-05-03T16:22:26.384Z</time></trkpt><trkpt lat="44.3740001" lon="7.8979731"><ele>461.33333333333337</ele><time>2026-05-03T16:22:27.384Z</time></trkpt><trkpt lat="44.3740791" lon="7.8977613"><ele>465.0</ele><time>2026-05-03T16:22:28.384Z</time></trkpt><trkpt lat="44.3741594" lon="7.8975439"><ele>465.0</ele><time>2026-05-03T16:22:29.383Z</time></trkpt><trkpt lat="44.3742412" lon="7.8973256"><ele>465.0</ele><time>2026-05-03T16:22:30.384Z</time></trkpt><trkpt lat="44.3743254" lon="7.8971001"><ele>465.0</ele><time>2026-05-03T16:22:31.383Z</time></trkpt><trkpt lat="44.3744084" lon="7.896871"><ele>464.0</ele><time>2026-05-03T16:22:32.383Z</time></trkpt><trkpt lat="44.3744918" lon="7.8966435"><ele>463.0</ele><time>2026-05-03T16:22:33.384Z</time></trkpt><trkpt lat="44.3745751" lon="7.8964165"><ele>462.0</ele><time>2026-05-03T16:22:34.383Z</time></trkpt><trkpt lat="44.3746568" lon="7.8961848"><ele>464.66666666666663</ele><time>2026-05-03T16:22:35.384Z</time></trkpt><trkpt lat="44.3747409" lon="7.8959532"><ele>467.3333333333333</ele><time>2026-05-03T16:22:36.383Z</time></trkpt><trkpt lat="44.3748247" lon="7.8957278"><ele>470.0</ele><time>2026-05-03T16:22:37.383Z</time></trkpt><trkpt lat="44.3749123" lon="7.8955029"><ele>470.0</ele><time>2026-05-03T16:22:38.383Z</time></trkpt><trkpt lat="44.3749955" lon="7.8952833"><ele>470.0</ele><time>2026-05-03T16:22:39.383Z</time></trkpt><trkpt lat="44.3750776" lon="7.8950662"><ele>470.0</ele><time>2026-05-03T16:22:40.384Z</time></trkpt><trkpt lat="44.3751569" lon="7.8948467"><ele>469.3333333333333</ele><time>2026-05-03T16:22:41.384Z</time></trkpt><trkpt lat="44.3752217" lon="7.8946243"><ele>468.66666666666663</ele><time>2026-05-03T16:22:42.383Z</time></trkpt><trkpt lat="44.3752666" lon="7.8943887"><ele>468.0</ele><time>2026-05-03T16:22:43.383Z</time></trkpt><trkpt lat="44.3752819" lon="7.8941455"><ele>466.66666666666663</ele><time>2026-05-03T16:22:44.383Z</time></trkpt><trkpt lat="44.3752612" lon="7.8939023"><ele>465.3333333333333</ele><time>2026-05-03T16:22:45.383Z</time></trkpt><trkpt lat="44.3752115" lon="7.8936769"><ele>464.0</ele><time>2026-05-03T16:22:46.383Z</time></trkpt><trkpt lat="44.3751288" lon="7.8934649"><ele>464.66666666666663</ele><time>2026-05-03T16:22:47.384Z</time></trkpt><trkpt lat="44.3750247" lon="7.8932668"><ele>465.33333333333337</ele><time>2026-05-03T16:22:48.383Z</time></trkpt><trkpt lat="44.3749093" lon="7.8930849"><ele>466.0</ele><time>2026-05-03T16:22:49.383Z</time></trkpt><trkpt lat="44.3747881" lon="7.8929065"><ele>465.33333333333337</ele><time>2026-05-03T16:22:50.384Z</time></trkpt><trkpt lat="44.3746679" lon="7.8927297"><ele>464.66666666666663</ele><time>2026-05-03T16:22:51.383Z</time></trkpt><trkpt lat="44.3745494" lon="7.892547"><ele>464.0</ele><time>2026-05-03T16:22:52.384Z</time></trkpt><trkpt lat="44.3744294" lon="7.8923686"><ele>464.0</ele><time>2026-05-03T16:22:53.384Z</time></trkpt><trkpt lat="44.3743079" lon="7.8921907"><ele>464.0</ele><time>2026-05-03T16:22:54.383Z</time></trkpt><trkpt lat="44.374186" lon="7.8920153"><ele>464.0</ele><time>2026-05-03T16:22:55.383Z</time></trkpt><trkpt lat="44.374068" lon="7.8918435"><ele>464.66666666666663</ele><time>2026-05-03T16:22:56.384Z</time></trkpt><trkpt lat="44.3739525" lon="7.8916724"><ele>465.33333333333337</ele><time>2026-05-03T16:22:57.383Z</time></trkpt><trkpt lat="44.3738382" lon="7.891507"><ele>466.0</ele><time>2026-05-03T16:22:58.383Z</time></trkpt><trkpt lat="44.3737311" lon="7.8913554"><ele>466.5</ele><time>2026-05-03T16:22:59.383Z</time></trkpt><trkpt lat="44.3736326" lon="7.8912121"><ele>467.0</ele><time>2026-05-03T16:23:00.383Z</time></trkpt><trkpt lat="44.3735407" lon="7.8910777"><ele>467.5</ele><time>2026-05-03T16:23:01.383Z</time></trkpt><trkpt lat="44.3734503" lon="7.8909385"><ele>468.0</ele><time>2026-05-03T16:23:02.383Z</time></trkpt><trkpt lat="44.3733648" lon="7.8908142"><ele>468.2</ele><time>2026-05-03T16:23:03.383Z</time></trkpt><trkpt lat="44.3732864" lon="7.890705"><ele>468.4</ele><time>2026-05-03T16:23:04.383Z</time></trkpt><trkpt lat="44.3732183" lon="7.8906053"><ele>468.59999999999997</ele><time>2026-05-03T16:23:05.383Z</time></trkpt><trkpt lat="44.3731516" lon="7.8905124"><ele>468.79999999999995</ele><time>2026-05-03T16:23:06.383Z</time></trkpt><trkpt lat="44.3730921" lon="7.8904377"><ele>469.0</ele><time>2026-05-03T16:23:07.384Z</time></trkpt><trkpt lat="44.3730126" lon="7.8903411"><ele>469.0</ele><time>2026-05-03T16:23:09.383Z</time></trkpt><trkpt lat="44.3729442" lon="7.8902546"><ele>469.0</ele><time>2026-05-03T16:23:11.384Z</time></trkpt><trkpt lat="44.3728707" lon="7.8901431"><ele>469.0</ele><time>2026-05-03T16:23:13.383Z</time></trkpt><trkpt lat="44.3727684" lon="7.8900172"><ele>469.0</ele><time>2026-05-03T16:23:15.384Z</time></trkpt><trkpt lat="44.3727038" lon="7.8899537"><ele>469.0</ele><time>2026-05-03T16:23:16.383Z</time></trkpt><trkpt lat="44.3726428" lon="7.8898768"><ele>470.0</ele><time>2026-05-03T16:23:17.384Z</time></trkpt><trkpt lat="44.3725907" lon="7.8897756"><ele>471.0</ele><time>2026-05-03T16:23:18.384Z</time></trkpt><trkpt lat="44.3725429" lon="7.8896646"><ele>472.0</ele><time>2026-05-03T16:23:19.384Z</time></trkpt><trkpt lat="44.372496" lon="7.8895392"><ele>473.0</ele><time>2026-05-03T16:23:20.384Z</time></trkpt><trkpt lat="44.3724473" lon="7.889401"><ele>474.0</ele><time>2026-05-03T16:23:21.383Z</time></trkpt><trkpt lat="44.372399" lon="7.8892541"><ele>473.75</ele><time>2026-05-03T16:23:22.383Z</time></trkpt><trkpt lat="44.3723505" lon="7.8891046"><ele>473.5</ele><time>2026-05-03T16:23:23.384Z</time></trkpt><trkpt lat="44.3722975" lon="7.8889434"><ele>473.25</ele><time>2026-05-03T16:23:24.383Z</time></trkpt><trkpt lat="44.372242" lon="7.8887702"><ele>473.0</ele><time>2026-05-03T16:23:25.383Z</time></trkpt><trkpt lat="44.372184" lon="7.8885839"><ele>473.66666666666663</ele><time>2026-05-03T16:23:26.383Z</time></trkpt><trkpt lat="44.3721236" lon="7.8883931"><ele>474.33333333333337</ele><time>2026-05-03T16:23:27.383Z</time></trkpt><trkpt lat="44.3720617" lon="7.8881966"><ele>475.0</ele><time>2026-05-03T16:23:28.384Z</time></trkpt><trkpt lat="44.3719989" lon="7.8879969"><ele>475.0</ele><time>2026-05-03T16:23:29.383Z</time></trkpt><trkpt lat="44.3719348" lon="7.8877911"><ele>475.0</ele><time>2026-05-03T16:23:30.384Z</time></trkpt><trkpt lat="44.3718711" lon="7.8875867"><ele>475.0</ele><time>2026-05-03T16:23:31.384Z</time></trkpt><trkpt lat="44.3718074" lon="7.8873817"><ele>476.33333333333337</ele><time>2026-05-03T16:23:32.383Z</time></trkpt><trkpt lat="44.371739" lon="7.8871873"><ele>477.66666666666663</ele><time>2026-05-03T16:23:33.384Z</time></trkpt><trkpt lat="44.3716569" lon="7.8870037"><ele>479.0</ele><time>2026-05-03T16:23:34.384Z</time></trkpt><trkpt lat="44.3715591" lon="7.8868249"><ele>478.3333333333333</ele><time>2026-05-03T16:23:35.384Z</time></trkpt><trkpt lat="44.3714432" lon="7.886654"><ele>477.66666666666663</ele><time>2026-05-03T16:23:36.383Z</time></trkpt><trkpt lat="44.3713067" lon="7.8865018"><ele>477.0</ele><time>2026-05-03T16:23:37.384Z</time></trkpt><trkpt lat="44.3711572" lon="7.8863602"><ele>477.0</ele><time>2026-05-03T16:23:38.383Z</time></trkpt><trkpt lat="44.3710059" lon="7.886211"><ele>477.0</ele><time>2026-05-03T16:23:39.383Z</time></trkpt><trkpt lat="44.3708538" lon="7.8860649"><ele>477.0</ele><time>2026-05-03T16:23:40.383Z</time></trkpt><trkpt lat="44.3706956" lon="7.8859121"><ele>479.66666666666663</ele><time>2026-05-03T16:23:41.383Z</time></trkpt><trkpt lat="44.3705423" lon="7.8857583"><ele>482.3333333333333</ele><time>2026-05-03T16:23:42.383Z</time></trkpt><trkpt lat="44.3703899" lon="7.8856078"><ele>485.0</ele><time>2026-05-03T16:23:43.383Z</time></trkpt><trkpt lat="44.3702438" lon="7.8854601"><ele>485.3333333333333</ele><time>2026-05-03T16:23:44.383Z</time></trkpt><trkpt lat="44.3700993" lon="7.8853174"><ele>485.66666666666663</ele><time>2026-05-03T16:23:45.383Z</time></trkpt><trkpt lat="44.3699519" lon="7.8851778"><ele>486.0</ele><time>2026-05-03T16:23:46.383Z</time></trkpt><trkpt lat="44.3698078" lon="7.8850361"><ele>488.0</ele><time>2026-05-03T16:23:47.383Z</time></trkpt><trkpt lat="44.3696654" lon="7.8848933"><ele>490.0</ele><time>2026-05-03T16:23:48.383Z</time></trkpt><trkpt lat="44.3695266" lon="7.8847399"><ele>492.0</ele><time>2026-05-03T16:23:49.384Z</time></trkpt><trkpt lat="44.3693924" lon="7.8845756"><ele>492.0</ele><time>2026-05-03T16:23:50.384Z</time></trkpt><trkpt lat="44.3692654" lon="7.8844066"><ele>492.0</ele><time>2026-05-03T16:23:51.383Z</time></trkpt><trkpt lat="44.3691423" lon="7.8842348"><ele>492.0</ele><time>2026-05-03T16:23:52.383Z</time></trkpt><trkpt lat="44.3690221" lon="7.8840618"><ele>494.0</ele><time>2026-05-03T16:23:53.383Z</time></trkpt><trkpt lat="44.3689051" lon="7.8838943"><ele>496.0</ele><time>2026-05-03T16:23:54.383Z</time></trkpt><trkpt lat="44.3687897" lon="7.8837286"><ele>498.0</ele><time>2026-05-03T16:23:55.384Z</time></trkpt><trkpt lat="44.3686759" lon="7.8835634"><ele>499.0</ele><time>2026-05-03T16:23:56.383Z</time></trkpt><trkpt lat="44.368571" lon="7.8833824"><ele>500.0</ele><time>2026-05-03T16:23:57.383Z</time></trkpt><trkpt lat="44.3684762" lon="7.8831923"><ele>501.0</ele><time>2026-05-03T16:23:58.383Z</time></trkpt><trkpt lat="44.3684019" lon="7.8829867"><ele>501.0</ele><time>2026-05-03T16:23:59.383Z</time></trkpt><trkpt lat="44.368335" lon="7.8827822"><ele>501.0</ele><time>2026-05-03T16:24:00.383Z</time></trkpt><trkpt lat="44.368269" lon="7.8825834"><ele>501.0</ele><time>2026-05-03T16:24:01.383Z</time></trkpt><trkpt lat="44.3682088" lon="7.8823968"><ele>503.25</ele><time>2026-05-03T16:24:02.384Z</time></trkpt><trkpt lat="44.3681522" lon="7.8822196"><ele>505.5</ele><time>2026-05-03T16:24:03.383Z</time></trkpt><trkpt lat="44.3680978" lon="7.8820449"><ele>507.75</ele><time>2026-05-03T16:24:04.383Z</time></trkpt><trkpt lat="44.3680564" lon="7.8818697"><ele>510.0</ele><time>2026-05-03T16:24:05.384Z</time></trkpt><trkpt lat="44.3680303" lon="7.881694"><ele>512.0</ele><time>2026-05-03T16:24:06.383Z</time></trkpt><trkpt lat="44.3680277" lon="7.8815163"><ele>514.0</ele><time>2026-05-03T16:24:07.384Z</time></trkpt><trkpt lat="44.3680555" lon="7.881335"><ele>516.0</ele><time>2026-05-03T16:24:08.384Z</time></trkpt><trkpt lat="44.3681112" lon="7.88116"><ele>518.0</ele><time>2026-05-03T16:24:09.384Z</time></trkpt><trkpt lat="44.3681898" lon="7.8810004"><ele>517.75</ele><time>2026-05-03T16:24:10.383Z</time></trkpt><trkpt lat="44.3682837" lon="7.8808563"><ele>517.5</ele><time>2026-05-03T16:24:11.383Z</time></trkpt><trkpt lat="44.3683797" lon="7.8807157"><ele>517.25</ele><time>2026-05-03T16:24:12.384Z</time></trkpt><trkpt lat="44.3684723" lon="7.8805708"><ele>517.0</ele><time>2026-05-03T16:24:13.384Z</time></trkpt><trkpt lat="44.3685679" lon="7.8804233"><ele>517.0</ele><time>2026-05-03T16:24:14.383Z</time></trkpt><trkpt lat="44.3686607" lon="7.880278"><ele>517.0</ele><time>2026-05-03T16:24:15.383Z</time></trkpt><trkpt lat="44.368747" lon="7.8801497"><ele>517.0</ele><time>2026-05-03T16:24:16.383Z</time></trkpt><trkpt lat="44.3688271" lon="7.880029"><ele>517.0</ele><time>2026-05-03T16:24:17.383Z</time></trkpt><trkpt lat="44.3689063" lon="7.8799112"><ele>519.5</ele><time>2026-05-03T16:24:18.383Z</time></trkpt><trkpt lat="44.368986" lon="7.8797883"><ele>522.0</ele><time>2026-05-03T16:24:19.383Z</time></trkpt><trkpt lat="44.3690594" lon="7.8796542"><ele>524.5</ele><time>2026-05-03T16:24:20.383Z</time></trkpt><trkpt lat="44.3691197" lon="7.8795051"><ele>527.0</ele><time>2026-05-03T16:24:21.384Z</time></trkpt><trkpt lat="44.3691552" lon="7.87934"><ele>525.5</ele><time>2026-05-03T16:24:22.383Z</time></trkpt><trkpt lat="44.3691644" lon="7.8791679"><ele>524.0</ele><time>2026-05-03T16:24:23.384Z</time></trkpt><trkpt lat="44.3691513" lon="7.8789967"><ele>522.5</ele><time>2026-05-03T16:24:24.383Z</time></trkpt><trkpt lat="44.3691097" lon="7.8788335"><ele>521.0</ele><time>2026-05-03T16:24:25.384Z</time></trkpt><trkpt lat="44.3690495" lon="7.8786679"><ele>521.0</ele><time>2026-05-03T16:24:26.383Z</time></trkpt><trkpt lat="44.3689893" lon="7.8784846"><ele>521.0</ele><time>2026-05-03T16:24:27.383Z</time></trkpt><trkpt lat="44.3689259" lon="7.8782915"><ele>521.0</ele><time>2026-05-03T16:24:28.384Z</time></trkpt><trkpt lat="44.3688584" lon="7.8780978"><ele>520.6666666666666</ele><time>2026-05-03T16:24:29.383Z</time></trkpt><trkpt lat="44.3687866" lon="7.8778932"><ele>520.3333333333334</ele><time>2026-05-03T16:24:30.384Z</time></trkpt><trkpt lat="44.3687137" lon="7.8776867"><ele>520.0</ele><time>2026-05-03T16:24:31.384Z</time></trkpt><trkpt lat="44.3686419" lon="7.8774722"><ele>522.3333333333334</ele><time>2026-05-03T16:24:32.384Z</time></trkpt><trkpt lat="44.3685712" lon="7.8772565"><ele>524.6666666666666</ele><time>2026-05-03T16:24:33.383Z</time></trkpt><trkpt lat="44.3684971" lon="7.877038"><ele>527.0</ele><time>2026-05-03T16:24:34.383Z</time></trkpt><trkpt lat="44.3684204" lon="7.8768205"><ele>531.3333333333333</ele><time>2026-05-03T16:24:35.383Z</time></trkpt><trkpt lat="44.3683443" lon="7.8765972"><ele>535.6666666666666</ele><time>2026-05-03T16:24:36.383Z</time></trkpt><trkpt lat="44.3682682" lon="7.8763782"><ele>540.0</ele><time>2026-05-03T16:24:37.383Z</time></trkpt><trkpt lat="44.3681931" lon="7.876156"><ele>545.0</ele><time>2026-05-03T16:24:38.383Z</time></trkpt><trkpt lat="44.3681176" lon="7.8759366"><ele>550.0</ele><time>2026-05-03T16:24:39.383Z</time></trkpt><trkpt lat="44.3680391" lon="7.8757209"><ele>555.0</ele><time>2026-05-03T16:24:40.384Z</time></trkpt><trkpt lat="44.3679707" lon="7.875499"><ele>555.3333333333334</ele><time>2026-05-03T16:24:41.384Z</time></trkpt><trkpt lat="44.3678983" lon="7.8752812"><ele>555.6666666666667</ele><time>2026-05-03T16:24:42.383Z</time></trkpt><trkpt lat="44.3678253" lon="7.8750638"><ele>556.0</ele><time>2026-05-03T16:24:43.383Z</time></trkpt><trkpt lat="44.3674827" lon="7.874048"><ele>553.25</ele><time>2026-05-03T16:24:49.375Z</time></trkpt><trkpt lat="44.3674022" lon="7.8738957"><ele>550.5</ele><time>2026-05-03T16:24:50.391Z</time></trkpt><trkpt lat="44.367328" lon="7.8737267"><ele>547.75</ele><time>2026-05-03T16:24:51.364Z</time></trkpt><trkpt lat="44.3672756" lon="7.8735389"><ele>545.0</ele><time>2026-05-03T16:24:52.379Z</time></trkpt><trkpt lat="44.3672187" lon="7.8733547"><ele>541.75</ele><time>2026-05-03T16:24:53.378Z</time></trkpt><trkpt lat="44.3671574" lon="7.8731779"><ele>538.5</ele><time>2026-05-03T16:24:54.46Z</time></trkpt><trkpt lat="44.3671007" lon="7.8729905"><ele>535.25</ele><time>2026-05-03T16:24:55.389Z</time></trkpt><trkpt lat="44.3670383" lon="7.8728113"><ele>532.0</ele><time>2026-05-03T16:24:56.417Z</time></trkpt><trkpt lat="44.3669757" lon="7.8726219"><ele>531.75</ele><time>2026-05-03T16:24:57.412Z</time></trkpt><trkpt lat="44.3669134" lon="7.87244"><ele>531.5</ele><time>2026-05-03T16:24:58.409Z</time></trkpt><trkpt lat="44.3668553" lon="7.8722656"><ele>531.25</ele><time>2026-05-03T16:24:59.402Z</time></trkpt><trkpt lat="44.3667976" lon="7.8720995"><ele>531.0</ele><time>2026-05-03T16:25:00.419Z</time></trkpt><trkpt lat="44.3667392" lon="7.8719281"><ele>530.5</ele><time>2026-05-03T16:25:01.398Z</time></trkpt><trkpt lat="44.3666774" lon="7.8717544"><ele>530.0</ele><time>2026-05-03T16:25:02.411Z</time></trkpt><trkpt lat="44.3666176" lon="7.871574"><ele>529.5</ele><time>2026-05-03T16:25:03.429Z</time></trkpt><trkpt lat="44.3665562" lon="7.8713947"><ele>529.0</ele><time>2026-05-03T16:25:04.388Z</time></trkpt><trkpt lat="44.36649" lon="7.8712145"><ele>529.0</ele><time>2026-05-03T16:25:05.42Z</time></trkpt><trkpt lat="44.3664301" lon="7.8710338"><ele>529.0</ele><time>2026-05-03T16:25:06.404Z</time></trkpt><trkpt lat="44.3663677" lon="7.8708602"><ele>529.0</ele><time>2026-05-03T16:25:07.409Z</time></trkpt><trkpt lat="44.3663054" lon="7.8706869"><ele>529.0</ele><time>2026-05-03T16:25:08.406Z</time></trkpt><trkpt lat="44.366246" lon="7.8705101"><ele>527.0</ele><time>2026-05-03T16:25:09.406Z</time></trkpt><trkpt lat="44.3661887" lon="7.8703466"><ele>525.0</ele><time>2026-05-03T16:25:10.401Z</time></trkpt><trkpt lat="44.3661274" lon="7.8701927"><ele>523.0</ele><time>2026-05-03T16:25:11.421Z</time></trkpt><trkpt lat="44.3660685" lon="7.8700503"><ele>521.0</ele><time>2026-05-03T16:25:12.404Z</time></trkpt><trkpt lat="44.3660053" lon="7.8699171"><ele>520.6666666666666</ele><time>2026-05-03T16:25:13.41Z</time></trkpt><trkpt lat="44.3659509" lon="7.8698037"><ele>520.3333333333333</ele><time>2026-05-03T16:25:14.409Z</time></trkpt><trkpt lat="44.3659053" lon="7.8696967"><ele>520.0</ele><time>2026-05-03T16:25:15.406Z</time></trkpt><trkpt lat="44.3658809" lon="7.8695806"><ele>519.6666666666666</ele><time>2026-05-03T16:25:16.409Z</time></trkpt><trkpt lat="44.3658604" lon="7.8694689"><ele>519.3333333333334</ele><time>2026-05-03T16:25:17.404Z</time></trkpt><trkpt lat="44.3658167" lon="7.8693722"><ele>519.0</ele><time>2026-05-03T16:25:18.394Z</time></trkpt><trkpt lat="44.3657541" lon="7.8693022"><ele>519.0</ele><time>2026-05-03T16:25:19.411Z</time></trkpt><trkpt lat="44.3656796" lon="7.8692806"><ele>519.0</ele><time>2026-05-03T16:25:20.409Z</time></trkpt><trkpt lat="44.3656085" lon="7.8692961"><ele>519.0</ele><time>2026-05-03T16:25:21.413Z</time></trkpt><trkpt lat="44.3655407" lon="7.8693329"><ele>519.0</ele><time>2026-05-03T16:25:22.411Z</time></trkpt><trkpt lat="44.3654604" lon="7.86935"><ele>519.0</ele><time>2026-05-03T16:25:23.411Z</time></trkpt><trkpt lat="44.3653771" lon="7.8693287"><ele>519.0</ele><time>2026-05-03T16:25:24.402Z</time></trkpt><trkpt lat="44.3652896" lon="7.8692881"><ele>519.75</ele><time>2026-05-03T16:25:25.408Z</time></trkpt><trkpt lat="44.3651898" lon="7.8692268"><ele>520.5</ele><time>2026-05-03T16:25:26.413Z</time></trkpt><trkpt lat="44.3650867" lon="7.8691569"><ele>521.25</ele><time>2026-05-03T16:25:27.389Z</time></trkpt><trkpt lat="44.3649851" lon="7.8690784"><ele>522.0</ele><time>2026-05-03T16:25:28.413Z</time></trkpt><trkpt lat="44.3648754" lon="7.8689784"><ele>522.0</ele><time>2026-05-03T16:25:29.402Z</time></trkpt><trkpt lat="44.3647638" lon="7.8688652"><ele>522.0</ele><time>2026-05-03T16:25:30.428Z</time></trkpt><trkpt lat="44.364647" lon="7.8687558"><ele>522.0</ele><time>2026-05-03T16:25:31.409Z</time></trkpt><trkpt lat="44.3645292" lon="7.86864"><ele>522.0</ele><time>2026-05-03T16:25:32.417Z</time></trkpt><trkpt lat="44.3644099" lon="7.8685223"><ele>521.75</ele><time>2026-05-03T16:25:33.421Z</time></trkpt><trkpt lat="44.3642934" lon="7.8683999"><ele>521.5</ele><time>2026-05-03T16:25:34.394Z</time></trkpt><trkpt lat="44.3641725" lon="7.8682752"><ele>521.25</ele><time>2026-05-03T16:25:35.42Z</time></trkpt><trkpt lat="44.3640549" lon="7.8681476"><ele>521.0</ele><time>2026-05-03T16:25:36.404Z</time></trkpt><trkpt lat="44.363931" lon="7.868022"><ele>522.0</ele><time>2026-05-03T16:25:37.41Z</time></trkpt><trkpt lat="44.3638044" lon="7.8678968"><ele>523.0</ele><time>2026-05-03T16:25:38.395Z</time></trkpt><trkpt lat="44.363678" lon="7.8677719"><ele>524.0</ele><time>2026-05-03T16:25:39.404Z</time></trkpt><trkpt lat="44.3635488" lon="7.8676439"><ele>522.0</ele><time>2026-05-03T16:25:40.408Z</time></trkpt><trkpt lat="44.3634254" lon="7.8675081"><ele>520.0</ele><time>2026-05-03T16:25:41.423Z</time></trkpt><trkpt lat="44.3633016" lon="7.8673608"><ele>518.0</ele><time>2026-05-03T16:25:42.413Z</time></trkpt><trkpt lat="44.3631832" lon="7.8672026"><ele>518.0</ele><time>2026-05-03T16:25:43.417Z</time></trkpt><trkpt lat="44.3630691" lon="7.8670332"><ele>518.0</ele><time>2026-05-03T16:25:44.417Z</time></trkpt><trkpt lat="44.3629652" lon="7.8668545"><ele>518.0</ele><time>2026-05-03T16:25:45.407Z</time></trkpt><trkpt lat="44.3628756" lon="7.8666641"><ele>518.0</ele><time>2026-05-03T16:25:46.411Z</time></trkpt><trkpt lat="44.3627988" lon="7.8664595"><ele>518.0</ele><time>2026-05-03T16:25:47.429Z</time></trkpt><trkpt lat="44.3627258" lon="7.8662489"><ele>518.0</ele><time>2026-05-03T16:25:48.398Z</time></trkpt><trkpt lat="44.3626589" lon="7.8660369"><ele>518.6666666666666</ele><time>2026-05-03T16:25:49.412Z</time></trkpt><trkpt lat="44.3625966" lon="7.8658219"><ele>519.3333333333334</ele><time>2026-05-03T16:25:50.425Z</time></trkpt><trkpt lat="44.3625357" lon="7.8656037"><ele>520.0</ele><time>2026-05-03T16:25:51.423Z</time></trkpt><trkpt lat="44.3624769" lon="7.865384"><ele>520.0</ele><time>2026-05-03T16:25:52.417Z</time></trkpt><trkpt lat="44.362416" lon="7.865166"><ele>520.0</ele><time>2026-05-03T16:25:53.409Z</time></trkpt><trkpt lat="44.3623571" lon="7.8649453"><ele>520.0</ele><time>2026-05-03T16:25:54.405Z</time></trkpt><trkpt lat="44.3622956" lon="7.8647252"><ele>520.3333333333334</ele><time>2026-05-03T16:25:55.403Z</time></trkpt><trkpt lat="44.3622342" lon="7.8645015"><ele>520.6666666666666</ele><time>2026-05-03T16:25:56.408Z</time></trkpt><trkpt lat="44.3621724" lon="7.8642768"><ele>521.0</ele><time>2026-05-03T16:25:57.408Z</time></trkpt><trkpt lat="44.3621168" lon="7.864054"><ele>522.3333333333333</ele><time>2026-05-03T16:25:58.404Z</time></trkpt><trkpt lat="44.3620715" lon="7.8638375"><ele>523.6666666666666</ele><time>2026-05-03T16:25:59.397Z</time></trkpt><trkpt lat="44.3620337" lon="7.8636234"><ele>525.0</ele><time>2026-05-03T16:26:00.407Z</time></trkpt><trkpt lat="44.362005" lon="7.8634143"><ele>525.0</ele><time>2026-05-03T16:26:01.413Z</time></trkpt><trkpt lat="44.3619823" lon="7.8632176"><ele>525.0</ele><time>2026-05-03T16:26:02.405Z</time></trkpt><trkpt lat="44.3619585" lon="7.8630282"><ele>525.0</ele><time>2026-05-03T16:26:03.408Z</time></trkpt><trkpt lat="44.3619367" lon="7.8628432"><ele>525.0</ele><time>2026-05-03T16:26:04.416Z</time></trkpt><trkpt lat="44.3619124" lon="7.8626668"><ele>522.25</ele><time>2026-05-03T16:26:05.401Z</time></trkpt><trkpt lat="44.3618898" lon="7.8624906"><ele>519.5</ele><time>2026-05-03T16:26:06.416Z</time></trkpt><trkpt lat="44.3618588" lon="7.8623136"><ele>516.75</ele><time>2026-05-03T16:26:07.408Z</time></trkpt><trkpt lat="44.36182" lon="7.8621421"><ele>514.0</ele><time>2026-05-03T16:26:08.408Z</time></trkpt><trkpt lat="44.3617697" lon="7.8619846"><ele>514.0</ele><time>2026-05-03T16:26:09.4Z</time></trkpt><trkpt lat="44.3617201" lon="7.8618449"><ele>514.0</ele><time>2026-05-03T16:26:10.407Z</time></trkpt><trkpt lat="44.3616791" lon="7.861722"><ele>514.0</ele><time>2026-05-03T16:26:11.414Z</time></trkpt><trkpt lat="44.3616437" lon="7.8616008"><ele>514.0</ele><time>2026-05-03T16:26:12.4Z</time></trkpt><trkpt lat="44.3616353" lon="7.8614769"><ele>514.0</ele><time>2026-05-03T16:26:13.418Z</time></trkpt><trkpt lat="44.3616601" lon="7.8613604"><ele>513.3333333333334</ele><time>2026-05-03T16:26:14.397Z</time></trkpt><trkpt lat="44.3616984" lon="7.8612616"><ele>512.6666666666667</ele><time>2026-05-03T16:26:15.409Z</time></trkpt><trkpt lat="44.3617209" lon="7.8611516"><ele>512.0</ele><time>2026-05-03T16:26:16.396Z</time></trkpt><trkpt lat="44.3617161" lon="7.8610433"><ele>511.33333333333337</ele><time>2026-05-03T16:26:17.409Z</time></trkpt><trkpt lat="44.3616805" lon="7.8609464"><ele>510.6666666666667</ele><time>2026-05-03T16:26:18.397Z</time></trkpt><trkpt lat="44.3616291" lon="7.860867"><ele>510.0</ele><time>2026-05-03T16:26:19.404Z</time></trkpt><trkpt lat="44.3615649" lon="7.860786"><ele>510.0</ele><time>2026-05-03T16:26:20.398Z</time></trkpt><trkpt lat="44.3615039" lon="7.8606781"><ele>510.0</ele><time>2026-05-03T16:26:21.417Z</time></trkpt><trkpt lat="44.3614515" lon="7.860547"><ele>510.0</ele><time>2026-05-03T16:26:22.4Z</time></trkpt><trkpt lat="44.3614005" lon="7.8604073"><ele>510.0</ele><time>2026-05-03T16:26:23.406Z</time></trkpt><trkpt lat="44.3613498" lon="7.8602511"><ele>510.0</ele><time>2026-05-03T16:26:24.396Z</time></trkpt><trkpt lat="44.3612957" lon="7.8600894"><ele>509.0</ele><time>2026-05-03T16:26:25.418Z</time></trkpt><trkpt lat="44.3612404" lon="7.8599244"><ele>508.0</ele><time>2026-05-03T16:26:26.39Z</time></trkpt><trkpt lat="44.3611882" lon="7.8597567"><ele>507.0</ele><time>2026-05-03T16:26:27.396Z</time></trkpt><trkpt lat="44.3611364" lon="7.8595788"><ele>506.0</ele><time>2026-05-03T16:26:28.41Z</time></trkpt><trkpt lat="44.361086" lon="7.859401"><ele>506.0</ele><time>2026-05-03T16:26:29.411Z</time></trkpt><trkpt lat="44.3610339" lon="7.859221"><ele>506.0</ele><time>2026-05-03T16:26:30.404Z</time></trkpt><trkpt lat="44.3609787" lon="7.8590404"><ele>506.0</ele><time>2026-05-03T16:26:31.415Z</time></trkpt><trkpt lat="44.360921" lon="7.8588609"><ele>506.0</ele><time>2026-05-03T16:26:32.4Z</time></trkpt><trkpt lat="44.3608692" lon="7.8586802"><ele>506.0</ele><time>2026-05-03T16:26:33.409Z</time></trkpt><trkpt lat="44.3608169" lon="7.8585036"><ele>506.0</ele><time>2026-05-03T16:26:34.409Z</time></trkpt><trkpt lat="44.3607702" lon="7.8583272"><ele>506.0</ele><time>2026-05-03T16:26:35.42Z</time></trkpt><trkpt lat="44.3607182" lon="7.8581499"><ele>506.0</ele><time>2026-05-03T16:26:36.41Z</time></trkpt><trkpt lat="44.3606651" lon="7.8579762"><ele>506.0</ele><time>2026-05-03T16:26:37.411Z</time></trkpt><trkpt lat="44.3606146" lon="7.8578023"><ele>506.0</ele><time>2026-05-03T16:26:38.405Z</time></trkpt><trkpt lat="44.3605644" lon="7.8576265"><ele>506.0</ele><time>2026-05-03T16:26:39.409Z</time></trkpt><trkpt lat="44.3605152" lon="7.8574488"><ele>506.0</ele><time>2026-05-03T16:26:40.406Z</time></trkpt><trkpt lat="44.3604661" lon="7.8572664"><ele>505.5</ele><time>2026-05-03T16:26:41.404Z</time></trkpt><trkpt lat="44.3604143" lon="7.8570851"><ele>505.0</ele><time>2026-05-03T16:26:42.414Z</time></trkpt><trkpt lat="44.3603595" lon="7.8568994"><ele>504.5</ele><time>2026-05-03T16:26:43.413Z</time></trkpt><trkpt lat="44.3603064" lon="7.8567065"><ele>504.0</ele><time>2026-05-03T16:26:44.401Z</time></trkpt><trkpt lat="44.3602509" lon="7.8565129"><ele>503.66666666666663</ele><time>2026-05-03T16:26:45.416Z</time></trkpt><trkpt lat="44.3601952" lon="7.8563139"><ele>503.3333333333333</ele><time>2026-05-03T16:26:46.408Z</time></trkpt><trkpt lat="44.3601358" lon="7.8561221"><ele>503.0</ele><time>2026-05-03T16:26:47.424Z</time></trkpt><trkpt lat="44.3600768" lon="7.855933"><ele>502.5</ele><time>2026-05-03T16:26:48.419Z</time></trkpt><trkpt lat="44.3600272" lon="7.8557382"><ele>502.0</ele><time>2026-05-03T16:26:49.402Z</time></trkpt><trkpt lat="44.3599776" lon="7.8555456"><ele>501.5</ele><time>2026-05-03T16:26:50.403Z</time></trkpt><trkpt lat="44.3599219" lon="7.8553579"><ele>501.0</ele><time>2026-05-03T16:26:51.414Z</time></trkpt><trkpt lat="44.359868" lon="7.8551774"><ele>501.25</ele><time>2026-05-03T16:26:52.406Z</time></trkpt><trkpt lat="44.3598115" lon="7.8549986"><ele>501.5</ele><time>2026-05-03T16:26:53.415Z</time></trkpt><trkpt lat="44.359758" lon="7.8548214"><ele>501.75</ele><time>2026-05-03T16:26:54.416Z</time></trkpt><trkpt lat="44.3597063" lon="7.8546363"><ele>502.0</ele><time>2026-05-03T16:26:55.425Z</time></trkpt><trkpt lat="44.3596514" lon="7.8544576"><ele>501.25</ele><time>2026-05-03T16:26:56.42Z</time></trkpt><trkpt lat="44.3596013" lon="7.8542801"><ele>500.5</ele><time>2026-05-03T16:26:57.418Z</time></trkpt><trkpt lat="44.3595512" lon="7.8541115"><ele>499.75</ele><time>2026-05-03T16:26:58.414Z</time></trkpt><trkpt lat="44.3595014" lon="7.8539371"><ele>499.0</ele><time>2026-05-03T16:26:59.4Z</time></trkpt><trkpt lat="44.3594495" lon="7.8537639"><ele>499.0</ele><time>2026-05-03T16:27:00.404Z</time></trkpt><trkpt lat="44.3594005" lon="7.8535831"><ele>499.0</ele><time>2026-05-03T16:27:01.415Z</time></trkpt><trkpt lat="44.3593519" lon="7.8534013"><ele>499.0</ele><time>2026-05-03T16:27:02.401Z</time></trkpt><trkpt lat="44.3593022" lon="7.8532173"><ele>499.0</ele><time>2026-05-03T16:27:03.417Z</time></trkpt><trkpt lat="44.3592506" lon="7.8530326"><ele>498.75</ele><time>2026-05-03T16:27:04.406Z</time></trkpt><trkpt lat="44.3591956" lon="7.8528452"><ele>498.5</ele><time>2026-05-03T16:27:05.414Z</time></trkpt><trkpt lat="44.3591444" lon="7.8526586"><ele>498.25</ele><time>2026-05-03T16:27:06.404Z</time></trkpt><trkpt lat="44.3590931" lon="7.8524631"><ele>498.0</ele><time>2026-05-03T16:27:07.413Z</time></trkpt><trkpt lat="44.3590387" lon="7.8522733"><ele>498.75</ele><time>2026-05-03T16:27:08.407Z</time></trkpt><trkpt lat="44.3589847" lon="7.8520846"><ele>499.5</ele><time>2026-05-03T16:27:09.411Z</time></trkpt><trkpt lat="44.3589265" lon="7.8518944"><ele>500.25</ele><time>2026-05-03T16:27:10.409Z</time></trkpt><trkpt lat="44.3588724" lon="7.8516997"><ele>501.0</ele><time>2026-05-03T16:27:11.407Z</time></trkpt><trkpt lat="44.3588157" lon="7.8515041"><ele>498.66666666666663</ele><time>2026-05-03T16:27:12.418Z</time></trkpt><trkpt lat="44.3587573" lon="7.851304"><ele>496.3333333333333</ele><time>2026-05-03T16:27:13.405Z</time></trkpt><trkpt lat="44.3586987" lon="7.8511006"><ele>494.0</ele><time>2026-05-03T16:27:14.417Z</time></trkpt><trkpt lat="44.3586389" lon="7.8509012"><ele>494.0</ele><time>2026-05-03T16:27:15.406Z</time></trkpt><trkpt lat="44.3585785" lon="7.8506941"><ele>494.0</ele><time>2026-05-03T16:27:16.417Z</time></trkpt><trkpt lat="44.3585162" lon="7.8504862"><ele>494.0</ele><time>2026-05-03T16:27:17.413Z</time></trkpt><trkpt lat="44.3584541" lon="7.8502686"><ele>494.0</ele><time>2026-05-03T16:27:18.403Z</time></trkpt><trkpt lat="44.3583931" lon="7.8500489"><ele>494.0</ele><time>2026-05-03T16:27:19.415Z</time></trkpt><trkpt lat="44.3583319" lon="7.8498275"><ele>494.0</ele><time>2026-05-03T16:27:20.415Z</time></trkpt><trkpt lat="44.3582684" lon="7.8496082"><ele>494.0</ele><time>2026-05-03T16:27:21.419Z</time></trkpt><trkpt lat="44.3582072" lon="7.8493846"><ele>494.0</ele><time>2026-05-03T16:27:22.401Z</time></trkpt><trkpt lat="44.3581461" lon="7.8491606"><ele>494.0</ele><time>2026-05-03T16:27:23.413Z</time></trkpt><trkpt lat="44.3580845" lon="7.8489379"><ele>494.0</ele><time>2026-05-03T16:27:24.41Z</time></trkpt><trkpt lat="44.3580218" lon="7.8487154"><ele>494.0</ele><time>2026-05-03T16:27:25.4Z</time></trkpt><trkpt lat="44.3579573" lon="7.8484961"><ele>494.0</ele><time>2026-05-03T16:27:26.42Z</time></trkpt><trkpt lat="44.3578937" lon="7.8482776"><ele>492.3333333333333</ele><time>2026-05-03T16:27:27.412Z</time></trkpt><trkpt lat="44.3578304" lon="7.84807"><ele>490.66666666666663</ele><time>2026-05-03T16:27:28.418Z</time></trkpt><trkpt lat="44.3577733" lon="7.8478661"><ele>489.0</ele><time>2026-05-03T16:27:29.404Z</time></trkpt><trkpt lat="44.3577166" lon="7.8476716"><ele>489.33333333333337</ele><time>2026-05-03T16:27:30.417Z</time></trkpt><trkpt lat="44.357661" lon="7.8474734"><ele>489.6666666666667</ele><time>2026-05-03T16:27:31.42Z</time></trkpt><trkpt lat="44.3576051" lon="7.8472759"><ele>490.0</ele><time>2026-05-03T16:27:32.413Z</time></trkpt><trkpt lat="44.3575459" lon="7.8470766"><ele>490.0</ele><time>2026-05-03T16:27:33.407Z</time></trkpt><trkpt lat="44.3574887" lon="7.846875"><ele>490.0</ele><time>2026-05-03T16:27:34.411Z</time></trkpt><trkpt lat="44.3574287" lon="7.8466718"><ele>490.0</ele><time>2026-05-03T16:27:35.397Z</time></trkpt><trkpt lat="44.357368" lon="7.8464633"><ele>490.33333333333337</ele><time>2026-05-03T16:27:36.402Z</time></trkpt><trkpt lat="44.3573071" lon="7.8462519"><ele>490.66666666666663</ele><time>2026-05-03T16:27:37.414Z</time></trkpt><trkpt lat="44.3572442" lon="7.8460371"><ele>491.0</ele><time>2026-05-03T16:27:38.396Z</time></trkpt><trkpt lat="44.3571834" lon="7.8458158"><ele>489.66666666666663</ele><time>2026-05-03T16:27:39.412Z</time></trkpt><trkpt lat="44.3571168" lon="7.8455948"><ele>488.33333333333337</ele><time>2026-05-03T16:27:40.404Z</time></trkpt><trkpt lat="44.357051" lon="7.8453738"><ele>487.0</ele><time>2026-05-03T16:27:41.405Z</time></trkpt><trkpt lat="44.3569845" lon="7.8451551"><ele>487.6666666666667</ele><time>2026-05-03T16:27:42.421Z</time></trkpt><trkpt lat="44.3569216" lon="7.8449359"><ele>488.33333333333337</ele><time>2026-05-03T16:27:43.399Z</time></trkpt><trkpt lat="44.3568584" lon="7.8447184"><ele>489.0</ele><time>2026-05-03T16:27:44.412Z</time></trkpt><trkpt lat="44.3567961" lon="7.8444999"><ele>489.66666666666663</ele><time>2026-05-03T16:27:45.402Z</time></trkpt><trkpt lat="44.3567335" lon="7.8442825"><ele>490.3333333333333</ele><time>2026-05-03T16:27:46.42Z</time></trkpt><trkpt lat="44.3566709" lon="7.8440677"><ele>491.0</ele><time>2026-05-03T16:27:47.416Z</time></trkpt><trkpt lat="44.3566072" lon="7.8438504"><ele>491.0</ele><time>2026-05-03T16:27:48.405Z</time></trkpt><trkpt lat="44.3565465" lon="7.843632"><ele>491.0</ele><time>2026-05-03T16:27:49.421Z</time></trkpt><trkpt lat="44.3564876" lon="7.8434122"><ele>491.0</ele><time>2026-05-03T16:27:50.409Z</time></trkpt><trkpt lat="44.3564331" lon="7.8431872"><ele>491.0</ele><time>2026-05-03T16:27:51.41Z</time></trkpt><trkpt lat="44.3563872" lon="7.8429599"><ele>491.0</ele><time>2026-05-03T16:27:52.41Z</time></trkpt><trkpt lat="44.3563588" lon="7.8427254"><ele>491.0</ele><time>2026-05-03T16:27:53.404Z</time></trkpt><trkpt lat="44.3563516" lon="7.842492"><ele>490.66666666666663</ele><time>2026-05-03T16:27:54.409Z</time></trkpt><trkpt lat="44.3563667" lon="7.8422551"><ele>490.33333333333337</ele><time>2026-05-03T16:27:55.405Z</time></trkpt><trkpt lat="44.3563991" lon="7.8420182"><ele>490.0</ele><time>2026-05-03T16:27:56.422Z</time></trkpt><trkpt lat="44.3564491" lon="7.8417888"><ele>489.0</ele><time>2026-05-03T16:27:57.405Z</time></trkpt><trkpt lat="44.3565137" lon="7.8415639"><ele>488.0</ele><time>2026-05-03T16:27:58.42Z</time></trkpt><trkpt lat="44.3565844" lon="7.8413442"><ele>487.0</ele><time>2026-05-03T16:27:59.408Z</time></trkpt><trkpt lat="44.3566561" lon="7.8411253"><ele>484.6666666666667</ele><time>2026-05-03T16:28:00.418Z</time></trkpt><trkpt lat="44.3567298" lon="7.8408974"><ele>482.33333333333337</ele><time>2026-05-03T16:28:01.419Z</time></trkpt><trkpt lat="44.3568038" lon="7.8406751"><ele>480.0</ele><time>2026-05-03T16:28:02.413Z</time></trkpt><trkpt lat="44.3568808" lon="7.8404511"><ele>480.0</ele><time>2026-05-03T16:28:03.415Z</time></trkpt><trkpt lat="44.3569563" lon="7.8402264"><ele>480.0</ele><time>2026-05-03T16:28:04.405Z</time></trkpt><trkpt lat="44.3570287" lon="7.8400013"><ele>480.0</ele><time>2026-05-03T16:28:05.397Z</time></trkpt><trkpt lat="44.3571051" lon="7.8397738"><ele>479.66666666666663</ele><time>2026-05-03T16:28:06.416Z</time></trkpt><trkpt lat="44.3571821" lon="7.8395482"><ele>479.3333333333333</ele><time>2026-05-03T16:28:07.402Z</time></trkpt><trkpt lat="44.3572552" lon="7.8393212"><ele>479.0</ele><time>2026-05-03T16:28:08.41Z</time></trkpt><trkpt lat="44.3573285" lon="7.8390959"><ele>479.0</ele><time>2026-05-03T16:28:09.417Z</time></trkpt><trkpt lat="44.3574023" lon="7.838871"><ele>479.0</ele><time>2026-05-03T16:28:10.419Z</time></trkpt><trkpt lat="44.3574769" lon="7.8386461"><ele>479.0</ele><time>2026-05-03T16:28:11.398Z</time></trkpt><trkpt lat="44.3575489" lon="7.8384231"><ele>478.3333333333333</ele><time>2026-05-03T16:28:12.411Z</time></trkpt><trkpt lat="44.3576212" lon="7.8382023"><ele>477.66666666666663</ele><time>2026-05-03T16:28:13.405Z</time></trkpt><trkpt lat="44.357691" lon="7.837984"><ele>477.0</ele><time>2026-05-03T16:28:14.412Z</time></trkpt><trkpt lat="44.3577635" lon="7.8377686"><ele>475.33333333333337</ele><time>2026-05-03T16:28:15.419Z</time></trkpt><trkpt lat="44.3578324" lon="7.8375519"><ele>473.6666666666667</ele><time>2026-05-03T16:28:16.41Z</time></trkpt><trkpt lat="44.3579058" lon="7.837333"><ele>472.0</ele><time>2026-05-03T16:28:17.417Z</time></trkpt><trkpt lat="44.3579796" lon="7.8371125"><ele>472.0</ele><time>2026-05-03T16:28:18.407Z</time></trkpt><trkpt lat="44.3580499" lon="7.8368934"><ele>472.0</ele><time>2026-05-03T16:28:19.414Z</time></trkpt><trkpt lat="44.3581192" lon="7.8366783"><ele>472.0</ele><time>2026-05-03T16:28:20.405Z</time></trkpt><trkpt lat="44.3581872" lon="7.8364698"><ele>471.33333333333337</ele><time>2026-05-03T16:28:21.413Z</time></trkpt><trkpt lat="44.3582531" lon="7.8362607"><ele>470.66666666666663</ele><time>2026-05-03T16:28:22.412Z</time></trkpt><trkpt lat="44.3583188" lon="7.836056"><ele>470.0</ele><time>2026-05-03T16:28:23.403Z</time></trkpt><trkpt lat="44.3583841" lon="7.835855"><ele>470.0</ele><time>2026-05-03T16:28:24.406Z</time></trkpt><trkpt lat="44.3584505" lon="7.8356559"><ele>470.0</ele><time>2026-05-03T16:28:25.414Z</time></trkpt><trkpt lat="44.3585148" lon="7.8354624"><ele>470.0</ele><time>2026-05-03T16:28:26.418Z</time></trkpt><trkpt lat="44.3585921" lon="7.8352829"><ele>471.0</ele><time>2026-05-03T16:28:27.411Z</time></trkpt><trkpt lat="44.358689" lon="7.8351297"><ele>472.0</ele><time>2026-05-03T16:28:28.402Z</time></trkpt><trkpt lat="44.3588019" lon="7.8350095"><ele>473.0</ele><time>2026-05-03T16:28:29.405Z</time></trkpt><trkpt lat="44.3589282" lon="7.8349222"><ele>474.0</ele><time>2026-05-03T16:28:30.409Z</time></trkpt><trkpt lat="44.3590614" lon="7.834851"><ele>474.0</ele><time>2026-05-03T16:28:31.413Z</time></trkpt><trkpt lat="44.3591954" lon="7.8347901"><ele>474.0</ele><time>2026-05-03T16:28:32.423Z</time></trkpt><trkpt lat="44.3593335" lon="7.8347278"><ele>474.0</ele><time>2026-05-03T16:28:33.397Z</time></trkpt><trkpt lat="44.3594789" lon="7.8346639"><ele>474.0</ele><time>2026-05-03T16:28:34.413Z</time></trkpt><trkpt lat="44.3596258" lon="7.8345983"><ele>472.66666666666663</ele><time>2026-05-03T16:28:35.409Z</time></trkpt><trkpt lat="44.3597757" lon="7.8345315"><ele>471.3333333333333</ele><time>2026-05-03T16:28:36.406Z</time></trkpt><trkpt lat="44.3599188" lon="7.8344607"><ele>470.0</ele><time>2026-05-03T16:28:37.407Z</time></trkpt><trkpt lat="44.3600639" lon="7.8344011"><ele>470.0</ele><time>2026-05-03T16:28:38.417Z</time></trkpt><trkpt lat="44.3602067" lon="7.8343409"><ele>470.0</ele><time>2026-05-03T16:28:39.401Z</time></trkpt><trkpt lat="44.36035" lon="7.8342828"><ele>470.0</ele><time>2026-05-03T16:28:40.412Z</time></trkpt><trkpt lat="44.3604939" lon="7.8342235"><ele>470.0</ele><time>2026-05-03T16:28:41.415Z</time></trkpt><trkpt lat="44.3606411" lon="7.8341615"><ele>471.0</ele><time>2026-05-03T16:28:42.403Z</time></trkpt><trkpt lat="44.3607909" lon="7.8340975"><ele>472.0</ele><time>2026-05-03T16:28:43.416Z</time></trkpt><trkpt lat="44.3609396" lon="7.8340316"><ele>473.0</ele><time>2026-05-03T16:28:44.414Z</time></trkpt><trkpt lat="44.3610913" lon="7.8339641"><ele>473.0</ele><time>2026-05-03T16:28:45.412Z</time></trkpt><trkpt lat="44.3612392" lon="7.833898"><ele>473.0</ele><time>2026-05-03T16:28:46.406Z</time></trkpt><trkpt lat="44.3613908" lon="7.8338277"><ele>473.0</ele><time>2026-05-03T16:28:47.389Z</time></trkpt><trkpt lat="44.3615416" lon="7.8337592"><ele>471.3333333333333</ele><time>2026-05-03T16:28:48.418Z</time></trkpt><trkpt lat="44.3616948" lon="7.8336903"><ele>469.66666666666663</ele><time>2026-05-03T16:28:49.41Z</time></trkpt><trkpt lat="44.3618508" lon="7.8336231"><ele>468.0</ele><time>2026-05-03T16:28:50.414Z</time></trkpt><trkpt lat="44.3620039" lon="7.8335528"><ele>468.0</ele><time>2026-05-03T16:28:51.413Z</time></trkpt><trkpt lat="44.3621548" lon="7.8334852"><ele>468.0</ele><time>2026-05-03T16:28:52.409Z</time></trkpt><trkpt lat="44.3623062" lon="7.8334176"><ele>468.0</ele><time>2026-05-03T16:28:53.402Z</time></trkpt><trkpt lat="44.3624579" lon="7.8333486"><ele>468.33333333333337</ele><time>2026-05-03T16:28:54.405Z</time></trkpt><trkpt lat="44.3626147" lon="7.8332778"><ele>468.6666666666667</ele><time>2026-05-03T16:28:55.407Z</time></trkpt><trkpt lat="44.3627769" lon="7.8332045"><ele>469.0</ele><time>2026-05-03T16:28:56.414Z</time></trkpt><trkpt lat="44.3629417" lon="7.833133"><ele>468.33333333333337</ele><time>2026-05-03T16:28:57.412Z</time></trkpt><trkpt lat="44.3631115" lon="7.8330581"><ele>467.66666666666663</ele><time>2026-05-03T16:28:58.416Z</time></trkpt><trkpt lat="44.3632846" lon="7.8329798"><ele>467.0</ele><time>2026-05-03T16:28:59.418Z</time></trkpt><trkpt lat="44.363461" lon="7.832903"><ele>467.0</ele><time>2026-05-03T16:29:00.408Z</time></trkpt><trkpt lat="44.3636415" lon="7.8328264"><ele>467.0</ele><time>2026-05-03T16:29:01.414Z</time></trkpt><trkpt lat="44.3638234" lon="7.8327541"><ele>467.0</ele><time>2026-05-03T16:29:02.412Z</time></trkpt><trkpt lat="44.3640056" lon="7.832684"><ele>466.66666666666663</ele><time>2026-05-03T16:29:03.407Z</time></trkpt><trkpt lat="44.3641887" lon="7.8326204"><ele>466.33333333333337</ele><time>2026-05-03T16:29:04.411Z</time></trkpt><trkpt lat="44.3643765" lon="7.8325618"><ele>466.0</ele><time>2026-05-03T16:29:05.412Z</time></trkpt><trkpt lat="44.3645655" lon="7.8325016"><ele>466.0</ele><time>2026-05-03T16:29:06.411Z</time></trkpt><trkpt lat="44.364753" lon="7.8324399"><ele>466.0</ele><time>2026-05-03T16:29:07.403Z</time></trkpt><trkpt lat="44.3649436" lon="7.8323768"><ele>466.0</ele><time>2026-05-03T16:29:08.397Z</time></trkpt><trkpt lat="44.3651371" lon="7.8323198"><ele>466.0</ele><time>2026-05-03T16:29:09.411Z</time></trkpt><trkpt lat="44.3653313" lon="7.8322587"><ele>466.0</ele><time>2026-05-03T16:29:10.414Z</time></trkpt><trkpt lat="44.365526" lon="7.8322014"><ele>466.0</ele><time>2026-05-03T16:29:11.424Z</time></trkpt><trkpt lat="44.36572" lon="7.8321461"><ele>464.0</ele><time>2026-05-03T16:29:12.409Z</time></trkpt><trkpt lat="44.365914" lon="7.8320884"><ele>462.0</ele><time>2026-05-03T16:29:13.404Z</time></trkpt><trkpt lat="44.3661012" lon="7.8320307"><ele>460.0</ele><time>2026-05-03T16:29:14.399Z</time></trkpt><trkpt lat="44.3662857" lon="7.8319746"><ele>459.0</ele><time>2026-05-03T16:29:15.413Z</time></trkpt><trkpt lat="44.3664673" lon="7.8319189"><ele>458.0</ele><time>2026-05-03T16:29:16.413Z</time></trkpt><trkpt lat="44.3666436" lon="7.8318654"><ele>457.0</ele><time>2026-05-03T16:29:17.406Z</time></trkpt><trkpt lat="44.3668209" lon="7.8318137"><ele>457.33333333333337</ele><time>2026-05-03T16:29:18.4Z</time></trkpt><trkpt lat="44.3669965" lon="7.8317585"><ele>457.66666666666663</ele><time>2026-05-03T16:29:19.422Z</time></trkpt><trkpt lat="44.3671703" lon="7.8317055"><ele>458.0</ele><time>2026-05-03T16:29:20.398Z</time></trkpt><trkpt lat="44.3673426" lon="7.8316529"><ele>458.0</ele><time>2026-05-03T16:29:21.417Z</time></trkpt><trkpt lat="44.3675176" lon="7.831603"><ele>458.0</ele><time>2026-05-03T16:29:22.408Z</time></trkpt><trkpt lat="44.367696" lon="7.8315499"><ele>458.0</ele><time>2026-05-03T16:29:23.406Z</time></trkpt><trkpt lat="44.367876" lon="7.831499"><ele>457.3333333333333</ele><time>2026-05-03T16:29:24.403Z</time></trkpt><trkpt lat="44.3680581" lon="7.8314441"><ele>456.66666666666663</ele><time>2026-05-03T16:29:25.398Z</time></trkpt><trkpt lat="44.3682415" lon="7.8313842"><ele>456.0</ele><time>2026-05-03T16:29:26.424Z</time></trkpt><trkpt lat="44.3684292" lon="7.831327"><ele>456.0</ele><time>2026-05-03T16:29:27.42Z</time></trkpt><trkpt lat="44.3686165" lon="7.8312666"><ele>456.0</ele><time>2026-05-03T16:29:28.415Z</time></trkpt><trkpt lat="44.3688089" lon="7.8312102"><ele>456.0</ele><time>2026-05-03T16:29:29.405Z</time></trkpt><trkpt lat="44.3690033" lon="7.8311534"><ele>455.66666666666663</ele><time>2026-05-03T16:29:30.414Z</time></trkpt><trkpt lat="44.3692011" lon="7.8310903"><ele>455.3333333333333</ele><time>2026-05-03T16:29:31.407Z</time></trkpt><trkpt lat="44.3693981" lon="7.8310298"><ele>455.0</ele><time>2026-05-03T16:29:32.407Z</time></trkpt><trkpt lat="44.3695947" lon="7.8309654"><ele>455.0</ele><time>2026-05-03T16:29:33.42Z</time></trkpt><trkpt lat="44.3697931" lon="7.830905"><ele>455.0</ele><time>2026-05-03T16:29:34.406Z</time></trkpt><trkpt lat="44.3699908" lon="7.8308412"><ele>455.0</ele><time>2026-05-03T16:29:35.422Z</time></trkpt><trkpt lat="44.3701936" lon="7.8307768"><ele>455.0</ele><time>2026-05-03T16:29:36.393Z</time></trkpt><trkpt lat="44.3704017" lon="7.830712"><ele>455.0</ele><time>2026-05-03T16:29:37.416Z</time></trkpt><trkpt lat="44.3706073" lon="7.8306487"><ele>455.0</ele><time>2026-05-03T16:29:38.405Z</time></trkpt><trkpt lat="44.3708183" lon="7.8305861"><ele>454.3333333333333</ele><time>2026-05-03T16:29:39.426Z</time></trkpt><trkpt lat="44.3710268" lon="7.8305242"><ele>453.66666666666663</ele><time>2026-05-03T16:29:40.413Z</time></trkpt><trkpt lat="44.3712314" lon="7.8304608"><ele>453.0</ele><time>2026-05-03T16:29:41.414Z</time></trkpt><trkpt lat="44.3714347" lon="7.8304025"><ele>451.66666666666663</ele><time>2026-05-03T16:29:42.403Z</time></trkpt><trkpt lat="44.3716322" lon="7.8303435"><ele>450.3333333333333</ele><time>2026-05-03T16:29:43.404Z</time></trkpt><trkpt lat="44.3718226" lon="7.8302831"><ele>449.0</ele><time>2026-05-03T16:29:44.418Z</time></trkpt><trkpt lat="44.3720096" lon="7.8302231"><ele>449.0</ele><time>2026-05-03T16:29:45.415Z</time></trkpt><trkpt lat="44.3721955" lon="7.8301673"><ele>449.0</ele><time>2026-05-03T16:29:46.415Z</time></trkpt><trkpt lat="44.3723797" lon="7.8301118"><ele>449.0</ele><time>2026-05-03T16:29:47.411Z</time></trkpt><trkpt lat="44.3725611" lon="7.8300567"><ele>449.0</ele><time>2026-05-03T16:29:48.405Z</time></trkpt><trkpt lat="44.3727415" lon="7.8300032"><ele>449.0</ele><time>2026-05-03T16:29:49.403Z</time></trkpt><trkpt lat="44.3729197" lon="7.8299505"><ele>449.0</ele><time>2026-05-03T16:29:50.415Z</time></trkpt><trkpt lat="44.3730941" lon="7.8298965"><ele>449.66666666666663</ele><time>2026-05-03T16:29:51.404Z</time></trkpt><trkpt lat="44.3732704" lon="7.8298425"><ele>450.33333333333337</ele><time>2026-05-03T16:29:52.415Z</time></trkpt><trkpt lat="44.3734461" lon="7.8297881"><ele>451.0</ele><time>2026-05-03T16:29:53.413Z</time></trkpt><trkpt lat="44.373618" lon="7.8297364"><ele>451.0</ele><time>2026-05-03T16:29:54.407Z</time></trkpt><trkpt lat="44.3737906" lon="7.8296814"><ele>451.0</ele><time>2026-05-03T16:29:55.408Z</time></trkpt><trkpt lat="44.3739676" lon="7.8296215"><ele>451.0</ele><time>2026-05-03T16:29:56.415Z</time></trkpt><trkpt lat="44.3741456" lon="7.8295683"><ele>452.0</ele><time>2026-05-03T16:29:57.421Z</time></trkpt><trkpt lat="44.3743234" lon="7.8295153"><ele>453.0</ele><time>2026-05-03T16:29:58.409Z</time></trkpt><trkpt lat="44.3745017" lon="7.8294599"><ele>454.0</ele><time>2026-05-03T16:29:59.401Z</time></trkpt><trkpt lat="44.3746801" lon="7.8294058"><ele>452.33333333333337</ele><time>2026-05-03T16:30:00.391Z</time></trkpt><trkpt lat="44.374859" lon="7.8293471"><ele>450.66666666666663</ele><time>2026-05-03T16:30:01.413Z</time></trkpt><trkpt lat="44.3750315" lon="7.8292696"><ele>449.0</ele><time>2026-05-03T16:30:02.397Z</time></trkpt><trkpt lat="44.3751959" lon="7.8291578"><ele>448.66666666666663</ele><time>2026-05-03T16:30:03.414Z</time></trkpt><trkpt lat="44.3753468" lon="7.8290271"><ele>448.33333333333337</ele><time>2026-05-03T16:30:04.41Z</time></trkpt><trkpt lat="44.375496" lon="7.8288855"><ele>448.0</ele><time>2026-05-03T16:30:05.42Z</time></trkpt><trkpt lat="44.3756474" lon="7.8287435"><ele>448.0</ele><time>2026-05-03T16:30:06.388Z</time></trkpt><trkpt lat="44.3757971" lon="7.8286039"><ele>448.0</ele><time>2026-05-03T16:30:07.416Z</time></trkpt><trkpt lat="44.3759497" lon="7.8284571"><ele>448.0</ele><time>2026-05-03T16:30:08.416Z</time></trkpt><trkpt lat="44.3761033" lon="7.8283111"><ele>447.33333333333337</ele><time>2026-05-03T16:30:09.421Z</time></trkpt><trkpt lat="44.3762543" lon="7.8281605"><ele>446.66666666666663</ele><time>2026-05-03T16:30:10.412Z</time></trkpt><trkpt lat="44.3764075" lon="7.8280162"><ele>446.0</ele><time>2026-05-03T16:30:11.415Z</time></trkpt><trkpt lat="44.376562" lon="7.8278667"><ele>446.0</ele><time>2026-05-03T16:30:12.407Z</time></trkpt><trkpt lat="44.3767155" lon="7.8277186"><ele>446.0</ele><time>2026-05-03T16:30:13.399Z</time></trkpt><trkpt lat="44.3768647" lon="7.8275787"><ele>446.0</ele><time>2026-05-03T16:30:14.398Z</time></trkpt><trkpt lat="44.3770069" lon="7.8274409"><ele>446.0</ele><time>2026-05-03T16:30:15.422Z</time></trkpt><trkpt lat="44.3771514" lon="7.8272948"><ele>446.0</ele><time>2026-05-03T16:30:16.406Z</time></trkpt><trkpt lat="44.3772874" lon="7.8271386"><ele>446.0</ele><time>2026-05-03T16:30:17.4Z</time></trkpt><trkpt lat="44.3774102" lon="7.8269583"><ele>444.66666666666663</ele><time>2026-05-03T16:30:18.406Z</time></trkpt><trkpt lat="44.3775153" lon="7.8267544"><ele>443.33333333333337</ele><time>2026-05-03T16:30:19.41Z</time></trkpt><trkpt lat="44.3776042" lon="7.8265346"><ele>442.0</ele><time>2026-05-03T16:30:20.402Z</time></trkpt><trkpt lat="44.3776863" lon="7.8263071"><ele>442.0</ele><time>2026-05-03T16:30:21.413Z</time></trkpt><trkpt lat="44.3777691" lon="7.8260833"><ele>442.0</ele><time>2026-05-03T16:30:22.415Z</time></trkpt><trkpt lat="44.3778503" lon="7.8258614"><ele>442.0</ele><time>2026-05-03T16:30:23.408Z</time></trkpt><trkpt lat="44.37793" lon="7.8256352"><ele>441.33333333333337</ele><time>2026-05-03T16:30:24.406Z</time></trkpt><trkpt lat="44.3780031" lon="7.8254057"><ele>440.66666666666663</ele><time>2026-05-03T16:30:25.399Z</time></trkpt><trkpt lat="44.3780613" lon="7.8251682"><ele>440.0</ele><time>2026-05-03T16:30:26.404Z</time></trkpt><trkpt lat="44.3781007" lon="7.8249275"><ele>442.0</ele><time>2026-05-03T16:30:27.391Z</time></trkpt><trkpt lat="44.3781241" lon="7.8246848"><ele>444.0</ele><time>2026-05-03T16:30:28.403Z</time></trkpt><trkpt lat="44.3781373" lon="7.8244371"><ele>446.0</ele><time>2026-05-03T16:30:29.405Z</time></trkpt><trkpt lat="44.3781463" lon="7.8241907"><ele>446.0</ele><time>2026-05-03T16:30:30.403Z</time></trkpt><trkpt lat="44.3781561" lon="7.82394"><ele>446.0</ele><time>2026-05-03T16:30:31.415Z</time></trkpt><trkpt lat="44.3781786" lon="7.8236884"><ele>446.0</ele><time>2026-05-03T16:30:32.405Z</time></trkpt><trkpt lat="44.3782124" lon="7.8234432"><ele>444.66666666666663</ele><time>2026-05-03T16:30:33.411Z</time></trkpt><trkpt lat="44.3782642" lon="7.8232052"><ele>443.33333333333337</ele><time>2026-05-03T16:30:34.401Z</time></trkpt><trkpt lat="44.378337" lon="7.8229814"><ele>442.0</ele><time>2026-05-03T16:30:35.417Z</time></trkpt><trkpt lat="44.37843" lon="7.8227678"><ele>439.6666666666667</ele><time>2026-05-03T16:30:36.403Z</time></trkpt><trkpt lat="44.3785354" lon="7.8225678"><ele>437.33333333333337</ele><time>2026-05-03T16:30:37.404Z</time></trkpt><trkpt lat="44.3786451" lon="7.8223818"><ele>435.0</ele><time>2026-05-03T16:30:38.4Z</time></trkpt><trkpt lat="44.378756" lon="7.8222007"><ele>436.66666666666663</ele><time>2026-05-03T16:30:39.392Z</time></trkpt><trkpt lat="44.3788613" lon="7.82202"><ele>438.3333333333333</ele><time>2026-05-03T16:30:40.431Z</time></trkpt><trkpt lat="44.3789699" lon="7.8218414"><ele>440.0</ele><time>2026-05-03T16:30:41.392Z</time></trkpt><trkpt lat="44.3790864" lon="7.8216738"><ele>436.0</ele><time>2026-05-03T16:30:42.415Z</time></trkpt><trkpt lat="44.3792171" lon="7.821536"><ele>432.0</ele><time>2026-05-03T16:30:43.399Z</time></trkpt><trkpt lat="44.379359" lon="7.8214314"><ele>428.0</ele><time>2026-05-03T16:30:44.412Z</time></trkpt><trkpt lat="44.3795141" lon="7.8213591"><ele>428.0</ele><time>2026-05-03T16:30:45.392Z</time></trkpt><trkpt lat="44.379674" lon="7.8213086"><ele>428.0</ele><time>2026-05-03T16:30:46.414Z</time></trkpt><trkpt lat="44.3798348" lon="7.8212621"><ele>428.0</ele><time>2026-05-03T16:30:47.419Z</time></trkpt><trkpt lat="44.3799935" lon="7.8212184"><ele>431.3333333333333</ele><time>2026-05-03T16:30:48.41Z</time></trkpt><trkpt lat="44.3801478" lon="7.8211729"><ele>434.66666666666663</ele><time>2026-05-03T16:30:49.401Z</time></trkpt><trkpt lat="44.3802994" lon="7.8211285"><ele>438.0</ele><time>2026-05-03T16:30:50.414Z</time></trkpt><trkpt lat="44.3804425" lon="7.8210716"><ele>440.5</ele><time>2026-05-03T16:30:51.398Z</time></trkpt><trkpt lat="44.3805795" lon="7.8209939"><ele>443.0</ele><time>2026-05-03T16:30:52.413Z</time></trkpt><trkpt lat="44.3807063" lon="7.8208887"><ele>445.5</ele><time>2026-05-03T16:30:53.415Z</time></trkpt><trkpt lat="44.3808271" lon="7.8207792"><ele>448.0</ele><time>2026-05-03T16:30:54.416Z</time></trkpt><trkpt lat="44.3809496" lon="7.8206695"><ele>443.0</ele><time>2026-05-03T16:30:55.42Z</time></trkpt><trkpt lat="44.3810802" lon="7.8205723"><ele>438.0</ele><time>2026-05-03T16:30:56.403Z</time></trkpt><trkpt lat="44.3812206" lon="7.8205095"><ele>433.0</ele><time>2026-05-03T16:30:57.415Z</time></trkpt><trkpt lat="44.3813588" lon="7.8204747"><ele>428.0</ele><time>2026-05-03T16:30:58.408Z</time></trkpt><trkpt lat="44.3814957" lon="7.820474"><ele>428.0</ele><time>2026-05-03T16:30:59.401Z</time></trkpt><trkpt lat="44.3816316" lon="7.8204963"><ele>428.0</ele><time>2026-05-03T16:31:00.414Z</time></trkpt><trkpt lat="44.3817642" lon="7.8205399"><ele>428.0</ele><time>2026-05-03T16:31:01.404Z</time></trkpt><trkpt lat="44.3818955" lon="7.8205831"><ele>428.0</ele><time>2026-05-03T16:31:02.41Z</time></trkpt><trkpt lat="44.3820255" lon="7.8206311"><ele>428.0</ele><time>2026-05-03T16:31:03.418Z</time></trkpt><trkpt lat="44.3821498" lon="7.820677"><ele>428.0</ele><time>2026-05-03T16:31:04.398Z</time></trkpt><trkpt lat="44.3822649" lon="7.8207204"><ele>428.0</ele><time>2026-05-03T16:31:05.412Z</time></trkpt><trkpt lat="44.3823746" lon="7.8207615"><ele>428.0</ele><time>2026-05-03T16:31:06.416Z</time></trkpt><trkpt lat="44.3824878" lon="7.8208147"><ele>427.75</ele><time>2026-05-03T16:31:07.41Z</time></trkpt><trkpt lat="44.3825858" lon="7.820904"><ele>427.5</ele><time>2026-05-03T16:31:08.417Z</time></trkpt><trkpt lat="44.3826609" lon="7.8210207"><ele>427.25</ele><time>2026-05-03T16:31:09.419Z</time></trkpt><trkpt lat="44.3827057" lon="7.8211715"><ele>427.0</ele><time>2026-05-03T16:31:10.422Z</time></trkpt><trkpt lat="44.3827457" lon="7.8213254"><ele>427.0</ele><time>2026-05-03T16:31:11.414Z</time></trkpt><trkpt lat="44.382782" lon="7.821483"><ele>427.0</ele><time>2026-05-03T16:31:12.409Z</time></trkpt><trkpt lat="44.3828186" lon="7.8216396"><ele>427.0</ele><time>2026-05-03T16:31:13.409Z</time></trkpt><trkpt lat="44.3828534" lon="7.8217996"><ele>427.0</ele><time>2026-05-03T16:31:14.416Z</time></trkpt><trkpt lat="44.3828876" lon="7.8219603"><ele>424.5</ele><time>2026-05-03T16:31:15.419Z</time></trkpt><trkpt lat="44.3829318" lon="7.8221193"><ele>422.0</ele><time>2026-05-03T16:31:16.412Z</time></trkpt><trkpt lat="44.382998" lon="7.8222583"><ele>419.5</ele><time>2026-05-03T16:31:17.413Z</time></trkpt><trkpt lat="44.3830917" lon="7.8223682"><ele>417.0</ele><time>2026-05-03T16:31:18.402Z</time></trkpt><trkpt lat="44.3832019" lon="7.8224412"><ele>417.0</ele><time>2026-05-03T16:31:19.408Z</time></trkpt><trkpt lat="44.3833225" lon="7.8224857"><ele>417.0</ele><time>2026-05-03T16:31:20.425Z</time></trkpt><trkpt lat="44.3834514" lon="7.8225177"><ele>417.0</ele><time>2026-05-03T16:31:21.407Z</time></trkpt><trkpt lat="44.3835827" lon="7.8225239"><ele>417.0</ele><time>2026-05-03T16:31:22.408Z</time></trkpt><trkpt lat="44.3837162" lon="7.822502"><ele>417.25</ele><time>2026-05-03T16:31:23.41Z</time></trkpt><trkpt lat="44.383851" lon="7.8224646"><ele>417.5</ele><time>2026-05-03T16:31:24.418Z</time></trkpt><trkpt lat="44.3839862" lon="7.8224256"><ele>417.75</ele><time>2026-05-03T16:31:25.41Z</time></trkpt><trkpt lat="44.3841166" lon="7.8223874"><ele>418.0</ele><time>2026-05-03T16:31:26.397Z</time></trkpt><trkpt lat="44.384244" lon="7.822351"><ele>418.0</ele><time>2026-05-03T16:31:27.398Z</time></trkpt><trkpt lat="44.3843721" lon="7.8223136"><ele>418.0</ele><time>2026-05-03T16:31:28.407Z</time></trkpt><trkpt lat="44.3844937" lon="7.8222736"><ele>418.0</ele><time>2026-05-03T16:31:29.412Z</time></trkpt><trkpt lat="44.3846169" lon="7.8222252"><ele>418.0</ele><time>2026-05-03T16:31:30.406Z</time></trkpt><trkpt lat="44.3847402" lon="7.8221712"><ele>418.75</ele><time>2026-05-03T16:31:31.406Z</time></trkpt><trkpt lat="44.3848649" lon="7.8221186"><ele>419.5</ele><time>2026-05-03T16:31:32.41Z</time></trkpt><trkpt lat="44.3849884" lon="7.8220624"><ele>420.25</ele><time>2026-05-03T16:31:33.402Z</time></trkpt><trkpt lat="44.3851121" lon="7.8220021"><ele>421.0</ele><time>2026-05-03T16:31:34.418Z</time></trkpt><trkpt lat="44.3852307" lon="7.8219449"><ele>421.0</ele><time>2026-05-03T16:31:35.423Z</time></trkpt><trkpt lat="44.3853436" lon="7.8218954"><ele>421.0</ele><time>2026-05-03T16:31:36.421Z</time></trkpt><trkpt lat="44.3854508" lon="7.8218487"><ele>421.0</ele><time>2026-05-03T16:31:37.404Z</time></trkpt><trkpt lat="44.3855553" lon="7.8218008"><ele>421.0</ele><time>2026-05-03T16:31:38.422Z</time></trkpt><trkpt lat="44.3856543" lon="7.8217515"><ele>421.0</ele><time>2026-05-03T16:31:39.412Z</time></trkpt><trkpt lat="44.3857457" lon="7.8216863"><ele>418.0</ele><time>2026-05-03T16:31:40.404Z</time></trkpt><trkpt lat="44.3858221" lon="7.8215945"><ele>415.0</ele><time>2026-05-03T16:31:41.403Z</time></trkpt><trkpt lat="44.3858799" lon="7.8214771"><ele>412.0</ele><time>2026-05-03T16:31:42.404Z</time></trkpt><trkpt lat="44.3859195" lon="7.8213556"><ele>409.0</ele><time>2026-05-03T16:31:43.424Z</time></trkpt><trkpt lat="44.3859501" lon="7.8212327"><ele>406.0</ele><time>2026-05-03T16:31:44.394Z</time></trkpt><trkpt lat="44.3859806" lon="7.8211118"><ele>404.6666666666667</ele><time>2026-05-03T16:31:45.403Z</time></trkpt><trkpt lat="44.3860082" lon="7.8209821"><ele>403.33333333333337</ele><time>2026-05-03T16:31:46.411Z</time></trkpt><trkpt lat="44.3860319" lon="7.8208564"><ele>402.0</ele><time>2026-05-03T16:31:47.411Z</time></trkpt><trkpt lat="44.3860583" lon="7.8207433"><ele>400.66666666666663</ele><time>2026-05-03T16:31:48.419Z</time></trkpt><trkpt lat="44.386091" lon="7.8206332"><ele>399.3333333333333</ele><time>2026-05-03T16:31:49.405Z</time></trkpt><trkpt lat="44.386128" lon="7.8205326"><ele>398.0</ele><time>2026-05-03T16:31:50.405Z</time></trkpt><trkpt lat="44.3861683" lon="7.8204488"><ele>397.99999999999994</ele><time>2026-05-03T16:31:51.404Z</time></trkpt><trkpt lat="44.3862207" lon="7.8203781"><ele>398.0</ele><time>2026-05-03T16:31:52.417Z</time></trkpt><trkpt lat="44.3862781" lon="7.820316"><ele>398.0</ele><time>2026-05-03T16:31:53.41Z</time></trkpt><trkpt lat="44.3863405" lon="7.8202495"><ele>398.0</ele><time>2026-05-03T16:31:54.409Z</time></trkpt><trkpt lat="44.3864177" lon="7.8201946"><ele>397.99999999999994</ele><time>2026-05-03T16:31:55.42Z</time></trkpt><trkpt lat="44.3865062" lon="7.8201482"><ele>398.0</ele><time>2026-05-03T16:31:56.414Z</time></trkpt><trkpt lat="44.3866003" lon="7.8201153"><ele>398.16666666666663</ele><time>2026-05-03T16:31:57.416Z</time></trkpt><trkpt lat="44.3866923" lon="7.82009"><ele>398.3333333333333</ele><time>2026-05-03T16:31:58.405Z</time></trkpt><trkpt lat="44.3867742" lon="7.8200758"><ele>398.5</ele><time>2026-05-03T16:31:59.403Z</time></trkpt><trkpt lat="44.386852" lon="7.8200642"><ele>398.66666666666663</ele><time>2026-05-03T16:32:00.42Z</time></trkpt><trkpt lat="44.3869216" lon="7.8200506"><ele>398.8333333333333</ele><time>2026-05-03T16:32:01.402Z</time></trkpt><trkpt lat="44.386986" lon="7.8200386"><ele>399.0</ele><time>2026-05-03T16:32:02.415Z</time></trkpt><trkpt lat="44.3870491" lon="7.8200278"><ele>399.0</ele><time>2026-05-03T16:32:03.407Z</time></trkpt><trkpt lat="44.387119" lon="7.8200161"><ele>399.0</ele><time>2026-05-03T16:32:04.414Z</time></trkpt><trkpt lat="44.3871932" lon="7.8200122"><ele>399.0</ele><time>2026-05-03T16:32:05.414Z</time></trkpt><trkpt lat="44.3872694" lon="7.8200164"><ele>399.0</ele><time>2026-05-03T16:32:06.406Z</time></trkpt><trkpt lat="44.3873489" lon="7.8200304"><ele>399.0</ele><time>2026-05-03T16:32:07.416Z</time></trkpt><trkpt lat="44.3874301" lon="7.8200498"><ele>399.0</ele><time>2026-05-03T16:32:08.419Z</time></trkpt><trkpt lat="44.3875131" lon="7.8200998"><ele>399.0</ele><time>2026-05-03T16:32:09.412Z</time></trkpt><trkpt lat="44.3875974" lon="7.8201495"><ele>399.0</ele><time>2026-05-03T16:32:10.417Z</time></trkpt><trkpt lat="44.387682" lon="7.8202145"><ele>399.0</ele><time>2026-05-03T16:32:11.412Z</time></trkpt><trkpt lat="44.387772" lon="7.8202875"><ele>399.0</ele><time>2026-05-03T16:32:12.413Z</time></trkpt><trkpt lat="44.3878626" lon="7.8203424"><ele>399.0</ele><time>2026-05-03T16:32:13.41Z</time></trkpt><trkpt lat="44.3879574" lon="7.8203883"><ele>399.6</ele><time>2026-05-03T16:32:14.416Z</time></trkpt><trkpt lat="44.388046" lon="7.8204399"><ele>400.2</ele><time>2026-05-03T16:32:15.401Z</time></trkpt><trkpt lat="44.3881411" lon="7.8204727"><ele>400.8</ele><time>2026-05-03T16:32:16.417Z</time></trkpt><trkpt lat="44.3882334" lon="7.8204981"><ele>401.40000000000003</ele><time>2026-05-03T16:32:17.413Z</time></trkpt><trkpt lat="44.3883295" lon="7.8205063"><ele>402.0</ele><time>2026-05-03T16:32:18.396Z</time></trkpt><trkpt lat="44.3884267" lon="7.8205024"><ele>402.0</ele><time>2026-05-03T16:32:19.418Z</time></trkpt><trkpt lat="44.3885203" lon="7.8204933"><ele>402.0</ele><time>2026-05-03T16:32:20.419Z</time></trkpt><trkpt lat="44.388616" lon="7.8204757"><ele>402.0</ele><time>2026-05-03T16:32:21.415Z</time></trkpt><trkpt lat="44.3887113" lon="7.8204479"><ele>402.0</ele><time>2026-05-03T16:32:22.409Z</time></trkpt><trkpt lat="44.3888003" lon="7.8204186"><ele>402.0</ele><time>2026-05-03T16:32:23.416Z</time></trkpt><trkpt lat="44.3888856" lon="7.8203804"><ele>401.5</ele><time>2026-05-03T16:32:24.414Z</time></trkpt><trkpt lat="44.3889735" lon="7.8203484"><ele>401.0</ele><time>2026-05-03T16:32:25.402Z</time></trkpt><trkpt lat="44.3890538" lon="7.8203242"><ele>400.5</ele><time>2026-05-03T16:32:26.402Z</time></trkpt><trkpt lat="44.3891328" lon="7.8203029"><ele>400.0</ele><time>2026-05-03T16:32:27.417Z</time></trkpt><trkpt lat="44.3892209" lon="7.8202906"><ele>399.5</ele><time>2026-05-03T16:32:28.413Z</time></trkpt><trkpt lat="44.3893082" lon="7.8202911"><ele>399.0</ele><time>2026-05-03T16:32:29.397Z</time></trkpt><trkpt lat="44.389393" lon="7.8203062"><ele>399.0</ele><time>2026-05-03T16:32:30.411Z</time></trkpt><trkpt lat="44.389467" lon="7.8203228"><ele>399.0</ele><time>2026-05-03T16:32:31.409Z</time></trkpt><trkpt lat="44.3895345" lon="7.8203421"><ele>399.0</ele><time>2026-05-03T16:32:32.403Z</time></trkpt><trkpt lat="44.3895999" lon="7.8203592"><ele>399.0</ele><time>2026-05-03T16:32:33.408Z</time></trkpt><trkpt lat="44.3896662" lon="7.8203816"><ele>399.0</ele><time>2026-05-03T16:32:34.407Z</time></trkpt><trkpt lat="44.3897332" lon="7.8204052"><ele>399.0</ele><time>2026-05-03T16:32:35.415Z</time></trkpt><trkpt lat="44.389795" lon="7.8204329"><ele>399.0</ele><time>2026-05-03T16:32:36.395Z</time></trkpt><trkpt lat="44.3898916" lon="7.820518"><ele>398.0</ele><time>2026-05-03T16:32:38.417Z</time></trkpt><trkpt lat="44.3899816" lon="7.8206042"><ele>397.0</ele><time>2026-05-03T16:32:40.408Z</time></trkpt><trkpt lat="44.3900826" lon="7.8205882"><ele>396.0</ele><time>2026-05-03T16:32:42.41Z</time></trkpt><trkpt lat="44.3901295" lon="7.8204622"><ele>395.0</ele><time>2026-05-03T16:32:44.417Z</time></trkpt><trkpt lat="44.3901095" lon="7.8203013"><ele>394.0</ele><time>2026-05-03T16:32:46.413Z</time></trkpt><trkpt lat="44.3901052" lon="7.8202096"><ele>393.2857142857143</ele><time>2026-05-03T16:32:47.412Z</time></trkpt><trkpt lat="44.3901078" lon="7.8201091"><ele>392.57142857142856</ele><time>2026-05-03T16:32:48.408Z</time></trkpt><trkpt lat="44.3901202" lon="7.8200043"><ele>391.8571428571429</ele><time>2026-05-03T16:32:49.407Z</time></trkpt><trkpt lat="44.3901362" lon="7.819906"><ele>391.1428571428571</ele><time>2026-05-03T16:32:50.398Z</time></trkpt><trkpt lat="44.3901505" lon="7.8198194"><ele>390.4285714285714</ele><time>2026-05-03T16:32:51.41Z</time></trkpt><trkpt lat="44.3901793" lon="7.8197339"><ele>389.7142857142857</ele><time>2026-05-03T16:32:52.394Z</time></trkpt><trkpt lat="44.3902195" lon="7.8196612"><ele>389.0</ele><time>2026-05-03T16:32:53.397Z</time></trkpt><trkpt lat="44.3902731" lon="7.8195956"><ele>389.0</ele><time>2026-05-03T16:32:54.415Z</time></trkpt><trkpt lat="44.3903457" lon="7.8195369"><ele>389.0</ele><time>2026-05-03T16:32:55.413Z</time></trkpt><trkpt lat="44.3904293" lon="7.8194883"><ele>389.0</ele><time>2026-05-03T16:32:56.4Z</time></trkpt><trkpt lat="44.3905238" lon="7.8194487"><ele>389.0</ele><time>2026-05-03T16:32:57.413Z</time></trkpt><trkpt lat="44.3906241" lon="7.8194209"><ele>389.0</ele><time>2026-05-03T16:32:58.414Z</time></trkpt><trkpt lat="44.3907282" lon="7.8193976"><ele>388.79999999999995</ele><time>2026-05-03T16:32:59.399Z</time></trkpt><trkpt lat="44.3908334" lon="7.8193816"><ele>388.59999999999997</ele><time>2026-05-03T16:33:00.42Z</time></trkpt><trkpt lat="44.3909424" lon="7.8193647"><ele>388.4</ele><time>2026-05-03T16:33:01.401Z</time></trkpt><trkpt lat="44.3910493" lon="7.8193504"><ele>388.2</ele><time>2026-05-03T16:33:02.426Z</time></trkpt><trkpt lat="44.3911552" lon="7.8193392"><ele>388.0</ele><time>2026-05-03T16:33:03.404Z</time></trkpt><trkpt lat="44.3912567" lon="7.8193182"><ele>388.50000000000006</ele><time>2026-05-03T16:33:04.423Z</time></trkpt><trkpt lat="44.3913499" lon="7.8192811"><ele>389.0</ele><time>2026-05-03T16:33:05.416Z</time></trkpt><trkpt lat="44.3914254" lon="7.8192184"><ele>389.5</ele><time>2026-05-03T16:33:06.409Z</time></trkpt><trkpt lat="44.3914724" lon="7.81914"><ele>390.0</ele><time>2026-05-03T16:33:07.399Z</time></trkpt><trkpt lat="44.391512" lon="7.8190503"><ele>390.50000000000006</ele><time>2026-05-03T16:33:08.417Z</time></trkpt><trkpt lat="44.3915472" lon="7.8189502"><ele>391.0</ele><time>2026-05-03T16:33:09.419Z</time></trkpt><trkpt lat="44.3915967" lon="7.8188395"><ele>391.0</ele><time>2026-05-03T16:33:10.423Z</time></trkpt><trkpt lat="44.3916667" lon="7.8187364"><ele>391.0</ele><time>2026-05-03T16:33:11.413Z</time></trkpt><trkpt lat="44.3917402" lon="7.8186395"><ele>391.0</ele><time>2026-05-03T16:33:12.403Z</time></trkpt><trkpt lat="44.3918271" lon="7.818548"><ele>391.0</ele><time>2026-05-03T16:33:13.411Z</time></trkpt><trkpt lat="44.3919227" lon="7.8184684"><ele>391.0</ele><time>2026-05-03T16:33:14.415Z</time></trkpt><trkpt lat="44.3920224" lon="7.8183981"><ele>394.5</ele><time>2026-05-03T16:33:15.426Z</time></trkpt><trkpt lat="44.3921309" lon="7.8183369"><ele>398.0</ele><time>2026-05-03T16:33:16.407Z</time></trkpt><trkpt lat="44.3922462" lon="7.8182891"><ele>401.5</ele><time>2026-05-03T16:33:17.397Z</time></trkpt><trkpt lat="44.3923699" lon="7.8182682"><ele>405.0</ele><time>2026-05-03T16:33:18.409Z</time></trkpt><trkpt lat="44.3924881" lon="7.8182801"><ele>405.5</ele><time>2026-05-03T16:33:19.403Z</time></trkpt><trkpt lat="44.3926002" lon="7.8183221"><ele>406.0</ele><time>2026-05-03T16:33:20.413Z</time></trkpt><trkpt lat="44.3927057" lon="7.8183813"><ele>406.5</ele><time>2026-05-03T16:33:21.415Z</time></trkpt><trkpt lat="44.3928069" lon="7.8184735"><ele>407.0</ele><time>2026-05-03T16:33:22.418Z</time></trkpt><trkpt lat="44.3929093" lon="7.8185767"><ele>406.25</ele><time>2026-05-03T16:33:23.419Z</time></trkpt><trkpt lat="44.3930083" lon="7.8186915"><ele>405.5</ele><time>2026-05-03T16:33:24.409Z</time></trkpt><trkpt lat="44.3931157" lon="7.8188136"><ele>404.75</ele><time>2026-05-03T16:33:25.415Z</time></trkpt><trkpt lat="44.3932223" lon="7.8189325"><ele>404.0</ele><time>2026-05-03T16:33:26.409Z</time></trkpt><trkpt lat="44.3933236" lon="7.8190645"><ele>404.0</ele><time>2026-05-03T16:33:27.417Z</time></trkpt><trkpt lat="44.3934164" lon="7.8192052"><ele>404.0</ele><time>2026-05-03T16:33:28.411Z</time></trkpt><trkpt lat="44.3934904" lon="7.8193699"><ele>404.0</ele><time>2026-05-03T16:33:29.413Z</time></trkpt><trkpt lat="44.3935465" lon="7.8195471"><ele>404.0</ele><time>2026-05-03T16:33:30.424Z</time></trkpt><trkpt lat="44.393595" lon="7.8197275"><ele>403.25</ele><time>2026-05-03T16:33:31.403Z</time></trkpt><trkpt lat="44.3936406" lon="7.8199025"><ele>402.5</ele><time>2026-05-03T16:33:32.406Z</time></trkpt><trkpt lat="44.3937043" lon="7.8200643"><ele>401.75</ele><time>2026-05-03T16:33:33.415Z</time></trkpt><trkpt lat="44.3937829" lon="7.8202052"><ele>401.0</ele><time>2026-05-03T16:33:34.407Z</time></trkpt><trkpt lat="44.3938759" lon="7.8203377"><ele>401.0</ele><time>2026-05-03T16:33:35.431Z</time></trkpt><trkpt lat="44.3939778" lon="7.8204567"><ele>401.0</ele><time>2026-05-03T16:33:36.403Z</time></trkpt><trkpt lat="44.3940832" lon="7.8205613"><ele>401.0</ele><time>2026-05-03T16:33:37.419Z</time></trkpt><trkpt lat="44.3941883" lon="7.8206669"><ele>401.0</ele><time>2026-05-03T16:33:38.397Z</time></trkpt><trkpt lat="44.3942965" lon="7.8207657"><ele>401.0</ele><time>2026-05-03T16:33:39.415Z</time></trkpt><trkpt lat="44.394409" lon="7.8208494"><ele>401.0</ele><time>2026-05-03T16:33:40.415Z</time></trkpt><trkpt lat="44.3945331" lon="7.8209037"><ele>401.0</ele><time>2026-05-03T16:33:41.4Z</time></trkpt><trkpt lat="44.3946592" lon="7.8209293"><ele>401.0</ele><time>2026-05-03T16:33:42.413Z</time></trkpt><trkpt lat="44.3947821" lon="7.8209246"><ele>402.75</ele><time>2026-05-03T16:33:43.414Z</time></trkpt><trkpt lat="44.3948998" lon="7.8208918"><ele>404.5</ele><time>2026-05-03T16:33:44.421Z</time></trkpt><trkpt lat="44.3950082" lon="7.8208331"><ele>406.25</ele><time>2026-05-03T16:33:45.409Z</time></trkpt><trkpt lat="44.3951046" lon="7.8207541"><ele>408.0</ele><time>2026-05-03T16:33:46.414Z</time></trkpt><trkpt lat="44.3951909" lon="7.8206563"><ele>408.0</ele><time>2026-05-03T16:33:47.413Z</time></trkpt><trkpt lat="44.3952713" lon="7.8205485"><ele>408.0</ele><time>2026-05-03T16:33:48.405Z</time></trkpt><trkpt lat="44.3953428" lon="7.8204435"><ele>408.0</ele><time>2026-05-03T16:33:49.401Z</time></trkpt><trkpt lat="44.3954065" lon="7.8203458"><ele>408.0</ele><time>2026-05-03T16:33:50.408Z</time></trkpt><trkpt lat="44.3954685" lon="7.8202546"><ele>408.0</ele><time>2026-05-03T16:33:51.416Z</time></trkpt><trkpt lat="44.3955236" lon="7.820175"><ele>408.79999999999995</ele><time>2026-05-03T16:33:52.406Z</time></trkpt><trkpt lat="44.3956091" lon="7.8200646"><ele>409.6</ele><time>2026-05-03T16:33:54.411Z</time></trkpt><trkpt lat="44.3957135" lon="7.8199846"><ele>410.4</ele><time>2026-05-03T16:33:56.4Z</time></trkpt><trkpt lat="44.3957754" lon="7.8199628"><ele>411.20000000000005</ele><time>2026-05-03T16:33:57.419Z</time></trkpt><trkpt lat="44.39584" lon="7.8199473"><ele>412.0</ele><time>2026-05-03T16:33:58.407Z</time></trkpt><trkpt lat="44.3959286" lon="7.8198454"><ele>412.0</ele><time>2026-05-03T16:34:00.414Z</time></trkpt><trkpt lat="44.3959407" lon="7.8197031"><ele>412.0</ele><time>2026-05-03T16:34:02.409Z</time></trkpt><trkpt lat="44.3959595" lon="7.8195147"><ele>412.0</ele><time>2026-05-03T16:34:04.413Z</time></trkpt><trkpt lat="44.396006" lon="7.8194126"><ele>412.0</ele><time>2026-05-03T16:34:05.408Z</time></trkpt><trkpt lat="44.3960727" lon="7.8193053"><ele>412.0</ele><time>2026-05-03T16:34:06.406Z</time></trkpt><trkpt lat="44.3961412" lon="7.8191948"><ele>412.40000000000003</ele><time>2026-05-03T16:34:07.424Z</time></trkpt><trkpt lat="44.3962102" lon="7.8190833"><ele>412.8</ele><time>2026-05-03T16:34:08.404Z</time></trkpt><trkpt lat="44.3962753" lon="7.8189657"><ele>413.2</ele><time>2026-05-03T16:34:09.435Z</time></trkpt><trkpt lat="44.3963483" lon="7.8188596"><ele>413.6</ele><time>2026-05-03T16:34:10.402Z</time></trkpt><trkpt lat="44.3964246" lon="7.8187394"><ele>414.0</ele><time>2026-05-03T16:34:11.411Z</time></trkpt><trkpt lat="44.3965008" lon="7.8186142"><ele>414.25</ele><time>2026-05-03T16:34:12.42Z</time></trkpt><trkpt lat="44.3965771" lon="7.8184906"><ele>414.5</ele><time>2026-05-03T16:34:13.393Z</time></trkpt><trkpt lat="44.3966556" lon="7.8183605"><ele>414.75</ele><time>2026-05-03T16:34:14.415Z</time></trkpt><trkpt lat="44.3967331" lon="7.8182306"><ele>415.0</ele><time>2026-05-03T16:34:15.396Z</time></trkpt><trkpt lat="44.396813" lon="7.8180981"><ele>415.25</ele><time>2026-05-03T16:34:16.409Z</time></trkpt><trkpt lat="44.3968939" lon="7.8179664"><ele>415.5</ele><time>2026-05-03T16:34:17.415Z</time></trkpt><trkpt lat="44.3969689" lon="7.8178386"><ele>415.75</ele><time>2026-05-03T16:34:18.401Z</time></trkpt><trkpt lat="44.3970394" lon="7.8177171"><ele>416.0</ele><time>2026-05-03T16:34:19.414Z</time></trkpt><trkpt lat="44.3971061" lon="7.8176027"><ele>416.0</ele><time>2026-05-03T16:34:20.418Z</time></trkpt><trkpt lat="44.397168" lon="7.8174825"><ele>416.0</ele><time>2026-05-03T16:34:21.409Z</time></trkpt><trkpt lat="44.3972364" lon="7.8173636"><ele>416.0</ele><time>2026-05-03T16:34:22.411Z</time></trkpt><trkpt lat="44.3973117" lon="7.8172423"><ele>416.0</ele><time>2026-05-03T16:34:23.406Z</time></trkpt><trkpt lat="44.3973881" lon="7.8171201"><ele>416.0</ele><time>2026-05-03T16:34:24.409Z</time></trkpt><trkpt lat="44.3974592" lon="7.8170023"><ele>416.0</ele><time>2026-05-03T16:34:25.417Z</time></trkpt><trkpt lat="44.3975285" lon="7.8168888"><ele>416.0</ele><time>2026-05-03T16:34:26.402Z</time></trkpt><trkpt lat="44.397595" lon="7.8167888"><ele>416.0</ele><time>2026-05-03T16:34:27.407Z</time></trkpt><trkpt lat="44.397654" lon="7.8166915"><ele>416.0</ele><time>2026-05-03T16:34:28.405Z</time></trkpt><trkpt lat="44.3977054" lon="7.8165881"><ele>416.0</ele><time>2026-05-03T16:34:29.409Z</time></trkpt><trkpt lat="44.39775" lon="7.8164933"><ele>416.1428571428571</ele><time>2026-05-03T16:34:30.411Z</time></trkpt><trkpt lat="44.3977682" lon="7.8164072"><ele>416.28571428571433</ele><time>2026-05-03T16:34:31.412Z</time></trkpt><trkpt lat="44.3977711" lon="7.8163169"><ele>416.42857142857144</ele><time>2026-05-03T16:34:33.416Z</time></trkpt><trkpt lat="44.3977248" lon="7.8162236"><ele>416.57142857142856</ele><time>2026-05-03T16:54:00.404Z</time></trkpt><trkpt lat="44.3976646" lon="7.8161938"><ele>416.71428571428567</ele><time>2026-05-03T16:54:01.405Z</time></trkpt><trkpt lat="44.3975865" lon="7.8161827"><ele>416.8571428571429</ele><time>2026-05-03T16:54:02.388Z</time></trkpt><trkpt lat="44.3974992" lon="7.8161807"><ele>417.0</ele><time>2026-05-03T16:54:03.402Z</time></trkpt><trkpt lat="44.3973995" lon="7.8161961"><ele>417.0</ele><time>2026-05-03T16:54:04.401Z</time></trkpt><trkpt lat="44.3972959" lon="7.8162193"><ele>417.0</ele><time>2026-05-03T16:54:05.406Z</time></trkpt><trkpt lat="44.3971929" lon="7.8162396"><ele>417.0</ele><time>2026-05-03T16:54:06.419Z</time></trkpt><trkpt lat="44.3970912" lon="7.8162606"><ele>417.0</ele><time>2026-05-03T16:54:07.411Z</time></trkpt><trkpt lat="44.3969946" lon="7.8162799"><ele>417.0</ele><time>2026-05-03T16:54:08.414Z</time></trkpt><trkpt lat="44.3968971" lon="7.8162978"><ele>417.0</ele><time>2026-05-03T16:54:09.389Z</time></trkpt><trkpt lat="44.3968056" lon="7.8163138"><ele>417.0</ele><time>2026-05-03T16:54:10.412Z</time></trkpt><trkpt lat="44.3967113" lon="7.8163365"><ele>417.0</ele><time>2026-05-03T16:54:11.407Z</time></trkpt><trkpt lat="44.3966145" lon="7.816352"><ele>417.0</ele><time>2026-05-03T16:54:12.427Z</time></trkpt><trkpt lat="44.3965184" lon="7.8163617"><ele>417.0</ele><time>2026-05-03T16:54:13.409Z</time></trkpt><trkpt lat="44.3964193" lon="7.8163803"><ele>417.20000000000005</ele><time>2026-05-03T16:54:14.403Z</time></trkpt><trkpt lat="44.3963244" lon="7.8164022"><ele>417.4</ele><time>2026-05-03T16:54:15.422Z</time></trkpt><trkpt lat="44.3962263" lon="7.8164215"><ele>417.6</ele><time>2026-05-03T16:54:16.409Z</time></trkpt><trkpt lat="44.3961291" lon="7.8164405"><ele>417.79999999999995</ele><time>2026-05-03T16:54:17.413Z</time></trkpt><trkpt lat="44.3960344" lon="7.8164566"><ele>418.0</ele><time>2026-05-03T16:54:18.407Z</time></trkpt><trkpt lat="44.3959442" lon="7.8164756"><ele>418.00000000000006</ele><time>2026-05-03T16:54:19.413Z</time></trkpt><trkpt lat="44.3958603" lon="7.8164883"><ele>418.0</ele><time>2026-05-03T16:54:20.406Z</time></trkpt><trkpt lat="44.3957838" lon="7.816499"><ele>418.0</ele><time>2026-05-03T16:54:21.414Z</time></trkpt><trkpt lat="44.3957149" lon="7.8165118"><ele>418.0</ele><time>2026-05-03T16:54:22.412Z</time></trkpt><trkpt lat="44.3956487" lon="7.816526"><ele>418.00000000000006</ele><time>2026-05-03T16:54:23.409Z</time></trkpt><trkpt lat="44.3955816" lon="7.81654"><ele>418.0</ele><time>2026-05-03T16:54:24.412Z</time></trkpt><trkpt lat="44.3954734" lon="7.8165277"><ele>418.5</ele><time>2026-05-03T16:54:26.415Z</time></trkpt><trkpt lat="44.395422" lon="7.8163564"><ele>419.0</ele><time>2026-05-03T16:54:28.4Z</time></trkpt><trkpt lat="44.3954231" lon="7.8162145"><ele>419.5</ele><time>2026-05-03T16:54:29.411Z</time></trkpt><trkpt lat="44.3954176" lon="7.8160634"><ele>420.0</ele><time>2026-05-03T16:54:30.406Z</time></trkpt><trkpt lat="44.3954257" lon="7.8159038"><ele>420.0</ele><time>2026-05-03T16:54:31.4Z</time></trkpt><trkpt lat="44.395493" lon="7.8157024"><ele>420.0</ele><time>2026-05-03T16:54:32.406Z</time></trkpt><trkpt lat="44.3955348" lon="7.8155212"><ele>420.0</ele><time>2026-05-03T16:54:33.401Z</time></trkpt><trkpt lat="44.3955793" lon="7.8153367"><ele>420.0</ele><time>2026-05-03T16:54:34.417Z</time></trkpt><trkpt lat="44.3956255" lon="7.8151529"><ele>420.0</ele><time>2026-05-03T16:54:35.393Z</time></trkpt><trkpt lat="44.3956885" lon="7.8149686"><ele>420.0</ele><time>2026-05-03T16:54:36.428Z</time></trkpt><trkpt lat="44.3957632" lon="7.8147869"><ele>420.0</ele><time>2026-05-03T16:54:37.408Z</time></trkpt><trkpt lat="44.3958566" lon="7.8146208"><ele>420.0</ele><time>2026-05-03T16:54:38.415Z</time></trkpt><trkpt lat="44.3959604" lon="7.8144694"><ele>420.0</ele><time>2026-05-03T16:54:39.397Z</time></trkpt><trkpt lat="44.3960715" lon="7.8143278"><ele>420.0</ele><time>2026-05-03T16:54:40.407Z</time></trkpt><trkpt lat="44.3961815" lon="7.814202"><ele>420.0</ele><time>2026-05-03T16:54:41.405Z</time></trkpt><trkpt lat="44.3962898" lon="7.8141254"><ele>420.0</ele><time>2026-05-03T16:54:42.415Z</time></trkpt><trkpt lat="44.3963952" lon="7.8140306"><ele>419.5</ele><time>2026-05-03T16:54:43.4Z</time></trkpt><trkpt lat="44.396507" lon="7.8139373"><ele>419.0</ele><time>2026-05-03T16:54:44.407Z</time></trkpt><trkpt lat="44.3966226" lon="7.813834"><ele>418.5</ele><time>2026-05-03T16:54:45.415Z</time></trkpt><trkpt lat="44.3967516" lon="7.8137423"><ele>418.0</ele><time>2026-05-03T16:54:46.415Z</time></trkpt><trkpt lat="44.3968868" lon="7.8136504"><ele>418.0</ele><time>2026-05-03T16:54:47.425Z</time></trkpt><trkpt lat="44.3970222" lon="7.8135445"><ele>418.0</ele><time>2026-05-03T16:54:48.424Z</time></trkpt><trkpt lat="44.3971559" lon="7.81344"><ele>418.0</ele><time>2026-05-03T16:54:49.414Z</time></trkpt><trkpt lat="44.3972945" lon="7.8133311"><ele>418.33333333333337</ele><time>2026-05-03T16:54:50.406Z</time></trkpt><trkpt lat="44.3974348" lon="7.8132217"><ele>418.66666666666663</ele><time>2026-05-03T16:54:51.423Z</time></trkpt><trkpt lat="44.3975754" lon="7.813111"><ele>419.0</ele><time>2026-05-03T16:54:52.399Z</time></trkpt><trkpt lat="44.3977133" lon="7.8130043"><ele>419.0</ele><time>2026-05-03T16:54:53.407Z</time></trkpt><trkpt lat="44.3978424" lon="7.8128953"><ele>419.0</ele><time>2026-05-03T16:54:54.408Z</time></trkpt><trkpt lat="44.3979684" lon="7.8127994"><ele>419.0</ele><time>2026-05-03T16:54:55.403Z</time></trkpt><trkpt lat="44.3980833" lon="7.8127064"><ele>419.0</ele><time>2026-05-03T16:54:56.418Z</time></trkpt><trkpt lat="44.3981911" lon="7.812621"><ele>419.0</ele><time>2026-05-03T16:54:57.395Z</time></trkpt><trkpt lat="44.3982961" lon="7.8125547"><ele>419.0</ele><time>2026-05-03T16:54:58.413Z</time></trkpt><trkpt lat="44.3984127" lon="7.8124983"><ele>419.0</ele><time>2026-05-03T16:54:59.417Z</time></trkpt><trkpt lat="44.3985269" lon="7.8124222"><ele>419.0</ele><time>2026-05-03T16:55:00.417Z</time></trkpt><trkpt lat="44.398647" lon="7.8123141"><ele>419.0</ele><time>2026-05-03T16:55:01.416Z</time></trkpt><trkpt lat="44.3987773" lon="7.8121952"><ele>419.0</ele><time>2026-05-03T16:55:02.415Z</time></trkpt><trkpt lat="44.3989111" lon="7.8120822"><ele>419.0</ele><time>2026-05-03T16:55:03.412Z</time></trkpt><trkpt lat="44.3990497" lon="7.8119728"><ele>418.66666666666663</ele><time>2026-05-03T16:55:04.418Z</time></trkpt><trkpt lat="44.3991917" lon="7.8118598"><ele>418.33333333333337</ele><time>2026-05-03T16:55:05.411Z</time></trkpt><trkpt lat="44.3993351" lon="7.8117423"><ele>418.0</ele><time>2026-05-03T16:55:06.419Z</time></trkpt><trkpt lat="44.3994783" lon="7.8116216"><ele>417.6666666666667</ele><time>2026-05-03T16:55:07.41Z</time></trkpt><trkpt lat="44.3996219" lon="7.8115078"><ele>417.33333333333337</ele><time>2026-05-03T16:55:08.414Z</time></trkpt><trkpt lat="44.3997686" lon="7.8113985"><ele>417.0</ele><time>2026-05-03T16:55:09.398Z</time></trkpt><trkpt lat="44.3999129" lon="7.8112879"><ele>417.0</ele><time>2026-05-03T16:55:10.408Z</time></trkpt><trkpt lat="44.4000537" lon="7.8111759"><ele>417.0</ele><time>2026-05-03T16:55:11.417Z</time></trkpt><trkpt lat="44.4001906" lon="7.8110661"><ele>417.0</ele><time>2026-05-03T16:55:12.415Z</time></trkpt><trkpt lat="44.400327" lon="7.8109588"><ele>417.33333333333337</ele><time>2026-05-03T16:55:13.403Z</time></trkpt><trkpt lat="44.4004638" lon="7.8108531"><ele>417.6666666666667</ele><time>2026-05-03T16:55:14.408Z</time></trkpt><trkpt lat="44.4005971" lon="7.8107465"><ele>418.0</ele><time>2026-05-03T16:55:15.411Z</time></trkpt><trkpt lat="44.4007318" lon="7.810645"><ele>418.0</ele><time>2026-05-03T16:55:16.4Z</time></trkpt><trkpt lat="44.400864" lon="7.8105416"><ele>418.0</ele><time>2026-05-03T16:55:17.413Z</time></trkpt><trkpt lat="44.4009955" lon="7.8104376"><ele>418.0</ele><time>2026-05-03T16:55:18.411Z</time></trkpt><trkpt lat="44.4011314" lon="7.810339"><ele>418.0</ele><time>2026-05-03T16:55:19.395Z</time></trkpt><trkpt lat="44.4012653" lon="7.810235"><ele>418.0</ele><time>2026-05-03T16:55:20.398Z</time></trkpt><trkpt lat="44.4014012" lon="7.8101324"><ele>418.0</ele><time>2026-05-03T16:55:21.401Z</time></trkpt><trkpt lat="44.4015354" lon="7.8100311"><ele>417.75</ele><time>2026-05-03T16:55:22.409Z</time></trkpt><trkpt lat="44.4016668" lon="7.8099278"><ele>417.5</ele><time>2026-05-03T16:55:23.394Z</time></trkpt><trkpt lat="44.4017943" lon="7.8098227"><ele>417.25</ele><time>2026-05-03T16:55:24.417Z</time></trkpt><trkpt lat="44.4019238" lon="7.80972"><ele>417.0</ele><time>2026-05-03T16:55:25.408Z</time></trkpt><trkpt lat="44.4020521" lon="7.8096177"><ele>417.33333333333337</ele><time>2026-05-03T16:55:26.402Z</time></trkpt><trkpt lat="44.4021844" lon="7.8095136"><ele>417.6666666666667</ele><time>2026-05-03T16:55:27.417Z</time></trkpt><trkpt lat="44.4023187" lon="7.8094062"><ele>418.0</ele><time>2026-05-03T16:55:28.408Z</time></trkpt><trkpt lat="44.4024516" lon="7.8093012"><ele>418.33333333333337</ele><time>2026-05-03T16:55:29.39Z</time></trkpt><trkpt lat="44.4025933" lon="7.8091878"><ele>418.66666666666663</ele><time>2026-05-03T16:55:30.401Z</time></trkpt><trkpt lat="44.402732" lon="7.8090669"><ele>419.0</ele><time>2026-05-03T16:55:31.387Z</time></trkpt><trkpt lat="44.4028738" lon="7.8089446"><ele>418.3333333333333</ele><time>2026-05-03T16:55:32.412Z</time></trkpt><trkpt lat="44.4030231" lon="7.8088328"><ele>417.66666666666663</ele><time>2026-05-03T16:55:33.411Z</time></trkpt><trkpt lat="44.4031752" lon="7.8087178"><ele>417.0</ele><time>2026-05-03T16:55:34.4Z</time></trkpt><trkpt lat="44.4033279" lon="7.8086036"><ele>417.0</ele><time>2026-05-03T16:55:35.406Z</time></trkpt><trkpt lat="44.4034787" lon="7.8084884"><ele>417.0</ele><time>2026-05-03T16:55:36.409Z</time></trkpt><trkpt lat="44.4036337" lon="7.8083666"><ele>417.0</ele><time>2026-05-03T16:55:37.398Z</time></trkpt><trkpt lat="44.4037904" lon="7.8082455"><ele>417.0</ele><time>2026-05-03T16:55:38.408Z</time></trkpt><trkpt lat="44.4039501" lon="7.8081212"><ele>417.0</ele><time>2026-05-03T16:55:39.398Z</time></trkpt><trkpt lat="44.4041124" lon="7.8079957"><ele>417.0</ele><time>2026-05-03T16:55:40.399Z</time></trkpt><trkpt lat="44.4042742" lon="7.8078642"><ele>417.0</ele><time>2026-05-03T16:55:41.422Z</time></trkpt><trkpt lat="44.4044394" lon="7.8077347"><ele>417.0</ele><time>2026-05-03T16:55:42.401Z</time></trkpt><trkpt lat="44.4046067" lon="7.8076069"><ele>417.0</ele><time>2026-05-03T16:55:43.407Z</time></trkpt><trkpt lat="44.4047737" lon="7.8074792"><ele>416.33333333333337</ele><time>2026-05-03T16:55:44.402Z</time></trkpt><trkpt lat="44.4049421" lon="7.8073507"><ele>415.6666666666667</ele><time>2026-05-03T16:55:45.409Z</time></trkpt><trkpt lat="44.4051082" lon="7.8072189"><ele>415.0</ele><time>2026-05-03T16:55:46.413Z</time></trkpt><trkpt lat="44.4052762" lon="7.8070925"><ele>415.0</ele><time>2026-05-03T16:55:47.4Z</time></trkpt><trkpt lat="44.4054462" lon="7.8069627"><ele>415.0</ele><time>2026-05-03T16:55:48.411Z</time></trkpt><trkpt lat="44.4056164" lon="7.8068343"><ele>415.0</ele><time>2026-05-03T16:55:49.4Z</time></trkpt><trkpt lat="44.4057841" lon="7.8067029"><ele>414.33333333333337</ele><time>2026-05-03T16:55:50.392Z</time></trkpt><trkpt lat="44.4059545" lon="7.8065763"><ele>413.66666666666663</ele><time>2026-05-03T16:55:51.409Z</time></trkpt><trkpt lat="44.406122" lon="7.8064491"><ele>413.0</ele><time>2026-05-03T16:55:52.404Z</time></trkpt><trkpt lat="44.406289" lon="7.8063201"><ele>412.66666666666663</ele><time>2026-05-03T16:55:53.396Z</time></trkpt><trkpt lat="44.4064567" lon="7.8061871"><ele>412.33333333333337</ele><time>2026-05-03T16:55:54.412Z</time></trkpt><trkpt lat="44.4066257" lon="7.8060552"><ele>412.0</ele><time>2026-05-03T16:55:55.408Z</time></trkpt><trkpt lat="44.4067949" lon="7.8059276"><ele>411.6666666666667</ele><time>2026-05-03T16:55:56.392Z</time></trkpt><trkpt lat="44.4069631" lon="7.8058089"><ele>411.33333333333337</ele><time>2026-05-03T16:55:57.406Z</time></trkpt><trkpt lat="44.4071327" lon="7.8056931"><ele>411.0</ele><time>2026-05-03T16:55:58.404Z</time></trkpt><trkpt lat="44.4073007" lon="7.8055731"><ele>411.0</ele><time>2026-05-03T16:55:59.403Z</time></trkpt><trkpt lat="44.4074694" lon="7.8054541"><ele>411.0</ele><time>2026-05-03T16:56:00.409Z</time></trkpt><trkpt lat="44.4076363" lon="7.8053357"><ele>411.0</ele><time>2026-05-03T16:56:01.393Z</time></trkpt><trkpt lat="44.407803" lon="7.8052183"><ele>411.0</ele><time>2026-05-03T16:56:02.413Z</time></trkpt><trkpt lat="44.4079694" lon="7.8051016"><ele>411.0</ele><time>2026-05-03T16:56:03.407Z</time></trkpt><trkpt lat="44.4081359" lon="7.8049858"><ele>411.0</ele><time>2026-05-03T16:56:04.407Z</time></trkpt><trkpt lat="44.4082963" lon="7.8048745"><ele>410.33333333333337</ele><time>2026-05-03T16:56:05.405Z</time></trkpt><trkpt lat="44.4084437" lon="7.8047652"><ele>409.6666666666667</ele><time>2026-05-03T16:56:06.399Z</time></trkpt><trkpt lat="44.4085781" lon="7.8046522"><ele>409.0</ele><time>2026-05-03T16:56:07.405Z</time></trkpt><trkpt lat="44.4086916" lon="7.8045396"><ele>409.0</ele><time>2026-05-03T16:56:08.404Z</time></trkpt><trkpt lat="44.408792" lon="7.8044262"><ele>409.0</ele><time>2026-05-03T16:56:09.408Z</time></trkpt><trkpt lat="44.4088899" lon="7.8043286"><ele>409.0</ele><time>2026-05-03T16:56:10.412Z</time></trkpt><trkpt lat="44.408999" lon="7.8042476"><ele>409.0</ele><time>2026-05-03T16:56:11.401Z</time></trkpt><trkpt lat="44.409102" lon="7.804182"><ele>408.83333333333337</ele><time>2026-05-03T16:56:12.399Z</time></trkpt><trkpt lat="44.4091867" lon="7.804109"><ele>408.6666666666667</ele><time>2026-05-03T16:56:13.4Z</time></trkpt><trkpt lat="44.4092547" lon="7.8040323"><ele>408.5</ele><time>2026-05-03T16:56:14.388Z</time></trkpt><trkpt lat="44.4093113" lon="7.8039459"><ele>408.33333333333337</ele><time>2026-05-03T16:56:15.411Z</time></trkpt><trkpt lat="44.4093645" lon="7.8038559"><ele>408.1666666666667</ele><time>2026-05-03T16:56:16.388Z</time></trkpt><trkpt lat="44.4094252" lon="7.8037828"><ele>408.0</ele><time>2026-05-03T16:56:17.398Z</time></trkpt><trkpt lat="44.4094908" lon="7.803725"><ele>408.0</ele><time>2026-05-03T16:56:18.404Z</time></trkpt><trkpt lat="44.4095735" lon="7.8036723"><ele>408.0</ele><time>2026-05-03T16:56:19.403Z</time></trkpt><trkpt lat="44.4096622" lon="7.8036276"><ele>408.0</ele><time>2026-05-03T16:56:20.397Z</time></trkpt><trkpt lat="44.4097513" lon="7.8035848"><ele>408.0</ele><time>2026-05-03T16:56:21.402Z</time></trkpt><trkpt lat="44.4098363" lon="7.8035392"><ele>408.0</ele><time>2026-05-03T16:56:22.395Z</time></trkpt><trkpt lat="44.409927" lon="7.8034952"><ele>407.79999999999995</ele><time>2026-05-03T16:56:23.41Z</time></trkpt><trkpt lat="44.4100138" lon="7.803446"><ele>407.6</ele><time>2026-05-03T16:56:24.394Z</time></trkpt><trkpt lat="44.4101008" lon="7.8034004"><ele>407.4</ele><time>2026-05-03T16:56:25.407Z</time></trkpt><trkpt lat="44.4101829" lon="7.8033466"><ele>407.20000000000005</ele><time>2026-05-03T16:56:26.401Z</time></trkpt><trkpt lat="44.4102625" lon="7.8033009"><ele>407.0</ele><time>2026-05-03T16:56:27.406Z</time></trkpt><trkpt lat="44.4103445" lon="7.8032504"><ele>406.99999999999994</ele><time>2026-05-03T16:56:28.399Z</time></trkpt><trkpt lat="44.4104195" lon="7.8032045"><ele>407.0</ele><time>2026-05-03T16:56:29.403Z</time></trkpt><trkpt lat="44.4104891" lon="7.8031543"><ele>407.0</ele><time>2026-05-03T16:56:30.418Z</time></trkpt><trkpt lat="44.4105592" lon="7.8031109"><ele>407.0</ele><time>2026-05-03T16:56:31.4Z</time></trkpt><trkpt lat="44.4106334" lon="7.8030648"><ele>406.99999999999994</ele><time>2026-05-03T16:56:32.407Z</time></trkpt><trkpt lat="44.4107066" lon="7.8030108"><ele>407.0</ele><time>2026-05-03T16:56:33.396Z</time></trkpt><trkpt lat="44.4107797" lon="7.8029501"><ele>406.8</ele><time>2026-05-03T16:56:34.409Z</time></trkpt><trkpt lat="44.4108553" lon="7.8028919"><ele>406.6</ele><time>2026-05-03T16:56:35.409Z</time></trkpt><trkpt lat="44.4109324" lon="7.8028303"><ele>406.40000000000003</ele><time>2026-05-03T16:56:36.391Z</time></trkpt><trkpt lat="44.4110073" lon="7.8027663"><ele>406.20000000000005</ele><time>2026-05-03T16:56:37.395Z</time></trkpt><trkpt lat="44.411088" lon="7.802695"><ele>406.0</ele><time>2026-05-03T16:56:38.4Z</time></trkpt><trkpt lat="44.4111797" lon="7.8026215"><ele>406.0</ele><time>2026-05-03T16:56:39.401Z</time></trkpt><trkpt lat="44.4112736" lon="7.8025491"><ele>406.0</ele><time>2026-05-03T16:56:40.401Z</time></trkpt><trkpt lat="44.411369" lon="7.8024798"><ele>406.0</ele><time>2026-05-03T16:56:41.414Z</time></trkpt><trkpt lat="44.4114653" lon="7.8024054"><ele>406.0</ele><time>2026-05-03T16:56:42.397Z</time></trkpt><trkpt lat="44.4115632" lon="7.8023342"><ele>406.0</ele><time>2026-05-03T16:56:43.423Z</time></trkpt><trkpt lat="44.4116594" lon="7.8022606"><ele>406.0</ele><time>2026-05-03T16:56:44.394Z</time></trkpt><trkpt lat="44.4117549" lon="7.8021889"><ele>406.0</ele><time>2026-05-03T16:56:45.403Z</time></trkpt><trkpt lat="44.4118481" lon="7.8021205"><ele>406.0</ele><time>2026-05-03T16:56:46.397Z</time></trkpt><trkpt lat="44.4119493" lon="7.8020553"><ele>406.0</ele><time>2026-05-03T16:56:47.397Z</time></trkpt><trkpt lat="44.4120548" lon="7.8019891"><ele>406.0</ele><time>2026-05-03T16:56:48.405Z</time></trkpt><trkpt lat="44.4121671" lon="7.8019116"><ele>406.5</ele><time>2026-05-03T16:56:49.402Z</time></trkpt><trkpt lat="44.4122803" lon="7.8018232"><ele>407.0</ele><time>2026-05-03T16:56:50.392Z</time></trkpt><trkpt lat="44.4123911" lon="7.8017358"><ele>407.5</ele><time>2026-05-03T16:56:51.409Z</time></trkpt><trkpt lat="44.4124996" lon="7.8016613"><ele>408.0</ele><time>2026-05-03T16:56:52.395Z</time></trkpt><trkpt lat="44.4126089" lon="7.8016121"><ele>408.0</ele><time>2026-05-03T16:56:53.407Z</time></trkpt><trkpt lat="44.4127176" lon="7.8015992"><ele>408.0</ele><time>2026-05-03T16:56:54.389Z</time></trkpt><trkpt lat="44.4128214" lon="7.8016324"><ele>408.0</ele><time>2026-05-03T16:56:55.402Z</time></trkpt><trkpt lat="44.4129283" lon="7.8017093"><ele>408.0</ele><time>2026-05-03T16:56:56.4Z</time></trkpt><trkpt lat="44.4130355" lon="7.8018191"><ele>407.5</ele><time>2026-05-03T16:56:57.399Z</time></trkpt><trkpt lat="44.4131421" lon="7.8019294"><ele>407.0</ele><time>2026-05-03T16:56:58.398Z</time></trkpt><trkpt lat="44.4132469" lon="7.8020154"><ele>406.5</ele><time>2026-05-03T16:56:59.412Z</time></trkpt><trkpt lat="44.4133602" lon="7.8020606"><ele>406.0</ele><time>2026-05-03T16:57:00.392Z</time></trkpt><trkpt lat="44.41348" lon="7.8020565"><ele>406.0</ele><time>2026-05-03T16:57:01.41Z</time></trkpt><trkpt lat="44.4135969" lon="7.8019965"><ele>406.0</ele><time>2026-05-03T16:57:02.399Z</time></trkpt><trkpt lat="44.4136927" lon="7.8018847"><ele>406.0</ele><time>2026-05-03T16:57:03.4Z</time></trkpt><trkpt lat="44.4137722" lon="7.8017304"><ele>406.0</ele><time>2026-05-03T16:57:04.42Z</time></trkpt><trkpt lat="44.41383" lon="7.8015374"><ele>405.6666666666667</ele><time>2026-05-03T16:57:05.393Z</time></trkpt><trkpt lat="44.4138811" lon="7.8013205"><ele>405.33333333333337</ele><time>2026-05-03T16:57:06.406Z</time></trkpt><trkpt lat="44.4139344" lon="7.8010835"><ele>405.0</ele><time>2026-05-03T16:57:07.412Z</time></trkpt><trkpt lat="44.4139886" lon="7.800847"><ele>405.0</ele><time>2026-05-03T16:57:08.398Z</time></trkpt><trkpt lat="44.4140469" lon="7.8006014"><ele>405.0</ele><time>2026-05-03T16:57:09.406Z</time></trkpt><trkpt lat="44.4141124" lon="7.8003486"><ele>405.0</ele><time>2026-05-03T16:57:10.408Z</time></trkpt><trkpt lat="44.414186" lon="7.800094"><ele>405.66666666666663</ele><time>2026-05-03T16:57:11.389Z</time></trkpt><trkpt lat="44.4142643" lon="7.7998399"><ele>406.3333333333333</ele><time>2026-05-03T16:57:12.413Z</time></trkpt><trkpt lat="44.4143376" lon="7.7995928"><ele>407.0</ele><time>2026-05-03T16:57:13.39Z</time></trkpt><trkpt lat="44.4144023" lon="7.7993405"><ele>407.3333333333333</ele><time>2026-05-03T16:57:14.403Z</time></trkpt><trkpt lat="44.4144575" lon="7.7990759"><ele>407.66666666666663</ele><time>2026-05-03T16:57:15.396Z</time></trkpt><trkpt lat="44.4145031" lon="7.7988069"><ele>408.0</ele><time>2026-05-03T16:57:16.413Z</time></trkpt><trkpt lat="44.4145355" lon="7.7985302"><ele>408.33333333333337</ele><time>2026-05-03T16:57:17.402Z</time></trkpt><trkpt lat="44.4145477" lon="7.7982432"><ele>408.6666666666667</ele><time>2026-05-03T16:57:18.399Z</time></trkpt><trkpt lat="44.4145378" lon="7.7979466"><ele>409.0</ele><time>2026-05-03T16:57:19.409Z</time></trkpt><trkpt lat="44.4144998" lon="7.7976472"><ele>408.6666666666667</ele><time>2026-05-03T16:57:20.401Z</time></trkpt><trkpt lat="44.414439" lon="7.7973488"><ele>408.33333333333337</ele><time>2026-05-03T16:57:21.396Z</time></trkpt><trkpt lat="44.4143688" lon="7.7970459"><ele>408.0</ele><time>2026-05-03T16:57:22.411Z</time></trkpt><trkpt lat="44.4142986" lon="7.7967497"><ele>408.0</ele><time>2026-05-03T16:57:23.396Z</time></trkpt><trkpt lat="44.4142259" lon="7.7964617"><ele>408.0</ele><time>2026-05-03T16:57:24.417Z</time></trkpt><trkpt lat="44.4141581" lon="7.79617"><ele>408.0</ele><time>2026-05-03T16:57:25.414Z</time></trkpt><trkpt lat="44.4140909" lon="7.7958876"><ele>407.66666666666663</ele><time>2026-05-03T16:57:26.414Z</time></trkpt><trkpt lat="44.4140247" lon="7.795614"><ele>407.3333333333333</ele><time>2026-05-03T16:57:27.4Z</time></trkpt><trkpt lat="44.4139584" lon="7.7953451"><ele>407.0</ele><time>2026-05-03T16:57:28.413Z</time></trkpt><trkpt lat="44.4138976" lon="7.7950818"><ele>406.66666666666663</ele><time>2026-05-03T16:57:29.413Z</time></trkpt><trkpt lat="44.413837" lon="7.7948329"><ele>406.33333333333337</ele><time>2026-05-03T16:57:30.397Z</time></trkpt><trkpt lat="44.4137822" lon="7.7945933"><ele>406.0</ele><time>2026-05-03T16:57:31.409Z</time></trkpt><trkpt lat="44.4137269" lon="7.7943588"><ele>408.33333333333337</ele><time>2026-05-03T16:57:32.407Z</time></trkpt><trkpt lat="44.4136732" lon="7.7941298"><ele>410.66666666666663</ele><time>2026-05-03T16:57:33.408Z</time></trkpt><trkpt lat="44.4136183" lon="7.7939007"><ele>413.0</ele><time>2026-05-03T16:57:34.395Z</time></trkpt><trkpt lat="44.4135615" lon="7.7936777"><ele>412.0</ele><time>2026-05-03T16:57:35.413Z</time></trkpt><trkpt lat="44.4135034" lon="7.793453"><ele>411.0</ele><time>2026-05-03T16:57:36.389Z</time></trkpt><trkpt lat="44.4134455" lon="7.7932319"><ele>410.0</ele><time>2026-05-03T16:57:37.408Z</time></trkpt><trkpt lat="44.41339" lon="7.7930046"><ele>410.0</ele><time>2026-05-03T16:57:38.429Z</time></trkpt><trkpt lat="44.4133345" lon="7.7927699"><ele>410.0</ele><time>2026-05-03T16:57:39.399Z</time></trkpt><trkpt lat="44.4132767" lon="7.792533"><ele>410.0</ele><time>2026-05-03T16:57:40.401Z</time></trkpt><trkpt lat="44.4132203" lon="7.7922867"><ele>409.66666666666663</ele><time>2026-05-03T16:57:41.402Z</time></trkpt><trkpt lat="44.4131577" lon="7.7920395"><ele>409.33333333333337</ele><time>2026-05-03T16:57:42.406Z</time></trkpt><trkpt lat="44.4130889" lon="7.7917935"><ele>409.0</ele><time>2026-05-03T16:57:43.4Z</time></trkpt><trkpt lat="44.4130122" lon="7.7915491"><ele>410.33333333333337</ele><time>2026-05-03T16:57:44.402Z</time></trkpt><trkpt lat="44.4129359" lon="7.7913006"><ele>411.66666666666663</ele><time>2026-05-03T16:57:45.397Z</time></trkpt><trkpt lat="44.4128557" lon="7.7910515"><ele>413.0</ele><time>2026-05-03T16:57:46.417Z</time></trkpt><trkpt lat="44.4127649" lon="7.7907998"><ele>413.0</ele><time>2026-05-03T16:57:47.395Z</time></trkpt><trkpt lat="44.4126711" lon="7.7905496"><ele>413.0</ele><time>2026-05-03T16:57:48.397Z</time></trkpt><trkpt lat="44.4125722" lon="7.7902951"><ele>413.0</ele><time>2026-05-03T16:57:49.405Z</time></trkpt><trkpt lat="44.4124674" lon="7.7900314"><ele>412.0</ele><time>2026-05-03T16:57:50.395Z</time></trkpt><trkpt lat="44.4123546" lon="7.7897589"><ele>411.0</ele><time>2026-05-03T16:57:51.411Z</time></trkpt><trkpt lat="44.4122385" lon="7.7894844"><ele>413.0</ele><time>2026-05-03T16:57:52.397Z</time></trkpt><trkpt lat="44.4121241" lon="7.789209"><ele>415.0</ele><time>2026-05-03T16:57:53.399Z</time></trkpt><trkpt lat="44.4120157" lon="7.7889373"><ele>415.0</ele><time>2026-05-03T16:57:54.407Z</time></trkpt><trkpt lat="44.411909" lon="7.7886731"><ele>415.0</ele><time>2026-05-03T16:57:55.397Z</time></trkpt><trkpt lat="44.4118093" lon="7.7884154"><ele>415.0</ele><time>2026-05-03T16:57:56.4Z</time></trkpt><trkpt lat="44.4117075" lon="7.7881678"><ele>414.33333333333337</ele><time>2026-05-03T16:57:57.412Z</time></trkpt><trkpt lat="44.4116141" lon="7.7879215"><ele>413.66666666666663</ele><time>2026-05-03T16:57:58.401Z</time></trkpt><trkpt lat="44.4115231" lon="7.7876784"><ele>413.0</ele><time>2026-05-03T16:57:59.417Z</time></trkpt><trkpt lat="44.4114324" lon="7.7874388"><ele>413.0</ele><time>2026-05-03T16:58:00.405Z</time></trkpt><trkpt lat="44.4113423" lon="7.7872066"><ele>413.0</ele><time>2026-05-03T16:58:01.384Z</time></trkpt><trkpt lat="44.4112509" lon="7.7869813"><ele>413.0</ele><time>2026-05-03T16:58:02.393Z</time></trkpt><trkpt lat="44.4111612" lon="7.7867555"><ele>413.0</ele><time>2026-05-03T16:58:03.387Z</time></trkpt><trkpt lat="44.4110703" lon="7.7865322"><ele>413.0</ele><time>2026-05-03T16:58:04.405Z</time></trkpt><trkpt lat="44.4109786" lon="7.7863089"><ele>413.0</ele><time>2026-05-03T16:58:05.431Z</time></trkpt><trkpt lat="44.4108909" lon="7.7860872"><ele>412.0</ele><time>2026-05-03T16:58:06.394Z</time></trkpt><trkpt lat="44.4108034" lon="7.7858677"><ele>411.0</ele><time>2026-05-03T16:58:07.41Z</time></trkpt><trkpt lat="44.4107123" lon="7.7856534"><ele>410.0</ele><time>2026-05-03T16:58:08.402Z</time></trkpt><trkpt lat="44.4106256" lon="7.7854361"><ele>410.0</ele><time>2026-05-03T16:58:09.406Z</time></trkpt><trkpt lat="44.4105412" lon="7.7852223"><ele>410.0</ele><time>2026-05-03T16:58:10.407Z</time></trkpt><trkpt lat="44.4104586" lon="7.7850128"><ele>410.0</ele><time>2026-05-03T16:58:11.414Z</time></trkpt><trkpt lat="44.4103807" lon="7.7848068"><ele>410.66666666666663</ele><time>2026-05-03T16:58:12.408Z</time></trkpt><trkpt lat="44.4102991" lon="7.7846032"><ele>411.33333333333337</ele><time>2026-05-03T16:58:13.404Z</time></trkpt><trkpt lat="44.4102229" lon="7.7844135"><ele>412.0</ele><time>2026-05-03T16:58:14.401Z</time></trkpt><trkpt lat="44.4101518" lon="7.7842293"><ele>412.0</ele><time>2026-05-03T16:58:15.41Z</time></trkpt><trkpt lat="44.4100879" lon="7.7840585"><ele>412.0</ele><time>2026-05-03T16:58:16.396Z</time></trkpt><trkpt lat="44.4100271" lon="7.7838991"><ele>412.0</ele><time>2026-05-03T16:58:17.413Z</time></trkpt><trkpt lat="44.4099694" lon="7.7837475"><ele>412.0</ele><time>2026-05-03T16:58:18.409Z</time></trkpt><trkpt lat="44.4099174" lon="7.7836112"><ele>411.8</ele><time>2026-05-03T16:58:19.416Z</time></trkpt><trkpt lat="44.4098679" lon="7.7834814"><ele>411.6</ele><time>2026-05-03T16:58:20.402Z</time></trkpt><trkpt lat="44.4098241" lon="7.7833615"><ele>411.40000000000003</ele><time>2026-05-03T16:58:21.39Z</time></trkpt><trkpt lat="44.4097847" lon="7.7832352"><ele>411.20000000000005</ele><time>2026-05-03T16:58:22.384Z</time></trkpt><trkpt lat="44.4097483" lon="7.7830977"><ele>411.0</ele><time>2026-05-03T16:58:23.391Z</time></trkpt><trkpt lat="44.4096977" lon="7.7829593"><ele>411.25</ele><time>2026-05-03T16:58:24.406Z</time></trkpt><trkpt lat="44.4096277" lon="7.7828348"><ele>411.5</ele><time>2026-05-03T16:58:25.392Z</time></trkpt><trkpt lat="44.4095521" lon="7.7827127"><ele>411.75</ele><time>2026-05-03T16:58:26.399Z</time></trkpt><trkpt lat="44.409487" lon="7.7825764"><ele>412.0</ele><time>2026-05-03T16:58:27.402Z</time></trkpt><trkpt lat="44.4094182" lon="7.782418"><ele>412.33333333333337</ele><time>2026-05-03T16:58:28.401Z</time></trkpt><trkpt lat="44.4093407" lon="7.7822479"><ele>412.66666666666663</ele><time>2026-05-03T16:58:29.416Z</time></trkpt><trkpt lat="44.4092605" lon="7.7820628"><ele>413.0</ele><time>2026-05-03T16:58:30.407Z</time></trkpt><trkpt lat="44.4091804" lon="7.7818594"><ele>412.66666666666663</ele><time>2026-05-03T16:58:31.408Z</time></trkpt><trkpt lat="44.4091005" lon="7.7816496"><ele>412.33333333333337</ele><time>2026-05-03T16:58:32.399Z</time></trkpt><trkpt lat="44.4090201" lon="7.7814389"><ele>412.0</ele><time>2026-05-03T16:58:33.397Z</time></trkpt><trkpt lat="44.4089332" lon="7.7812255"><ele>412.0</ele><time>2026-05-03T16:58:34.406Z</time></trkpt><trkpt lat="44.4088412" lon="7.7810058"><ele>412.0</ele><time>2026-05-03T16:58:35.394Z</time></trkpt><trkpt lat="44.4087519" lon="7.7807803"><ele>412.0</ele><time>2026-05-03T16:58:36.401Z</time></trkpt><trkpt lat="44.4086659" lon="7.7805591"><ele>412.0</ele><time>2026-05-03T16:58:37.4Z</time></trkpt><trkpt lat="44.408579" lon="7.7803399"><ele>412.0</ele><time>2026-05-03T16:58:38.399Z</time></trkpt><trkpt lat="44.4084941" lon="7.780124"><ele>412.0</ele><time>2026-05-03T16:58:39.395Z</time></trkpt><trkpt lat="44.4084064" lon="7.7799077"><ele>411.6666666666667</ele><time>2026-05-03T16:58:40.412Z</time></trkpt><trkpt lat="44.4083178" lon="7.7796867"><ele>411.33333333333337</ele><time>2026-05-03T16:58:41.395Z</time></trkpt><trkpt lat="44.4082289" lon="7.7794561"><ele>411.0</ele><time>2026-05-03T16:58:42.403Z</time></trkpt><trkpt lat="44.40814" lon="7.7792224"><ele>411.66666666666663</ele><time>2026-05-03T16:58:43.408Z</time></trkpt><trkpt lat="44.4080539" lon="7.7789831"><ele>412.3333333333333</ele><time>2026-05-03T16:58:44.406Z</time></trkpt><trkpt lat="44.4079633" lon="7.7787445"><ele>413.0</ele><time>2026-05-03T16:58:45.397Z</time></trkpt><trkpt lat="44.4078714" lon="7.7785026"><ele>413.0</ele><time>2026-05-03T16:58:46.399Z</time></trkpt><trkpt lat="44.4077804" lon="7.7782614"><ele>413.0</ele><time>2026-05-03T16:58:47.409Z</time></trkpt><trkpt lat="44.4076889" lon="7.7780211"><ele>413.0</ele><time>2026-05-03T16:58:48.396Z</time></trkpt><trkpt lat="44.4075971" lon="7.7777823"><ele>413.3333333333333</ele><time>2026-05-03T16:58:49.4Z</time></trkpt><trkpt lat="44.4075044" lon="7.7775465"><ele>413.66666666666663</ele><time>2026-05-03T16:58:50.397Z</time></trkpt><trkpt lat="44.4074131" lon="7.7773086"><ele>414.0</ele><time>2026-05-03T16:58:51.406Z</time></trkpt><trkpt lat="44.4073219" lon="7.7770731"><ele>414.33333333333337</ele><time>2026-05-03T16:58:52.426Z</time></trkpt><trkpt lat="44.4072292" lon="7.7768355"><ele>414.6666666666667</ele><time>2026-05-03T16:58:53.403Z</time></trkpt><trkpt lat="44.4071328" lon="7.7765943"><ele>415.0</ele><time>2026-05-03T16:58:54.386Z</time></trkpt><trkpt lat="44.4070394" lon="7.7763492"><ele>415.33333333333337</ele><time>2026-05-03T16:58:55.413Z</time></trkpt><trkpt lat="44.406941" lon="7.7761051"><ele>415.66666666666663</ele><time>2026-05-03T16:58:56.394Z</time></trkpt><trkpt lat="44.4068467" lon="7.7758573"><ele>416.0</ele><time>2026-05-03T16:58:57.404Z</time></trkpt><trkpt lat="44.4067526" lon="7.7756064"><ele>416.0</ele><time>2026-05-03T16:58:58.395Z</time></trkpt><trkpt lat="44.4066596" lon="7.7753622"><ele>416.0</ele><time>2026-05-03T16:58:59.401Z</time></trkpt><trkpt lat="44.4065733" lon="7.7751285"><ele>416.0</ele><time>2026-05-03T16:59:00.402Z</time></trkpt><trkpt lat="44.4064858" lon="7.774903"><ele>415.66666666666663</ele><time>2026-05-03T16:59:01.408Z</time></trkpt><trkpt lat="44.4064041" lon="7.7746754"><ele>415.33333333333337</ele><time>2026-05-03T16:59:02.414Z</time></trkpt><trkpt lat="44.4063192" lon="7.7744532"><ele>415.0</ele><time>2026-05-03T16:59:03.401Z</time></trkpt><trkpt lat="44.4062341" lon="7.7742352"><ele>415.0</ele><time>2026-05-03T16:59:04.395Z</time></trkpt><trkpt lat="44.4061515" lon="7.774019"><ele>415.0</ele><time>2026-05-03T16:59:05.406Z</time></trkpt><trkpt lat="44.4060741" lon="7.7738097"><ele>415.0</ele><time>2026-05-03T16:59:06.413Z</time></trkpt><trkpt lat="44.4060016" lon="7.7736084"><ele>415.33333333333337</ele><time>2026-05-03T16:59:07.4Z</time></trkpt><trkpt lat="44.4059339" lon="7.7734058"><ele>415.66666666666663</ele><time>2026-05-03T16:59:08.396Z</time></trkpt><trkpt lat="44.4058677" lon="7.7732017"><ele>416.0</ele><time>2026-05-03T16:59:09.408Z</time></trkpt><trkpt lat="44.4058087" lon="7.7729967"><ele>416.0</ele><time>2026-05-03T16:59:10.407Z</time></trkpt><trkpt lat="44.4057549" lon="7.7727886"><ele>416.0</ele><time>2026-05-03T16:59:11.397Z</time></trkpt><trkpt lat="44.4057049" lon="7.7725755"><ele>416.0</ele><time>2026-05-03T16:59:12.409Z</time></trkpt><trkpt lat="44.4056619" lon="7.7723581"><ele>416.3333333333333</ele><time>2026-05-03T16:59:13.404Z</time></trkpt><trkpt lat="44.4056196" lon="7.772136"><ele>416.66666666666663</ele><time>2026-05-03T16:59:14.398Z</time></trkpt><trkpt lat="44.4055801" lon="7.7719039"><ele>417.0</ele><time>2026-05-03T16:59:15.417Z</time></trkpt><trkpt lat="44.4055419" lon="7.7716645"><ele>417.0</ele><time>2026-05-03T16:59:16.404Z</time></trkpt><trkpt lat="44.4055079" lon="7.7714125"><ele>417.0</ele><time>2026-05-03T16:59:17.399Z</time></trkpt><trkpt lat="44.4054736" lon="7.7711555"><ele>417.0</ele><time>2026-05-03T16:59:18.404Z</time></trkpt><trkpt lat="44.4054346" lon="7.7709005"><ele>417.33333333333337</ele><time>2026-05-03T16:59:19.407Z</time></trkpt><trkpt lat="44.405398" lon="7.7706389"><ele>417.6666666666667</ele><time>2026-05-03T16:59:20.411Z</time></trkpt><trkpt lat="44.4053601" lon="7.7703766"><ele>418.0</ele><time>2026-05-03T16:59:21.399Z</time></trkpt><trkpt lat="44.405321" lon="7.7701109"><ele>418.33333333333337</ele><time>2026-05-03T16:59:22.403Z</time></trkpt><trkpt lat="44.4052804" lon="7.7698473"><ele>418.66666666666663</ele><time>2026-05-03T16:59:23.39Z</time></trkpt><trkpt lat="44.4052402" lon="7.769579"><ele>419.0</ele><time>2026-05-03T16:59:24.393Z</time></trkpt><trkpt lat="44.4051942" lon="7.769308"><ele>419.0</ele><time>2026-05-03T16:59:25.425Z</time></trkpt><trkpt lat="44.4051478" lon="7.76903"><ele>419.0</ele><time>2026-05-03T16:59:26.396Z</time></trkpt><trkpt lat="44.4051007" lon="7.7687331"><ele>419.0</ele><time>2026-05-03T16:59:27.412Z</time></trkpt><trkpt lat="44.4050518" lon="7.768418"><ele>419.5</ele><time>2026-05-03T16:59:28.407Z</time></trkpt><trkpt lat="44.4049964" lon="7.7680771"><ele>420.0</ele><time>2026-05-03T16:59:29.411Z</time></trkpt><trkpt lat="44.4049447" lon="7.7677234"><ele>419.5</ele><time>2026-05-03T16:59:30.406Z</time></trkpt><trkpt lat="44.4048926" lon="7.7673531"><ele>419.0</ele><time>2026-05-03T16:59:31.398Z</time></trkpt><trkpt lat="44.4048433" lon="7.7669704"><ele>419.0</ele><time>2026-05-03T16:59:32.393Z</time></trkpt><trkpt lat="44.4047942" lon="7.7665871"><ele>419.0</ele><time>2026-05-03T16:59:33.409Z</time></trkpt><trkpt lat="44.4047452" lon="7.7662129"><ele>419.5</ele><time>2026-05-03T16:59:34.407Z</time></trkpt><trkpt lat="44.4046918" lon="7.7658456"><ele>420.0</ele><time>2026-05-03T16:59:35.405Z</time></trkpt><trkpt lat="44.4046399" lon="7.765485"><ele>421.5</ele><time>2026-05-03T16:59:36.396Z</time></trkpt><trkpt lat="44.4045886" lon="7.7651325"><ele>423.0</ele><time>2026-05-03T16:59:37.411Z</time></trkpt><trkpt lat="44.4045394" lon="7.7647813"><ele>423.0</ele><time>2026-05-03T16:59:38.389Z</time></trkpt><trkpt lat="44.404486" lon="7.7644381"><ele>423.0</ele><time>2026-05-03T16:59:39.399Z</time></trkpt><trkpt lat="44.4044349" lon="7.7640986"><ele>423.0</ele><time>2026-05-03T16:59:40.383Z</time></trkpt><trkpt lat="44.4043836" lon="7.7637559"><ele>423.0</ele><time>2026-05-03T16:59:41.416Z</time></trkpt><trkpt lat="44.4043309" lon="7.7634172"><ele>423.0</ele><time>2026-05-03T16:59:42.403Z</time></trkpt><trkpt lat="44.4042687" lon="7.7630798"><ele>423.0</ele><time>2026-05-03T16:59:43.414Z</time></trkpt><trkpt lat="44.4041978" lon="7.7627471"><ele>422.5</ele><time>2026-05-03T16:59:44.404Z</time></trkpt><trkpt lat="44.4041088" lon="7.7624222"><ele>422.0</ele><time>2026-05-03T16:59:45.409Z</time></trkpt><trkpt lat="44.4040021" lon="7.7621068"><ele>421.5</ele><time>2026-05-03T16:59:46.401Z</time></trkpt><trkpt lat="44.4038824" lon="7.7618032"><ele>421.0</ele><time>2026-05-03T16:59:47.406Z</time></trkpt><trkpt lat="44.4037464" lon="7.7615098"><ele>422.0</ele><time>2026-05-03T16:59:48.403Z</time></trkpt><trkpt lat="44.4035984" lon="7.7612291"><ele>423.0</ele><time>2026-05-03T16:59:49.409Z</time></trkpt><trkpt lat="44.4034359" lon="7.7609665"><ele>423.0</ele><time>2026-05-03T16:59:50.411Z</time></trkpt><trkpt lat="44.4032629" lon="7.7607164"><ele>423.0</ele><time>2026-05-03T16:59:51.4Z</time></trkpt><trkpt lat="44.4030921" lon="7.7604749"><ele>423.0</ele><time>2026-05-03T16:59:52.404Z</time></trkpt><trkpt lat="44.4029214" lon="7.7602373"><ele>423.0</ele><time>2026-05-03T16:59:53.397Z</time></trkpt><trkpt lat="44.4027519" lon="7.7599987"><ele>423.0</ele><time>2026-05-03T16:59:54.421Z</time></trkpt><trkpt lat="44.4025826" lon="7.7597666"><ele>423.0</ele><time>2026-05-03T16:59:55.407Z</time></trkpt><trkpt lat="44.4024137" lon="7.7595313"><ele>423.0</ele><time>2026-05-03T16:59:56.409Z</time></trkpt><trkpt lat="44.4022488" lon="7.7593001"><ele>423.0</ele><time>2026-05-03T16:59:57.404Z</time></trkpt><trkpt lat="44.4020868" lon="7.759072"><ele>422.66666666666663</ele><time>2026-05-03T16:59:58.393Z</time></trkpt><trkpt lat="44.4019307" lon="7.7588496"><ele>422.3333333333333</ele><time>2026-05-03T16:59:59.404Z</time></trkpt><trkpt lat="44.4017731" lon="7.758631"><ele>422.0</ele><time>2026-05-03T17:00:00.39Z</time></trkpt><trkpt lat="44.4016155" lon="7.7584128"><ele>422.0</ele><time>2026-05-03T17:00:01.408Z</time></trkpt><trkpt lat="44.4014584" lon="7.7581981"><ele>422.0</ele><time>2026-05-03T17:00:02.396Z</time></trkpt><trkpt lat="44.4013053" lon="7.7579829"><ele>422.0</ele><time>2026-05-03T17:00:03.397Z</time></trkpt><trkpt lat="44.4011539" lon="7.7577743"><ele>422.3333333333333</ele><time>2026-05-03T17:00:04.398Z</time></trkpt><trkpt lat="44.4010092" lon="7.7575695"><ele>422.66666666666663</ele><time>2026-05-03T17:00:05.402Z</time></trkpt><trkpt lat="44.4008645" lon="7.7573685"><ele>423.0</ele><time>2026-05-03T17:00:06.404Z</time></trkpt><trkpt lat="44.4007184" lon="7.7571665"><ele>423.0</ele><time>2026-05-03T17:00:07.405Z</time></trkpt><trkpt lat="44.4005723" lon="7.756963"><ele>423.0</ele><time>2026-05-03T17:00:08.401Z</time></trkpt><trkpt lat="44.4004235" lon="7.7567561"><ele>423.0</ele><time>2026-05-03T17:00:09.403Z</time></trkpt><trkpt lat="44.4002756" lon="7.7565488"><ele>423.33333333333337</ele><time>2026-05-03T17:00:10.402Z</time></trkpt><trkpt lat="44.4001267" lon="7.7563395"><ele>423.6666666666667</ele><time>2026-05-03T17:00:11.401Z</time></trkpt><trkpt lat="44.399977" lon="7.7561305"><ele>424.0</ele><time>2026-05-03T17:00:12.392Z</time></trkpt><trkpt lat="44.3998285" lon="7.7559208"><ele>424.0</ele><time>2026-05-03T17:00:13.406Z</time></trkpt><trkpt lat="44.3996798" lon="7.7557128"><ele>424.0</ele><time>2026-05-03T17:00:14.399Z</time></trkpt><trkpt lat="44.3995362" lon="7.755506"><ele>424.0</ele><time>2026-05-03T17:00:15.413Z</time></trkpt><trkpt lat="44.3993939" lon="7.7553062"><ele>424.33333333333337</ele><time>2026-05-03T17:00:16.423Z</time></trkpt><trkpt lat="44.3992583" lon="7.7551045"><ele>424.66666666666663</ele><time>2026-05-03T17:00:17.405Z</time></trkpt><trkpt lat="44.3991326" lon="7.7548986"><ele>425.0</ele><time>2026-05-03T17:00:18.408Z</time></trkpt><trkpt lat="44.3990237" lon="7.7546887"><ele>425.0</ele><time>2026-05-03T17:00:19.39Z</time></trkpt><trkpt lat="44.398928" lon="7.7544833"><ele>425.0</ele><time>2026-05-03T17:00:20.401Z</time></trkpt><trkpt lat="44.3988466" lon="7.7542789"><ele>425.0</ele><time>2026-05-03T17:00:21.402Z</time></trkpt><trkpt lat="44.3987743" lon="7.7540819"><ele>425.0</ele><time>2026-05-03T17:00:22.407Z</time></trkpt><trkpt lat="44.3987134" lon="7.7538895"><ele>425.0</ele><time>2026-05-03T17:00:23.409Z</time></trkpt><trkpt lat="44.3986578" lon="7.753704"><ele>425.0</ele><time>2026-05-03T17:00:24.415Z</time></trkpt><trkpt lat="44.3986053" lon="7.7535206"><ele>425.0</ele><time>2026-05-03T17:00:25.394Z</time></trkpt><trkpt lat="44.3985546" lon="7.7533416"><ele>425.25</ele><time>2026-05-03T17:00:26.397Z</time></trkpt><trkpt lat="44.3985064" lon="7.753166"><ele>425.5</ele><time>2026-05-03T17:00:27.393Z</time></trkpt><trkpt lat="44.3984583" lon="7.7529944"><ele>425.75</ele><time>2026-05-03T17:00:28.402Z</time></trkpt><trkpt lat="44.3984103" lon="7.7528238"><ele>426.0</ele><time>2026-05-03T17:00:29.391Z</time></trkpt><trkpt lat="44.3983662" lon="7.7526551"><ele>426.0</ele><time>2026-05-03T17:00:30.4Z</time></trkpt><trkpt lat="44.398319" lon="7.7524786"><ele>426.0</ele><time>2026-05-03T17:00:31.403Z</time></trkpt><trkpt lat="44.3982708" lon="7.7522906"><ele>426.0</ele><time>2026-05-03T17:00:32.401Z</time></trkpt><trkpt lat="44.3982154" lon="7.7520867"><ele>426.0</ele><time>2026-05-03T17:00:33.391Z</time></trkpt><trkpt lat="44.3981585" lon="7.7518657"><ele>426.0</ele><time>2026-05-03T17:00:34.391Z</time></trkpt><trkpt lat="44.398096" lon="7.7516244"><ele>426.0</ele><time>2026-05-03T17:00:35.41Z</time></trkpt><trkpt lat="44.3980242" lon="7.7513639"><ele>426.0</ele><time>2026-05-03T17:00:36.401Z</time></trkpt><trkpt lat="44.3979491" lon="7.7510846"><ele>426.66666666666663</ele><time>2026-05-03T17:00:37.406Z</time></trkpt><trkpt lat="44.397877" lon="7.750812"><ele>427.3333333333333</ele><time>2026-05-03T17:00:38.404Z</time></trkpt><trkpt lat="44.3978009" lon="7.7505241"><ele>428.0</ele><time>2026-05-03T17:00:39.392Z</time></trkpt><trkpt lat="44.3977244" lon="7.7502326"><ele>427.0</ele><time>2026-05-03T17:00:40.407Z</time></trkpt><trkpt lat="44.3976455" lon="7.7499344"><ele>426.0</ele><time>2026-05-03T17:00:41.413Z</time></trkpt><trkpt lat="44.3975643" lon="7.7496324"><ele>426.0</ele><time>2026-05-03T17:00:42.4Z</time></trkpt><trkpt lat="44.397484" lon="7.7493215"><ele>426.0</ele><time>2026-05-03T17:00:43.408Z</time></trkpt><trkpt lat="44.3974021" lon="7.7490093"><ele>426.0</ele><time>2026-05-03T17:00:44.397Z</time></trkpt><trkpt lat="44.3973205" lon="7.7486969"><ele>426.0</ele><time>2026-05-03T17:00:45.399Z</time></trkpt><trkpt lat="44.3972373" lon="7.7483888"><ele>427.0</ele><time>2026-05-03T17:00:46.404Z</time></trkpt><trkpt lat="44.3971536" lon="7.7480837"><ele>428.0</ele><time>2026-05-03T17:00:47.399Z</time></trkpt><trkpt lat="44.3970739" lon="7.7477843"><ele>428.66666666666663</ele><time>2026-05-03T17:00:48.408Z</time></trkpt><trkpt lat="44.3969944" lon="7.747495"><ele>429.33333333333337</ele><time>2026-05-03T17:00:49.397Z</time></trkpt><trkpt lat="44.39692" lon="7.7472149"><ele>430.0</ele><time>2026-05-03T17:00:50.41Z</time></trkpt><trkpt lat="44.3968499" lon="7.7469464"><ele>430.33333333333337</ele><time>2026-05-03T17:00:51.393Z</time></trkpt><trkpt lat="44.3967847" lon="7.7466949"><ele>430.66666666666663</ele><time>2026-05-03T17:00:52.405Z</time></trkpt><trkpt lat="44.3967236" lon="7.7464579"><ele>431.0</ele><time>2026-05-03T17:00:53.396Z</time></trkpt><trkpt lat="44.3966653" lon="7.7462457"><ele>430.5</ele><time>2026-05-03T17:00:54.409Z</time></trkpt><trkpt lat="44.3966226" lon="7.7460425"><ele>430.0</ele><time>2026-05-03T17:00:55.418Z</time></trkpt><trkpt lat="44.3965991" lon="7.7458438"><ele>429.5</ele><time>2026-05-03T17:00:56.399Z</time></trkpt><trkpt lat="44.3965707" lon="7.7456526"><ele>429.0</ele><time>2026-05-03T17:00:57.406Z</time></trkpt><trkpt lat="44.3965123" lon="7.7454702"><ele>429.0</ele><time>2026-05-03T17:00:58.403Z</time></trkpt><trkpt lat="44.3964314" lon="7.7452948"><ele>429.0</ele><time>2026-05-03T17:00:59.405Z</time></trkpt><trkpt lat="44.3963565" lon="7.7451003"><ele>429.0</ele><time>2026-05-03T17:01:00.409Z</time></trkpt><trkpt lat="44.3962988" lon="7.7448711"><ele>429.0</ele><time>2026-05-03T17:01:01.404Z</time></trkpt><trkpt lat="44.3962391" lon="7.7446238"><ele>429.0</ele><time>2026-05-03T17:01:02.398Z</time></trkpt><trkpt lat="44.3961699" lon="7.7443638"><ele>429.0</ele><time>2026-05-03T17:01:03.392Z</time></trkpt><trkpt lat="44.3960992" lon="7.7440982"><ele>428.33333333333337</ele><time>2026-05-03T17:01:04.397Z</time></trkpt><trkpt lat="44.3960278" lon="7.7438273"><ele>427.6666666666667</ele><time>2026-05-03T17:01:05.405Z</time></trkpt><trkpt lat="44.3959541" lon="7.7435514"><ele>427.0</ele><time>2026-05-03T17:01:06.396Z</time></trkpt><trkpt lat="44.3958758" lon="7.7432617"><ele>426.5</ele><time>2026-05-03T17:01:07.398Z</time></trkpt><trkpt lat="44.3957971" lon="7.7429624"><ele>426.0</ele><time>2026-05-03T17:01:08.405Z</time></trkpt><trkpt lat="44.3957162" lon="7.7426588"><ele>426.0</ele><time>2026-05-03T17:01:09.403Z</time></trkpt><trkpt lat="44.3956326" lon="7.7423471"><ele>426.0</ele><time>2026-05-03T17:01:10.399Z</time></trkpt><trkpt lat="44.395549" lon="7.7420269"><ele>427.0</ele><time>2026-05-03T17:01:11.41Z</time></trkpt><trkpt lat="44.3954646" lon="7.741702"><ele>428.0</ele><time>2026-05-03T17:01:12.398Z</time></trkpt><trkpt lat="44.3953791" lon="7.7413725"><ele>427.5</ele><time>2026-05-03T17:01:13.405Z</time></trkpt><trkpt lat="44.3952913" lon="7.741046"><ele>427.0</ele><time>2026-05-03T17:01:14.397Z</time></trkpt><trkpt lat="44.3952053" lon="7.740722"><ele>427.0</ele><time>2026-05-03T17:01:15.403Z</time></trkpt><trkpt lat="44.395113" lon="7.7403958"><ele>427.0</ele><time>2026-05-03T17:01:16.416Z</time></trkpt><trkpt lat="44.3950253" lon="7.740063"><ele>428.0</ele><time>2026-05-03T17:01:17.409Z</time></trkpt><trkpt lat="44.3949341" lon="7.7397268"><ele>429.0</ele><time>2026-05-03T17:01:18.396Z</time></trkpt><trkpt lat="44.3948427" lon="7.7393853"><ele>429.5</ele><time>2026-05-03T17:01:19.393Z</time></trkpt><trkpt lat="44.3947515" lon="7.7390414"><ele>430.0</ele><time>2026-05-03T17:01:20.402Z</time></trkpt><trkpt lat="44.3946602" lon="7.7386983"><ele>429.5</ele><time>2026-05-03T17:01:21.401Z</time></trkpt><trkpt lat="44.3945665" lon="7.7383523"><ele>429.0</ele><time>2026-05-03T17:01:22.416Z</time></trkpt><trkpt lat="44.3944647" lon="7.7380144"><ele>430.5</ele><time>2026-05-03T17:01:23.395Z</time></trkpt><trkpt lat="44.394353" lon="7.7376792"><ele>432.0</ele><time>2026-05-03T17:01:24.411Z</time></trkpt><trkpt lat="44.3942292" lon="7.737344"><ele>432.0</ele><time>2026-05-03T17:01:25.411Z</time></trkpt><trkpt lat="44.3940974" lon="7.7370168"><ele>432.0</ele><time>2026-05-03T17:01:26.414Z</time></trkpt><trkpt lat="44.393959" lon="7.73669"><ele>432.5</ele><time>2026-05-03T17:01:27.434Z</time></trkpt><trkpt lat="44.3938157" lon="7.7363649"><ele>433.0</ele><time>2026-05-03T17:01:28.397Z</time></trkpt><trkpt lat="44.393668" lon="7.7360372"><ele>433.0</ele><time>2026-05-03T17:01:29.409Z</time></trkpt><trkpt lat="44.3935171" lon="7.7357121"><ele>433.0</ele><time>2026-05-03T17:01:30.401Z</time></trkpt><trkpt lat="44.3933707" lon="7.7353883"><ele>433.5</ele><time>2026-05-03T17:01:31.416Z</time></trkpt><trkpt lat="44.3932201" lon="7.7350616"><ele>434.0</ele><time>2026-05-03T17:01:32.392Z</time></trkpt><trkpt lat="44.3930674" lon="7.7347313"><ele>434.0</ele><time>2026-05-03T17:01:33.392Z</time></trkpt><trkpt lat="44.3929125" lon="7.7344039"><ele>434.0</ele><time>2026-05-03T17:01:34.41Z</time></trkpt><trkpt lat="44.3927575" lon="7.7340762"><ele>434.0</ele><time>2026-05-03T17:01:35.395Z</time></trkpt><trkpt lat="44.3926004" lon="7.7337408"><ele>434.0</ele><time>2026-05-03T17:01:36.413Z</time></trkpt><trkpt lat="44.3924444" lon="7.7334065"><ele>434.0</ele><time>2026-05-03T17:01:37.416Z</time></trkpt><trkpt lat="44.3922891" lon="7.7330716"><ele>434.0</ele><time>2026-05-03T17:01:38.401Z</time></trkpt><trkpt lat="44.3921319" lon="7.7327397"><ele>435.5</ele><time>2026-05-03T17:01:39.408Z</time></trkpt><trkpt lat="44.3919748" lon="7.7324075"><ele>437.0</ele><time>2026-05-03T17:01:40.394Z</time></trkpt><trkpt lat="44.3918182" lon="7.732078"><ele>437.5</ele><time>2026-05-03T17:01:41.417Z</time></trkpt><trkpt lat="44.3916636" lon="7.7317465"><ele>438.0</ele><time>2026-05-03T17:01:42.404Z</time></trkpt><trkpt lat="44.3915092" lon="7.7314157"><ele>438.0</ele><time>2026-05-03T17:01:43.409Z</time></trkpt><trkpt lat="44.3913553" lon="7.7310881"><ele>438.0</ele><time>2026-05-03T17:01:44.393Z</time></trkpt><trkpt lat="44.3912016" lon="7.7307572"><ele>438.0</ele><time>2026-05-03T17:01:45.393Z</time></trkpt><trkpt lat="44.3910453" lon="7.7304299"><ele>438.0</ele><time>2026-05-03T17:01:46.412Z</time></trkpt><trkpt lat="44.3908891" lon="7.7301006"><ele>439.5</ele><time>2026-05-03T17:01:47.392Z</time></trkpt><trkpt lat="44.3907326" lon="7.7297751"><ele>441.0</ele><time>2026-05-03T17:01:48.401Z</time></trkpt><trkpt lat="44.3905769" lon="7.7294502"><ele>442.5</ele><time>2026-05-03T17:01:49.413Z</time></trkpt><trkpt lat="44.3904217" lon="7.7291226"><ele>444.0</ele><time>2026-05-03T17:01:50.408Z</time></trkpt><trkpt lat="44.3902663" lon="7.7287914"><ele>444.0</ele><time>2026-05-03T17:01:51.395Z</time></trkpt><trkpt lat="44.3901138" lon="7.7284583"><ele>444.0</ele><time>2026-05-03T17:01:52.395Z</time></trkpt><trkpt lat="44.3899563" lon="7.7281286"><ele>444.0</ele><time>2026-05-03T17:01:53.403Z</time></trkpt><trkpt lat="44.3897989" lon="7.7277957"><ele>444.0</ele><time>2026-05-03T17:01:54.402Z</time></trkpt><trkpt lat="44.3896421" lon="7.7274622"><ele>449.5</ele><time>2026-05-03T17:01:55.4Z</time></trkpt><trkpt lat="44.3894865" lon="7.7271328"><ele>455.0</ele><time>2026-05-03T17:01:56.404Z</time></trkpt><trkpt lat="44.3893267" lon="7.7268028"><ele>455.0</ele><time>2026-05-03T17:01:57.408Z</time></trkpt><trkpt lat="44.3891686" lon="7.7264716"><ele>455.0</ele><time>2026-05-03T17:01:58.395Z</time></trkpt><trkpt lat="44.3890118" lon="7.7261382"><ele>453.0</ele><time>2026-05-03T17:01:59.397Z</time></trkpt><trkpt lat="44.3888542" lon="7.7258068"><ele>451.0</ele><time>2026-05-03T17:02:00.393Z</time></trkpt><trkpt lat="44.388697" lon="7.7254732"><ele>455.0</ele><time>2026-05-03T17:02:01.393Z</time></trkpt><trkpt lat="44.3885392" lon="7.725142"><ele>459.0</ele><time>2026-05-03T17:02:02.395Z</time></trkpt><trkpt lat="44.3883808" lon="7.7248108"><ele>459.0</ele><time>2026-05-03T17:02:03.386Z</time></trkpt><trkpt lat="44.3882232" lon="7.7244768"><ele>459.0</ele><time>2026-05-03T17:02:04.402Z</time></trkpt><trkpt lat="44.3880666" lon="7.7241413"><ele>459.5</ele><time>2026-05-03T17:02:05.403Z</time></trkpt><trkpt lat="44.3879106" lon="7.7238059"><ele>460.0</ele><time>2026-05-03T17:02:06.416Z</time></trkpt><trkpt lat="44.3877546" lon="7.7234738"><ele>457.5</ele><time>2026-05-03T17:02:07.405Z</time></trkpt><trkpt lat="44.3875978" lon="7.7231489"><ele>455.0</ele><time>2026-05-03T17:02:08.389Z</time></trkpt><trkpt lat="44.3874443" lon="7.7228295"><ele>452.5</ele><time>2026-05-03T17:02:09.409Z</time></trkpt><trkpt lat="44.3872922" lon="7.7225144"><ele>450.0</ele><time>2026-05-03T17:02:10.397Z</time></trkpt><trkpt lat="44.387138" lon="7.7222003"><ele>452.0</ele><time>2026-05-03T17:02:11.401Z</time></trkpt><trkpt lat="44.3869924" lon="7.7218839"><ele>454.0</ele><time>2026-05-03T17:02:12.396Z</time></trkpt><trkpt lat="44.3868467" lon="7.7215697"><ele>454.0</ele><time>2026-05-03T17:02:13.398Z</time></trkpt><trkpt lat="44.3866961" lon="7.7212569"><ele>454.0</ele><time>2026-05-03T17:02:14.409Z</time></trkpt><trkpt lat="44.3865492" lon="7.7209399"><ele>452.5</ele><time>2026-05-03T17:02:15.414Z</time></trkpt><trkpt lat="44.3863989" lon="7.7206251"><ele>451.0</ele><time>2026-05-03T17:02:16.401Z</time></trkpt><trkpt lat="44.38625" lon="7.7203109"><ele>456.0</ele><time>2026-05-03T17:02:17.396Z</time></trkpt><trkpt lat="44.3860981" lon="7.72"><ele>461.0</ele><time>2026-05-03T17:02:18.406Z</time></trkpt><trkpt lat="44.3859455" lon="7.7196879"><ele>458.0</ele><time>2026-05-03T17:02:19.395Z</time></trkpt><trkpt lat="44.3857922" lon="7.7193783"><ele>455.0</ele><time>2026-05-03T17:02:20.404Z</time></trkpt><trkpt lat="44.3856414" lon="7.7190631"><ele>456.5</ele><time>2026-05-03T17:02:21.395Z</time></trkpt><trkpt lat="44.3854895" lon="7.7187503"><ele>458.0</ele><time>2026-05-03T17:02:22.4Z</time></trkpt><trkpt lat="44.3853435" lon="7.7184353"><ele>458.0</ele><time>2026-05-03T17:02:23.399Z</time></trkpt><trkpt lat="44.3851997" lon="7.7181133"><ele>458.0</ele><time>2026-05-03T17:02:24.394Z</time></trkpt><trkpt lat="44.3850567" lon="7.7177952"><ele>457.5</ele><time>2026-05-03T17:02:25.405Z</time></trkpt><trkpt lat="44.3849178" lon="7.7174692"><ele>457.0</ele><time>2026-05-03T17:02:26.404Z</time></trkpt><trkpt lat="44.3847845" lon="7.7171393"><ele>460.5</ele><time>2026-05-03T17:02:27.405Z</time></trkpt><trkpt lat="44.3846544" lon="7.7168013"><ele>464.0</ele><time>2026-05-03T17:02:28.395Z</time></trkpt><trkpt lat="44.3845243" lon="7.7164647"><ele>464.0</ele><time>2026-05-03T17:02:29.41Z</time></trkpt><trkpt lat="44.3843946" lon="7.7161312"><ele>464.0</ele><time>2026-05-03T17:02:30.412Z</time></trkpt><trkpt lat="44.3842686" lon="7.7157898"><ele>463.0</ele><time>2026-05-03T17:02:31.403Z</time></trkpt><trkpt lat="44.3841415" lon="7.7154546"><ele>462.0</ele><time>2026-05-03T17:02:32.39Z</time></trkpt><trkpt lat="44.3840153" lon="7.715128"><ele>461.0</ele><time>2026-05-03T17:02:33.399Z</time></trkpt><trkpt lat="44.3838902" lon="7.7148094"><ele>460.0</ele><time>2026-05-03T17:02:34.398Z</time></trkpt><trkpt lat="44.3837727" lon="7.7144989"><ele>467.5</ele><time>2026-05-03T17:02:35.405Z</time></trkpt><trkpt lat="44.3836569" lon="7.7142092"><ele>475.0</ele><time>2026-05-03T17:02:36.394Z</time></trkpt><trkpt lat="44.3835458" lon="7.7139357"><ele>475.0</ele><time>2026-05-03T17:02:37.408Z</time></trkpt><trkpt lat="44.3834395" lon="7.7136891"><ele>475.0</ele><time>2026-05-03T17:02:38.405Z</time></trkpt><trkpt lat="44.3833354" lon="7.7134597"><ele>475.0</ele><time>2026-05-03T17:02:39.406Z</time></trkpt><trkpt lat="44.3832381" lon="7.7132501"><ele>473.33333333333337</ele><time>2026-05-03T17:02:40.395Z</time></trkpt><trkpt lat="44.3831384" lon="7.7130679"><ele>471.66666666666663</ele><time>2026-05-03T17:02:41.401Z</time></trkpt><trkpt lat="44.3830563" lon="7.7128999"><ele>470.0</ele><time>2026-05-03T17:02:42.395Z</time></trkpt><trkpt lat="44.382989" lon="7.7127262"><ele>470.0</ele><time>2026-05-03T17:02:43.401Z</time></trkpt><trkpt lat="44.3829423" lon="7.7125327"><ele>470.0</ele><time>2026-05-03T17:02:44.408Z</time></trkpt><trkpt lat="44.3829072" lon="7.712316"><ele>470.0</ele><time>2026-05-03T17:02:45.407Z</time></trkpt><trkpt lat="44.3828578" lon="7.7121056"><ele>466.3333333333333</ele><time>2026-05-03T17:02:46.406Z</time></trkpt><trkpt lat="44.3827992" lon="7.7118857"><ele>462.66666666666663</ele><time>2026-05-03T17:02:47.406Z</time></trkpt><trkpt lat="44.3827474" lon="7.7116505"><ele>459.0</ele><time>2026-05-03T17:02:48.4Z</time></trkpt><trkpt lat="44.3826861" lon="7.7114066"><ele>459.0</ele><time>2026-05-03T17:02:49.409Z</time></trkpt><trkpt lat="44.3826077" lon="7.7111603"><ele>459.0</ele><time>2026-05-03T17:02:50.396Z</time></trkpt><trkpt lat="44.3825102" lon="7.7109149"><ele>459.0</ele><time>2026-05-03T17:02:51.395Z</time></trkpt><trkpt lat="44.3824047" lon="7.7106537"><ele>456.66666666666663</ele><time>2026-05-03T17:02:52.412Z</time></trkpt><trkpt lat="44.3822935" lon="7.7103859"><ele>454.3333333333333</ele><time>2026-05-03T17:02:53.386Z</time></trkpt><trkpt lat="44.3821808" lon="7.7101115"><ele>452.0</ele><time>2026-05-03T17:02:54.41Z</time></trkpt><trkpt lat="44.382063" lon="7.7098283"><ele>452.0</ele><time>2026-05-03T17:02:55.413Z</time></trkpt><trkpt lat="44.3819461" lon="7.7095466"><ele>452.0</ele><time>2026-05-03T17:02:56.424Z</time></trkpt><trkpt lat="44.3818253" lon="7.7092628"><ele>452.5</ele><time>2026-05-03T17:02:57.392Z</time></trkpt><trkpt lat="44.3817043" lon="7.7089736"><ele>453.0</ele><time>2026-05-03T17:02:58.396Z</time></trkpt><trkpt lat="44.3815808" lon="7.7086812"><ele>454.0</ele><time>2026-05-03T17:02:59.399Z</time></trkpt><trkpt lat="44.381456" lon="7.7083843"><ele>455.0</ele><time>2026-05-03T17:03:00.414Z</time></trkpt><trkpt lat="44.3813245" lon="7.7080857"><ele>455.0</ele><time>2026-05-03T17:03:01.396Z</time></trkpt><trkpt lat="44.3811958" lon="7.7077815"><ele>455.0</ele><time>2026-05-03T17:03:02.409Z</time></trkpt><trkpt lat="44.3810689" lon="7.7074726"><ele>457.5</ele><time>2026-05-03T17:03:03.391Z</time></trkpt><trkpt lat="44.3809451" lon="7.7071613"><ele>460.0</ele><time>2026-05-03T17:03:04.41Z</time></trkpt><trkpt lat="44.3808143" lon="7.7068504"><ele>461.0</ele><time>2026-05-03T17:03:05.397Z</time></trkpt><trkpt lat="44.3806787" lon="7.7065476"><ele>462.0</ele><time>2026-05-03T17:03:06.409Z</time></trkpt><trkpt lat="44.3805404" lon="7.70625"><ele>462.5</ele><time>2026-05-03T17:03:07.395Z</time></trkpt><trkpt lat="44.380401" lon="7.7059523"><ele>463.0</ele><time>2026-05-03T17:03:08.391Z</time></trkpt><trkpt lat="44.3802592" lon="7.7056539"><ele>463.0</ele><time>2026-05-03T17:03:09.398Z</time></trkpt><trkpt lat="44.3801189" lon="7.7053589"><ele>463.0</ele><time>2026-05-03T17:03:10.411Z</time></trkpt><trkpt lat="44.3799778" lon="7.7050675"><ele>463.5</ele><time>2026-05-03T17:03:11.405Z</time></trkpt><trkpt lat="44.379834" lon="7.7047746"><ele>464.0</ele><time>2026-05-03T17:03:12.396Z</time></trkpt><trkpt lat="44.3796905" lon="7.7044813"><ele>466.0</ele><time>2026-05-03T17:03:13.402Z</time></trkpt><trkpt lat="44.3795482" lon="7.7041949"><ele>468.0</ele><time>2026-05-03T17:03:14.413Z</time></trkpt><trkpt lat="44.3794055" lon="7.7039066"><ele>468.0</ele><time>2026-05-03T17:03:15.41Z</time></trkpt><trkpt lat="44.3792643" lon="7.703619"><ele>468.0</ele><time>2026-05-03T17:03:16.394Z</time></trkpt><trkpt lat="44.3791221" lon="7.7033343"><ele>468.0</ele><time>2026-05-03T17:03:17.413Z</time></trkpt><trkpt lat="44.3789823" lon="7.7030506"><ele>468.0</ele><time>2026-05-03T17:03:18.409Z</time></trkpt><trkpt lat="44.3788468" lon="7.7027646"><ele>468.0</ele><time>2026-05-03T17:03:19.409Z</time></trkpt><trkpt lat="44.3787081" lon="7.7024825"><ele>468.0</ele><time>2026-05-03T17:03:20.396Z</time></trkpt><trkpt lat="44.3785685" lon="7.7022014"><ele>468.0</ele><time>2026-05-03T17:03:21.409Z</time></trkpt><trkpt lat="44.3784312" lon="7.7019239"><ele>468.0</ele><time>2026-05-03T17:03:22.394Z</time></trkpt><trkpt lat="44.3782922" lon="7.7016493"><ele>468.5</ele><time>2026-05-03T17:03:23.399Z</time></trkpt><trkpt lat="44.3781579" lon="7.7013846"><ele>469.0</ele><time>2026-05-03T17:03:24.412Z</time></trkpt><trkpt lat="44.3780318" lon="7.7011336"><ele>469.33333333333337</ele><time>2026-05-03T17:03:25.398Z</time></trkpt><trkpt lat="44.37791" lon="7.7008942"><ele>469.66666666666663</ele><time>2026-05-03T17:03:26.398Z</time></trkpt><trkpt lat="44.3777959" lon="7.7006634"><ele>470.0</ele><time>2026-05-03T17:03:27.398Z</time></trkpt><trkpt lat="44.3776871" lon="7.700446"><ele>469.66666666666663</ele><time>2026-05-03T17:03:28.385Z</time></trkpt><trkpt lat="44.3775841" lon="7.7002329"><ele>469.33333333333337</ele><time>2026-05-03T17:03:29.407Z</time></trkpt><trkpt lat="44.3774803" lon="7.7000191"><ele>469.0</ele><time>2026-05-03T17:03:30.397Z</time></trkpt><trkpt lat="44.377376" lon="7.6997991"><ele>469.0</ele><time>2026-05-03T17:03:31.403Z</time></trkpt><trkpt lat="44.377283" lon="7.6995905"><ele>469.0</ele><time>2026-05-03T17:03:32.385Z</time></trkpt><trkpt lat="44.3772044" lon="7.6994034"><ele>469.0</ele><time>2026-05-03T17:03:33.396Z</time></trkpt><trkpt lat="44.3771335" lon="7.6992336"><ele>469.4</ele><time>2026-05-03T17:03:34.412Z</time></trkpt><trkpt lat="44.3770719" lon="7.699073"><ele>469.79999999999995</ele><time>2026-05-03T17:03:35.404Z</time></trkpt><trkpt lat="44.3770243" lon="7.6989262"><ele>470.20000000000005</ele><time>2026-05-03T17:03:36.413Z</time></trkpt><trkpt lat="44.3769878" lon="7.6987964"><ele>470.6</ele><time>2026-05-03T17:03:37.415Z</time></trkpt><trkpt lat="44.376966" lon="7.6986637"><ele>471.0</ele><time>2026-05-03T17:03:38.409Z</time></trkpt><trkpt lat="44.3769627" lon="7.6985345"><ele>471.3333333333333</ele><time>2026-05-03T17:03:39.399Z</time></trkpt><trkpt lat="44.3769757" lon="7.6984091"><ele>471.66666666666663</ele><time>2026-05-03T17:03:40.413Z</time></trkpt><trkpt lat="44.3769836" lon="7.6982898"><ele>472.0</ele><time>2026-05-03T17:03:41.391Z</time></trkpt><trkpt lat="44.3769655" lon="7.6981761"><ele>472.3333333333333</ele><time>2026-05-03T17:03:42.393Z</time></trkpt><trkpt lat="44.3769174" lon="7.6980763"><ele>472.66666666666663</ele><time>2026-05-03T17:03:43.389Z</time></trkpt><trkpt lat="44.3768384" lon="7.6979906"><ele>473.0</ele><time>2026-05-03T17:03:44.401Z</time></trkpt><trkpt lat="44.3767459" lon="7.6979182"><ele>473.0</ele><time>2026-05-03T17:03:45.402Z</time></trkpt><trkpt lat="44.3766676" lon="7.6978169"><ele>473.0</ele><time>2026-05-03T17:03:46.408Z</time></trkpt><trkpt lat="44.3766081" lon="7.6976755"><ele>473.0</ele><time>2026-05-03T17:03:47.395Z</time></trkpt><trkpt lat="44.3765601" lon="7.6975111"><ele>473.0</ele><time>2026-05-03T17:03:48.408Z</time></trkpt><trkpt lat="44.3765182" lon="7.6973282"><ele>472.66666666666663</ele><time>2026-05-03T17:03:49.402Z</time></trkpt><trkpt lat="44.3764902" lon="7.6971332"><ele>472.33333333333337</ele><time>2026-05-03T17:03:50.415Z</time></trkpt><trkpt lat="44.3764685" lon="7.6969102"><ele>472.0</ele><time>2026-05-03T17:03:51.405Z</time></trkpt><trkpt lat="44.3764543" lon="7.6966804"><ele>471.6666666666667</ele><time>2026-05-03T17:03:52.396Z</time></trkpt><trkpt lat="44.3764487" lon="7.6964378"><ele>471.33333333333337</ele><time>2026-05-03T17:03:53.396Z</time></trkpt><trkpt lat="44.3764562" lon="7.6961936"><ele>471.0</ele><time>2026-05-03T17:03:54.421Z</time></trkpt><trkpt lat="44.376468" lon="7.6959337"><ele>471.66666666666663</ele><time>2026-05-03T17:03:55.382Z</time></trkpt><trkpt lat="44.3764826" lon="7.6956557"><ele>472.3333333333333</ele><time>2026-05-03T17:03:56.4Z</time></trkpt><trkpt lat="44.3765049" lon="7.6953676"><ele>473.0</ele><time>2026-05-03T17:03:57.396Z</time></trkpt><trkpt lat="44.3765294" lon="7.6950668"><ele>473.0</ele><time>2026-05-03T17:03:58.415Z</time></trkpt><trkpt lat="44.3765585" lon="7.6947541"><ele>473.0</ele><time>2026-05-03T17:03:59.407Z</time></trkpt><trkpt lat="44.3765863" lon="7.6944193"><ele>471.5</ele><time>2026-05-03T17:04:00.406Z</time></trkpt><trkpt lat="44.3766115" lon="7.6940682"><ele>470.0</ele><time>2026-05-03T17:04:01.404Z</time></trkpt><trkpt lat="44.3766361" lon="7.6937051"><ele>469.5</ele><time>2026-05-03T17:04:02.397Z</time></trkpt><trkpt lat="44.3766623" lon="7.6933353"><ele>469.0</ele><time>2026-05-03T17:04:03.404Z</time></trkpt><trkpt lat="44.3766934" lon="7.6929726"><ele>469.5</ele><time>2026-05-03T17:04:04.407Z</time></trkpt><trkpt lat="44.3767252" lon="7.6926102"><ele>470.0</ele><time>2026-05-03T17:04:05.414Z</time></trkpt><trkpt lat="44.3767563" lon="7.6922501"><ele>471.0</ele><time>2026-05-03T17:04:06.402Z</time></trkpt><trkpt lat="44.3767855" lon="7.6918937"><ele>472.0</ele><time>2026-05-03T17:04:07.395Z</time></trkpt><trkpt lat="44.3768137" lon="7.6915412"><ele>472.0</ele><time>2026-05-03T17:04:08.406Z</time></trkpt><trkpt lat="44.3768435" lon="7.6911875"><ele>472.0</ele><time>2026-05-03T17:04:09.393Z</time></trkpt><trkpt lat="44.3768721" lon="7.6908377"><ele>472.0</ele><time>2026-05-03T17:04:10.41Z</time></trkpt><trkpt lat="44.3769006" lon="7.6904863"><ele>472.0</ele><time>2026-05-03T17:04:11.395Z</time></trkpt><trkpt lat="44.3769268" lon="7.6901364"><ele>471.5</ele><time>2026-05-03T17:04:12.395Z</time></trkpt><trkpt lat="44.3769561" lon="7.6897879"><ele>471.0</ele><time>2026-05-03T17:04:13.398Z</time></trkpt><trkpt lat="44.3769834" lon="7.6894411"><ele>471.5</ele><time>2026-05-03T17:04:14.394Z</time></trkpt><trkpt lat="44.3770115" lon="7.6890983"><ele>472.0</ele><time>2026-05-03T17:04:15.406Z</time></trkpt><trkpt lat="44.3770355" lon="7.688768"><ele>472.0</ele><time>2026-05-03T17:04:16.393Z</time></trkpt><trkpt lat="44.3770556" lon="7.6884541"><ele>472.0</ele><time>2026-05-03T17:04:17.407Z</time></trkpt><trkpt lat="44.3770773" lon="7.6881647"><ele>472.0</ele><time>2026-05-03T17:04:18.396Z</time></trkpt><trkpt lat="44.3770928" lon="7.6878942"><ele>472.0</ele><time>2026-05-03T17:04:19.4Z</time></trkpt><trkpt lat="44.3771115" lon="7.6876363"><ele>472.0</ele><time>2026-05-03T17:04:20.415Z</time></trkpt><trkpt lat="44.3771314" lon="7.6873887"><ele>472.0</ele><time>2026-05-03T17:04:21.388Z</time></trkpt><trkpt lat="44.3771523" lon="7.6871472"><ele>472.0</ele><time>2026-05-03T17:04:22.403Z</time></trkpt><trkpt lat="44.3771665" lon="7.6869091"><ele>472.0</ele><time>2026-05-03T17:04:23.398Z</time></trkpt><trkpt lat="44.3771853" lon="7.6866773"><ele>472.0</ele><time>2026-05-03T17:04:24.401Z</time></trkpt><trkpt lat="44.3772027" lon="7.6864558"><ele>472.0</ele><time>2026-05-03T17:04:25.404Z</time></trkpt><trkpt lat="44.3772176" lon="7.6862762"><ele>472.00000000000006</ele><time>2026-05-03T17:04:26.411Z</time></trkpt><trkpt lat="44.3772324" lon="7.6861227"><ele>472.00000000000006</ele><time>2026-05-03T17:04:27.397Z</time></trkpt><trkpt lat="44.3772449" lon="7.6860064"><ele>472.0</ele><time>2026-05-03T17:04:28.388Z</time></trkpt><trkpt lat="44.3772582" lon="7.6858331"><ele>472.0</ele><time>2026-05-03T17:04:30.417Z</time></trkpt><trkpt lat="44.3772685" lon="7.6857422"><ele>472.00000000000006</ele><time>2026-05-03T17:04:31.427Z</time></trkpt><trkpt lat="44.3772998" lon="7.6855746"><ele>472.0</ele><time>2026-05-03T17:04:33.405Z</time></trkpt><trkpt lat="44.3773356" lon="7.6854858"><ele>472.0</ele><time>2026-05-03T17:04:34.389Z</time></trkpt><trkpt lat="44.3773676" lon="7.6853846"><ele>472.0</ele><time>2026-05-03T17:04:35.404Z</time></trkpt><trkpt lat="44.3773802" lon="7.685269"><ele>472.00000000000006</ele><time>2026-05-03T17:04:36.403Z</time></trkpt><trkpt lat="44.3773751" lon="7.6851451"><ele>472.0</ele><time>2026-05-03T17:04:37.406Z</time></trkpt><trkpt lat="44.3773623" lon="7.6850049"><ele>472.25</ele><time>2026-05-03T17:04:38.388Z</time></trkpt><trkpt lat="44.3773532" lon="7.6848547"><ele>472.5</ele><time>2026-05-03T17:04:39.396Z</time></trkpt><trkpt lat="44.3773539" lon="7.6847005"><ele>472.75</ele><time>2026-05-03T17:04:40.402Z</time></trkpt><trkpt lat="44.3773655" lon="7.6845266"><ele>473.0</ele><time>2026-05-03T17:04:41.412Z</time></trkpt><trkpt lat="44.377378" lon="7.6843475"><ele>473.0</ele><time>2026-05-03T17:04:42.404Z</time></trkpt><trkpt lat="44.3773911" lon="7.6841568"><ele>473.0</ele><time>2026-05-03T17:04:43.407Z</time></trkpt><trkpt lat="44.3774035" lon="7.6839651"><ele>473.0</ele><time>2026-05-03T17:04:44.407Z</time></trkpt><trkpt lat="44.37742" lon="7.68377"><ele>473.0</ele><time>2026-05-03T17:04:45.395Z</time></trkpt><trkpt lat="44.3774341" lon="7.6835693"><ele>473.3333333333333</ele><time>2026-05-03T17:04:46.406Z</time></trkpt><trkpt lat="44.3774476" lon="7.6833662"><ele>473.66666666666663</ele><time>2026-05-03T17:04:47.408Z</time></trkpt><trkpt lat="44.3774561" lon="7.6831609"><ele>474.0</ele><time>2026-05-03T17:04:48.397Z</time></trkpt><trkpt lat="44.3774606" lon="7.6829409"><ele>473.66666666666663</ele><time>2026-05-03T17:04:49.408Z</time></trkpt><trkpt lat="44.3774576" lon="7.6827036"><ele>473.3333333333333</ele><time>2026-05-03T17:04:50.394Z</time></trkpt><trkpt lat="44.3774482" lon="7.6824598"><ele>473.0</ele><time>2026-05-03T17:04:51.393Z</time></trkpt><trkpt lat="44.3774312" lon="7.6822112"><ele>473.0</ele><time>2026-05-03T17:04:52.407Z</time></trkpt><trkpt lat="44.3774056" lon="7.6819537"><ele>473.0</ele><time>2026-05-03T17:04:53.393Z</time></trkpt><trkpt lat="44.3773728" lon="7.6816885"><ele>473.0</ele><time>2026-05-03T17:04:54.411Z</time></trkpt><trkpt lat="44.3773279" lon="7.681425"><ele>472.66666666666663</ele><time>2026-05-03T17:04:55.409Z</time></trkpt><trkpt lat="44.3772703" lon="7.6811639"><ele>472.33333333333337</ele><time>2026-05-03T17:04:56.409Z</time></trkpt><trkpt lat="44.3772106" lon="7.6809033"><ele>472.0</ele><time>2026-05-03T17:04:57.395Z</time></trkpt><trkpt lat="44.3771449" lon="7.6806585"><ele>471.6666666666667</ele><time>2026-05-03T17:04:58.393Z</time></trkpt><trkpt lat="44.377079" lon="7.6804278"><ele>471.33333333333337</ele><time>2026-05-03T17:04:59.396Z</time></trkpt><trkpt lat="44.3770126" lon="7.6802077"><ele>471.0</ele><time>2026-05-03T17:05:00.416Z</time></trkpt><trkpt lat="44.3769468" lon="7.6799906"><ele>471.0</ele><time>2026-05-03T17:05:01.398Z</time></trkpt><trkpt lat="44.3768783" lon="7.6797677"><ele>471.0</ele><time>2026-05-03T17:05:02.413Z</time></trkpt><trkpt lat="44.3768097" lon="7.6795376"><ele>471.0</ele><time>2026-05-03T17:05:03.395Z</time></trkpt><trkpt lat="44.3767361" lon="7.6793052"><ele>470.0</ele><time>2026-05-03T17:05:04.408Z</time></trkpt><trkpt lat="44.3766663" lon="7.67909"><ele>469.0</ele><time>2026-05-03T17:05:05.398Z</time></trkpt><trkpt lat="44.3766023" lon="7.678888"><ele>468.0</ele><time>2026-05-03T17:05:06.401Z</time></trkpt><trkpt lat="44.3765373" lon="7.6786884"><ele>467.66666666666663</ele><time>2026-05-03T17:05:07.395Z</time></trkpt><trkpt lat="44.3764736" lon="7.678488"><ele>467.3333333333333</ele><time>2026-05-03T17:05:08.409Z</time></trkpt><trkpt lat="44.3764125" lon="7.6782911"><ele>467.0</ele><time>2026-05-03T17:05:09.416Z</time></trkpt><trkpt lat="44.3763507" lon="7.6780876"><ele>468.0</ele><time>2026-05-03T17:05:10.399Z</time></trkpt><trkpt lat="44.3762853" lon="7.6778887"><ele>469.0</ele><time>2026-05-03T17:05:11.404Z</time></trkpt><trkpt lat="44.3762202" lon="7.6776949"><ele>470.0</ele><time>2026-05-03T17:05:12.403Z</time></trkpt><trkpt lat="44.3761618" lon="7.6775045"><ele>470.0</ele><time>2026-05-03T17:05:13.396Z</time></trkpt><trkpt lat="44.3761029" lon="7.6773165"><ele>470.0</ele><time>2026-05-03T17:05:14.408Z</time></trkpt><trkpt lat="44.3760413" lon="7.6771194"><ele>470.0</ele><time>2026-05-03T17:05:15.389Z</time></trkpt><trkpt lat="44.3759778" lon="7.6769144"><ele>469.3333333333333</ele><time>2026-05-03T17:05:16.395Z</time></trkpt><trkpt lat="44.3759128" lon="7.6767097"><ele>468.66666666666663</ele><time>2026-05-03T17:05:17.406Z</time></trkpt><trkpt lat="44.3758462" lon="7.6764982"><ele>468.0</ele><time>2026-05-03T17:05:18.409Z</time></trkpt><trkpt lat="44.3757821" lon="7.6762934"><ele>468.33333333333337</ele><time>2026-05-03T17:05:19.412Z</time></trkpt><trkpt lat="44.3757154" lon="7.6760921"><ele>468.6666666666667</ele><time>2026-05-03T17:05:20.391Z</time></trkpt><trkpt lat="44.3756534" lon="7.6758892"><ele>469.0</ele><time>2026-05-03T17:05:21.4Z</time></trkpt><trkpt lat="44.3755869" lon="7.675689"><ele>469.0</ele><time>2026-05-03T17:05:22.402Z</time></trkpt><trkpt lat="44.3755206" lon="7.6754912"><ele>469.0</ele><time>2026-05-03T17:05:23.4Z</time></trkpt><trkpt lat="44.3754556" lon="7.67529"><ele>469.0</ele><time>2026-05-03T17:05:24.41Z</time></trkpt><trkpt lat="44.3753889" lon="7.6750833"><ele>469.0</ele><time>2026-05-03T17:05:25.408Z</time></trkpt><trkpt lat="44.3753219" lon="7.6748824"><ele>469.0</ele><time>2026-05-03T17:05:26.397Z</time></trkpt><trkpt lat="44.3752549" lon="7.6746735"><ele>469.0</ele><time>2026-05-03T17:05:27.395Z</time></trkpt><trkpt lat="44.3751894" lon="7.6744644"><ele>468.33333333333337</ele><time>2026-05-03T17:05:28.404Z</time></trkpt><trkpt lat="44.3751199" lon="7.674255"><ele>467.66666666666663</ele><time>2026-05-03T17:05:29.4Z</time></trkpt><trkpt lat="44.3750553" lon="7.6740455"><ele>467.0</ele><time>2026-05-03T17:05:30.408Z</time></trkpt><trkpt lat="44.3749929" lon="7.6738383"><ele>467.0</ele><time>2026-05-03T17:05:31.412Z</time></trkpt><trkpt lat="44.3749297" lon="7.673638"><ele>467.0</ele><time>2026-05-03T17:05:32.401Z</time></trkpt><trkpt lat="44.3748674" lon="7.6734379"><ele>467.0</ele><time>2026-05-03T17:05:33.407Z</time></trkpt><trkpt lat="44.3747999" lon="7.6732308"><ele>468.0</ele><time>2026-05-03T17:05:34.386Z</time></trkpt><trkpt lat="44.374728" lon="7.6730129"><ele>469.0</ele><time>2026-05-03T17:05:35.411Z</time></trkpt><trkpt lat="44.3746477" lon="7.6727932"><ele>470.0</ele><time>2026-05-03T17:05:36.405Z</time></trkpt><trkpt lat="44.3745611" lon="7.6725684"><ele>470.3333333333333</ele><time>2026-05-03T17:05:37.41Z</time></trkpt><trkpt lat="44.3744647" lon="7.672339"><ele>470.66666666666663</ele><time>2026-05-03T17:05:38.404Z</time></trkpt><trkpt lat="44.3743647" lon="7.6721242"><ele>471.0</ele><time>2026-05-03T17:05:39.395Z</time></trkpt><trkpt lat="44.3742614" lon="7.6719259"><ele>471.0</ele><time>2026-05-03T17:05:40.398Z</time></trkpt><trkpt lat="44.374156" lon="7.6717381"><ele>471.0</ele><time>2026-05-03T17:05:41.388Z</time></trkpt><trkpt lat="44.374051" lon="7.671562"><ele>471.0</ele><time>2026-05-03T17:05:42.412Z</time></trkpt><trkpt lat="44.3739429" lon="7.6713914"><ele>470.66666666666663</ele><time>2026-05-03T17:05:43.392Z</time></trkpt><trkpt lat="44.3738334" lon="7.6712293"><ele>470.3333333333333</ele><time>2026-05-03T17:05:44.41Z</time></trkpt><trkpt lat="44.3737227" lon="7.6710646"><ele>470.0</ele><time>2026-05-03T17:05:45.395Z</time></trkpt><trkpt lat="44.3736118" lon="7.6708996"><ele>470.0</ele><time>2026-05-03T17:05:46.401Z</time></trkpt><trkpt lat="44.373502" lon="7.6707304"><ele>470.0</ele><time>2026-05-03T17:05:47.41Z</time></trkpt><trkpt lat="44.3733876" lon="7.6705582"><ele>470.0</ele><time>2026-05-03T17:05:48.396Z</time></trkpt><trkpt lat="44.373268" lon="7.6703822"><ele>470.66666666666663</ele><time>2026-05-03T17:05:49.401Z</time></trkpt><trkpt lat="44.3731436" lon="7.6702013"><ele>471.33333333333337</ele><time>2026-05-03T17:05:50.396Z</time></trkpt><trkpt lat="44.3730185" lon="7.6700173"><ele>472.0</ele><time>2026-05-03T17:05:51.406Z</time></trkpt><trkpt lat="44.372892" lon="7.6698272"><ele>472.6666666666667</ele><time>2026-05-03T17:05:52.392Z</time></trkpt><trkpt lat="44.3727651" lon="7.6696406"><ele>473.33333333333337</ele><time>2026-05-03T17:05:53.402Z</time></trkpt><trkpt lat="44.3726412" lon="7.6694567"><ele>474.0</ele><time>2026-05-03T17:05:54.401Z</time></trkpt><trkpt lat="44.3725204" lon="7.6692761"><ele>474.0</ele><time>2026-05-03T17:05:55.4Z</time></trkpt><trkpt lat="44.3724049" lon="7.6691033"><ele>474.0</ele><time>2026-05-03T17:05:56.407Z</time></trkpt><trkpt lat="44.3722975" lon="7.6689375"><ele>474.0</ele><time>2026-05-03T17:05:57.402Z</time></trkpt><trkpt lat="44.3721981" lon="7.6687782"><ele>475.0</ele><time>2026-05-03T17:05:58.411Z</time></trkpt><trkpt lat="44.372111" lon="7.6686204"><ele>476.0</ele><time>2026-05-03T17:05:59.397Z</time></trkpt><trkpt lat="44.3720419" lon="7.6684616"><ele>477.0</ele><time>2026-05-03T17:06:00.391Z</time></trkpt><trkpt lat="44.3719905" lon="7.6683024"><ele>478.0</ele><time>2026-05-03T17:06:01.413Z</time></trkpt><trkpt lat="44.3719609" lon="7.6681409"><ele>478.0</ele><time>2026-05-03T17:06:02.395Z</time></trkpt><trkpt lat="44.3719519" lon="7.6679891"><ele>477.99999999999994</ele><time>2026-05-03T17:06:03.393Z</time></trkpt><trkpt lat="44.3719637" lon="7.6678401"><ele>477.99999999999994</ele><time>2026-05-03T17:06:04.399Z</time></trkpt><trkpt lat="44.3719926" lon="7.6677066"><ele>478.0</ele><time>2026-05-03T17:06:05.414Z</time></trkpt><trkpt lat="44.3720153" lon="7.6675727"><ele>478.0</ele><time>2026-05-03T17:06:06.393Z</time></trkpt><trkpt lat="44.3720056" lon="7.6674319"><ele>478.0</ele><time>2026-05-03T17:06:07.395Z</time></trkpt><trkpt lat="44.3719655" lon="7.6673074"><ele>477.99999999999994</ele><time>2026-05-03T17:06:08.399Z</time></trkpt><trkpt lat="44.3718966" lon="7.667213"><ele>477.99999999999994</ele><time>2026-05-03T17:06:09.404Z</time></trkpt><trkpt lat="44.3718085" lon="7.6671557"><ele>478.0</ele><time>2026-05-03T17:06:10.4Z</time></trkpt><trkpt lat="44.3717182" lon="7.6670894"><ele>478.0</ele><time>2026-05-03T17:06:11.411Z</time></trkpt><trkpt lat="44.3716358" lon="7.6669792"><ele>477.5</ele><time>2026-05-03T17:06:12.405Z</time></trkpt><trkpt lat="44.3715704" lon="7.6668278"><ele>477.0</ele><time>2026-05-03T17:06:13.397Z</time></trkpt><trkpt lat="44.3715114" lon="7.666653"><ele>476.5</ele><time>2026-05-03T17:06:14.412Z</time></trkpt><trkpt lat="44.3714554" lon="7.6664502"><ele>476.0</ele><time>2026-05-03T17:06:15.407Z</time></trkpt><trkpt lat="44.3714098" lon="7.6662151"><ele>476.0</ele><time>2026-05-03T17:06:16.4Z</time></trkpt><trkpt lat="44.3713735" lon="7.6659455"><ele>476.0</ele><time>2026-05-03T17:06:17.403Z</time></trkpt><trkpt lat="44.3713423" lon="7.6656633"><ele>476.0</ele><time>2026-05-03T17:06:18.402Z</time></trkpt><trkpt lat="44.3713106" lon="7.6653653"><ele>475.5</ele><time>2026-05-03T17:06:19.396Z</time></trkpt><trkpt lat="44.3712762" lon="7.665057"><ele>475.0</ele><time>2026-05-03T17:06:20.408Z</time></trkpt><trkpt lat="44.3712333" lon="7.6647382"><ele>475.0</ele><time>2026-05-03T17:06:21.391Z</time></trkpt><trkpt lat="44.3711924" lon="7.6644217"><ele>475.0</ele><time>2026-05-03T17:06:22.394Z</time></trkpt><trkpt lat="44.3711573" lon="7.6641107"><ele>475.0</ele><time>2026-05-03T17:06:23.406Z</time></trkpt><trkpt lat="44.3711256" lon="7.663814"><ele>475.0</ele><time>2026-05-03T17:06:24.397Z</time></trkpt><trkpt lat="44.3710952" lon="7.6635334"><ele>475.0</ele><time>2026-05-03T17:06:25.397Z</time></trkpt><trkpt lat="44.3710666" lon="7.663268"><ele>474.33333333333337</ele><time>2026-05-03T17:06:26.413Z</time></trkpt><trkpt lat="44.3710378" lon="7.6630121"><ele>473.66666666666663</ele><time>2026-05-03T17:06:27.397Z</time></trkpt><trkpt lat="44.3710109" lon="7.6627647"><ele>473.0</ele><time>2026-05-03T17:06:28.411Z</time></trkpt><trkpt lat="44.3709872" lon="7.6625183"><ele>473.0</ele><time>2026-05-03T17:06:29.409Z</time></trkpt><trkpt lat="44.3709683" lon="7.662272"><ele>473.0</ele><time>2026-05-03T17:06:30.404Z</time></trkpt><trkpt lat="44.3709578" lon="7.662022"><ele>473.0</ele><time>2026-05-03T17:06:31.406Z</time></trkpt><trkpt lat="44.3709615" lon="7.6617664"><ele>473.0</ele><time>2026-05-03T17:06:32.395Z</time></trkpt><trkpt lat="44.3709746" lon="7.6615158"><ele>473.0</ele><time>2026-05-03T17:06:33.412Z</time></trkpt><trkpt lat="44.3710024" lon="7.66127"><ele>473.0</ele><time>2026-05-03T17:06:34.395Z</time></trkpt><trkpt lat="44.3710411" lon="7.6610271"><ele>473.66666666666663</ele><time>2026-05-03T17:06:35.41Z</time></trkpt><trkpt lat="44.37108" lon="7.6607852"><ele>474.33333333333337</ele><time>2026-05-03T17:06:36.383Z</time></trkpt><trkpt lat="44.3711239" lon="7.6605465"><ele>475.0</ele><time>2026-05-03T17:06:37.402Z</time></trkpt><trkpt lat="44.3711659" lon="7.6603073"><ele>476.6666666666667</ele><time>2026-05-03T17:06:38.402Z</time></trkpt><trkpt lat="44.3712146" lon="7.6600562"><ele>478.33333333333337</ele><time>2026-05-03T17:06:39.393Z</time></trkpt><trkpt lat="44.3712589" lon="7.659799"><ele>480.0</ele><time>2026-05-03T17:06:40.397Z</time></trkpt><trkpt lat="44.3713085" lon="7.659539"><ele>479.0</ele><time>2026-05-03T17:06:41.406Z</time></trkpt><trkpt lat="44.3713608" lon="7.6592732"><ele>478.0</ele><time>2026-05-03T17:06:42.409Z</time></trkpt><trkpt lat="44.3714131" lon="7.6590028"><ele>477.0</ele><time>2026-05-03T17:06:43.406Z</time></trkpt><trkpt lat="44.3714663" lon="7.6587237"><ele>477.33333333333337</ele><time>2026-05-03T17:06:44.396Z</time></trkpt><trkpt lat="44.3715176" lon="7.6584393"><ele>477.6666666666667</ele><time>2026-05-03T17:06:45.396Z</time></trkpt><trkpt lat="44.3715695" lon="7.6581485"><ele>478.0</ele><time>2026-05-03T17:06:46.399Z</time></trkpt><trkpt lat="44.3716164" lon="7.6578527"><ele>477.6666666666667</ele><time>2026-05-03T17:06:47.396Z</time></trkpt><trkpt lat="44.3716546" lon="7.6575481"><ele>477.33333333333337</ele><time>2026-05-03T17:06:48.395Z</time></trkpt><trkpt lat="44.3716897" lon="7.6572375"><ele>477.0</ele><time>2026-05-03T17:06:49.397Z</time></trkpt><trkpt lat="44.3717222" lon="7.6569236"><ele>477.0</ele><time>2026-05-03T17:06:50.41Z</time></trkpt><trkpt lat="44.3717441" lon="7.6566075"><ele>477.0</ele><time>2026-05-03T17:06:51.418Z</time></trkpt><trkpt lat="44.3717622" lon="7.6562958"><ele>477.33333333333337</ele><time>2026-05-03T17:06:52.395Z</time></trkpt><trkpt lat="44.3717758" lon="7.6559842"><ele>477.6666666666667</ele><time>2026-05-03T17:06:53.41Z</time></trkpt><trkpt lat="44.3717834" lon="7.6556687"><ele>478.0</ele><time>2026-05-03T17:06:54.4Z</time></trkpt><trkpt lat="44.3717835" lon="7.6553466"><ele>478.0</ele><time>2026-05-03T17:06:55.392Z</time></trkpt><trkpt lat="44.3717791" lon="7.6550167"><ele>478.0</ele><time>2026-05-03T17:06:56.41Z</time></trkpt><trkpt lat="44.3717683" lon="7.6546815"><ele>478.5</ele><time>2026-05-03T17:06:57.4Z</time></trkpt><trkpt lat="44.3717502" lon="7.6543415"><ele>479.0</ele><time>2026-05-03T17:06:58.41Z</time></trkpt><trkpt lat="44.3717224" lon="7.6539931"><ele>479.0</ele><time>2026-05-03T17:06:59.399Z</time></trkpt><trkpt lat="44.371686" lon="7.6536376"><ele>479.0</ele><time>2026-05-03T17:07:00.397Z</time></trkpt><trkpt lat="44.3716487" lon="7.6532758"><ele>479.5</ele><time>2026-05-03T17:07:01.408Z</time></trkpt><trkpt lat="44.3716121" lon="7.6529062"><ele>480.0</ele><time>2026-05-03T17:07:02.403Z</time></trkpt><trkpt lat="44.3715782" lon="7.6525424"><ele>480.0</ele><time>2026-05-03T17:07:03.397Z</time></trkpt><trkpt lat="44.3715493" lon="7.6521739"><ele>480.0</ele><time>2026-05-03T17:07:04.404Z</time></trkpt><trkpt lat="44.3715176" lon="7.6518066"><ele>480.0</ele><time>2026-05-03T17:07:05.402Z</time></trkpt><trkpt lat="44.3714852" lon="7.6514443"><ele>480.0</ele><time>2026-05-03T17:07:06.415Z</time></trkpt><trkpt lat="44.3714534" lon="7.6510926"><ele>481.0</ele><time>2026-05-03T17:07:07.4Z</time></trkpt><trkpt lat="44.3714264" lon="7.650759"><ele>482.0</ele><time>2026-05-03T17:07:08.401Z</time></trkpt><trkpt lat="44.3714026" lon="7.6504425"><ele>482.0</ele><time>2026-05-03T17:07:09.399Z</time></trkpt><trkpt lat="44.3713783" lon="7.6501432"><ele>482.0</ele><time>2026-05-03T17:07:10.41Z</time></trkpt><trkpt lat="44.3713541" lon="7.6498637"><ele>482.0</ele><time>2026-05-03T17:07:11.401Z</time></trkpt><trkpt lat="44.3713306" lon="7.649599"><ele>482.0</ele><time>2026-05-03T17:07:12.395Z</time></trkpt><trkpt lat="44.3713086" lon="7.6493499"><ele>482.0</ele><time>2026-05-03T17:07:13.405Z</time></trkpt><trkpt lat="44.3712886" lon="7.6491115"><ele>482.0</ele><time>2026-05-03T17:07:14.402Z</time></trkpt><trkpt lat="44.3712697" lon="7.6488878"><ele>482.0</ele><time>2026-05-03T17:07:15.412Z</time></trkpt><trkpt lat="44.3712508" lon="7.6486746"><ele>482.0</ele><time>2026-05-03T17:07:16.398Z</time></trkpt><trkpt lat="44.3712306" lon="7.6484679"><ele>482.0</ele><time>2026-05-03T17:07:17.396Z</time></trkpt><trkpt lat="44.3712141" lon="7.6482763"><ele>482.0</ele><time>2026-05-03T17:07:18.385Z</time></trkpt><trkpt lat="44.3711995" lon="7.6481084"><ele>481.8333333333333</ele><time>2026-05-03T17:07:19.403Z</time></trkpt><trkpt lat="44.3711851" lon="7.6479682"><ele>481.66666666666663</ele><time>2026-05-03T17:07:20.405Z</time></trkpt><trkpt lat="44.371172" lon="7.6478457"><ele>481.5</ele><time>2026-05-03T17:07:21.409Z</time></trkpt><trkpt lat="44.371157" lon="7.6477368"><ele>481.33333333333337</ele><time>2026-05-03T17:07:22.401Z</time></trkpt><trkpt lat="44.3711477" lon="7.6476261"><ele>481.1666666666667</ele><time>2026-05-03T17:07:23.393Z</time></trkpt><trkpt lat="44.37114" lon="7.6475199"><ele>481.0</ele><time>2026-05-03T17:07:24.421Z</time></trkpt><trkpt lat="44.3711328" lon="7.6474188"><ele>481.42857142857133</ele><time>2026-05-03T17:07:25.401Z</time></trkpt><trkpt lat="44.3711325" lon="7.6473247"><ele>481.85714285714283</ele><time>2026-05-03T17:07:26.395Z</time></trkpt><trkpt lat="44.3711449" lon="7.6472244"><ele>482.2857142857142</ele><time>2026-05-03T17:07:27.407Z</time></trkpt><trkpt lat="44.3711657" lon="7.6471269"><ele>482.71428571428567</ele><time>2026-05-03T17:07:28.403Z</time></trkpt><trkpt lat="44.3711834" lon="7.6470314"><ele>483.1428571428571</ele><time>2026-05-03T17:07:29.41Z</time></trkpt><trkpt lat="44.3711823" lon="7.6469393"><ele>483.57142857142856</ele><time>2026-05-03T17:07:30.394Z</time></trkpt><trkpt lat="44.3711628" lon="7.6468522"><ele>484.0</ele><time>2026-05-03T17:07:31.401Z</time></trkpt><trkpt lat="44.3711219" lon="7.6467647"><ele>484.4</ele><time>2026-05-03T17:07:32.391Z</time></trkpt><trkpt lat="44.3710673" lon="7.6466811"><ele>484.79999999999995</ele><time>2026-05-03T17:07:33.402Z</time></trkpt><trkpt lat="44.3710124" lon="7.6465863"><ele>485.20000000000005</ele><time>2026-05-03T17:07:34.41Z</time></trkpt><trkpt lat="44.3709701" lon="7.6464705"><ele>485.6</ele><time>2026-05-03T17:07:35.415Z</time></trkpt><trkpt lat="44.3709431" lon="7.6463282"><ele>486.0</ele><time>2026-05-03T17:07:36.403Z</time></trkpt><trkpt lat="44.3709221" lon="7.6461657"><ele>485.66666666666663</ele><time>2026-05-03T17:07:37.414Z</time></trkpt><trkpt lat="44.370903" lon="7.6459691"><ele>485.3333333333333</ele><time>2026-05-03T17:07:38.397Z</time></trkpt><trkpt lat="44.3708835" lon="7.6457554"><ele>485.0</ele><time>2026-05-03T17:07:39.409Z</time></trkpt><trkpt lat="44.3708666" lon="7.6455059"><ele>485.66666666666663</ele><time>2026-05-03T17:07:40.407Z</time></trkpt><trkpt lat="44.3708487" lon="7.6452313"><ele>486.33333333333337</ele><time>2026-05-03T17:07:41.419Z</time></trkpt><trkpt lat="44.370831" lon="7.6449316"><ele>487.0</ele><time>2026-05-03T17:07:42.401Z</time></trkpt><trkpt lat="44.3708117" lon="7.6446212"><ele>486.5</ele><time>2026-05-03T17:07:43.394Z</time></trkpt><trkpt lat="44.3707832" lon="7.6443082"><ele>486.0</ele><time>2026-05-03T17:07:44.409Z</time></trkpt><trkpt lat="44.3707438" lon="7.6439865"><ele>486.0</ele><time>2026-05-03T17:07:45.396Z</time></trkpt><trkpt lat="44.3706991" lon="7.6436543"><ele>486.0</ele><time>2026-05-03T17:07:46.404Z</time></trkpt><trkpt lat="44.3706528" lon="7.6433174"><ele>486.5</ele><time>2026-05-03T17:07:47.396Z</time></trkpt><trkpt lat="44.3706052" lon="7.6429821"><ele>487.0</ele><time>2026-05-03T17:07:48.401Z</time></trkpt><trkpt lat="44.3705589" lon="7.6426456"><ele>487.5</ele><time>2026-05-03T17:07:49.417Z</time></trkpt><trkpt lat="44.3705119" lon="7.642306"><ele>488.0</ele><time>2026-05-03T17:07:50.403Z</time></trkpt><trkpt lat="44.3704665" lon="7.6419721"><ele>488.0</ele><time>2026-05-03T17:07:51.407Z</time></trkpt><trkpt lat="44.3704233" lon="7.6416387"><ele>488.0</ele><time>2026-05-03T17:07:52.4Z</time></trkpt><trkpt lat="44.3703866" lon="7.6413144"><ele>488.3333333333333</ele><time>2026-05-03T17:07:53.41Z</time></trkpt><trkpt lat="44.3703548" lon="7.6410069"><ele>488.66666666666663</ele><time>2026-05-03T17:07:54.423Z</time></trkpt><trkpt lat="44.3703298" lon="7.6407159"><ele>489.0</ele><time>2026-05-03T17:07:55.407Z</time></trkpt><trkpt lat="44.3703067" lon="7.6404406"><ele>489.33333333333337</ele><time>2026-05-03T17:07:56.397Z</time></trkpt><trkpt lat="44.3702867" lon="7.640172"><ele>489.6666666666667</ele><time>2026-05-03T17:07:57.403Z</time></trkpt><trkpt lat="44.3702672" lon="7.6398968"><ele>490.0</ele><time>2026-05-03T17:07:58.394Z</time></trkpt><trkpt lat="44.370248" lon="7.6396184"><ele>490.6666666666667</ele><time>2026-05-03T17:07:59.406Z</time></trkpt><trkpt lat="44.3702338" lon="7.6393416"><ele>491.33333333333337</ele><time>2026-05-03T17:08:00.405Z</time></trkpt><trkpt lat="44.3702251" lon="7.6390818"><ele>492.0</ele><time>2026-05-03T17:08:01.384Z</time></trkpt><trkpt lat="44.3702166" lon="7.638831"><ele>492.0</ele><time>2026-05-03T17:08:02.416Z</time></trkpt><trkpt lat="44.3702075" lon="7.6385862"><ele>492.0</ele><time>2026-05-03T17:08:03.406Z</time></trkpt><trkpt lat="44.3701979" lon="7.6383345"><ele>492.0</ele><time>2026-05-03T17:08:04.4Z</time></trkpt><trkpt lat="44.3701895" lon="7.6380729"><ele>492.0</ele><time>2026-05-03T17:08:05.408Z</time></trkpt><trkpt lat="44.3701712" lon="7.6378284"><ele>492.0</ele><time>2026-05-03T17:08:06.402Z</time></trkpt><trkpt lat="44.370157" lon="7.6375722"><ele>492.0</ele><time>2026-05-03T17:08:07.399Z</time></trkpt><trkpt lat="44.3701394" lon="7.6373157"><ele>491.66666666666663</ele><time>2026-05-03T17:08:08.399Z</time></trkpt><trkpt lat="44.3701356" lon="7.6370289"><ele>491.3333333333333</ele><time>2026-05-03T17:08:09.399Z</time></trkpt><trkpt lat="44.370125" lon="7.6367487"><ele>491.0</ele><time>2026-05-03T17:08:10.411Z</time></trkpt><trkpt lat="44.3701131" lon="7.6364762"><ele>491.0</ele><time>2026-05-03T17:08:11.408Z</time></trkpt><trkpt lat="44.3701138" lon="7.6361777"><ele>491.0</ele><time>2026-05-03T17:08:12.397Z</time></trkpt><trkpt lat="44.3701046" lon="7.6358645"><ele>491.0</ele><time>2026-05-03T17:08:13.417Z</time></trkpt><trkpt lat="44.370091" lon="7.6355438"><ele>491.5</ele><time>2026-05-03T17:08:14.387Z</time></trkpt><trkpt lat="44.3700872" lon="7.6351977"><ele>492.0</ele><time>2026-05-03T17:08:15.409Z</time></trkpt><trkpt lat="44.3700823" lon="7.6348526"><ele>492.0</ele><time>2026-05-03T17:08:16.395Z</time></trkpt><trkpt lat="44.3700827" lon="7.6344958"><ele>492.0</ele><time>2026-05-03T17:08:17.406Z</time></trkpt><trkpt lat="44.3700859" lon="7.6341375"><ele>493.0</ele><time>2026-05-03T17:08:18.395Z</time></trkpt><trkpt lat="44.3700906" lon="7.6338016"><ele>494.0</ele><time>2026-05-03T17:08:19.414Z</time></trkpt><trkpt lat="44.3700945" lon="7.6334763"><ele>494.66666666666663</ele><time>2026-05-03T17:08:20.402Z</time></trkpt><trkpt lat="44.3701014" lon="7.633159"><ele>495.33333333333337</ele><time>2026-05-03T17:08:21.401Z</time></trkpt><trkpt lat="44.3701068" lon="7.6328504"><ele>496.0</ele><time>2026-05-03T17:08:22.408Z</time></trkpt><trkpt lat="44.3701116" lon="7.632546"><ele>496.0</ele><time>2026-05-03T17:08:23.417Z</time></trkpt><trkpt lat="44.3701191" lon="7.6322424"><ele>496.0</ele><time>2026-05-03T17:08:24.396Z</time></trkpt><trkpt lat="44.3701285" lon="7.6319463"><ele>496.0</ele><time>2026-05-03T17:08:25.418Z</time></trkpt><trkpt lat="44.3701366" lon="7.6316687"><ele>496.33333333333337</ele><time>2026-05-03T17:08:26.392Z</time></trkpt><trkpt lat="44.370146" lon="7.6314071"><ele>496.66666666666663</ele><time>2026-05-03T17:08:27.404Z</time></trkpt><trkpt lat="44.370152" lon="7.631167"><ele>497.0</ele><time>2026-05-03T17:08:28.403Z</time></trkpt><trkpt lat="44.3701634" lon="7.6309494"><ele>497.25</ele><time>2026-05-03T17:08:29.405Z</time></trkpt><trkpt lat="44.3701922" lon="7.6307565"><ele>497.5</ele><time>2026-05-03T17:08:30.394Z</time></trkpt><trkpt lat="44.3702424" lon="7.6305882"><ele>497.75</ele><time>2026-05-03T17:08:31.407Z</time></trkpt><trkpt lat="44.3703189" lon="7.6304547"><ele>498.0</ele><time>2026-05-03T17:08:32.409Z</time></trkpt><trkpt lat="44.3704064" lon="7.6303382"><ele>498.0</ele><time>2026-05-03T17:08:33.404Z</time></trkpt><trkpt lat="44.3704664" lon="7.6302006"><ele>498.0</ele><time>2026-05-03T17:08:34.411Z</time></trkpt><trkpt lat="44.3704959" lon="7.6300513"><ele>498.0</ele><time>2026-05-03T17:08:35.399Z</time></trkpt><trkpt lat="44.3704869" lon="7.6298925"><ele>498.0</ele><time>2026-05-03T17:08:36.402Z</time></trkpt><trkpt lat="44.3704396" lon="7.6297359"><ele>498.0</ele><time>2026-05-03T17:08:37.406Z</time></trkpt><trkpt lat="44.3703642" lon="7.62958"><ele>498.0</ele><time>2026-05-03T17:08:38.414Z</time></trkpt><trkpt lat="44.3703051" lon="7.6294026"><ele>498.0</ele><time>2026-05-03T17:08:39.385Z</time></trkpt><trkpt lat="44.3702748" lon="7.6291941"><ele>498.0</ele><time>2026-05-03T17:08:40.397Z</time></trkpt><trkpt lat="44.3702758" lon="7.62896"><ele>498.0</ele><time>2026-05-03T17:08:41.402Z</time></trkpt><trkpt lat="44.3702963" lon="7.6287053"><ele>498.0</ele><time>2026-05-03T17:08:42.406Z</time></trkpt><trkpt lat="44.3703073" lon="7.6284301"><ele>498.0</ele><time>2026-05-03T17:08:43.404Z</time></trkpt><trkpt lat="44.3703257" lon="7.6281433"><ele>498.33333333333337</ele><time>2026-05-03T17:08:44.398Z</time></trkpt><trkpt lat="44.3703484" lon="7.6278511"><ele>498.6666666666667</ele><time>2026-05-03T17:08:45.414Z</time></trkpt><trkpt lat="44.370383" lon="7.6275505"><ele>499.0</ele><time>2026-05-03T17:08:46.402Z</time></trkpt><trkpt lat="44.3704365" lon="7.62724"><ele>499.5</ele><time>2026-05-03T17:08:47.397Z</time></trkpt><trkpt lat="44.3705025" lon="7.6269306"><ele>500.0</ele><time>2026-05-03T17:08:48.41Z</time></trkpt><trkpt lat="44.3705797" lon="7.6266279"><ele>500.0</ele><time>2026-05-03T17:08:49.4Z</time></trkpt><trkpt lat="44.370661" lon="7.6263341"><ele>500.0</ele><time>2026-05-03T17:08:50.413Z</time></trkpt><trkpt lat="44.3707602" lon="7.6260517"><ele>500.0</ele><time>2026-05-03T17:08:51.399Z</time></trkpt><trkpt lat="44.3708698" lon="7.6257779"><ele>500.0</ele><time>2026-05-03T17:08:52.407Z</time></trkpt><trkpt lat="44.3709879" lon="7.6255118"><ele>500.0</ele><time>2026-05-03T17:08:53.388Z</time></trkpt><trkpt lat="44.3711061" lon="7.6252521"><ele>500.0</ele><time>2026-05-03T17:08:54.405Z</time></trkpt><trkpt lat="44.3712215" lon="7.6249959"><ele>500.0</ele><time>2026-05-03T17:08:55.405Z</time></trkpt><trkpt lat="44.371339" lon="7.6247446"><ele>500.0</ele><time>2026-05-03T17:08:56.404Z</time></trkpt><trkpt lat="44.3714592" lon="7.6244967"><ele>500.66666666666663</ele><time>2026-05-03T17:08:57.396Z</time></trkpt><trkpt lat="44.3715767" lon="7.6242526"><ele>501.33333333333337</ele><time>2026-05-03T17:08:58.413Z</time></trkpt><trkpt lat="44.3716868" lon="7.6240029"><ele>502.0</ele><time>2026-05-03T17:08:59.398Z</time></trkpt><trkpt lat="44.3717863" lon="7.6237468"><ele>501.6666666666667</ele><time>2026-05-03T17:09:00.402Z</time></trkpt><trkpt lat="44.3718756" lon="7.6234793"><ele>501.33333333333337</ele><time>2026-05-03T17:09:01.4Z</time></trkpt><trkpt lat="44.3719558" lon="7.6232005"><ele>501.0</ele><time>2026-05-03T17:09:02.413Z</time></trkpt><trkpt lat="44.3720415" lon="7.6229175"><ele>501.66666666666663</ele><time>2026-05-03T17:09:03.421Z</time></trkpt><trkpt lat="44.3721282" lon="7.6226386"><ele>502.3333333333333</ele><time>2026-05-03T17:09:04.413Z</time></trkpt><trkpt lat="44.3722211" lon="7.6223532"><ele>503.0</ele><time>2026-05-03T17:09:05.4Z</time></trkpt><trkpt lat="44.3723121" lon="7.6220686"><ele>503.5</ele><time>2026-05-03T17:09:06.396Z</time></trkpt><trkpt lat="44.3724065" lon="7.6217816"><ele>504.0</ele><time>2026-05-03T17:09:07.411Z</time></trkpt><trkpt lat="44.3724987" lon="7.6214953"><ele>504.0</ele><time>2026-05-03T17:09:08.387Z</time></trkpt><trkpt lat="44.3725919" lon="7.6212037"><ele>504.0</ele><time>2026-05-03T17:09:09.407Z</time></trkpt><trkpt lat="44.3726855" lon="7.6209113"><ele>503.5</ele><time>2026-05-03T17:09:10.396Z</time></trkpt><trkpt lat="44.3727759" lon="7.6206207"><ele>503.0</ele><time>2026-05-03T17:09:11.404Z</time></trkpt><trkpt lat="44.3728644" lon="7.6203268"><ele>503.0</ele><time>2026-05-03T17:09:12.388Z</time></trkpt><trkpt lat="44.3729534" lon="7.6200323"><ele>503.0</ele><time>2026-05-03T17:09:13.401Z</time></trkpt><trkpt lat="44.3730411" lon="7.6197399"><ele>503.5</ele><time>2026-05-03T17:09:14.407Z</time></trkpt><trkpt lat="44.3731291" lon="7.6194468"><ele>504.0</ele><time>2026-05-03T17:09:15.393Z</time></trkpt><trkpt lat="44.3732167" lon="7.6191512"><ele>504.0</ele><time>2026-05-03T17:09:16.398Z</time></trkpt><trkpt lat="44.3733054" lon="7.6188552"><ele>504.0</ele><time>2026-05-03T17:09:17.409Z</time></trkpt><trkpt lat="44.3733938" lon="7.6185572"><ele>503.5</ele><time>2026-05-03T17:09:18.402Z</time></trkpt><trkpt lat="44.3734845" lon="7.6182543"><ele>503.0</ele><time>2026-05-03T17:09:19.408Z</time></trkpt><trkpt lat="44.3735756" lon="7.6179509"><ele>504.5</ele><time>2026-05-03T17:09:20.394Z</time></trkpt><trkpt lat="44.3736664" lon="7.6176444"><ele>506.0</ele><time>2026-05-03T17:09:21.408Z</time></trkpt><trkpt lat="44.3737568" lon="7.6173389"><ele>506.0</ele><time>2026-05-03T17:09:22.408Z</time></trkpt><trkpt lat="44.3738476" lon="7.6170326"><ele>506.0</ele><time>2026-05-03T17:09:23.407Z</time></trkpt><trkpt lat="44.3739412" lon="7.6167234"><ele>506.0</ele><time>2026-05-03T17:09:24.404Z</time></trkpt><trkpt lat="44.3740345" lon="7.6164126"><ele>506.0</ele><time>2026-05-03T17:09:25.411Z</time></trkpt><trkpt lat="44.3741291" lon="7.6161003"><ele>506.0</ele><time>2026-05-03T17:09:26.405Z</time></trkpt><trkpt lat="44.3742246" lon="7.6157891"><ele>506.0</ele><time>2026-05-03T17:09:27.403Z</time></trkpt><trkpt lat="44.3743198" lon="7.6154815"><ele>506.5</ele><time>2026-05-03T17:09:28.411Z</time></trkpt><trkpt lat="44.3744115" lon="7.6151791"><ele>507.0</ele><time>2026-05-03T17:09:29.399Z</time></trkpt><trkpt lat="44.3744998" lon="7.6148776"><ele>507.0</ele><time>2026-05-03T17:09:30.411Z</time></trkpt><trkpt lat="44.3745879" lon="7.6145902"><ele>507.0</ele><time>2026-05-03T17:09:31.403Z</time></trkpt><trkpt lat="44.3746743" lon="7.6143031"><ele>507.0</ele><time>2026-05-03T17:09:32.42Z</time></trkpt><trkpt lat="44.3747572" lon="7.6140278"><ele>507.33333333333337</ele><time>2026-05-03T17:09:33.396Z</time></trkpt><trkpt lat="44.3748394" lon="7.6137538"><ele>507.6666666666667</ele><time>2026-05-03T17:09:34.405Z</time></trkpt><trkpt lat="44.3749148" lon="7.6134885"><ele>508.0</ele><time>2026-05-03T17:09:35.416Z</time></trkpt><trkpt lat="44.3749958" lon="7.6132241"><ele>508.0</ele><time>2026-05-03T17:09:36.396Z</time></trkpt><trkpt lat="44.3750778" lon="7.6129647"><ele>508.0</ele><time>2026-05-03T17:09:37.398Z</time></trkpt><trkpt lat="44.3751548" lon="7.612704"><ele>508.0</ele><time>2026-05-03T17:09:38.409Z</time></trkpt><trkpt lat="44.3752319" lon="7.6124495"><ele>508.0</ele><time>2026-05-03T17:09:39.4Z</time></trkpt><trkpt lat="44.3753081" lon="7.6122007"><ele>508.0</ele><time>2026-05-03T17:09:40.408Z</time></trkpt><trkpt lat="44.3753824" lon="7.6119545"><ele>508.0</ele><time>2026-05-03T17:09:41.391Z</time></trkpt><trkpt lat="44.3754534" lon="7.6117165"><ele>508.0</ele><time>2026-05-03T17:09:42.403Z</time></trkpt><trkpt lat="44.375526" lon="7.6114831"><ele>508.0</ele><time>2026-05-03T17:09:43.389Z</time></trkpt><trkpt lat="44.3755945" lon="7.6112561"><ele>508.0</ele><time>2026-05-03T17:09:44.415Z</time></trkpt><trkpt lat="44.375666" lon="7.611034"><ele>508.6666666666667</ele><time>2026-05-03T17:09:45.398Z</time></trkpt><trkpt lat="44.3757335" lon="7.6108148"><ele>509.33333333333337</ele><time>2026-05-03T17:09:46.395Z</time></trkpt><trkpt lat="44.3758009" lon="7.6105916"><ele>510.0</ele><time>2026-05-03T17:09:47.406Z</time></trkpt><trkpt lat="44.3758687" lon="7.6103661"><ele>510.0</ele><time>2026-05-03T17:09:48.397Z</time></trkpt><trkpt lat="44.3759393" lon="7.6101359"><ele>510.0</ele><time>2026-05-03T17:09:49.404Z</time></trkpt><trkpt lat="44.3760165" lon="7.6098972"><ele>510.0</ele><time>2026-05-03T17:09:50.394Z</time></trkpt><trkpt lat="44.3760985" lon="7.6096529"><ele>510.33333333333337</ele><time>2026-05-03T17:09:51.413Z</time></trkpt><trkpt lat="44.3761881" lon="7.6094059"><ele>510.6666666666667</ele><time>2026-05-03T17:09:52.401Z</time></trkpt><trkpt lat="44.3762933" lon="7.6091657"><ele>511.0</ele><time>2026-05-03T17:09:53.396Z</time></trkpt><trkpt lat="44.3764059" lon="7.6089257"><ele>511.0</ele><time>2026-05-03T17:09:54.414Z</time></trkpt><trkpt lat="44.3765278" lon="7.6086868"><ele>511.0</ele><time>2026-05-03T17:09:55.394Z</time></trkpt><trkpt lat="44.3766507" lon="7.60845"><ele>511.0</ele><time>2026-05-03T17:09:56.396Z</time></trkpt><trkpt lat="44.3767706" lon="7.6082108"><ele>511.0</ele><time>2026-05-03T17:09:57.393Z</time></trkpt><trkpt lat="44.3768934" lon="7.6079623"><ele>511.0</ele><time>2026-05-03T17:09:58.416Z</time></trkpt><trkpt lat="44.3770157" lon="7.6077188"><ele>511.0</ele><time>2026-05-03T17:09:59.426Z</time></trkpt><trkpt lat="44.3771414" lon="7.6074751"><ele>511.0</ele><time>2026-05-03T17:10:00.41Z</time></trkpt><trkpt lat="44.3772683" lon="7.6072305"><ele>511.0</ele><time>2026-05-03T17:10:01.404Z</time></trkpt><trkpt lat="44.3773943" lon="7.606984"><ele>511.0</ele><time>2026-05-03T17:10:02.414Z</time></trkpt><trkpt lat="44.377519" lon="7.6067365"><ele>511.33333333333337</ele><time>2026-05-03T17:10:03.401Z</time></trkpt><trkpt lat="44.3776443" lon="7.6064841"><ele>511.66666666666663</ele><time>2026-05-03T17:10:04.405Z</time></trkpt><trkpt lat="44.3777639" lon="7.6062337"><ele>512.0</ele><time>2026-05-03T17:10:05.404Z</time></trkpt><trkpt lat="44.3778808" lon="7.6059884"><ele>512.0</ele><time>2026-05-03T17:10:06.405Z</time></trkpt><trkpt lat="44.3779956" lon="7.6057492"><ele>512.0</ele><time>2026-05-03T17:10:07.411Z</time></trkpt><trkpt lat="44.3781077" lon="7.6055164"><ele>512.0</ele><time>2026-05-03T17:10:08.398Z</time></trkpt><trkpt lat="44.3782189" lon="7.6052906"><ele>511.66666666666663</ele><time>2026-05-03T17:10:09.407Z</time></trkpt><trkpt lat="44.3783254" lon="7.6050706"><ele>511.33333333333337</ele><time>2026-05-03T17:10:10.397Z</time></trkpt><trkpt lat="44.3784334" lon="7.6048597"><ele>511.0</ele><time>2026-05-03T17:10:11.404Z</time></trkpt><trkpt lat="44.3785333" lon="7.6046639"><ele>510.75</ele><time>2026-05-03T17:10:12.407Z</time></trkpt><trkpt lat="44.3786242" lon="7.6044821"><ele>510.5</ele><time>2026-05-03T17:10:13.403Z</time></trkpt><trkpt lat="44.3787052" lon="7.6043204"><ele>510.25</ele><time>2026-05-03T17:10:14.401Z</time></trkpt><trkpt lat="44.378776" lon="7.60419"><ele>510.0</ele><time>2026-05-03T17:10:15.388Z</time></trkpt><trkpt lat="44.3788611" lon="7.6040886"><ele>510.0</ele><time>2026-05-03T17:10:16.405Z</time></trkpt><trkpt lat="44.3789508" lon="7.6040296"><ele>510.0</ele><time>2026-05-03T17:10:17.404Z</time></trkpt><trkpt lat="44.3790294" lon="7.6039519"><ele>510.0</ele><time>2026-05-03T17:10:18.405Z</time></trkpt><trkpt lat="44.3790832" lon="7.6038455"><ele>510.0</ele><time>2026-05-03T17:10:19.399Z</time></trkpt><trkpt lat="44.3790999" lon="7.6037211"><ele>510.0</ele><time>2026-05-03T17:10:20.4Z</time></trkpt><trkpt lat="44.3790916" lon="7.6035821"><ele>510.5</ele><time>2026-05-03T17:10:21.398Z</time></trkpt><trkpt lat="44.3791005" lon="7.6034395"><ele>511.0</ele><time>2026-05-03T17:10:22.421Z</time></trkpt><trkpt lat="44.3791465" lon="7.6032923"><ele>511.5</ele><time>2026-05-03T17:10:23.391Z</time></trkpt><trkpt lat="44.3792106" lon="7.6031356"><ele>512.0</ele><time>2026-05-03T17:10:24.411Z</time></trkpt><trkpt lat="44.3792741" lon="7.6029652"><ele>512.0</ele><time>2026-05-03T17:10:25.399Z</time></trkpt><trkpt lat="44.3793462" lon="7.6027761"><ele>512.0</ele><time>2026-05-03T17:10:26.397Z</time></trkpt><trkpt lat="44.3794201" lon="7.6025611"><ele>512.0</ele><time>2026-05-03T17:10:27.408Z</time></trkpt><trkpt lat="44.3794894" lon="7.6023288"><ele>512.0</ele><time>2026-05-03T17:10:28.401Z</time></trkpt><trkpt lat="44.3795603" lon="7.6020795"><ele>512.0</ele><time>2026-05-03T17:10:29.404Z</time></trkpt><trkpt lat="44.379624" lon="7.6018231"><ele>512.0</ele><time>2026-05-03T17:10:30.396Z</time></trkpt><trkpt lat="44.3796914" lon="7.6015594"><ele>512.0</ele><time>2026-05-03T17:10:31.407Z</time></trkpt><trkpt lat="44.3797635" lon="7.6012936"><ele>512.0</ele><time>2026-05-03T17:10:32.396Z</time></trkpt><trkpt lat="44.3798301" lon="7.6010291"><ele>512.0</ele><time>2026-05-03T17:10:33.396Z</time></trkpt><trkpt lat="44.3798964" lon="7.6007622"><ele>512.0</ele><time>2026-05-03T17:10:34.405Z</time></trkpt><trkpt lat="44.3799599" lon="7.6004994"><ele>512.0</ele><time>2026-05-03T17:10:35.393Z</time></trkpt><trkpt lat="44.3800271" lon="7.6002361"><ele>512.0</ele><time>2026-05-03T17:10:36.407Z</time></trkpt><trkpt lat="44.3800952" lon="7.5999727"><ele>512.3333333333333</ele><time>2026-05-03T17:10:37.411Z</time></trkpt><trkpt lat="44.3801637" lon="7.5997082"><ele>512.6666666666666</ele><time>2026-05-03T17:10:38.401Z</time></trkpt><trkpt lat="44.3802292" lon="7.5994414"><ele>513.0</ele><time>2026-05-03T17:10:39.403Z</time></trkpt><trkpt lat="44.3802961" lon="7.5991842"><ele>513.3333333333334</ele><time>2026-05-03T17:10:40.393Z</time></trkpt><trkpt lat="44.3803602" lon="7.5989345"><ele>513.6666666666667</ele><time>2026-05-03T17:10:41.415Z</time></trkpt><trkpt lat="44.3804245" lon="7.5986882"><ele>514.0</ele><time>2026-05-03T17:10:42.4Z</time></trkpt><trkpt lat="44.3804877" lon="7.598449"><ele>514.3333333333334</ele><time>2026-05-03T17:10:43.394Z</time></trkpt><trkpt lat="44.38055" lon="7.5982067"><ele>514.6666666666666</ele><time>2026-05-03T17:10:44.409Z</time></trkpt><trkpt lat="44.3806114" lon="7.5979666"><ele>515.0</ele><time>2026-05-03T17:10:45.407Z</time></trkpt><trkpt lat="44.380675" lon="7.5977301"><ele>515.0</ele><time>2026-05-03T17:10:46.405Z</time></trkpt><trkpt lat="44.3807342" lon="7.5974962"><ele>515.0</ele><time>2026-05-03T17:10:47.393Z</time></trkpt><trkpt lat="44.3807923" lon="7.5972674"><ele>515.0</ele><time>2026-05-03T17:10:48.413Z</time></trkpt><trkpt lat="44.3808499" lon="7.5970346"><ele>515.0</ele><time>2026-05-03T17:10:49.398Z</time></trkpt><trkpt lat="44.3809105" lon="7.5968061"><ele>515.0</ele><time>2026-05-03T17:10:50.416Z</time></trkpt><trkpt lat="44.3809701" lon="7.5965729"><ele>515.0</ele><time>2026-05-03T17:10:51.395Z</time></trkpt><trkpt lat="44.3810291" lon="7.5963421"><ele>515.0</ele><time>2026-05-03T17:10:52.407Z</time></trkpt><trkpt lat="44.3810878" lon="7.596108"><ele>515.0</ele><time>2026-05-03T17:10:53.413Z</time></trkpt><trkpt lat="44.3811481" lon="7.5958724"><ele>515.0</ele><time>2026-05-03T17:10:54.394Z</time></trkpt><trkpt lat="44.3812082" lon="7.5956325"><ele>515.0</ele><time>2026-05-03T17:10:55.41Z</time></trkpt><trkpt lat="44.3812695" lon="7.5953949"><ele>515.0</ele><time>2026-05-03T17:10:56.393Z</time></trkpt><trkpt lat="44.3813257" lon="7.5951697"><ele>515.0</ele><time>2026-05-03T17:10:57.412Z</time></trkpt><trkpt lat="44.3813838" lon="7.5949508"><ele>515.0</ele><time>2026-05-03T17:10:58.393Z</time></trkpt><trkpt lat="44.3814401" lon="7.5947329"><ele>515.0</ele><time>2026-05-03T17:10:59.414Z</time></trkpt><trkpt lat="44.3814978" lon="7.5945224"><ele>515.0</ele><time>2026-05-03T17:11:00.399Z</time></trkpt><trkpt lat="44.3815576" lon="7.5943162"><ele>515.3333333333333</ele><time>2026-05-03T17:11:01.397Z</time></trkpt><trkpt lat="44.3816255" lon="7.5941153"><ele>515.6666666666666</ele><time>2026-05-03T17:11:02.406Z</time></trkpt><trkpt lat="44.3816966" lon="7.5939224"><ele>516.0</ele><time>2026-05-03T17:11:03.396Z</time></trkpt><trkpt lat="44.3817784" lon="7.5937255"><ele>516.6666666666666</ele><time>2026-05-03T17:11:04.397Z</time></trkpt><trkpt lat="44.381874" lon="7.5935269"><ele>517.3333333333333</ele><time>2026-05-03T17:11:05.395Z</time></trkpt><trkpt lat="44.3819796" lon="7.5933332"><ele>518.0</ele><time>2026-05-03T17:11:06.404Z</time></trkpt><trkpt lat="44.3820988" lon="7.5931474"><ele>517.6666666666666</ele><time>2026-05-03T17:11:07.407Z</time></trkpt><trkpt lat="44.3822144" lon="7.5929638"><ele>517.3333333333334</ele><time>2026-05-03T17:11:08.395Z</time></trkpt><trkpt lat="44.3823234" lon="7.5927841"><ele>517.0</ele><time>2026-05-03T17:11:09.413Z</time></trkpt><trkpt lat="44.3824291" lon="7.5926061"><ele>517.6666666666667</ele><time>2026-05-03T17:11:10.416Z</time></trkpt><trkpt lat="44.3825352" lon="7.5924269"><ele>518.3333333333334</ele><time>2026-05-03T17:11:11.407Z</time></trkpt><trkpt lat="44.3826401" lon="7.5922499"><ele>519.0</ele><time>2026-05-03T17:11:12.406Z</time></trkpt><trkpt lat="44.3827474" lon="7.5920688"><ele>519.0</ele><time>2026-05-03T17:11:13.394Z</time></trkpt><trkpt lat="44.3828569" lon="7.5918866"><ele>519.0</ele><time>2026-05-03T17:11:14.408Z</time></trkpt><trkpt lat="44.3829675" lon="7.5917017"><ele>519.0</ele><time>2026-05-03T17:11:15.392Z</time></trkpt><trkpt lat="44.3830746" lon="7.5915191"><ele>518.6666666666666</ele><time>2026-05-03T17:11:16.404Z</time></trkpt><trkpt lat="44.3831834" lon="7.5913366"><ele>518.3333333333333</ele><time>2026-05-03T17:11:17.407Z</time></trkpt><trkpt lat="44.3832909" lon="7.5911539"><ele>518.0</ele><time>2026-05-03T17:11:18.41Z</time></trkpt><trkpt lat="44.3834004" lon="7.590969"><ele>518.0</ele><time>2026-05-03T17:11:19.406Z</time></trkpt><trkpt lat="44.3835079" lon="7.5907907"><ele>518.0</ele><time>2026-05-03T17:11:20.393Z</time></trkpt><trkpt lat="44.3836112" lon="7.5906128"><ele>518.0</ele><time>2026-05-03T17:11:21.413Z</time></trkpt><trkpt lat="44.3837161" lon="7.5904314"><ele>518.0</ele><time>2026-05-03T17:11:22.403Z</time></trkpt><trkpt lat="44.3838236" lon="7.5902502"><ele>518.0</ele><time>2026-05-03T17:11:23.405Z</time></trkpt><trkpt lat="44.3839293" lon="7.5900686"><ele>518.0</ele><time>2026-05-03T17:11:24.397Z</time></trkpt><trkpt lat="44.3840369" lon="7.5898925"><ele>518.0</ele><time>2026-05-03T17:11:25.404Z</time></trkpt><trkpt lat="44.3841387" lon="7.5897135"><ele>518.0</ele><time>2026-05-03T17:11:26.399Z</time></trkpt><trkpt lat="44.3842433" lon="7.589533"><ele>518.0</ele><time>2026-05-03T17:11:27.413Z</time></trkpt><trkpt lat="44.3843422" lon="7.5893615"><ele>518.0</ele><time>2026-05-03T17:11:28.406Z</time></trkpt><trkpt lat="44.3844385" lon="7.5892025"><ele>518.0</ele><time>2026-05-03T17:11:29.397Z</time></trkpt><trkpt lat="44.3845351" lon="7.5890477"><ele>518.0</ele><time>2026-05-03T17:11:30.406Z</time></trkpt><trkpt lat="44.3846252" lon="7.5888926"><ele>518.0</ele><time>2026-05-03T17:11:31.397Z</time></trkpt><trkpt lat="44.3847168" lon="7.5887411"><ele>518.0</ele><time>2026-05-03T17:11:32.405Z</time></trkpt><trkpt lat="44.3848052" lon="7.5885895"><ele>518.0</ele><time>2026-05-03T17:11:33.398Z</time></trkpt><trkpt lat="44.384895" lon="7.5884405"><ele>518.0</ele><time>2026-05-03T17:11:34.4Z</time></trkpt><trkpt lat="44.3849823" lon="7.5882847"><ele>518.0</ele><time>2026-05-03T17:11:35.398Z</time></trkpt><trkpt lat="44.3850773" lon="7.5881122"><ele>518.0</ele><time>2026-05-03T17:11:36.399Z</time></trkpt><trkpt lat="44.3851765" lon="7.5879328"><ele>518.0</ele><time>2026-05-03T17:11:37.401Z</time></trkpt><trkpt lat="44.3852774" lon="7.5877556"><ele>518.0</ele><time>2026-05-03T17:11:38.416Z</time></trkpt><trkpt lat="44.3853864" lon="7.5875775"><ele>518.3333333333333</ele><time>2026-05-03T17:11:39.4Z</time></trkpt><trkpt lat="44.3854961" lon="7.5874012"><ele>518.6666666666666</ele><time>2026-05-03T17:11:40.417Z</time></trkpt><trkpt lat="44.3856023" lon="7.58723"><ele>519.0</ele><time>2026-05-03T17:11:41.4Z</time></trkpt><trkpt lat="44.3857066" lon="7.5870609"><ele>519.3333333333334</ele><time>2026-05-03T17:11:42.416Z</time></trkpt><trkpt lat="44.3858081" lon="7.5868915"><ele>519.6666666666667</ele><time>2026-05-03T17:11:43.411Z</time></trkpt><trkpt lat="44.3859057" lon="7.5867306"><ele>520.0</ele><time>2026-05-03T17:11:44.397Z</time></trkpt><trkpt lat="44.3860023" lon="7.5865651"><ele>520.0</ele><time>2026-05-03T17:11:45.412Z</time></trkpt><trkpt lat="44.3860984" lon="7.5864022"><ele>520.0</ele><time>2026-05-03T17:11:46.39Z</time></trkpt><trkpt lat="44.3862009" lon="7.5862383"><ele>520.0</ele><time>2026-05-03T17:11:47.394Z</time></trkpt><trkpt lat="44.3862995" lon="7.5860753"><ele>519.6666666666667</ele><time>2026-05-03T17:11:48.403Z</time></trkpt><trkpt lat="44.3863991" lon="7.5859092"><ele>519.3333333333334</ele><time>2026-05-03T17:11:49.411Z</time></trkpt><trkpt lat="44.3864949" lon="7.5857457"><ele>519.0</ele><time>2026-05-03T17:11:50.391Z</time></trkpt><trkpt lat="44.38659" lon="7.5855797"><ele>519.0</ele><time>2026-05-03T17:11:51.411Z</time></trkpt><trkpt lat="44.3866916" lon="7.5854064"><ele>519.0</ele><time>2026-05-03T17:11:52.409Z</time></trkpt><trkpt lat="44.3867938" lon="7.5852354"><ele>519.0</ele><time>2026-05-03T17:11:53.411Z</time></trkpt><trkpt lat="44.3868962" lon="7.5850589"><ele>519.3333333333334</ele><time>2026-05-03T17:11:54.393Z</time></trkpt><trkpt lat="44.3870006" lon="7.5848809"><ele>519.6666666666667</ele><time>2026-05-03T17:11:55.41Z</time></trkpt><trkpt lat="44.3871044" lon="7.5847097"><ele>520.0</ele><time>2026-05-03T17:11:56.404Z</time></trkpt><trkpt lat="44.387201" lon="7.5845455"><ele>520.0</ele><time>2026-05-03T17:11:57.403Z</time></trkpt><trkpt lat="44.3872941" lon="7.5843904"><ele>520.0</ele><time>2026-05-03T17:11:58.418Z</time></trkpt><trkpt lat="44.3873824" lon="7.5842427"><ele>520.0</ele><time>2026-05-03T17:11:59.398Z</time></trkpt><trkpt lat="44.3874662" lon="7.5840892"><ele>520.0</ele><time>2026-05-03T17:12:00.408Z</time></trkpt><trkpt lat="44.3875403" lon="7.5839468"><ele>520.0</ele><time>2026-05-03T17:12:01.399Z</time></trkpt><trkpt lat="44.3876142" lon="7.583797"><ele>520.0</ele><time>2026-05-03T17:12:02.417Z</time></trkpt><trkpt lat="44.3876911" lon="7.583637"><ele>520.0</ele><time>2026-05-03T17:12:03.4Z</time></trkpt><trkpt lat="44.3877665" lon="7.5834847"><ele>520.0</ele><time>2026-05-03T17:12:04.399Z</time></trkpt><trkpt lat="44.3878391" lon="7.5833269"><ele>520.0</ele><time>2026-05-03T17:12:05.407Z</time></trkpt><trkpt lat="44.3879117" lon="7.5831737"><ele>520.0</ele><time>2026-05-03T17:12:06.407Z</time></trkpt><trkpt lat="44.3879806" lon="7.5830297"><ele>520.0</ele><time>2026-05-03T17:12:07.401Z</time></trkpt><trkpt lat="44.3880499" lon="7.582894"><ele>520.0</ele><time>2026-05-03T17:12:08.4Z</time></trkpt><trkpt lat="44.3881147" lon="7.5827604"><ele>520.0</ele><time>2026-05-03T17:12:09.41Z</time></trkpt><trkpt lat="44.3881699" lon="7.582634"><ele>520.0</ele><time>2026-05-03T17:12:10.403Z</time></trkpt><trkpt lat="44.3882234" lon="7.5825204"><ele>520.0</ele><time>2026-05-03T17:12:11.409Z</time></trkpt><trkpt lat="44.3882699" lon="7.5824275"><ele>520.0</ele><time>2026-05-03T17:12:12.394Z</time></trkpt><trkpt lat="44.3883073" lon="7.5823537"><ele>520.0</ele><time>2026-05-03T17:12:13.414Z</time></trkpt><trkpt lat="44.3883793" lon="7.5822209"><ele>520.0</ele><time>2026-05-03T17:12:15.397Z</time></trkpt><trkpt lat="44.3884466" lon="7.5821428"><ele>520.0</ele><time>2026-05-03T17:12:17.412Z</time></trkpt><trkpt lat="44.3885362" lon="7.5821138"><ele>520.0</ele><time>2026-05-03T17:12:19.411Z</time></trkpt><trkpt lat="44.3886134" lon="7.5821046"><ele>520.0</ele><time>2026-05-03T17:12:20.407Z</time></trkpt><trkpt lat="44.3886759" lon="7.582054"><ele>520.0</ele><time>2026-05-03T17:12:21.397Z</time></trkpt><trkpt lat="44.3887177" lon="7.5819621"><ele>520.0</ele><time>2026-05-03T17:12:22.404Z</time></trkpt><trkpt lat="44.3887253" lon="7.5818476"><ele>519.75</ele><time>2026-05-03T17:12:23.395Z</time></trkpt><trkpt lat="44.3887102" lon="7.5817032"><ele>519.5</ele><time>2026-05-03T17:12:24.396Z</time></trkpt><trkpt lat="44.3887128" lon="7.5815359"><ele>519.25</ele><time>2026-05-03T17:12:25.408Z</time></trkpt><trkpt lat="44.3887386" lon="7.5813607"><ele>519.0</ele><time>2026-05-03T17:12:26.402Z</time></trkpt><trkpt lat="44.3887791" lon="7.5811661"><ele>518.6666666666666</ele><time>2026-05-03T17:12:27.411Z</time></trkpt><trkpt lat="44.3888233" lon="7.5809549"><ele>518.3333333333333</ele><time>2026-05-03T17:12:28.401Z</time></trkpt><trkpt lat="44.3888737" lon="7.580736"><ele>518.0</ele><time>2026-05-03T17:12:29.397Z</time></trkpt><trkpt lat="44.3889219" lon="7.5805146"><ele>519.0</ele><time>2026-05-03T17:12:30.412Z</time></trkpt><trkpt lat="44.3889754" lon="7.5802955"><ele>520.0</ele><time>2026-05-03T17:12:31.404Z</time></trkpt><trkpt lat="44.3890266" lon="7.5800833"><ele>521.0</ele><time>2026-05-03T17:12:32.428Z</time></trkpt><trkpt lat="44.3890799" lon="7.579873"><ele>521.0</ele><time>2026-05-03T17:12:33.398Z</time></trkpt><trkpt lat="44.3891335" lon="7.5796607"><ele>521.0</ele><time>2026-05-03T17:12:34.419Z</time></trkpt><trkpt lat="44.3891857" lon="7.5794568"><ele>521.0</ele><time>2026-05-03T17:12:35.407Z</time></trkpt><trkpt lat="44.3892362" lon="7.5792545"><ele>520.6666666666666</ele><time>2026-05-03T17:12:36.4Z</time></trkpt><trkpt lat="44.3892874" lon="7.5790513"><ele>520.3333333333334</ele><time>2026-05-03T17:12:37.408Z</time></trkpt><trkpt lat="44.3893407" lon="7.5788439"><ele>520.0</ele><time>2026-05-03T17:12:38.411Z</time></trkpt><trkpt lat="44.389392" lon="7.5786258"><ele>520.0</ele><time>2026-05-03T17:12:39.395Z</time></trkpt><trkpt lat="44.3894483" lon="7.5783896"><ele>520.0</ele><time>2026-05-03T17:12:40.398Z</time></trkpt><trkpt lat="44.3895125" lon="7.5781316"><ele>520.0</ele><time>2026-05-03T17:12:41.404Z</time></trkpt><trkpt lat="44.3895858" lon="7.5778615"><ele>520.0</ele><time>2026-05-03T17:12:42.395Z</time></trkpt><trkpt lat="44.3896633" lon="7.5775837"><ele>520.0</ele><time>2026-05-03T17:12:43.4Z</time></trkpt><trkpt lat="44.3897433" lon="7.5772899"><ele>520.0</ele><time>2026-05-03T17:12:44.401Z</time></trkpt><trkpt lat="44.3898223" lon="7.576993"><ele>520.3333333333334</ele><time>2026-05-03T17:12:45.394Z</time></trkpt><trkpt lat="44.3898996" lon="7.5767073"><ele>520.6666666666666</ele><time>2026-05-03T17:12:46.407Z</time></trkpt><trkpt lat="44.3899719" lon="7.5764353"><ele>521.0</ele><time>2026-05-03T17:12:47.388Z</time></trkpt><trkpt lat="44.3900394" lon="7.5761768"><ele>521.6666666666666</ele><time>2026-05-03T17:12:48.413Z</time></trkpt><trkpt lat="44.3901033" lon="7.5759308"><ele>522.3333333333334</ele><time>2026-05-03T17:12:49.394Z</time></trkpt><trkpt lat="44.3901651" lon="7.5757054"><ele>523.0</ele><time>2026-05-03T17:12:50.418Z</time></trkpt><trkpt lat="44.3902244" lon="7.5755041"><ele>522.25</ele><time>2026-05-03T17:12:51.409Z</time></trkpt><trkpt lat="44.390282" lon="7.5753258"><ele>521.5</ele><time>2026-05-03T17:12:52.404Z</time></trkpt><trkpt lat="44.3903358" lon="7.575171"><ele>520.75</ele><time>2026-05-03T17:12:53.396Z</time></trkpt><trkpt lat="44.3903962" lon="7.5750399"><ele>520.0</ele><time>2026-05-03T17:12:54.413Z</time></trkpt><trkpt lat="44.3904808" lon="7.5749257"><ele>519.75</ele><time>2026-05-03T17:12:55.408Z</time></trkpt><trkpt lat="44.390589" lon="7.5748424"><ele>519.5</ele><time>2026-05-03T17:12:56.395Z</time></trkpt><trkpt lat="44.3907027" lon="7.5747716"><ele>519.25</ele><time>2026-05-03T17:12:57.405Z</time></trkpt><trkpt lat="44.3907968" lon="7.5746705"><ele>519.0</ele><time>2026-05-03T17:12:58.402Z</time></trkpt><trkpt lat="44.3908666" lon="7.5745461"><ele>518.5</ele><time>2026-05-03T17:12:59.408Z</time></trkpt><trkpt lat="44.3909095" lon="7.5744018"><ele>518.0</ele><time>2026-05-03T17:13:00.398Z</time></trkpt><trkpt lat="44.3909252" lon="7.5742287"><ele>517.5</ele><time>2026-05-03T17:13:01.408Z</time></trkpt><trkpt lat="44.3909129" lon="7.574031"><ele>517.0</ele><time>2026-05-03T17:13:02.4Z</time></trkpt><trkpt lat="44.3909019" lon="7.5738266"><ele>515.6666666666667</ele><time>2026-05-03T17:13:03.402Z</time></trkpt><trkpt lat="44.3909292" lon="7.5736206"><ele>514.3333333333334</ele><time>2026-05-03T17:13:04.411Z</time></trkpt><trkpt lat="44.3909901" lon="7.5734016"><ele>513.0</ele><time>2026-05-03T17:13:05.404Z</time></trkpt><trkpt lat="44.3910562" lon="7.573171"><ele>513.0</ele><time>2026-05-03T17:13:06.411Z</time></trkpt><trkpt lat="44.3911094" lon="7.5729312"><ele>513.0</ele><time>2026-05-03T17:13:07.404Z</time></trkpt><trkpt lat="44.3911455" lon="7.572674"><ele>513.0</ele><time>2026-05-03T17:13:08.408Z</time></trkpt><trkpt lat="44.3911724" lon="7.5724177"><ele>513.0</ele><time>2026-05-03T17:13:09.396Z</time></trkpt><trkpt lat="44.3911931" lon="7.5721614"><ele>513.0</ele><time>2026-05-03T17:13:10.392Z</time></trkpt><trkpt lat="44.3912056" lon="7.5719085"><ele>513.0</ele><time>2026-05-03T17:13:11.411Z</time></trkpt><trkpt lat="44.3912142" lon="7.5716659"><ele>513.0</ele><time>2026-05-03T17:13:12.407Z</time></trkpt><trkpt lat="44.3912223" lon="7.5714289"><ele>513.0</ele><time>2026-05-03T17:13:13.411Z</time></trkpt><trkpt lat="44.3912302" lon="7.5712017"><ele>513.0</ele><time>2026-05-03T17:13:14.395Z</time></trkpt><trkpt lat="44.3912365" lon="7.5709908"><ele>513.0</ele><time>2026-05-03T17:13:15.4Z</time></trkpt><trkpt lat="44.39124" lon="7.5707972"><ele>513.0</ele><time>2026-05-03T17:13:16.409Z</time></trkpt><trkpt lat="44.3912441" lon="7.5706187"><ele>513.0</ele><time>2026-05-03T17:13:17.396Z</time></trkpt><trkpt lat="44.3912513" lon="7.5704497"><ele>513.0</ele><time>2026-05-03T17:13:18.405Z</time></trkpt><trkpt lat="44.3912607" lon="7.5702825"><ele>511.75</ele><time>2026-05-03T17:13:19.394Z</time></trkpt><trkpt lat="44.3912697" lon="7.5701005"><ele>510.5</ele><time>2026-05-03T17:13:20.402Z</time></trkpt><trkpt lat="44.3912804" lon="7.5698923"><ele>509.25</ele><time>2026-05-03T17:13:21.413Z</time></trkpt><trkpt lat="44.3912884" lon="7.5696683"><ele>508.0</ele><time>2026-05-03T17:13:22.411Z</time></trkpt><trkpt lat="44.3913017" lon="7.5694298"><ele>507.6666666666667</ele><time>2026-05-03T17:13:23.415Z</time></trkpt><trkpt lat="44.3913197" lon="7.5691796"><ele>507.33333333333337</ele><time>2026-05-03T17:13:24.398Z</time></trkpt><trkpt lat="44.3913414" lon="7.5689267"><ele>507.0</ele><time>2026-05-03T17:13:25.409Z</time></trkpt><trkpt lat="44.3913674" lon="7.5686739"><ele>507.0</ele><time>2026-05-03T17:13:26.413Z</time></trkpt><trkpt lat="44.3913915" lon="7.5684296"><ele>507.0</ele><time>2026-05-03T17:13:27.419Z</time></trkpt><trkpt lat="44.3914128" lon="7.5681992"><ele>507.0</ele><time>2026-05-03T17:13:28.411Z</time></trkpt><trkpt lat="44.391432" lon="7.5679739"><ele>506.66666666666663</ele><time>2026-05-03T17:13:29.406Z</time></trkpt><trkpt lat="44.3914515" lon="7.5677523"><ele>506.3333333333333</ele><time>2026-05-03T17:13:30.406Z</time></trkpt><trkpt lat="44.3914654" lon="7.5675287"><ele>506.0</ele><time>2026-05-03T17:13:31.396Z</time></trkpt><trkpt lat="44.3914715" lon="7.5673047"><ele>506.0</ele><time>2026-05-03T17:13:32.398Z</time></trkpt><trkpt lat="44.3914729" lon="7.5670768"><ele>506.0</ele><time>2026-05-03T17:13:33.421Z</time></trkpt><trkpt lat="44.3914708" lon="7.5668481"><ele>506.0</ele><time>2026-05-03T17:13:34.412Z</time></trkpt><trkpt lat="44.391461" lon="7.566634"><ele>505.5</ele><time>2026-05-03T17:13:35.404Z</time></trkpt><trkpt lat="44.3914453" lon="7.5664266"><ele>505.0</ele><time>2026-05-03T17:13:36.395Z</time></trkpt><trkpt lat="44.3914334" lon="7.5662275"><ele>504.5</ele><time>2026-05-03T17:13:37.409Z</time></trkpt><trkpt lat="44.3914231" lon="7.5660347"><ele>504.0</ele><time>2026-05-03T17:13:38.403Z</time></trkpt><trkpt lat="44.3914102" lon="7.5658419"><ele>503.5</ele><time>2026-05-03T17:13:39.413Z</time></trkpt><trkpt lat="44.3913958" lon="7.5656485"><ele>503.0</ele><time>2026-05-03T17:13:40.399Z</time></trkpt><trkpt lat="44.3913827" lon="7.5654484"><ele>502.5</ele><time>2026-05-03T17:13:41.402Z</time></trkpt><trkpt lat="44.3913741" lon="7.5652598"><ele>502.0</ele><time>2026-05-03T17:13:42.402Z</time></trkpt><trkpt lat="44.3913715" lon="7.5650811"><ele>502.0</ele><time>2026-05-03T17:13:43.4Z</time></trkpt><trkpt lat="44.3913744" lon="7.5649091"><ele>502.0</ele><time>2026-05-03T17:13:44.4Z</time></trkpt><trkpt lat="44.3913773" lon="7.5647457"><ele>502.0</ele><time>2026-05-03T17:13:45.412Z</time></trkpt><trkpt lat="44.3913859" lon="7.5645896"><ele>502.0</ele><time>2026-05-03T17:13:46.402Z</time></trkpt><trkpt lat="44.3913885" lon="7.5644397"><ele>501.8</ele><time>2026-05-03T17:13:47.402Z</time></trkpt><trkpt lat="44.3913921" lon="7.5643028"><ele>501.6</ele><time>2026-05-03T17:13:48.403Z</time></trkpt><trkpt lat="44.3913984" lon="7.5641732"><ele>501.40000000000003</ele><time>2026-05-03T17:13:49.411Z</time></trkpt><trkpt lat="44.3914099" lon="7.5640384"><ele>501.20000000000005</ele><time>2026-05-03T17:13:50.408Z</time></trkpt><trkpt lat="44.3914262" lon="7.5639062"><ele>501.0</ele><time>2026-05-03T17:13:51.397Z</time></trkpt><trkpt lat="44.3914396" lon="7.5638009"><ele>501.0</ele><time>2026-05-03T17:13:52.412Z</time></trkpt><trkpt lat="44.3914531" lon="7.5637109"><ele>501.0</ele><time>2026-05-03T17:13:53.41Z</time></trkpt><trkpt lat="44.3914798" lon="7.5636134"><ele>501.0</ele><time>2026-05-03T17:13:55.404Z</time></trkpt><trkpt lat="44.3915326" lon="7.5635021"><ele>501.0</ele><time>2026-05-03T17:13:59.401Z</time></trkpt><trkpt lat="44.391585" lon="7.5634047"><ele>501.0</ele><time>2026-05-03T17:14:01.397Z</time></trkpt><trkpt lat="44.3915937" lon="7.5632886"><ele>501.0</ele><time>2026-05-03T17:14:03.41Z</time></trkpt><trkpt lat="44.3915401" lon="7.5631659"><ele>501.0</ele><time>2026-05-03T17:14:05.404Z</time></trkpt><trkpt lat="44.3914817" lon="7.5630445"><ele>501.0</ele><time>2026-05-03T17:14:07.403Z</time></trkpt><trkpt lat="44.3914206" lon="7.5629035"><ele>501.0</ele><time>2026-05-03T17:14:09.415Z</time></trkpt><trkpt lat="44.3913983" lon="7.5627995"><ele>501.0</ele><time>2026-05-03T17:14:11.415Z</time></trkpt><trkpt lat="44.3913843" lon="7.5627055"><ele>501.0</ele><time>2026-05-03T17:14:14.413Z</time></trkpt><trkpt lat="44.3913573" lon="7.5625235"><ele>501.0</ele><time>2026-05-03T17:14:16.399Z</time></trkpt><trkpt lat="44.391346" lon="7.5623959"><ele>501.0</ele><time>2026-05-03T17:14:17.41Z</time></trkpt><trkpt lat="44.3913393" lon="7.5622294"><ele>501.0</ele><time>2026-05-03T17:14:18.421Z</time></trkpt><trkpt lat="44.3913358" lon="7.5620509"><ele>501.0</ele><time>2026-05-03T17:14:19.394Z</time></trkpt><trkpt lat="44.3913311" lon="7.5618679"><ele>501.0</ele><time>2026-05-03T17:14:20.397Z</time></trkpt><trkpt lat="44.391323" lon="7.5616619"><ele>501.0</ele><time>2026-05-03T17:14:21.402Z</time></trkpt><trkpt lat="44.3913121" lon="7.5614373"><ele>501.0</ele><time>2026-05-03T17:14:22.407Z</time></trkpt><trkpt lat="44.3913032" lon="7.5611976"><ele>501.0</ele><time>2026-05-03T17:14:23.408Z</time></trkpt><trkpt lat="44.3912878" lon="7.5609496"><ele>501.0</ele><time>2026-05-03T17:14:24.412Z</time></trkpt><trkpt lat="44.3912617" lon="7.5607012"><ele>501.0</ele><time>2026-05-03T17:14:25.421Z</time></trkpt><trkpt lat="44.3912357" lon="7.5604381"><ele>500.66666666666663</ele><time>2026-05-03T17:14:26.412Z</time></trkpt><trkpt lat="44.3912144" lon="7.5601675"><ele>500.3333333333333</ele><time>2026-05-03T17:14:27.405Z</time></trkpt><trkpt lat="44.391196" lon="7.5598894"><ele>500.0</ele><time>2026-05-03T17:14:28.391Z</time></trkpt><trkpt lat="44.3911723" lon="7.5596152"><ele>500.66666666666663</ele><time>2026-05-03T17:14:29.403Z</time></trkpt><trkpt lat="44.3911747" lon="7.5593853"><ele>501.33333333333337</ele><time>2026-05-03T17:14:30.402Z</time></trkpt><trkpt lat="44.3911725" lon="7.5591597"><ele>502.0</ele><time>2026-05-03T17:14:31.402Z</time></trkpt><trkpt lat="44.3911798" lon="7.5589624"><ele>502.0</ele><time>2026-05-03T17:14:32.408Z</time></trkpt><trkpt lat="44.3911928" lon="7.5587889"><ele>502.0</ele><time>2026-05-03T17:14:33.404Z</time></trkpt><trkpt lat="44.3912384" lon="7.5586211"><ele>502.0</ele><time>2026-05-03T17:14:34.425Z</time></trkpt><trkpt lat="44.3912865" lon="7.5584601"><ele>502.0</ele><time>2026-05-03T17:14:35.405Z</time></trkpt><trkpt lat="44.3913142" lon="7.558295"><ele>502.20000000000005</ele><time>2026-05-03T17:14:36.41Z</time></trkpt><trkpt lat="44.3913524" lon="7.5581375"><ele>502.40000000000003</ele><time>2026-05-03T17:14:37.405Z</time></trkpt><trkpt lat="44.3913982" lon="7.5580183"><ele>502.59999999999997</ele><time>2026-05-03T17:14:38.412Z</time></trkpt><trkpt lat="44.3914413" lon="7.5579024"><ele>502.79999999999995</ele><time>2026-05-03T17:14:39.409Z</time></trkpt><trkpt lat="44.3914849" lon="7.5577709"><ele>503.0</ele><time>2026-05-03T17:14:40.404Z</time></trkpt><trkpt lat="44.3915356" lon="7.5576322"><ele>503.0</ele><time>2026-05-03T17:14:41.399Z</time></trkpt><trkpt lat="44.3915904" lon="7.557481"><ele>503.0</ele><time>2026-05-03T17:14:42.407Z</time></trkpt><trkpt lat="44.3916516" lon="7.5573192"><ele>503.0</ele><time>2026-05-03T17:14:43.407Z</time></trkpt><trkpt lat="44.3917165" lon="7.5571502"><ele>503.0</ele><time>2026-05-03T17:14:44.395Z</time></trkpt><trkpt lat="44.3917806" lon="7.5569768"><ele>502.5</ele><time>2026-05-03T17:14:45.397Z</time></trkpt><trkpt lat="44.3918455" lon="7.5567992"><ele>502.0</ele><time>2026-05-03T17:14:46.41Z</time></trkpt><trkpt lat="44.3919114" lon="7.556618"><ele>501.5</ele><time>2026-05-03T17:14:47.43Z</time></trkpt><trkpt lat="44.3919752" lon="7.5564409"><ele>501.0</ele><time>2026-05-03T17:14:48.415Z</time></trkpt><trkpt lat="44.3920375" lon="7.556269"><ele>501.5</ele><time>2026-05-03T17:14:49.396Z</time></trkpt><trkpt lat="44.3920949" lon="7.5561072"><ele>502.0</ele><time>2026-05-03T17:14:50.399Z</time></trkpt><trkpt lat="44.3921499" lon="7.5559499"><ele>502.5</ele><time>2026-05-03T17:14:51.415Z</time></trkpt><trkpt lat="44.3922067" lon="7.5558043"><ele>503.0</ele><time>2026-05-03T17:14:52.395Z</time></trkpt><trkpt lat="44.3922567" lon="7.5556709"><ele>503.49999999999994</ele><time>2026-05-03T17:14:53.401Z</time></trkpt><trkpt lat="44.3923016" lon="7.5555514"><ele>504.0</ele><time>2026-05-03T17:14:54.395Z</time></trkpt><trkpt lat="44.3923436" lon="7.5554449"><ele>504.5</ele><time>2026-05-03T17:14:55.416Z</time></trkpt><trkpt lat="44.3923931" lon="7.5553434"><ele>505.0</ele><time>2026-05-03T17:14:56.411Z</time></trkpt><trkpt lat="44.3924543" lon="7.555263"><ele>505.49999999999994</ele><time>2026-05-03T17:14:57.4Z</time></trkpt><trkpt lat="44.392504" lon="7.5551792"><ele>506.0</ele><time>2026-05-03T17:14:58.395Z</time></trkpt><trkpt lat="44.3925308" lon="7.5550888"><ele>506.8</ele><time>2026-05-03T17:14:59.415Z</time></trkpt><trkpt lat="44.3925141" lon="7.5549309"><ele>507.6</ele><time>2026-05-03T17:15:01.392Z</time></trkpt><trkpt lat="44.392414" lon="7.5548408"><ele>508.4</ele><time>2026-05-03T17:15:03.4Z</time></trkpt><trkpt lat="44.3923489" lon="7.5548142"><ele>509.2</ele><time>2026-05-03T17:15:04.407Z</time></trkpt><trkpt lat="44.3922762" lon="7.5547808"><ele>510.0</ele><time>2026-05-03T17:15:05.409Z</time></trkpt><trkpt lat="44.3922048" lon="7.5547104"><ele>510.6</ele><time>2026-05-03T17:15:06.413Z</time></trkpt><trkpt lat="44.3921386" lon="7.554626"><ele>511.2</ele><time>2026-05-03T17:15:07.402Z</time></trkpt><trkpt lat="44.3920659" lon="7.5545429"><ele>511.79999999999995</ele><time>2026-05-03T17:15:08.393Z</time></trkpt><trkpt lat="44.3919901" lon="7.554452"><ele>512.4</ele><time>2026-05-03T17:15:09.417Z</time></trkpt><trkpt lat="44.3919065" lon="7.5543599"><ele>513.0</ele><time>2026-05-03T17:15:10.397Z</time></trkpt><trkpt lat="44.3918202" lon="7.5542662"><ele>513.0</ele><time>2026-05-03T17:15:11.41Z</time></trkpt><trkpt lat="44.3917285" lon="7.5541632"><ele>513.0</ele><time>2026-05-03T17:15:12.404Z</time></trkpt><trkpt lat="44.3916311" lon="7.554058"><ele>513.0</ele><time>2026-05-03T17:15:13.4Z</time></trkpt><trkpt lat="44.3915265" lon="7.5539523"><ele>513.0</ele><time>2026-05-03T17:15:14.397Z</time></trkpt><trkpt lat="44.391416" lon="7.5538505"><ele>511.5</ele><time>2026-05-03T17:15:15.39Z</time></trkpt><trkpt lat="44.3913074" lon="7.5537398"><ele>510.0</ele><time>2026-05-03T17:15:16.392Z</time></trkpt><trkpt lat="44.3911904" lon="7.5536182"><ele>508.5</ele><time>2026-05-03T17:15:17.409Z</time></trkpt><trkpt lat="44.3910634" lon="7.5534916"><ele>507.0</ele><time>2026-05-03T17:15:18.414Z</time></trkpt><trkpt lat="44.390926" lon="7.5533553"><ele>511.33333333333337</ele><time>2026-05-03T17:15:19.402Z</time></trkpt><trkpt lat="44.3907911" lon="7.5532181"><ele>515.6666666666667</ele><time>2026-05-03T17:15:20.403Z</time></trkpt><trkpt lat="44.390654" lon="7.5530789"><ele>520.0</ele><time>2026-05-03T17:15:21.395Z</time></trkpt><trkpt lat="44.3905167" lon="7.5529399"><ele>521.6666666666667</ele><time>2026-05-03T17:15:22.401Z</time></trkpt><trkpt lat="44.3903807" lon="7.5528025"><ele>523.3333333333334</ele><time>2026-05-03T17:15:23.397Z</time></trkpt><trkpt lat="44.3902404" lon="7.5526759"><ele>525.0</ele><time>2026-05-03T17:15:24.395Z</time></trkpt><trkpt lat="44.3901043" lon="7.5525611"><ele>525.0</ele><time>2026-05-03T17:15:25.415Z</time></trkpt><trkpt lat="44.3899649" lon="7.5524469"><ele>525.0</ele><time>2026-05-03T17:15:26.405Z</time></trkpt><trkpt lat="44.3898292" lon="7.5523294"><ele>525.0</ele><time>2026-05-03T17:15:27.407Z</time></trkpt><trkpt lat="44.3896916" lon="7.552214"><ele>527.6666666666666</ele><time>2026-05-03T17:15:28.404Z</time></trkpt><trkpt lat="44.3895532" lon="7.5520933"><ele>530.3333333333333</ele><time>2026-05-03T17:15:29.398Z</time></trkpt><trkpt lat="44.3894127" lon="7.5519752"><ele>533.0</ele><time>2026-05-03T17:15:30.415Z</time></trkpt><trkpt lat="44.3892788" lon="7.5518562"><ele>533.0</ele><time>2026-05-03T17:15:31.396Z</time></trkpt><trkpt lat="44.389145" lon="7.551738"><ele>533.0</ele><time>2026-05-03T17:15:32.412Z</time></trkpt><trkpt lat="44.3890091" lon="7.5516209"><ele>533.0</ele><time>2026-05-03T17:15:33.399Z</time></trkpt><trkpt lat="44.3888659" lon="7.5515015"><ele>534.6666666666666</ele><time>2026-05-03T17:15:34.418Z</time></trkpt><trkpt lat="44.3887259" lon="7.5513821"><ele>536.3333333333334</ele><time>2026-05-03T17:15:35.407Z</time></trkpt><trkpt lat="44.3885807" lon="7.5512572"><ele>538.0</ele><time>2026-05-03T17:15:36.407Z</time></trkpt><trkpt lat="44.3884321" lon="7.5511331"><ele>538.0</ele><time>2026-05-03T17:15:37.408Z</time></trkpt><trkpt lat="44.3882875" lon="7.5510048"><ele>538.0</ele><time>2026-05-03T17:15:38.405Z</time></trkpt><trkpt lat="44.3881456" lon="7.5508853"><ele>538.0</ele><time>2026-05-03T17:15:39.394Z</time></trkpt><trkpt lat="44.3880149" lon="7.5507745"><ele>536.0</ele><time>2026-05-03T17:15:40.399Z</time></trkpt><trkpt lat="44.3878937" lon="7.5506696"><ele>534.0</ele><time>2026-05-03T17:15:41.407Z</time></trkpt><trkpt lat="44.3877876" lon="7.5505733"><ele>532.0</ele><time>2026-05-03T17:15:42.419Z</time></trkpt><trkpt lat="44.3876882" lon="7.5504888"><ele>530.0</ele><time>2026-05-03T17:15:43.411Z</time></trkpt><trkpt lat="44.3876003" lon="7.5504096"><ele>532.3333333333333</ele><time>2026-05-03T17:15:44.395Z</time></trkpt><trkpt lat="44.3875188" lon="7.550342"><ele>534.6666666666666</ele><time>2026-05-03T17:15:45.398Z</time></trkpt><trkpt lat="44.3874505" lon="7.5502637"><ele>537.0</ele><time>2026-05-03T17:15:46.411Z</time></trkpt><trkpt lat="44.3874104" lon="7.550164"><ele>539.3333333333334</ele><time>2026-05-03T17:15:47.406Z</time></trkpt><trkpt lat="44.3874" lon="7.550065"><ele>541.6666666666667</ele><time>2026-05-03T17:15:48.413Z</time></trkpt><trkpt lat="44.3874212" lon="7.5499732"><ele>544.0</ele><time>2026-05-03T17:15:49.416Z</time></trkpt><trkpt lat="44.387468" lon="7.5498817"><ele>544.0</ele><time>2026-05-03T17:15:50.411Z</time></trkpt><trkpt lat="44.3875164" lon="7.5497959"><ele>544.0</ele><time>2026-05-03T17:15:51.403Z</time></trkpt><trkpt lat="44.3875604" lon="7.5497052"><ele>544.0</ele><time>2026-05-03T17:15:52.4Z</time></trkpt><trkpt lat="44.3875981" lon="7.5496237"><ele>544.0</ele><time>2026-05-03T17:15:53.429Z</time></trkpt><trkpt lat="44.3876768" lon="7.5494808"><ele>544.0</ele><time>2026-05-03T17:15:55.41Z</time></trkpt><trkpt lat="44.3877385" lon="7.5493355"><ele>544.0</ele><time>2026-05-03T17:15:57.411Z</time></trkpt><trkpt lat="44.3878333" lon="7.5492305"><ele>544.0</ele><time>2026-05-03T17:15:59.42Z</time></trkpt><trkpt lat="44.3879468" lon="7.5491696"><ele>544.0</ele><time>2026-05-03T17:16:01.416Z</time></trkpt><trkpt lat="44.3879998" lon="7.5490292"><ele>544.0</ele><time>2026-05-03T17:16:03.4Z</time></trkpt><trkpt lat="44.3879572" lon="7.5488666"><ele>544.0</ele><time>2026-05-03T17:16:05.4Z</time></trkpt><trkpt lat="44.3878926" lon="7.5488354"><ele>544.0</ele><time>2026-05-03T17:16:06.409Z</time></trkpt><trkpt lat="44.3878214" lon="7.5488279"><ele>544.0</ele><time>2026-05-03T17:16:07.418Z</time></trkpt><trkpt lat="44.3877121" lon="7.5488851"><ele>544.0</ele><time>2026-05-03T17:16:08.383Z</time></trkpt><trkpt lat="44.3875915" lon="7.5489006"><ele>544.0</ele><time>2026-05-03T17:16:09.409Z</time></trkpt><trkpt lat="44.3874736" lon="7.5488891"><ele>544.0</ele><time>2026-05-03T17:16:10.422Z</time></trkpt><trkpt lat="44.3873384" lon="7.5488539"><ele>544.0</ele><time>2026-05-03T17:16:11.42Z</time></trkpt><trkpt lat="44.3872114" lon="7.5488378"><ele>544.0</ele><time>2026-05-03T17:16:12.411Z</time></trkpt><trkpt lat="44.3870885" lon="7.5488163"><ele>544.0</ele><time>2026-05-03T17:16:13.406Z</time></trkpt><trkpt lat="44.3869633" lon="7.548799"><ele>544.0</ele><time>2026-05-03T17:16:14.419Z</time></trkpt><trkpt lat="44.3868418" lon="7.5487758"><ele>544.0</ele><time>2026-05-03T17:16:15.405Z</time></trkpt><trkpt lat="44.3867212" lon="7.54875"><ele>544.0</ele><time>2026-05-03T17:16:16.421Z</time></trkpt><trkpt lat="44.3866008" lon="7.5487314"><ele>544.0</ele><time>2026-05-03T17:16:17.402Z</time></trkpt><trkpt lat="44.3864837" lon="7.5487077"><ele>544.2</ele><time>2026-05-03T17:16:18.413Z</time></trkpt><trkpt lat="44.3863668" lon="7.5486864"><ele>544.4</ele><time>2026-05-03T17:16:19.397Z</time></trkpt><trkpt lat="44.3862519" lon="7.5486662"><ele>544.6</ele><time>2026-05-03T17:16:20.408Z</time></trkpt><trkpt lat="44.3861439" lon="7.5486409"><ele>544.8</ele><time>2026-05-03T17:16:21.409Z</time></trkpt><trkpt lat="44.3860408" lon="7.5486214"><ele>545.0</ele><time>2026-05-03T17:16:22.413Z</time></trkpt><trkpt lat="44.3859422" lon="7.5486055"><ele>545.6</ele><time>2026-05-03T17:16:23.406Z</time></trkpt><trkpt lat="44.3858506" lon="7.5485895"><ele>546.2</ele><time>2026-05-03T17:16:24.404Z</time></trkpt><trkpt lat="44.38576" lon="7.5485761"><ele>546.8</ele><time>2026-05-03T17:16:25.408Z</time></trkpt><trkpt lat="44.3856687" lon="7.548559"><ele>547.4</ele><time>2026-05-03T17:16:26.408Z</time></trkpt><trkpt lat="44.3855737" lon="7.5485381"><ele>548.0</ele><time>2026-05-03T17:16:27.413Z</time></trkpt><trkpt lat="44.3854748" lon="7.5485208"><ele>548.0</ele><time>2026-05-03T17:16:28.411Z</time></trkpt><trkpt lat="44.3853762" lon="7.5485068"><ele>548.0</ele><time>2026-05-03T17:16:29.42Z</time></trkpt><trkpt lat="44.3852766" lon="7.5484918"><ele>548.0</ele><time>2026-05-03T17:16:30.402Z</time></trkpt><trkpt lat="44.3851753" lon="7.5484741"><ele>548.0</ele><time>2026-05-03T17:16:31.408Z</time></trkpt><trkpt lat="44.3850786" lon="7.5484528"><ele>548.0</ele><time>2026-05-03T17:16:32.397Z</time></trkpt><trkpt lat="44.3849811" lon="7.548434"><ele>548.0</ele><time>2026-05-03T17:16:33.408Z</time></trkpt><trkpt lat="44.3848815" lon="7.5484108"><ele>548.0</ele><time>2026-05-03T17:16:34.412Z</time></trkpt><trkpt lat="44.3847847" lon="7.5483922"><ele>548.0</ele><time>2026-05-03T17:16:35.397Z</time></trkpt><trkpt lat="44.3846861" lon="7.5483714"><ele>548.0</ele><time>2026-05-03T17:16:36.399Z</time></trkpt><trkpt lat="44.3845897" lon="7.5483548"><ele>548.0</ele><time>2026-05-03T17:16:37.408Z</time></trkpt><trkpt lat="44.3844901" lon="7.5483379"><ele>548.0</ele><time>2026-05-03T17:16:38.41Z</time></trkpt><trkpt lat="44.3843897" lon="7.5483184"><ele>548.0</ele><time>2026-05-03T17:16:39.412Z</time></trkpt><trkpt lat="44.3842863" lon="7.5482981"><ele>548.0</ele><time>2026-05-03T17:16:40.384Z</time></trkpt><trkpt lat="44.3841837" lon="7.5482684"><ele>548.0</ele><time>2026-05-03T17:16:41.404Z</time></trkpt><trkpt lat="44.3840819" lon="7.5482379"><ele>548.0</ele><time>2026-05-03T17:16:42.41Z</time></trkpt><trkpt lat="44.3839897" lon="7.5482039"><ele>548.0</ele><time>2026-05-03T17:16:43.408Z</time></trkpt><trkpt lat="44.3839016" lon="7.5481605"><ele>548.0</ele><time>2026-05-03T17:16:44.401Z</time></trkpt><trkpt lat="44.3838125" lon="7.5481204"><ele>548.0</ele><time>2026-05-03T17:16:45.4Z</time></trkpt><trkpt lat="44.3837285" lon="7.5480733"><ele>548.0</ele><time>2026-05-03T17:16:46.398Z</time></trkpt><trkpt lat="44.3836499" lon="7.5480139"><ele>548.0</ele><time>2026-05-03T17:16:47.407Z</time></trkpt><trkpt lat="44.3835617" lon="7.5479612"><ele>547.8</ele><time>2026-05-03T17:16:48.41Z</time></trkpt><trkpt lat="44.3834825" lon="7.5479106"><ele>547.5999999999999</ele><time>2026-05-03T17:16:49.406Z</time></trkpt><trkpt lat="44.3834045" lon="7.5478492"><ele>547.4000000000001</ele><time>2026-05-03T17:16:50.405Z</time></trkpt><trkpt lat="44.3833225" lon="7.5477913"><ele>547.2</ele><time>2026-05-03T17:16:51.405Z</time></trkpt><trkpt lat="44.3832271" lon="7.5477372"><ele>547.0</ele><time>2026-05-03T17:16:52.41Z</time></trkpt><trkpt lat="44.383131" lon="7.5476778"><ele>547.4</ele><time>2026-05-03T17:16:53.392Z</time></trkpt><trkpt lat="44.3830385" lon="7.5476295"><ele>547.8000000000001</ele><time>2026-05-03T17:16:54.402Z</time></trkpt><trkpt lat="44.3829494" lon="7.5475696"><ele>548.2</ele><time>2026-05-03T17:16:55.415Z</time></trkpt><trkpt lat="44.3828662" lon="7.5475072"><ele>548.6</ele><time>2026-05-03T17:16:56.396Z</time></trkpt><trkpt lat="44.3827766" lon="7.5474565"><ele>549.0</ele><time>2026-05-03T17:16:57.411Z</time></trkpt><trkpt lat="44.3826923" lon="7.5474054"><ele>549.0</ele><time>2026-05-03T17:16:58.397Z</time></trkpt><trkpt lat="44.3826134" lon="7.5473498"><ele>549.0</ele><time>2026-05-03T17:16:59.431Z</time></trkpt><trkpt lat="44.3825346" lon="7.5472971"><ele>549.0</ele><time>2026-05-03T17:17:00.397Z</time></trkpt><trkpt lat="44.3824595" lon="7.5472441"><ele>549.0</ele><time>2026-05-03T17:17:01.399Z</time></trkpt><trkpt lat="44.3823832" lon="7.5472009"><ele>549.0</ele><time>2026-05-03T17:17:02.406Z</time></trkpt><trkpt lat="44.3823085" lon="7.5471611"><ele>549.0</ele><time>2026-05-03T17:17:03.396Z</time></trkpt><trkpt lat="44.382245" lon="7.5471282"><ele>549.0</ele><time>2026-05-03T17:17:04.407Z</time></trkpt><trkpt lat="44.3821868" lon="7.5470852"><ele>549.0</ele><time>2026-05-03T17:17:05.401Z</time></trkpt><trkpt lat="44.3821498" lon="7.546952"><ele>549.0</ele><time>2026-05-03T17:17:07.408Z</time></trkpt><trkpt lat="44.3822" lon="7.5468222"><ele>549.0</ele><time>2026-05-03T17:17:09.408Z</time></trkpt><trkpt lat="44.3822742" lon="7.5466778"><ele>549.0</ele><time>2026-05-03T17:17:11.41Z</time></trkpt><trkpt lat="44.3823204" lon="7.5465948"><ele>550.0</ele><time>2026-05-03T17:17:12.406Z</time></trkpt><trkpt lat="44.3823646" lon="7.5465083"><ele>551.0</ele><time>2026-05-03T17:17:13.408Z</time></trkpt><trkpt lat="44.3824118" lon="7.546421"><ele>552.0</ele><time>2026-05-03T17:17:14.413Z</time></trkpt><trkpt lat="44.3824588" lon="7.5463362"><ele>553.0</ele><time>2026-05-03T17:17:15.404Z</time></trkpt><trkpt lat="44.3825099" lon="7.5462493"><ele>554.0</ele><time>2026-05-03T17:17:16.41Z</time></trkpt><trkpt lat="44.3825577" lon="7.5461615"><ele>555.0</ele><time>2026-05-03T17:17:17.411Z</time></trkpt><trkpt lat="44.3826075" lon="7.5460721"><ele>555.0</ele><time>2026-05-03T17:17:18.405Z</time></trkpt><trkpt lat="44.3826512" lon="7.545982"><ele>555.0</ele><time>2026-05-03T17:17:19.393Z</time></trkpt><trkpt lat="44.3826941" lon="7.5458909"><ele>555.0</ele><time>2026-05-03T17:17:20.405Z</time></trkpt><trkpt lat="44.3827402" lon="7.5458065"><ele>555.0</ele><time>2026-05-03T17:17:21.401Z</time></trkpt><trkpt lat="44.3827882" lon="7.5457182"><ele>555.0</ele><time>2026-05-03T17:17:22.41Z</time></trkpt><trkpt lat="44.3828367" lon="7.545626"><ele>555.0</ele><time>2026-05-03T17:17:23.402Z</time></trkpt><trkpt lat="44.3828878" lon="7.5455326"><ele>555.0</ele><time>2026-05-03T17:17:24.413Z</time></trkpt><trkpt lat="44.3829436" lon="7.5454419"><ele>555.0</ele><time>2026-05-03T17:17:25.395Z</time></trkpt><trkpt lat="44.3829976" lon="7.5453417"><ele>555.0</ele><time>2026-05-03T17:17:26.41Z</time></trkpt><trkpt lat="44.383052" lon="7.5452378"><ele>555.0</ele><time>2026-05-03T17:17:27.405Z</time></trkpt><trkpt lat="44.3831055" lon="7.5451341"><ele>555.0</ele><time>2026-05-03T17:17:28.412Z</time></trkpt><trkpt lat="44.383161" lon="7.5450265"><ele>554.8333333333334</ele><time>2026-05-03T17:17:29.395Z</time></trkpt><trkpt lat="44.3832123" lon="7.5449295"><ele>554.6666666666666</ele><time>2026-05-03T17:17:30.405Z</time></trkpt><trkpt lat="44.383264" lon="7.5448358"><ele>554.5</ele><time>2026-05-03T17:17:31.397Z</time></trkpt><trkpt lat="44.3833098" lon="7.5447419"><ele>554.3333333333333</ele><time>2026-05-03T17:17:32.412Z</time></trkpt><trkpt lat="44.383354" lon="7.544662"><ele>554.1666666666666</ele><time>2026-05-03T17:17:33.401Z</time></trkpt><trkpt lat="44.3833998" lon="7.5445849"><ele>554.0</ele><time>2026-05-03T17:17:34.405Z</time></trkpt><trkpt lat="44.3834464" lon="7.5445044"><ele>553.6666666666666</ele><time>2026-05-03T17:17:35.391Z</time></trkpt><trkpt lat="44.3834928" lon="7.5444245"><ele>553.3333333333333</ele><time>2026-05-03T17:17:36.402Z</time></trkpt><trkpt lat="44.3835393" lon="7.5443459"><ele>553.0</ele><time>2026-05-03T17:17:37.405Z</time></trkpt><trkpt lat="44.3836006" lon="7.5442422"><ele>552.6666666666666</ele><time>2026-05-03T17:17:39.395Z</time></trkpt><trkpt lat="44.3836636" lon="7.5441487"><ele>552.3333333333334</ele><time>2026-05-03T17:17:43.404Z</time></trkpt><trkpt lat="44.3836955" lon="7.5440613"><ele>552.0</ele><time>2026-05-03T17:17:44.396Z</time></trkpt><trkpt lat="44.3837359" lon="7.5439743"><ele>552.0</ele><time>2026-05-03T17:17:45.409Z</time></trkpt><trkpt lat="44.3837774" lon="7.5438878"><ele>552.0</ele><time>2026-05-03T17:17:46.414Z</time></trkpt><trkpt lat="44.3838232" lon="7.5437973"><ele>552.0</ele><time>2026-05-03T17:17:47.401Z</time></trkpt><trkpt lat="44.3838645" lon="7.5437113"><ele>552.0</ele><time>2026-05-03T17:17:48.404Z</time></trkpt><trkpt lat="44.3839077" lon="7.5436366"><ele>552.0</ele><time>2026-05-03T17:17:49.409Z</time></trkpt><trkpt lat="44.3839805" lon="7.5435064"><ele>552.0</ele><time>2026-05-03T17:17:51.401Z</time></trkpt><trkpt lat="44.384043" lon="7.5433948"><ele>553.0</ele><time>2026-05-03T17:17:53.404Z</time></trkpt><trkpt lat="44.3840876" lon="7.5432974"><ele>553.0</ele><time>2026-05-03T17:17:55.402Z</time></trkpt><trkpt lat="44.3841381" lon="7.5432126"><ele>553.0</ele><time>2026-05-03T17:17:57.402Z</time></trkpt><trkpt lat="44.3841826" lon="7.543127"><ele>553.0</ele><time>2026-05-03T17:17:59.402Z</time></trkpt><trkpt lat="44.3842229" lon="7.5430553"><ele>553.0</ele><time>2026-05-03T17:18:02.424Z</time></trkpt></trkseg></trk></gpx>